<?xml version='1.0' encoding='UTF-8'?><gpx version="1.1" creator="JPX - https://github.com/jenetics/jpx" xmlns="http://www.topografix.com/GPX/1/1"><trk><trkseg><trkpt lat="43.16105120197438" lon="12.283265294234292"><ele>249.99999999999997</ele><time>2026-03-29T06:45:00.96Z</time></trkpt><trkpt lat="43.1611167183268" lon="12.283244332179526"><ele>250.0</ele><time>2026-03-29T06:48:16.956Z</time></trkpt><trkpt lat="43.16120124513743" lon="12.283260707936062"><ele>250.0</ele><time>2026-03-29T06:48:24.956Z</time></trkpt><trkpt lat="43.161268173512745" lon="12.283266309331301"><ele>250.0</ele><time>2026-03-29T06:48:29.956Z</time></trkpt><trkpt lat="43.161352323866794" lon="12.28318981352544"><ele>249.99999999999997</ele><time>2026-03-29T06:48:37.956Z</time></trkpt><trkpt lat="43.161404159626855" lon="12.283131974924725"><ele>250.0</ele><time>2026-03-29T06:48:42.956Z</time></trkpt><trkpt lat="43.161462060271575" lon="12.283095116244084"><ele>249.99999999999997</ele><time>2026-03-29T06:48:50.957Z</time></trkpt><trkpt lat="43.161521762383394" lon="12.283054236563466"><ele>250.0</ele><time>2026-03-29T06:48:57.957Z</time></trkpt><trkpt lat="43.16157021714571" lon="12.282945475702828"><ele>250.0</ele><time>2026-03-29T06:49:27.957Z</time></trkpt><trkpt lat="43.161589392033505" lon="12.282846394625947"><ele>250.0</ele><time>2026-03-29T06:49:39.957Z</time></trkpt><trkpt lat="43.16161315307981" lon="12.282972901301088"><ele>249.99999999999997</ele><time>2026-03-29T06:50:35.955Z</time></trkpt><trkpt lat="43.16162037842201" lon="12.282882192496116"><ele>250.0</ele><time>2026-03-29T06:52:34.953Z</time></trkpt><trkpt lat="43.16170376847784" lon="12.28287949681102"><ele>250.2</ele><time>2026-03-29T07:05:49.946Z</time></trkpt><trkpt lat="43.161779943363996" lon="12.282806722177169"><ele>250.4</ele><time>2026-03-29T07:05:51.946Z</time></trkpt><trkpt lat="43.16183238270494" lon="12.28268523183424"><ele>250.60000000000002</ele><time>2026-03-29T07:05:53.946Z</time></trkpt><trkpt lat="43.161900093521574" lon="12.282561163870866"><ele>250.8</ele><time>2026-03-29T07:05:55.946Z</time></trkpt><trkpt lat="43.161976393221686" lon="12.282404156675353"><ele>251.0</ele><time>2026-03-29T07:05:57.946Z</time></trkpt><trkpt lat="43.16201544221497" lon="12.282319125776795"><ele>250.8</ele><time>2026-03-29T07:05:58.946Z</time></trkpt><trkpt lat="43.16207292756465" lon="12.282213720671555"><ele>250.60000000000002</ele><time>2026-03-29T07:06:00.946Z</time></trkpt><trkpt lat="43.16211768281024" lon="12.282125490469536"><ele>250.4</ele><time>2026-03-29T07:06:02.946Z</time></trkpt><trkpt lat="43.16218833678263" lon="12.281999538664177"><ele>250.2</ele><time>2026-03-29T07:06:04.945Z</time></trkpt><trkpt lat="43.162265970304645" lon="12.281833461928214"><ele>250.0</ele><time>2026-03-29T07:06:06.945Z</time></trkpt><trkpt lat="43.16231211170744" lon="12.28173556758714"><ele>250.0</ele><time>2026-03-29T07:06:07.945Z</time></trkpt><trkpt lat="43.16234383656793" lon="12.281655327609913"><ele>250.0</ele><time>2026-03-29T07:06:08.945Z</time></trkpt><trkpt lat="43.162381965836346" lon="12.281585419918452"><ele>250.0</ele><time>2026-03-29T07:06:09.945Z</time></trkpt><trkpt lat="43.16245322906941" lon="12.281456996050084"><ele>250.0</ele><time>2026-03-29T07:06:10.945Z</time></trkpt><trkpt lat="43.16254223235334" lon="12.281296654946766"><ele>250.0</ele><time>2026-03-29T07:06:11.945Z</time></trkpt><trkpt lat="43.162626150399575" lon="12.281144053804857"><ele>250.0</ele><time>2026-03-29T07:06:12.945Z</time></trkpt><trkpt lat="43.16269910522753" lon="12.281003805288062"><ele>250.0</ele><time>2026-03-29T07:06:13.945Z</time></trkpt><trkpt lat="43.162762572177066" lon="12.280871548993163"><ele>250.0</ele><time>2026-03-29T07:06:14.945Z</time></trkpt><trkpt lat="43.16281762409742" lon="12.280758894911157"><ele>250.0</ele><time>2026-03-29T07:06:15.945Z</time></trkpt><trkpt lat="43.16287733348933" lon="12.280647592390395"><ele>250.0</ele><time>2026-03-29T07:06:16.945Z</time></trkpt><trkpt lat="43.16293913807989" lon="12.28053044555426"><ele>250.2</ele><time>2026-03-29T07:06:17.945Z</time></trkpt><trkpt lat="43.16299746326791" lon="12.280417859000968"><ele>250.4</ele><time>2026-03-29T07:06:18.945Z</time></trkpt><trkpt lat="43.16306080462928" lon="12.280293742721925"><ele>250.60000000000002</ele><time>2026-03-29T07:06:19.945Z</time></trkpt><trkpt lat="43.163123895525466" lon="12.280175519135847"><ele>250.8</ele><time>2026-03-29T07:06:20.945Z</time></trkpt><trkpt lat="43.16319076861053" lon="12.280053393239214"><ele>251.0</ele><time>2026-03-29T07:06:21.945Z</time></trkpt><trkpt lat="43.16325757650764" lon="12.279930423257143"><ele>251.20000000000002</ele><time>2026-03-29T07:06:22.945Z</time></trkpt><trkpt lat="43.16332447962563" lon="12.279817737036627"><ele>251.40000000000003</ele><time>2026-03-29T07:06:23.945Z</time></trkpt><trkpt lat="43.1633897921393" lon="12.279710085061417"><ele>251.6</ele><time>2026-03-29T07:06:24.945Z</time></trkpt><trkpt lat="43.163456980745785" lon="12.27960639690498"><ele>251.8</ele><time>2026-03-29T07:06:25.945Z</time></trkpt><trkpt lat="43.16352776224769" lon="12.279515713998977"><ele>252.0</ele><time>2026-03-29T07:06:26.945Z</time></trkpt><trkpt lat="43.163605355153194" lon="12.279444254488729"><ele>252.0</ele><time>2026-03-29T07:06:27.945Z</time></trkpt><trkpt lat="43.16369097829498" lon="12.279375205288272"><ele>252.0</ele><time>2026-03-29T07:06:28.945Z</time></trkpt><trkpt lat="43.163770017529004" lon="12.279328885246148"><ele>252.0</ele><time>2026-03-29T07:06:29.945Z</time></trkpt><trkpt lat="43.16385690633665" lon="12.279299697129137"><ele>252.0</ele><time>2026-03-29T07:06:30.945Z</time></trkpt><trkpt lat="43.16394369971796" lon="12.279282673577855"><ele>252.0</ele><time>2026-03-29T07:06:31.945Z</time></trkpt><trkpt lat="43.164013922437825" lon="12.27926165874285"><ele>252.0</ele><time>2026-03-29T07:06:32.945Z</time></trkpt><trkpt lat="43.16407261679209" lon="12.279198169213588"><ele>252.39999999999998</ele><time>2026-03-29T07:06:34.945Z</time></trkpt><trkpt lat="43.16409994327325" lon="12.279113434823675"><ele>252.79999999999998</ele><time>2026-03-29T07:06:39.945Z</time></trkpt><trkpt lat="43.164098785179156" lon="12.27902555622725"><ele>253.2</ele><time>2026-03-29T07:06:41.944Z</time></trkpt><trkpt lat="43.1640705295743" lon="12.27892068897416"><ele>253.6</ele><time>2026-03-29T07:06:43.944Z</time></trkpt><trkpt lat="43.164040286061585" lon="12.278778467808483"><ele>254.0</ele><time>2026-03-29T07:06:44.944Z</time></trkpt><trkpt lat="43.16401232858309" lon="12.278551962428143"><ele>254.0</ele><time>2026-03-29T07:06:45.944Z</time></trkpt><trkpt lat="43.16396980938194" lon="12.278333776664587"><ele>254.0</ele><time>2026-03-29T07:06:46.944Z</time></trkpt><trkpt lat="43.1639494918362" lon="12.278113568639792"><ele>254.0</ele><time>2026-03-29T07:06:47.944Z</time></trkpt><trkpt lat="43.16395261872196" lon="12.277849325206295"><ele>255.0</ele><time>2026-03-29T07:06:48.944Z</time></trkpt><trkpt lat="43.16396833687426" lon="12.277526698831984"><ele>256.0</ele><time>2026-03-29T07:06:49.944Z</time></trkpt><trkpt lat="43.16397914983318" lon="12.277248168700183"><ele>257.0</ele><time>2026-03-29T07:06:50.944Z</time></trkpt><trkpt lat="43.16399190496194" lon="12.277029191959837"><ele>257.0</ele><time>2026-03-29T07:06:51.944Z</time></trkpt><trkpt lat="43.16399729301569" lon="12.2768679114495"><ele>257.0</ele><time>2026-03-29T07:06:52.944Z</time></trkpt><trkpt lat="43.163998256175866" lon="12.27676578317128"><ele>257.0</ele><time>2026-03-29T07:06:53.944Z</time></trkpt><trkpt lat="43.16399151558483" lon="12.276675643050256"><ele>257.0</ele><time>2026-03-29T07:06:55.944Z</time></trkpt><trkpt lat="43.16401109080544" lon="12.276587915526678"><ele>257.0</ele><time>2026-03-29T07:06:58.944Z</time></trkpt><trkpt lat="43.16405401484245" lon="12.2764616453959"><ele>257.0</ele><time>2026-03-29T07:07:00.944Z</time></trkpt><trkpt lat="43.1641072519135" lon="12.276312619948683"><ele>258.0</ele><time>2026-03-29T07:07:01.944Z</time></trkpt><trkpt lat="43.16418184249316" lon="12.276115007360103"><ele>259.0</ele><time>2026-03-29T07:07:02.944Z</time></trkpt><trkpt lat="43.164260228949274" lon="12.275935064722919"><ele>260.0</ele><time>2026-03-29T07:07:03.944Z</time></trkpt><trkpt lat="43.16430831250526" lon="12.275792247855538"><ele>261.0</ele><time>2026-03-29T07:07:04.944Z</time></trkpt><trkpt lat="43.164341044623654" lon="12.275716913660867"><ele>261.0</ele><time>2026-03-29T07:07:05.944Z</time></trkpt><trkpt lat="43.16440400471497" lon="12.275665139892151"><ele>261.0</ele><time>2026-03-29T07:07:07.944Z</time></trkpt><trkpt lat="43.16447376220529" lon="12.275680934147271"><ele>261.0</ele><time>2026-03-29T07:07:08.944Z</time></trkpt><trkpt lat="43.16458202871183" lon="12.275693880418645"><ele>261.0</ele><time>2026-03-29T07:07:09.944Z</time></trkpt><trkpt lat="43.16473558716994" lon="12.275671202332934"><ele>261.0</ele><time>2026-03-29T07:07:10.944Z</time></trkpt><trkpt lat="43.164934637159135" lon="12.275637911512797"><ele>261.0</ele><time>2026-03-29T07:07:11.944Z</time></trkpt><trkpt lat="43.16513993815558" lon="12.275614759312301"><ele>261.0</ele><time>2026-03-29T07:07:12.944Z</time></trkpt><trkpt lat="43.16529009822467" lon="12.275592365013791"><ele>261.0</ele><time>2026-03-29T07:07:13.944Z</time></trkpt><trkpt lat="43.16538847240183" lon="12.2755662386694"><ele>261.40000000000003</ele><time>2026-03-29T07:07:14.944Z</time></trkpt><trkpt lat="43.16545199134153" lon="12.275534095071263"><ele>261.8</ele><time>2026-03-29T07:07:15.943Z</time></trkpt><trkpt lat="43.165424243059604" lon="12.27542299907388"><ele>262.20000000000005</ele><time>2026-03-29T07:07:32.943Z</time></trkpt><trkpt lat="43.165459454303964" lon="12.275325119676854"><ele>262.6</ele><time>2026-03-29T07:07:33.943Z</time></trkpt><trkpt lat="43.165491229878896" lon="12.275188057693432"><ele>263.0</ele><time>2026-03-29T07:07:34.943Z</time></trkpt><trkpt lat="43.16550671213316" lon="12.275009085584976"><ele>263.0</ele><time>2026-03-29T07:07:35.943Z</time></trkpt><trkpt lat="43.16553492926688" lon="12.274789616967944"><ele>263.0</ele><time>2026-03-29T07:07:36.943Z</time></trkpt><trkpt lat="43.16556291715259" lon="12.274586129435312"><ele>263.0</ele><time>2026-03-29T07:07:37.945Z</time></trkpt><trkpt lat="43.165587308231885" lon="12.274394872577636"><ele>264.0</ele><time>2026-03-29T07:07:38.944Z</time></trkpt><trkpt lat="43.165622066808616" lon="12.274151261929909"><ele>265.0</ele><time>2026-03-29T07:07:39.944Z</time></trkpt><trkpt lat="43.165648458869455" lon="12.273876914467651"><ele>266.0</ele><time>2026-03-29T07:07:40.944Z</time></trkpt><trkpt lat="43.16568001329131" lon="12.273641417524972"><ele>269.5</ele><time>2026-03-29T07:07:41.944Z</time></trkpt><trkpt lat="43.16570095076067" lon="12.273456864647683"><ele>273.0</ele><time>2026-03-29T07:07:42.944Z</time></trkpt><trkpt lat="43.16572004784155" lon="12.273290310082556"><ele>276.5</ele><time>2026-03-29T07:07:43.945Z</time></trkpt><trkpt lat="43.16575688017748" lon="12.273123484324199"><ele>280.0</ele><time>2026-03-29T07:07:44.944Z</time></trkpt><trkpt lat="43.16577764560602" lon="12.273002517502729"><ele>280.0</ele><time>2026-03-29T07:07:45.944Z</time></trkpt><trkpt lat="43.16580711469342" lon="12.272893189087656"><ele>280.0</ele><time>2026-03-29T07:07:46.945Z</time></trkpt><trkpt lat="43.16588741749093" lon="12.272784343755756"><ele>280.0</ele><time>2026-03-29T07:07:48.945Z</time></trkpt><trkpt lat="43.165982536577175" lon="12.272732341854068"><ele>280.0</ele><time>2026-03-29T07:07:49.945Z</time></trkpt><trkpt lat="43.16609912417752" lon="12.27269929767739"><ele>280.0</ele><time>2026-03-29T07:07:50.944Z</time></trkpt><trkpt lat="43.16623580138545" lon="12.272687580806904"><ele>280.0</ele><time>2026-03-29T07:07:51.944Z</time></trkpt><trkpt lat="43.16638306941591" lon="12.27264644268044"><ele>280.0</ele><time>2026-03-29T07:07:52.944Z</time></trkpt><trkpt lat="43.166490361369384" lon="12.272590446917516"><ele>280.0</ele><time>2026-03-29T07:07:53.944Z</time></trkpt><trkpt lat="43.16658606688647" lon="12.272475122670517"><ele>280.0</ele><time>2026-03-29T07:07:54.944Z</time></trkpt><trkpt lat="43.16667957938219" lon="12.272319247267413"><ele>281.6</ele><time>2026-03-29T07:07:55.944Z</time></trkpt><trkpt lat="43.16677893902784" lon="12.272179292667106"><ele>283.2</ele><time>2026-03-29T07:07:56.944Z</time></trkpt><trkpt lat="43.16684250775367" lon="12.272084769098933"><ele>284.8</ele><time>2026-03-29T07:07:57.944Z</time></trkpt><trkpt lat="43.1669109269796" lon="12.27205309257006"><ele>286.4</ele><time>2026-03-29T07:07:58.944Z</time></trkpt><trkpt lat="43.166993018073775" lon="12.272035434056896"><ele>288.0</ele><time>2026-03-29T07:07:59.944Z</time></trkpt><trkpt lat="43.167060276206925" lon="12.272000514405262"><ele>288.0</ele><time>2026-03-29T07:08:00.944Z</time></trkpt><trkpt lat="43.16710674192703" lon="12.271933098040098"><ele>288.0</ele><time>2026-03-29T07:08:01.944Z</time></trkpt><trkpt lat="43.16716386320304" lon="12.271623485905769"><ele>288.0</ele><time>2026-03-29T07:08:03.944Z</time></trkpt><trkpt lat="43.167208909947476" lon="12.271423926893265"><ele>287.0</ele><time>2026-03-29T07:08:04.944Z</time></trkpt><trkpt lat="43.16725468658453" lon="12.271272493691756"><ele>286.0</ele><time>2026-03-29T07:08:05.944Z</time></trkpt><trkpt lat="43.167307225109454" lon="12.271146931000587"><ele>285.0</ele><time>2026-03-29T07:08:06.944Z</time></trkpt><trkpt lat="43.16736617518284" lon="12.27106100894298"><ele>284.0</ele><time>2026-03-29T07:08:07.944Z</time></trkpt><trkpt lat="43.16744857985202" lon="12.271000981065262"><ele>283.0</ele><time>2026-03-29T07:08:08.944Z</time></trkpt><trkpt lat="43.167554379111856" lon="12.270903820197105"><ele>284.0</ele><time>2026-03-29T07:08:09.944Z</time></trkpt><trkpt lat="43.1677049326631" lon="12.270776034725854"><ele>285.0</ele><time>2026-03-29T07:08:10.944Z</time></trkpt><trkpt lat="43.16781375600985" lon="12.270683689938895"><ele>286.0</ele><time>2026-03-29T07:08:11.944Z</time></trkpt><trkpt lat="43.167916631485596" lon="12.270599925435935"><ele>287.0</ele><time>2026-03-29T07:08:12.944Z</time></trkpt><trkpt lat="43.16801191751995" lon="12.270500179979118"><ele>287.0</ele><time>2026-03-29T07:08:13.944Z</time></trkpt><trkpt lat="43.16808141925498" lon="12.27039658697875"><ele>287.0</ele><time>2026-03-29T07:08:14.944Z</time></trkpt><trkpt lat="43.16816311605668" lon="12.270284827512125"><ele>287.0</ele><time>2026-03-29T07:08:15.944Z</time></trkpt><trkpt lat="43.16824629276405" lon="12.270172447873211"><ele>287.0</ele><time>2026-03-29T07:08:16.944Z</time></trkpt><trkpt lat="43.1683515890567" lon="12.270055549619684"><ele>290.25</ele><time>2026-03-29T07:08:17.944Z</time></trkpt><trkpt lat="43.168471612876594" lon="12.26993878726379"><ele>293.5</ele><time>2026-03-29T07:08:18.944Z</time></trkpt><trkpt lat="43.168568344535636" lon="12.269850298487546"><ele>296.75</ele><time>2026-03-29T07:08:19.943Z</time></trkpt><trkpt lat="43.16865162608714" lon="12.269779991719947"><ele>300.0</ele><time>2026-03-29T07:08:20.943Z</time></trkpt><trkpt lat="43.16873603808884" lon="12.26972949308241"><ele>300.25</ele><time>2026-03-29T07:08:21.943Z</time></trkpt><trkpt lat="43.168845774543904" lon="12.269685786268907"><ele>300.5</ele><time>2026-03-29T07:08:22.943Z</time></trkpt><trkpt lat="43.16897420988364" lon="12.2696262250448"><ele>300.75</ele><time>2026-03-29T07:08:23.943Z</time></trkpt><trkpt lat="43.169099301825526" lon="12.269554584317143"><ele>301.0</ele><time>2026-03-29T07:08:24.943Z</time></trkpt><trkpt lat="43.169209326579285" lon="12.269497509192178"><ele>301.66666666666663</ele><time>2026-03-29T07:08:25.943Z</time></trkpt><trkpt lat="43.169312682050744" lon="12.26944943588742"><ele>302.3333333333333</ele><time>2026-03-29T07:08:26.943Z</time></trkpt><trkpt lat="43.1694043014413" lon="12.269437587702651"><ele>303.0</ele><time>2026-03-29T07:08:27.943Z</time></trkpt><trkpt lat="43.169467585156255" lon="12.269416672382345"><ele>303.6666666666667</ele><time>2026-03-29T07:08:28.943Z</time></trkpt><trkpt lat="43.16952577153435" lon="12.26937633564896"><ele>304.33333333333337</ele><time>2026-03-29T07:08:30.943Z</time></trkpt><trkpt lat="43.16957634193102" lon="12.269305298059646"><ele>305.0</ele><time>2026-03-29T07:08:32.943Z</time></trkpt><trkpt lat="43.16964191121578" lon="12.26923474122735"><ele>305.0</ele><time>2026-03-29T07:08:35.943Z</time></trkpt><trkpt lat="43.16971734320432" lon="12.269142073715711"><ele>305.0</ele><time>2026-03-29T07:08:37.943Z</time></trkpt><trkpt lat="43.16978034658113" lon="12.26907449983759"><ele>305.0</ele><time>2026-03-29T07:08:38.943Z</time></trkpt><trkpt lat="43.16986550358648" lon="12.269035536294636"><ele>305.0</ele><time>2026-03-29T07:08:39.943Z</time></trkpt><trkpt lat="43.169986429130994" lon="12.268954072706766"><ele>305.0</ele><time>2026-03-29T07:08:40.943Z</time></trkpt><trkpt lat="43.170143486066024" lon="12.268846148634115"><ele>306.33333333333337</ele><time>2026-03-29T07:08:41.943Z</time></trkpt><trkpt lat="43.170309264265605" lon="12.268707660217018"><ele>307.6666666666667</ele><time>2026-03-29T07:08:42.943Z</time></trkpt><trkpt lat="43.17049567623643" lon="12.268539755975691"><ele>309.0</ele><time>2026-03-29T07:08:43.943Z</time></trkpt><trkpt lat="43.17067927175616" lon="12.26836084195889"><ele>310.5</ele><time>2026-03-29T07:08:44.943Z</time></trkpt><trkpt lat="43.17082647807174" lon="12.268219256527683"><ele>312.0</ele><time>2026-03-29T07:08:45.943Z</time></trkpt><trkpt lat="43.170935941141025" lon="12.26809730267702"><ele>313.5</ele><time>2026-03-29T07:08:46.943Z</time></trkpt><trkpt lat="43.17100531124321" lon="12.268019899916638"><ele>315.0</ele><time>2026-03-29T07:08:47.943Z</time></trkpt><trkpt lat="43.17102950385044" lon="12.267932030242164"><ele>315.5</ele><time>2026-03-29T07:08:54.943Z</time></trkpt><trkpt lat="43.17106161896641" lon="12.267853947883571"><ele>316.0</ele><time>2026-03-29T07:09:01.942Z</time></trkpt><trkpt lat="43.17104650800223" lon="12.267761910299676"><ele>316.5</ele><time>2026-03-29T07:09:13.942Z</time></trkpt><trkpt lat="43.17105118847489" lon="12.267667893510353"><ele>317.0</ele><time>2026-03-29T07:13:44.937Z</time></trkpt><trkpt lat="43.171111729019366" lon="12.267588617211226"><ele>317.5</ele><time>2026-03-29T07:13:51.937Z</time></trkpt><trkpt lat="43.17120371225664" lon="12.267560797546716"><ele>318.0</ele><time>2026-03-29T07:13:53.937Z</time></trkpt><trkpt lat="43.17127927299572" lon="12.267524222791684"><ele>318.0</ele><time>2026-03-29T07:13:54.937Z</time></trkpt><trkpt lat="43.17137473001827" lon="12.267470644588412"><ele>318.0</ele><time>2026-03-29T07:13:55.939Z</time></trkpt><trkpt lat="43.17149032070212" lon="12.267454912209976"><ele>318.0</ele><time>2026-03-29T07:13:57.939Z</time></trkpt><trkpt lat="43.17158408268232" lon="12.267394496844423"><ele>318.0</ele><time>2026-03-29T07:13:59.939Z</time></trkpt><trkpt lat="43.171661641487994" lon="12.267334133504546"><ele>318.0</ele><time>2026-03-29T07:14:01.939Z</time></trkpt><trkpt lat="43.17175725342501" lon="12.267244219721007"><ele>321.0</ele><time>2026-03-29T07:14:03.939Z</time></trkpt><trkpt lat="43.1718119407015" lon="12.26713797152752"><ele>324.0</ele><time>2026-03-29T07:14:05.939Z</time></trkpt><trkpt lat="43.17184326941423" lon="12.26705331584484"><ele>327.0</ele><time>2026-03-29T07:14:06.939Z</time></trkpt><trkpt lat="43.171900823378614" lon="12.266953168946847"><ele>330.0</ele><time>2026-03-29T07:14:12.938Z</time></trkpt><trkpt lat="43.171926152830004" lon="12.266859641805214"><ele>333.0</ele><time>2026-03-29T07:14:17.938Z</time></trkpt><trkpt lat="43.1719721024664" lon="12.266766092796585"><ele>336.0</ele><time>2026-03-29T07:14:20.938Z</time></trkpt><trkpt lat="43.17204552244603" lon="12.266730989928353"><ele>336.0</ele><time>2026-03-29T07:14:22.938Z</time></trkpt><trkpt lat="43.172089331807435" lon="12.266620099550966"><ele>336.0</ele><time>2026-03-29T07:14:24.938Z</time></trkpt><trkpt lat="43.17211891498296" lon="12.266539113343558"><ele>336.0</ele><time>2026-03-29T07:14:27.938Z</time></trkpt><trkpt lat="43.172272309494126" lon="12.266061919587523"><ele>339.6666666666667</ele><time>2026-03-29T07:14:32.938Z</time></trkpt><trkpt lat="43.172382025078385" lon="12.26586299989296"><ele>343.33333333333337</ele><time>2026-03-29T07:14:34.938Z</time></trkpt><trkpt lat="43.172353208221665" lon="12.265686442444208"><ele>347.0</ele><time>2026-03-29T07:14:35.938Z</time></trkpt><trkpt lat="43.17240609447767" lon="12.265454393106847"><ele>350.0</ele><time>2026-03-29T07:14:36.938Z</time></trkpt><trkpt lat="43.17244477723371" lon="12.26533583148377"><ele>353.0</ele><time>2026-03-29T07:14:38.938Z</time></trkpt><trkpt lat="43.17244215867093" lon="12.26521728057701"><ele>356.0</ele><time>2026-03-29T07:14:39.938Z</time></trkpt><trkpt lat="43.17243723573069" lon="12.26509706486535"><ele>359.0</ele><time>2026-03-29T07:14:40.938Z</time></trkpt><trkpt lat="43.17256412452318" lon="12.26495717110632"><ele>362.0</ele><time>2026-03-29T07:14:41.938Z</time></trkpt><trkpt lat="43.17269397158645" lon="12.264786968570991"><ele>365.20000000000005</ele><time>2026-03-29T07:14:43.938Z</time></trkpt><trkpt lat="43.17267672917367" lon="12.264670857657462"><ele>368.4</ele><time>2026-03-29T07:14:45.937Z</time></trkpt><trkpt lat="43.17276146961329" lon="12.264483545528552"><ele>371.6</ele><time>2026-03-29T07:14:46.937Z</time></trkpt><trkpt lat="43.17274864667026" lon="12.264387802473523"><ele>374.79999999999995</ele><time>2026-03-29T07:14:47.937Z</time></trkpt><trkpt lat="43.17273348217889" lon="12.264276504703812"><ele>378.0</ele><time>2026-03-29T07:14:48.937Z</time></trkpt><trkpt lat="43.172754719930296" lon="12.264155273041007"><ele>378.0</ele><time>2026-03-29T07:14:50.937Z</time></trkpt><trkpt lat="43.17285387844814" lon="12.263993913396924"><ele>378.0</ele><time>2026-03-29T07:14:51.937Z</time></trkpt><trkpt lat="43.172898422295575" lon="12.264221348389327"><ele>378.0</ele><time>2026-03-29T07:14:52.937Z</time></trkpt><trkpt lat="43.17293344750863" lon="12.26414917428387"><ele>378.0</ele><time>2026-03-29T07:14:53.937Z</time></trkpt><trkpt lat="43.17306804995741" lon="12.263699366638752"><ele>379.0</ele><time>2026-03-29T07:14:55.937Z</time></trkpt><trkpt lat="43.17314627138184" lon="12.263629142614045"><ele>380.0</ele><time>2026-03-29T07:14:56.937Z</time></trkpt><trkpt lat="43.173201179863895" lon="12.263564203855879"><ele>381.0</ele><time>2026-03-29T07:14:58.937Z</time></trkpt><trkpt lat="43.17330922759396" lon="12.263476239892315"><ele>382.0</ele><time>2026-03-29T07:14:59.937Z</time></trkpt><trkpt lat="43.17342515186458" lon="12.263390374700302"><ele>383.0</ele><time>2026-03-29T07:15:00.937Z</time></trkpt><trkpt lat="43.17359657598613" lon="12.263268599962947"><ele>383.0</ele><time>2026-03-29T07:15:02.937Z</time></trkpt><trkpt lat="43.17366141679934" lon="12.263216413597503"><ele>383.0</ele><time>2026-03-29T07:15:04.937Z</time></trkpt><trkpt lat="43.17368617763711" lon="12.263083716608033"><ele>383.0</ele><time>2026-03-29T07:15:06.937Z</time></trkpt><trkpt lat="43.173745472165315" lon="12.263021549273278"><ele>383.0</ele><time>2026-03-29T07:15:08.937Z</time></trkpt><trkpt lat="43.17382906464592" lon="12.26296819010333"><ele>383.0</ele><time>2026-03-29T07:15:11.937Z</time></trkpt><trkpt lat="43.17397747826467" lon="12.26287793645451"><ele>384.2</ele><time>2026-03-29T07:15:14.937Z</time></trkpt><trkpt lat="43.17407338841647" lon="12.262928687064386"><ele>385.4</ele><time>2026-03-29T07:15:18.937Z</time></trkpt><trkpt lat="43.1741257029753" lon="12.263054567420674"><ele>386.59999999999997</ele><time>2026-03-29T07:15:21.936Z</time></trkpt><trkpt lat="43.174180896219674" lon="12.263137778420472"><ele>387.79999999999995</ele><time>2026-03-29T07:15:22.936Z</time></trkpt><trkpt lat="43.174242123844195" lon="12.263227894542485"><ele>389.0</ele><time>2026-03-29T07:15:23.936Z</time></trkpt><trkpt lat="43.174347838994834" lon="12.263296666725944"><ele>388.99999999999994</ele><time>2026-03-29T07:15:25.936Z</time></trkpt><trkpt lat="43.174386143236916" lon="12.263217522304778"><ele>389.0</ele><time>2026-03-29T07:15:26.936Z</time></trkpt><trkpt lat="43.17446671032203" lon="12.263166248045989"><ele>389.0</ele><time>2026-03-29T07:15:28.936Z</time></trkpt><trkpt lat="43.174573931222106" lon="12.26318696930316"><ele>389.0</ele><time>2026-03-29T07:15:30.936Z</time></trkpt><trkpt lat="43.174630342874075" lon="12.263227557121429"><ele>388.99999999999994</ele><time>2026-03-29T07:15:57.935Z</time></trkpt><trkpt lat="43.17471975262249" lon="12.26328590930834"><ele>389.0</ele><time>2026-03-29T07:15:58.935Z</time></trkpt><trkpt lat="43.174766390926735" lon="12.263193619830504"><ele>390.42857142857144</ele><time>2026-03-29T07:16:18.938Z</time></trkpt><trkpt lat="43.17481532462924" lon="12.263107319438932"><ele>391.85714285714283</ele><time>2026-03-29T07:16:23.938Z</time></trkpt><trkpt lat="43.17485358773088" lon="12.263029121737938"><ele>393.2857142857143</ele><time>2026-03-29T07:16:29.938Z</time></trkpt><trkpt lat="43.174889756128024" lon="12.26295814737019"><ele>394.7142857142857</ele><time>2026-03-29T07:16:36.937Z</time></trkpt><trkpt lat="43.17491865346117" lon="12.262880781406784"><ele>396.1428571428571</ele><time>2026-03-29T07:16:52.937Z</time></trkpt><trkpt lat="43.17498571512708" lon="12.26284808494915"><ele>397.57142857142856</ele><time>2026-03-29T07:17:06.936Z</time></trkpt><trkpt lat="43.175007254088804" lon="12.26276304828636"><ele>399.0</ele><time>2026-03-29T07:17:12.936Z</time></trkpt><trkpt lat="43.17506038647293" lon="12.262662453405014"><ele>401.2857142857143</ele><time>2026-03-29T07:17:17.936Z</time></trkpt><trkpt lat="43.17512778670798" lon="12.26263945057633"><ele>403.57142857142856</ele><time>2026-03-29T07:17:19.936Z</time></trkpt><trkpt lat="43.17520098127483" lon="12.26264358679445"><ele>405.8571428571429</ele><time>2026-03-29T07:17:21.936Z</time></trkpt><trkpt lat="43.17528674204474" lon="12.262616621810055"><ele>408.1428571428571</ele><time>2026-03-29T07:17:23.936Z</time></trkpt><trkpt lat="43.175358478396745" lon="12.26261977801015"><ele>410.42857142857144</ele><time>2026-03-29T07:17:25.936Z</time></trkpt><trkpt lat="43.17543976300527" lon="12.262621388772834"><ele>412.7142857142857</ele><time>2026-03-29T07:17:27.936Z</time></trkpt><trkpt lat="43.175500229994746" lon="12.262596037861211"><ele>415.0</ele><time>2026-03-29T07:17:30.936Z</time></trkpt><trkpt lat="43.17556519125501" lon="12.262579326269694"><ele>415.00000000000006</ele><time>2026-03-29T07:17:33.936Z</time></trkpt><trkpt lat="43.17563728715553" lon="12.262566063843403"><ele>415.0</ele><time>2026-03-29T07:17:41.935Z</time></trkpt><trkpt lat="43.17575922598029" lon="12.262555502945858"><ele>415.0</ele><time>2026-03-29T07:19:14.934Z</time></trkpt><trkpt lat="43.17582279113001" lon="12.262535976014878"><ele>415.0</ele><time>2026-03-29T07:19:19.934Z</time></trkpt><trkpt lat="43.17588748136519" lon="12.262501339994891"><ele>415.00000000000006</ele><time>2026-03-29T07:19:25.934Z</time></trkpt><trkpt lat="43.17582839543143" lon="12.262423065928234"><ele>415.0</ele><time>2026-03-29T07:19:33.934Z</time></trkpt><trkpt lat="43.175779870383955" lon="12.262343585286574"><ele>420.6666666666667</ele><time>2026-03-29T07:19:35.934Z</time></trkpt><trkpt lat="43.175751825554144" lon="12.262241394042476"><ele>426.33333333333337</ele><time>2026-03-29T07:19:38.934Z</time></trkpt><trkpt lat="43.17573002220659" lon="12.262110389763452"><ele>432.0</ele><time>2026-03-29T07:19:40.934Z</time></trkpt><trkpt lat="43.175699751856065" lon="12.26199148024669"><ele>437.66666666666663</ele><time>2026-03-29T07:19:44.934Z</time></trkpt><trkpt lat="43.17574462149514" lon="12.261921492121758"><ele>443.3333333333333</ele><time>2026-03-29T07:19:47.934Z</time></trkpt><trkpt lat="43.1758185403702" lon="12.261880580491319"><ele>449.0</ele><time>2026-03-29T07:19:50.933Z</time></trkpt><trkpt lat="43.17589762504215" lon="12.261835541765876"><ele>448.99999999999994</ele><time>2026-03-29T07:19:54.933Z</time></trkpt><trkpt lat="43.175955433178316" lon="12.261736898224719"><ele>449.0</ele><time>2026-03-29T07:19:57.933Z</time></trkpt><trkpt lat="43.1759684331958" lon="12.261614882399721"><ele>449.0</ele><time>2026-03-29T07:19:59.933Z</time></trkpt><trkpt lat="43.17599828077744" lon="12.26153407880284"><ele>449.0</ele><time>2026-03-29T07:20:01.933Z</time></trkpt><trkpt lat="43.17605221138953" lon="12.261475888838032"><ele>448.99999999999994</ele><time>2026-03-29T07:20:03.933Z</time></trkpt><trkpt lat="43.176101715740614" lon="12.261418889855577"><ele>449.0</ele><time>2026-03-29T07:20:05.933Z</time></trkpt><trkpt lat="43.17620668744413" lon="12.261281213748076"><ele>448.99999999999994</ele><time>2026-03-29T07:20:21.935Z</time></trkpt><trkpt lat="43.17628066646348" lon="12.261318793628572"><ele>449.0</ele><time>2026-03-29T07:20:23.935Z</time></trkpt><trkpt lat="43.1763404626705" lon="12.261387964850258"><ele>449.0</ele><time>2026-03-29T07:20:24.935Z</time></trkpt><trkpt lat="43.176428030739835" lon="12.261484700405406"><ele>449.0</ele><time>2026-03-29T07:20:25.935Z</time></trkpt><trkpt lat="43.17650378692461" lon="12.261541134572466"><ele>448.99999999999994</ele><time>2026-03-29T07:20:26.936Z</time></trkpt><trkpt lat="43.17657387863271" lon="12.261588843288195"><ele>449.0</ele><time>2026-03-29T07:20:27.936Z</time></trkpt><trkpt lat="43.17665242321185" lon="12.26162079853"><ele>450.16666666666663</ele><time>2026-03-29T07:20:28.936Z</time></trkpt><trkpt lat="43.17672560407636" lon="12.261633144680939"><ele>451.3333333333333</ele><time>2026-03-29T07:20:29.936Z</time></trkpt><trkpt lat="43.17679858399265" lon="12.26163644759185"><ele>452.5</ele><time>2026-03-29T07:20:30.936Z</time></trkpt><trkpt lat="43.176879964837504" lon="12.26164167151383"><ele>453.66666666666663</ele><time>2026-03-29T07:20:31.936Z</time></trkpt><trkpt lat="43.17695261913614" lon="12.261661595075447"><ele>454.8333333333333</ele><time>2026-03-29T07:20:32.936Z</time></trkpt><trkpt lat="43.17702684863445" lon="12.261678819521354"><ele>456.0</ele><time>2026-03-29T07:20:33.936Z</time></trkpt><trkpt lat="43.177114329709816" lon="12.2617070435916"><ele>456.0</ele><time>2026-03-29T07:20:34.935Z</time></trkpt><trkpt lat="43.177207792181385" lon="12.261742250901293"><ele>456.0</ele><time>2026-03-29T07:20:35.935Z</time></trkpt><trkpt lat="43.17731994248675" lon="12.261793566349752"><ele>456.0</ele><time>2026-03-29T07:20:36.935Z</time></trkpt><trkpt lat="43.177434092479565" lon="12.261865016076728"><ele>456.0</ele><time>2026-03-29T07:20:37.935Z</time></trkpt><trkpt lat="43.177547560856084" lon="12.261942181307909"><ele>455.20000000000005</ele><time>2026-03-29T07:20:38.935Z</time></trkpt><trkpt lat="43.177649113408904" lon="12.262020917689181"><ele>454.40000000000003</ele><time>2026-03-29T07:20:39.935Z</time></trkpt><trkpt lat="43.177746894469564" lon="12.262091881046526"><ele>453.6</ele><time>2026-03-29T07:20:40.935Z</time></trkpt><trkpt lat="43.17783875397824" lon="12.262140639457078"><ele>452.8</ele><time>2026-03-29T07:20:41.935Z</time></trkpt><trkpt lat="43.177941124841006" lon="12.262174574177696"><ele>452.0</ele><time>2026-03-29T07:20:42.935Z</time></trkpt><trkpt lat="43.17805587516354" lon="12.262195864148795"><ele>452.0</ele><time>2026-03-29T07:20:43.935Z</time></trkpt><trkpt lat="43.17816749062202" lon="12.26220552621548"><ele>452.0</ele><time>2026-03-29T07:20:44.935Z</time></trkpt><trkpt lat="43.17829038217048" lon="12.262224592633027"><ele>452.0</ele><time>2026-03-29T07:20:45.935Z</time></trkpt><trkpt lat="43.17841947420004" lon="12.262239318857256"><ele>452.0</ele><time>2026-03-29T07:20:46.935Z</time></trkpt><trkpt lat="43.17854772327922" lon="12.262254955566412"><ele>450.0</ele><time>2026-03-29T07:20:47.935Z</time></trkpt><trkpt lat="43.17868355841571" lon="12.262271755093664"><ele>448.0</ele><time>2026-03-29T07:20:48.935Z</time></trkpt><trkpt lat="43.178849625952374" lon="12.2623206918221"><ele>446.0</ele><time>2026-03-29T07:20:49.935Z</time></trkpt><trkpt lat="43.17902560045942" lon="12.262397067272445"><ele>446.0</ele><time>2026-03-29T07:20:50.935Z</time></trkpt><trkpt lat="43.17917538416618" lon="12.262473828171755"><ele>446.0</ele><time>2026-03-29T07:20:51.935Z</time></trkpt><trkpt lat="43.17929858551035" lon="12.26253470707579"><ele>446.0</ele><time>2026-03-29T07:20:52.935Z</time></trkpt><trkpt lat="43.17941782470598" lon="12.262581950167672"><ele>446.0</ele><time>2026-03-29T07:20:53.935Z</time></trkpt><trkpt lat="43.17953253330297" lon="12.262628564191841"><ele>446.0</ele><time>2026-03-29T07:20:54.935Z</time></trkpt><trkpt lat="43.179649527521434" lon="12.262687262968177"><ele>446.0</ele><time>2026-03-29T07:20:55.935Z</time></trkpt><trkpt lat="43.17974447981824" lon="12.262764866995262"><ele>446.0</ele><time>2026-03-29T07:20:56.935Z</time></trkpt><trkpt lat="43.17983401722965" lon="12.262868614407045"><ele>446.0</ele><time>2026-03-29T07:20:57.935Z</time></trkpt><trkpt lat="43.1799112464077" lon="12.263004170373195"><ele>445.75</ele><time>2026-03-29T07:20:58.935Z</time></trkpt><trkpt lat="43.17999941614989" lon="12.263149218039107"><ele>445.5</ele><time>2026-03-29T07:20:59.935Z</time></trkpt><trkpt lat="43.180077256044015" lon="12.263261555180293"><ele>445.25</ele><time>2026-03-29T07:21:00.935Z</time></trkpt><trkpt lat="43.180161353177525" lon="12.26335248005213"><ele>445.0</ele><time>2026-03-29T07:21:01.935Z</time></trkpt><trkpt lat="43.18025024383935" lon="12.263443256077275"><ele>445.00000000000006</ele><time>2026-03-29T07:21:02.935Z</time></trkpt><trkpt lat="43.18034224563895" lon="12.263500191275083"><ele>445.0</ele><time>2026-03-29T07:21:03.935Z</time></trkpt><trkpt lat="43.18042134375982" lon="12.263562147322418"><ele>445.0</ele><time>2026-03-29T07:21:04.935Z</time></trkpt><trkpt lat="43.18049335715423" lon="12.263608183549128"><ele>445.0</ele><time>2026-03-29T07:21:05.935Z</time></trkpt><trkpt lat="43.180592433316114" lon="12.263622970492817"><ele>445.00000000000006</ele><time>2026-03-29T07:21:07.935Z</time></trkpt><trkpt lat="43.180651713085325" lon="12.263588191169585"><ele>445.0</ele><time>2026-03-29T07:21:09.934Z</time></trkpt><trkpt lat="43.180710734263364" lon="12.263542897687525"><ele>446.4</ele><time>2026-03-29T07:21:10.934Z</time></trkpt><trkpt lat="43.18084807331847" lon="12.263492576457164"><ele>447.8</ele><time>2026-03-29T07:21:12.934Z</time></trkpt><trkpt lat="43.180934290040256" lon="12.263471275439818"><ele>449.20000000000005</ele><time>2026-03-29T07:21:13.934Z</time></trkpt><trkpt lat="43.18103111013248" lon="12.26345329378285"><ele>450.6</ele><time>2026-03-29T07:21:14.934Z</time></trkpt><trkpt lat="43.18112801859403" lon="12.263443627951832"><ele>452.0</ele><time>2026-03-29T07:21:15.934Z</time></trkpt><trkpt lat="43.181235499778694" lon="12.263411903182103"><ele>452.0</ele><time>2026-03-29T07:21:16.934Z</time></trkpt><trkpt lat="43.18135271346675" lon="12.263384281098599"><ele>452.0</ele><time>2026-03-29T07:21:17.934Z</time></trkpt><trkpt lat="43.18146836405192" lon="12.263348554420006"><ele>452.0</ele><time>2026-03-29T07:21:18.934Z</time></trkpt><trkpt lat="43.181574855734155" lon="12.263307143077641"><ele>452.0</ele><time>2026-03-29T07:21:19.934Z</time></trkpt><trkpt lat="43.181685079365955" lon="12.263288940868472"><ele>448.5</ele><time>2026-03-29T07:21:20.934Z</time></trkpt><trkpt lat="43.18178186295682" lon="12.263276320073984"><ele>445.0</ele><time>2026-03-29T07:21:21.934Z</time></trkpt><trkpt lat="43.18187398606725" lon="12.263260012443594"><ele>441.5</ele><time>2026-03-29T07:21:22.934Z</time></trkpt><trkpt lat="43.18194896113039" lon="12.263279390095642"><ele>438.0</ele><time>2026-03-29T07:21:23.934Z</time></trkpt><trkpt lat="43.182260621468735" lon="12.263275265781113"><ele>438.0</ele><time>2026-03-29T07:21:28.934Z</time></trkpt><trkpt lat="43.18233918437917" lon="12.263293021924254"><ele>438.0</ele><time>2026-03-29T07:21:29.934Z</time></trkpt><trkpt lat="43.182399019018675" lon="12.26333295781618"><ele>438.0</ele><time>2026-03-29T07:21:30.934Z</time></trkpt><trkpt lat="43.18246341855168" lon="12.263354927522965"><ele>438.0</ele><time>2026-03-29T07:21:31.934Z</time></trkpt><trkpt lat="43.182555538205975" lon="12.263374260339132"><ele>438.0</ele><time>2026-03-29T07:21:33.934Z</time></trkpt><trkpt lat="43.182652583504805" lon="12.263415146863936"><ele>438.0</ele><time>2026-03-29T07:21:36.934Z</time></trkpt><trkpt lat="43.18273210871806" lon="12.26345843232747"><ele>434.4</ele><time>2026-03-29T07:21:38.934Z</time></trkpt><trkpt lat="43.18281513282854" lon="12.263446596616568"><ele>430.79999999999995</ele><time>2026-03-29T07:21:40.934Z</time></trkpt><trkpt lat="43.182918357098906" lon="12.263426881157475"><ele>427.2</ele><time>2026-03-29T07:21:42.934Z</time></trkpt><trkpt lat="43.18299957111747" lon="12.263429854674687"><ele>423.6</ele><time>2026-03-29T07:21:44.933Z</time></trkpt><trkpt lat="43.18313881719121" lon="12.2634326779892"><ele>420.0</ele><time>2026-03-29T07:21:48.933Z</time></trkpt><trkpt lat="43.18322582914456" lon="12.263363823627321"><ele>418.1666666666667</ele><time>2026-03-29T07:21:50.933Z</time></trkpt><trkpt lat="43.18331839601247" lon="12.263341739607675"><ele>416.33333333333337</ele><time>2026-03-29T07:21:52.933Z</time></trkpt><trkpt lat="43.18338359001332" lon="12.263284043382999"><ele>414.5</ele><time>2026-03-29T07:21:53.933Z</time></trkpt><trkpt lat="43.18345370657008" lon="12.263216205826689"><ele>412.6666666666667</ele><time>2026-03-29T07:21:54.933Z</time></trkpt><trkpt lat="43.183510976624284" lon="12.26317405936651"><ele>410.83333333333337</ele><time>2026-03-29T07:21:55.933Z</time></trkpt><trkpt lat="43.183577304038906" lon="12.263128544927135"><ele>409.0</ele><time>2026-03-29T07:21:56.933Z</time></trkpt><trkpt lat="43.18364792693675" lon="12.26307038945093"><ele>405.1666666666667</ele><time>2026-03-29T07:21:57.933Z</time></trkpt><trkpt lat="43.18373158278307" lon="12.26303465985059"><ele>401.33333333333337</ele><time>2026-03-29T07:21:58.933Z</time></trkpt><trkpt lat="43.18380126254872" lon="12.263005525203507"><ele>397.5</ele><time>2026-03-29T07:21:59.933Z</time></trkpt><trkpt lat="43.18388420730409" lon="12.262973352966002"><ele>393.66666666666663</ele><time>2026-03-29T07:22:00.933Z</time></trkpt><trkpt lat="43.18396225015321" lon="12.262947194881873"><ele>389.8333333333333</ele><time>2026-03-29T07:22:01.933Z</time></trkpt><trkpt lat="43.18407997181134" lon="12.26291756533231"><ele>386.0</ele><time>2026-03-29T07:22:04.933Z</time></trkpt><trkpt lat="43.184152866591525" lon="12.26290085243881"><ele>386.0</ele><time>2026-03-29T07:22:06.933Z</time></trkpt><trkpt lat="43.184299034400155" lon="12.262898665942668"><ele>386.0</ele><time>2026-03-29T07:22:13.933Z</time></trkpt><trkpt lat="43.18437892697949" lon="12.262876946913558"><ele>386.0</ele><time>2026-03-29T07:22:15.933Z</time></trkpt><trkpt lat="43.18449189129781" lon="12.262854798038104"><ele>386.0</ele><time>2026-03-29T07:22:17.933Z</time></trkpt><trkpt lat="43.18459211550753" lon="12.262765320080943"><ele>386.00000000000006</ele><time>2026-03-29T07:22:19.934Z</time></trkpt><trkpt lat="43.18464419532182" lon="12.262713838174632"><ele>386.0</ele><time>2026-03-29T07:22:20.934Z</time></trkpt><trkpt lat="43.18470781718486" lon="12.262673222476366"><ele>386.0</ele><time>2026-03-29T07:22:26.934Z</time></trkpt><trkpt lat="43.18477176328384" lon="12.262652345662932"><ele>386.0</ele><time>2026-03-29T07:22:51.933Z</time></trkpt><trkpt lat="43.184792858570994" lon="12.26256921766784"><ele>386.0</ele><time>2026-03-29T07:24:01.931Z</time></trkpt><trkpt lat="43.1847915944663" lon="12.26246515254208"><ele>386.00000000000006</ele><time>2026-03-29T07:24:20.931Z</time></trkpt><trkpt lat="43.18473271347012" lon="12.26238211097895"><ele>386.0</ele><time>2026-03-29T07:24:24.931Z</time></trkpt><trkpt lat="43.18468167166502" lon="12.26227649036496"><ele>383.0</ele><time>2026-03-29T07:24:27.928Z</time></trkpt><trkpt lat="43.18462700307911" lon="12.262169776971811"><ele>380.0</ele><time>2026-03-29T07:24:29.923Z</time></trkpt><trkpt lat="43.184530113285824" lon="12.262038873870983"><ele>377.0</ele><time>2026-03-29T07:24:31.919Z</time></trkpt><trkpt lat="43.184442846868265" lon="12.261946643822064"><ele>374.0</ele><time>2026-03-29T07:24:32.917Z</time></trkpt><trkpt lat="43.18435054425668" lon="12.261851336024735"><ele>374.0</ele><time>2026-03-29T07:24:33.915Z</time></trkpt><trkpt lat="43.1842817309494" lon="12.261781278993073"><ele>374.0</ele><time>2026-03-29T07:24:34.913Z</time></trkpt><trkpt lat="43.184192811380974" lon="12.261697715361873"><ele>374.0</ele><time>2026-03-29T07:24:36.909Z</time></trkpt><trkpt lat="43.18409091153124" lon="12.261739164686002"><ele>374.0</ele><time>2026-03-29T07:24:38.906Z</time></trkpt><trkpt lat="43.184025784932224" lon="12.26163675081021"><ele>374.0</ele><time>2026-03-29T07:24:41.903Z</time></trkpt><trkpt lat="43.18407528553548" lon="12.261470760498538"><ele>372.6666666666667</ele><time>2026-03-29T07:24:43.901Z</time></trkpt><trkpt lat="43.18405470957262" lon="12.261377351397966"><ele>371.33333333333337</ele><time>2026-03-29T07:24:45.899Z</time></trkpt><trkpt lat="43.183952298299914" lon="12.261400776890868"><ele>370.0</ele><time>2026-03-29T07:24:47.897Z</time></trkpt><trkpt lat="43.18389535758755" lon="12.2614442696799"><ele>368.6666666666667</ele><time>2026-03-29T07:24:48.897Z</time></trkpt><trkpt lat="43.183803658505845" lon="12.261541667789173"><ele>367.3333333333333</ele><time>2026-03-29T07:24:50.895Z</time></trkpt><trkpt lat="43.18375322249298" lon="12.261595959332942"><ele>366.0</ele><time>2026-03-29T07:24:51.895Z</time></trkpt><trkpt lat="43.183702599795375" lon="12.261665605559688"><ele>366.0</ele><time>2026-03-29T07:24:52.894Z</time></trkpt><trkpt lat="43.18366938602165" lon="12.261744049169964"><ele>366.0</ele><time>2026-03-29T07:24:53.894Z</time></trkpt><trkpt lat="43.183598575292166" lon="12.26180708682525"><ele>366.0</ele><time>2026-03-29T07:24:56.892Z</time></trkpt><trkpt lat="43.1835481173012" lon="12.261746894057891"><ele>366.0</ele><time>2026-03-29T07:24:57.892Z</time></trkpt><trkpt lat="43.18352477380616" lon="12.261666647665626"><ele>366.0</ele><time>2026-03-29T07:24:58.891Z</time></trkpt><trkpt lat="43.183492760705796" lon="12.261582634545963"><ele>366.0</ele><time>2026-03-29T07:24:59.891Z</time></trkpt><trkpt lat="43.18342447404751" lon="12.261496064480367"><ele>366.0</ele><time>2026-03-29T07:25:01.89Z</time></trkpt><trkpt lat="43.18336862512185" lon="12.261390278628475"><ele>363.5</ele><time>2026-03-29T07:25:04.889Z</time></trkpt><trkpt lat="43.183358347379254" lon="12.261237395563313"><ele>361.0</ele><time>2026-03-29T07:25:06.889Z</time></trkpt><trkpt lat="43.18334434161387" lon="12.261139763552727"><ele>358.5</ele><time>2026-03-29T07:25:07.889Z</time></trkpt><trkpt lat="43.18334801324933" lon="12.261029525398229"><ele>356.0</ele><time>2026-03-29T07:25:08.889Z</time></trkpt><trkpt lat="43.183359419157235" lon="12.260914156928488"><ele>353.5</ele><time>2026-03-29T07:25:09.888Z</time></trkpt><trkpt lat="43.18335888842621" lon="12.260798911987646"><ele>351.0</ele><time>2026-03-29T07:25:10.888Z</time></trkpt><trkpt lat="43.18336552526814" lon="12.26067904835188"><ele>349.1666666666667</ele><time>2026-03-29T07:25:11.888Z</time></trkpt><trkpt lat="43.18337278842787" lon="12.260567977329114"><ele>347.3333333333333</ele><time>2026-03-29T07:25:12.888Z</time></trkpt><trkpt lat="43.18338658062381" lon="12.260442303407688"><ele>345.5</ele><time>2026-03-29T07:25:13.888Z</time></trkpt><trkpt lat="43.1833879312167" lon="12.260331746970762"><ele>343.66666666666663</ele><time>2026-03-29T07:25:14.887Z</time></trkpt><trkpt lat="43.18338814793984" lon="12.260227572253825"><ele>341.8333333333333</ele><time>2026-03-29T07:25:15.887Z</time></trkpt><trkpt lat="43.18338424478622" lon="12.260129003298236"><ele>340.0</ele><time>2026-03-29T07:25:16.887Z</time></trkpt><trkpt lat="43.18339441877246" lon="12.260031045096174"><ele>340.0</ele><time>2026-03-29T07:25:17.887Z</time></trkpt><trkpt lat="43.18340182237819" lon="12.25991897839109"><ele>340.0</ele><time>2026-03-29T07:25:18.887Z</time></trkpt><trkpt lat="43.183402972425256" lon="12.259824136071103"><ele>340.0</ele><time>2026-03-29T07:25:19.887Z</time></trkpt><trkpt lat="43.18342990668737" lon="12.259735311679462"><ele>340.0</ele><time>2026-03-29T07:25:20.887Z</time></trkpt><trkpt lat="43.18342845839745" lon="12.259648495692723"><ele>340.0</ele><time>2026-03-29T07:25:21.886Z</time></trkpt><trkpt lat="43.18339358812573" lon="12.259505161175328"><ele>340.0</ele><time>2026-03-29T07:25:23.886Z</time></trkpt><trkpt lat="43.18336560923353" lon="12.25935097901375"><ele>337.8333333333333</ele><time>2026-03-29T07:25:25.886Z</time></trkpt><trkpt lat="43.18336218515048" lon="12.259251746992456"><ele>335.66666666666663</ele><time>2026-03-29T07:25:26.886Z</time></trkpt><trkpt lat="43.1833346073009" lon="12.259171167122604"><ele>333.5</ele><time>2026-03-29T07:25:27.886Z</time></trkpt><trkpt lat="43.183302977784706" lon="12.259055928209184"><ele>331.3333333333333</ele><time>2026-03-29T07:25:28.886Z</time></trkpt><trkpt lat="43.183271991391074" lon="12.258953903319863"><ele>329.1666666666667</ele><time>2026-03-29T07:25:29.886Z</time></trkpt><trkpt lat="43.1832335590706" lon="12.258859905804547"><ele>327.0</ele><time>2026-03-29T07:25:30.886Z</time></trkpt><trkpt lat="43.183198713888814" lon="12.258767009942888"><ele>327.1428571428571</ele><time>2026-03-29T07:25:31.885Z</time></trkpt><trkpt lat="43.183157200272646" lon="12.258680323425557"><ele>327.2857142857143</ele><time>2026-03-29T07:25:32.885Z</time></trkpt><trkpt lat="43.1831241757765" lon="12.258592919886205"><ele>327.42857142857144</ele><time>2026-03-29T07:25:33.885Z</time></trkpt><trkpt lat="43.18308899436141" lon="12.258499253037087"><ele>327.57142857142856</ele><time>2026-03-29T07:25:34.885Z</time></trkpt><trkpt lat="43.18304768089887" lon="12.258406942294489"><ele>327.7142857142857</ele><time>2026-03-29T07:25:35.885Z</time></trkpt><trkpt lat="43.183010314493565" lon="12.258325102075554"><ele>327.85714285714283</ele><time>2026-03-29T07:25:36.885Z</time></trkpt><trkpt lat="43.18300025565032" lon="12.258232679241518"><ele>328.0</ele><time>2026-03-29T07:25:38.885Z</time></trkpt><trkpt lat="43.18301069108041" lon="12.258136604386424"><ele>327.8333333333333</ele><time>2026-03-29T07:25:42.885Z</time></trkpt><trkpt lat="43.1830414864515" lon="12.258057678427065"><ele>327.66666666666663</ele><time>2026-03-29T07:25:45.885Z</time></trkpt><trkpt lat="43.183088181436624" lon="12.257981412439353"><ele>327.5</ele><time>2026-03-29T07:25:49.884Z</time></trkpt><trkpt lat="43.183150494283964" lon="12.257919394408606"><ele>327.3333333333333</ele><time>2026-03-29T07:25:52.884Z</time></trkpt><trkpt lat="43.183242807465916" lon="12.257897613868376"><ele>327.1666666666667</ele><time>2026-03-29T07:25:55.884Z</time></trkpt><trkpt lat="43.18330886022933" lon="12.257840709883135"><ele>327.0</ele><time>2026-03-29T07:25:57.884Z</time></trkpt><trkpt lat="43.18335325051496" lon="12.257776672817455"><ele>327.0</ele><time>2026-03-29T07:26:00.884Z</time></trkpt><trkpt lat="43.18332699423743" lon="12.25767454952497"><ele>327.0</ele><time>2026-03-29T07:26:03.884Z</time></trkpt><trkpt lat="43.1833098060073" lon="12.25753721621971"><ele>327.0</ele><time>2026-03-29T07:26:05.884Z</time></trkpt><trkpt lat="43.1832878250936" lon="12.257442342440196"><ele>327.0</ele><time>2026-03-29T07:26:06.884Z</time></trkpt><trkpt lat="43.18327224952465" lon="12.257334922446411"><ele>327.0</ele><time>2026-03-29T07:26:07.884Z</time></trkpt><trkpt lat="43.1832582269466" lon="12.257232418359065"><ele>327.0</ele><time>2026-03-29T07:26:08.883Z</time></trkpt><trkpt lat="43.1832432199692" lon="12.257122657520267"><ele>325.6666666666667</ele><time>2026-03-29T07:26:09.883Z</time></trkpt><trkpt lat="43.18322046153611" lon="12.257011338648198"><ele>324.3333333333333</ele><time>2026-03-29T07:26:10.883Z</time></trkpt><trkpt lat="43.183198465729646" lon="12.256899893822737"><ele>323.0</ele><time>2026-03-29T07:26:11.883Z</time></trkpt><trkpt lat="43.18318318419104" lon="12.256799456293574"><ele>321.66666666666663</ele><time>2026-03-29T07:26:12.883Z</time></trkpt><trkpt lat="43.18316946434553" lon="12.256673961277215"><ele>320.3333333333333</ele><time>2026-03-29T07:26:13.883Z</time></trkpt><trkpt lat="43.183166337289656" lon="12.256524101009163"><ele>319.0</ele><time>2026-03-29T07:26:15.883Z</time></trkpt><trkpt lat="43.18314999703855" lon="12.256386303508888"><ele>319.0</ele><time>2026-03-29T07:26:18.883Z</time></trkpt><trkpt lat="43.183135471227736" lon="12.256285226511737"><ele>319.0</ele><time>2026-03-29T07:26:19.883Z</time></trkpt><trkpt lat="43.18307680149289" lon="12.256126601956186"><ele>319.0</ele><time>2026-03-29T07:26:21.883Z</time></trkpt><trkpt lat="43.18303032416523" lon="12.256029971834439"><ele>319.0</ele><time>2026-03-29T07:26:22.883Z</time></trkpt><trkpt lat="43.18299140644345" lon="12.25592138339592"><ele>319.0</ele><time>2026-03-29T07:26:23.883Z</time></trkpt><trkpt lat="43.18294450977228" lon="12.255778768353812"><ele>319.0</ele><time>2026-03-29T07:26:24.883Z</time></trkpt><trkpt lat="43.18291738907046" lon="12.255652181378066"><ele>319.0</ele><time>2026-03-29T07:26:25.883Z</time></trkpt><trkpt lat="43.18288945382324" lon="12.255542452559864"><ele>319.0</ele><time>2026-03-29T07:26:26.883Z</time></trkpt><trkpt lat="43.18288377155671" lon="12.255401477350679"><ele>319.0</ele><time>2026-03-29T07:26:27.883Z</time></trkpt><trkpt lat="43.182877988670604" lon="12.255254628015663"><ele>319.0</ele><time>2026-03-29T07:26:28.883Z</time></trkpt><trkpt lat="43.1828831640446" lon="12.255153826109785"><ele>320.5</ele><time>2026-03-29T07:26:29.883Z</time></trkpt><trkpt lat="43.182934777453646" lon="12.25501004085996"><ele>322.0</ele><time>2026-03-29T07:26:31.885Z</time></trkpt><trkpt lat="43.18299232575151" lon="12.254974862634084"><ele>323.5</ele><time>2026-03-29T07:26:32.885Z</time></trkpt><trkpt lat="43.18307066656458" lon="12.255271849402074"><ele>325.0</ele><time>2026-03-29T07:26:37.884Z</time></trkpt><trkpt lat="43.183247342226956" lon="12.2553114664656"><ele>328.5</ele><time>2026-03-29T07:26:44.885Z</time></trkpt><trkpt lat="43.1833015828551" lon="12.255381732870962"><ele>332.0</ele><time>2026-03-29T07:26:46.885Z</time></trkpt><trkpt lat="43.183334561010184" lon="12.255468930252153"><ele>335.5</ele><time>2026-03-29T07:26:49.885Z</time></trkpt><trkpt lat="43.18341382324667" lon="12.255570234484741"><ele>339.0</ele><time>2026-03-29T07:26:51.885Z</time></trkpt><trkpt lat="43.18348489374678" lon="12.255662900032872"><ele>342.5</ele><time>2026-03-29T07:26:54.884Z</time></trkpt><trkpt lat="43.18353781901662" lon="12.25571140326144"><ele>346.0</ele><time>2026-03-29T07:26:57.884Z</time></trkpt><trkpt lat="43.18354446421189" lon="12.255803059876927"><ele>346.0</ele><time>2026-03-29T07:27:20.883Z</time></trkpt><trkpt lat="43.18349806864044" lon="12.255699657001975"><ele>346.0</ele><time>2026-03-29T07:27:24.883Z</time></trkpt><trkpt lat="43.18346009496161" lon="12.255606649380958"><ele>346.0</ele><time>2026-03-29T07:27:26.883Z</time></trkpt><trkpt lat="43.183412007563824" lon="12.255519096578261"><ele>346.0</ele><time>2026-03-29T07:27:28.883Z</time></trkpt><trkpt lat="43.18336204091424" lon="12.255431515584409"><ele>346.0</ele><time>2026-03-29T07:27:30.883Z</time></trkpt><trkpt lat="43.18329949616129" lon="12.255376405922728"><ele>346.0</ele><time>2026-03-29T07:27:32.883Z</time></trkpt><trkpt lat="43.1832183664161" lon="12.255345765786062"><ele>342.5</ele><time>2026-03-29T07:27:34.883Z</time></trkpt><trkpt lat="43.183150794854335" lon="12.255302947683571"><ele>339.0</ele><time>2026-03-29T07:27:36.883Z</time></trkpt><trkpt lat="43.183122951005835" lon="12.255171303677717"><ele>335.5</ele><time>2026-03-29T07:27:40.883Z</time></trkpt><trkpt lat="43.18309604787516" lon="12.255023790566897"><ele>332.0</ele><time>2026-03-29T07:27:42.883Z</time></trkpt><trkpt lat="43.183046382587754" lon="12.254919380849737"><ele>328.5</ele><time>2026-03-29T07:27:44.883Z</time></trkpt><trkpt lat="43.182980772304916" lon="12.254878721146724"><ele>325.0</ele><time>2026-03-29T07:27:46.882Z</time></trkpt><trkpt lat="43.18292498486182" lon="12.254954395371325"><ele>325.0</ele><time>2026-03-29T07:27:48.882Z</time></trkpt><trkpt lat="43.182873856965664" lon="12.255053519722319"><ele>325.0</ele><time>2026-03-29T07:27:50.882Z</time></trkpt><trkpt lat="43.18287334516181" lon="12.255148729727654"><ele>325.0</ele><time>2026-03-29T07:27:51.882Z</time></trkpt><trkpt lat="43.182873717243176" lon="12.255235887905984"><ele>325.0</ele><time>2026-03-29T07:27:52.882Z</time></trkpt><trkpt lat="43.18288570632693" lon="12.255331105390713"><ele>325.0</ele><time>2026-03-29T07:27:53.882Z</time></trkpt><trkpt lat="43.18291122572907" lon="12.255451433276546"><ele>325.0</ele><time>2026-03-29T07:27:55.882Z</time></trkpt><trkpt lat="43.18295354613671" lon="12.255581539615852"><ele>324.0</ele><time>2026-03-29T07:27:57.882Z</time></trkpt><trkpt lat="43.182981978719944" lon="12.25568148448312"><ele>323.0</ele><time>2026-03-29T07:27:59.882Z</time></trkpt><trkpt lat="43.183011338669765" lon="12.25579364107444"><ele>322.0</ele><time>2026-03-29T07:28:01.882Z</time></trkpt><trkpt lat="43.18304597307509" lon="12.25591312494467"><ele>321.0</ele><time>2026-03-29T07:28:03.882Z</time></trkpt><trkpt lat="43.18307905155817" lon="12.255988123011948"><ele>320.0</ele><time>2026-03-29T07:28:04.882Z</time></trkpt><trkpt lat="43.18311305725046" lon="12.25611832476504"><ele>319.0</ele><time>2026-03-29T07:28:06.882Z</time></trkpt><trkpt lat="43.183116095894086" lon="12.256254260280954"><ele>319.0</ele><time>2026-03-29T07:28:08.882Z</time></trkpt><trkpt lat="43.18314315357257" lon="12.256427505640833"><ele>319.0</ele><time>2026-03-29T07:28:10.882Z</time></trkpt><trkpt lat="43.183167491923996" lon="12.256616032130433"><ele>319.0</ele><time>2026-03-29T07:28:12.882Z</time></trkpt><trkpt lat="43.18319433560007" lon="12.256718222365377"><ele>319.0</ele><time>2026-03-29T07:28:13.881Z</time></trkpt><trkpt lat="43.183221978118965" lon="12.256816193514041"><ele>319.0</ele><time>2026-03-29T07:28:14.881Z</time></trkpt><trkpt lat="43.18324186440216" lon="12.25692783490653"><ele>320.3333333333333</ele><time>2026-03-29T07:28:15.881Z</time></trkpt><trkpt lat="43.183264196185135" lon="12.257026669880593"><ele>321.66666666666663</ele><time>2026-03-29T07:28:16.881Z</time></trkpt><trkpt lat="43.1832845170083" lon="12.257127831871944"><ele>323.0</ele><time>2026-03-29T07:28:17.881Z</time></trkpt><trkpt lat="43.18330664310603" lon="12.25720936030382"><ele>324.3333333333333</ele><time>2026-03-29T07:28:18.881Z</time></trkpt><trkpt lat="43.1833376013157" lon="12.25736215569081"><ele>325.6666666666667</ele><time>2026-03-29T07:28:20.881Z</time></trkpt><trkpt lat="43.18335806973616" lon="12.25744503825559"><ele>327.0</ele><time>2026-03-29T07:28:21.881Z</time></trkpt><trkpt lat="43.18339387231227" lon="12.257548415686353"><ele>327.0</ele><time>2026-03-29T07:28:23.881Z</time></trkpt><trkpt lat="43.18335567873737" lon="12.257628167146922"><ele>327.0</ele><time>2026-03-29T07:28:26.881Z</time></trkpt><trkpt lat="43.18332626532347" lon="12.257710931704889"><ele>327.0</ele><time>2026-03-29T07:28:40.883Z</time></trkpt><trkpt lat="43.18333650645297" lon="12.257818510044839"><ele>327.0</ele><time>2026-03-29T07:29:03.882Z</time></trkpt><trkpt lat="43.183367369947476" lon="12.257906822925092"><ele>327.0</ele><time>2026-03-29T07:29:04.882Z</time></trkpt><trkpt lat="43.18342090268264" lon="12.25803386121234"><ele>327.0</ele><time>2026-03-29T07:29:05.882Z</time></trkpt><trkpt lat="43.18347520054277" lon="12.25812433033992"><ele>325.6</ele><time>2026-03-29T07:29:06.882Z</time></trkpt><trkpt lat="43.18354655095952" lon="12.258221122265436"><ele>324.20000000000005</ele><time>2026-03-29T07:29:07.882Z</time></trkpt><trkpt lat="43.18362456912267" lon="12.25834166845537"><ele>322.8</ele><time>2026-03-29T07:29:08.882Z</time></trkpt><trkpt lat="43.18371612441335" lon="12.25844627257735"><ele>321.4</ele><time>2026-03-29T07:29:09.882Z</time></trkpt><trkpt lat="43.18380242369677" lon="12.258530268812008"><ele>320.0</ele><time>2026-03-29T07:29:10.882Z</time></trkpt><trkpt lat="43.18387575081759" lon="12.258598214523756"><ele>320.0</ele><time>2026-03-29T07:29:11.882Z</time></trkpt><trkpt lat="43.18394792291053" lon="12.258637375626154"><ele>320.0</ele><time>2026-03-29T07:29:12.882Z</time></trkpt><trkpt lat="43.184044287403566" lon="12.258653285964934"><ele>320.0</ele><time>2026-03-29T07:29:13.881Z</time></trkpt><trkpt lat="43.18415079097618" lon="12.258650226003619"><ele>320.0</ele><time>2026-03-29T07:29:14.881Z</time></trkpt><trkpt lat="43.184248272038204" lon="12.258642675832231"><ele>320.0</ele><time>2026-03-29T07:29:15.881Z</time></trkpt><trkpt lat="43.18431758195146" lon="12.258643522452397"><ele>320.0</ele><time>2026-03-29T07:29:16.881Z</time></trkpt><trkpt lat="43.184385735570736" lon="12.258672978938792"><ele>320.4</ele><time>2026-03-29T07:29:17.881Z</time></trkpt><trkpt lat="43.184441092215906" lon="12.258764888074584"><ele>320.8</ele><time>2026-03-29T07:29:18.881Z</time></trkpt><trkpt lat="43.18453302015772" lon="12.258865849033512"><ele>321.20000000000005</ele><time>2026-03-29T07:29:19.881Z</time></trkpt><trkpt lat="43.18463159829184" lon="12.258925626152571"><ele>321.6</ele><time>2026-03-29T07:29:20.881Z</time></trkpt><trkpt lat="43.184708879413556" lon="12.259008895082287"><ele>322.0</ele><time>2026-03-29T07:29:22.881Z</time></trkpt><trkpt lat="43.18478269262955" lon="12.259064036401288"><ele>322.0</ele><time>2026-03-29T07:29:24.881Z</time></trkpt><trkpt lat="43.18484204462321" lon="12.259114791433827"><ele>322.0</ele><time>2026-03-29T07:29:26.881Z</time></trkpt><trkpt lat="43.18500108301296" lon="12.259147032069498"><ele>322.0</ele><time>2026-03-29T07:29:31.881Z</time></trkpt><trkpt lat="43.1850776301611" lon="12.259229988600875"><ele>322.0</ele><time>2026-03-29T07:29:34.881Z</time></trkpt><trkpt lat="43.185166236554345" lon="12.25925714969487"><ele>322.0</ele><time>2026-03-29T07:29:35.881Z</time></trkpt><trkpt lat="43.1852710793669" lon="12.259280931562158"><ele>325.0</ele><time>2026-03-29T07:29:36.881Z</time></trkpt><trkpt lat="43.185368671250366" lon="12.259291641735665"><ele>328.0</ele><time>2026-03-29T07:29:37.881Z</time></trkpt><trkpt lat="43.185619752059665" lon="12.259328042900139"><ele>331.0</ele><time>2026-03-29T07:29:40.88Z</time></trkpt><trkpt lat="43.185662914854674" lon="12.25940048472129"><ele>334.0</ele><time>2026-03-29T07:29:41.88Z</time></trkpt><trkpt lat="43.185708587715986" lon="12.259501337947302"><ele>333.2</ele><time>2026-03-29T07:29:42.88Z</time></trkpt><trkpt lat="43.185781511323654" lon="12.25958718745063"><ele>332.4</ele><time>2026-03-29T07:29:43.88Z</time></trkpt><trkpt lat="43.1858763247165" lon="12.259655673720088"><ele>331.6</ele><time>2026-03-29T07:29:44.88Z</time></trkpt><trkpt lat="43.18597212149919" lon="12.25971336454501"><ele>330.8</ele><time>2026-03-29T07:29:45.88Z</time></trkpt><trkpt lat="43.18607976017863" lon="12.259757124626349"><ele>330.0</ele><time>2026-03-29T07:29:46.88Z</time></trkpt><trkpt lat="43.18617614476578" lon="12.259812781985824"><ele>330.0</ele><time>2026-03-29T07:29:47.88Z</time></trkpt><trkpt lat="43.186267203313626" lon="12.259861901396711"><ele>330.0</ele><time>2026-03-29T07:29:48.88Z</time></trkpt><trkpt lat="43.18638544784088" lon="12.25988868937126"><ele>330.0</ele><time>2026-03-29T07:29:49.88Z</time></trkpt><trkpt lat="43.186485417977536" lon="12.259889395236712"><ele>330.0</ele><time>2026-03-29T07:29:50.88Z</time></trkpt><trkpt lat="43.18656481454088" lon="12.259885145042743"><ele>330.0</ele><time>2026-03-29T07:29:51.88Z</time></trkpt><trkpt lat="43.18664283381775" lon="12.259853599902387"><ele>330.6666666666667</ele><time>2026-03-29T07:29:52.88Z</time></trkpt><trkpt lat="43.18671438047455" lon="12.259815022142407"><ele>331.3333333333333</ele><time>2026-03-29T07:29:53.88Z</time></trkpt><trkpt lat="43.18679882926729" lon="12.259802821282088"><ele>332.0</ele><time>2026-03-29T07:29:54.88Z</time></trkpt><trkpt lat="43.18688285513994" lon="12.259853513860527"><ele>332.66666666666663</ele><time>2026-03-29T07:29:55.88Z</time></trkpt><trkpt lat="43.18696150239925" lon="12.259910574298287"><ele>333.3333333333333</ele><time>2026-03-29T07:29:56.88Z</time></trkpt><trkpt lat="43.18705170144012" lon="12.25995240700855"><ele>334.0</ele><time>2026-03-29T07:29:57.88Z</time></trkpt><trkpt lat="43.18714359923505" lon="12.25998415785415"><ele>334.0</ele><time>2026-03-29T07:29:58.88Z</time></trkpt><trkpt lat="43.18721271003199" lon="12.260021221109687"><ele>334.0</ele><time>2026-03-29T07:29:59.88Z</time></trkpt><trkpt lat="43.1873100259903" lon="12.260053709169803"><ele>334.0</ele><time>2026-03-29T07:30:01.88Z</time></trkpt><trkpt lat="43.18737368442831" lon="12.260098009378199"><ele>334.0</ele><time>2026-03-29T07:30:02.88Z</time></trkpt><trkpt lat="43.18743257935364" lon="12.260144611729736"><ele>334.0</ele><time>2026-03-29T07:30:03.88Z</time></trkpt><trkpt lat="43.18749665331182" lon="12.260162978686344"><ele>334.0</ele><time>2026-03-29T07:30:04.88Z</time></trkpt><trkpt lat="43.18757451325827" lon="12.260175267621113"><ele>336.25</ele><time>2026-03-29T07:30:05.88Z</time></trkpt><trkpt lat="43.18772880967415" lon="12.2601884499346"><ele>338.5</ele><time>2026-03-29T07:30:07.879Z</time></trkpt><trkpt lat="43.18780461974231" lon="12.260194970004655"><ele>340.75</ele><time>2026-03-29T07:30:08.879Z</time></trkpt><trkpt lat="43.18800721490508" lon="12.26015644056017"><ele>343.0</ele><time>2026-03-29T07:30:11.879Z</time></trkpt><trkpt lat="43.18808249552004" lon="12.260139865011222"><ele>343.0</ele><time>2026-03-29T07:30:12.879Z</time></trkpt><trkpt lat="43.188161976567955" lon="12.260148602842632"><ele>343.0</ele><time>2026-03-29T07:30:13.879Z</time></trkpt><trkpt lat="43.18825341076059" lon="12.26015823780963"><ele>343.0</ele><time>2026-03-29T07:30:14.879Z</time></trkpt><trkpt lat="43.18833741928169" lon="12.260167898705797"><ele>343.0</ele><time>2026-03-29T07:30:15.879Z</time></trkpt><trkpt lat="43.188408083878414" lon="12.260209148962662"><ele>343.0</ele><time>2026-03-29T07:30:16.879Z</time></trkpt><trkpt lat="43.18847554801842" lon="12.260266309259087"><ele>343.0</ele><time>2026-03-29T07:30:17.879Z</time></trkpt><trkpt lat="43.18854812599384" lon="12.260319337090937"><ele>344.5</ele><time>2026-03-29T07:30:18.879Z</time></trkpt><trkpt lat="43.18862289339679" lon="12.260344550340564"><ele>346.0</ele><time>2026-03-29T07:30:19.879Z</time></trkpt><trkpt lat="43.18869369107123" lon="12.260350728540878"><ele>347.5</ele><time>2026-03-29T07:30:20.879Z</time></trkpt><trkpt lat="43.18877506668147" lon="12.260355149587854"><ele>349.0</ele><time>2026-03-29T07:30:21.879Z</time></trkpt><trkpt lat="43.18886967732149" lon="12.260376975524144"><ele>350.5</ele><time>2026-03-29T07:30:22.879Z</time></trkpt><trkpt lat="43.188962128690136" lon="12.260410125216731"><ele>352.0</ele><time>2026-03-29T07:30:23.879Z</time></trkpt><trkpt lat="43.18904851086809" lon="12.260421455613466"><ele>353.0</ele><time>2026-03-29T07:30:24.879Z</time></trkpt><trkpt lat="43.189157256784995" lon="12.260472075132851"><ele>354.0</ele><time>2026-03-29T07:30:26.879Z</time></trkpt><trkpt lat="43.189234773227966" lon="12.260459870858393"><ele>355.0</ele><time>2026-03-29T07:30:28.879Z</time></trkpt><trkpt lat="43.189320225939035" lon="12.26039639867598"><ele>356.0</ele><time>2026-03-29T07:30:30.879Z</time></trkpt><trkpt lat="43.18942597846613" lon="12.260344488409656"><ele>357.0</ele><time>2026-03-29T07:30:32.879Z</time></trkpt><trkpt lat="43.18950682779254" lon="12.260325351432122"><ele>357.0</ele><time>2026-03-29T07:30:33.878Z</time></trkpt><trkpt lat="43.18957189819095" lon="12.2603112793285"><ele>357.0</ele><time>2026-03-29T07:30:34.878Z</time></trkpt><trkpt lat="43.189644123024834" lon="12.26030839094982"><ele>357.0</ele><time>2026-03-29T07:30:35.878Z</time></trkpt><trkpt lat="43.18974799075843" lon="12.26033443894502"><ele>357.0</ele><time>2026-03-29T07:30:36.878Z</time></trkpt><trkpt lat="43.189820950532265" lon="12.260377014799356"><ele>357.0</ele><time>2026-03-29T07:30:37.878Z</time></trkpt><trkpt lat="43.18992834199512" lon="12.260467810149025"><ele>357.0</ele><time>2026-03-29T07:30:39.878Z</time></trkpt><trkpt lat="43.190000162742194" lon="12.260525468702486"><ele>359.0</ele><time>2026-03-29T07:30:40.878Z</time></trkpt><trkpt lat="43.19012581618678" lon="12.260564415735319"><ele>361.0</ele><time>2026-03-29T07:30:42.881Z</time></trkpt><trkpt lat="43.190195798405014" lon="12.260553514312084"><ele>363.0</ele><time>2026-03-29T07:30:43.88Z</time></trkpt><trkpt lat="43.19027401136634" lon="12.260543632344959"><ele>365.0</ele><time>2026-03-29T07:30:44.88Z</time></trkpt><trkpt lat="43.190427380364206" lon="12.260564069894023"><ele>367.0</ele><time>2026-03-29T07:30:46.88Z</time></trkpt><trkpt lat="43.19052493296446" lon="12.260606178719604"><ele>364.8</ele><time>2026-03-29T07:30:47.88Z</time></trkpt><trkpt lat="43.190601704740104" lon="12.260646510673645"><ele>362.6</ele><time>2026-03-29T07:30:48.88Z</time></trkpt><trkpt lat="43.190657301214564" lon="12.260687875623876"><ele>360.40000000000003</ele><time>2026-03-29T07:30:50.88Z</time></trkpt><trkpt lat="43.19077256076045" lon="12.260702501949686"><ele>358.20000000000005</ele><time>2026-03-29T07:30:52.88Z</time></trkpt><trkpt lat="43.190872586572816" lon="12.260710574016464"><ele>356.0</ele><time>2026-03-29T07:30:53.88Z</time></trkpt><trkpt lat="43.19097959234544" lon="12.260719623072701"><ele>356.0</ele><time>2026-03-29T07:30:54.88Z</time></trkpt><trkpt lat="43.191084308658446" lon="12.260759092034256"><ele>356.0</ele><time>2026-03-29T07:30:55.88Z</time></trkpt><trkpt lat="43.191212392242285" lon="12.260797419767105"><ele>356.0</ele><time>2026-03-29T07:30:56.88Z</time></trkpt><trkpt lat="43.19130367175958" lon="12.260836531856768"><ele>356.0</ele><time>2026-03-29T07:30:57.88Z</time></trkpt><trkpt lat="43.19139466762052" lon="12.26087077468447"><ele>356.0</ele><time>2026-03-29T07:30:58.88Z</time></trkpt><trkpt lat="43.19146056222659" lon="12.260878377511656"><ele>356.5</ele><time>2026-03-29T07:30:59.88Z</time></trkpt><trkpt lat="43.191590390343684" lon="12.260835944984967"><ele>357.0</ele><time>2026-03-29T07:31:01.88Z</time></trkpt><trkpt lat="43.191685511102804" lon="12.260820597123457"><ele>357.5</ele><time>2026-03-29T07:31:02.88Z</time></trkpt><trkpt lat="43.191759609673724" lon="12.26081448702446"><ele>358.0</ele><time>2026-03-29T07:31:03.88Z</time></trkpt><trkpt lat="43.19200287501486" lon="12.260753481836305"><ele>358.0</ele><time>2026-03-29T07:31:13.879Z</time></trkpt><trkpt lat="43.192081603384906" lon="12.260718927785499"><ele>358.0</ele><time>2026-03-29T07:31:14.879Z</time></trkpt><trkpt lat="43.19217490187113" lon="12.260680418269313"><ele>358.0</ele><time>2026-03-29T07:31:15.879Z</time></trkpt><trkpt lat="43.1922860984547" lon="12.260647963452097"><ele>358.0</ele><time>2026-03-29T07:31:16.879Z</time></trkpt><trkpt lat="43.192384037615504" lon="12.260600733759247"><ele>358.0</ele><time>2026-03-29T07:31:17.879Z</time></trkpt><trkpt lat="43.19248357741302" lon="12.26056331791553"><ele>364.25</ele><time>2026-03-29T07:31:18.879Z</time></trkpt><trkpt lat="43.19256309127253" lon="12.260545762598374"><ele>370.5</ele><time>2026-03-29T07:31:19.879Z</time></trkpt><trkpt lat="43.19263947459649" lon="12.260563319626812"><ele>376.75</ele><time>2026-03-29T07:31:20.879Z</time></trkpt><trkpt lat="43.19282073551209" lon="12.260569989437814"><ele>383.0</ele><time>2026-03-29T07:31:22.879Z</time></trkpt><trkpt lat="43.19299567639858" lon="12.260598277062797"><ele>383.0</ele><time>2026-03-29T07:31:24.879Z</time></trkpt><trkpt lat="43.19310462641869" lon="12.260568061474663"><ele>383.0</ele><time>2026-03-29T07:31:26.879Z</time></trkpt><trkpt lat="43.19317311248416" lon="12.26050972651923"><ele>383.0</ele><time>2026-03-29T07:31:28.879Z</time></trkpt><trkpt lat="43.19328953348348" lon="12.26041174607545"><ele>383.0</ele><time>2026-03-29T07:31:30.879Z</time></trkpt><trkpt lat="43.193366565653434" lon="12.260358630041898"><ele>383.0</ele><time>2026-03-29T07:31:31.879Z</time></trkpt><trkpt lat="43.19340905625029" lon="12.260292770471647"><ele>381.5</ele><time>2026-03-29T07:31:32.879Z</time></trkpt><trkpt lat="43.193462341852694" lon="12.260225183153667"><ele>380.0</ele><time>2026-03-29T07:31:33.879Z</time></trkpt><trkpt lat="43.193551493614095" lon="12.260185037735626"><ele>378.5</ele><time>2026-03-29T07:31:35.879Z</time></trkpt><trkpt lat="43.19373934994886" lon="12.260228354054798"><ele>377.0</ele><time>2026-03-29T07:31:39.878Z</time></trkpt><trkpt lat="43.1938304718353" lon="12.260253136700076"><ele>377.0</ele><time>2026-03-29T07:31:40.878Z</time></trkpt><trkpt lat="43.19391252825853" lon="12.26022508695545"><ele>377.0</ele><time>2026-03-29T07:31:41.878Z</time></trkpt><trkpt lat="43.193974681309676" lon="12.260188602129515"><ele>377.0</ele><time>2026-03-29T07:31:42.878Z</time></trkpt><trkpt lat="43.19408296680341" lon="12.260110890432657"><ele>377.0</ele><time>2026-03-29T07:31:43.878Z</time></trkpt><trkpt lat="43.19417306287048" lon="12.260070393010857"><ele>377.0</ele><time>2026-03-29T07:31:44.878Z</time></trkpt><trkpt lat="43.19425577895671" lon="12.260033542213154"><ele>376.6</ele><time>2026-03-29T07:31:45.878Z</time></trkpt><trkpt lat="43.19434920462729" lon="12.260005708147089"><ele>376.20000000000005</ele><time>2026-03-29T07:31:46.878Z</time></trkpt><trkpt lat="43.194438547667254" lon="12.259988202068476"><ele>375.8</ele><time>2026-03-29T07:31:47.878Z</time></trkpt><trkpt lat="43.194539992522294" lon="12.259991850000976"><ele>375.4</ele><time>2026-03-29T07:31:48.878Z</time></trkpt><trkpt lat="43.194612990013084" lon="12.260014845977862"><ele>375.0</ele><time>2026-03-29T07:31:49.878Z</time></trkpt><trkpt lat="43.19490785380058" lon="12.260025660324882"><ele>376.0</ele><time>2026-03-29T07:31:53.878Z</time></trkpt><trkpt lat="43.19503618149791" lon="12.26005997367932"><ele>377.0</ele><time>2026-03-29T07:31:55.878Z</time></trkpt><trkpt lat="43.195094544009734" lon="12.260128423360458"><ele>378.0</ele><time>2026-03-29T07:31:56.878Z</time></trkpt><trkpt lat="43.19514947437511" lon="12.260195486153128"><ele>379.0</ele><time>2026-03-29T07:31:57.878Z</time></trkpt><trkpt lat="43.19522148036906" lon="12.260236945590133"><ele>380.0</ele><time>2026-03-29T07:31:58.878Z</time></trkpt><trkpt lat="43.195420337546125" lon="12.260237514675202"><ele>380.0</ele><time>2026-03-29T07:32:02.878Z</time></trkpt><trkpt lat="43.19549160365788" lon="12.260211117760102"><ele>380.0</ele><time>2026-03-29T07:32:04.877Z</time></trkpt><trkpt lat="43.19555330433793" lon="12.260173198502068"><ele>380.0</ele><time>2026-03-29T07:32:05.877Z</time></trkpt><trkpt lat="43.19561543649496" lon="12.26015148689462"><ele>380.0</ele><time>2026-03-29T07:32:06.877Z</time></trkpt><trkpt lat="43.19570845834125" lon="12.260115476726076"><ele>380.0</ele><time>2026-03-29T07:32:09.877Z</time></trkpt><trkpt lat="43.19578625324963" lon="12.260087030179537"><ele>380.0</ele><time>2026-03-29T07:32:12.877Z</time></trkpt><trkpt lat="43.196196733758526" lon="12.260080766276582"><ele>380.0</ele><time>2026-03-29T07:32:17.877Z</time></trkpt><trkpt lat="43.196275573855985" lon="12.26009425543166"><ele>380.0</ele><time>2026-03-29T07:32:18.877Z</time></trkpt><trkpt lat="43.19636618053865" lon="12.260093047399485"><ele>380.0</ele><time>2026-03-29T07:32:19.877Z</time></trkpt><trkpt lat="43.196561542181385" lon="12.260082806074555"><ele>380.0</ele><time>2026-03-29T07:32:25.877Z</time></trkpt><trkpt lat="43.1966287833124" lon="12.260067975289592"><ele>380.0</ele><time>2026-03-29T07:32:26.877Z</time></trkpt><trkpt lat="43.19669100737391" lon="12.260037217892732"><ele>380.0</ele><time>2026-03-29T07:32:27.877Z</time></trkpt><trkpt lat="43.19681598865234" lon="12.259952644311106"><ele>380.0</ele><time>2026-03-29T07:32:29.877Z</time></trkpt><trkpt lat="43.196948206343905" lon="12.259927783015806"><ele>380.0</ele><time>2026-03-29T07:32:31.876Z</time></trkpt><trkpt lat="43.19704299906409" lon="12.25987705304199"><ele>380.0</ele><time>2026-03-29T07:32:32.876Z</time></trkpt><trkpt lat="43.19733973864886" lon="12.259888392782404"><ele>379.0</ele><time>2026-03-29T07:32:38.876Z</time></trkpt><trkpt lat="43.197734031324735" lon="12.259890112290353"><ele>378.0</ele><time>2026-03-29T07:32:43.876Z</time></trkpt><trkpt lat="43.19785720900871" lon="12.259909931006797"><ele>378.0</ele><time>2026-03-29T07:32:45.876Z</time></trkpt><trkpt lat="43.197990713217074" lon="12.259914624589813"><ele>378.0</ele><time>2026-03-29T07:32:47.876Z</time></trkpt><trkpt lat="43.19808497272308" lon="12.259865290937356"><ele>378.0</ele><time>2026-03-29T07:32:49.878Z</time></trkpt><trkpt lat="43.198179034264186" lon="12.259845974695835"><ele>378.0</ele><time>2026-03-29T07:32:51.877Z</time></trkpt><trkpt lat="43.198462843228896" lon="12.259835224213369"><ele>378.79999999999995</ele><time>2026-03-29T07:32:56.878Z</time></trkpt><trkpt lat="43.19856656176786" lon="12.259807250663734"><ele>379.6</ele><time>2026-03-29T07:32:57.878Z</time></trkpt><trkpt lat="43.198653439646336" lon="12.259770191264074"><ele>380.4</ele><time>2026-03-29T07:32:58.878Z</time></trkpt><trkpt lat="43.19874860462144" lon="12.259728275892746"><ele>381.20000000000005</ele><time>2026-03-29T07:33:00.877Z</time></trkpt><trkpt lat="43.19883493372205" lon="12.259694936209174"><ele>382.0</ele><time>2026-03-29T07:33:03.877Z</time></trkpt><trkpt lat="43.19895056346175" lon="12.25960486170587"><ele>385.0</ele><time>2026-03-29T07:33:05.877Z</time></trkpt><trkpt lat="43.19901012991818" lon="12.259502548872627"><ele>388.0</ele><time>2026-03-29T07:33:06.877Z</time></trkpt><trkpt lat="43.19903844537023" lon="12.259413107610495"><ele>391.0</ele><time>2026-03-29T07:33:07.877Z</time></trkpt><trkpt lat="43.19904810154265" lon="12.259303638583324"><ele>394.0</ele><time>2026-03-29T07:33:09.877Z</time></trkpt><trkpt lat="43.19904188717602" lon="12.259173574208454"><ele>397.00000000000006</ele><time>2026-03-29T07:33:12.877Z</time></trkpt><trkpt lat="43.19902618530116" lon="12.259044894979569"><ele>400.0</ele><time>2026-03-29T07:33:14.877Z</time></trkpt><trkpt lat="43.19902468419805" lon="12.258954638343685"><ele>403.33333333333337</ele><time>2026-03-29T07:33:21.877Z</time></trkpt><trkpt lat="43.199032602398184" lon="12.258803148896323"><ele>406.6666666666667</ele><time>2026-03-29T07:35:25.874Z</time></trkpt><trkpt lat="43.19901898483266" lon="12.258672551885242"><ele>410.0</ele><time>2026-03-29T07:36:46.871Z</time></trkpt><trkpt lat="43.199054879640414" lon="12.258587606477668"><ele>413.33333333333337</ele><time>2026-03-29T07:36:51.871Z</time></trkpt><trkpt lat="43.19910191961114" lon="12.258509336845355"><ele>416.6666666666667</ele><time>2026-03-29T07:36:55.871Z</time></trkpt><trkpt lat="43.19914011290549" lon="12.258435139401413"><ele>420.0</ele><time>2026-03-29T07:36:58.871Z</time></trkpt><trkpt lat="43.19920594340408" lon="12.258364005314974"><ele>420.0</ele><time>2026-03-29T07:38:16.87Z</time></trkpt><trkpt lat="43.199272976284945" lon="12.258310225926342"><ele>420.0</ele><time>2026-03-29T07:38:20.87Z</time></trkpt><trkpt lat="43.19932803969468" lon="12.258249522664606"><ele>420.0</ele><time>2026-03-29T07:38:23.87Z</time></trkpt><trkpt lat="43.199359769160864" lon="12.258155663916591"><ele>420.0</ele><time>2026-03-29T07:38:26.87Z</time></trkpt><trkpt lat="43.19938448573795" lon="12.258068952471415"><ele>420.0</ele><time>2026-03-29T07:38:28.87Z</time></trkpt><trkpt lat="43.1993849471646" lon="12.257942912581639"><ele>420.0</ele><time>2026-03-29T07:38:30.87Z</time></trkpt><trkpt lat="43.199393112218644" lon="12.257831299086511"><ele>424.0</ele><time>2026-03-29T07:38:32.869Z</time></trkpt><trkpt lat="43.199386040724555" lon="12.257729480984095"><ele>428.0</ele><time>2026-03-29T07:38:34.869Z</time></trkpt><trkpt lat="43.19939670837695" lon="12.257615176489328"><ele>432.0</ele><time>2026-03-29T07:38:36.869Z</time></trkpt><trkpt lat="43.199394564372454" lon="12.257486991706267"><ele>436.0</ele><time>2026-03-29T07:38:38.869Z</time></trkpt><trkpt lat="43.19937623594538" lon="12.257335061030794"><ele>440.0</ele><time>2026-03-29T07:38:40.869Z</time></trkpt><trkpt lat="43.19930474884162" lon="12.257240208670675"><ele>444.99999999999994</ele><time>2026-03-29T07:38:42.869Z</time></trkpt><trkpt lat="43.19923273183215" lon="12.25720839989579"><ele>450.0</ele><time>2026-03-29T07:38:43.869Z</time></trkpt><trkpt lat="43.19916880523682" lon="12.25716271238922"><ele>455.0</ele><time>2026-03-29T07:38:45.869Z</time></trkpt><trkpt lat="43.19923586425138" lon="12.257131391128116"><ele>460.0</ele><time>2026-03-29T07:38:47.869Z</time></trkpt><trkpt lat="43.19932212809093" lon="12.257133732249503"><ele>464.99999999999994</ele><time>2026-03-29T07:38:48.869Z</time></trkpt><trkpt lat="43.19942308989165" lon="12.257123837749031"><ele>470.0</ele><time>2026-03-29T07:38:49.869Z</time></trkpt><trkpt lat="43.199534165919665" lon="12.25711535098785"><ele>469.99999999999994</ele><time>2026-03-29T07:38:50.869Z</time></trkpt><trkpt lat="43.199610411559206" lon="12.257106833087253"><ele>470.0</ele><time>2026-03-29T07:38:51.869Z</time></trkpt><trkpt lat="43.199689654273776" lon="12.25708330147651"><ele>470.0</ele><time>2026-03-29T07:38:52.869Z</time></trkpt><trkpt lat="43.19976006592396" lon="12.257080597277062"><ele>470.0</ele><time>2026-03-29T07:38:53.869Z</time></trkpt><trkpt lat="43.19984183052687" lon="12.257078876160424"><ele>469.99999999999994</ele><time>2026-03-29T07:38:54.869Z</time></trkpt><trkpt lat="43.199930651253375" lon="12.257085245681688"><ele>470.0</ele><time>2026-03-29T07:38:55.869Z</time></trkpt><trkpt lat="43.200008928197676" lon="12.257113290103138"><ele>469.66666666666663</ele><time>2026-03-29T07:38:56.869Z</time></trkpt><trkpt lat="43.200089715993144" lon="12.257162499986109"><ele>469.3333333333333</ele><time>2026-03-29T07:38:57.869Z</time></trkpt><trkpt lat="43.20016542350764" lon="12.257227049828767"><ele>469.0</ele><time>2026-03-29T07:38:58.869Z</time></trkpt><trkpt lat="43.200255263046245" lon="12.257269435759381"><ele>468.66666666666663</ele><time>2026-03-29T07:38:59.868Z</time></trkpt><trkpt lat="43.20032970881892" lon="12.257311587971593"><ele>468.3333333333333</ele><time>2026-03-29T07:39:00.868Z</time></trkpt><trkpt lat="43.200400697601665" lon="12.25732676420978"><ele>468.0</ele><time>2026-03-29T07:39:01.868Z</time></trkpt><trkpt lat="43.200464950717524" lon="12.257332522305177"><ele>465.8333333333333</ele><time>2026-03-29T07:39:02.868Z</time></trkpt><trkpt lat="43.200528064417966" lon="12.257326076652474"><ele>463.66666666666663</ele><time>2026-03-29T07:39:03.868Z</time></trkpt><trkpt lat="43.200607045825365" lon="12.257310103817495"><ele>461.5</ele><time>2026-03-29T07:39:04.868Z</time></trkpt><trkpt lat="43.20067495346742" lon="12.257282628279969"><ele>459.3333333333333</ele><time>2026-03-29T07:39:05.868Z</time></trkpt><trkpt lat="43.20075677161639" lon="12.257242224811773"><ele>457.16666666666663</ele><time>2026-03-29T07:39:06.87Z</time></trkpt><trkpt lat="43.20083194379318" lon="12.257195301520703"><ele>455.0</ele><time>2026-03-29T07:39:07.871Z</time></trkpt><trkpt lat="43.20088546154067" lon="12.25713956846854"><ele>454.99999999999994</ele><time>2026-03-29T07:39:08.871Z</time></trkpt><trkpt lat="43.20095040442583" lon="12.257100304042892"><ele>455.0</ele><time>2026-03-29T07:39:09.871Z</time></trkpt><trkpt lat="43.20101556801863" lon="12.257063761136726"><ele>455.0</ele><time>2026-03-29T07:39:10.871Z</time></trkpt><trkpt lat="43.2011070120457" lon="12.256979564399678"><ele>455.0</ele><time>2026-03-29T07:39:12.871Z</time></trkpt><trkpt lat="43.201171629059935" lon="12.256980128057885"><ele>454.99999999999994</ele><time>2026-03-29T07:39:16.871Z</time></trkpt><trkpt lat="43.20115762863322" lon="12.256866517860159"><ele>455.0</ele><time>2026-03-29T07:39:25.87Z</time></trkpt><trkpt lat="43.201235709834414" lon="12.256748074095611"><ele>454.99999999999994</ele><time>2026-03-29T07:39:27.87Z</time></trkpt><trkpt lat="43.20127875326102" lon="12.256634809531121"><ele>455.0</ele><time>2026-03-29T07:39:28.87Z</time></trkpt><trkpt lat="43.20134406042693" lon="12.256559533687549"><ele>455.0</ele><time>2026-03-29T07:39:30.87Z</time></trkpt><trkpt lat="43.201413443766945" lon="12.25658882372557"><ele>455.0</ele><time>2026-03-29T07:39:34.87Z</time></trkpt><trkpt lat="43.20148618673835" lon="12.256594295543522"><ele>454.99999999999994</ele><time>2026-03-29T07:39:37.87Z</time></trkpt><trkpt lat="43.20158129565955" lon="12.256614931467293"><ele>455.0</ele><time>2026-03-29T07:39:38.87Z</time></trkpt><trkpt lat="43.20170438474818" lon="12.256608004033396"><ele>452.49999999999994</ele><time>2026-03-29T07:39:39.87Z</time></trkpt><trkpt lat="43.20178838623014" lon="12.256605113836978"><ele>450.0</ele><time>2026-03-29T07:39:40.87Z</time></trkpt><trkpt lat="43.20185629035119" lon="12.256594357561866"><ele>447.5</ele><time>2026-03-29T07:39:41.87Z</time></trkpt><trkpt lat="43.201953548604955" lon="12.25658956550759"><ele>445.0</ele><time>2026-03-29T07:39:43.87Z</time></trkpt><trkpt lat="43.20202975584041" lon="12.256634606953908"><ele>442.49999999999994</ele><time>2026-03-29T07:39:45.87Z</time></trkpt><trkpt lat="43.20201678828235" lon="12.256758537646547"><ele>440.0</ele><time>2026-03-29T07:39:47.87Z</time></trkpt><trkpt lat="43.20203579470977" lon="12.25687721469666"><ele>440.0</ele><time>2026-03-29T07:39:49.869Z</time></trkpt><trkpt lat="43.202126290329375" lon="12.256955820137645"><ele>440.0</ele><time>2026-03-29T07:39:51.869Z</time></trkpt><trkpt lat="43.20222749968518" lon="12.25694962969156"><ele>440.0</ele><time>2026-03-29T07:39:53.869Z</time></trkpt><trkpt lat="43.20235020756129" lon="12.256847309762536"><ele>440.0</ele><time>2026-03-29T07:39:55.869Z</time></trkpt><trkpt lat="43.202415369217434" lon="12.256733740084453"><ele>438.4</ele><time>2026-03-29T07:39:57.869Z</time></trkpt><trkpt lat="43.20245370148845" lon="12.256580284296803"><ele>436.8</ele><time>2026-03-29T07:39:59.869Z</time></trkpt><trkpt lat="43.2025172022369" lon="12.256469644410133"><ele>435.20000000000005</ele><time>2026-03-29T07:40:01.869Z</time></trkpt><trkpt lat="43.202595167349884" lon="12.25647947977761"><ele>433.6</ele><time>2026-03-29T07:40:03.869Z</time></trkpt><trkpt lat="43.202686114756084" lon="12.256470667147417"><ele>432.0</ele><time>2026-03-29T07:40:06.869Z</time></trkpt><trkpt lat="43.20270732848804" lon="12.256601956755173"><ele>432.0</ele><time>2026-03-29T07:40:16.868Z</time></trkpt><trkpt lat="43.20271473405997" lon="12.256722630494764"><ele>432.00000000000006</ele><time>2026-03-29T07:40:17.868Z</time></trkpt><trkpt lat="43.202744736494864" lon="12.256896425478768"><ele>432.00000000000006</ele><time>2026-03-29T07:40:18.868Z</time></trkpt><trkpt lat="43.20275510073945" lon="12.257063573564999"><ele>432.0</ele><time>2026-03-29T07:40:19.868Z</time></trkpt><trkpt lat="43.202769969289314" lon="12.25719841326896"><ele>432.0</ele><time>2026-03-29T07:40:20.868Z</time></trkpt><trkpt lat="43.20280017814019" lon="12.25729077444143"><ele>430.8333333333333</ele><time>2026-03-29T07:40:21.868Z</time></trkpt><trkpt lat="43.202872089113804" lon="12.25741747166241"><ele>429.66666666666663</ele><time>2026-03-29T07:40:23.868Z</time></trkpt><trkpt lat="43.20291609124533" lon="12.257479867195887"><ele>428.5</ele><time>2026-03-29T07:40:24.868Z</time></trkpt><trkpt lat="43.202914789731054" lon="12.257602489435127"><ele>427.3333333333333</ele><time>2026-03-29T07:40:25.868Z</time></trkpt><trkpt lat="43.20295968589247" lon="12.257730598682732"><ele>426.16666666666663</ele><time>2026-03-29T07:40:29.868Z</time></trkpt><trkpt lat="43.202996976667265" lon="12.2578120273001"><ele>425.0</ele><time>2026-03-29T07:40:31.868Z</time></trkpt><trkpt lat="43.2030302273195" lon="12.25793253284825"><ele>424.99999999999994</ele><time>2026-03-29T07:40:33.868Z</time></trkpt><trkpt lat="43.20305859359667" lon="12.258035997920985"><ele>425.0</ele><time>2026-03-29T07:40:34.868Z</time></trkpt><trkpt lat="43.20308724826352" lon="12.258129210507128"><ele>425.0</ele><time>2026-03-29T07:40:35.867Z</time></trkpt><trkpt lat="43.203119656864615" lon="12.258240326361046"><ele>425.0</ele><time>2026-03-29T07:40:36.867Z</time></trkpt><trkpt lat="43.203121367193106" lon="12.258346199518199"><ele>424.99999999999994</ele><time>2026-03-29T07:40:37.867Z</time></trkpt><trkpt lat="43.203094635498864" lon="12.258449121305553"><ele>425.0</ele><time>2026-03-29T07:40:41.867Z</time></trkpt><trkpt lat="43.203109078786866" lon="12.258550549471101"><ele>424.8333333333333</ele><time>2026-03-29T07:40:43.867Z</time></trkpt><trkpt lat="43.20318459476178" lon="12.25865388616736"><ele>424.66666666666663</ele><time>2026-03-29T07:40:47.867Z</time></trkpt><trkpt lat="43.20322274283054" lon="12.258733989716966"><ele>424.5</ele><time>2026-03-29T07:40:49.867Z</time></trkpt><trkpt lat="43.20319423438029" lon="12.25882055844354"><ele>424.33333333333337</ele><time>2026-03-29T07:40:52.867Z</time></trkpt><trkpt lat="43.20313876148659" lon="12.258888068264232"><ele>424.1666666666667</ele><time>2026-03-29T07:40:54.867Z</time></trkpt><trkpt lat="43.203039497885634" lon="12.258957603926959"><ele>424.0</ele><time>2026-03-29T07:40:56.867Z</time></trkpt><trkpt lat="43.20297672453322" lon="12.258934106948894"><ele>429.2</ele><time>2026-03-29T07:40:58.867Z</time></trkpt><trkpt lat="43.20293466948143" lon="12.25907422770205"><ele>434.4</ele><time>2026-03-29T07:40:59.867Z</time></trkpt><trkpt lat="43.202868712223996" lon="12.259138315666348"><ele>439.6</ele><time>2026-03-29T07:41:00.867Z</time></trkpt><trkpt lat="43.20279928768908" lon="12.259241836743156"><ele>444.8</ele><time>2026-03-29T07:41:02.866Z</time></trkpt><trkpt lat="43.20274020875591" lon="12.259291011984843"><ele>450.0</ele><time>2026-03-29T07:41:03.866Z</time></trkpt><trkpt lat="43.20262666474765" lon="12.259289468712364"><ele>450.0</ele><time>2026-03-29T07:41:05.866Z</time></trkpt><trkpt lat="43.20253550432045" lon="12.25941592524165"><ele>450.0</ele><time>2026-03-29T07:41:07.866Z</time></trkpt><trkpt lat="43.202457185274056" lon="12.259502609480023"><ele>450.0</ele><time>2026-03-29T07:41:08.866Z</time></trkpt><trkpt lat="43.20239265599775" lon="12.25953719751208"><ele>450.0</ele><time>2026-03-29T07:41:09.866Z</time></trkpt><trkpt lat="43.20233048381812" lon="12.259596415588758"><ele>450.0</ele><time>2026-03-29T07:41:10.866Z</time></trkpt><trkpt lat="43.20228218021878" lon="12.259683770970181"><ele>451.5</ele><time>2026-03-29T07:41:11.869Z</time></trkpt><trkpt lat="43.202229956268454" lon="12.259745602034434"><ele>453.0</ele><time>2026-03-29T07:41:12.868Z</time></trkpt><trkpt lat="43.20220370338877" lon="12.259877569755634"><ele>454.5</ele><time>2026-03-29T07:41:14.868Z</time></trkpt><trkpt lat="43.202259267842386" lon="12.259933738292313"><ele>456.0</ele><time>2026-03-29T07:41:17.868Z</time></trkpt><trkpt lat="43.20231839611339" lon="12.259999120372607"><ele>457.5</ele><time>2026-03-29T07:41:19.868Z</time></trkpt><trkpt lat="43.202385410754346" lon="12.260058019154249"><ele>459.0</ele><time>2026-03-29T07:41:22.868Z</time></trkpt><trkpt lat="43.20244523931084" lon="12.260097666891204"><ele>463.2</ele><time>2026-03-29T07:41:23.868Z</time></trkpt><trkpt lat="43.202519158592125" lon="12.260156388944662"><ele>467.4</ele><time>2026-03-29T07:41:25.868Z</time></trkpt><trkpt lat="43.20261669422262" lon="12.260269068508212"><ele>471.6</ele><time>2026-03-29T07:41:27.868Z</time></trkpt><trkpt lat="43.202674492536026" lon="12.260337897561007"><ele>475.8</ele><time>2026-03-29T07:41:28.868Z</time></trkpt><trkpt lat="43.20274050711552" lon="12.260470344920945"><ele>480.0</ele><time>2026-03-29T07:41:30.868Z</time></trkpt><trkpt lat="43.20279146359116" lon="12.26052611629699"><ele>481.8</ele><time>2026-03-29T07:41:31.868Z</time></trkpt><trkpt lat="43.20286702800046" lon="12.260629549233954"><ele>483.6</ele><time>2026-03-29T07:41:33.868Z</time></trkpt><trkpt lat="43.20294192390077" lon="12.260737818679635"><ele>485.4</ele><time>2026-03-29T07:41:35.868Z</time></trkpt><trkpt lat="43.202999928280384" lon="12.260779284274369"><ele>487.2</ele><time>2026-03-29T07:41:36.868Z</time></trkpt><trkpt lat="43.20308655201" lon="12.26082187159869"><ele>489.0</ele><time>2026-03-29T07:41:37.868Z</time></trkpt><trkpt lat="43.20318722566009" lon="12.26086633019185"><ele>492.79999999999995</ele><time>2026-03-29T07:41:38.868Z</time></trkpt><trkpt lat="43.203276666136155" lon="12.260914117030381"><ele>496.59999999999997</ele><time>2026-03-29T07:41:39.867Z</time></trkpt><trkpt lat="43.203350254670546" lon="12.260972695331676"><ele>500.4</ele><time>2026-03-29T07:41:40.867Z</time></trkpt><trkpt lat="43.20347718647113" lon="12.261014227529586"><ele>504.2</ele><time>2026-03-29T07:41:42.867Z</time></trkpt><trkpt lat="43.2035530519493" lon="12.261037913353933"><ele>508.0</ele><time>2026-03-29T07:41:43.867Z</time></trkpt><trkpt lat="43.20364063847644" lon="12.261148276477082"><ele>508.0</ele><time>2026-03-29T07:41:45.867Z</time></trkpt><trkpt lat="43.203685173462546" lon="12.261267838985646"><ele>507.99999999999994</ele><time>2026-03-29T07:41:46.867Z</time></trkpt><trkpt lat="43.20374752373886" lon="12.261394604473965"><ele>507.99999999999994</ele><time>2026-03-29T07:41:47.867Z</time></trkpt><trkpt lat="43.20380779533946" lon="12.261475759845867"><ele>508.0</ele><time>2026-03-29T07:41:48.867Z</time></trkpt><trkpt lat="43.20385712283106" lon="12.261546876150012"><ele>508.0</ele><time>2026-03-29T07:41:49.867Z</time></trkpt><trkpt lat="43.20392745702923" lon="12.261614569913995"><ele>506.50000000000006</ele><time>2026-03-29T07:41:50.867Z</time></trkpt><trkpt lat="43.203994058028684" lon="12.261669016993343"><ele>505.0</ele><time>2026-03-29T07:41:51.867Z</time></trkpt><trkpt lat="43.204062901798395" lon="12.26174144618388"><ele>503.5</ele><time>2026-03-29T07:41:52.867Z</time></trkpt><trkpt lat="43.20412561498789" lon="12.261797416181798"><ele>502.0</ele><time>2026-03-29T07:41:53.867Z</time></trkpt><trkpt lat="43.20418612767309" lon="12.261842303545393"><ele>500.50000000000006</ele><time>2026-03-29T07:41:54.867Z</time></trkpt><trkpt lat="43.20426170177278" lon="12.261870975470206"><ele>499.0</ele><time>2026-03-29T07:41:55.867Z</time></trkpt><trkpt lat="43.20434375353029" lon="12.261894310399361"><ele>502.1666666666667</ele><time>2026-03-29T07:41:56.867Z</time></trkpt><trkpt lat="43.20440820029027" lon="12.261903714737102"><ele>505.33333333333337</ele><time>2026-03-29T07:41:57.867Z</time></trkpt><trkpt lat="43.204484445963644" lon="12.261934108391872"><ele>508.5</ele><time>2026-03-29T07:41:58.867Z</time></trkpt><trkpt lat="43.204550776308274" lon="12.261972296167091"><ele>511.66666666666663</ele><time>2026-03-29T07:41:59.867Z</time></trkpt><trkpt lat="43.2046347033832" lon="12.262063931161459"><ele>514.8333333333333</ele><time>2026-03-29T07:42:01.867Z</time></trkpt><trkpt lat="43.20471250321958" lon="12.262185862270204"><ele>518.0</ele><time>2026-03-29T07:42:03.867Z</time></trkpt><trkpt lat="43.20475488510824" lon="12.262271565003442"><ele>515.8</ele><time>2026-03-29T07:42:04.867Z</time></trkpt><trkpt lat="43.20481104859797" lon="12.262345167476338"><ele>513.5999999999999</ele><time>2026-03-29T07:42:05.867Z</time></trkpt><trkpt lat="43.204930189831785" lon="12.262433062236674"><ele>511.40000000000003</ele><time>2026-03-29T07:42:07.866Z</time></trkpt><trkpt lat="43.20506087745866" lon="12.262504843522654"><ele>509.20000000000005</ele><time>2026-03-29T07:42:09.866Z</time></trkpt><trkpt lat="43.20514679267144" lon="12.262537335565808"><ele>507.0</ele><time>2026-03-29T07:42:10.866Z</time></trkpt><trkpt lat="43.20521793022674" lon="12.262553578215227"><ele>510.6666666666667</ele><time>2026-03-29T07:42:11.866Z</time></trkpt><trkpt lat="43.20529137448484" lon="12.262603575316136"><ele>514.3333333333334</ele><time>2026-03-29T07:42:12.866Z</time></trkpt><trkpt lat="43.20536733106303" lon="12.262667964544745"><ele>518.0</ele><time>2026-03-29T07:42:13.866Z</time></trkpt><trkpt lat="43.20541910024841" lon="12.262748516071285"><ele>521.6666666666667</ele><time>2026-03-29T07:42:14.866Z</time></trkpt><trkpt lat="43.205446267502104" lon="12.262839848583036"><ele>525.3333333333334</ele><time>2026-03-29T07:42:15.866Z</time></trkpt><trkpt lat="43.20548062549759" lon="12.262937110516464"><ele>529.0</ele><time>2026-03-29T07:42:16.866Z</time></trkpt><trkpt lat="43.205584399614786" lon="12.263072865818463"><ele>527.2</ele><time>2026-03-29T07:42:18.866Z</time></trkpt><trkpt lat="43.2056536803697" lon="12.263147048870604"><ele>525.4</ele><time>2026-03-29T07:42:19.866Z</time></trkpt><trkpt lat="43.205733673693736" lon="12.263216941569304"><ele>523.6</ele><time>2026-03-29T07:42:21.866Z</time></trkpt><trkpt lat="43.20579900752579" lon="12.263304304920233"><ele>521.8</ele><time>2026-03-29T07:42:23.866Z</time></trkpt><trkpt lat="43.20588985832414" lon="12.263396405739439"><ele>520.0</ele><time>2026-03-29T07:42:26.866Z</time></trkpt><trkpt lat="43.205969072509966" lon="12.263458708485446"><ele>523.5</ele><time>2026-03-29T07:42:27.866Z</time></trkpt><trkpt lat="43.20602759480163" lon="12.263505203874686"><ele>527.0</ele><time>2026-03-29T07:42:28.866Z</time></trkpt><trkpt lat="43.206086454483945" lon="12.263563311012573"><ele>530.5</ele><time>2026-03-29T07:42:30.866Z</time></trkpt><trkpt lat="43.20613715343365" lon="12.263622038768696"><ele>534.0</ele><time>2026-03-29T07:42:32.866Z</time></trkpt><trkpt lat="43.20620726550169" lon="12.263699776685911"><ele>537.5</ele><time>2026-03-29T07:42:34.865Z</time></trkpt><trkpt lat="43.20628234669623" lon="12.263811782947663"><ele>541.0</ele><time>2026-03-29T07:42:36.865Z</time></trkpt><trkpt lat="43.20636123540796" lon="12.26393774248981"><ele>542.6</ele><time>2026-03-29T07:42:38.865Z</time></trkpt><trkpt lat="43.206406045898845" lon="12.264003255948522"><ele>544.2</ele><time>2026-03-29T07:42:39.865Z</time></trkpt><trkpt lat="43.20648242997493" lon="12.264134668438446"><ele>545.8</ele><time>2026-03-29T07:42:41.865Z</time></trkpt><trkpt lat="43.20651450850619" lon="12.264212347940257"><ele>547.4</ele><time>2026-03-29T07:42:42.865Z</time></trkpt><trkpt lat="43.20654733200878" lon="12.264363144130144"><ele>549.0</ele><time>2026-03-29T07:42:44.865Z</time></trkpt><trkpt lat="43.20654538629559" lon="12.264521435866582"><ele>549.0</ele><time>2026-03-29T07:42:46.865Z</time></trkpt><trkpt lat="43.2065040543666" lon="12.264660750247776"><ele>549.0</ele><time>2026-03-29T07:42:48.865Z</time></trkpt><trkpt lat="43.206417625794735" lon="12.264756499956642"><ele>549.0</ele><time>2026-03-29T07:42:50.865Z</time></trkpt><trkpt lat="43.20637694195212" lon="12.264832016199813"><ele>549.0</ele><time>2026-03-29T07:42:52.865Z</time></trkpt><trkpt lat="43.206415369694945" lon="12.264933772542323"><ele>549.0</ele><time>2026-03-29T07:42:54.865Z</time></trkpt><trkpt lat="43.206472427185055" lon="12.264973370037708"><ele>549.0</ele><time>2026-03-29T07:42:56.865Z</time></trkpt><trkpt lat="43.206532547565324" lon="12.265025767851679"><ele>547.2</ele><time>2026-03-29T07:42:58.865Z</time></trkpt><trkpt lat="43.2065970385503" lon="12.265077311237294"><ele>545.4</ele><time>2026-03-29T07:43:02.864Z</time></trkpt><trkpt lat="43.20666161211483" lon="12.265108279680877"><ele>543.6</ele><time>2026-03-29T07:43:04.864Z</time></trkpt><trkpt lat="43.20675872146677" lon="12.265119355596934"><ele>541.8</ele><time>2026-03-29T07:43:06.864Z</time></trkpt><trkpt lat="43.20686571835418" lon="12.265111904238573"><ele>540.0</ele><time>2026-03-29T07:43:08.864Z</time></trkpt><trkpt lat="43.20698030707158" lon="12.265086123769338"><ele>540.0</ele><time>2026-03-29T07:43:10.864Z</time></trkpt><trkpt lat="43.20708539841251" lon="12.265026229298362"><ele>540.0</ele><time>2026-03-29T07:43:12.864Z</time></trkpt><trkpt lat="43.20718375357251" lon="12.264954484218556"><ele>540.0</ele><time>2026-03-29T07:43:14.864Z</time></trkpt><trkpt lat="43.207232814116566" lon="12.26489562492978"><ele>540.0</ele><time>2026-03-29T07:43:15.864Z</time></trkpt><trkpt lat="43.20727815424012" lon="12.26483267694632"><ele>540.0</ele><time>2026-03-29T07:43:16.864Z</time></trkpt><trkpt lat="43.20732266983548" lon="12.26475614824936"><ele>540.0</ele><time>2026-03-29T07:43:17.866Z</time></trkpt><trkpt lat="43.20742927991694" lon="12.264655956584624"><ele>542.5</ele><time>2026-03-29T07:43:19.865Z</time></trkpt><trkpt lat="43.20749375637693" lon="12.264636941639905"><ele>545.0</ele><time>2026-03-29T07:43:20.866Z</time></trkpt><trkpt lat="43.207575464484194" lon="12.264614942269395"><ele>547.5</ele><time>2026-03-29T07:43:21.865Z</time></trkpt><trkpt lat="43.20764997521363" lon="12.264595482654316"><ele>550.0</ele><time>2026-03-29T07:43:22.865Z</time></trkpt><trkpt lat="43.207739333832855" lon="12.264569646850317"><ele>552.5</ele><time>2026-03-29T07:43:23.866Z</time></trkpt><trkpt lat="43.2078121450598" lon="12.2645289122793"><ele>555.0</ele><time>2026-03-29T07:43:24.866Z</time></trkpt><trkpt lat="43.20788955336186" lon="12.264484799879401"><ele>555.0</ele><time>2026-03-29T07:43:25.866Z</time></trkpt><trkpt lat="43.20796187119562" lon="12.264451649053045"><ele>555.0</ele><time>2026-03-29T07:43:26.866Z</time></trkpt><trkpt lat="43.208039124761335" lon="12.264410520214758"><ele>555.0</ele><time>2026-03-29T07:43:27.866Z</time></trkpt><trkpt lat="43.20817777883966" lon="12.264370343701964"><ele>555.0</ele><time>2026-03-29T07:43:29.865Z</time></trkpt><trkpt lat="43.2082577186693" lon="12.264354103491073"><ele>555.0</ele><time>2026-03-29T07:43:30.865Z</time></trkpt><trkpt lat="43.2083373997417" lon="12.264345678295946"><ele>553.1666666666666</ele><time>2026-03-29T07:43:31.865Z</time></trkpt><trkpt lat="43.20841826948275" lon="12.264346695041587"><ele>551.3333333333334</ele><time>2026-03-29T07:43:32.865Z</time></trkpt><trkpt lat="43.208501096060125" lon="12.264357711993101"><ele>549.5</ele><time>2026-03-29T07:43:33.865Z</time></trkpt><trkpt lat="43.208584038368556" lon="12.26435377462875"><ele>547.6666666666667</ele><time>2026-03-29T07:43:34.865Z</time></trkpt><trkpt lat="43.208677075219946" lon="12.264355321942679"><ele>545.8333333333334</ele><time>2026-03-29T07:43:35.865Z</time></trkpt><trkpt lat="43.20877000469397" lon="12.264359700696161"><ele>544.0</ele><time>2026-03-29T07:43:36.865Z</time></trkpt><trkpt lat="43.20886194633415" lon="12.264359779951521"><ele>544.0</ele><time>2026-03-29T07:43:37.865Z</time></trkpt><trkpt lat="43.208947553721266" lon="12.264358030315757"><ele>544.0</ele><time>2026-03-29T07:43:38.865Z</time></trkpt><trkpt lat="43.209034527606526" lon="12.264358672349587"><ele>544.0</ele><time>2026-03-29T07:43:39.865Z</time></trkpt><trkpt lat="43.20911850033364" lon="12.264364304405277"><ele>544.0</ele><time>2026-03-29T07:43:40.865Z</time></trkpt><trkpt lat="43.209204340886835" lon="12.264369402094427"><ele>544.0</ele><time>2026-03-29T07:43:41.865Z</time></trkpt><trkpt lat="43.20929016454748" lon="12.264364996881858"><ele>544.0</ele><time>2026-03-29T07:43:42.864Z</time></trkpt><trkpt lat="43.20938328329848" lon="12.264361335649152"><ele>545.3333333333334</ele><time>2026-03-29T07:43:43.864Z</time></trkpt><trkpt lat="43.20947239563431" lon="12.264358887699409"><ele>546.6666666666667</ele><time>2026-03-29T07:43:44.864Z</time></trkpt><trkpt lat="43.2095511927834" lon="12.26435368034399"><ele>548.0</ele><time>2026-03-29T07:43:45.864Z</time></trkpt><trkpt lat="43.209630230403974" lon="12.264353283817943"><ele>549.3333333333334</ele><time>2026-03-29T07:43:46.864Z</time></trkpt><trkpt lat="43.20970288298849" lon="12.264354255531192"><ele>550.6666666666666</ele><time>2026-03-29T07:43:47.864Z</time></trkpt><trkpt lat="43.20977169167654" lon="12.264360152576833"><ele>552.0</ele><time>2026-03-29T07:43:48.864Z</time></trkpt><trkpt lat="43.20983525410571" lon="12.264380333739881"><ele>552.4285714285714</ele><time>2026-03-29T07:43:49.864Z</time></trkpt><trkpt lat="43.2098915476612" lon="12.264422304340483"><ele>552.8571428571429</ele><time>2026-03-29T07:43:50.864Z</time></trkpt><trkpt lat="43.20993237298031" lon="12.264490779976729"><ele>553.2857142857143</ele><time>2026-03-29T07:43:51.864Z</time></trkpt><trkpt lat="43.20997982994207" lon="12.26456195752259"><ele>553.7142857142858</ele><time>2026-03-29T07:43:52.864Z</time></trkpt><trkpt lat="43.21001596533836" lon="12.264637293540467"><ele>554.1428571428571</ele><time>2026-03-29T07:43:53.864Z</time></trkpt><trkpt lat="43.210064155089924" lon="12.264725928130305"><ele>554.5714285714287</ele><time>2026-03-29T07:43:55.864Z</time></trkpt><trkpt lat="43.21012692619682" lon="12.264782092345541"><ele>555.0</ele><time>2026-03-29T07:44:05.864Z</time></trkpt><trkpt lat="43.21022563548107" lon="12.264778598922078"><ele>555.0</ele><time>2026-03-29T07:44:12.863Z</time></trkpt><trkpt lat="43.21029542777353" lon="12.264775458953252"><ele>555.0</ele><time>2026-03-29T07:44:13.863Z</time></trkpt><trkpt lat="43.21039737768974" lon="12.26476939313125"><ele>555.0</ele><time>2026-03-29T07:44:15.004Z</time></trkpt><trkpt lat="43.21046882713597" lon="12.264765349074164"><ele>555.0</ele><time>2026-03-29T07:44:15.863Z</time></trkpt><trkpt lat="43.210548704533494" lon="12.264757459459828"><ele>555.0</ele><time>2026-03-29T07:44:16.863Z</time></trkpt><trkpt lat="43.21061999675004" lon="12.264766000741016"><ele>555.0</ele><time>2026-03-29T07:44:17.863Z</time></trkpt><trkpt lat="43.21068398079932" lon="12.264795496309127"><ele>556.0</ele><time>2026-03-29T07:44:18.863Z</time></trkpt><trkpt lat="43.210771294915546" lon="12.264844074135885"><ele>557.0</ele><time>2026-03-29T07:44:20.863Z</time></trkpt><trkpt lat="43.210871153479" lon="12.26484798824298"><ele>558.0</ele><time>2026-03-29T07:44:22.863Z</time></trkpt><trkpt lat="43.21096001636642" lon="12.264872434662506"><ele>559.0</ele><time>2026-03-29T07:44:24.863Z</time></trkpt><trkpt lat="43.21102633032535" lon="12.264849615769887"><ele>560.0</ele><time>2026-03-29T07:44:26.863Z</time></trkpt><trkpt lat="43.211105859529546" lon="12.26474572945132"><ele>560.0</ele><time>2026-03-29T07:44:28.863Z</time></trkpt><trkpt lat="43.21115357188447" lon="12.26468590528603"><ele>560.0</ele><time>2026-03-29T07:44:29.863Z</time></trkpt><trkpt lat="43.211244972484025" lon="12.264580858799196"><ele>560.0</ele><time>2026-03-29T07:44:31.863Z</time></trkpt><trkpt lat="43.21134830487366" lon="12.264571392837281"><ele>560.0</ele><time>2026-03-29T07:44:33.863Z</time></trkpt><trkpt lat="43.21140542132948" lon="12.264613580775253"><ele>560.0</ele><time>2026-03-29T07:44:35.862Z</time></trkpt><trkpt lat="43.211487342504775" lon="12.264665510166068"><ele>560.0</ele><time>2026-03-29T07:44:37.862Z</time></trkpt><trkpt lat="43.21159986889826" lon="12.264665868555372"><ele>559.5</ele><time>2026-03-29T07:44:39.862Z</time></trkpt><trkpt lat="43.21170973045777" lon="12.264634756189523"><ele>559.0</ele><time>2026-03-29T07:44:42.862Z</time></trkpt><trkpt lat="43.21176313823361" lon="12.264684715192093"><ele>558.5</ele><time>2026-03-29T07:44:44.862Z</time></trkpt><trkpt lat="43.21182577521287" lon="12.264653024655946"><ele>558.0</ele><time>2026-03-29T07:44:46.862Z</time></trkpt><trkpt lat="43.211907042464674" lon="12.26463559039933"><ele>557.5</ele><time>2026-03-29T07:44:49.862Z</time></trkpt><trkpt lat="43.21199028308295" lon="12.264633324429791"><ele>557.0</ele><time>2026-03-29T07:44:51.862Z</time></trkpt><trkpt lat="43.21208589448741" lon="12.264657852574992"><ele>557.0</ele><time>2026-03-29T07:44:53.862Z</time></trkpt><trkpt lat="43.212210956899725" lon="12.264569867509099"><ele>557.0</ele><time>2026-03-29T07:44:55.862Z</time></trkpt><trkpt lat="43.212267497352016" lon="12.264527192746872"><ele>557.0</ele><time>2026-03-29T07:44:56.862Z</time></trkpt><trkpt lat="43.212393537150824" lon="12.264436767489661"><ele>557.0</ele><time>2026-03-29T07:44:58.862Z</time></trkpt><trkpt lat="43.2124560718041" lon="12.264418695924345"><ele>557.0</ele><time>2026-03-29T07:44:59.862Z</time></trkpt><trkpt lat="43.212529872373594" lon="12.264415513711253"><ele>555.5</ele><time>2026-03-29T07:45:02.861Z</time></trkpt><trkpt lat="43.212604515201" lon="12.264412075612553"><ele>554.0</ele><time>2026-03-29T07:45:05.861Z</time></trkpt><trkpt lat="43.21268868135255" lon="12.264437622190732"><ele>552.5</ele><time>2026-03-29T07:45:07.861Z</time></trkpt><trkpt lat="43.21275331340216" lon="12.264420994118826"><ele>551.0</ele><time>2026-03-29T07:45:09.861Z</time></trkpt><trkpt lat="43.21316244318212" lon="12.26440116531946"><ele>548.0</ele><time>2026-03-29T07:45:13.861Z</time></trkpt><trkpt lat="43.21323539503256" lon="12.264330747125822"><ele>545.0</ele><time>2026-03-29T07:45:14.861Z</time></trkpt><trkpt lat="43.21330224632709" lon="12.26423456314584"><ele>542.0</ele><time>2026-03-29T07:45:15.861Z</time></trkpt><trkpt lat="43.213343298741336" lon="12.264125344158028"><ele>539.0</ele><time>2026-03-29T07:45:16.861Z</time></trkpt><trkpt lat="43.21336196902417" lon="12.264011779887587"><ele>536.0</ele><time>2026-03-29T07:45:17.861Z</time></trkpt><trkpt lat="43.2133621269569" lon="12.263905056135139"><ele>533.0</ele><time>2026-03-29T07:45:18.861Z</time></trkpt><trkpt lat="43.21336771130637" lon="12.263797515184818"><ele>532.3333333333333</ele><time>2026-03-29T07:45:19.861Z</time></trkpt><trkpt lat="43.2133647114285" lon="12.263678418600268"><ele>531.6666666666666</ele><time>2026-03-29T07:45:20.861Z</time></trkpt><trkpt lat="43.21338726499922" lon="12.263578809356302"><ele>531.0</ele><time>2026-03-29T07:45:21.861Z</time></trkpt><trkpt lat="43.213407422611795" lon="12.263475081037159"><ele>530.3333333333334</ele><time>2026-03-29T07:45:22.861Z</time></trkpt><trkpt lat="43.213427804739965" lon="12.263389726328759"><ele>529.6666666666667</ele><time>2026-03-29T07:45:23.864Z</time></trkpt><trkpt lat="43.2134597431055" lon="12.263259417173908"><ele>529.0</ele><time>2026-03-29T07:45:25.863Z</time></trkpt><trkpt lat="43.21341729923137" lon="12.263139545984632"><ele>528.5</ele><time>2026-03-29T07:45:27.863Z</time></trkpt><trkpt lat="43.213375555689986" lon="12.263072241676296"><ele>528.0</ele><time>2026-03-29T07:45:28.863Z</time></trkpt><trkpt lat="43.213330393889045" lon="12.262953672377156"><ele>527.5</ele><time>2026-03-29T07:45:30.863Z</time></trkpt><trkpt lat="43.2132981601826" lon="12.262872952551998"><ele>527.0</ele><time>2026-03-29T07:45:32.863Z</time></trkpt><trkpt lat="43.213361771090284" lon="12.262877852495265"><ele>526.5</ele><time>2026-03-29T07:45:35.863Z</time></trkpt><trkpt lat="43.213434671830065" lon="12.26275889715098"><ele>526.0</ele><time>2026-03-29T07:45:38.863Z</time></trkpt><trkpt lat="43.21347799498981" lon="12.262667188471402"><ele>526.0</ele><time>2026-03-29T07:45:39.863Z</time></trkpt><trkpt lat="43.21350711654724" lon="12.262585746240749"><ele>526.0</ele><time>2026-03-29T07:45:40.862Z</time></trkpt><trkpt lat="43.21356823034283" lon="12.2624192971376"><ele>526.0</ele><time>2026-03-29T07:45:42.862Z</time></trkpt><trkpt lat="43.21360186160773" lon="12.262343041961598"><ele>526.0</ele><time>2026-03-29T07:45:43.862Z</time></trkpt><trkpt lat="43.21363573635927" lon="12.262254853336717"><ele>526.0</ele><time>2026-03-29T07:45:44.862Z</time></trkpt><trkpt lat="43.21367101964948" lon="12.262176050645412"><ele>526.0</ele><time>2026-03-29T07:45:45.862Z</time></trkpt><trkpt lat="43.21375228705146" lon="12.262003379966597"><ele>527.0</ele><time>2026-03-29T07:45:47.862Z</time></trkpt><trkpt lat="43.213763134496986" lon="12.261917578348982"><ele>528.0</ele><time>2026-03-29T07:45:48.862Z</time></trkpt><trkpt lat="43.213784828410546" lon="12.261836469217291"><ele>529.0</ele><time>2026-03-29T07:45:51.862Z</time></trkpt><trkpt lat="43.21370365409044" lon="12.261713581109403"><ele>530.0</ele><time>2026-03-29T07:45:52.862Z</time></trkpt><trkpt lat="43.2136278304257" lon="12.261645062916784"><ele>531.0</ele><time>2026-03-29T07:45:53.862Z</time></trkpt><trkpt lat="43.2135609542505" lon="12.261574829678624"><ele>532.0</ele><time>2026-03-29T07:45:54.862Z</time></trkpt><trkpt lat="43.213520203130145" lon="12.261487397563164"><ele>531.0</ele><time>2026-03-29T07:45:55.862Z</time></trkpt><trkpt lat="43.21348285121883" lon="12.261400550580145"><ele>530.0</ele><time>2026-03-29T07:45:56.862Z</time></trkpt><trkpt lat="43.213390741985215" lon="12.261302956508121"><ele>529.0</ele><time>2026-03-29T07:45:58.862Z</time></trkpt><trkpt lat="43.213336858110544" lon="12.261186268483772"><ele>528.0</ele><time>2026-03-29T07:46:00.862Z</time></trkpt><trkpt lat="43.21338891204673" lon="12.261135401124735"><ele>527.0</ele><time>2026-03-29T07:46:06.862Z</time></trkpt><trkpt lat="43.21344603295899" lon="12.26107612304761"><ele>526.0</ele><time>2026-03-29T07:46:09.861Z</time></trkpt><trkpt lat="43.21355150616612" lon="12.261059597072204"><ele>526.0</ele><time>2026-03-29T07:46:11.861Z</time></trkpt><trkpt lat="43.21371849869555" lon="12.260752807575845"><ele>526.0</ele><time>2026-03-29T07:46:13.861Z</time></trkpt><trkpt lat="43.21380723922249" lon="12.260637278467092"><ele>526.0</ele><time>2026-03-29T07:46:15.861Z</time></trkpt><trkpt lat="43.21386773650788" lon="12.260569743878117"><ele>523.8333333333334</ele><time>2026-03-29T07:46:17.861Z</time></trkpt><trkpt lat="43.2139136496994" lon="12.260507415889009"><ele>521.6666666666667</ele><time>2026-03-29T07:46:19.861Z</time></trkpt><trkpt lat="43.21397351224253" lon="12.26038036601409"><ele>519.5</ele><time>2026-03-29T07:46:25.861Z</time></trkpt><trkpt lat="43.214000783606146" lon="12.260290616369918"><ele>517.3333333333334</ele><time>2026-03-29T07:46:28.861Z</time></trkpt><trkpt lat="43.21403321445706" lon="12.260205609245107"><ele>515.1666666666666</ele><time>2026-03-29T07:46:30.861Z</time></trkpt><trkpt lat="43.214073373928166" lon="12.26012639255433"><ele>513.0</ele><time>2026-03-29T07:46:32.861Z</time></trkpt><trkpt lat="43.21412154822826" lon="12.26006454029428"><ele>513.0</ele><time>2026-03-29T07:46:35.86Z</time></trkpt><trkpt lat="43.21416969236834" lon="12.260006902822555"><ele>513.0</ele><time>2026-03-29T07:46:40.86Z</time></trkpt><trkpt lat="43.214228073819775" lon="12.259912643093035"><ele>513.0</ele><time>2026-03-29T07:46:43.86Z</time></trkpt><trkpt lat="43.214273333707666" lon="12.25984640749652"><ele>513.0</ele><time>2026-03-29T07:46:47.86Z</time></trkpt><trkpt lat="43.21433271283572" lon="12.259775643586263"><ele>513.0</ele><time>2026-03-29T07:46:51.86Z</time></trkpt><trkpt lat="43.214407170953926" lon="12.259708375531277"><ele>513.0</ele><time>2026-03-29T07:46:55.86Z</time></trkpt><trkpt lat="43.21448503240982" lon="12.259620959510634"><ele>513.0</ele><time>2026-03-29T07:46:57.86Z</time></trkpt><trkpt lat="43.21453276780739" lon="12.2595591518505"><ele>513.0</ele><time>2026-03-29T07:46:59.86Z</time></trkpt><trkpt lat="43.21460843358847" lon="12.25962776924349"><ele>513.0</ele><time>2026-03-29T07:47:10.859Z</time></trkpt><trkpt lat="43.21463946515077" lon="12.259741779940104"><ele>513.0</ele><time>2026-03-29T07:47:11.859Z</time></trkpt><trkpt lat="43.21467926704206" lon="12.259845381463998"><ele>513.0</ele><time>2026-03-29T07:47:12.859Z</time></trkpt><trkpt lat="43.214726632561494" lon="12.259942003474288"><ele>513.0</ele><time>2026-03-29T07:47:13.859Z</time></trkpt><trkpt lat="43.214778164183855" lon="12.260011411204795"><ele>511.0</ele><time>2026-03-29T07:47:14.859Z</time></trkpt><trkpt lat="43.21484269275541" lon="12.260072935802945"><ele>509.0</ele><time>2026-03-29T07:47:15.859Z</time></trkpt><trkpt lat="43.21489330719663" lon="12.260160315643223"><ele>507.0</ele><time>2026-03-29T07:47:16.859Z</time></trkpt><trkpt lat="43.21491575304633" lon="12.26026173636068"><ele>505.0</ele><time>2026-03-29T07:47:17.859Z</time></trkpt><trkpt lat="43.2149846863413" lon="12.260301453949838"><ele>503.0</ele><time>2026-03-29T07:47:18.859Z</time></trkpt><trkpt lat="43.21509556548912" lon="12.260288401951513"><ele>501.0</ele><time>2026-03-29T07:47:20.859Z</time></trkpt><trkpt lat="43.21521625646942" lon="12.260311939419344"><ele>501.0</ele><time>2026-03-29T07:47:22.859Z</time></trkpt><trkpt lat="43.2152811072813" lon="12.260287582729564"><ele>501.0</ele><time>2026-03-29T07:47:23.859Z</time></trkpt><trkpt lat="43.21539010086447" lon="12.260291035704943"><ele>501.0</ele><time>2026-03-29T07:47:25.859Z</time></trkpt><trkpt lat="43.215470863933675" lon="12.260307041178207"><ele>501.0</ele><time>2026-03-29T07:47:27.858Z</time></trkpt><trkpt lat="43.215538247683334" lon="12.260320140019276"><ele>501.0</ele><time>2026-03-29T07:47:29.861Z</time></trkpt><trkpt lat="43.21560120433033" lon="12.260350716650812"><ele>501.0</ele><time>2026-03-29T07:47:31.861Z</time></trkpt><trkpt lat="43.21566799656797" lon="12.260393202244158"><ele>502.0</ele><time>2026-03-29T07:47:34.861Z</time></trkpt><trkpt lat="43.21574278441792" lon="12.260462257455254"><ele>503.0</ele><time>2026-03-29T07:47:37.861Z</time></trkpt><trkpt lat="43.215773213851065" lon="12.260560600329082"><ele>504.0</ele><time>2026-03-29T07:47:41.861Z</time></trkpt><trkpt lat="43.215866223758155" lon="12.260636861333408"><ele>505.0</ele><time>2026-03-29T07:47:46.861Z</time></trkpt><trkpt lat="43.21593985935548" lon="12.26067045907312"><ele>506.0</ele><time>2026-03-29T07:47:50.861Z</time></trkpt><trkpt lat="43.21600389595747" lon="12.260685522816411"><ele>507.0</ele><time>2026-03-29T07:47:53.861Z</time></trkpt><trkpt lat="43.216082506479005" lon="12.26070007130808"><ele>503.6</ele><time>2026-03-29T07:47:58.861Z</time></trkpt><trkpt lat="43.216091039682986" lon="12.260799667287168"><ele>500.20000000000005</ele><time>2026-03-29T07:48:01.86Z</time></trkpt><trkpt lat="43.21612875932907" lon="12.260870543650233"><ele>496.8</ele><time>2026-03-29T07:48:04.86Z</time></trkpt><trkpt lat="43.21618837887786" lon="12.26091725972982"><ele>493.4</ele><time>2026-03-29T07:48:08.86Z</time></trkpt><trkpt lat="43.21626656453096" lon="12.260928398784513"><ele>490.0</ele><time>2026-03-29T07:48:11.86Z</time></trkpt><trkpt lat="43.2164416056183" lon="12.261039540625243"><ele>491.4</ele><time>2026-03-29T07:48:13.86Z</time></trkpt><trkpt lat="43.21651768124974" lon="12.261029580151877"><ele>492.8</ele><time>2026-03-29T07:48:16.86Z</time></trkpt><trkpt lat="43.21664077253176" lon="12.260986609532997"><ele>494.20000000000005</ele><time>2026-03-29T07:48:18.86Z</time></trkpt><trkpt lat="43.21672309918305" lon="12.2609269185951"><ele>495.6</ele><time>2026-03-29T07:48:19.86Z</time></trkpt><trkpt lat="43.21677953186216" lon="12.26087184810941"><ele>497.0</ele><time>2026-03-29T07:48:22.86Z</time></trkpt><trkpt lat="43.21684791053981" lon="12.260770460935131"><ele>497.0</ele><time>2026-03-29T07:48:23.86Z</time></trkpt><trkpt lat="43.21688342221799" lon="12.260695459969927"><ele>497.0</ele><time>2026-03-29T07:48:26.859Z</time></trkpt><trkpt lat="43.21712798357396" lon="12.260636999571163"><ele>497.0</ele><time>2026-03-29T07:48:33.859Z</time></trkpt><trkpt lat="43.21713214376003" lon="12.260742013141432"><ele>497.0</ele><time>2026-03-29T07:48:34.859Z</time></trkpt><trkpt lat="43.21731081760498" lon="12.260760104836239"><ele>499.6</ele><time>2026-03-29T07:48:39.859Z</time></trkpt><trkpt lat="43.21738047110111" lon="12.260786402248657"><ele>502.20000000000005</ele><time>2026-03-29T07:48:40.859Z</time></trkpt><trkpt lat="43.217482641828084" lon="12.260792330258942"><ele>504.8</ele><time>2026-03-29T07:48:42.859Z</time></trkpt><trkpt lat="43.2175493844751" lon="12.260912959107136"><ele>507.4</ele><time>2026-03-29T07:48:44.859Z</time></trkpt><trkpt lat="43.217603643485674" lon="12.261040135613111"><ele>510.0</ele><time>2026-03-29T07:48:46.859Z</time></trkpt><trkpt lat="43.21762780955099" lon="12.261151218959364"><ele>510.0</ele><time>2026-03-29T07:48:48.859Z</time></trkpt><trkpt lat="43.2176221235492" lon="12.261259120770696"><ele>510.0</ele><time>2026-03-29T07:48:50.859Z</time></trkpt><trkpt lat="43.21763384089097" lon="12.261399762773854"><ele>510.0</ele><time>2026-03-29T07:48:52.858Z</time></trkpt><trkpt lat="43.2176392207123" lon="12.261510601389478"><ele>510.0</ele><time>2026-03-29T07:48:53.858Z</time></trkpt><trkpt lat="43.217682811673306" lon="12.261608854504047"><ele>510.0</ele><time>2026-03-29T07:48:54.858Z</time></trkpt><trkpt lat="43.21772614786004" lon="12.261694374792532"><ele>510.0</ele><time>2026-03-29T07:48:55.858Z</time></trkpt><trkpt lat="43.21778090462807" lon="12.261814052909708"><ele>508.6</ele><time>2026-03-29T07:48:56.858Z</time></trkpt><trkpt lat="43.21783452708053" lon="12.261905277946369"><ele>507.2</ele><time>2026-03-29T07:48:57.858Z</time></trkpt><trkpt lat="43.21786639034791" lon="12.261986473549944"><ele>505.79999999999995</ele><time>2026-03-29T07:48:58.858Z</time></trkpt><trkpt lat="43.21797999258386" lon="12.262037950849695"><ele>504.4</ele><time>2026-03-29T07:49:01.858Z</time></trkpt><trkpt lat="43.21805187893655" lon="12.262109697600874"><ele>503.0</ele><time>2026-03-29T07:49:03.858Z</time></trkpt><trkpt lat="43.21815484975946" lon="12.262176381922757"><ele>504.79999999999995</ele><time>2026-03-29T07:49:05.858Z</time></trkpt><trkpt lat="43.21823658991324" lon="12.262263589358273"><ele>506.59999999999997</ele><time>2026-03-29T07:49:07.858Z</time></trkpt><trkpt lat="43.2183273066994" lon="12.262285165643721"><ele>508.40000000000003</ele><time>2026-03-29T07:49:10.858Z</time></trkpt><trkpt lat="43.218412653985844" lon="12.262252350650687"><ele>510.20000000000005</ele><time>2026-03-29T07:49:11.858Z</time></trkpt><trkpt lat="43.2185039470514" lon="12.26218915832027"><ele>512.0</ele><time>2026-03-29T07:49:12.858Z</time></trkpt><trkpt lat="43.21859214967383" lon="12.262129491833319"><ele>515.6666666666666</ele><time>2026-03-29T07:49:13.858Z</time></trkpt><trkpt lat="43.21865821218746" lon="12.262102507673152"><ele>519.3333333333333</ele><time>2026-03-29T07:49:15.858Z</time></trkpt><trkpt lat="43.218725597000535" lon="12.262033818210384"><ele>523.0</ele><time>2026-03-29T07:49:18.858Z</time></trkpt><trkpt lat="43.218841478036346" lon="12.262056387852324"><ele>526.6666666666666</ele><time>2026-03-29T07:49:20.857Z</time></trkpt><trkpt lat="43.21892051813792" lon="12.262067889724385"><ele>530.3333333333334</ele><time>2026-03-29T07:49:22.857Z</time></trkpt><trkpt lat="43.21900310328294" lon="12.26207833624416"><ele>534.0</ele><time>2026-03-29T07:49:24.857Z</time></trkpt><trkpt lat="43.21919397956849" lon="12.26198110046143"><ele>536.0</ele><time>2026-03-29T07:49:27.857Z</time></trkpt><trkpt lat="43.219342480664" lon="12.262007094703623"><ele>538.0</ele><time>2026-03-29T07:49:28.857Z</time></trkpt><trkpt lat="43.21942705355349" lon="12.262002803837413"><ele>540.0</ele><time>2026-03-29T07:49:29.857Z</time></trkpt><trkpt lat="43.21950484845506" lon="12.26199693486229"><ele>542.0</ele><time>2026-03-29T07:49:30.857Z</time></trkpt><trkpt lat="43.219618401311934" lon="12.26202261780207"><ele>544.0</ele><time>2026-03-29T07:49:33.857Z</time></trkpt><trkpt lat="43.2196837591365" lon="12.262061013468717"><ele>544.0</ele><time>2026-03-29T07:49:34.857Z</time></trkpt><trkpt lat="43.219774758393285" lon="12.262063331131495"><ele>544.0</ele><time>2026-03-29T07:49:36.858Z</time></trkpt><trkpt lat="43.21989117141616" lon="12.26215887345799"><ele>544.0</ele><time>2026-03-29T07:49:38.858Z</time></trkpt><trkpt lat="43.219961786939294" lon="12.262222626028516"><ele>544.0</ele><time>2026-03-29T07:49:39.858Z</time></trkpt><trkpt lat="43.220030701508016" lon="12.262270396784675"><ele>544.0</ele><time>2026-03-29T07:49:40.858Z</time></trkpt><trkpt lat="43.220093420960765" lon="12.262262248531393"><ele>538.6666666666667</ele><time>2026-03-29T07:49:42.858Z</time></trkpt><trkpt lat="43.22016233431959" lon="12.262290555376353"><ele>533.3333333333334</ele><time>2026-03-29T07:49:44.858Z</time></trkpt><trkpt lat="43.22026215734571" lon="12.262333702370718"><ele>528.0</ele><time>2026-03-29T07:49:46.858Z</time></trkpt><trkpt lat="43.22036390367099" lon="12.262344518233679"><ele>522.6666666666666</ele><time>2026-03-29T07:49:48.859Z</time></trkpt><trkpt lat="43.220432427884646" lon="12.262353211534268"><ele>517.3333333333333</ele><time>2026-03-29T07:49:50.858Z</time></trkpt><trkpt lat="43.22050433188943" lon="12.262382136481666"><ele>512.0</ele><time>2026-03-29T07:49:52.858Z</time></trkpt><trkpt lat="43.220576948071404" lon="12.262416895143"><ele>516.25</ele><time>2026-03-29T07:49:53.858Z</time></trkpt><trkpt lat="43.22067971486158" lon="12.262456473274689"><ele>520.5</ele><time>2026-03-29T07:49:54.858Z</time></trkpt><trkpt lat="43.22081719319912" lon="12.262495887190747"><ele>524.75</ele><time>2026-03-29T07:49:55.858Z</time></trkpt><trkpt lat="43.22094097672116" lon="12.262540821260467"><ele>529.0</ele><time>2026-03-29T07:49:56.858Z</time></trkpt><trkpt lat="43.22105971797537" lon="12.26257945471323"><ele>529.0</ele><time>2026-03-29T07:49:57.858Z</time></trkpt><trkpt lat="43.22115547880098" lon="12.26261684246563"><ele>529.0</ele><time>2026-03-29T07:49:58.858Z</time></trkpt><trkpt lat="43.221221355144095" lon="12.262683513374654"><ele>529.0</ele><time>2026-03-29T07:49:59.858Z</time></trkpt><trkpt lat="43.22127766098" lon="12.26274947615343"><ele>529.0</ele><time>2026-03-29T07:50:00.858Z</time></trkpt><trkpt lat="43.22136715862087" lon="12.262746754835272"><ele>529.0</ele><time>2026-03-29T07:50:04.858Z</time></trkpt><trkpt lat="43.2214364422402" lon="12.26271680341398"><ele>529.0</ele><time>2026-03-29T07:50:07.858Z</time></trkpt><trkpt lat="43.221503123752896" lon="12.262683417890035"><ele>529.8333333333334</ele><time>2026-03-29T07:50:12.858Z</time></trkpt><trkpt lat="43.221566670236854" lon="12.262590669450038"><ele>530.6666666666667</ele><time>2026-03-29T07:50:16.857Z</time></trkpt><trkpt lat="43.22155750417549" lon="12.26246410639772"><ele>531.5</ele><time>2026-03-29T07:50:20.857Z</time></trkpt><trkpt lat="43.221528951542474" lon="12.262375795047504"><ele>532.3333333333334</ele><time>2026-03-29T07:50:24.857Z</time></trkpt><trkpt lat="43.22148734474128" lon="12.26230090390603"><ele>533.1666666666666</ele><time>2026-03-29T07:50:28.857Z</time></trkpt><trkpt lat="43.22149756506841" lon="12.262197392338177"><ele>534.0</ele><time>2026-03-29T07:50:31.857Z</time></trkpt><trkpt lat="43.22150837507382" lon="12.262081361754047"><ele>536.5714285714287</ele><time>2026-03-29T07:50:33.857Z</time></trkpt><trkpt lat="43.221522382769386" lon="12.261980241449061"><ele>539.1428571428571</ele><time>2026-03-29T07:50:36.857Z</time></trkpt><trkpt lat="43.2214995341404" lon="12.261890157270956"><ele>541.7142857142858</ele><time>2026-03-29T07:50:40.857Z</time></trkpt><trkpt lat="43.2215219192853" lon="12.261798210440327"><ele>544.2857142857143</ele><time>2026-03-29T07:50:46.856Z</time></trkpt><trkpt lat="43.221513098347074" lon="12.261706698330002"><ele>546.8571428571429</ele><time>2026-03-29T07:50:53.856Z</time></trkpt><trkpt lat="43.22145408218635" lon="12.261632308257484"><ele>549.4285714285714</ele><time>2026-03-29T07:50:59.856Z</time></trkpt><trkpt lat="43.22142272284609" lon="12.261543030042196"><ele>552.0</ele><time>2026-03-29T07:51:04.856Z</time></trkpt><trkpt lat="43.2213878119074" lon="12.261468196904234"><ele>556.1428571428571</ele><time>2026-03-29T07:51:08.856Z</time></trkpt><trkpt lat="43.22134084033177" lon="12.261398177752273"><ele>560.2857142857143</ele><time>2026-03-29T07:51:12.855Z</time></trkpt><trkpt lat="43.221280433925266" lon="12.261351526325905"><ele>564.4285714285714</ele><time>2026-03-29T07:51:16.855Z</time></trkpt><trkpt lat="43.22125818362763" lon="12.2612411764005"><ele>568.5714285714286</ele><time>2026-03-29T07:51:20.855Z</time></trkpt><trkpt lat="43.22127032855696" lon="12.261115581148756"><ele>572.7142857142858</ele><time>2026-03-29T07:51:23.855Z</time></trkpt><trkpt lat="43.22127234931729" lon="12.261021360949854"><ele>576.8571428571429</ele><time>2026-03-29T07:51:26.855Z</time></trkpt><trkpt lat="43.22127474542538" lon="12.260934410277034"><ele>581.0</ele><time>2026-03-29T07:51:28.855Z</time></trkpt><trkpt lat="43.22125851230974" lon="12.260823363363507"><ele>581.0</ele><time>2026-03-29T07:51:31.855Z</time></trkpt><trkpt lat="43.22122635196774" lon="12.260743663339252"><ele>581.0</ele><time>2026-03-29T07:51:34.855Z</time></trkpt><trkpt lat="43.22115724087228" lon="12.260631165462156"><ele>581.0</ele><time>2026-03-29T07:51:37.854Z</time></trkpt><trkpt lat="43.221105091318485" lon="12.260551221752687"><ele>581.0</ele><time>2026-03-29T07:51:39.854Z</time></trkpt><trkpt lat="43.221019857946324" lon="12.260441859429712"><ele>581.0</ele><time>2026-03-29T07:51:41.856Z</time></trkpt><trkpt lat="43.220961549098824" lon="12.26035944830993"><ele>582.4</ele><time>2026-03-29T07:51:44.856Z</time></trkpt><trkpt lat="43.22088435093838" lon="12.260293624869403"><ele>583.8</ele><time>2026-03-29T07:51:46.856Z</time></trkpt><trkpt lat="43.22077897017271" lon="12.260200596898127"><ele>585.1999999999999</ele><time>2026-03-29T07:51:48.856Z</time></trkpt><trkpt lat="43.220725647054785" lon="12.26015280819648"><ele>586.6</ele><time>2026-03-29T07:51:49.856Z</time></trkpt><trkpt lat="43.22063540984439" lon="12.26008621771635"><ele>588.0</ele><time>2026-03-29T07:51:51.856Z</time></trkpt><trkpt lat="43.22055836469291" lon="12.259902848835436"><ele>588.0</ele><time>2026-03-29T07:51:53.856Z</time></trkpt><trkpt lat="43.22046477288664" lon="12.2598361534483"><ele>588.0</ele><time>2026-03-29T07:51:55.855Z</time></trkpt><trkpt lat="43.22040099054568" lon="12.259808166611313"><ele>588.0</ele><time>2026-03-29T07:51:56.855Z</time></trkpt><trkpt lat="43.220332927388945" lon="12.259788679949496"><ele>588.0</ele><time>2026-03-29T07:51:57.855Z</time></trkpt><trkpt lat="43.22026415925815" lon="12.259781952057583"><ele>588.0</ele><time>2026-03-29T07:51:58.855Z</time></trkpt><trkpt lat="43.220163906883045" lon="12.25974510950511"><ele>588.0</ele><time>2026-03-29T07:52:00.855Z</time></trkpt><trkpt lat="43.220103164130315" lon="12.259691752144507"><ele>589.0</ele><time>2026-03-29T07:52:02.855Z</time></trkpt><trkpt lat="43.22005134377689" lon="12.259564966685291"><ele>590.0</ele><time>2026-03-29T07:52:04.855Z</time></trkpt><trkpt lat="43.22001801725427" lon="12.25942803175124"><ele>591.0</ele><time>2026-03-29T07:52:06.855Z</time></trkpt><trkpt lat="43.22000303890647" lon="12.259299621145031"><ele>592.0</ele><time>2026-03-29T07:52:08.855Z</time></trkpt><trkpt lat="43.21996252760721" lon="12.259221143226037"><ele>593.0</ele><time>2026-03-29T07:52:11.855Z</time></trkpt><trkpt lat="43.21989392369234" lon="12.259179727117196"><ele>593.0</ele><time>2026-03-29T07:52:13.855Z</time></trkpt><trkpt lat="43.21988152773904" lon="12.25904811854812"><ele>593.0</ele><time>2026-03-29T07:52:15.855Z</time></trkpt><trkpt lat="43.21992829995623" lon="12.259143849879052"><ele>593.0</ele><time>2026-03-29T07:52:16.854Z</time></trkpt><trkpt lat="43.21991165362715" lon="12.259058981432657"><ele>593.0</ele><time>2026-03-29T07:52:18.854Z</time></trkpt><trkpt lat="43.21996826560355" lon="12.259018267273134"><ele>593.0</ele><time>2026-03-29T07:52:21.854Z</time></trkpt><trkpt lat="43.22000041013197" lon="12.258895011606853"><ele>593.0</ele><time>2026-03-29T07:52:23.854Z</time></trkpt><trkpt lat="43.220045101104866" lon="12.258774540724746"><ele>596.1666666666666</ele><time>2026-03-29T07:52:25.854Z</time></trkpt><trkpt lat="43.22005101405659" lon="12.258681155438241"><ele>599.3333333333333</ele><time>2026-03-29T07:52:27.854Z</time></trkpt><trkpt lat="43.220064810063874" lon="12.25856301300412"><ele>602.5</ele><time>2026-03-29T07:52:30.854Z</time></trkpt><trkpt lat="43.22001994179139" lon="12.258471798445179"><ele>605.6666666666666</ele><time>2026-03-29T07:52:32.854Z</time></trkpt><trkpt lat="43.2199384344611" lon="12.258452099643822"><ele>608.8333333333334</ele><time>2026-03-29T07:52:35.854Z</time></trkpt><trkpt lat="43.21994721810369" lon="12.258318793227625"><ele>612.0</ele><time>2026-03-29T07:52:37.854Z</time></trkpt><trkpt lat="43.219945765732014" lon="12.258229410830982"><ele>612.0</ele><time>2026-03-29T07:52:39.854Z</time></trkpt><trkpt lat="43.219974298126985" lon="12.258148234353225"><ele>612.0</ele><time>2026-03-29T07:52:40.854Z</time></trkpt><trkpt lat="43.219992680850865" lon="12.258059217692857"><ele>612.0</ele><time>2026-03-29T07:52:41.854Z</time></trkpt><trkpt lat="43.22002030498617" lon="12.257971653255414"><ele>612.0</ele><time>2026-03-29T07:52:42.854Z</time></trkpt><trkpt lat="43.220054444603385" lon="12.25785214711293"><ele>612.0</ele><time>2026-03-29T07:52:44.853Z</time></trkpt><trkpt lat="43.220082389132784" lon="12.257715529429332"><ele>612.0</ele><time>2026-03-29T07:52:46.853Z</time></trkpt><trkpt lat="43.220132351436256" lon="12.257565134171191"><ele>615.6666666666666</ele><time>2026-03-29T07:52:49.853Z</time></trkpt><trkpt lat="43.22017148476687" lon="12.257466622561285"><ele>619.3333333333334</ele><time>2026-03-29T07:52:50.853Z</time></trkpt><trkpt lat="43.22021848058442" lon="12.25737273942082"><ele>623.0</ele><time>2026-03-29T07:52:51.853Z</time></trkpt><trkpt lat="43.220264836239444" lon="12.257278562706238"><ele>626.6666666666667</ele><time>2026-03-29T07:52:52.853Z</time></trkpt><trkpt lat="43.220281627137524" lon="12.25718672327418"><ele>630.3333333333334</ele><time>2026-03-29T07:52:53.853Z</time></trkpt><trkpt lat="43.22029215480107" lon="12.257097611321903"><ele>634.0</ele><time>2026-03-29T07:52:54.853Z</time></trkpt><trkpt lat="43.2202740999765" lon="12.256964751040282"><ele>635.4</ele><time>2026-03-29T07:52:57.853Z</time></trkpt><trkpt lat="43.22021716106907" lon="12.256896318296125"><ele>636.8</ele><time>2026-03-29T07:53:02.853Z</time></trkpt><trkpt lat="43.22015063694228" lon="12.256848257819566"><ele>638.1999999999999</ele><time>2026-03-29T07:53:05.853Z</time></trkpt><trkpt lat="43.219980695386255" lon="12.256843156021555"><ele>639.5999999999999</ele><time>2026-03-29T07:53:08.853Z</time></trkpt><trkpt lat="43.21986903025894" lon="12.25678997708261"><ele>641.0</ele><time>2026-03-29T07:53:09.853Z</time></trkpt><trkpt lat="43.219791773462056" lon="12.256722060363503"><ele>641.0</ele><time>2026-03-29T07:53:10.852Z</time></trkpt><trkpt lat="43.21974217278082" lon="12.256665116068609"><ele>641.0</ele><time>2026-03-29T07:53:11.852Z</time></trkpt><trkpt lat="43.219684194354016" lon="12.256580345058794"><ele>641.0</ele><time>2026-03-29T07:53:12.852Z</time></trkpt><trkpt lat="43.219639227508445" lon="12.256499639194322"><ele>641.0</ele><time>2026-03-29T07:53:13.852Z</time></trkpt><trkpt lat="43.219594602176585" lon="12.256422378874557"><ele>641.0</ele><time>2026-03-29T07:53:16.852Z</time></trkpt><trkpt lat="43.21963123345903" lon="12.256308450517587"><ele>641.0</ele><time>2026-03-29T07:53:18.852Z</time></trkpt><trkpt lat="43.21965253884093" lon="12.256224962560752"><ele>641.5</ele><time>2026-03-29T07:53:19.852Z</time></trkpt><trkpt lat="43.219650266018384" lon="12.256119880546024"><ele>642.0</ele><time>2026-03-29T07:53:22.852Z</time></trkpt><trkpt lat="43.219731393649646" lon="12.256096015956397"><ele>642.5</ele><time>2026-03-29T07:54:16.853Z</time></trkpt><trkpt lat="43.21979710788494" lon="12.256132683186937"><ele>643.0</ele><time>2026-03-29T07:54:18.853Z</time></trkpt><trkpt lat="43.219864138294135" lon="12.256157284094837"><ele>643.5</ele><time>2026-03-29T07:54:22.853Z</time></trkpt><trkpt lat="43.21994738261881" lon="12.256146301297763"><ele>644.0</ele><time>2026-03-29T07:54:25.853Z</time></trkpt><trkpt lat="43.22004574517616" lon="12.256129710483227"><ele>648.2</ele><time>2026-03-29T07:54:27.854Z</time></trkpt><trkpt lat="43.22012323221018" lon="12.2560886401725"><ele>652.4000000000001</ele><time>2026-03-29T07:54:29.859Z</time></trkpt><trkpt lat="43.220233126831594" lon="12.256017102902197"><ele>656.6</ele><time>2026-03-29T07:54:31.864Z</time></trkpt><trkpt lat="43.22032751327366" lon="12.255971615537058"><ele>660.8</ele><time>2026-03-29T07:54:33.868Z</time></trkpt><trkpt lat="43.220382096425936" lon="12.255920113718702"><ele>665.0</ele><time>2026-03-29T07:54:34.87Z</time></trkpt><trkpt lat="43.2204446871997" lon="12.255849415378425"><ele>665.0</ele><time>2026-03-29T07:54:35.872Z</time></trkpt><trkpt lat="43.22055739092152" lon="12.255753382683915"><ele>665.0</ele><time>2026-03-29T07:54:37.875Z</time></trkpt><trkpt lat="43.2206043723703" lon="12.255689588204872"><ele>665.0</ele><time>2026-03-29T07:54:38.877Z</time></trkpt><trkpt lat="43.22064714893085" lon="12.255620840138437"><ele>665.0</ele><time>2026-03-29T07:54:39.878Z</time></trkpt><trkpt lat="43.220695182522476" lon="12.25554770835071"><ele>665.0</ele><time>2026-03-29T07:54:40.879Z</time></trkpt><trkpt lat="43.22078833163797" lon="12.25544180518676"><ele>664.0</ele><time>2026-03-29T07:54:42.882Z</time></trkpt><trkpt lat="43.22088363262511" lon="12.255359305766035"><ele>663.0</ele><time>2026-03-29T07:54:44.884Z</time></trkpt><trkpt lat="43.22094989290641" lon="12.255224780270204"><ele>662.0</ele><time>2026-03-29T07:54:46.885Z</time></trkpt><trkpt lat="43.22096978376765" lon="12.255080558913313"><ele>661.0</ele><time>2026-03-29T07:54:48.887Z</time></trkpt><trkpt lat="43.22097730444661" lon="12.25496590663236"><ele>660.0</ele><time>2026-03-29T07:54:50.888Z</time></trkpt><trkpt lat="43.22102597932433" lon="12.2548676579734"><ele>660.0</ele><time>2026-03-29T07:54:52.89Z</time></trkpt><trkpt lat="43.22110480088139" lon="12.254805294582802"><ele>660.0</ele><time>2026-03-29T07:54:54.891Z</time></trkpt><trkpt lat="43.22116978333092" lon="12.254693584562665"><ele>660.0</ele><time>2026-03-29T07:54:56.891Z</time></trkpt><trkpt lat="43.22122129293047" lon="12.25458974783835"><ele>660.0</ele><time>2026-03-29T07:54:58.892Z</time></trkpt><trkpt lat="43.221291993404975" lon="12.254496022474246"><ele>660.0</ele><time>2026-03-29T07:55:00.893Z</time></trkpt><trkpt lat="43.22138405347662" lon="12.254499846619643"><ele>660.0</ele><time>2026-03-29T07:55:02.894Z</time></trkpt><trkpt lat="43.22144610973088" lon="12.254531073177874"><ele>660.0</ele><time>2026-03-29T07:55:03.894Z</time></trkpt><trkpt lat="43.2215085625938" lon="12.254559091458047"><ele>660.0</ele><time>2026-03-29T07:55:04.894Z</time></trkpt><trkpt lat="43.221608400261346" lon="12.254576458961571"><ele>660.0</ele><time>2026-03-29T07:55:06.895Z</time></trkpt><trkpt lat="43.22167143249167" lon="12.254532279759111"><ele>660.0</ele><time>2026-03-29T07:55:08.895Z</time></trkpt><trkpt lat="43.22177070983032" lon="12.254573452582452"><ele>660.0</ele><time>2026-03-29T07:55:10.895Z</time></trkpt><trkpt lat="43.22182659732665" lon="12.254656883814699"><ele>660.0</ele><time>2026-03-29T07:55:11.895Z</time></trkpt><trkpt lat="43.22187875360991" lon="12.254742808449818"><ele>660.0</ele><time>2026-03-29T07:55:12.896Z</time></trkpt><trkpt lat="43.22192943679976" lon="12.2548000372164"><ele>660.0</ele><time>2026-03-29T07:55:13.896Z</time></trkpt><trkpt lat="43.22204446942501" lon="12.254844738153025"><ele>660.0</ele><time>2026-03-29T07:55:15.896Z</time></trkpt><trkpt lat="43.222159592793915" lon="12.254847138123399"><ele>660.0</ele><time>2026-03-29T07:55:17.896Z</time></trkpt><trkpt lat="43.222264730673814" lon="12.254804651018839"><ele>660.0</ele><time>2026-03-29T07:55:19.896Z</time></trkpt><trkpt lat="43.22236482258123" lon="12.254772244128223"><ele>660.0</ele><time>2026-03-29T07:55:21.896Z</time></trkpt><trkpt lat="43.22246048847857" lon="12.25479237864283"><ele>660.0</ele><time>2026-03-29T07:55:23.896Z</time></trkpt><trkpt lat="43.222534774665945" lon="12.254896615182583"><ele>660.0</ele><time>2026-03-29T07:55:25.897Z</time></trkpt><trkpt lat="43.22263132957845" lon="12.254948385313746"><ele>660.0</ele><time>2026-03-29T07:55:27.897Z</time></trkpt><trkpt lat="43.22270027872488" lon="12.254986253720537"><ele>654.2</ele><time>2026-03-29T07:55:28.897Z</time></trkpt><trkpt lat="43.2227700243185" lon="12.255050642675435"><ele>648.4</ele><time>2026-03-29T07:55:29.897Z</time></trkpt><trkpt lat="43.22284781320955" lon="12.255152447482232"><ele>642.6</ele><time>2026-03-29T07:55:31.897Z</time></trkpt><trkpt lat="43.22294400005163" lon="12.255264721455802"><ele>636.8</ele><time>2026-03-29T07:55:33.897Z</time></trkpt><trkpt lat="43.223010390189685" lon="12.25527054710211"><ele>631.0</ele><time>2026-03-29T07:55:35.897Z</time></trkpt><trkpt lat="43.22309220932169" lon="12.25523707493244"><ele>633.0</ele><time>2026-03-29T07:55:38.897Z</time></trkpt><trkpt lat="43.22317809314511" lon="12.255209294047287"><ele>635.0</ele><time>2026-03-29T07:55:40.897Z</time></trkpt><trkpt lat="43.22325631440207" lon="12.255129152069495"><ele>637.0</ele><time>2026-03-29T07:55:43.897Z</time></trkpt><trkpt lat="43.22327874639408" lon="12.255003783229778"><ele>639.0</ele><time>2026-03-29T07:55:45.897Z</time></trkpt><trkpt lat="43.2233211626705" lon="12.254938200707604"><ele>641.0</ele><time>2026-03-29T07:55:47.897Z</time></trkpt><trkpt lat="43.223409027947916" lon="12.254876496007357"><ele>643.0</ele><time>2026-03-29T07:55:49.897Z</time></trkpt><trkpt lat="43.223519821931276" lon="12.25481553834792"><ele>648.4</ele><time>2026-03-29T07:55:51.897Z</time></trkpt><trkpt lat="43.22358011389219" lon="12.254772053563622"><ele>653.8</ele><time>2026-03-29T07:55:52.897Z</time></trkpt><trkpt lat="43.22365761119194" lon="12.254624079627806"><ele>659.2</ele><time>2026-03-29T07:55:54.898Z</time></trkpt><trkpt lat="43.22373046613601" lon="12.254518369002271"><ele>664.6</ele><time>2026-03-29T07:55:56.899Z</time></trkpt><trkpt lat="43.22382319726687" lon="12.254484315644545"><ele>670.0</ele><time>2026-03-29T07:55:59.899Z</time></trkpt><trkpt lat="43.22388796842614" lon="12.254450063709971"><ele>670.0</ele><time>2026-03-29T07:56:00.899Z</time></trkpt><trkpt lat="43.22397758815887" lon="12.254363987309736"><ele>670.0</ele><time>2026-03-29T07:56:02.899Z</time></trkpt><trkpt lat="43.22409450450748" lon="12.254240606557433"><ele>670.0</ele><time>2026-03-29T07:56:04.899Z</time></trkpt><trkpt lat="43.224164322946145" lon="12.254169901495882"><ele>670.0</ele><time>2026-03-29T07:56:05.898Z</time></trkpt><trkpt lat="43.22422919110917" lon="12.25410161247782"><ele>670.0</ele><time>2026-03-29T07:56:06.898Z</time></trkpt><trkpt lat="43.22429993862568" lon="12.254029699077282"><ele>669.2</ele><time>2026-03-29T07:56:07.898Z</time></trkpt><trkpt lat="43.22436879861884" lon="12.254000445670906"><ele>668.4</ele><time>2026-03-29T07:56:08.898Z</time></trkpt><trkpt lat="43.22445568566934" lon="12.253990800226376"><ele>667.5999999999999</ele><time>2026-03-29T07:56:09.898Z</time></trkpt><trkpt lat="43.22454102332466" lon="12.253998529968477"><ele>666.8</ele><time>2026-03-29T07:56:10.898Z</time></trkpt><trkpt lat="43.224640813487426" lon="12.253997455348392"><ele>666.0</ele><time>2026-03-29T07:56:11.898Z</time></trkpt><trkpt lat="43.22475636467052" lon="12.253992958550214"><ele>666.6666666666666</ele><time>2026-03-29T07:56:12.898Z</time></trkpt><trkpt lat="43.22484229893274" lon="12.25401652621639"><ele>667.3333333333334</ele><time>2026-03-29T07:56:13.898Z</time></trkpt><trkpt lat="43.22494153134274" lon="12.25403596826911"><ele>668.0</ele><time>2026-03-29T07:56:14.898Z</time></trkpt><trkpt lat="43.22503761871861" lon="12.25407050444939"><ele>668.6666666666667</ele><time>2026-03-29T07:56:15.898Z</time></trkpt><trkpt lat="43.22509644982279" lon="12.254115762002352"><ele>669.3333333333334</ele><time>2026-03-29T07:56:16.898Z</time></trkpt><trkpt lat="43.225153527285016" lon="12.254158485522568"><ele>670.0</ele><time>2026-03-29T07:56:17.898Z</time></trkpt><trkpt lat="43.225260813491296" lon="12.254170037793617"><ele>670.0</ele><time>2026-03-29T07:56:19.898Z</time></trkpt><trkpt lat="43.22532758167169" lon="12.254172192106699"><ele>670.0</ele><time>2026-03-29T07:56:20.898Z</time></trkpt><trkpt lat="43.22540791356357" lon="12.254177631329567"><ele>670.0</ele><time>2026-03-29T07:56:21.898Z</time></trkpt><trkpt lat="43.22549241612284" lon="12.254194506145708"><ele>670.0</ele><time>2026-03-29T07:56:22.897Z</time></trkpt><trkpt lat="43.22556561782769" lon="12.254197107112473"><ele>670.0</ele><time>2026-03-29T07:56:23.897Z</time></trkpt><trkpt lat="43.22563844797862" lon="12.254176059894233"><ele>670.0</ele><time>2026-03-29T07:56:24.897Z</time></trkpt><trkpt lat="43.22571668030367" lon="12.254129086656896"><ele>671.2</ele><time>2026-03-29T07:56:25.897Z</time></trkpt><trkpt lat="43.22580744616887" lon="12.254037258012094"><ele>672.4</ele><time>2026-03-29T07:56:26.897Z</time></trkpt><trkpt lat="43.22586646634131" lon="12.253926442945273"><ele>673.5999999999999</ele><time>2026-03-29T07:56:27.897Z</time></trkpt><trkpt lat="43.22590455746535" lon="12.253794806695586"><ele>674.8</ele><time>2026-03-29T07:56:28.897Z</time></trkpt><trkpt lat="43.225918967524215" lon="12.253697181012372"><ele>676.0</ele><time>2026-03-29T07:56:29.897Z</time></trkpt><trkpt lat="43.225932792316705" lon="12.253611500977467"><ele>679.8</ele><time>2026-03-29T07:56:30.897Z</time></trkpt><trkpt lat="43.2259747796695" lon="12.2534583638616"><ele>683.5999999999999</ele><time>2026-03-29T07:56:32.897Z</time></trkpt><trkpt lat="43.22601102783518" lon="12.253368215583624"><ele>687.4</ele><time>2026-03-29T07:56:33.897Z</time></trkpt><trkpt lat="43.226042918235734" lon="12.253254574688158"><ele>691.2</ele><time>2026-03-29T07:56:34.897Z</time></trkpt><trkpt lat="43.22606360945127" lon="12.253130122209521"><ele>695.0</ele><time>2026-03-29T07:56:35.897Z</time></trkpt><trkpt lat="43.22606899771256" lon="12.252975550128612"><ele>698.4</ele><time>2026-03-29T07:56:36.897Z</time></trkpt><trkpt lat="43.226086488518064" lon="12.252835419238238"><ele>701.8</ele><time>2026-03-29T07:56:37.897Z</time></trkpt><trkpt lat="43.226091602338556" lon="12.252698851406937"><ele>705.2</ele><time>2026-03-29T07:56:38.897Z</time></trkpt><trkpt lat="43.226098865195304" lon="12.25257066675026"><ele>708.6</ele><time>2026-03-29T07:56:39.897Z</time></trkpt><trkpt lat="43.22610690188857" lon="12.25244637719779"><ele>712.0</ele><time>2026-03-29T07:56:41.897Z</time></trkpt><trkpt lat="43.22615763511696" lon="12.252274375854283"><ele>714.5</ele><time>2026-03-29T07:56:43.897Z</time></trkpt><trkpt lat="43.22624557203377" lon="12.252237098553866"><ele>717.0</ele><time>2026-03-29T07:56:45.897Z</time></trkpt><trkpt lat="43.22637115506155" lon="12.252222414862597"><ele>719.5</ele><time>2026-03-29T07:56:47.897Z</time></trkpt><trkpt lat="43.226479425340216" lon="12.252194818565204"><ele>722.0</ele><time>2026-03-29T07:56:48.897Z</time></trkpt><trkpt lat="43.22659526995272" lon="12.25213867404188"><ele>722.0</ele><time>2026-03-29T07:56:49.897Z</time></trkpt><trkpt lat="43.22670365361632" lon="12.252075493889283"><ele>722.0</ele><time>2026-03-29T07:56:50.897Z</time></trkpt><trkpt lat="43.226772052393024" lon="12.25202428945028"><ele>722.0</ele><time>2026-03-29T07:56:51.897Z</time></trkpt><trkpt lat="43.226825710917545" lon="12.251962310185716"><ele>722.0</ele><time>2026-03-29T07:56:52.897Z</time></trkpt><trkpt lat="43.226905603041615" lon="12.25190203527828"><ele>722.0</ele><time>2026-03-29T07:56:53.897Z</time></trkpt><trkpt lat="43.226965778742176" lon="12.251854135158878"><ele>722.0</ele><time>2026-03-29T07:56:54.897Z</time></trkpt><trkpt lat="43.22704842745698" lon="12.251785989653621"><ele>722.0</ele><time>2026-03-29T07:56:55.897Z</time></trkpt><trkpt lat="43.22712824535125" lon="12.251725186398652"><ele>722.0</ele><time>2026-03-29T07:56:56.897Z</time></trkpt><trkpt lat="43.22720287490454" lon="12.251681772651501"><ele>722.0</ele><time>2026-03-29T07:56:57.896Z</time></trkpt><trkpt lat="43.22728204039493" lon="12.251658852375328"><ele>722.0</ele><time>2026-03-29T07:56:58.896Z</time></trkpt><trkpt lat="43.22735206708528" lon="12.25165401892924"><ele>722.0</ele><time>2026-03-29T07:56:59.896Z</time></trkpt><trkpt lat="43.22741689878141" lon="12.251659575796305"><ele>722.0</ele><time>2026-03-29T07:57:00.896Z</time></trkpt><trkpt lat="43.22750900411154" lon="12.251671177253247"><ele>722.0</ele><time>2026-03-29T07:57:01.896Z</time></trkpt><trkpt lat="43.2275995173424" lon="12.251686822633497"><ele>722.0</ele><time>2026-03-29T07:57:02.896Z</time></trkpt><trkpt lat="43.227698661613125" lon="12.251709372870476"><ele>722.0</ele><time>2026-03-29T07:57:03.896Z</time></trkpt><trkpt lat="43.2277806140687" lon="12.251721213118364"><ele>722.0</ele><time>2026-03-29T07:57:04.896Z</time></trkpt><trkpt lat="43.227900895610844" lon="12.251722737562933"><ele>722.0</ele><time>2026-03-29T07:57:05.896Z</time></trkpt><trkpt lat="43.22802026235388" lon="12.251728193152374"><ele>722.0</ele><time>2026-03-29T07:57:06.896Z</time></trkpt><trkpt lat="43.22812591693908" lon="12.251726363289253"><ele>722.0</ele><time>2026-03-29T07:57:07.896Z</time></trkpt><trkpt lat="43.22821976156005" lon="12.251732148997641"><ele>722.0</ele><time>2026-03-29T07:57:08.896Z</time></trkpt><trkpt lat="43.22832953697973" lon="12.251737835409338"><ele>722.0</ele><time>2026-03-29T07:57:09.896Z</time></trkpt><trkpt lat="43.22842303977771" lon="12.251749563411712"><ele>722.0</ele><time>2026-03-29T07:57:10.896Z</time></trkpt><trkpt lat="43.22850042624242" lon="12.251743789343482"><ele>722.2</ele><time>2026-03-29T07:57:11.896Z</time></trkpt><trkpt lat="43.228581234702595" lon="12.25165078781074"><ele>722.4000000000001</ele><time>2026-03-29T07:57:13.896Z</time></trkpt><trkpt lat="43.22863530385104" lon="12.251591920939465"><ele>722.5999999999999</ele><time>2026-03-29T07:57:14.896Z</time></trkpt><trkpt lat="43.228677958701496" lon="12.251527779416149"><ele>722.8</ele><time>2026-03-29T07:57:15.896Z</time></trkpt><trkpt lat="43.22877601555954" lon="12.251400257238332"><ele>723.0</ele><time>2026-03-29T07:57:16.896Z</time></trkpt><trkpt lat="43.22885673363032" lon="12.251290199633585"><ele>724.8333333333334</ele><time>2026-03-29T07:57:17.896Z</time></trkpt><trkpt lat="43.22892987016423" lon="12.251198993258644"><ele>726.6666666666666</ele><time>2026-03-29T07:57:18.896Z</time></trkpt><trkpt lat="43.22900949809666" lon="12.251135423678123"><ele>728.5</ele><time>2026-03-29T07:57:19.896Z</time></trkpt><trkpt lat="43.2290750754772" lon="12.251080536412275"><ele>730.3333333333333</ele><time>2026-03-29T07:57:20.896Z</time></trkpt><trkpt lat="43.22915018755573" lon="12.251023953231552"><ele>732.1666666666666</ele><time>2026-03-29T07:57:21.896Z</time></trkpt><trkpt lat="43.22921028512289" lon="12.250987531064924"><ele>734.0</ele><time>2026-03-29T07:57:22.896Z</time></trkpt><trkpt lat="43.22928958142463" lon="12.2508926009363"><ele>734.0</ele><time>2026-03-29T07:57:24.896Z</time></trkpt><trkpt lat="43.2293473571985" lon="12.250809854617534"><ele>734.0</ele><time>2026-03-29T07:57:25.896Z</time></trkpt><trkpt lat="43.22940575533239" lon="12.25070839422229"><ele>734.0</ele><time>2026-03-29T07:57:27.896Z</time></trkpt><trkpt lat="43.22948198246511" lon="12.250675029174229"><ele>734.0</ele><time>2026-03-29T07:57:30.896Z</time></trkpt><trkpt lat="43.22956214793088" lon="12.250622975019633"><ele>734.0</ele><time>2026-03-29T07:57:31.895Z</time></trkpt><trkpt lat="43.22963105513139" lon="12.250578148646074"><ele>734.0</ele><time>2026-03-29T07:57:32.895Z</time></trkpt><trkpt lat="43.2297316022321" lon="12.250547034514945"><ele>736.1666666666666</ele><time>2026-03-29T07:57:33.895Z</time></trkpt><trkpt lat="43.229826503020305" lon="12.250527552584801"><ele>738.3333333333333</ele><time>2026-03-29T07:57:34.895Z</time></trkpt><trkpt lat="43.229918962980115" lon="12.250514581363051"><ele>740.5</ele><time>2026-03-29T07:57:35.895Z</time></trkpt><trkpt lat="43.22999037348036" lon="12.250532717571737"><ele>742.6666666666666</ele><time>2026-03-29T07:57:36.895Z</time></trkpt><trkpt lat="43.230077659986996" lon="12.25053933237558"><ele>744.8333333333334</ele><time>2026-03-29T07:57:37.895Z</time></trkpt><trkpt lat="43.2301399640999" lon="12.25052405582423"><ele>747.0</ele><time>2026-03-29T07:57:38.895Z</time></trkpt><trkpt lat="43.23025712081298" lon="12.250527906597478"><ele>747.0</ele><time>2026-03-29T07:57:40.895Z</time></trkpt><trkpt lat="43.2303338940526" lon="12.250529223257978"><ele>747.0</ele><time>2026-03-29T07:57:41.895Z</time></trkpt><trkpt lat="43.23042048931237" lon="12.250506280746752"><ele>747.0</ele><time>2026-03-29T07:57:42.895Z</time></trkpt><trkpt lat="43.23050954380318" lon="12.250485712108203"><ele>747.0</ele><time>2026-03-29T07:57:43.895Z</time></trkpt><trkpt lat="43.23059713552108" lon="12.250465196594245"><ele>747.0</ele><time>2026-03-29T07:57:44.895Z</time></trkpt><trkpt lat="43.23066701986834" lon="12.250435635281098"><ele>747.0</ele><time>2026-03-29T07:57:45.895Z</time></trkpt><trkpt lat="43.230796147045396" lon="12.250363528382257"><ele>745.2</ele><time>2026-03-29T07:57:47.895Z</time></trkpt><trkpt lat="43.23085511517052" lon="12.250315777204822"><ele>743.4000000000001</ele><time>2026-03-29T07:57:48.895Z</time></trkpt><trkpt lat="43.23099871106303" lon="12.250223186064733"><ele>741.5999999999999</ele><time>2026-03-29T07:57:50.895Z</time></trkpt><trkpt lat="43.231085371551636" lon="12.25019483020986"><ele>739.8</ele><time>2026-03-29T07:57:51.895Z</time></trkpt><trkpt lat="43.23117551777174" lon="12.250174243790728"><ele>738.0</ele><time>2026-03-29T07:57:52.895Z</time></trkpt><trkpt lat="43.23127717042561" lon="12.250159418101566"><ele>738.0</ele><time>2026-03-29T07:57:53.895Z</time></trkpt><trkpt lat="43.23137153389528" lon="12.250152518221785"><ele>738.0</ele><time>2026-03-29T07:57:54.895Z</time></trkpt><trkpt lat="43.23144896074391" lon="12.250165270261"><ele>738.0</ele><time>2026-03-29T07:57:55.895Z</time></trkpt><trkpt lat="43.23151881757796" lon="12.250183850037812"><ele>738.0</ele><time>2026-03-29T07:57:56.895Z</time></trkpt><trkpt lat="43.23159131535251" lon="12.250200769156383"><ele>738.0</ele><time>2026-03-29T07:57:57.895Z</time></trkpt><trkpt lat="43.23165490797912" lon="12.250212897738518"><ele>738.0</ele><time>2026-03-29T07:57:58.895Z</time></trkpt><trkpt lat="43.23172890366032" lon="12.25020542283089"><ele>735.8</ele><time>2026-03-29T07:57:59.898Z</time></trkpt><trkpt lat="43.23184351174801" lon="12.250154422797314"><ele>733.5999999999999</ele><time>2026-03-29T07:58:01.898Z</time></trkpt><trkpt lat="43.23190696681475" lon="12.25010448591215"><ele>731.4000000000001</ele><time>2026-03-29T07:58:02.897Z</time></trkpt><trkpt lat="43.23199255596245" lon="12.250043103641048"><ele>729.2</ele><time>2026-03-29T07:58:03.897Z</time></trkpt><trkpt lat="43.23207830746354" lon="12.249981947249932"><ele>727.0</ele><time>2026-03-29T07:58:04.897Z</time></trkpt><trkpt lat="43.23214732195007" lon="12.24994115853368"><ele>727.0</ele><time>2026-03-29T07:58:05.897Z</time></trkpt><trkpt lat="43.23220407900307" lon="12.24989678702282"><ele>727.0</ele><time>2026-03-29T07:58:06.898Z</time></trkpt><trkpt lat="43.23225380112688" lon="12.249838736340418"><ele>727.0</ele><time>2026-03-29T07:58:07.898Z</time></trkpt><trkpt lat="43.232305840632776" lon="12.249768507313307"><ele>727.0</ele><time>2026-03-29T07:58:08.898Z</time></trkpt><trkpt lat="43.23237330390466" lon="12.249662788785782"><ele>727.0</ele><time>2026-03-29T07:58:09.897Z</time></trkpt><trkpt lat="43.232430495770245" lon="12.249568545489208"><ele>727.0</ele><time>2026-03-29T07:58:10.897Z</time></trkpt><trkpt lat="43.232481407929704" lon="12.249484379871584"><ele>728.0</ele><time>2026-03-29T07:58:11.898Z</time></trkpt><trkpt lat="43.2326124688102" lon="12.249412439541267"><ele>729.0</ele><time>2026-03-29T07:58:13.897Z</time></trkpt><trkpt lat="43.232704642636016" lon="12.24938074760076"><ele>730.0</ele><time>2026-03-29T07:58:14.897Z</time></trkpt><trkpt lat="43.232796839000336" lon="12.249331694841809"><ele>731.0</ele><time>2026-03-29T07:58:15.897Z</time></trkpt><trkpt lat="43.23289540756776" lon="12.24927372088668"><ele>732.0</ele><time>2026-03-29T07:58:16.897Z</time></trkpt><trkpt lat="43.2330001017395" lon="12.249225908800499"><ele>732.0</ele><time>2026-03-29T07:58:17.897Z</time></trkpt><trkpt lat="43.233103417009175" lon="12.24916895374293"><ele>732.0</ele><time>2026-03-29T07:58:18.897Z</time></trkpt><trkpt lat="43.23319250476264" lon="12.249118511552654"><ele>732.0</ele><time>2026-03-29T07:58:19.897Z</time></trkpt><trkpt lat="43.233308137162176" lon="12.249059116683217"><ele>732.0</ele><time>2026-03-29T07:58:20.897Z</time></trkpt><trkpt lat="43.23339347603783" lon="12.249028523713005"><ele>732.0</ele><time>2026-03-29T07:58:21.897Z</time></trkpt><trkpt lat="43.23347972039715" lon="12.249018168848274"><ele>729.6</ele><time>2026-03-29T07:58:22.897Z</time></trkpt><trkpt lat="43.2335789760323" lon="12.24903474392495"><ele>727.2</ele><time>2026-03-29T07:58:23.897Z</time></trkpt><trkpt lat="43.23368124890937" lon="12.249046232405465"><ele>724.8</ele><time>2026-03-29T07:58:24.897Z</time></trkpt><trkpt lat="43.23376630579994" lon="12.249079647171486"><ele>722.4</ele><time>2026-03-29T07:58:25.897Z</time></trkpt><trkpt lat="43.23387794418567" lon="12.249103449052122"><ele>720.0</ele><time>2026-03-29T07:58:26.897Z</time></trkpt><trkpt lat="43.2339866099445" lon="12.249129440042122"><ele>719.0</ele><time>2026-03-29T07:58:27.897Z</time></trkpt><trkpt lat="43.234106565331594" lon="12.24916530417221"><ele>718.0</ele><time>2026-03-29T07:58:28.897Z</time></trkpt><trkpt lat="43.2342250745095" lon="12.249194932873621"><ele>717.0</ele><time>2026-03-29T07:58:29.897Z</time></trkpt><trkpt lat="43.23433726795701" lon="12.249227985598997"><ele>716.0</ele><time>2026-03-29T07:58:30.897Z</time></trkpt><trkpt lat="43.234430928018774" lon="12.249250222301985"><ele>716.0</ele><time>2026-03-29T07:58:31.896Z</time></trkpt><trkpt lat="43.23449786423527" lon="12.249264105210546"><ele>716.0</ele><time>2026-03-29T07:58:32.896Z</time></trkpt><trkpt lat="43.234587931519904" lon="12.249226701155582"><ele>716.0</ele><time>2026-03-29T07:58:34.896Z</time></trkpt><trkpt lat="43.23468888582815" lon="12.249114049518287"><ele>716.0</ele><time>2026-03-29T07:58:36.896Z</time></trkpt><trkpt lat="43.234733445315776" lon="12.24901896404353"><ele>716.0</ele><time>2026-03-29T07:58:37.896Z</time></trkpt><trkpt lat="43.23476756560993" lon="12.248894764365891"><ele>717.5999999999999</ele><time>2026-03-29T07:58:38.896Z</time></trkpt><trkpt lat="43.2347947253832" lon="12.248773871814453"><ele>719.2</ele><time>2026-03-29T07:58:39.896Z</time></trkpt><trkpt lat="43.23481955172894" lon="12.248677189327488"><ele>720.8</ele><time>2026-03-29T07:58:40.896Z</time></trkpt><trkpt lat="43.23488273726674" lon="12.248527906291198"><ele>722.4000000000001</ele><time>2026-03-29T07:58:42.896Z</time></trkpt><trkpt lat="43.23493619694663" lon="12.248463544553413"><ele>724.0</ele><time>2026-03-29T07:58:43.896Z</time></trkpt><trkpt lat="43.235049418901774" lon="12.248373680877796"><ele>724.0</ele><time>2026-03-29T07:58:45.896Z</time></trkpt><trkpt lat="43.23510597816759" lon="12.248316358810957"><ele>724.0</ele><time>2026-03-29T07:58:46.896Z</time></trkpt><trkpt lat="43.23515046456106" lon="12.248254991632189"><ele>724.0</ele><time>2026-03-29T07:58:47.896Z</time></trkpt><trkpt lat="43.23517350637835" lon="12.248155099154822"><ele>724.0</ele><time>2026-03-29T07:58:48.896Z</time></trkpt><trkpt lat="43.23519509693181" lon="12.248069056617728"><ele>724.0</ele><time>2026-03-29T07:58:49.896Z</time></trkpt><trkpt lat="43.23525143241511" lon="12.247995638405527"><ele>724.0</ele><time>2026-03-29T07:58:51.896Z</time></trkpt><trkpt lat="43.235341775933044" lon="12.24794227172311"><ele>723.2</ele><time>2026-03-29T07:58:53.896Z</time></trkpt><trkpt lat="43.235416451250835" lon="12.247877822350159"><ele>722.4000000000001</ele><time>2026-03-29T07:58:54.896Z</time></trkpt><trkpt lat="43.235503385563106" lon="12.247795655513436"><ele>721.6</ele><time>2026-03-29T07:58:55.896Z</time></trkpt><trkpt lat="43.23557217391695" lon="12.247740029225612"><ele>720.8</ele><time>2026-03-29T07:58:56.896Z</time></trkpt><trkpt lat="43.23563035227234" lon="12.247659882110355"><ele>720.0</ele><time>2026-03-29T07:58:57.896Z</time></trkpt><trkpt lat="43.23571244900707" lon="12.247502406315267"><ele>720.0</ele><time>2026-03-29T07:58:59.896Z</time></trkpt><trkpt lat="43.23579787860843" lon="12.247356465494866"><ele>720.0</ele><time>2026-03-29T07:59:00.896Z</time></trkpt><trkpt lat="43.23586999682991" lon="12.24725217549345"><ele>720.0</ele><time>2026-03-29T07:59:01.896Z</time></trkpt><trkpt lat="43.235947486833346" lon="12.247207776419675"><ele>720.0</ele><time>2026-03-29T07:59:02.896Z</time></trkpt><trkpt lat="43.23601426040086" lon="12.247163244754532"><ele>720.0</ele><time>2026-03-29T07:59:03.896Z</time></trkpt><trkpt lat="43.236094266818704" lon="12.247118443739053"><ele>721.6666666666666</ele><time>2026-03-29T07:59:04.896Z</time></trkpt><trkpt lat="43.23614323658735" lon="12.247062721171204"><ele>723.3333333333334</ele><time>2026-03-29T07:59:05.896Z</time></trkpt><trkpt lat="43.23617877835398" lon="12.246991223279288"><ele>725.0</ele><time>2026-03-29T07:59:06.895Z</time></trkpt><trkpt lat="43.236222417195386" lon="12.246899468236506"><ele>726.6666666666667</ele><time>2026-03-29T07:59:07.895Z</time></trkpt><trkpt lat="43.23627079922774" lon="12.246779451556048"><ele>728.3333333333334</ele><time>2026-03-29T07:59:08.895Z</time></trkpt><trkpt lat="43.2363073715722" lon="12.246650851397245"><ele>730.0</ele><time>2026-03-29T07:59:09.895Z</time></trkpt><trkpt lat="43.236358306617795" lon="12.246508044191252"><ele>728.75</ele><time>2026-03-29T07:59:10.895Z</time></trkpt><trkpt lat="43.236403531226756" lon="12.246362011522857"><ele>727.5</ele><time>2026-03-29T07:59:11.895Z</time></trkpt><trkpt lat="43.23644504564844" lon="12.246215143566966"><ele>726.25</ele><time>2026-03-29T07:59:12.895Z</time></trkpt><trkpt lat="43.236474873124784" lon="12.246067209936262"><ele>725.0</ele><time>2026-03-29T07:59:13.895Z</time></trkpt><trkpt lat="43.236501459962795" lon="12.245922765111725"><ele>725.2</ele><time>2026-03-29T07:59:14.895Z</time></trkpt><trkpt lat="43.236524279674065" lon="12.245826770768275"><ele>725.4</ele><time>2026-03-29T07:59:15.895Z</time></trkpt><trkpt lat="43.23653782296534" lon="12.245706784513626"><ele>725.5999999999999</ele><time>2026-03-29T07:59:16.895Z</time></trkpt><trkpt lat="43.23658603447931" lon="12.24557328960481"><ele>725.8</ele><time>2026-03-29T07:59:18.895Z</time></trkpt><trkpt lat="43.2366734368687" lon="12.245481830558347"><ele>726.0</ele><time>2026-03-29T07:59:20.895Z</time></trkpt><trkpt lat="43.236737889691504" lon="12.245417949458187"><ele>726.0</ele><time>2026-03-29T07:59:21.895Z</time></trkpt><trkpt lat="43.23681900068749" lon="12.245338408437883"><ele>726.0</ele><time>2026-03-29T07:59:22.895Z</time></trkpt><trkpt lat="43.23690572659571" lon="12.2452516182706"><ele>726.0</ele><time>2026-03-29T07:59:23.895Z</time></trkpt><trkpt lat="43.23699510100958" lon="12.245174513886639"><ele>726.0</ele><time>2026-03-29T07:59:24.895Z</time></trkpt><trkpt lat="43.23706022749799" lon="12.245110226806485"><ele>726.0</ele><time>2026-03-29T07:59:25.895Z</time></trkpt><trkpt lat="43.23711727649578" lon="12.24504568486031"><ele>726.0</ele><time>2026-03-29T07:59:26.895Z</time></trkpt><trkpt lat="43.23716736342841" lon="12.244989793444358"><ele>726.0</ele><time>2026-03-29T07:59:27.895Z</time></trkpt><trkpt lat="43.237264960648815" lon="12.244892669701082"><ele>726.0</ele><time>2026-03-29T07:59:29.895Z</time></trkpt><trkpt lat="43.23733606619683" lon="12.244847593991272"><ele>726.0</ele><time>2026-03-29T07:59:30.895Z</time></trkpt><trkpt lat="43.23741001638805" lon="12.244786862628152"><ele>726.0</ele><time>2026-03-29T07:59:31.895Z</time></trkpt><trkpt lat="43.237479353294574" lon="12.244731045474637"><ele>726.0</ele><time>2026-03-29T07:59:32.895Z</time></trkpt><trkpt lat="43.23754996853133" lon="12.244678746140796"><ele>723.8</ele><time>2026-03-29T07:59:33.895Z</time></trkpt><trkpt lat="43.23762043876008" lon="12.244616655520394"><ele>721.5999999999999</ele><time>2026-03-29T07:59:34.895Z</time></trkpt><trkpt lat="43.23769665068579" lon="12.24455417185744"><ele>719.4</ele><time>2026-03-29T07:59:35.895Z</time></trkpt><trkpt lat="43.237780087513144" lon="12.244495745498055"><ele>717.2</ele><time>2026-03-29T07:59:36.895Z</time></trkpt><trkpt lat="43.23786702473104" lon="12.244428913054561"><ele>715.0</ele><time>2026-03-29T07:59:37.895Z</time></trkpt><trkpt lat="43.23795149936846" lon="12.244362691590553"><ele>715.0</ele><time>2026-03-29T07:59:38.895Z</time></trkpt><trkpt lat="43.23804003165029" lon="12.244292816242693"><ele>715.0</ele><time>2026-03-29T07:59:39.895Z</time></trkpt><trkpt lat="43.23812389483502" lon="12.244229410956207"><ele>715.0</ele><time>2026-03-29T07:59:40.894Z</time></trkpt><trkpt lat="43.2382065234142" lon="12.244173393340482"><ele>715.0</ele><time>2026-03-29T07:59:41.894Z</time></trkpt><trkpt lat="43.23829076470996" lon="12.244140121297173"><ele>715.0</ele><time>2026-03-29T07:59:42.894Z</time></trkpt><trkpt lat="43.2383710575772" lon="12.244119966962323"><ele>715.1666666666667</ele><time>2026-03-29T07:59:43.894Z</time></trkpt><trkpt lat="43.238452135710396" lon="12.24409746873477"><ele>715.3333333333334</ele><time>2026-03-29T07:59:44.894Z</time></trkpt><trkpt lat="43.238528000404806" lon="12.244076847414767"><ele>715.5</ele><time>2026-03-29T07:59:45.894Z</time></trkpt><trkpt lat="43.23860335342119" lon="12.244053942600257"><ele>715.6666666666666</ele><time>2026-03-29T07:59:46.894Z</time></trkpt><trkpt lat="43.238677567035786" lon="12.244025698824645"><ele>715.8333333333333</ele><time>2026-03-29T07:59:47.894Z</time></trkpt><trkpt lat="43.23875179635014" lon="12.243983676726526"><ele>716.0</ele><time>2026-03-29T07:59:48.894Z</time></trkpt><trkpt lat="43.23882335867219" lon="12.243935102072488"><ele>716.1666666666666</ele><time>2026-03-29T07:59:49.894Z</time></trkpt><trkpt lat="43.23889518051338" lon="12.2438712706559"><ele>716.3333333333333</ele><time>2026-03-29T07:59:50.894Z</time></trkpt><trkpt lat="43.23896144327832" lon="12.24379816095079"><ele>716.5</ele><time>2026-03-29T07:59:51.894Z</time></trkpt><trkpt lat="43.23902524897504" lon="12.243717372222912"><ele>716.6666666666666</ele><time>2026-03-29T07:59:52.894Z</time></trkpt><trkpt lat="43.23909228909507" lon="12.243640704077597"><ele>716.8333333333334</ele><time>2026-03-29T07:59:53.894Z</time></trkpt><trkpt lat="43.239163843332136" lon="12.243564280594939"><ele>717.0</ele><time>2026-03-29T07:59:54.894Z</time></trkpt><trkpt lat="43.239236206068576" lon="12.243487041427999"><ele>715.2</ele><time>2026-03-29T07:59:55.894Z</time></trkpt><trkpt lat="43.23930826600429" lon="12.24340283054366"><ele>713.4000000000001</ele><time>2026-03-29T07:59:56.894Z</time></trkpt><trkpt lat="43.23937778581887" lon="12.243317801451866"><ele>711.5999999999999</ele><time>2026-03-29T07:59:57.894Z</time></trkpt><trkpt lat="43.23944734211069" lon="12.243241821713411"><ele>709.8</ele><time>2026-03-29T07:59:58.894Z</time></trkpt><trkpt lat="43.23952396367953" lon="12.24316829586682"><ele>708.0</ele><time>2026-03-29T07:59:59.894Z</time></trkpt><trkpt lat="43.239601903190554" lon="12.243098718656857"><ele>706.5999999999999</ele><time>2026-03-29T08:00:00.894Z</time></trkpt><trkpt lat="43.23967977615926" lon="12.243023695881092"><ele>705.1999999999999</ele><time>2026-03-29T08:00:01.894Z</time></trkpt><trkpt lat="43.2397494532396" lon="12.24294952789917"><ele>703.8</ele><time>2026-03-29T08:00:02.894Z</time></trkpt><trkpt lat="43.239826903083646" lon="12.242878788317377"><ele>702.4</ele><time>2026-03-29T08:00:03.894Z</time></trkpt><trkpt lat="43.239904852304896" lon="12.242801956541982"><ele>701.0</ele><time>2026-03-29T08:00:04.894Z</time></trkpt><trkpt lat="43.23997929806554" lon="12.242731216171697"><ele>700.3333333333333</ele><time>2026-03-29T08:00:05.896Z</time></trkpt><trkpt lat="43.24004898889337" lon="12.242667321603447"><ele>699.6666666666666</ele><time>2026-03-29T08:00:06.896Z</time></trkpt><trkpt lat="43.24012505701902" lon="12.242600034845921"><ele>699.0</ele><time>2026-03-29T08:00:07.896Z</time></trkpt><trkpt lat="43.2401885165195" lon="12.24253657300806"><ele>698.3333333333334</ele><time>2026-03-29T08:00:08.896Z</time></trkpt><trkpt lat="43.24025421255823" lon="12.242475095922801"><ele>697.6666666666667</ele><time>2026-03-29T08:00:09.895Z</time></trkpt><trkpt lat="43.24031063267076" lon="12.242427301606172"><ele>697.0</ele><time>2026-03-29T08:00:10.895Z</time></trkpt><trkpt lat="43.24040175689689" lon="12.24238552621679"><ele>697.0</ele><time>2026-03-29T08:00:12.896Z</time></trkpt><trkpt lat="43.24047387071291" lon="12.242380748749254"><ele>697.0</ele><time>2026-03-29T08:00:16.896Z</time></trkpt><trkpt lat="43.24053247914327" lon="12.242423426774142"><ele>697.0</ele><time>2026-03-29T08:02:17.895Z</time></trkpt><trkpt lat="43.240521389418106" lon="12.24231699539061"><ele>697.0</ele><time>2026-03-29T08:06:24.893Z</time></trkpt><trkpt lat="43.240451666271795" lon="12.242275934138057"><ele>697.0</ele><time>2026-03-29T08:06:26.893Z</time></trkpt><trkpt lat="43.24038277754342" lon="12.242252220307424"><ele>697.0</ele><time>2026-03-29T08:06:29.892Z</time></trkpt><trkpt lat="43.24044347257988" lon="12.24228937066705"><ele>697.0</ele><time>2026-03-29T08:06:51.891Z</time></trkpt><trkpt lat="43.240516120956386" lon="12.242273153241527"><ele>696.3333333333334</ele><time>2026-03-29T08:06:54.891Z</time></trkpt><trkpt lat="43.24058072989704" lon="12.242238352536113"><ele>695.6666666666667</ele><time>2026-03-29T08:06:57.891Z</time></trkpt><trkpt lat="43.240655955595344" lon="12.242212043941352"><ele>695.0</ele><time>2026-03-29T08:07:00.891Z</time></trkpt><trkpt lat="43.24071532851792" lon="12.242128095593355"><ele>694.3333333333334</ele><time>2026-03-29T08:07:02.891Z</time></trkpt><trkpt lat="43.24073451157855" lon="12.24203251008319"><ele>693.6666666666666</ele><time>2026-03-29T08:07:04.891Z</time></trkpt><trkpt lat="43.240778277465026" lon="12.24195513103762"><ele>693.0</ele><time>2026-03-29T08:07:06.891Z</time></trkpt><trkpt lat="43.2408335384868" lon="12.241888223062093"><ele>694.3333333333334</ele><time>2026-03-29T08:07:08.891Z</time></trkpt><trkpt lat="43.24089025985328" lon="12.241826217161242"><ele>695.6666666666666</ele><time>2026-03-29T08:07:10.891Z</time></trkpt><trkpt lat="43.24094777782716" lon="12.241777086306495"><ele>697.0</ele><time>2026-03-29T08:07:12.891Z</time></trkpt><trkpt lat="43.24102252783734" lon="12.241727736591855"><ele>698.3333333333333</ele><time>2026-03-29T08:07:14.891Z</time></trkpt><trkpt lat="43.24110488333744" lon="12.241676919495694"><ele>699.6666666666666</ele><time>2026-03-29T08:07:16.891Z</time></trkpt><trkpt lat="43.24119007749921" lon="12.241633535155822"><ele>701.0</ele><time>2026-03-29T08:07:18.891Z</time></trkpt><trkpt lat="43.241288592640906" lon="12.241581418067753"><ele>701.0</ele><time>2026-03-29T08:07:20.891Z</time></trkpt><trkpt lat="43.24136820768069" lon="12.241538193533813"><ele>701.0</ele><time>2026-03-29T08:07:22.891Z</time></trkpt><trkpt lat="43.241465325608225" lon="12.241491043477433"><ele>701.0</ele><time>2026-03-29T08:07:24.891Z</time></trkpt><trkpt lat="43.241556053684725" lon="12.24141648650333"><ele>701.0</ele><time>2026-03-29T08:07:26.89Z</time></trkpt><trkpt lat="43.241634820277696" lon="12.24136581099412"><ele>701.0</ele><time>2026-03-29T08:07:28.89Z</time></trkpt><trkpt lat="43.24171492016173" lon="12.241307800084575"><ele>702.1666666666666</ele><time>2026-03-29T08:07:30.89Z</time></trkpt><trkpt lat="43.24180022866098" lon="12.241253816119194"><ele>703.3333333333333</ele><time>2026-03-29T08:07:32.89Z</time></trkpt><trkpt lat="43.24187835010316" lon="12.241212945728204"><ele>704.5</ele><time>2026-03-29T08:07:34.89Z</time></trkpt><trkpt lat="43.24197365274627" lon="12.241201519428634"><ele>705.6666666666666</ele><time>2026-03-29T08:07:37.89Z</time></trkpt><trkpt lat="43.24205827523297" lon="12.241178551922912"><ele>706.8333333333334</ele><time>2026-03-29T08:07:39.89Z</time></trkpt><trkpt lat="43.24213360041054" lon="12.241164302124842"><ele>708.0</ele><time>2026-03-29T08:07:42.89Z</time></trkpt><trkpt lat="43.2422079254555" lon="12.24120117870904"><ele>708.0</ele><time>2026-03-29T08:07:45.89Z</time></trkpt><trkpt lat="43.24229717991828" lon="12.241258436891945"><ele>708.0</ele><time>2026-03-29T08:07:48.89Z</time></trkpt><trkpt lat="43.24236610364071" lon="12.24123425586466"><ele>708.0</ele><time>2026-03-29T08:07:51.89Z</time></trkpt><trkpt lat="43.242452556565574" lon="12.241244888267305"><ele>708.0</ele><time>2026-03-29T08:07:55.89Z</time></trkpt><trkpt lat="43.24253659431678" lon="12.241234535096263"><ele>708.0</ele><time>2026-03-29T08:07:58.89Z</time></trkpt><trkpt lat="43.24262280659966" lon="12.24124677490942"><ele>708.0</ele><time>2026-03-29T08:08:00.889Z</time></trkpt><trkpt lat="43.24271268726311" lon="12.241285607005908"><ele>708.4</ele><time>2026-03-29T08:08:03.889Z</time></trkpt><trkpt lat="43.242783784778034" lon="12.24132097731581"><ele>708.8</ele><time>2026-03-29T08:08:05.889Z</time></trkpt><trkpt lat="43.24284792814676" lon="12.241349225144885"><ele>709.2</ele><time>2026-03-29T08:08:07.889Z</time></trkpt><trkpt lat="43.24296259367645" lon="12.241390834308913"><ele>709.6</ele><time>2026-03-29T08:08:09.889Z</time></trkpt><trkpt lat="43.243051272008714" lon="12.241425333138697"><ele>710.0</ele><time>2026-03-29T08:08:11.889Z</time></trkpt><trkpt lat="43.24321839081112" lon="12.241525568535288"><ele>713.3333333333333</ele><time>2026-03-29T08:08:13.889Z</time></trkpt><trkpt lat="43.24335370413337" lon="12.241622635883735"><ele>716.6666666666666</ele><time>2026-03-29T08:08:14.889Z</time></trkpt><trkpt lat="43.24348120986" lon="12.24176735055857"><ele>720.0</ele><time>2026-03-29T08:08:15.889Z</time></trkpt><trkpt lat="43.24359441225053" lon="12.241898226912571"><ele>720.0</ele><time>2026-03-29T08:08:16.889Z</time></trkpt><trkpt lat="43.243724656460074" lon="12.241985031507093"><ele>720.0</ele><time>2026-03-29T08:08:17.889Z</time></trkpt><trkpt lat="43.24389451309254" lon="12.242064144378075"><ele>720.0</ele><time>2026-03-29T08:08:18.889Z</time></trkpt><trkpt lat="43.24404973442045" lon="12.24213083717707"><ele>720.0</ele><time>2026-03-29T08:08:19.889Z</time></trkpt><trkpt lat="43.24422922101994" lon="12.242199176595731"><ele>720.0</ele><time>2026-03-29T08:08:20.889Z</time></trkpt><trkpt lat="43.2444050813864" lon="12.242269246573427"><ele>720.0</ele><time>2026-03-29T08:08:21.889Z</time></trkpt><trkpt lat="43.24457130702241" lon="12.242321680324322"><ele>720.0</ele><time>2026-03-29T08:08:22.889Z</time></trkpt><trkpt lat="43.24472127813623" lon="12.242373030183236"><ele>720.0</ele><time>2026-03-29T08:08:23.889Z</time></trkpt><trkpt lat="43.24487029909017" lon="12.242459078983797"><ele>720.0</ele><time>2026-03-29T08:08:24.889Z</time></trkpt><trkpt lat="43.2450409218672" lon="12.24260373412663"><ele>719.3333333333334</ele><time>2026-03-29T08:08:25.889Z</time></trkpt><trkpt lat="43.24518233578981" lon="12.242733036503953"><ele>718.6666666666667</ele><time>2026-03-29T08:08:26.889Z</time></trkpt><trkpt lat="43.24530746193022" lon="12.242884644128026"><ele>718.0</ele><time>2026-03-29T08:08:27.889Z</time></trkpt><trkpt lat="43.24543865730092" lon="12.243009037784159"><ele>718.0</ele><time>2026-03-29T08:08:28.889Z</time></trkpt><trkpt lat="43.24556469223561" lon="12.243103348453069"><ele>718.0</ele><time>2026-03-29T08:08:29.891Z</time></trkpt><trkpt lat="43.24569137517263" lon="12.243152504955672"><ele>718.0</ele><time>2026-03-29T08:08:30.89Z</time></trkpt><trkpt lat="43.24585066371353" lon="12.24318141916753"><ele>718.0</ele><time>2026-03-29T08:08:31.89Z</time></trkpt><trkpt lat="43.24599751950324" lon="12.243213207382968"><ele>719.25</ele><time>2026-03-29T08:08:32.891Z</time></trkpt><trkpt lat="43.246157938123325" lon="12.243266449778462"><ele>720.5</ele><time>2026-03-29T08:08:33.891Z</time></trkpt><trkpt lat="43.24630315063973" lon="12.243311516723507"><ele>721.75</ele><time>2026-03-29T08:08:34.891Z</time></trkpt><trkpt lat="43.24643054948364" lon="12.243353109396699"><ele>723.0</ele><time>2026-03-29T08:08:35.89Z</time></trkpt><trkpt lat="43.24656767957187" lon="12.243398270385102"><ele>724.25</ele><time>2026-03-29T08:08:36.891Z</time></trkpt><trkpt lat="43.24671476388308" lon="12.243443347137621"><ele>725.5</ele><time>2026-03-29T08:08:37.891Z</time></trkpt><trkpt lat="43.24685260619476" lon="12.243480881398046"><ele>726.75</ele><time>2026-03-29T08:08:38.891Z</time></trkpt><trkpt lat="43.24698590918835" lon="12.243504414473644"><ele>728.0</ele><time>2026-03-29T08:08:39.891Z</time></trkpt><trkpt lat="43.2471225053856" lon="12.243550354889443"><ele>728.0</ele><time>2026-03-29T08:08:40.891Z</time></trkpt><trkpt lat="43.24725294433851" lon="12.243608770245508"><ele>728.0</ele><time>2026-03-29T08:08:41.89Z</time></trkpt><trkpt lat="43.24734858308455" lon="12.243702330950661"><ele>728.0</ele><time>2026-03-29T08:08:42.89Z</time></trkpt><trkpt lat="43.24745742668473" lon="12.243821106263622"><ele>728.0</ele><time>2026-03-29T08:08:43.89Z</time></trkpt><trkpt lat="43.24755873685581" lon="12.243933717852437"><ele>728.2</ele><time>2026-03-29T08:08:44.89Z</time></trkpt><trkpt lat="43.24763923178179" lon="12.243998420554115"><ele>728.4</ele><time>2026-03-29T08:08:45.89Z</time></trkpt><trkpt lat="43.24771199834991" lon="12.244041923788917"><ele>728.6</ele><time>2026-03-29T08:08:46.89Z</time></trkpt><trkpt lat="43.24779403295901" lon="12.244028863668513"><ele>728.8000000000001</ele><time>2026-03-29T08:08:48.89Z</time></trkpt><trkpt lat="43.247879237949235" lon="12.243905802411632"><ele>729.0</ele><time>2026-03-29T08:08:50.89Z</time></trkpt><trkpt lat="43.24790535190164" lon="12.243759979364807"><ele>729.8000000000001</ele><time>2026-03-29T08:08:51.89Z</time></trkpt><trkpt lat="43.24793470762108" lon="12.243599156751182"><ele>730.6</ele><time>2026-03-29T08:08:52.89Z</time></trkpt><trkpt lat="43.24798461057115" lon="12.243466283121554"><ele>731.4</ele><time>2026-03-29T08:08:53.89Z</time></trkpt><trkpt lat="43.24804420189417" lon="12.243371242190996"><ele>732.2</ele><time>2026-03-29T08:08:54.89Z</time></trkpt><trkpt lat="43.248121700612224" lon="12.243273602219368"><ele>733.0</ele><time>2026-03-29T08:08:55.89Z</time></trkpt><trkpt lat="43.24821437491495" lon="12.243171302885107"><ele>734.1666666666667</ele><time>2026-03-29T08:08:56.89Z</time></trkpt><trkpt lat="43.24829903442305" lon="12.243096592573174"><ele>735.3333333333334</ele><time>2026-03-29T08:08:57.89Z</time></trkpt><trkpt lat="43.248367060475104" lon="12.243052670453052"><ele>736.5</ele><time>2026-03-29T08:08:58.89Z</time></trkpt><trkpt lat="43.24844145084899" lon="12.243052459829995"><ele>737.6666666666666</ele><time>2026-03-29T08:08:59.89Z</time></trkpt><trkpt lat="43.24852466429171" lon="12.243086043345883"><ele>738.8333333333333</ele><time>2026-03-29T08:09:00.89Z</time></trkpt><trkpt lat="43.24860508777634" lon="12.243141441420171"><ele>740.0</ele><time>2026-03-29T08:09:01.89Z</time></trkpt><trkpt lat="43.248704814413074" lon="12.243219770565727"><ele>742.0</ele><time>2026-03-29T08:09:02.89Z</time></trkpt><trkpt lat="43.248803679425045" lon="12.243316078016866"><ele>744.0</ele><time>2026-03-29T08:09:03.89Z</time></trkpt><trkpt lat="43.24888076472986" lon="12.243363524622284"><ele>746.0</ele><time>2026-03-29T08:09:05.89Z</time></trkpt><trkpt lat="43.249036204605254" lon="12.243353936018178"><ele>748.0</ele><time>2026-03-29T08:09:07.889Z</time></trkpt><trkpt lat="43.249132615280146" lon="12.243346195477073"><ele>751.6666666666667</ele><time>2026-03-29T08:09:08.889Z</time></trkpt><trkpt lat="43.24926095813774" lon="12.243353894341514"><ele>755.3333333333334</ele><time>2026-03-29T08:09:09.889Z</time></trkpt><trkpt lat="43.24945206459706" lon="12.243355741583743"><ele>759.0</ele><time>2026-03-29T08:09:10.889Z</time></trkpt><trkpt lat="43.249648842438134" lon="12.24337703868606"><ele>759.6666666666666</ele><time>2026-03-29T08:09:11.889Z</time></trkpt><trkpt lat="43.24985421543209" lon="12.243396545588455"><ele>760.3333333333333</ele><time>2026-03-29T08:09:12.889Z</time></trkpt><trkpt lat="43.25000530814743" lon="12.243398481008796"><ele>761.0</ele><time>2026-03-29T08:09:13.889Z</time></trkpt><trkpt lat="43.250142612957845" lon="12.243441542553494"><ele>761.0</ele><time>2026-03-29T08:09:14.889Z</time></trkpt><trkpt lat="43.250277886767726" lon="12.24346132531031"><ele>761.0</ele><time>2026-03-29T08:09:15.889Z</time></trkpt><trkpt lat="43.25040234643936" lon="12.24346117121147"><ele>761.0</ele><time>2026-03-29T08:09:16.889Z</time></trkpt><trkpt lat="43.25048690633265" lon="12.243443287146478"><ele>761.0</ele><time>2026-03-29T08:09:17.889Z</time></trkpt><trkpt lat="43.25060424112564" lon="12.243420303386937"><ele>761.75</ele><time>2026-03-29T08:09:18.889Z</time></trkpt><trkpt lat="43.25072148752311" lon="12.24341881088053"><ele>762.5</ele><time>2026-03-29T08:09:19.889Z</time></trkpt><trkpt lat="43.25086387501631" lon="12.243429384256777"><ele>763.25</ele><time>2026-03-29T08:09:20.889Z</time></trkpt><trkpt lat="43.2509976667431" lon="12.24345096570837"><ele>764.0</ele><time>2026-03-29T08:09:21.889Z</time></trkpt><trkpt lat="43.2511301874334" lon="12.243448090935768"><ele>764.0</ele><time>2026-03-29T08:09:22.889Z</time></trkpt><trkpt lat="43.25127517002508" lon="12.243446156875569"><ele>764.0</ele><time>2026-03-29T08:09:23.889Z</time></trkpt><trkpt lat="43.25141838894003" lon="12.24341577639533"><ele>764.0</ele><time>2026-03-29T08:09:24.889Z</time></trkpt><trkpt lat="43.25154628730922" lon="12.24343316968669"><ele>764.0</ele><time>2026-03-29T08:09:25.889Z</time></trkpt><trkpt lat="43.25167899798876" lon="12.243439067037166"><ele>764.5</ele><time>2026-03-29T08:09:26.889Z</time></trkpt><trkpt lat="43.251811377792116" lon="12.243459549007559"><ele>765.0</ele><time>2026-03-29T08:09:27.889Z</time></trkpt><trkpt lat="43.251931183688" lon="12.243492670787623"><ele>765.5</ele><time>2026-03-29T08:09:28.889Z</time></trkpt><trkpt lat="43.25204419534151" lon="12.2435332230739"><ele>766.0</ele><time>2026-03-29T08:09:29.889Z</time></trkpt><trkpt lat="43.252163518414754" lon="12.24357431316196"><ele>766.0</ele><time>2026-03-29T08:09:30.889Z</time></trkpt><trkpt lat="43.25228191313193" lon="12.243581313786166"><ele>766.0</ele><time>2026-03-29T08:09:31.889Z</time></trkpt><trkpt lat="43.25238509504058" lon="12.243592097028943"><ele>766.0</ele><time>2026-03-29T08:09:32.888Z</time></trkpt><trkpt lat="43.25248481026606" lon="12.243604849954075"><ele>766.0</ele><time>2026-03-29T08:09:33.888Z</time></trkpt><trkpt lat="43.25261150147444" lon="12.243613381578125"><ele>766.0</ele><time>2026-03-29T08:09:34.888Z</time></trkpt><trkpt lat="43.252743507130006" lon="12.243633665867309"><ele>765.5</ele><time>2026-03-29T08:09:35.888Z</time></trkpt><trkpt lat="43.252881225243186" lon="12.243661866904802"><ele>765.0</ele><time>2026-03-29T08:09:36.888Z</time></trkpt><trkpt lat="43.253011325038834" lon="12.243692263219483"><ele>764.5</ele><time>2026-03-29T08:09:37.887Z</time></trkpt><trkpt lat="43.253122635282864" lon="12.24374135733972"><ele>764.0</ele><time>2026-03-29T08:09:38.887Z</time></trkpt><trkpt lat="43.253233852611636" lon="12.24382779406378"><ele>761.75</ele><time>2026-03-29T08:09:39.887Z</time></trkpt><trkpt lat="43.253341570872315" lon="12.24391157920721"><ele>759.5</ele><time>2026-03-29T08:09:40.887Z</time></trkpt><trkpt lat="43.25345081065875" lon="12.243992811879043"><ele>757.25</ele><time>2026-03-29T08:09:41.887Z</time></trkpt><trkpt lat="43.25357700564622" lon="12.24404378387744"><ele>755.0</ele><time>2026-03-29T08:09:42.886Z</time></trkpt><trkpt lat="43.25368340509103" lon="12.244069256460111"><ele>754.8</ele><time>2026-03-29T08:09:43.886Z</time></trkpt><trkpt lat="43.253785114930025" lon="12.244100090080755"><ele>754.6</ele><time>2026-03-29T08:09:44.886Z</time></trkpt><trkpt lat="43.253875343102365" lon="12.244112678242793"><ele>754.4000000000001</ele><time>2026-03-29T08:09:45.886Z</time></trkpt><trkpt lat="43.25394209842357" lon="12.24414733556417"><ele>754.2</ele><time>2026-03-29T08:09:46.886Z</time></trkpt><trkpt lat="43.25400451405304" lon="12.244192097024229"><ele>754.0</ele><time>2026-03-29T08:09:47.886Z</time></trkpt><trkpt lat="43.254088261233484" lon="12.244302169572869"><ele>754.0</ele><time>2026-03-29T08:09:49.886Z</time></trkpt><trkpt lat="43.25416824807862" lon="12.244415554714818"><ele>754.0</ele><time>2026-03-29T08:09:51.885Z</time></trkpt><trkpt lat="43.254268597374605" lon="12.244523408835535"><ele>754.0</ele><time>2026-03-29T08:09:53.885Z</time></trkpt><trkpt lat="43.25431541831285" lon="12.244581208681613"><ele>754.0</ele><time>2026-03-29T08:09:54.885Z</time></trkpt><trkpt lat="43.2544332766697" lon="12.24467102534282"><ele>754.0</ele><time>2026-03-29T08:09:56.885Z</time></trkpt><trkpt lat="43.25453100508655" lon="12.244642100319352"><ele>754.0</ele><time>2026-03-29T08:09:58.885Z</time></trkpt><trkpt lat="43.25465230060477" lon="12.244656891215074"><ele>754.0</ele><time>2026-03-29T08:10:00.885Z</time></trkpt><trkpt lat="43.25472835289166" lon="12.244676427160496"><ele>754.0</ele><time>2026-03-29T08:10:01.885Z</time></trkpt><trkpt lat="43.254816427971924" lon="12.244689427408296"><ele>754.0</ele><time>2026-03-29T08:10:02.885Z</time></trkpt><trkpt lat="43.25489764170606" lon="12.244692470984376"><ele>754.0</ele><time>2026-03-29T08:10:03.884Z</time></trkpt><trkpt lat="43.25497332687459" lon="12.244706569607697"><ele>754.0</ele><time>2026-03-29T08:10:04.884Z</time></trkpt><trkpt lat="43.2550602629905" lon="12.244705376730488"><ele>754.5</ele><time>2026-03-29T08:10:05.884Z</time></trkpt><trkpt lat="43.25514150370279" lon="12.244723055217115"><ele>755.0</ele><time>2026-03-29T08:10:06.884Z</time></trkpt><trkpt lat="43.255218938388474" lon="12.24474124302658"><ele>755.5</ele><time>2026-03-29T08:10:07.884Z</time></trkpt><trkpt lat="43.25527872941767" lon="12.244781024911216"><ele>756.0</ele><time>2026-03-29T08:10:08.884Z</time></trkpt><trkpt lat="43.255377620330805" lon="12.244837427130536"><ele>756.5</ele><time>2026-03-29T08:10:10.884Z</time></trkpt><trkpt lat="43.25544262811018" lon="12.244820440002234"><ele>757.0</ele><time>2026-03-29T08:10:11.884Z</time></trkpt><trkpt lat="43.25550402738088" lon="12.24477746552352"><ele>755.5</ele><time>2026-03-29T08:10:12.884Z</time></trkpt><trkpt lat="43.2555755378389" lon="12.244731485858319"><ele>754.0</ele><time>2026-03-29T08:10:13.884Z</time></trkpt><trkpt lat="43.25564607308738" lon="12.244698176833305"><ele>752.5</ele><time>2026-03-29T08:10:14.884Z</time></trkpt><trkpt lat="43.25572325566916" lon="12.244716467978769"><ele>751.0</ele><time>2026-03-29T08:10:15.884Z</time></trkpt><trkpt lat="43.25579148960768" lon="12.244751564780348"><ele>749.5</ele><time>2026-03-29T08:10:16.884Z</time></trkpt><trkpt lat="43.25587926347447" lon="12.24487507959802"><ele>748.0</ele><time>2026-03-29T08:10:18.884Z</time></trkpt><trkpt lat="43.25591925225988" lon="12.244954022171964"><ele>748.0</ele><time>2026-03-29T08:10:19.884Z</time></trkpt><trkpt lat="43.25597680694795" lon="12.245064847588278"><ele>748.0</ele><time>2026-03-29T08:10:20.884Z</time></trkpt><trkpt lat="43.256051413304114" lon="12.245150820610775"><ele>748.0</ele><time>2026-03-29T08:10:21.884Z</time></trkpt><trkpt lat="43.256132694691004" lon="12.245240676188022"><ele>748.0</ele><time>2026-03-29T08:10:22.884Z</time></trkpt><trkpt lat="43.256184397429394" lon="12.245332920226208"><ele>748.0</ele><time>2026-03-29T08:10:23.884Z</time></trkpt><trkpt lat="43.25621884052123" lon="12.245409254930967"><ele>748.0</ele><time>2026-03-29T08:10:24.883Z</time></trkpt><trkpt lat="43.25627244022474" lon="12.245345207525"><ele>748.0</ele><time>2026-03-29T08:10:30.883Z</time></trkpt><trkpt lat="43.256362892218824" lon="12.245215554459943"><ele>748.0</ele><time>2026-03-29T08:10:32.883Z</time></trkpt><trkpt lat="43.2564106062824" lon="12.24515399945256"><ele>748.0</ele><time>2026-03-29T08:10:33.883Z</time></trkpt><trkpt lat="43.25645950340647" lon="12.245099005611507"><ele>748.0</ele><time>2026-03-29T08:10:34.883Z</time></trkpt><trkpt lat="43.25651577239535" lon="12.24505475692847"><ele>748.0</ele><time>2026-03-29T08:10:35.886Z</time></trkpt><trkpt lat="43.25662256372731" lon="12.24501465813626"><ele>745.8333333333334</ele><time>2026-03-29T08:10:37.885Z</time></trkpt><trkpt lat="43.25670138296928" lon="12.244948509747756"><ele>743.6666666666667</ele><time>2026-03-29T08:10:38.885Z</time></trkpt><trkpt lat="43.2567570766646" lon="12.244891607781232"><ele>741.5</ele><time>2026-03-29T08:10:39.885Z</time></trkpt><trkpt lat="43.25682149933923" lon="12.244845089244162"><ele>739.3333333333334</ele><time>2026-03-29T08:10:40.885Z</time></trkpt><trkpt lat="43.25691768471162" lon="12.24474362655597"><ele>737.1666666666666</ele><time>2026-03-29T08:10:42.885Z</time></trkpt><trkpt lat="43.25698206186805" lon="12.244677157595149"><ele>735.0</ele><time>2026-03-29T08:10:43.885Z</time></trkpt><trkpt lat="43.25703749075388" lon="12.244627448669057"><ele>733.0</ele><time>2026-03-29T08:10:44.886Z</time></trkpt><trkpt lat="43.257124631262336" lon="12.244488055956083"><ele>731.0</ele><time>2026-03-29T08:10:46.885Z</time></trkpt><trkpt lat="43.257176803852" lon="12.244389802055448"><ele>729.0</ele><time>2026-03-29T08:10:47.885Z</time></trkpt><trkpt lat="43.25724473658983" lon="12.244318366354118"><ele>727.0</ele><time>2026-03-29T08:10:48.886Z</time></trkpt><trkpt lat="43.25731298918345" lon="12.244263909247637"><ele>725.0</ele><time>2026-03-29T08:10:49.886Z</time></trkpt><trkpt lat="43.257367595175296" lon="12.244202884503808"><ele>721.8333333333333</ele><time>2026-03-29T08:10:50.886Z</time></trkpt><trkpt lat="43.25741392615803" lon="12.24413033448359"><ele>718.6666666666666</ele><time>2026-03-29T08:10:51.886Z</time></trkpt><trkpt lat="43.25747305835911" lon="12.24402833619453"><ele>715.5</ele><time>2026-03-29T08:10:52.886Z</time></trkpt><trkpt lat="43.257545081996994" lon="12.2439177967384"><ele>712.3333333333334</ele><time>2026-03-29T08:10:53.886Z</time></trkpt><trkpt lat="43.25761747250143" lon="12.243829184488186"><ele>709.1666666666667</ele><time>2026-03-29T08:10:54.886Z</time></trkpt><trkpt lat="43.257672542501474" lon="12.243766346935354"><ele>706.0</ele><time>2026-03-29T08:10:55.886Z</time></trkpt><trkpt lat="43.257726203489646" lon="12.243697771640104"><ele>705.0</ele><time>2026-03-29T08:10:56.886Z</time></trkpt><trkpt lat="43.25778047157742" lon="12.243638039244086"><ele>704.0</ele><time>2026-03-29T08:10:57.886Z</time></trkpt><trkpt lat="43.25788423617082" lon="12.24358148667031"><ele>703.0</ele><time>2026-03-29T08:10:59.886Z</time></trkpt><trkpt lat="43.25794727804258" lon="12.243537544184449"><ele>702.0</ele><time>2026-03-29T08:11:00.886Z</time></trkpt><trkpt lat="43.25801895206478" lon="12.24349564939128"><ele>701.0</ele><time>2026-03-29T08:11:01.886Z</time></trkpt><trkpt lat="43.25812655344319" lon="12.243470747075255"><ele>700.0</ele><time>2026-03-29T08:11:03.886Z</time></trkpt><trkpt lat="43.2582355784701" lon="12.243508729399627"><ele>697.2</ele><time>2026-03-29T08:11:05.885Z</time></trkpt><trkpt lat="43.25832076853562" lon="12.243477577140345"><ele>694.4</ele><time>2026-03-29T08:11:07.885Z</time></trkpt><trkpt lat="43.25832580935664" lon="12.243334501003048"><ele>691.5999999999999</ele><time>2026-03-29T08:11:10.885Z</time></trkpt><trkpt lat="43.25830570140026" lon="12.243156399926187"><ele>688.8</ele><time>2026-03-29T08:11:12.885Z</time></trkpt><trkpt lat="43.25830047835314" lon="12.243041433034255"><ele>686.0</ele><time>2026-03-29T08:11:13.885Z</time></trkpt><trkpt lat="43.258286686970806" lon="12.242943577865983"><ele>685.0</ele><time>2026-03-29T08:11:16.885Z</time></trkpt><trkpt lat="43.25830994390688" lon="12.242823048828987"><ele>684.0</ele><time>2026-03-29T08:11:18.885Z</time></trkpt><trkpt lat="43.258352223437186" lon="12.242687165313422"><ele>683.0</ele><time>2026-03-29T08:11:20.885Z</time></trkpt><trkpt lat="43.2583932488011" lon="12.242543715516955"><ele>682.0</ele><time>2026-03-29T08:11:22.885Z</time></trkpt><trkpt lat="43.25840053952868" lon="12.242428617097376"><ele>681.0</ele><time>2026-03-29T08:11:23.885Z</time></trkpt><trkpt lat="43.25840376036918" lon="12.242303734512703"><ele>678.5999999999999</ele><time>2026-03-29T08:11:25.885Z</time></trkpt><trkpt lat="43.258443686462115" lon="12.242226436162857"><ele>676.2</ele><time>2026-03-29T08:11:27.885Z</time></trkpt><trkpt lat="43.25850120823483" lon="12.242148265849849"><ele>673.8</ele><time>2026-03-29T08:11:30.885Z</time></trkpt><trkpt lat="43.25861597079842" lon="12.24205736304949"><ele>671.4000000000001</ele><time>2026-03-29T08:11:32.885Z</time></trkpt><trkpt lat="43.258690338212794" lon="12.2419919722553"><ele>669.0</ele><time>2026-03-29T08:11:33.885Z</time></trkpt><trkpt lat="43.25876801986529" lon="12.241919693060892"><ele>669.0</ele><time>2026-03-29T08:11:35.885Z</time></trkpt><trkpt lat="43.25887352131806" lon="12.241930306243553"><ele>669.0</ele><time>2026-03-29T08:11:37.884Z</time></trkpt><trkpt lat="43.25900857598854" lon="12.241989081916184"><ele>669.0</ele><time>2026-03-29T08:11:39.884Z</time></trkpt><trkpt lat="43.25908325059835" lon="12.242028227365967"><ele>669.0</ele><time>2026-03-29T08:11:40.884Z</time></trkpt><trkpt lat="43.25919972223775" lon="12.242091056066476"><ele>669.0</ele><time>2026-03-29T08:11:42.884Z</time></trkpt><trkpt lat="43.25923862367027" lon="12.242181178971874"><ele>669.0</ele><time>2026-03-29T08:11:44.884Z</time></trkpt><trkpt lat="43.25925855624451" lon="12.242321559076231"><ele>669.0</ele><time>2026-03-29T08:11:46.884Z</time></trkpt><trkpt lat="43.259291036249174" lon="12.242415863735753"><ele>669.0</ele><time>2026-03-29T08:11:48.884Z</time></trkpt><trkpt lat="43.25934664062057" lon="12.24247624580367"><ele>669.0</ele><time>2026-03-29T08:11:51.884Z</time></trkpt><trkpt lat="43.25942322384646" lon="12.242525541541479"><ele>669.0</ele><time>2026-03-29T08:11:53.884Z</time></trkpt><trkpt lat="43.259480156349966" lon="12.242575622083608"><ele>669.0</ele><time>2026-03-29T08:11:54.884Z</time></trkpt><trkpt lat="43.25953368281605" lon="12.242628081927322"><ele>669.0</ele><time>2026-03-29T08:11:55.884Z</time></trkpt><trkpt lat="43.2596328859003" lon="12.242684871331777"><ele>669.0</ele><time>2026-03-29T08:11:57.884Z</time></trkpt><trkpt lat="43.25969341020233" lon="12.242721790303046"><ele>669.0</ele><time>2026-03-29T08:11:58.884Z</time></trkpt><trkpt lat="43.25976676085658" lon="12.242730812177097"><ele>669.0</ele><time>2026-03-29T08:11:59.884Z</time></trkpt><trkpt lat="43.25983453262417" lon="12.242772918727553"><ele>669.0</ele><time>2026-03-29T08:12:00.884Z</time></trkpt><trkpt lat="43.25990374047832" lon="12.242832389686125"><ele>666.0</ele><time>2026-03-29T08:12:01.884Z</time></trkpt><trkpt lat="43.259976824605246" lon="12.242888882163536"><ele>663.0</ele><time>2026-03-29T08:12:02.884Z</time></trkpt><trkpt lat="43.26004799652959" lon="12.242940537841374"><ele>660.0</ele><time>2026-03-29T08:12:03.884Z</time></trkpt><trkpt lat="43.26011761112469" lon="12.242986505337242"><ele>657.0</ele><time>2026-03-29T08:12:04.884Z</time></trkpt><trkpt lat="43.26017994651929" lon="12.243036437829735"><ele>654.0</ele><time>2026-03-29T08:12:05.884Z</time></trkpt><trkpt lat="43.260254337162074" lon="12.24310985643774"><ele>651.0</ele><time>2026-03-29T08:12:07.884Z</time></trkpt><trkpt lat="43.260358780178464" lon="12.243137622200829"><ele>650.8333333333334</ele><time>2026-03-29T08:12:10.884Z</time></trkpt><trkpt lat="43.26043647945336" lon="12.24315556155609"><ele>650.6666666666666</ele><time>2026-03-29T08:12:11.883Z</time></trkpt><trkpt lat="43.26050929410161" lon="12.243184438198611"><ele>650.5</ele><time>2026-03-29T08:12:12.883Z</time></trkpt><trkpt lat="43.260613027148175" lon="12.243185069142037"><ele>650.3333333333333</ele><time>2026-03-29T08:12:14.883Z</time></trkpt><trkpt lat="43.2606793679019" lon="12.243170381616567"><ele>650.1666666666666</ele><time>2026-03-29T08:12:16.883Z</time></trkpt><trkpt lat="43.26072844250001" lon="12.243233395058976"><ele>650.0</ele><time>2026-03-29T08:12:18.883Z</time></trkpt><trkpt lat="43.26078166531063" lon="12.243333352103036"><ele>648.2</ele><time>2026-03-29T08:12:20.883Z</time></trkpt><trkpt lat="43.26087553009245" lon="12.243385971537231"><ele>646.4</ele><time>2026-03-29T08:12:22.883Z</time></trkpt><trkpt lat="43.260951940574984" lon="12.243409135843189"><ele>644.5999999999999</ele><time>2026-03-29T08:12:23.883Z</time></trkpt><trkpt lat="43.26102912299096" lon="12.243433477213404"><ele>642.8</ele><time>2026-03-29T08:12:24.883Z</time></trkpt><trkpt lat="43.26116250268979" lon="12.24342947945409"><ele>641.0</ele><time>2026-03-29T08:12:26.883Z</time></trkpt><trkpt lat="43.26126794932634" lon="12.243408131332018"><ele>641.0</ele><time>2026-03-29T08:12:27.883Z</time></trkpt><trkpt lat="43.26136386705976" lon="12.243383159384047"><ele>641.0</ele><time>2026-03-29T08:12:28.883Z</time></trkpt><trkpt lat="43.26146424583736" lon="12.243393275790643"><ele>641.0</ele><time>2026-03-29T08:12:29.883Z</time></trkpt><trkpt lat="43.26155741012726" lon="12.243410828674937"><ele>641.0</ele><time>2026-03-29T08:12:30.883Z</time></trkpt><trkpt lat="43.2616437812291" lon="12.243412687364634"><ele>641.0</ele><time>2026-03-29T08:12:31.883Z</time></trkpt><trkpt lat="43.26172752185559" lon="12.243422174527732"><ele>639.1666666666666</ele><time>2026-03-29T08:12:32.883Z</time></trkpt><trkpt lat="43.26180552492441" lon="12.243467012337348"><ele>637.3333333333333</ele><time>2026-03-29T08:12:33.883Z</time></trkpt><trkpt lat="43.261908364773475" lon="12.243510148267703"><ele>635.5</ele><time>2026-03-29T08:12:34.883Z</time></trkpt><trkpt lat="43.261993604660645" lon="12.243533162470923"><ele>633.6666666666666</ele><time>2026-03-29T08:12:35.883Z</time></trkpt><trkpt lat="43.26206247255087" lon="12.243549460602782"><ele>631.8333333333334</ele><time>2026-03-29T08:12:36.883Z</time></trkpt><trkpt lat="43.26214404277654" lon="12.243607337689422"><ele>630.0</ele><time>2026-03-29T08:12:37.883Z</time></trkpt><trkpt lat="43.26223317031936" lon="12.24366106413"><ele>628.0</ele><time>2026-03-29T08:12:38.883Z</time></trkpt><trkpt lat="43.2623215075937" lon="12.243725222435868"><ele>626.0</ele><time>2026-03-29T08:12:39.883Z</time></trkpt><trkpt lat="43.26241332441763" lon="12.243796960172148"><ele>624.0</ele><time>2026-03-29T08:12:40.883Z</time></trkpt><trkpt lat="43.26251346046541" lon="12.24388130160004"><ele>622.0</ele><time>2026-03-29T08:12:41.884Z</time></trkpt><trkpt lat="43.26260463903684" lon="12.243952155624847"><ele>620.0</ele><time>2026-03-29T08:12:42.884Z</time></trkpt><trkpt lat="43.26267344616748" lon="12.244017811201536"><ele>620.0</ele><time>2026-03-29T08:12:43.884Z</time></trkpt><trkpt lat="43.262755807072594" lon="12.24405394513841"><ele>620.0</ele><time>2026-03-29T08:12:45.885Z</time></trkpt><trkpt lat="43.26278078294435" lon="12.24393219414714"><ele>620.0</ele><time>2026-03-29T08:12:49.883Z</time></trkpt><trkpt lat="43.26280555615381" lon="12.243795036183721"><ele>620.0</ele><time>2026-03-29T08:12:51.883Z</time></trkpt><trkpt lat="43.262798507050455" lon="12.243682728616161"><ele>620.0</ele><time>2026-03-29T08:12:52.883Z</time></trkpt><trkpt lat="43.26278239166747" lon="12.243591243244484"><ele>620.0</ele><time>2026-03-29T08:12:53.884Z</time></trkpt><trkpt lat="43.26276561020089" lon="12.243487110376975"><ele>620.0</ele><time>2026-03-29T08:12:54.883Z</time></trkpt><trkpt lat="43.262749385930384" lon="12.243390316335338"><ele>620.0</ele><time>2026-03-29T08:12:55.883Z</time></trkpt><trkpt lat="43.2627290488746" lon="12.243284241905029"><ele>620.0</ele><time>2026-03-29T08:12:56.883Z</time></trkpt><trkpt lat="43.26272071906142" lon="12.24318997633649"><ele>620.0</ele><time>2026-03-29T08:12:57.883Z</time></trkpt><trkpt lat="43.262725694904724" lon="12.243098438003905"><ele>620.0</ele><time>2026-03-29T08:12:58.883Z</time></trkpt><trkpt lat="43.26275077612939" lon="12.243009787831939"><ele>620.0</ele><time>2026-03-29T08:12:59.883Z</time></trkpt><trkpt lat="43.262764413889606" lon="12.242922717183435"><ele>620.0</ele><time>2026-03-29T08:13:00.883Z</time></trkpt><trkpt lat="43.2627479984546" lon="12.242755575660956"><ele>619.8333333333333</ele><time>2026-03-29T08:13:02.883Z</time></trkpt><trkpt lat="43.26272490423782" lon="12.242663367472822"><ele>619.6666666666666</ele><time>2026-03-29T08:13:03.883Z</time></trkpt><trkpt lat="43.2627185263842" lon="12.242568007694736"><ele>619.5</ele><time>2026-03-29T08:13:04.883Z</time></trkpt><trkpt lat="43.26276005204425" lon="12.242412892730028"><ele>619.3333333333334</ele><time>2026-03-29T08:13:06.883Z</time></trkpt><trkpt lat="43.26279188751432" lon="12.242247788502864"><ele>619.1666666666667</ele><time>2026-03-29T08:13:08.883Z</time></trkpt><trkpt lat="43.262824371083084" lon="12.242172218295496"><ele>619.0</ele><time>2026-03-29T08:13:09.883Z</time></trkpt><trkpt lat="43.26287187664089" lon="12.242106488985902"><ele>617.8333333333334</ele><time>2026-03-29T08:13:10.883Z</time></trkpt><trkpt lat="43.26291956623277" lon="12.242040413203654"><ele>616.6666666666667</ele><time>2026-03-29T08:13:11.883Z</time></trkpt><trkpt lat="43.26293811840254" lon="12.241936244876571"><ele>615.5</ele><time>2026-03-29T08:13:12.883Z</time></trkpt><trkpt lat="43.262947522862845" lon="12.241801007628053"><ele>614.3333333333334</ele><time>2026-03-29T08:13:13.883Z</time></trkpt><trkpt lat="43.26294216682953" lon="12.241681410832282"><ele>613.1666666666666</ele><time>2026-03-29T08:13:14.883Z</time></trkpt><trkpt lat="43.262904778287016" lon="12.241563115925395"><ele>612.0</ele><time>2026-03-29T08:13:15.883Z</time></trkpt><trkpt lat="43.262848048888436" lon="12.241454484360707"><ele>610.2</ele><time>2026-03-29T08:13:16.883Z</time></trkpt><trkpt lat="43.2628033689913" lon="12.241338863626746"><ele>608.4000000000001</ele><time>2026-03-29T08:13:17.883Z</time></trkpt><trkpt lat="43.26277550764885" lon="12.241257217587165"><ele>606.5999999999999</ele><time>2026-03-29T08:13:18.883Z</time></trkpt><trkpt lat="43.26273780808403" lon="12.241095987244975"><ele>604.8</ele><time>2026-03-29T08:13:20.883Z</time></trkpt><trkpt lat="43.26263504479787" lon="12.241069771112361"><ele>603.0</ele><time>2026-03-29T08:13:22.883Z</time></trkpt><trkpt lat="43.26253430883625" lon="12.24108960881008"><ele>603.0</ele><time>2026-03-29T08:13:23.883Z</time></trkpt><trkpt lat="43.26241997152377" lon="12.241088770319102"><ele>603.0</ele><time>2026-03-29T08:13:24.883Z</time></trkpt><trkpt lat="43.26232000021804" lon="12.24110936543891"><ele>603.0</ele><time>2026-03-29T08:13:25.883Z</time></trkpt><trkpt lat="43.26224363785266" lon="12.241135943295923"><ele>603.0</ele><time>2026-03-29T08:13:26.883Z</time></trkpt><trkpt lat="43.26216994283992" lon="12.241130446313802"><ele>603.0</ele><time>2026-03-29T08:13:28.882Z</time></trkpt><trkpt lat="43.26216355512155" lon="12.241042282506477"><ele>603.0</ele><time>2026-03-29T08:13:30.882Z</time></trkpt><trkpt lat="43.262069200167666" lon="12.240949576960949"><ele>602.4</ele><time>2026-03-29T08:13:32.882Z</time></trkpt><trkpt lat="43.26201739037868" lon="12.240836899786585"><ele>601.8</ele><time>2026-03-29T08:13:33.882Z</time></trkpt><trkpt lat="43.26206203611467" lon="12.240727230510208"><ele>601.2</ele><time>2026-03-29T08:13:34.882Z</time></trkpt><trkpt lat="43.26208361375486" lon="12.24057419905558"><ele>600.6</ele><time>2026-03-29T08:13:35.882Z</time></trkpt><trkpt lat="43.262098705127876" lon="12.24045326514029"><ele>600.0</ele><time>2026-03-29T08:13:36.882Z</time></trkpt><trkpt lat="43.26207644005265" lon="12.240322733134084"><ele>600.0</ele><time>2026-03-29T08:13:37.882Z</time></trkpt><trkpt lat="43.26205485322502" lon="12.240210493857898"><ele>600.0</ele><time>2026-03-29T08:13:38.882Z</time></trkpt><trkpt lat="43.262033355711424" lon="12.240124020837627"><ele>600.0</ele><time>2026-03-29T08:13:39.882Z</time></trkpt><trkpt lat="43.26196378334616" lon="12.240059181946139"><ele>600.0</ele><time>2026-03-29T08:13:41.882Z</time></trkpt><trkpt lat="43.2618507021222" lon="12.240032873160946"><ele>600.0</ele><time>2026-03-29T08:13:43.882Z</time></trkpt><trkpt lat="43.26171307064306" lon="12.240048592977601"><ele>600.0</ele><time>2026-03-29T08:13:44.882Z</time></trkpt><trkpt lat="43.26163276810827" lon="12.240083176509357"><ele>600.0</ele><time>2026-03-29T08:13:45.882Z</time></trkpt><trkpt lat="43.261516852009315" lon="12.2401359555943"><ele>600.0</ele><time>2026-03-29T08:13:47.882Z</time></trkpt><trkpt lat="43.2615395730163" lon="12.24004690402555"><ele>600.0</ele><time>2026-03-29T08:13:51.882Z</time></trkpt><trkpt lat="43.26150258315345" lon="12.239974445107533"><ele>600.0</ele><time>2026-03-29T08:13:53.882Z</time></trkpt><trkpt lat="43.261479591142795" lon="12.239817546102723"><ele>601.75</ele><time>2026-03-29T08:13:56.882Z</time></trkpt><trkpt lat="43.261304776397985" lon="12.239702224650987"><ele>603.5</ele><time>2026-03-29T08:13:58.882Z</time></trkpt><trkpt lat="43.26124179060761" lon="12.239576845219675"><ele>605.25</ele><time>2026-03-29T08:13:59.882Z</time></trkpt><trkpt lat="43.261223839475505" lon="12.239493271149227"><ele>607.0</ele><time>2026-03-29T08:14:00.882Z</time></trkpt><trkpt lat="43.26125744461014" lon="12.239374194797433"><ele>607.0</ele><time>2026-03-29T08:14:02.881Z</time></trkpt><trkpt lat="43.26130657043012" lon="12.239286125589746"><ele>607.0</ele><time>2026-03-29T08:14:03.881Z</time></trkpt><trkpt lat="43.26133358587893" lon="12.239190647177294"><ele>607.0</ele><time>2026-03-29T08:14:04.881Z</time></trkpt><trkpt lat="43.261326807776165" lon="12.239031848304778"><ele>607.0</ele><time>2026-03-29T08:14:06.881Z</time></trkpt><trkpt lat="43.26130534244746" lon="12.238926206723491"><ele>607.0</ele><time>2026-03-29T08:14:07.881Z</time></trkpt><trkpt lat="43.26125473998513" lon="12.238809893512778"><ele>604.2</ele><time>2026-03-29T08:14:08.881Z</time></trkpt><trkpt lat="43.26119835516759" lon="12.238696784037701"><ele>601.4000000000001</ele><time>2026-03-29T08:14:09.881Z</time></trkpt><trkpt lat="43.26113128082223" lon="12.238607773701151"><ele>598.5999999999999</ele><time>2026-03-29T08:14:10.881Z</time></trkpt><trkpt lat="43.26105031294815" lon="12.238547724937852"><ele>595.8</ele><time>2026-03-29T08:14:11.881Z</time></trkpt><trkpt lat="43.2609487015183" lon="12.238490359442512"><ele>593.0</ele><time>2026-03-29T08:14:12.881Z</time></trkpt><trkpt lat="43.260854043908665" lon="12.238390928340241"><ele>593.0</ele><time>2026-03-29T08:14:13.881Z</time></trkpt><trkpt lat="43.260757448523286" lon="12.23828517926635"><ele>593.0</ele><time>2026-03-29T08:14:14.881Z</time></trkpt><trkpt lat="43.2606820852886" lon="12.238182481176882"><ele>593.0</ele><time>2026-03-29T08:14:15.881Z</time></trkpt><trkpt lat="43.26062089346303" lon="12.238127254139773"><ele>593.0</ele><time>2026-03-29T08:14:16.881Z</time></trkpt><trkpt lat="43.26048651459896" lon="12.237914222535327"><ele>591.8</ele><time>2026-03-29T08:14:18.881Z</time></trkpt><trkpt lat="43.26040164774655" lon="12.237880683031428"><ele>590.5999999999999</ele><time>2026-03-29T08:14:19.881Z</time></trkpt><trkpt lat="43.26031332316181" lon="12.237818524161717"><ele>589.4000000000001</ele><time>2026-03-29T08:14:20.881Z</time></trkpt><trkpt lat="43.26021089416229" lon="12.237740820337418"><ele>588.2</ele><time>2026-03-29T08:14:21.881Z</time></trkpt><trkpt lat="43.260131627017856" lon="12.237674900027237"><ele>587.0</ele><time>2026-03-29T08:14:22.881Z</time></trkpt><trkpt lat="43.26007194145116" lon="12.237602642818906"><ele>587.0</ele><time>2026-03-29T08:14:23.881Z</time></trkpt><trkpt lat="43.26003429347791" lon="12.237465147980032"><ele>587.0</ele><time>2026-03-29T08:14:25.881Z</time></trkpt><trkpt lat="43.26001531390514" lon="12.237375305862285"><ele>587.0</ele><time>2026-03-29T08:14:26.881Z</time></trkpt><trkpt lat="43.259969285532954" lon="12.23726924172962"><ele>587.0</ele><time>2026-03-29T08:14:27.881Z</time></trkpt><trkpt lat="43.25994374419071" lon="12.237146704521356"><ele>587.0</ele><time>2026-03-29T08:14:28.881Z</time></trkpt><trkpt lat="43.259933857157804" lon="12.237052313151654"><ele>587.0</ele><time>2026-03-29T08:14:29.881Z</time></trkpt><trkpt lat="43.25989887223668" lon="12.236970509094988"><ele>584.6</ele><time>2026-03-29T08:14:30.881Z</time></trkpt><trkpt lat="43.25989630091678" lon="12.236859776517864"><ele>582.2</ele><time>2026-03-29T08:14:32.881Z</time></trkpt><trkpt lat="43.259970260232976" lon="12.236798371388"><ele>579.8</ele><time>2026-03-29T08:14:33.881Z</time></trkpt><trkpt lat="43.26002951933521" lon="12.236829840708102"><ele>577.4</ele><time>2026-03-29T08:14:35.88Z</time></trkpt><trkpt lat="43.26015954802007" lon="12.236754527668989"><ele>575.0</ele><time>2026-03-29T08:14:38.88Z</time></trkpt><trkpt lat="43.26024368611585" lon="12.236691869871784"><ele>575.0</ele><time>2026-03-29T08:14:39.88Z</time></trkpt><trkpt lat="43.26031492073688" lon="12.23665174113399"><ele>575.0</ele><time>2026-03-29T08:14:40.88Z</time></trkpt><trkpt lat="43.26036028419623" lon="12.23655973710651"><ele>575.0</ele><time>2026-03-29T08:14:42.88Z</time></trkpt><trkpt lat="43.260320513466475" lon="12.236439065325701"><ele>575.0</ele><time>2026-03-29T08:14:44.88Z</time></trkpt><trkpt lat="43.26030049037608" lon="12.236296975635556"><ele>575.0</ele><time>2026-03-29T08:14:46.88Z</time></trkpt><trkpt lat="43.26026787078814" lon="12.236161969932205"><ele>572.2</ele><time>2026-03-29T08:14:47.883Z</time></trkpt><trkpt lat="43.2602094288101" lon="12.236027528705513"><ele>569.4</ele><time>2026-03-29T08:14:49.882Z</time></trkpt><trkpt lat="43.26016159893572" lon="12.2359157875308"><ele>566.6</ele><time>2026-03-29T08:14:53.883Z</time></trkpt><trkpt lat="43.26008292707113" lon="12.23585778380598"><ele>563.8</ele><time>2026-03-29T08:14:54.883Z</time></trkpt><trkpt lat="43.26001746030739" lon="12.235767928017358"><ele>561.0</ele><time>2026-03-29T08:14:55.883Z</time></trkpt><trkpt lat="43.259919680173724" lon="12.23584632441256"><ele>561.0</ele><time>2026-03-29T08:14:57.882Z</time></trkpt><trkpt lat="43.25991587449419" lon="12.235753010313402"><ele>561.0</ele><time>2026-03-29T08:14:59.883Z</time></trkpt><trkpt lat="43.25995025102669" lon="12.235646491438283"><ele>561.0</ele><time>2026-03-29T08:15:02.882Z</time></trkpt><trkpt lat="43.259958945665915" lon="12.235537908373152"><ele>561.0</ele><time>2026-03-29T08:15:03.882Z</time></trkpt><trkpt lat="43.26002186268516" lon="12.2354583497392"><ele>561.0</ele><time>2026-03-29T08:15:04.882Z</time></trkpt><trkpt lat="43.26000520721186" lon="12.235369683023157"><ele>561.0</ele><time>2026-03-29T08:15:07.882Z</time></trkpt><trkpt lat="43.26000676430106" lon="12.235271225378314"><ele>557.2</ele><time>2026-03-29T08:15:10.882Z</time></trkpt><trkpt lat="43.25996545994984" lon="12.235178869359856"><ele>553.4000000000001</ele><time>2026-03-29T08:15:12.882Z</time></trkpt><trkpt lat="43.25984841372033" lon="12.235142023475255"><ele>549.6</ele><time>2026-03-29T08:15:15.882Z</time></trkpt><trkpt lat="43.25976769064036" lon="12.235174678656843"><ele>545.8000000000001</ele><time>2026-03-29T08:15:16.882Z</time></trkpt><trkpt lat="43.25969194114014" lon="12.235194968753811"><ele>542.0</ele><time>2026-03-29T08:15:17.882Z</time></trkpt><trkpt lat="43.25957523561221" lon="12.235251764704794"><ele>541.8000000000001</ele><time>2026-03-29T08:15:18.882Z</time></trkpt><trkpt lat="43.25946649049251" lon="12.235339694203342"><ele>541.6</ele><time>2026-03-29T08:15:19.882Z</time></trkpt><trkpt lat="43.25937714258478" lon="12.235418151488203"><ele>541.4000000000001</ele><time>2026-03-29T08:15:20.882Z</time></trkpt><trkpt lat="43.25929585014005" lon="12.235424268385797"><ele>541.2</ele><time>2026-03-29T08:15:21.882Z</time></trkpt><trkpt lat="43.259227944979365" lon="12.235442931222495"><ele>541.0</ele><time>2026-03-29T08:15:25.881Z</time></trkpt><trkpt lat="43.25910888429621" lon="12.235433947133139"><ele>541.0</ele><time>2026-03-29T08:15:30.881Z</time></trkpt><trkpt lat="43.25896317917003" lon="12.235396616369504"><ele>541.0</ele><time>2026-03-29T08:15:31.881Z</time></trkpt><trkpt lat="43.258863507237" lon="12.235308236589557"><ele>541.0</ele><time>2026-03-29T08:15:32.881Z</time></trkpt><trkpt lat="43.258789568807295" lon="12.235201423484725"><ele>541.0</ele><time>2026-03-29T08:15:33.881Z</time></trkpt><trkpt lat="43.258813616455164" lon="12.234989973191595"><ele>541.8</ele><time>2026-03-29T08:15:34.881Z</time></trkpt><trkpt lat="43.25869598765752" lon="12.234923898566022"><ele>542.6</ele><time>2026-03-29T08:15:35.881Z</time></trkpt><trkpt lat="43.258584078528855" lon="12.234878041035566"><ele>543.4</ele><time>2026-03-29T08:15:36.881Z</time></trkpt><trkpt lat="43.25850180328121" lon="12.23483121079447"><ele>544.2</ele><time>2026-03-29T08:15:37.881Z</time></trkpt><trkpt lat="43.258415526745026" lon="12.234822458386073"><ele>545.0</ele><time>2026-03-29T08:15:38.881Z</time></trkpt><trkpt lat="43.258306185610394" lon="12.23476679432408"><ele>546.0</ele><time>2026-03-29T08:15:40.881Z</time></trkpt><trkpt lat="43.25824286176214" lon="12.23470666918515"><ele>547.0</ele><time>2026-03-29T08:15:41.881Z</time></trkpt><trkpt lat="43.258166460540494" lon="12.23463269308966"><ele>548.0</ele><time>2026-03-29T08:15:42.881Z</time></trkpt><trkpt lat="43.25809655826512" lon="12.234538444547784"><ele>549.0</ele><time>2026-03-29T08:15:43.881Z</time></trkpt><trkpt lat="43.25801951365241" lon="12.234457782672669"><ele>550.0</ele><time>2026-03-29T08:15:44.881Z</time></trkpt><trkpt lat="43.2579671561725" lon="12.23436255436544"><ele>550.0</ele><time>2026-03-29T08:15:45.881Z</time></trkpt><trkpt lat="43.25792557957195" lon="12.234241258578805"><ele>550.0</ele><time>2026-03-29T08:15:46.881Z</time></trkpt><trkpt lat="43.25786002539332" lon="12.234096288924876"><ele>550.0</ele><time>2026-03-29T08:15:48.881Z</time></trkpt><trkpt lat="43.25784021221242" lon="12.234011187570243"><ele>550.0</ele><time>2026-03-29T08:15:49.881Z</time></trkpt><trkpt lat="43.25774131091717" lon="12.233927181477382"><ele>550.0</ele><time>2026-03-29T08:15:52.881Z</time></trkpt><trkpt lat="43.25766594153168" lon="12.233865218598806"><ele>548.6</ele><time>2026-03-29T08:15:54.881Z</time></trkpt><trkpt lat="43.25761093316618" lon="12.23391162617639"><ele>547.2</ele><time>2026-03-29T08:15:57.88Z</time></trkpt><trkpt lat="43.25752937528066" lon="12.233816877163939"><ele>545.8</ele><time>2026-03-29T08:15:59.88Z</time></trkpt><trkpt lat="43.25745977221952" lon="12.233715103095046"><ele>544.4</ele><time>2026-03-29T08:16:01.88Z</time></trkpt><trkpt lat="43.257407150764735" lon="12.233551526069435"><ele>543.0</ele><time>2026-03-29T08:16:03.88Z</time></trkpt><trkpt lat="43.25735439861098" lon="12.233500549377979"><ele>543.0</ele><time>2026-03-29T08:16:06.88Z</time></trkpt><trkpt lat="43.25729863379646" lon="12.23359114129546"><ele>543.0</ele><time>2026-03-29T08:16:08.88Z</time></trkpt><trkpt lat="43.25725552440606" lon="12.233669956517762"><ele>543.0</ele><time>2026-03-29T08:16:10.88Z</time></trkpt><trkpt lat="43.25718883764057" lon="12.233701313724593"><ele>543.0</ele><time>2026-03-29T08:16:11.88Z</time></trkpt><trkpt lat="43.25709496143452" lon="12.233732252229263"><ele>543.0</ele><time>2026-03-29T08:16:13.88Z</time></trkpt><trkpt lat="43.25702484222402" lon="12.233716761361702"><ele>543.0</ele><time>2026-03-29T08:16:16.88Z</time></trkpt><trkpt lat="43.25694742704758" lon="12.233742711034868"><ele>545.2857142857143</ele><time>2026-03-29T08:16:19.88Z</time></trkpt><trkpt lat="43.256884515585824" lon="12.233785464055886"><ele>547.5714285714286</ele><time>2026-03-29T08:16:21.88Z</time></trkpt><trkpt lat="43.256827249141914" lon="12.233840438310907"><ele>549.8571428571429</ele><time>2026-03-29T08:16:23.88Z</time></trkpt><trkpt lat="43.256767736326566" lon="12.233883413567698"><ele>552.1428571428571</ele><time>2026-03-29T08:16:25.88Z</time></trkpt><trkpt lat="43.25671011468616" lon="12.233953004578936"><ele>554.4285714285714</ele><time>2026-03-29T08:16:28.879Z</time></trkpt><trkpt lat="43.25662541519941" lon="12.234004021439274"><ele>556.7142857142858</ele><time>2026-03-29T08:16:30.879Z</time></trkpt><trkpt lat="43.256564091416045" lon="12.23403112039117"><ele>559.0</ele><time>2026-03-29T08:16:31.879Z</time></trkpt><trkpt lat="43.25648986572097" lon="12.234089368694955"><ele>561.0</ele><time>2026-03-29T08:16:33.879Z</time></trkpt><trkpt lat="43.25647479578329" lon="12.23424678461249"><ele>563.0</ele><time>2026-03-29T08:16:35.879Z</time></trkpt><trkpt lat="43.25651420173516" lon="12.234347981313183"><ele>565.0</ele><time>2026-03-29T08:16:36.879Z</time></trkpt><trkpt lat="43.25654558724142" lon="12.2344256546109"><ele>567.0</ele><time>2026-03-29T08:16:37.879Z</time></trkpt><trkpt lat="43.25649798716212" lon="12.234501173740368"><ele>569.0</ele><time>2026-03-29T08:16:40.879Z</time></trkpt><trkpt lat="43.25645402837716" lon="12.234573646294686"><ele>571.0</ele><time>2026-03-29T08:16:42.879Z</time></trkpt><trkpt lat="43.25643249683778" lon="12.234672160121661"><ele>572.0</ele><time>2026-03-29T08:16:44.879Z</time></trkpt><trkpt lat="43.256442341080025" lon="12.234793861421178"><ele>573.0</ele><time>2026-03-29T08:16:49.879Z</time></trkpt><trkpt lat="43.25640642464032" lon="12.234931309055128"><ele>574.0</ele><time>2026-03-29T08:16:51.879Z</time></trkpt><trkpt lat="43.256376900176456" lon="12.235032911233125"><ele>575.0</ele><time>2026-03-29T08:16:53.881Z</time></trkpt><trkpt lat="43.25636867351595" lon="12.235125603169308"><ele>576.0</ele><time>2026-03-29T08:16:54.881Z</time></trkpt><trkpt lat="43.256332854146365" lon="12.235232257449242"><ele>577.0</ele><time>2026-03-29T08:16:57.882Z</time></trkpt><trkpt lat="43.256321481523464" lon="12.235335174950036"><ele>579.1666666666667</ele><time>2026-03-29T08:16:59.881Z</time></trkpt><trkpt lat="43.2562897283347" lon="12.235433175333984"><ele>581.3333333333334</ele><time>2026-03-29T08:17:01.881Z</time></trkpt><trkpt lat="43.25628958049808" lon="12.23552277288615"><ele>583.5</ele><time>2026-03-29T08:17:03.881Z</time></trkpt><trkpt lat="43.25627926895673" lon="12.235612930213968"><ele>585.6666666666666</ele><time>2026-03-29T08:17:05.881Z</time></trkpt><trkpt lat="43.25622010993409" lon="12.235743176973978"><ele>587.8333333333333</ele><time>2026-03-29T08:17:07.881Z</time></trkpt><trkpt lat="43.25618467866009" lon="12.235826632493147"><ele>590.0</ele><time>2026-03-29T08:17:08.881Z</time></trkpt><trkpt lat="43.25614760018282" lon="12.235973080105678"><ele>593.2</ele><time>2026-03-29T08:17:10.881Z</time></trkpt><trkpt lat="43.25607201432072" lon="12.236032193520876"><ele>596.4</ele><time>2026-03-29T08:17:13.881Z</time></trkpt><trkpt lat="43.25599958920664" lon="12.23608807760734"><ele>599.6</ele><time>2026-03-29T08:17:15.881Z</time></trkpt><trkpt lat="43.25592535222796" lon="12.23609354962777"><ele>602.8</ele><time>2026-03-29T08:17:17.881Z</time></trkpt><trkpt lat="43.25583084332284" lon="12.236174928259867"><ele>606.0</ele><time>2026-03-29T08:17:20.88Z</time></trkpt><trkpt lat="43.255758189604286" lon="12.236258214949768"><ele>606.0</ele><time>2026-03-29T08:17:22.88Z</time></trkpt><trkpt lat="43.25575903686495" lon="12.236353128861856"><ele>606.0</ele><time>2026-03-29T08:17:23.88Z</time></trkpt><trkpt lat="43.25562999760362" lon="12.236684226278806"><ele>606.0</ele><time>2026-03-29T08:17:24.88Z</time></trkpt><trkpt lat="43.255607184403985" lon="12.236820796892252"><ele>606.0</ele><time>2026-03-29T08:17:25.88Z</time></trkpt><trkpt lat="43.255599906219146" lon="12.236918534504907"><ele>609.1666666666666</ele><time>2026-03-29T08:17:26.88Z</time></trkpt><trkpt lat="43.25555919141279" lon="12.237057907547024"><ele>612.3333333333334</ele><time>2026-03-29T08:17:29.88Z</time></trkpt><trkpt lat="43.25550334000583" lon="12.237157927592147"><ele>615.5</ele><time>2026-03-29T08:17:31.88Z</time></trkpt><trkpt lat="43.25545935152073" lon="12.237249515912675"><ele>618.6666666666667</ele><time>2026-03-29T08:17:33.88Z</time></trkpt><trkpt lat="43.25540917096944" lon="12.237309471611582"><ele>621.8333333333334</ele><time>2026-03-29T08:17:35.88Z</time></trkpt><trkpt lat="43.255362623566626" lon="12.237377806261055"><ele>625.0</ele><time>2026-03-29T08:17:37.88Z</time></trkpt><trkpt lat="43.25532492106713" lon="12.237463252881764"><ele>626.8</ele><time>2026-03-29T08:17:38.88Z</time></trkpt><trkpt lat="43.255250624263354" lon="12.237571096145665"><ele>628.6</ele><time>2026-03-29T08:17:40.88Z</time></trkpt><trkpt lat="43.255173464334874" lon="12.237628177829318"><ele>630.4</ele><time>2026-03-29T08:17:42.88Z</time></trkpt><trkpt lat="43.255126354083885" lon="12.237720619731897"><ele>632.2</ele><time>2026-03-29T08:17:44.88Z</time></trkpt><trkpt lat="43.25510528454963" lon="12.237808807795872"><ele>634.0</ele><time>2026-03-29T08:17:45.88Z</time></trkpt><trkpt lat="43.25518995976315" lon="12.237912543352774"><ele>634.0</ele><time>2026-03-29T08:17:47.88Z</time></trkpt><trkpt lat="43.25504870625299" lon="12.2380734678865"><ele>634.0</ele><time>2026-03-29T08:17:48.88Z</time></trkpt><trkpt lat="43.255009889050314" lon="12.238154417346342"><ele>634.0</ele><time>2026-03-29T08:17:49.88Z</time></trkpt><trkpt lat="43.25497765047707" lon="12.23824540561467"><ele>634.0</ele><time>2026-03-29T08:17:50.88Z</time></trkpt><trkpt lat="43.25492829389645" lon="12.238333920667905"><ele>634.0</ele><time>2026-03-29T08:17:52.88Z</time></trkpt><trkpt lat="43.254923993095595" lon="12.238425673816026"><ele>633.6666666666667</ele><time>2026-03-29T08:17:53.879Z</time></trkpt><trkpt lat="43.254908726423956" lon="12.238522573122548"><ele>633.3333333333334</ele><time>2026-03-29T08:17:54.879Z</time></trkpt><trkpt lat="43.2548537694687" lon="12.238615023181165"><ele>633.0</ele><time>2026-03-29T08:17:55.879Z</time></trkpt><trkpt lat="43.25481660376997" lon="12.238753798746892"><ele>632.6666666666666</ele><time>2026-03-29T08:17:57.879Z</time></trkpt><trkpt lat="43.2547925597046" lon="12.238839763607688"><ele>632.3333333333333</ele><time>2026-03-29T08:17:58.879Z</time></trkpt><trkpt lat="43.25477549872675" lon="12.238936087593828"><ele>632.0</ele><time>2026-03-29T08:17:59.879Z</time></trkpt><trkpt lat="43.25470870636644" lon="12.239041259178341"><ele>633.1666666666666</ele><time>2026-03-29T08:18:01.879Z</time></trkpt><trkpt lat="43.25465642743013" lon="12.239141791376968"><ele>634.3333333333333</ele><time>2026-03-29T08:18:03.879Z</time></trkpt><trkpt lat="43.25459030840763" lon="12.239207070719745"><ele>635.5</ele><time>2026-03-29T08:18:05.879Z</time></trkpt><trkpt lat="43.25452128932928" lon="12.239278675506084"><ele>636.6666666666666</ele><time>2026-03-29T08:18:07.879Z</time></trkpt><trkpt lat="43.254445647519866" lon="12.239346002212974"><ele>637.8333333333334</ele><time>2026-03-29T08:18:10.879Z</time></trkpt><trkpt lat="43.25437018166683" lon="12.23935985574669"><ele>639.0</ele><time>2026-03-29T08:18:12.879Z</time></trkpt><trkpt lat="43.254271023018426" lon="12.239328210506494"><ele>639.0</ele><time>2026-03-29T08:18:14.879Z</time></trkpt><trkpt lat="43.2541922537809" lon="12.239372340569355"><ele>639.0</ele><time>2026-03-29T08:18:17.879Z</time></trkpt><trkpt lat="43.253926079287176" lon="12.23952225231923"><ele>639.0</ele><time>2026-03-29T08:18:19.879Z</time></trkpt><trkpt lat="43.253845463261904" lon="12.239581314473059"><ele>639.5</ele><time>2026-03-29T08:18:21.879Z</time></trkpt><trkpt lat="43.2537635610685" lon="12.239594574909987"><ele>640.0</ele><time>2026-03-29T08:18:22.879Z</time></trkpt><trkpt lat="43.25369861265273" lon="12.239562841781698"><ele>640.5</ele><time>2026-03-29T08:18:28.878Z</time></trkpt><trkpt lat="43.2536346978357" lon="12.239566547835295"><ele>641.0</ele><time>2026-03-29T08:18:29.878Z</time></trkpt><trkpt lat="43.25351293168435" lon="12.239568087876638"><ele>641.5</ele><time>2026-03-29T08:18:31.878Z</time></trkpt><trkpt lat="43.25344490650806" lon="12.239556765152358"><ele>642.0</ele><time>2026-03-29T08:18:32.878Z</time></trkpt><trkpt lat="43.253353987865204" lon="12.239562816030581"><ele>642.0</ele><time>2026-03-29T08:18:33.878Z</time></trkpt><trkpt lat="43.253282101220464" lon="12.23959523484915"><ele>642.0</ele><time>2026-03-29T08:18:34.878Z</time></trkpt><trkpt lat="43.253207052161365" lon="12.239599521085813"><ele>642.0</ele><time>2026-03-29T08:18:35.878Z</time></trkpt><trkpt lat="43.25312591520189" lon="12.239605780993253"><ele>642.0</ele><time>2026-03-29T08:18:36.878Z</time></trkpt><trkpt lat="43.25303776040107" lon="12.239612715078863"><ele>642.0</ele><time>2026-03-29T08:18:37.878Z</time></trkpt><trkpt lat="43.25295589967213" lon="12.239611676190677"><ele>642.0</ele><time>2026-03-29T08:18:38.878Z</time></trkpt><trkpt lat="43.252863850863214" lon="12.23958602814973"><ele>641.6</ele><time>2026-03-29T08:18:39.878Z</time></trkpt><trkpt lat="43.252771125094405" lon="12.239571506137862"><ele>641.2</ele><time>2026-03-29T08:18:40.878Z</time></trkpt><trkpt lat="43.2526848476475" lon="12.239541508439684"><ele>640.8</ele><time>2026-03-29T08:18:41.878Z</time></trkpt><trkpt lat="43.252590272626584" lon="12.239509833960557"><ele>640.4</ele><time>2026-03-29T08:18:42.878Z</time></trkpt><trkpt lat="43.25247530090897" lon="12.239499277022741"><ele>640.0</ele><time>2026-03-29T08:18:44.878Z</time></trkpt><trkpt lat="43.2523986942076" lon="12.239503865266618"><ele>640.0</ele><time>2026-03-29T08:18:45.878Z</time></trkpt><trkpt lat="43.252297586855256" lon="12.23949036271197"><ele>640.0</ele><time>2026-03-29T08:18:46.878Z</time></trkpt><trkpt lat="43.252222685902545" lon="12.239485874800248"><ele>640.0</ele><time>2026-03-29T08:18:47.878Z</time></trkpt><trkpt lat="43.252125473809414" lon="12.239459381740977"><ele>640.0</ele><time>2026-03-29T08:18:48.878Z</time></trkpt><trkpt lat="43.25201711723205" lon="12.239452156545884"><ele>640.0</ele><time>2026-03-29T08:18:49.878Z</time></trkpt><trkpt lat="43.25193198983903" lon="12.239367799993207"><ele>642.0</ele><time>2026-03-29T08:18:52.878Z</time></trkpt><trkpt lat="43.25179798476483" lon="12.23928165926198"><ele>644.0</ele><time>2026-03-29T08:18:54.878Z</time></trkpt><trkpt lat="43.251693261568555" lon="12.239226284300916"><ele>646.0</ele><time>2026-03-29T08:18:55.878Z</time></trkpt><trkpt lat="43.25160193915793" lon="12.23915559027753"><ele>648.0</ele><time>2026-03-29T08:18:57.878Z</time></trkpt><trkpt lat="43.25147336317762" lon="12.23909808296512"><ele>648.0</ele><time>2026-03-29T08:19:00.88Z</time></trkpt><trkpt lat="43.2514057447959" lon="12.238893900481719"><ele>648.0</ele><time>2026-03-29T08:19:01.88Z</time></trkpt><trkpt lat="43.25126275358799" lon="12.238761204086634"><ele>648.0</ele><time>2026-03-29T08:19:03.88Z</time></trkpt><trkpt lat="43.25115529675913" lon="12.23869078869673"><ele>648.0</ele><time>2026-03-29T08:19:04.88Z</time></trkpt><trkpt lat="43.25106765371136" lon="12.238638810018847"><ele>648.0</ele><time>2026-03-29T08:19:05.88Z</time></trkpt><trkpt lat="43.251011631601855" lon="12.238575518986842"><ele>648.0</ele><time>2026-03-29T08:19:06.88Z</time></trkpt><trkpt lat="43.25094470544085" lon="12.238531531075198"><ele>648.0</ele><time>2026-03-29T08:19:07.88Z</time></trkpt><trkpt lat="43.25087846309089" lon="12.238489511259868"><ele>648.0</ele><time>2026-03-29T08:19:09.88Z</time></trkpt><trkpt lat="43.250690933299836" lon="12.238459459002451"><ele>648.2</ele><time>2026-03-29T08:19:11.88Z</time></trkpt><trkpt lat="43.250603482236954" lon="12.238465706180612"><ele>648.4</ele><time>2026-03-29T08:19:12.88Z</time></trkpt><trkpt lat="43.25051184927952" lon="12.238477334124745"><ele>648.6</ele><time>2026-03-29T08:19:13.88Z</time></trkpt><trkpt lat="43.250399012780974" lon="12.238476399554164"><ele>648.8000000000001</ele><time>2026-03-29T08:19:14.88Z</time></trkpt><trkpt lat="43.250286282426735" lon="12.238484436947386"><ele>649.0</ele><time>2026-03-29T08:19:15.88Z</time></trkpt><trkpt lat="43.250187558770385" lon="12.238488673154873"><ele>649.0</ele><time>2026-03-29T08:19:16.88Z</time></trkpt><trkpt lat="43.25008823498238" lon="12.238485867533273"><ele>649.0</ele><time>2026-03-29T08:19:17.88Z</time></trkpt><trkpt lat="43.250004642443756" lon="12.23848021495058"><ele>649.0</ele><time>2026-03-29T08:19:18.88Z</time></trkpt><trkpt lat="43.249917231083636" lon="12.23845548021484"><ele>649.0</ele><time>2026-03-29T08:19:19.88Z</time></trkpt><trkpt lat="43.24984460660447" lon="12.238441567718095"><ele>649.0</ele><time>2026-03-29T08:19:20.88Z</time></trkpt><trkpt lat="43.24975557349697" lon="12.238414548628045"><ele>649.0</ele><time>2026-03-29T08:19:21.88Z</time></trkpt><trkpt lat="43.24967132523972" lon="12.238381204270633"><ele>648.6666666666667</ele><time>2026-03-29T08:19:22.88Z</time></trkpt><trkpt lat="43.249601711007266" lon="12.238318654394238"><ele>648.3333333333334</ele><time>2026-03-29T08:19:23.88Z</time></trkpt><trkpt lat="43.249539694201054" lon="12.238232862877885"><ele>648.0</ele><time>2026-03-29T08:19:24.88Z</time></trkpt><trkpt lat="43.249457796800186" lon="12.238160968728122"><ele>647.6666666666666</ele><time>2026-03-29T08:19:25.88Z</time></trkpt><trkpt lat="43.24938732754094" lon="12.238098663570254"><ele>647.3333333333333</ele><time>2026-03-29T08:19:26.88Z</time></trkpt><trkpt lat="43.24934100591592" lon="12.23802970691846"><ele>647.0</ele><time>2026-03-29T08:19:27.88Z</time></trkpt><trkpt lat="43.24929791071312" lon="12.23792168000879"><ele>647.0</ele><time>2026-03-29T08:19:28.88Z</time></trkpt><trkpt lat="43.249258619116645" lon="12.237783715586202"><ele>647.0</ele><time>2026-03-29T08:19:29.88Z</time></trkpt><trkpt lat="43.24918892894637" lon="12.237671388913556"><ele>647.0</ele><time>2026-03-29T08:19:30.879Z</time></trkpt><trkpt lat="43.249086268427334" lon="12.237499766326046"><ele>647.0</ele><time>2026-03-29T08:19:31.879Z</time></trkpt><trkpt lat="43.249012520906696" lon="12.23734010280498"><ele>648.5</ele><time>2026-03-29T08:19:32.879Z</time></trkpt><trkpt lat="43.2489669280219" lon="12.237166336551041"><ele>650.0</ele><time>2026-03-29T08:19:33.879Z</time></trkpt><trkpt lat="43.24893951200542" lon="12.236999446928728"><ele>651.5</ele><time>2026-03-29T08:19:34.879Z</time></trkpt><trkpt lat="43.24892999163538" lon="12.236840419123723"><ele>653.0</ele><time>2026-03-29T08:19:35.879Z</time></trkpt><trkpt lat="43.24892185820352" lon="12.236705062769794"><ele>653.0</ele><time>2026-03-29T08:19:36.879Z</time></trkpt><trkpt lat="43.24889985003511" lon="12.236572008172313"><ele>653.0</ele><time>2026-03-29T08:19:37.879Z</time></trkpt><trkpt lat="43.24886227929328" lon="12.236419625661627"><ele>653.0</ele><time>2026-03-29T08:19:38.879Z</time></trkpt><trkpt lat="43.248809311408195" lon="12.23627782860754"><ele>653.0</ele><time>2026-03-29T08:19:39.879Z</time></trkpt><trkpt lat="43.24874768713245" lon="12.236144568964571"><ele>653.0</ele><time>2026-03-29T08:19:40.879Z</time></trkpt><trkpt lat="43.24869080302001" lon="12.23603213337591"><ele>650.4</ele><time>2026-03-29T08:19:41.879Z</time></trkpt><trkpt lat="43.24862179616825" lon="12.235936460639056"><ele>647.8</ele><time>2026-03-29T08:19:42.879Z</time></trkpt><trkpt lat="43.248537887317475" lon="12.23584032052945"><ele>645.2</ele><time>2026-03-29T08:19:43.879Z</time></trkpt><trkpt lat="43.248442734675955" lon="12.235730084085553"><ele>642.6</ele><time>2026-03-29T08:19:44.879Z</time></trkpt><trkpt lat="43.24834381079048" lon="12.235656650764772"><ele>640.0</ele><time>2026-03-29T08:19:45.879Z</time></trkpt><trkpt lat="43.24827824240251" lon="12.235609435781653"><ele>638.1666666666667</ele><time>2026-03-29T08:19:46.879Z</time></trkpt><trkpt lat="43.24823436718628" lon="12.235494058820057"><ele>636.3333333333334</ele><time>2026-03-29T08:19:48.879Z</time></trkpt><trkpt lat="43.248209507255446" lon="12.235405414747383"><ele>634.5</ele><time>2026-03-29T08:19:49.879Z</time></trkpt><trkpt lat="43.24817998690189" lon="12.235325237292322"><ele>632.6666666666666</ele><time>2026-03-29T08:19:51.879Z</time></trkpt><trkpt lat="43.24815948441003" lon="12.235235230066637"><ele>630.8333333333333</ele><time>2026-03-29T08:20:29.878Z</time></trkpt><trkpt lat="43.248131869234534" lon="12.235148910997227"><ele>629.0</ele><time>2026-03-29T08:20:30.878Z</time></trkpt><trkpt lat="43.248075129204864" lon="12.235026216612544"><ele>628.5</ele><time>2026-03-29T08:20:31.878Z</time></trkpt><trkpt lat="43.24801897876848" lon="12.234940013032586"><ele>628.0</ele><time>2026-03-29T08:20:32.878Z</time></trkpt><trkpt lat="43.24787058209214" lon="12.234997187243978"><ele>627.5</ele><time>2026-03-29T08:20:33.878Z</time></trkpt><trkpt lat="43.247904771953365" lon="12.23479947200652"><ele>627.0</ele><time>2026-03-29T08:20:34.878Z</time></trkpt><trkpt lat="43.247841681599006" lon="12.234734566374112"><ele>627.0</ele><time>2026-03-29T08:20:35.878Z</time></trkpt><trkpt lat="43.24777821978364" lon="12.234669612650517"><ele>627.0</ele><time>2026-03-29T08:20:36.878Z</time></trkpt><trkpt lat="43.247716376589096" lon="12.234599930507397"><ele>627.0</ele><time>2026-03-29T08:20:37.877Z</time></trkpt><trkpt lat="43.24762192037264" lon="12.234456814060751"><ele>627.0</ele><time>2026-03-29T08:20:39.877Z</time></trkpt><trkpt lat="43.24757521797866" lon="12.23437832157165"><ele>627.0</ele><time>2026-03-29T08:20:40.877Z</time></trkpt><trkpt lat="43.24752964373493" lon="12.234296482265284"><ele>627.0</ele><time>2026-03-29T08:20:41.877Z</time></trkpt><trkpt lat="43.24749416825544" lon="12.234217040599288"><ele>627.0</ele><time>2026-03-29T08:20:42.877Z</time></trkpt><trkpt lat="43.24744978896855" lon="12.234125686163669"><ele>627.0</ele><time>2026-03-29T08:20:43.877Z</time></trkpt><trkpt lat="43.247406637359205" lon="12.233989533532155"><ele>627.0</ele><time>2026-03-29T08:20:44.877Z</time></trkpt><trkpt lat="43.2473766413382" lon="12.233853059208133"><ele>627.0</ele><time>2026-03-29T08:20:45.877Z</time></trkpt><trkpt lat="43.247345109986355" lon="12.233731428364747"><ele>627.0</ele><time>2026-03-29T08:20:46.877Z</time></trkpt><trkpt lat="43.247307241128" lon="12.233618626897472"><ele>624.5</ele><time>2026-03-29T08:20:47.877Z</time></trkpt><trkpt lat="43.24727626730786" lon="12.233517762066016"><ele>622.0</ele><time>2026-03-29T08:20:48.877Z</time></trkpt><trkpt lat="43.247260212736265" lon="12.233402617208963"><ele>619.5</ele><time>2026-03-29T08:20:49.877Z</time></trkpt><trkpt lat="43.24725157811413" lon="12.233273034697701"><ele>617.0</ele><time>2026-03-29T08:20:50.877Z</time></trkpt><trkpt lat="43.24722558621287" lon="12.233153630534567"><ele>614.5</ele><time>2026-03-29T08:20:51.877Z</time></trkpt><trkpt lat="43.24718458192849" lon="12.233039368890333"><ele>612.0</ele><time>2026-03-29T08:20:52.877Z</time></trkpt><trkpt lat="43.24713526658313" lon="12.232935177261814"><ele>612.0</ele><time>2026-03-29T08:20:53.877Z</time></trkpt><trkpt lat="43.24708331753646" lon="12.232844806814608"><ele>612.0</ele><time>2026-03-29T08:20:54.877Z</time></trkpt><trkpt lat="43.247024782538304" lon="12.232756163946593"><ele>612.0</ele><time>2026-03-29T08:20:55.877Z</time></trkpt><trkpt lat="43.246987245970296" lon="12.232674849314549"><ele>612.0</ele><time>2026-03-29T08:20:56.877Z</time></trkpt><trkpt lat="43.24694669553052" lon="12.232578214852118"><ele>612.0</ele><time>2026-03-29T08:20:57.877Z</time></trkpt><trkpt lat="43.246908440342885" lon="12.232474159203427"><ele>612.0</ele><time>2026-03-29T08:20:58.877Z</time></trkpt><trkpt lat="43.24687523316578" lon="12.232367419498747"><ele>612.6666666666666</ele><time>2026-03-29T08:20:59.877Z</time></trkpt><trkpt lat="43.246843789500176" lon="12.23226099978387"><ele>613.3333333333334</ele><time>2026-03-29T08:21:00.877Z</time></trkpt><trkpt lat="43.24681445806442" lon="12.232172588670185"><ele>614.0</ele><time>2026-03-29T08:21:01.877Z</time></trkpt><trkpt lat="43.24678256911553" lon="12.23207300765911"><ele>614.6666666666667</ele><time>2026-03-29T08:21:02.877Z</time></trkpt><trkpt lat="43.24674541910739" lon="12.23198940272952"><ele>615.3333333333334</ele><time>2026-03-29T08:21:03.877Z</time></trkpt><trkpt lat="43.246698378252354" lon="12.231913781411851"><ele>616.0</ele><time>2026-03-29T08:21:04.877Z</time></trkpt><trkpt lat="43.24665578952798" lon="12.23181668576085"><ele>616.0</ele><time>2026-03-29T08:21:05.879Z</time></trkpt><trkpt lat="43.246614599544245" lon="12.2317229030513"><ele>616.0</ele><time>2026-03-29T08:21:06.879Z</time></trkpt><trkpt lat="43.24658120899935" lon="12.231623271643446"><ele>616.0</ele><time>2026-03-29T08:21:07.879Z</time></trkpt><trkpt lat="43.24650219715586" lon="12.231485479338414"><ele>616.0</ele><time>2026-03-29T08:21:09.879Z</time></trkpt><trkpt lat="43.24642663590084" lon="12.231414798664094"><ele>616.0</ele><time>2026-03-29T08:21:10.879Z</time></trkpt><trkpt lat="43.24633982574545" lon="12.231344702888938"><ele>612.4</ele><time>2026-03-29T08:21:11.878Z</time></trkpt><trkpt lat="43.246253344238404" lon="12.231265911268256"><ele>608.8</ele><time>2026-03-29T08:21:12.878Z</time></trkpt><trkpt lat="43.24616408510752" lon="12.231190893519416"><ele>605.1999999999999</ele><time>2026-03-29T08:21:13.878Z</time></trkpt><trkpt lat="43.24608601339232" lon="12.231117497896651"><ele>601.6</ele><time>2026-03-29T08:21:14.879Z</time></trkpt><trkpt lat="43.2460055171688" lon="12.231035235332552"><ele>598.0</ele><time>2026-03-29T08:21:15.878Z</time></trkpt><trkpt lat="43.24591941681463" lon="12.230960775890305"><ele>598.0</ele><time>2026-03-29T08:21:16.878Z</time></trkpt><trkpt lat="43.24584096895417" lon="12.230877509783609"><ele>598.0</ele><time>2026-03-29T08:21:17.879Z</time></trkpt><trkpt lat="43.24575957939" lon="12.230802949689991"><ele>598.0</ele><time>2026-03-29T08:21:18.878Z</time></trkpt><trkpt lat="43.24567683571057" lon="12.230736932278448"><ele>598.0</ele><time>2026-03-29T08:21:19.878Z</time></trkpt><trkpt lat="43.24559633971567" lon="12.230650976958522"><ele>598.0</ele><time>2026-03-29T08:21:20.878Z</time></trkpt><trkpt lat="43.245508595659864" lon="12.230560552736176"><ele>596.1999999999999</ele><time>2026-03-29T08:21:21.878Z</time></trkpt><trkpt lat="43.245420923343225" lon="12.230468758012869"><ele>594.4</ele><time>2026-03-29T08:21:22.878Z</time></trkpt><trkpt lat="43.24534187338622" lon="12.230381349669205"><ele>592.5999999999999</ele><time>2026-03-29T08:21:23.878Z</time></trkpt><trkpt lat="43.24524890638329" lon="12.230283138517956"><ele>590.8</ele><time>2026-03-29T08:21:24.878Z</time></trkpt><trkpt lat="43.245151852941916" lon="12.23018792489746"><ele>589.0</ele><time>2026-03-29T08:21:25.878Z</time></trkpt><trkpt lat="43.24505403964982" lon="12.230091544064386"><ele>589.0</ele><time>2026-03-29T08:21:26.878Z</time></trkpt><trkpt lat="43.244961843809385" lon="12.229992397838169"><ele>589.0</ele><time>2026-03-29T08:21:27.878Z</time></trkpt><trkpt lat="43.24486310484157" lon="12.229882551207181"><ele>589.0</ele><time>2026-03-29T08:21:28.878Z</time></trkpt><trkpt lat="43.24476059703728" lon="12.229779414730103"><ele>589.0</ele><time>2026-03-29T08:21:29.878Z</time></trkpt><trkpt lat="43.244652006227795" lon="12.229677369545568"><ele>586.25</ele><time>2026-03-29T08:21:30.878Z</time></trkpt><trkpt lat="43.2445500364029" lon="12.229573878550008"><ele>583.5</ele><time>2026-03-29T08:21:31.878Z</time></trkpt><trkpt lat="43.244450378765244" lon="12.229468974817662"><ele>580.75</ele><time>2026-03-29T08:21:32.878Z</time></trkpt><trkpt lat="43.244355811746736" lon="12.229366676093964"><ele>578.0</ele><time>2026-03-29T08:21:33.878Z</time></trkpt><trkpt lat="43.24426553470818" lon="12.229260835736461"><ele>578.0</ele><time>2026-03-29T08:21:34.878Z</time></trkpt><trkpt lat="43.244202903081195" lon="12.229121546963524"><ele>578.0</ele><time>2026-03-29T08:21:35.878Z</time></trkpt><trkpt lat="43.244183389408064" lon="12.2289784061312"><ele>578.0</ele><time>2026-03-29T08:21:36.877Z</time></trkpt><trkpt lat="43.244216361748386" lon="12.228821204105284"><ele>578.0</ele><time>2026-03-29T08:21:37.877Z</time></trkpt><trkpt lat="43.24427489646509" lon="12.228680589841048"><ele>576.75</ele><time>2026-03-29T08:21:38.877Z</time></trkpt><trkpt lat="43.24435961137306" lon="12.228549775810222"><ele>575.5</ele><time>2026-03-29T08:21:39.877Z</time></trkpt><trkpt lat="43.244441376699164" lon="12.228424312242158"><ele>574.25</ele><time>2026-03-29T08:21:40.877Z</time></trkpt><trkpt lat="43.24450980977237" lon="12.228297807156833"><ele>573.0</ele><time>2026-03-29T08:21:41.877Z</time></trkpt><trkpt lat="43.244569304457926" lon="12.228167303816736"><ele>572.4</ele><time>2026-03-29T08:21:42.877Z</time></trkpt><trkpt lat="43.24461515059514" lon="12.228034336715414"><ele>571.8</ele><time>2026-03-29T08:21:43.877Z</time></trkpt><trkpt lat="43.24464934228556" lon="12.227891201883486"><ele>571.2</ele><time>2026-03-29T08:21:44.877Z</time></trkpt><trkpt lat="43.24465575825168" lon="12.227741166017463"><ele>570.6</ele><time>2026-03-29T08:21:45.877Z</time></trkpt><trkpt lat="43.24463783969918" lon="12.227598246475209"><ele>570.0</ele><time>2026-03-29T08:21:46.877Z</time></trkpt><trkpt lat="43.24460216309473" lon="12.227466460876949"><ele>570.0</ele><time>2026-03-29T08:21:47.877Z</time></trkpt><trkpt lat="43.244547604800104" lon="12.227351642326173"><ele>570.0</ele><time>2026-03-29T08:21:48.877Z</time></trkpt><trkpt lat="43.244484032307675" lon="12.227247608226982"><ele>570.0</ele><time>2026-03-29T08:21:49.877Z</time></trkpt><trkpt lat="43.24442323756979" lon="12.22714726325966"><ele>570.0</ele><time>2026-03-29T08:21:50.877Z</time></trkpt><trkpt lat="43.244361855812585" lon="12.227040445090287"><ele>570.0</ele><time>2026-03-29T08:21:51.877Z</time></trkpt><trkpt lat="43.24429857063095" lon="12.226933072324956"><ele>570.75</ele><time>2026-03-29T08:21:52.877Z</time></trkpt><trkpt lat="43.244234617803336" lon="12.226820246743912"><ele>571.5</ele><time>2026-03-29T08:21:53.877Z</time></trkpt><trkpt lat="43.24416306777505" lon="12.226697860779636"><ele>572.25</ele><time>2026-03-29T08:21:54.877Z</time></trkpt><trkpt lat="43.24408769332069" lon="12.226566194731934"><ele>573.0</ele><time>2026-03-29T08:21:55.877Z</time></trkpt><trkpt lat="43.24401344219218" lon="12.226433114743232"><ele>574.8333333333334</ele><time>2026-03-29T08:21:56.877Z</time></trkpt><trkpt lat="43.243951526712294" lon="12.226313686551801"><ele>576.6666666666666</ele><time>2026-03-29T08:21:57.877Z</time></trkpt><trkpt lat="43.24390535265981" lon="12.226192969766753"><ele>578.5</ele><time>2026-03-29T08:21:58.877Z</time></trkpt><trkpt lat="43.24387480672593" lon="12.226080409574536"><ele>580.3333333333333</ele><time>2026-03-29T08:21:59.877Z</time></trkpt><trkpt lat="43.243857387256014" lon="12.225989453443074"><ele>582.1666666666666</ele><time>2026-03-29T08:22:00.877Z</time></trkpt><trkpt lat="43.24380856103526" lon="12.225893396452443"><ele>584.0</ele><time>2026-03-29T08:22:02.877Z</time></trkpt><trkpt lat="43.24369283696094" lon="12.22584077293279"><ele>584.0</ele><time>2026-03-29T08:22:04.877Z</time></trkpt><trkpt lat="43.243612343411165" lon="12.22580150131752"><ele>584.0</ele><time>2026-03-29T08:22:05.877Z</time></trkpt><trkpt lat="43.24350764591949" lon="12.225775379371987"><ele>584.0</ele><time>2026-03-29T08:22:06.877Z</time></trkpt><trkpt lat="43.2433841335689" lon="12.225756610373743"><ele>584.0</ele><time>2026-03-29T08:22:07.877Z</time></trkpt><trkpt lat="43.24323434127906" lon="12.225726017577864"><ele>582.0</ele><time>2026-03-29T08:22:08.877Z</time></trkpt><trkpt lat="43.24306598931973" lon="12.225681440609598"><ele>580.0</ele><time>2026-03-29T08:22:09.876Z</time></trkpt><trkpt lat="43.24293889586963" lon="12.225634789777423"><ele>578.0</ele><time>2026-03-29T08:22:10.876Z</time></trkpt><trkpt lat="43.24283305988206" lon="12.225573954343021"><ele>576.0</ele><time>2026-03-29T08:22:11.876Z</time></trkpt><trkpt lat="43.242738197500984" lon="12.22550664827589"><ele>583.0</ele><time>2026-03-29T08:22:12.876Z</time></trkpt><trkpt lat="43.24262429022802" lon="12.225409618632186"><ele>590.0</ele><time>2026-03-29T08:22:13.876Z</time></trkpt><trkpt lat="43.24254019569399" lon="12.225311967728324"><ele>597.0</ele><time>2026-03-29T08:22:14.876Z</time></trkpt><trkpt lat="43.242470205436504" lon="12.225245917167717"><ele>604.0</ele><time>2026-03-29T08:22:15.876Z</time></trkpt><trkpt lat="43.2424202104136" lon="12.22519259355284"><ele>611.0</ele><time>2026-03-29T08:22:16.876Z</time></trkpt><trkpt lat="43.24232647307862" lon="12.225116276668514"><ele>611.4</ele><time>2026-03-29T08:22:18.876Z</time></trkpt><trkpt lat="43.24227249044698" lon="12.225048181584986"><ele>611.8</ele><time>2026-03-29T08:22:20.876Z</time></trkpt><trkpt lat="43.24221032701812" lon="12.224943592531007"><ele>612.1999999999999</ele><time>2026-03-29T08:22:22.876Z</time></trkpt><trkpt lat="43.24214213287292" lon="12.224854167605878"><ele>612.6</ele><time>2026-03-29T08:22:24.876Z</time></trkpt><trkpt lat="43.24209448538909" lon="12.224715263719279"><ele>613.0</ele><time>2026-03-29T08:22:26.876Z</time></trkpt><trkpt lat="43.242020517086495" lon="12.224694526052367"><ele>613.0</ele><time>2026-03-29T08:22:27.876Z</time></trkpt><trkpt lat="43.24193687281278" lon="12.224658303452463"><ele>613.0</ele><time>2026-03-29T08:22:28.876Z</time></trkpt><trkpt lat="43.24187873358805" lon="12.224598540121884"><ele>613.0</ele><time>2026-03-29T08:22:29.876Z</time></trkpt><trkpt lat="43.241839376036815" lon="12.224529465456005"><ele>613.0</ele><time>2026-03-29T08:22:30.876Z</time></trkpt><trkpt lat="43.24184641432252" lon="12.224338013846944"><ele>613.0</ele><time>2026-03-29T08:22:32.876Z</time></trkpt><trkpt lat="43.24185228770646" lon="12.22423246331305"><ele>613.0</ele><time>2026-03-29T08:22:33.876Z</time></trkpt><trkpt lat="43.24185800591806" lon="12.2241326736523"><ele>613.0</ele><time>2026-03-29T08:22:34.876Z</time></trkpt><trkpt lat="43.241872723201865" lon="12.224031366870742"><ele>613.0</ele><time>2026-03-29T08:22:35.876Z</time></trkpt><trkpt lat="43.24189243250325" lon="12.223937709246725"><ele>613.0</ele><time>2026-03-29T08:22:36.876Z</time></trkpt><trkpt lat="43.24190143543129" lon="12.223844805183653"><ele>613.0</ele><time>2026-03-29T08:22:37.876Z</time></trkpt><trkpt lat="43.241869623464844" lon="12.22372908999869"><ele>613.0</ele><time>2026-03-29T08:22:39.876Z</time></trkpt><trkpt lat="43.2418595804002" lon="12.223626092552527"><ele>613.0</ele><time>2026-03-29T08:22:41.876Z</time></trkpt><trkpt lat="43.24181950298476" lon="12.223491982984577"><ele>614.1666666666667</ele><time>2026-03-29T08:22:45.875Z</time></trkpt><trkpt lat="43.24174557714904" lon="12.223425410974453"><ele>615.3333333333334</ele><time>2026-03-29T08:22:47.875Z</time></trkpt><trkpt lat="43.241670346675534" lon="12.223352260398432"><ele>616.5</ele><time>2026-03-29T08:22:49.875Z</time></trkpt><trkpt lat="43.24161050936363" lon="12.223271057177726"><ele>617.6666666666666</ele><time>2026-03-29T08:22:52.875Z</time></trkpt><trkpt lat="43.2415942977898" lon="12.22316787472182"><ele>618.8333333333333</ele><time>2026-03-29T08:22:55.875Z</time></trkpt><trkpt lat="43.24155216223167" lon="12.223067612826144"><ele>620.0</ele><time>2026-03-29T08:22:59.875Z</time></trkpt><trkpt lat="43.241474050561955" lon="12.223027768809073"><ele>617.8333333333333</ele><time>2026-03-29T08:23:04.875Z</time></trkpt><trkpt lat="43.24140831837335" lon="12.222925782472087"><ele>615.6666666666666</ele><time>2026-03-29T08:23:08.875Z</time></trkpt><trkpt lat="43.241424060215586" lon="12.222768639715799"><ele>613.5</ele><time>2026-03-29T08:23:10.875Z</time></trkpt><trkpt lat="43.24143014440926" lon="12.22267418371575"><ele>611.3333333333334</ele><time>2026-03-29T08:23:11.877Z</time></trkpt><trkpt lat="43.241436251586705" lon="12.222580823496543"><ele>609.1666666666667</ele><time>2026-03-29T08:23:12.877Z</time></trkpt><trkpt lat="43.24141207386877" lon="12.222482588255334"><ele>607.0</ele><time>2026-03-29T08:23:14.877Z</time></trkpt><trkpt lat="43.241326243184425" lon="12.22244502442674"><ele>607.0</ele><time>2026-03-29T08:23:16.877Z</time></trkpt><trkpt lat="43.24124620588059" lon="12.22243752750042"><ele>607.0</ele><time>2026-03-29T08:23:17.877Z</time></trkpt><trkpt lat="43.2411741847279" lon="12.222447188977734"><ele>607.0</ele><time>2026-03-29T08:23:18.877Z</time></trkpt><trkpt lat="43.24108807386255" lon="12.222461730839141"><ele>607.0</ele><time>2026-03-29T08:23:19.877Z</time></trkpt><trkpt lat="43.240978144854324" lon="12.222480508053657"><ele>607.0</ele><time>2026-03-29T08:23:20.877Z</time></trkpt><trkpt lat="43.24082700315675" lon="12.222507746909798"><ele>607.0</ele><time>2026-03-29T08:23:21.877Z</time></trkpt><trkpt lat="43.24066332702488" lon="12.222581751627832"><ele>607.0</ele><time>2026-03-29T08:23:22.877Z</time></trkpt><trkpt lat="43.24052643812029" lon="12.222653956779663"><ele>607.0</ele><time>2026-03-29T08:23:23.877Z</time></trkpt><trkpt lat="43.24039259565462" lon="12.222694818876246"><ele>604.75</ele><time>2026-03-29T08:23:24.877Z</time></trkpt><trkpt lat="43.24026978781998" lon="12.222697449858698"><ele>602.5</ele><time>2026-03-29T08:23:25.877Z</time></trkpt><trkpt lat="43.24015268316649" lon="12.222674623799504"><ele>600.25</ele><time>2026-03-29T08:23:26.877Z</time></trkpt><trkpt lat="43.240043160125346" lon="12.222632298914794"><ele>598.0</ele><time>2026-03-29T08:23:27.877Z</time></trkpt><trkpt lat="43.23992179227524" lon="12.22254222342838"><ele>596.6666666666667</ele><time>2026-03-29T08:23:28.877Z</time></trkpt><trkpt lat="43.2397710648515" lon="12.222451997092147"><ele>595.3333333333334</ele><time>2026-03-29T08:23:29.877Z</time></trkpt><trkpt lat="43.23960952876916" lon="12.222349910978197"><ele>594.0</ele><time>2026-03-29T08:23:30.877Z</time></trkpt><trkpt lat="43.23940756417624" lon="12.222218330268284"><ele>594.0</ele><time>2026-03-29T08:23:31.877Z</time></trkpt><trkpt lat="43.23921403403086" lon="12.222097667690639"><ele>594.0</ele><time>2026-03-29T08:23:32.877Z</time></trkpt><trkpt lat="43.23905015016965" lon="12.22200086206204"><ele>594.0</ele><time>2026-03-29T08:23:33.877Z</time></trkpt><trkpt lat="43.23888292255806" lon="12.221908736308693"><ele>596.5</ele><time>2026-03-29T08:23:34.877Z</time></trkpt><trkpt lat="43.23873988042426" lon="12.22182443023562"><ele>599.0</ele><time>2026-03-29T08:23:35.877Z</time></trkpt><trkpt lat="43.23860955901786" lon="12.221750979251343"><ele>601.5</ele><time>2026-03-29T08:23:36.876Z</time></trkpt><trkpt lat="43.23848281931722" lon="12.221672698417715"><ele>604.0</ele><time>2026-03-29T08:23:37.876Z</time></trkpt><trkpt lat="43.23837094697723" lon="12.221608282472145"><ele>604.0</ele><time>2026-03-29T08:23:38.876Z</time></trkpt><trkpt lat="43.23826632224884" lon="12.221538503387878"><ele>604.0</ele><time>2026-03-29T08:23:39.876Z</time></trkpt><trkpt lat="43.23816939035292" lon="12.221472624764411"><ele>604.0</ele><time>2026-03-29T08:23:40.876Z</time></trkpt><trkpt lat="43.23807590210441" lon="12.221403965385012"><ele>604.0</ele><time>2026-03-29T08:23:41.876Z</time></trkpt><trkpt lat="43.23798524695955" lon="12.221340732082878"><ele>604.0</ele><time>2026-03-29T08:23:42.876Z</time></trkpt><trkpt lat="43.237889867091674" lon="12.22127935349116"><ele>601.2</ele><time>2026-03-29T08:23:43.876Z</time></trkpt><trkpt lat="43.23779229992986" lon="12.22123058451105"><ele>598.4</ele><time>2026-03-29T08:23:44.876Z</time></trkpt><trkpt lat="43.237691758385424" lon="12.22120322268914"><ele>595.6</ele><time>2026-03-29T08:23:45.876Z</time></trkpt><trkpt lat="43.23758769073925" lon="12.221168153156166"><ele>592.8</ele><time>2026-03-29T08:23:46.876Z</time></trkpt><trkpt lat="43.237483886517765" lon="12.221160650197604"><ele>590.0</ele><time>2026-03-29T08:23:47.876Z</time></trkpt><trkpt lat="43.23737105287547" lon="12.221148695083485"><ele>588.25</ele><time>2026-03-29T08:23:48.876Z</time></trkpt><trkpt lat="43.23725657411425" lon="12.221129007179051"><ele>586.5</ele><time>2026-03-29T08:23:49.876Z</time></trkpt><trkpt lat="43.23714201659923" lon="12.22110743006481"><ele>584.75</ele><time>2026-03-29T08:23:50.876Z</time></trkpt><trkpt lat="43.23702860405512" lon="12.221094427973313"><ele>583.0</ele><time>2026-03-29T08:23:51.876Z</time></trkpt><trkpt lat="43.236913138626164" lon="12.221078988313412"><ele>583.0</ele><time>2026-03-29T08:23:52.876Z</time></trkpt><trkpt lat="43.236804904692264" lon="12.221047972182006"><ele>583.0</ele><time>2026-03-29T08:23:53.876Z</time></trkpt><trkpt lat="43.2367088973727" lon="12.220987540112944"><ele>583.0</ele><time>2026-03-29T08:23:54.876Z</time></trkpt><trkpt lat="43.23659382712239" lon="12.220939354994838"><ele>583.0</ele><time>2026-03-29T08:23:55.876Z</time></trkpt><trkpt lat="43.23650544663413" lon="12.220858410168685"><ele>583.0</ele><time>2026-03-29T08:23:56.876Z</time></trkpt><trkpt lat="43.23643838013556" lon="12.22075926677248"><ele>579.8</ele><time>2026-03-29T08:23:57.876Z</time></trkpt><trkpt lat="43.23638628147611" lon="12.220654148882701"><ele>576.5999999999999</ele><time>2026-03-29T08:23:58.876Z</time></trkpt><trkpt lat="43.23633864796207" lon="12.220546513589184"><ele>573.4000000000001</ele><time>2026-03-29T08:23:59.876Z</time></trkpt><trkpt lat="43.23630065465428" lon="12.220421119261914"><ele>570.2</ele><time>2026-03-29T08:24:00.876Z</time></trkpt><trkpt lat="43.23625259167807" lon="12.220260531392825"><ele>567.0</ele><time>2026-03-29T08:24:01.876Z</time></trkpt><trkpt lat="43.23620964683202" lon="12.2201164537322"><ele>567.0</ele><time>2026-03-29T08:24:02.876Z</time></trkpt><trkpt lat="43.236175577451384" lon="12.219963132763237"><ele>567.0</ele><time>2026-03-29T08:24:03.876Z</time></trkpt><trkpt lat="43.23615330143724" lon="12.219825579744388"><ele>567.0</ele><time>2026-03-29T08:24:04.876Z</time></trkpt><trkpt lat="43.236135996844865" lon="12.219699654848837"><ele>567.0</ele><time>2026-03-29T08:24:05.876Z</time></trkpt><trkpt lat="43.23611260733478" lon="12.219576388761823"><ele>567.0</ele><time>2026-03-29T08:24:06.876Z</time></trkpt><trkpt lat="43.23609513100287" lon="12.219440860370518"><ele>567.0</ele><time>2026-03-29T08:24:07.876Z</time></trkpt><trkpt lat="43.23607136992266" lon="12.219311624433782"><ele>567.0</ele><time>2026-03-29T08:24:08.876Z</time></trkpt><trkpt lat="43.23604186326273" lon="12.219184155863566"><ele>567.0</ele><time>2026-03-29T08:24:09.876Z</time></trkpt><trkpt lat="43.23601643576337" lon="12.219059515952184"><ele>567.0</ele><time>2026-03-29T08:24:10.875Z</time></trkpt><trkpt lat="43.23598740719216" lon="12.21896278312441"><ele>567.0</ele><time>2026-03-29T08:24:11.875Z</time></trkpt><trkpt lat="43.235905510876336" lon="12.218813569028743"><ele>567.1666666666666</ele><time>2026-03-29T08:24:13.875Z</time></trkpt><trkpt lat="43.23585181988394" lon="12.218747795222491"><ele>567.3333333333334</ele><time>2026-03-29T08:24:14.875Z</time></trkpt><trkpt lat="43.23579671167363" lon="12.21869161764965"><ele>567.5</ele><time>2026-03-29T08:24:15.875Z</time></trkpt><trkpt lat="43.23573178182943" lon="12.21862070755713"><ele>567.6666666666667</ele><time>2026-03-29T08:24:16.875Z</time></trkpt><trkpt lat="43.23566007385378" lon="12.218544514771306"><ele>567.8333333333334</ele><time>2026-03-29T08:24:17.875Z</time></trkpt><trkpt lat="43.23560558447287" lon="12.218468607044693"><ele>568.0</ele><time>2026-03-29T08:24:18.875Z</time></trkpt><trkpt lat="43.235543089108425" lon="12.218417289738913"><ele>566.8333333333334</ele><time>2026-03-29T08:24:19.875Z</time></trkpt><trkpt lat="43.235484785544145" lon="12.218383884838222"><ele>565.6666666666667</ele><time>2026-03-29T08:24:20.875Z</time></trkpt><trkpt lat="43.235376750025196" lon="12.218311992179293"><ele>564.5</ele><time>2026-03-29T08:24:22.875Z</time></trkpt><trkpt lat="43.23531961105392" lon="12.21826930811848"><ele>563.3333333333334</ele><time>2026-03-29T08:24:23.875Z</time></trkpt><trkpt lat="43.23525872983828" lon="12.218237100021618"><ele>562.1666666666666</ele><time>2026-03-29T08:24:24.875Z</time></trkpt><trkpt lat="43.235198180556004" lon="12.218204135884193"><ele>561.0</ele><time>2026-03-29T08:24:25.875Z</time></trkpt><trkpt lat="43.23513300272493" lon="12.218162095320071"><ele>561.5</ele><time>2026-03-29T08:24:26.875Z</time></trkpt><trkpt lat="43.235062932516946" lon="12.218111905513485"><ele>562.0</ele><time>2026-03-29T08:24:27.875Z</time></trkpt><trkpt lat="43.23498557866486" lon="12.218051102364344"><ele>562.5</ele><time>2026-03-29T08:24:28.875Z</time></trkpt><trkpt lat="43.234907672009584" lon="12.217985130933956"><ele>563.0</ele><time>2026-03-29T08:24:29.875Z</time></trkpt><trkpt lat="43.23483506426641" lon="12.217914156846899"><ele>563.5</ele><time>2026-03-29T08:24:30.875Z</time></trkpt><trkpt lat="43.234757151007656" lon="12.217833678447732"><ele>564.0</ele><time>2026-03-29T08:24:31.875Z</time></trkpt><trkpt lat="43.23468652429459" lon="12.217766817055551"><ele>562.4</ele><time>2026-03-29T08:24:32.875Z</time></trkpt><trkpt lat="43.234621058354655" lon="12.217665737647758"><ele>560.8</ele><time>2026-03-29T08:24:33.875Z</time></trkpt><trkpt lat="43.23455901649124" lon="12.21755663697697"><ele>559.2</ele><time>2026-03-29T08:24:34.875Z</time></trkpt><trkpt lat="43.234497144411684" lon="12.217447306621947"><ele>557.6</ele><time>2026-03-29T08:24:35.875Z</time></trkpt><trkpt lat="43.23443929873346" lon="12.217351538465346"><ele>556.0</ele><time>2026-03-29T08:24:36.875Z</time></trkpt><trkpt lat="43.23439300068613" lon="12.217246760954373"><ele>556.0</ele><time>2026-03-29T08:24:37.875Z</time></trkpt><trkpt lat="43.2343445013452" lon="12.217133393288588"><ele>556.0</ele><time>2026-03-29T08:24:38.875Z</time></trkpt><trkpt lat="43.234310337716614" lon="12.216984659467403"><ele>556.0</ele><time>2026-03-29T08:24:39.875Z</time></trkpt><trkpt lat="43.234274727027255" lon="12.216834394405208"><ele>556.0</ele><time>2026-03-29T08:24:40.875Z</time></trkpt><trkpt lat="43.234239532674444" lon="12.216677633219186"><ele>556.0</ele><time>2026-03-29T08:24:41.875Z</time></trkpt><trkpt lat="43.23420167322802" lon="12.216530158973553"><ele>555.4</ele><time>2026-03-29T08:24:42.875Z</time></trkpt><trkpt lat="43.23417161763688" lon="12.216376361244818"><ele>554.8</ele><time>2026-03-29T08:24:43.874Z</time></trkpt><trkpt lat="43.234143901559534" lon="12.21622543911829"><ele>554.1999999999999</ele><time>2026-03-29T08:24:44.874Z</time></trkpt><trkpt lat="43.23410504789011" lon="12.216099427549974"><ele>553.6</ele><time>2026-03-29T08:24:45.874Z</time></trkpt><trkpt lat="43.23405532530076" lon="12.215988490503284"><ele>553.0</ele><time>2026-03-29T08:24:46.874Z</time></trkpt><trkpt lat="43.233975626454914" lon="12.215894937171809"><ele>551.4</ele><time>2026-03-29T08:24:47.874Z</time></trkpt><trkpt lat="43.23389830259065" lon="12.215815504726278"><ele>549.8</ele><time>2026-03-29T08:24:48.874Z</time></trkpt><trkpt lat="43.23381880355601" lon="12.215740184797502"><ele>548.2</ele><time>2026-03-29T08:24:49.874Z</time></trkpt><trkpt lat="43.2337397848156" lon="12.215668925789966"><ele>546.6</ele><time>2026-03-29T08:24:50.874Z</time></trkpt><trkpt lat="43.23366930167632" lon="12.215579812483298"><ele>545.0</ele><time>2026-03-29T08:24:51.874Z</time></trkpt><trkpt lat="43.23360642666733" lon="12.215461791526067"><ele>545.0</ele><time>2026-03-29T08:24:52.874Z</time></trkpt><trkpt lat="43.233565709266884" lon="12.215343436848752"><ele>545.0</ele><time>2026-03-29T08:24:53.874Z</time></trkpt><trkpt lat="43.233546649029265" lon="12.215223331414835"><ele>545.0</ele><time>2026-03-29T08:24:54.874Z</time></trkpt><trkpt lat="43.233540728071574" lon="12.215098409028137"><ele>545.0</ele><time>2026-03-29T08:24:55.874Z</time></trkpt><trkpt lat="43.2335839410936" lon="12.214991718672353"><ele>545.0</ele><time>2026-03-29T08:24:56.871Z</time></trkpt><trkpt lat="43.23364162318204" lon="12.214885586064952"><ele>544.6</ele><time>2026-03-29T08:24:57.869Z</time></trkpt><trkpt lat="43.23371302801904" lon="12.214794201600377"><ele>544.2</ele><time>2026-03-29T08:24:58.867Z</time></trkpt><trkpt lat="43.23379330429843" lon="12.21470542786532"><ele>543.8</ele><time>2026-03-29T08:24:59.865Z</time></trkpt><trkpt lat="43.23387090380755" lon="12.214623166321106"><ele>543.4</ele><time>2026-03-29T08:25:00.864Z</time></trkpt><trkpt lat="43.23396069272442" lon="12.214551644713989"><ele>543.0</ele><time>2026-03-29T08:25:01.862Z</time></trkpt><trkpt lat="43.234059947617226" lon="12.2145123509443"><ele>543.0</ele><time>2026-03-29T08:25:02.861Z</time></trkpt><trkpt lat="43.23415893651088" lon="12.214498137068263"><ele>543.0</ele><time>2026-03-29T08:25:03.859Z</time></trkpt><trkpt lat="43.23426046874131" lon="12.214494411796926"><ele>543.0</ele><time>2026-03-29T08:25:04.858Z</time></trkpt><trkpt lat="43.23435823177425" lon="12.214479045605032"><ele>543.0</ele><time>2026-03-29T08:25:05.856Z</time></trkpt><trkpt lat="43.23446020533461" lon="12.214472640293453"><ele>543.0</ele><time>2026-03-29T08:25:06.855Z</time></trkpt><trkpt lat="43.23456247259238" lon="12.214474184343825"><ele>543.0</ele><time>2026-03-29T08:25:07.854Z</time></trkpt><trkpt lat="43.23463545862886" lon="12.214515170617295"><ele>543.0</ele><time>2026-03-29T08:25:08.853Z</time></trkpt><trkpt lat="43.23468122543586" lon="12.214601911014075"><ele>543.0</ele><time>2026-03-29T08:25:09.852Z</time></trkpt><trkpt lat="43.234721600250154" lon="12.214705824711375"><ele>543.0</ele><time>2026-03-29T08:25:10.851Z</time></trkpt><trkpt lat="43.234758668334564" lon="12.214826667338794"><ele>543.0</ele><time>2026-03-29T08:25:11.85Z</time></trkpt><trkpt lat="43.234809141119364" lon="12.214962311592153"><ele>543.0</ele><time>2026-03-29T08:25:12.849Z</time></trkpt><trkpt lat="43.23485700130318" lon="12.215093938198459"><ele>542.6</ele><time>2026-03-29T08:25:13.849Z</time></trkpt><trkpt lat="43.23489456133255" lon="12.2152252309592"><ele>542.1999999999999</ele><time>2026-03-29T08:25:14.848Z</time></trkpt><trkpt lat="43.234943472651686" lon="12.21532325598734"><ele>541.8</ele><time>2026-03-29T08:25:15.847Z</time></trkpt><trkpt lat="43.23499665314611" lon="12.21540580933229"><ele>541.4</ele><time>2026-03-29T08:25:16.847Z</time></trkpt><trkpt lat="43.235054311772046" lon="12.215449898648675"><ele>541.0</ele><time>2026-03-29T08:25:17.848Z</time></trkpt><trkpt lat="43.23517970439032" lon="12.215424769969388"><ele>541.0</ele><time>2026-03-29T08:25:19.847Z</time></trkpt><trkpt lat="43.2352387672255" lon="12.215358224706499"><ele>541.0</ele><time>2026-03-29T08:25:20.847Z</time></trkpt><trkpt lat="43.23527605329771" lon="12.21527726035144"><ele>541.0</ele><time>2026-03-29T08:25:21.846Z</time></trkpt><trkpt lat="43.23528128440311" lon="12.215181624156521"><ele>541.0</ele><time>2026-03-29T08:25:22.846Z</time></trkpt><trkpt lat="43.23522752442745" lon="12.215035684250969"><ele>541.0</ele><time>2026-03-29T08:25:24.845Z</time></trkpt><trkpt lat="43.23516097439891" lon="12.214942857916077"><ele>541.0</ele><time>2026-03-29T08:25:25.845Z</time></trkpt><trkpt lat="43.235111258966896" lon="12.214844173278012"><ele>539.0</ele><time>2026-03-29T08:25:26.844Z</time></trkpt><trkpt lat="43.23507572046591" lon="12.2147121878235"><ele>537.0</ele><time>2026-03-29T08:25:27.844Z</time></trkpt><trkpt lat="43.23504588937803" lon="12.214560154570025"><ele>535.0</ele><time>2026-03-29T08:25:28.844Z</time></trkpt><trkpt lat="43.235034658171614" lon="12.214392613033722"><ele>533.0</ele><time>2026-03-29T08:25:29.843Z</time></trkpt><trkpt lat="43.23501550980735" lon="12.214202218165791"><ele>533.0</ele><time>2026-03-29T08:25:30.843Z</time></trkpt><trkpt lat="43.23498750465891" lon="12.214047671062067"><ele>533.0</ele><time>2026-03-29T08:25:31.843Z</time></trkpt><trkpt lat="43.23495410787094" lon="12.213871917653794"><ele>533.0</ele><time>2026-03-29T08:25:32.842Z</time></trkpt><trkpt lat="43.23491932653186" lon="12.213696821334638"><ele>533.0</ele><time>2026-03-29T08:25:33.842Z</time></trkpt><trkpt lat="43.234875279506426" lon="12.213517914098823"><ele>529.1999999999999</ele><time>2026-03-29T08:25:34.842Z</time></trkpt><trkpt lat="43.234857188028926" lon="12.21337287736794"><ele>525.4</ele><time>2026-03-29T08:25:35.842Z</time></trkpt><trkpt lat="43.23489774306287" lon="12.213210586360852"><ele>521.5999999999999</ele><time>2026-03-29T08:25:37.841Z</time></trkpt><trkpt lat="43.234943762892705" lon="12.213139822711625"><ele>517.8</ele><time>2026-03-29T08:25:38.841Z</time></trkpt><trkpt lat="43.23501711801553" lon="12.2130685197035"><ele>514.0</ele><time>2026-03-29T08:25:39.841Z</time></trkpt><trkpt lat="43.235110169348545" lon="12.2130137801615"><ele>511.79999999999995</ele><time>2026-03-29T08:25:40.841Z</time></trkpt><trkpt lat="43.23521732021738" lon="12.212956150728779"><ele>509.59999999999997</ele><time>2026-03-29T08:25:41.841Z</time></trkpt><trkpt lat="43.23532314063365" lon="12.212902328780928"><ele>507.4</ele><time>2026-03-29T08:25:42.84Z</time></trkpt><trkpt lat="43.23541210031784" lon="12.212845666405324"><ele>505.2</ele><time>2026-03-29T08:25:43.84Z</time></trkpt><trkpt lat="43.23548366561379" lon="12.212799480712134"><ele>503.0</ele><time>2026-03-29T08:25:44.84Z</time></trkpt><trkpt lat="43.23553370333657" lon="12.212729015223433"><ele>503.0</ele><time>2026-03-29T08:25:45.84Z</time></trkpt><trkpt lat="43.23556378939728" lon="12.2126510685793"><ele>503.00000000000006</ele><time>2026-03-29T08:25:46.84Z</time></trkpt><trkpt lat="43.235565019657585" lon="12.212542158379328"><ele>503.0</ele><time>2026-03-29T08:25:47.84Z</time></trkpt><trkpt lat="43.23552446331355" lon="12.212450547743048"><ele>503.0</ele><time>2026-03-29T08:25:48.84Z</time></trkpt><trkpt lat="43.2354673842339" lon="12.212381916047171"><ele>503.00000000000006</ele><time>2026-03-29T08:25:49.84Z</time></trkpt><trkpt lat="43.235410679067634" lon="12.212332580229878"><ele>503.0</ele><time>2026-03-29T08:25:50.839Z</time></trkpt><trkpt lat="43.235347329518355" lon="12.21234513664817"><ele>503.0</ele><time>2026-03-29T08:25:51.839Z</time></trkpt><trkpt lat="43.235277829211704" lon="12.212390825143315"><ele>503.0</ele><time>2026-03-29T08:25:52.839Z</time></trkpt><trkpt lat="43.23517426763483" lon="12.212436567060985"><ele>503.0</ele><time>2026-03-29T08:25:53.839Z</time></trkpt><trkpt lat="43.23505190163105" lon="12.212484893677614"><ele>503.0</ele><time>2026-03-29T08:25:54.839Z</time></trkpt><trkpt lat="43.23493306495502" lon="12.212533016682888"><ele>503.0</ele><time>2026-03-29T08:25:55.839Z</time></trkpt><trkpt lat="43.23482824300369" lon="12.212574468482076"><ele>502.79999999999995</ele><time>2026-03-29T08:25:56.839Z</time></trkpt><trkpt lat="43.23473165783501" lon="12.212618289465203"><ele>502.59999999999997</ele><time>2026-03-29T08:25:57.839Z</time></trkpt><trkpt lat="43.234630209272666" lon="12.212665152188658"><ele>502.40000000000003</ele><time>2026-03-29T08:25:58.839Z</time></trkpt><trkpt lat="43.234531461589825" lon="12.212707117934535"><ele>502.20000000000005</ele><time>2026-03-29T08:25:59.839Z</time></trkpt><trkpt lat="43.23444315273423" lon="12.21273616452484"><ele>502.0</ele><time>2026-03-29T08:26:00.839Z</time></trkpt><trkpt lat="43.23435799527633" lon="12.212731212445428"><ele>502.0</ele><time>2026-03-29T08:26:01.839Z</time></trkpt><trkpt lat="43.23429225043045" lon="12.212689649775117"><ele>502.00000000000006</ele><time>2026-03-29T08:26:02.838Z</time></trkpt><trkpt lat="43.234198858087844" lon="12.21252226103947"><ele>502.00000000000006</ele><time>2026-03-29T08:26:04.838Z</time></trkpt><trkpt lat="43.23415303794169" lon="12.212439166770116"><ele>502.0</ele><time>2026-03-29T08:26:05.838Z</time></trkpt><trkpt lat="43.23408462530315" lon="12.212373403790577"><ele>502.0</ele><time>2026-03-29T08:26:06.838Z</time></trkpt><trkpt lat="43.233993944049175" lon="12.212311600683362"><ele>501.0</ele><time>2026-03-29T08:26:07.838Z</time></trkpt><trkpt lat="43.23390209476969" lon="12.212318594882955"><ele>500.00000000000006</ele><time>2026-03-29T08:26:08.838Z</time></trkpt><trkpt lat="43.23383109610419" lon="12.212355264894665"><ele>499.00000000000006</ele><time>2026-03-29T08:26:09.838Z</time></trkpt><trkpt lat="43.23373231489254" lon="12.212396019226318"><ele>498.0</ele><time>2026-03-29T08:26:10.838Z</time></trkpt><trkpt lat="43.23363150206933" lon="12.212461400366262"><ele>497.0</ele><time>2026-03-29T08:26:11.838Z</time></trkpt><trkpt lat="43.23355691890352" lon="12.212535584000493"><ele>497.0</ele><time>2026-03-29T08:26:12.838Z</time></trkpt><trkpt lat="43.23347687586285" lon="12.212591728109114"><ele>497.00000000000006</ele><time>2026-03-29T08:26:13.838Z</time></trkpt><trkpt lat="43.23340678647742" lon="12.212652462456656"><ele>497.00000000000006</ele><time>2026-03-29T08:26:14.838Z</time></trkpt><trkpt lat="43.233314082492036" lon="12.212638907224587"><ele>497.0</ele><time>2026-03-29T08:26:16.838Z</time></trkpt><trkpt lat="43.23322993418355" lon="12.212494829030362"><ele>497.0</ele><time>2026-03-29T08:26:18.838Z</time></trkpt><trkpt lat="43.2331178660745" lon="12.212372895886228"><ele>491.0</ele><time>2026-03-29T08:26:20.838Z</time></trkpt><trkpt lat="43.233010500215464" lon="12.212261214860524"><ele>485.0</ele><time>2026-03-29T08:26:21.837Z</time></trkpt><trkpt lat="43.232920100644954" lon="12.212236908601598"><ele>479.0</ele><time>2026-03-29T08:26:22.837Z</time></trkpt><trkpt lat="43.23281054351723" lon="12.212253205517866"><ele>473.0</ele><time>2026-03-29T08:26:23.837Z</time></trkpt><trkpt lat="43.232696906927856" lon="12.212315804764481"><ele>472.99999999999994</ele><time>2026-03-29T08:26:24.837Z</time></trkpt><trkpt lat="43.23262286418353" lon="12.21236193472387"><ele>473.0</ele><time>2026-03-29T08:26:25.837Z</time></trkpt><trkpt lat="43.23254862707782" lon="12.212383583025108"><ele>473.0</ele><time>2026-03-29T08:26:26.837Z</time></trkpt><trkpt lat="43.23247551053424" lon="12.212359322816905"><ele>473.0</ele><time>2026-03-29T08:26:27.837Z</time></trkpt><trkpt lat="43.2324072117514" lon="12.212310493792385"><ele>472.99999999999994</ele><time>2026-03-29T08:26:28.837Z</time></trkpt><trkpt lat="43.23235455217679" lon="12.212231686338038"><ele>473.0</ele><time>2026-03-29T08:26:29.837Z</time></trkpt><trkpt lat="43.23224957023358" lon="12.212090797958457"><ele>473.25</ele><time>2026-03-29T08:26:31.837Z</time></trkpt><trkpt lat="43.23210543007246" lon="12.21204622589166"><ele>473.5</ele><time>2026-03-29T08:26:33.837Z</time></trkpt><trkpt lat="43.23199134234435" lon="12.212058249572088"><ele>473.75</ele><time>2026-03-29T08:26:34.837Z</time></trkpt><trkpt lat="43.23182640853832" lon="12.212084610108397"><ele>474.0</ele><time>2026-03-29T08:26:35.837Z</time></trkpt><trkpt lat="43.2316765295432" lon="12.212127933865254"><ele>474.0</ele><time>2026-03-29T08:26:36.837Z</time></trkpt><trkpt lat="43.23155145998137" lon="12.212149627739333"><ele>474.0</ele><time>2026-03-29T08:26:37.837Z</time></trkpt><trkpt lat="43.23144455152301" lon="12.212119379771954"><ele>474.0</ele><time>2026-03-29T08:26:38.837Z</time></trkpt><trkpt lat="43.231343410709314" lon="12.212086457833513"><ele>474.0</ele><time>2026-03-29T08:26:39.837Z</time></trkpt><trkpt lat="43.23123265772953" lon="12.211993727908869"><ele>473.0</ele><time>2026-03-29T08:26:40.837Z</time></trkpt><trkpt lat="43.23113136980313" lon="12.211888242136416"><ele>472.0</ele><time>2026-03-29T08:26:41.837Z</time></trkpt><trkpt lat="43.23101358588996" lon="12.211781762988984"><ele>471.0</ele><time>2026-03-29T08:26:42.837Z</time></trkpt><trkpt lat="43.23092285752689" lon="12.211675752711187"><ele>470.0</ele><time>2026-03-29T08:26:43.837Z</time></trkpt><trkpt lat="43.230844388677376" lon="12.211562499280978"><ele>467.8</ele><time>2026-03-29T08:26:44.837Z</time></trkpt><trkpt lat="43.23077554611192" lon="12.211456355843065"><ele>465.6</ele><time>2026-03-29T08:26:45.836Z</time></trkpt><trkpt lat="43.23073670371614" lon="12.21133320791567"><ele>463.4</ele><time>2026-03-29T08:26:46.836Z</time></trkpt><trkpt lat="43.23072484620876" lon="12.211199559496109"><ele>461.2</ele><time>2026-03-29T08:26:47.836Z</time></trkpt><trkpt lat="43.23075028234517" lon="12.211031865394725"><ele>459.0</ele><time>2026-03-29T08:26:48.836Z</time></trkpt><trkpt lat="43.230787275261264" lon="12.210812299306841"><ele>456.66666666666663</ele><time>2026-03-29T08:26:49.836Z</time></trkpt><trkpt lat="43.23082985615852" lon="12.210560458841446"><ele>454.3333333333333</ele><time>2026-03-29T08:26:50.836Z</time></trkpt><trkpt lat="43.23086906154968" lon="12.210331642626546"><ele>452.0</ele><time>2026-03-29T08:26:51.836Z</time></trkpt><trkpt lat="43.23091906070586" lon="12.21012963264674"><ele>452.0</ele><time>2026-03-29T08:26:52.836Z</time></trkpt><trkpt lat="43.23095938832687" lon="12.209940676269841"><ele>452.0</ele><time>2026-03-29T08:26:53.836Z</time></trkpt><trkpt lat="43.23099808201729" lon="12.20976829067805"><ele>452.0</ele><time>2026-03-29T08:26:54.836Z</time></trkpt><trkpt lat="43.23103733265376" lon="12.209597515899876"><ele>452.0</ele><time>2026-03-29T08:26:55.836Z</time></trkpt><trkpt lat="43.23107607175521" lon="12.209435728066552"><ele>452.0</ele><time>2026-03-29T08:26:56.836Z</time></trkpt><trkpt lat="43.23111699301913" lon="12.209276940149278"><ele>452.0</ele><time>2026-03-29T08:26:57.836Z</time></trkpt><trkpt lat="43.231158328360046" lon="12.209119076655602"><ele>452.0</ele><time>2026-03-29T08:26:58.836Z</time></trkpt><trkpt lat="43.231188905923034" lon="12.208968193358778"><ele>452.0</ele><time>2026-03-29T08:26:59.836Z</time></trkpt><trkpt lat="43.231212183027075" lon="12.20881566842895"><ele>450.75</ele><time>2026-03-29T08:27:00.836Z</time></trkpt><trkpt lat="43.231235054237786" lon="12.20865343264472"><ele>449.5</ele><time>2026-03-29T08:27:01.836Z</time></trkpt><trkpt lat="43.231256561695595" lon="12.208496844774078"><ele>448.25</ele><time>2026-03-29T08:27:02.836Z</time></trkpt><trkpt lat="43.23126871941779" lon="12.208333973232408"><ele>447.0</ele><time>2026-03-29T08:27:03.836Z</time></trkpt><trkpt lat="43.23128735873802" lon="12.208190469567493"><ele>447.0</ele><time>2026-03-29T08:27:04.836Z</time></trkpt><trkpt lat="43.23130829351561" lon="12.208055489434226"><ele>447.00000000000006</ele><time>2026-03-29T08:27:05.836Z</time></trkpt><trkpt lat="43.23132509432402" lon="12.207901631028841"><ele>447.00000000000006</ele><time>2026-03-29T08:27:06.836Z</time></trkpt><trkpt lat="43.231329594651164" lon="12.207759835025453"><ele>447.0</ele><time>2026-03-29T08:27:07.836Z</time></trkpt><trkpt lat="43.23132704608592" lon="12.20763355858877"><ele>447.0</ele><time>2026-03-29T08:27:08.836Z</time></trkpt><trkpt lat="43.23132884826819" lon="12.207501705384272"><ele>447.0</ele><time>2026-03-29T08:27:09.836Z</time></trkpt><trkpt lat="43.2313274744415" lon="12.20738256367208"><ele>447.0</ele><time>2026-03-29T08:27:10.836Z</time></trkpt><trkpt lat="43.23133584439916" lon="12.207258814807316"><ele>447.0</ele><time>2026-03-29T08:27:11.836Z</time></trkpt><trkpt lat="43.231343636387315" lon="12.20715704075782"><ele>447.0</ele><time>2026-03-29T08:27:12.835Z</time></trkpt><trkpt lat="43.231336002419326" lon="12.207069401720702"><ele>447.0</ele><time>2026-03-29T08:27:13.835Z</time></trkpt><trkpt lat="43.23129558540176" lon="12.20694182554554"><ele>447.0</ele><time>2026-03-29T08:27:15.835Z</time></trkpt><trkpt lat="43.23121086611833" lon="12.206884537849563"><ele>448.40000000000003</ele><time>2026-03-29T08:27:17.835Z</time></trkpt><trkpt lat="43.23111010396259" lon="12.206910741219506"><ele>449.80000000000007</ele><time>2026-03-29T08:27:19.835Z</time></trkpt><trkpt lat="43.231049993458704" lon="12.206958514503503"><ele>451.2</ele><time>2026-03-29T08:27:21.835Z</time></trkpt><trkpt lat="43.23098344895824" lon="12.207070415804644"><ele>452.6</ele><time>2026-03-29T08:27:25.838Z</time></trkpt><trkpt lat="43.230898644457284" lon="12.207124531043991"><ele>454.0</ele><time>2026-03-29T08:27:27.838Z</time></trkpt><trkpt lat="43.230806044071855" lon="12.207197413864924"><ele>454.0</ele><time>2026-03-29T08:27:29.838Z</time></trkpt><trkpt lat="43.23074279194865" lon="12.207270378649534"><ele>454.0</ele><time>2026-03-29T08:27:31.837Z</time></trkpt><trkpt lat="43.23063118516111" lon="12.207348159574874"><ele>454.0</ele><time>2026-03-29T08:27:33.837Z</time></trkpt><trkpt lat="43.230545301175404" lon="12.207415427139109"><ele>454.0</ele><time>2026-03-29T08:27:35.837Z</time></trkpt><trkpt lat="43.23043449149555" lon="12.20746895014842"><ele>454.0</ele><time>2026-03-29T08:27:37.837Z</time></trkpt><trkpt lat="43.230364885970026" lon="12.207523870183653"><ele>452.6</ele><time>2026-03-29T08:27:39.837Z</time></trkpt><trkpt lat="43.230290940841265" lon="12.207596713536327"><ele>451.2</ele><time>2026-03-29T08:27:41.837Z</time></trkpt><trkpt lat="43.230200632261855" lon="12.20759262023955"><ele>449.80000000000007</ele><time>2026-03-29T08:27:43.837Z</time></trkpt><trkpt lat="43.230135946294745" lon="12.207626251090838"><ele>448.40000000000003</ele><time>2026-03-29T08:27:45.837Z</time></trkpt><trkpt lat="43.23006008753738" lon="12.207689616931813"><ele>447.0</ele><time>2026-03-29T08:27:47.837Z</time></trkpt><trkpt lat="43.229953783211336" lon="12.20778147716337"><ele>447.0</ele><time>2026-03-29T08:27:49.837Z</time></trkpt><trkpt lat="43.22986725814083" lon="12.207809169591311"><ele>447.0</ele><time>2026-03-29T08:27:50.837Z</time></trkpt><trkpt lat="43.22977422694023" lon="12.20783190292063"><ele>447.0</ele><time>2026-03-29T08:27:51.837Z</time></trkpt><trkpt lat="43.229694790425434" lon="12.20784341151551"><ele>447.0</ele><time>2026-03-29T08:27:52.837Z</time></trkpt><trkpt lat="43.229629140670994" lon="12.207861571012009"><ele>447.0</ele><time>2026-03-29T08:27:53.837Z</time></trkpt><trkpt lat="43.229566385952424" lon="12.20788193647107"><ele>447.0</ele><time>2026-03-29T08:27:54.837Z</time></trkpt><trkpt lat="43.22945521948014" lon="12.207838412000932"><ele>446.6666666666667</ele><time>2026-03-29T08:27:56.837Z</time></trkpt><trkpt lat="43.229384518332665" lon="12.207811036604284"><ele>446.33333333333337</ele><time>2026-03-29T08:27:57.837Z</time></trkpt><trkpt lat="43.229311850630644" lon="12.207792926606787"><ele>446.0</ele><time>2026-03-29T08:27:58.837Z</time></trkpt><trkpt lat="43.22923000793748" lon="12.207778035066529"><ele>445.6666666666667</ele><time>2026-03-29T08:27:59.837Z</time></trkpt><trkpt lat="43.22910987895002" lon="12.207791467136351"><ele>445.33333333333337</ele><time>2026-03-29T08:28:01.837Z</time></trkpt><trkpt lat="43.229044305460945" lon="12.207826680671168"><ele>445.0</ele><time>2026-03-29T08:28:02.837Z</time></trkpt><trkpt lat="43.228941791616435" lon="12.207891442475805"><ele>444.33333333333337</ele><time>2026-03-29T08:28:04.836Z</time></trkpt><trkpt lat="43.22886811984026" lon="12.207917492106603"><ele>443.6666666666667</ele><time>2026-03-29T08:28:05.836Z</time></trkpt><trkpt lat="43.22874727768316" lon="12.207961833744307"><ele>443.0</ele><time>2026-03-29T08:28:07.836Z</time></trkpt><trkpt lat="43.22866090640003" lon="12.20798949979791"><ele>442.33333333333337</ele><time>2026-03-29T08:28:09.836Z</time></trkpt><trkpt lat="43.22869030099406" lon="12.20807086545941"><ele>441.6666666666667</ele><time>2026-03-29T08:28:19.836Z</time></trkpt><trkpt lat="43.22873552017411" lon="12.208147101131098"><ele>441.0</ele><time>2026-03-29T08:28:22.836Z</time></trkpt><trkpt lat="43.2287325181569" lon="12.208278421490471"><ele>437.0</ele><time>2026-03-29T08:28:24.836Z</time></trkpt><trkpt lat="43.22870856102417" lon="12.2083984778922"><ele>433.0</ele><time>2026-03-29T08:28:26.836Z</time></trkpt><trkpt lat="43.22863796165486" lon="12.208493108084062"><ele>429.0</ele><time>2026-03-29T08:28:28.836Z</time></trkpt><trkpt lat="43.22855550791443" lon="12.208531933936404"><ele>425.0</ele><time>2026-03-29T08:28:30.836Z</time></trkpt><trkpt lat="43.228484400991235" lon="12.208522260740548"><ele>421.0</ele><time>2026-03-29T08:28:31.835Z</time></trkpt><trkpt lat="43.22840793624297" lon="12.208501965408166"><ele>417.0</ele><time>2026-03-29T08:28:32.835Z</time></trkpt><trkpt lat="43.22833826817419" lon="12.208497329022451"><ele>417.0</ele><time>2026-03-29T08:28:33.835Z</time></trkpt><trkpt lat="43.22826741982362" lon="12.208482991355497"><ele>417.0</ele><time>2026-03-29T08:28:34.835Z</time></trkpt><trkpt lat="43.22819189864429" lon="12.208512451218631"><ele>417.0</ele><time>2026-03-29T08:28:36.835Z</time></trkpt><trkpt lat="43.22819402970031" lon="12.208652390810636"><ele>417.0</ele><time>2026-03-29T08:28:39.835Z</time></trkpt><trkpt lat="43.228160954278884" lon="12.208758588822564"><ele>417.0</ele><time>2026-03-29T08:28:41.835Z</time></trkpt><trkpt lat="43.22806885331466" lon="12.208853553191396"><ele>411.20000000000005</ele><time>2026-03-29T08:28:43.835Z</time></trkpt><trkpt lat="43.227995930798436" lon="12.208992631574278"><ele>405.4</ele><time>2026-03-29T08:28:45.835Z</time></trkpt><trkpt lat="43.22795193679308" lon="12.20906402184857"><ele>399.6</ele><time>2026-03-29T08:28:47.835Z</time></trkpt><trkpt lat="43.22788608906596" lon="12.20904305023062"><ele>393.79999999999995</ele><time>2026-03-29T08:28:50.835Z</time></trkpt><trkpt lat="43.227780520930295" lon="12.209084345133517"><ele>388.0</ele><time>2026-03-29T08:28:52.835Z</time></trkpt><trkpt lat="43.227598183395706" lon="12.209154822418808"><ele>388.0</ele><time>2026-03-29T08:28:54.835Z</time></trkpt><trkpt lat="43.22747122439463" lon="12.209205332965118"><ele>388.0</ele><time>2026-03-29T08:28:55.835Z</time></trkpt><trkpt lat="43.227356623188705" lon="12.209220582118583"><ele>388.0</ele><time>2026-03-29T08:28:56.835Z</time></trkpt><trkpt lat="43.227268811752715" lon="12.209230344231125"><ele>388.0</ele><time>2026-03-29T08:28:57.835Z</time></trkpt><trkpt lat="43.22719339850867" lon="12.209231858350515"><ele>388.0</ele><time>2026-03-29T08:28:58.834Z</time></trkpt><trkpt lat="43.22710732685431" lon="12.20922795299182"><ele>388.59999999999997</ele><time>2026-03-29T08:28:59.834Z</time></trkpt><trkpt lat="43.22702787158882" lon="12.209223951833144"><ele>389.2</ele><time>2026-03-29T08:29:00.834Z</time></trkpt><trkpt lat="43.22696171454195" lon="12.209202599438125"><ele>389.8</ele><time>2026-03-29T08:29:01.834Z</time></trkpt><trkpt lat="43.22680086469193" lon="12.209196674851043"><ele>390.4</ele><time>2026-03-29T08:29:03.834Z</time></trkpt><trkpt lat="43.22672316098932" lon="12.209213568450478"><ele>391.0</ele><time>2026-03-29T08:29:04.834Z</time></trkpt><trkpt lat="43.226619184544845" lon="12.20920451748031"><ele>391.00000000000006</ele><time>2026-03-29T08:29:05.834Z</time></trkpt><trkpt lat="43.226525354912425" lon="12.209198781848766"><ele>391.0</ele><time>2026-03-29T08:29:06.834Z</time></trkpt><trkpt lat="43.2264464476472" lon="12.209163757134528"><ele>391.0</ele><time>2026-03-29T08:29:08.834Z</time></trkpt><trkpt lat="43.22640011309549" lon="12.209293695879396"><ele>391.0</ele><time>2026-03-29T08:29:11.834Z</time></trkpt><trkpt lat="43.22634321518735" lon="12.209386376683167"><ele>391.00000000000006</ele><time>2026-03-29T08:29:12.834Z</time></trkpt><trkpt lat="43.22629869195796" lon="12.209469565817958"><ele>391.0</ele><time>2026-03-29T08:29:13.834Z</time></trkpt><trkpt lat="43.22625326086696" lon="12.209538179294372"><ele>393.8</ele><time>2026-03-29T08:29:14.834Z</time></trkpt><trkpt lat="43.22619723732536" lon="12.209645480012403"><ele>396.6</ele><time>2026-03-29T08:29:17.834Z</time></trkpt><trkpt lat="43.22612644183686" lon="12.209731933057517"><ele>399.4</ele><time>2026-03-29T08:29:19.834Z</time></trkpt><trkpt lat="43.2260674765941" lon="12.20983655523176"><ele>402.2</ele><time>2026-03-29T08:29:21.834Z</time></trkpt><trkpt lat="43.22599457367715" lon="12.209954652042414"><ele>405.0</ele><time>2026-03-29T08:29:23.834Z</time></trkpt><trkpt lat="43.225879479904364" lon="12.210050707356022"><ele>399.6666666666667</ele><time>2026-03-29T08:29:25.834Z</time></trkpt><trkpt lat="43.2258086838948" lon="12.21010237002377"><ele>394.3333333333333</ele><time>2026-03-29T08:29:26.833Z</time></trkpt><trkpt lat="43.225743781640524" lon="12.210152192563582"><ele>389.0</ele><time>2026-03-29T08:29:27.833Z</time></trkpt><trkpt lat="43.225663732670036" lon="12.210209500355448"><ele>383.66666666666663</ele><time>2026-03-29T08:29:28.835Z</time></trkpt><trkpt lat="43.22560368899604" lon="12.210254366386227"><ele>378.3333333333333</ele><time>2026-03-29T08:29:29.835Z</time></trkpt><trkpt lat="43.225545416308876" lon="12.210305987393738"><ele>373.0</ele><time>2026-03-29T08:29:30.835Z</time></trkpt><trkpt lat="43.225475233799386" lon="12.210364463017397"><ele>372.8333333333333</ele><time>2026-03-29T08:29:31.835Z</time></trkpt><trkpt lat="43.22540356175744" lon="12.210404571505014"><ele>372.66666666666663</ele><time>2026-03-29T08:29:32.835Z</time></trkpt><trkpt lat="43.22533118457194" lon="12.210435916174973"><ele>372.5</ele><time>2026-03-29T08:29:33.835Z</time></trkpt><trkpt lat="43.22526554047979" lon="12.210456921388397"><ele>372.3333333333333</ele><time>2026-03-29T08:29:34.835Z</time></trkpt><trkpt lat="43.22518260197559" lon="12.210541516488837"><ele>372.1666666666667</ele><time>2026-03-29T08:29:36.834Z</time></trkpt><trkpt lat="43.22507666689438" lon="12.21054415878483"><ele>372.0</ele><time>2026-03-29T08:29:38.835Z</time></trkpt><trkpt lat="43.224957811914294" lon="12.21059050346131"><ele>372.0</ele><time>2026-03-29T08:29:40.835Z</time></trkpt><trkpt lat="43.22487683639604" lon="12.21061654616819"><ele>372.0</ele><time>2026-03-29T08:29:42.835Z</time></trkpt><trkpt lat="43.224802843590346" lon="12.21061066676036"><ele>372.0</ele><time>2026-03-29T08:29:44.835Z</time></trkpt><trkpt lat="43.22473134986144" lon="12.210611146339327"><ele>372.0</ele><time>2026-03-29T08:29:45.835Z</time></trkpt><trkpt lat="43.22466480726211" lon="12.210609217309006"><ele>372.0</ele><time>2026-03-29T08:29:46.835Z</time></trkpt><trkpt lat="43.22460166496645" lon="12.210618920079217"><ele>372.0</ele><time>2026-03-29T08:29:47.835Z</time></trkpt><trkpt lat="43.22449235447572" lon="12.210620628154057"><ele>370.3333333333333</ele><time>2026-03-29T08:29:49.835Z</time></trkpt><trkpt lat="43.22442578406369" lon="12.21062501035849"><ele>368.6666666666667</ele><time>2026-03-29T08:29:50.835Z</time></trkpt><trkpt lat="43.2243350694017" lon="12.210604594424604"><ele>367.0</ele><time>2026-03-29T08:29:53.835Z</time></trkpt><trkpt lat="43.22426360068828" lon="12.210597261595213"><ele>365.33333333333337</ele><time>2026-03-29T08:29:55.835Z</time></trkpt><trkpt lat="43.224174381784145" lon="12.210580945991726"><ele>363.6666666666667</ele><time>2026-03-29T08:29:58.835Z</time></trkpt><trkpt lat="43.22406603698865" lon="12.2105592804047"><ele>362.0</ele><time>2026-03-29T08:30:00.834Z</time></trkpt><trkpt lat="43.22395826452946" lon="12.210491369722243"><ele>358.5</ele><time>2026-03-29T08:30:02.834Z</time></trkpt><trkpt lat="43.22389152049104" lon="12.210412699574414"><ele>355.0</ele><time>2026-03-29T08:30:03.834Z</time></trkpt><trkpt lat="43.223823736231644" lon="12.210373371315399"><ele>351.5</ele><time>2026-03-29T08:30:04.834Z</time></trkpt><trkpt lat="43.22372091541025" lon="12.210320609474323"><ele>348.0</ele><time>2026-03-29T08:30:06.834Z</time></trkpt><trkpt lat="43.2236573223902" lon="12.210272400577837"><ele>344.5</ele><time>2026-03-29T08:30:07.834Z</time></trkpt><trkpt lat="43.223595805782786" lon="12.210226142251875"><ele>341.0</ele><time>2026-03-29T08:30:08.834Z</time></trkpt><trkpt lat="43.22353068075544" lon="12.210155690619024"><ele>341.0</ele><time>2026-03-29T08:30:09.834Z</time></trkpt><trkpt lat="43.223434713823046" lon="12.210065138651569"><ele>341.0</ele><time>2026-03-29T08:30:10.834Z</time></trkpt><trkpt lat="43.223341911035" lon="12.209977425555941"><ele>341.0</ele><time>2026-03-29T08:30:11.834Z</time></trkpt><trkpt lat="43.2232741009224" lon="12.209909203584559"><ele>341.0</ele><time>2026-03-29T08:30:12.834Z</time></trkpt><trkpt lat="43.22321714372039" lon="12.209858551500771"><ele>341.0</ele><time>2026-03-29T08:30:13.834Z</time></trkpt><trkpt lat="43.223133858343495" lon="12.209819423699535"><ele>340.4</ele><time>2026-03-29T08:30:14.834Z</time></trkpt><trkpt lat="43.22303800661315" lon="12.209774616855661"><ele>339.8</ele><time>2026-03-29T08:30:15.834Z</time></trkpt><trkpt lat="43.222941694178125" lon="12.209712845644702"><ele>339.2</ele><time>2026-03-29T08:30:16.834Z</time></trkpt><trkpt lat="43.22284611650586" lon="12.209656549581373"><ele>338.59999999999997</ele><time>2026-03-29T08:30:17.834Z</time></trkpt><trkpt lat="43.222767861395845" lon="12.20959635332057"><ele>338.0</ele><time>2026-03-29T08:30:18.834Z</time></trkpt><trkpt lat="43.222695010211524" lon="12.20955431476819"><ele>338.0</ele><time>2026-03-29T08:30:19.834Z</time></trkpt><trkpt lat="43.222639645830434" lon="12.209492881508952"><ele>338.0</ele><time>2026-03-29T08:30:20.834Z</time></trkpt><trkpt lat="43.222587874378604" lon="12.209430404793673"><ele>338.0</ele><time>2026-03-29T08:30:21.834Z</time></trkpt><trkpt lat="43.222516488155264" lon="12.209346021602283"><ele>338.0</ele><time>2026-03-29T08:30:22.834Z</time></trkpt><trkpt lat="43.222413090323634" lon="12.209249412182146"><ele>338.0</ele><time>2026-03-29T08:30:23.834Z</time></trkpt><trkpt lat="43.222311122438754" lon="12.20914156559994"><ele>336.79999999999995</ele><time>2026-03-29T08:30:24.834Z</time></trkpt><trkpt lat="43.22223130670263" lon="12.209029277982237"><ele>335.6</ele><time>2026-03-29T08:30:25.834Z</time></trkpt><trkpt lat="43.22216608177225" lon="12.208911399829343"><ele>334.4</ele><time>2026-03-29T08:30:26.834Z</time></trkpt><trkpt lat="43.22209719541737" lon="12.208812010126003"><ele>333.20000000000005</ele><time>2026-03-29T08:30:27.833Z</time></trkpt><trkpt lat="43.22202521509263" lon="12.208733469003171"><ele>332.0</ele><time>2026-03-29T08:30:28.833Z</time></trkpt><trkpt lat="43.22193242020109" lon="12.20864990170326"><ele>332.0</ele><time>2026-03-29T08:30:29.833Z</time></trkpt><trkpt lat="43.22184239377857" lon="12.208546619512399"><ele>332.0</ele><time>2026-03-29T08:30:30.833Z</time></trkpt><trkpt lat="43.22173215326811" lon="12.208431639901972"><ele>332.0</ele><time>2026-03-29T08:30:31.833Z</time></trkpt><trkpt lat="43.22164092185257" lon="12.20831967177304"><ele>332.0</ele><time>2026-03-29T08:30:32.833Z</time></trkpt><trkpt lat="43.22154042121156" lon="12.208241167537874"><ele>332.6666666666667</ele><time>2026-03-29T08:30:33.833Z</time></trkpt><trkpt lat="43.22144475337113" lon="12.20818237565342"><ele>333.33333333333337</ele><time>2026-03-29T08:30:34.833Z</time></trkpt><trkpt lat="43.2213617187393" lon="12.208137225025581"><ele>334.0</ele><time>2026-03-29T08:30:35.833Z</time></trkpt><trkpt lat="43.221266640218936" lon="12.208103990280259"><ele>334.6666666666667</ele><time>2026-03-29T08:30:36.833Z</time></trkpt><trkpt lat="43.22119264115333" lon="12.208080151663"><ele>335.3333333333333</ele><time>2026-03-29T08:30:37.833Z</time></trkpt><trkpt lat="43.22111363046508" lon="12.208065427740342"><ele>336.0</ele><time>2026-03-29T08:30:38.833Z</time></trkpt><trkpt lat="43.22102546132195" lon="12.208060803043875"><ele>336.0</ele><time>2026-03-29T08:30:39.833Z</time></trkpt><trkpt lat="43.22094099336184" lon="12.208048911485697"><ele>336.0</ele><time>2026-03-29T08:30:40.833Z</time></trkpt><trkpt lat="43.22086846255678" lon="12.208029228759278"><ele>336.0</ele><time>2026-03-29T08:30:41.833Z</time></trkpt><trkpt lat="43.22079134230347" lon="12.208014226529233"><ele>336.0</ele><time>2026-03-29T08:30:42.833Z</time></trkpt><trkpt lat="43.220704098031035" lon="12.207976014719485"><ele>336.0</ele><time>2026-03-29T08:30:43.833Z</time></trkpt><trkpt lat="43.220604741065166" lon="12.207959771701198"><ele>336.0</ele><time>2026-03-29T08:30:44.833Z</time></trkpt><trkpt lat="43.220511181196976" lon="12.207958301774946"><ele>333.6</ele><time>2026-03-29T08:30:45.833Z</time></trkpt><trkpt lat="43.22042771589476" lon="12.207976850231203"><ele>331.20000000000005</ele><time>2026-03-29T08:30:46.833Z</time></trkpt><trkpt lat="43.22034276878982" lon="12.207988120915038"><ele>328.79999999999995</ele><time>2026-03-29T08:30:47.833Z</time></trkpt><trkpt lat="43.22024250498492" lon="12.207987385265346"><ele>326.4</ele><time>2026-03-29T08:30:48.833Z</time></trkpt><trkpt lat="43.22014627384174" lon="12.20798278865848"><ele>324.0</ele><time>2026-03-29T08:30:49.833Z</time></trkpt><trkpt lat="43.22006889411763" lon="12.20793399428157"><ele>324.0</ele><time>2026-03-29T08:30:50.833Z</time></trkpt><trkpt lat="43.22000794724437" lon="12.207864964597333"><ele>324.0</ele><time>2026-03-29T08:30:51.833Z</time></trkpt><trkpt lat="43.219964039361074" lon="12.207770302335767"><ele>324.0</ele><time>2026-03-29T08:30:52.833Z</time></trkpt><trkpt lat="43.21992636991717" lon="12.20764898188187"><ele>324.0</ele><time>2026-03-29T08:30:53.833Z</time></trkpt><trkpt lat="43.21986654316411" lon="12.207441597715013"><ele>324.0</ele><time>2026-03-29T08:30:54.833Z</time></trkpt><trkpt lat="43.21977641044179" lon="12.207183776941202"><ele>322.5</ele><time>2026-03-29T08:30:55.832Z</time></trkpt><trkpt lat="43.21967445736015" lon="12.20689608819171"><ele>321.0</ele><time>2026-03-29T08:30:56.832Z</time></trkpt><trkpt lat="43.219560639460035" lon="12.206585671377237"><ele>320.3333333333333</ele><time>2026-03-29T08:30:57.832Z</time></trkpt><trkpt lat="43.21945804501986" lon="12.206314690580399"><ele>319.66666666666663</ele><time>2026-03-29T08:30:58.832Z</time></trkpt><trkpt lat="43.2193749869994" lon="12.20606682198925"><ele>319.0</ele><time>2026-03-29T08:30:59.832Z</time></trkpt><trkpt lat="43.21931311923659" lon="12.205841828342988"><ele>319.3333333333333</ele><time>2026-03-29T08:31:00.832Z</time></trkpt><trkpt lat="43.219263651325214" lon="12.205620778740798"><ele>319.6666666666667</ele><time>2026-03-29T08:31:01.832Z</time></trkpt><trkpt lat="43.21922063288825" lon="12.205419035225876"><ele>320.0</ele><time>2026-03-29T08:31:02.832Z</time></trkpt><trkpt lat="43.21919192479218" lon="12.205222946335095"><ele>320.0</ele><time>2026-03-29T08:31:03.832Z</time></trkpt><trkpt lat="43.21917701439762" lon="12.205039060777732"><ele>320.0</ele><time>2026-03-29T08:31:04.832Z</time></trkpt><trkpt lat="43.21917670814639" lon="12.204864590069961"><ele>320.0</ele><time>2026-03-29T08:31:05.832Z</time></trkpt><trkpt lat="43.21918300496478" lon="12.204692572648534"><ele>320.0</ele><time>2026-03-29T08:31:06.832Z</time></trkpt><trkpt lat="43.21920665815757" lon="12.204546564172825"><ele>320.2</ele><time>2026-03-29T08:31:07.832Z</time></trkpt><trkpt lat="43.219248606686996" lon="12.204410593153828"><ele>320.4</ele><time>2026-03-29T08:31:08.832Z</time></trkpt><trkpt lat="43.21929972001351" lon="12.204281552733038"><ele>320.6</ele><time>2026-03-29T08:31:09.832Z</time></trkpt><trkpt lat="43.21935225279074" lon="12.204140239941161"><ele>320.8</ele><time>2026-03-29T08:31:10.832Z</time></trkpt><trkpt lat="43.219387104441076" lon="12.204000294859966"><ele>321.0</ele><time>2026-03-29T08:31:11.832Z</time></trkpt><trkpt lat="43.21941376945019" lon="12.203867493184129"><ele>320.5</ele><time>2026-03-29T08:31:12.832Z</time></trkpt><trkpt lat="43.21943650791668" lon="12.203746024201122"><ele>320.0</ele><time>2026-03-29T08:31:13.832Z</time></trkpt><trkpt lat="43.21945852520313" lon="12.203629005615994"><ele>319.5</ele><time>2026-03-29T08:31:14.832Z</time></trkpt><trkpt lat="43.21947729518718" lon="12.203523155723278"><ele>319.0</ele><time>2026-03-29T08:31:15.832Z</time></trkpt><trkpt lat="43.21948994089662" lon="12.20342994003885"><ele>318.5</ele><time>2026-03-29T08:31:16.832Z</time></trkpt><trkpt lat="43.219522385465574" lon="12.203324804202357"><ele>318.0</ele><time>2026-03-29T08:31:17.832Z</time></trkpt><trkpt lat="43.21955090567415" lon="12.203235342812436"><ele>318.0</ele><time>2026-03-29T08:31:18.832Z</time></trkpt><trkpt lat="43.21958979756862" lon="12.203138610024043"><ele>318.0</ele><time>2026-03-29T08:31:19.832Z</time></trkpt><trkpt lat="43.21963233876201" lon="12.203040567239983"><ele>318.0</ele><time>2026-03-29T08:31:20.832Z</time></trkpt><trkpt lat="43.219675283121944" lon="12.202934860381369"><ele>318.0</ele><time>2026-03-29T08:31:21.832Z</time></trkpt><trkpt lat="43.21972274238641" lon="12.202833855885862"><ele>318.0</ele><time>2026-03-29T08:31:22.831Z</time></trkpt><trkpt lat="43.219772299045104" lon="12.202728529460686"><ele>318.0</ele><time>2026-03-29T08:31:23.831Z</time></trkpt><trkpt lat="43.21982088187675" lon="12.202615944647782"><ele>318.0</ele><time>2026-03-29T08:31:24.831Z</time></trkpt><trkpt lat="43.2198637429916" lon="12.202500703597224"><ele>318.0</ele><time>2026-03-29T08:31:25.831Z</time></trkpt><trkpt lat="43.21989729961534" lon="12.2023911246081"><ele>318.0</ele><time>2026-03-29T08:31:26.831Z</time></trkpt><trkpt lat="43.21991371293629" lon="12.202287730067235"><ele>318.0</ele><time>2026-03-29T08:31:27.831Z</time></trkpt><trkpt lat="43.219933204557364" lon="12.202182976896738"><ele>318.0</ele><time>2026-03-29T08:31:28.831Z</time></trkpt><trkpt lat="43.219937178368866" lon="12.202074625177843"><ele>318.0</ele><time>2026-03-29T08:31:29.831Z</time></trkpt><trkpt lat="43.21992407766604" lon="12.201969352952593"><ele>318.0</ele><time>2026-03-29T08:31:30.831Z</time></trkpt><trkpt lat="43.21988342621" lon="12.201884527299354"><ele>318.0</ele><time>2026-03-29T08:31:31.831Z</time></trkpt><trkpt lat="43.21983127287082" lon="12.201817907232929"><ele>318.0</ele><time>2026-03-29T08:31:32.831Z</time></trkpt><trkpt lat="43.21977083012348" lon="12.201778358950978"><ele>318.0</ele><time>2026-03-29T08:31:33.831Z</time></trkpt><trkpt lat="43.219710980428005" lon="12.201713866243043"><ele>318.0</ele><time>2026-03-29T08:31:34.833Z</time></trkpt><trkpt lat="43.21964846795955" lon="12.201645306862739"><ele>318.0</ele><time>2026-03-29T08:31:35.834Z</time></trkpt><trkpt lat="43.21957583267421" lon="12.201577870196342"><ele>317.4</ele><time>2026-03-29T08:31:36.834Z</time></trkpt><trkpt lat="43.21948878271085" lon="12.20154629089465"><ele>316.8</ele><time>2026-03-29T08:31:37.833Z</time></trkpt><trkpt lat="43.219410729509384" lon="12.201558770926546"><ele>316.2</ele><time>2026-03-29T08:31:38.833Z</time></trkpt><trkpt lat="43.21934065824573" lon="12.201609811266449"><ele>315.6</ele><time>2026-03-29T08:31:39.833Z</time></trkpt><trkpt lat="43.219270126615314" lon="12.201679406427248"><ele>315.0</ele><time>2026-03-29T08:31:40.834Z</time></trkpt><trkpt lat="43.21917206959162" lon="12.20176131438026"><ele>315.0</ele><time>2026-03-29T08:31:41.832Z</time></trkpt><trkpt lat="43.21906371937378" lon="12.201836264912876"><ele>315.0</ele><time>2026-03-29T08:31:42.832Z</time></trkpt><trkpt lat="43.21896950769627" lon="12.201898565374101"><ele>315.0</ele><time>2026-03-29T08:31:43.833Z</time></trkpt><trkpt lat="43.21889184161914" lon="12.201948782402129"><ele>315.0</ele><time>2026-03-29T08:31:44.833Z</time></trkpt><trkpt lat="43.21882811530418" lon="12.201988531029516"><ele>315.0</ele><time>2026-03-29T08:31:45.833Z</time></trkpt><trkpt lat="43.21875477188481" lon="12.201979196153896"><ele>314.85714285714283</ele><time>2026-03-29T08:31:47.833Z</time></trkpt><trkpt lat="43.21871348272198" lon="12.201909337654724"><ele>314.7142857142857</ele><time>2026-03-29T08:31:51.833Z</time></trkpt><trkpt lat="43.21867924510347" lon="12.201986071948212"><ele>314.57142857142856</ele><time>2026-03-29T08:31:55.833Z</time></trkpt><trkpt lat="43.21871217973987" lon="12.20189729901062"><ele>314.42857142857144</ele><time>2026-03-29T08:32:01.833Z</time></trkpt><trkpt lat="43.21867594218204" lon="12.201814500191157"><ele>314.2857142857143</ele><time>2026-03-29T08:32:02.832Z</time></trkpt><trkpt lat="43.218644280904314" lon="12.201738907317072"><ele>314.1428571428571</ele><time>2026-03-29T08:32:03.832Z</time></trkpt><trkpt lat="43.218606495557886" lon="12.201642491928366"><ele>314.0</ele><time>2026-03-29T08:32:04.832Z</time></trkpt><trkpt lat="43.21856178954822" lon="12.201529582087181"><ele>313.5</ele><time>2026-03-29T08:32:05.832Z</time></trkpt><trkpt lat="43.218507296459656" lon="12.201389248287125"><ele>313.0</ele><time>2026-03-29T08:32:06.832Z</time></trkpt><trkpt lat="43.218446013843064" lon="12.201229193666112"><ele>312.5</ele><time>2026-03-29T08:32:07.832Z</time></trkpt><trkpt lat="43.218390467085676" lon="12.201087456196799"><ele>312.0</ele><time>2026-03-29T08:32:08.832Z</time></trkpt><trkpt lat="43.218337712334915" lon="12.200951205827712"><ele>312.0</ele><time>2026-03-29T08:32:09.832Z</time></trkpt><trkpt lat="43.21828244246553" lon="12.20080917236834"><ele>312.0</ele><time>2026-03-29T08:32:10.832Z</time></trkpt><trkpt lat="43.21822376310991" lon="12.200661124850013"><ele>312.0</ele><time>2026-03-29T08:32:11.832Z</time></trkpt><trkpt lat="43.218162418917366" lon="12.20050580922724"><ele>312.0</ele><time>2026-03-29T08:32:12.832Z</time></trkpt><trkpt lat="43.21810239763435" lon="12.200354449880786"><ele>311.8</ele><time>2026-03-29T08:32:13.832Z</time></trkpt><trkpt lat="43.218045386154266" lon="12.200221948995846"><ele>311.6</ele><time>2026-03-29T08:32:14.832Z</time></trkpt><trkpt lat="43.21799322846617" lon="12.200097004381611"><ele>311.40000000000003</ele><time>2026-03-29T08:32:15.832Z</time></trkpt><trkpt lat="43.217946951860256" lon="12.199979821142483"><ele>311.2</ele><time>2026-03-29T08:32:16.832Z</time></trkpt><trkpt lat="43.21790484664021" lon="12.199865877640459"><ele>311.0</ele><time>2026-03-29T08:32:17.832Z</time></trkpt><trkpt lat="43.217858983535535" lon="12.199746917415904"><ele>310.8</ele><time>2026-03-29T08:32:18.832Z</time></trkpt><trkpt lat="43.21781291527238" lon="12.199630862389261"><ele>310.6</ele><time>2026-03-29T08:32:19.832Z</time></trkpt><trkpt lat="43.21776396449893" lon="12.19950842370524"><ele>310.4</ele><time>2026-03-29T08:32:20.832Z</time></trkpt><trkpt lat="43.217714687616514" lon="12.199375810236553"><ele>310.2</ele><time>2026-03-29T08:32:21.832Z</time></trkpt><trkpt lat="43.21766336247635" lon="12.19924443124958"><ele>310.0</ele><time>2026-03-29T08:32:22.832Z</time></trkpt><trkpt lat="43.21760621903383" lon="12.199111467047274"><ele>310.0</ele><time>2026-03-29T08:32:23.832Z</time></trkpt><trkpt lat="43.21755308996213" lon="12.198981842540059"><ele>310.0</ele><time>2026-03-29T08:32:24.832Z</time></trkpt><trkpt lat="43.21750667118578" lon="12.198864360458588"><ele>310.0</ele><time>2026-03-29T08:32:25.832Z</time></trkpt><trkpt lat="43.21746361210494" lon="12.19875093861536"><ele>310.0</ele><time>2026-03-29T08:32:26.832Z</time></trkpt><trkpt lat="43.217419553651986" lon="12.198628030405333"><ele>310.0</ele><time>2026-03-29T08:32:27.832Z</time></trkpt><trkpt lat="43.21737963602624" lon="12.1984902292678"><ele>310.0</ele><time>2026-03-29T08:32:28.832Z</time></trkpt><trkpt lat="43.217345202683745" lon="12.198346819011164"><ele>310.0</ele><time>2026-03-29T08:32:29.831Z</time></trkpt><trkpt lat="43.21732257967231" lon="12.198199305296608"><ele>310.0</ele><time>2026-03-29T08:32:30.831Z</time></trkpt><trkpt lat="43.21731191915765" lon="12.198055493764862"><ele>310.0</ele><time>2026-03-29T08:32:31.831Z</time></trkpt><trkpt lat="43.21730266155987" lon="12.197916307845503"><ele>310.0</ele><time>2026-03-29T08:32:32.831Z</time></trkpt><trkpt lat="43.21729100224235" lon="12.19777266879588"><ele>310.25</ele><time>2026-03-29T08:32:33.831Z</time></trkpt><trkpt lat="43.217273595079114" lon="12.197619589873002"><ele>310.5</ele><time>2026-03-29T08:32:34.831Z</time></trkpt><trkpt lat="43.217254760620676" lon="12.197459241875924"><ele>310.75</ele><time>2026-03-29T08:32:35.831Z</time></trkpt><trkpt lat="43.21723160860923" lon="12.197295223349755"><ele>311.0</ele><time>2026-03-29T08:32:36.831Z</time></trkpt><trkpt lat="43.21720924977945" lon="12.19713926206758"><ele>311.0</ele><time>2026-03-29T08:32:37.831Z</time></trkpt><trkpt lat="43.21719277416982" lon="12.196996808952187"><ele>311.0</ele><time>2026-03-29T08:32:38.831Z</time></trkpt><trkpt lat="43.21717680737801" lon="12.196849102081368"><ele>311.0</ele><time>2026-03-29T08:32:39.831Z</time></trkpt><trkpt lat="43.21716116238458" lon="12.19671379826916"><ele>311.0</ele><time>2026-03-29T08:32:40.831Z</time></trkpt><trkpt lat="43.21714893961522" lon="12.196583401879037"><ele>311.0</ele><time>2026-03-29T08:32:41.831Z</time></trkpt><trkpt lat="43.21714048451637" lon="12.196453010831542"><ele>311.2</ele><time>2026-03-29T08:32:42.831Z</time></trkpt><trkpt lat="43.2171426127844" lon="12.19632638933424"><ele>311.40000000000003</ele><time>2026-03-29T08:32:43.831Z</time></trkpt><trkpt lat="43.21716365878966" lon="12.196187022938325"><ele>311.6</ele><time>2026-03-29T08:32:44.831Z</time></trkpt><trkpt lat="43.217196056993046" lon="12.196049402020527"><ele>311.8</ele><time>2026-03-29T08:32:45.831Z</time></trkpt><trkpt lat="43.2172286440584" lon="12.195907245351602"><ele>312.0</ele><time>2026-03-29T08:32:46.831Z</time></trkpt><trkpt lat="43.21726509829876" lon="12.195769236121047"><ele>312.0</ele><time>2026-03-29T08:32:47.831Z</time></trkpt><trkpt lat="43.21729912951309" lon="12.195614956175275"><ele>312.0</ele><time>2026-03-29T08:32:48.831Z</time></trkpt><trkpt lat="43.21733522414743" lon="12.19546821261928"><ele>312.0</ele><time>2026-03-29T08:32:49.831Z</time></trkpt><trkpt lat="43.2173612998852" lon="12.195360782930251"><ele>312.0</ele><time>2026-03-29T08:32:50.831Z</time></trkpt><trkpt lat="43.217396200096985" lon="12.195246660383877"><ele>312.0</ele><time>2026-03-29T08:32:52.831Z</time></trkpt><trkpt lat="43.2174149271813" lon="12.195152399009993"><ele>312.0</ele><time>2026-03-29T08:32:54.831Z</time></trkpt><trkpt lat="43.217377772158095" lon="12.19504435460795"><ele>312.0</ele><time>2026-03-29T08:34:57.829Z</time></trkpt><trkpt lat="43.21742227988483" lon="12.194939143301227"><ele>312.0</ele><time>2026-03-29T08:35:04.828Z</time></trkpt><trkpt lat="43.21743778852641" lon="12.194752587120735"><ele>312.0</ele><time>2026-03-29T08:35:06.828Z</time></trkpt><trkpt lat="43.21739823245828" lon="12.194625456126934"><ele>312.0</ele><time>2026-03-29T08:35:07.828Z</time></trkpt><trkpt lat="43.21732439288723" lon="12.194475387428339"><ele>312.3333333333333</ele><time>2026-03-29T08:35:08.828Z</time></trkpt><trkpt lat="43.21724377775658" lon="12.194309690703106"><ele>312.66666666666663</ele><time>2026-03-29T08:35:09.828Z</time></trkpt><trkpt lat="43.21715501398983" lon="12.194111064957609"><ele>313.0</ele><time>2026-03-29T08:35:10.828Z</time></trkpt><trkpt lat="43.217069126105585" lon="12.193913135455942"><ele>313.25</ele><time>2026-03-29T08:35:11.828Z</time></trkpt><trkpt lat="43.217006507129994" lon="12.193715893831747"><ele>313.5</ele><time>2026-03-29T08:35:12.828Z</time></trkpt><trkpt lat="43.21694556248346" lon="12.193554001888899"><ele>313.75</ele><time>2026-03-29T08:35:13.828Z</time></trkpt><trkpt lat="43.21688361525801" lon="12.193409765124438"><ele>314.0</ele><time>2026-03-29T08:35:14.828Z</time></trkpt><trkpt lat="43.21682391972871" lon="12.193272442185659"><ele>313.75</ele><time>2026-03-29T08:35:15.828Z</time></trkpt><trkpt lat="43.216761080370524" lon="12.193123304366534"><ele>313.5</ele><time>2026-03-29T08:35:16.828Z</time></trkpt><trkpt lat="43.2167023107274" lon="12.192968987456082"><ele>313.25</ele><time>2026-03-29T08:35:17.828Z</time></trkpt><trkpt lat="43.21664188451602" lon="12.192815280988125"><ele>313.0</ele><time>2026-03-29T08:35:18.828Z</time></trkpt><trkpt lat="43.21657735564036" lon="12.192666583886728"><ele>313.0</ele><time>2026-03-29T08:35:19.828Z</time></trkpt><trkpt lat="43.21652228572915" lon="12.192524719285155"><ele>313.0</ele><time>2026-03-29T08:35:20.828Z</time></trkpt><trkpt lat="43.21648096502733" lon="12.192376671874438"><ele>313.0</ele><time>2026-03-29T08:35:21.828Z</time></trkpt><trkpt lat="43.216447464789326" lon="12.192231376882978"><ele>313.0</ele><time>2026-03-29T08:35:22.828Z</time></trkpt><trkpt lat="43.21643682314226" lon="12.192121579052381"><ele>313.0</ele><time>2026-03-29T08:35:23.828Z</time></trkpt><trkpt lat="43.21643553118124" lon="12.191982173418053"><ele>313.0</ele><time>2026-03-29T08:35:25.828Z</time></trkpt><trkpt lat="43.216487240052416" lon="12.191924048089017"><ele>313.0</ele><time>2026-03-29T08:35:28.828Z</time></trkpt><trkpt lat="43.216561368955865" lon="12.19190196233239"><ele>313.0</ele><time>2026-03-29T08:35:29.827Z</time></trkpt><trkpt lat="43.216679150425136" lon="12.191900855739384"><ele>313.0</ele><time>2026-03-29T08:35:30.827Z</time></trkpt><trkpt lat="43.21682478529052" lon="12.191881115843898"><ele>313.0</ele><time>2026-03-29T08:35:31.827Z</time></trkpt><trkpt lat="43.217000585825126" lon="12.191856074009861"><ele>313.0</ele><time>2026-03-29T08:35:32.827Z</time></trkpt><trkpt lat="43.21715617148535" lon="12.191836703229598"><ele>313.0</ele><time>2026-03-29T08:35:33.827Z</time></trkpt><trkpt lat="43.217308310531685" lon="12.191823278149355"><ele>313.0</ele><time>2026-03-29T08:35:34.827Z</time></trkpt><trkpt lat="43.21747695453307" lon="12.191807602667936"><ele>312.66666666666663</ele><time>2026-03-29T08:35:35.827Z</time></trkpt><trkpt lat="43.21763559692508" lon="12.191793298517796"><ele>312.3333333333333</ele><time>2026-03-29T08:35:36.827Z</time></trkpt><trkpt lat="43.21779223145308" lon="12.19177223397371"><ele>312.0</ele><time>2026-03-29T08:35:37.827Z</time></trkpt><trkpt lat="43.21794070960331" lon="12.191748301990929"><ele>312.0</ele><time>2026-03-29T08:35:38.827Z</time></trkpt><trkpt lat="43.21807959815036" lon="12.191730715362239"><ele>312.0</ele><time>2026-03-29T08:35:39.827Z</time></trkpt><trkpt lat="43.21822052953556" lon="12.19171502487693"><ele>312.0</ele><time>2026-03-29T08:35:40.827Z</time></trkpt><trkpt lat="43.21836499602912" lon="12.191694227603818"><ele>312.0</ele><time>2026-03-29T08:35:41.827Z</time></trkpt><trkpt lat="43.218508440291636" lon="12.191673332336551"><ele>312.0</ele><time>2026-03-29T08:35:42.827Z</time></trkpt><trkpt lat="43.21864061051024" lon="12.191643510672298"><ele>312.0</ele><time>2026-03-29T08:35:43.827Z</time></trkpt><trkpt lat="43.218755630791954" lon="12.191600770546442"><ele>312.0</ele><time>2026-03-29T08:35:44.827Z</time></trkpt><trkpt lat="43.21885937415114" lon="12.1915515201747"><ele>312.0</ele><time>2026-03-29T08:35:45.827Z</time></trkpt><trkpt lat="43.21895121391931" lon="12.191498682416388"><ele>312.8</ele><time>2026-03-29T08:35:46.829Z</time></trkpt><trkpt lat="43.21903116404247" lon="12.191438357047659"><ele>313.6</ele><time>2026-03-29T08:35:47.828Z</time></trkpt><trkpt lat="43.21909917867386" lon="12.191355429021193"><ele>314.40000000000003</ele><time>2026-03-29T08:35:48.828Z</time></trkpt><trkpt lat="43.21916566739953" lon="12.19123222798968"><ele>315.2</ele><time>2026-03-29T08:35:49.829Z</time></trkpt><trkpt lat="43.21924289652698" lon="12.191085917116725"><ele>316.0</ele><time>2026-03-29T08:35:50.828Z</time></trkpt><trkpt lat="43.219335085963024" lon="12.190927892903119"><ele>316.0</ele><time>2026-03-29T08:35:51.828Z</time></trkpt><trkpt lat="43.21942120913699" lon="12.190787352100466"><ele>316.0</ele><time>2026-03-29T08:35:52.829Z</time></trkpt><trkpt lat="43.219508237700396" lon="12.190653522739932"><ele>316.0</ele><time>2026-03-29T08:35:53.828Z</time></trkpt><trkpt lat="43.21959584042838" lon="12.190518628754822"><ele>316.0</ele><time>2026-03-29T08:35:54.828Z</time></trkpt><trkpt lat="43.219677343012705" lon="12.190390717791347"><ele>315.8</ele><time>2026-03-29T08:35:55.828Z</time></trkpt><trkpt lat="43.21975251248664" lon="12.190271645898532"><ele>315.6</ele><time>2026-03-29T08:35:56.829Z</time></trkpt><trkpt lat="43.21981535258894" lon="12.19016894246859"><ele>315.4</ele><time>2026-03-29T08:35:57.829Z</time></trkpt><trkpt lat="43.21988656215124" lon="12.190062255679896"><ele>315.2</ele><time>2026-03-29T08:35:58.829Z</time></trkpt><trkpt lat="43.219963365587745" lon="12.189942003983974"><ele>315.0</ele><time>2026-03-29T08:35:59.829Z</time></trkpt><trkpt lat="43.22004975297968" lon="12.189811231848289"><ele>315.5</ele><time>2026-03-29T08:36:00.829Z</time></trkpt><trkpt lat="43.2201396180136" lon="12.189677921071887"><ele>316.0</ele><time>2026-03-29T08:36:01.829Z</time></trkpt><trkpt lat="43.22023103986053" lon="12.189537038724042"><ele>316.5</ele><time>2026-03-29T08:36:02.829Z</time></trkpt><trkpt lat="43.22032218448249" lon="12.189391570785485"><ele>317.0</ele><time>2026-03-29T08:36:03.829Z</time></trkpt><trkpt lat="43.220419623918566" lon="12.189246961049305"><ele>317.0</ele><time>2026-03-29T08:36:04.829Z</time></trkpt><trkpt lat="43.22050447839286" lon="12.189111682096582"><ele>317.0</ele><time>2026-03-29T08:36:05.828Z</time></trkpt><trkpt lat="43.2205748701489" lon="12.188982981314695"><ele>317.0</ele><time>2026-03-29T08:36:06.828Z</time></trkpt><trkpt lat="43.220633702025054" lon="12.188845678078787"><ele>317.0</ele><time>2026-03-29T08:36:07.828Z</time></trkpt><trkpt lat="43.220676155105224" lon="12.18870607395429"><ele>316.75</ele><time>2026-03-29T08:36:08.828Z</time></trkpt><trkpt lat="43.22071832675975" lon="12.188561080751322"><ele>316.5</ele><time>2026-03-29T08:36:09.828Z</time></trkpt><trkpt lat="43.2207509318573" lon="12.188403717473408"><ele>316.25</ele><time>2026-03-29T08:36:10.828Z</time></trkpt><trkpt lat="43.22077694661929" lon="12.188245212796083"><ele>316.0</ele><time>2026-03-29T08:36:11.828Z</time></trkpt><trkpt lat="43.22079399585183" lon="12.188074271018664"><ele>317.0</ele><time>2026-03-29T08:36:12.828Z</time></trkpt><trkpt lat="43.2208136207856" lon="12.18789568221782"><ele>318.0</ele><time>2026-03-29T08:36:13.828Z</time></trkpt><trkpt lat="43.220832918421415" lon="12.187717016502381"><ele>319.0</ele><time>2026-03-29T08:36:14.828Z</time></trkpt><trkpt lat="43.220850592749905" lon="12.1875365672032"><ele>320.0</ele><time>2026-03-29T08:36:15.828Z</time></trkpt><trkpt lat="43.220864614151" lon="12.187360476374932"><ele>321.0</ele><time>2026-03-29T08:36:16.828Z</time></trkpt><trkpt lat="43.22087954187852" lon="12.187182561787877"><ele>322.0</ele><time>2026-03-29T08:36:17.828Z</time></trkpt><trkpt lat="43.220893502000855" lon="12.18699746843079"><ele>323.0</ele><time>2026-03-29T08:36:18.828Z</time></trkpt><trkpt lat="43.22090653106772" lon="12.186821872676408"><ele>324.0</ele><time>2026-03-29T08:36:19.828Z</time></trkpt><trkpt lat="43.22093250560291" lon="12.186650595232175"><ele>323.75</ele><time>2026-03-29T08:36:20.828Z</time></trkpt><trkpt lat="43.22097343221322" lon="12.186500023650625"><ele>323.5</ele><time>2026-03-29T08:36:21.828Z</time></trkpt><trkpt lat="43.22102737358299" lon="12.186353449923029"><ele>323.25</ele><time>2026-03-29T08:36:22.828Z</time></trkpt><trkpt lat="43.221088370152366" lon="12.186218535172918"><ele>323.0</ele><time>2026-03-29T08:36:23.828Z</time></trkpt><trkpt lat="43.221155091058996" lon="12.18610140486968"><ele>323.0</ele><time>2026-03-29T08:36:24.828Z</time></trkpt><trkpt lat="43.22124045955001" lon="12.186000818838519"><ele>323.0</ele><time>2026-03-29T08:36:25.828Z</time></trkpt><trkpt lat="43.221352074358" lon="12.185895932515466"><ele>323.0</ele><time>2026-03-29T08:36:26.828Z</time></trkpt><trkpt lat="43.221483678505415" lon="12.185782508343218"><ele>323.0</ele><time>2026-03-29T08:36:27.828Z</time></trkpt><trkpt lat="43.221623055006624" lon="12.185657766055355"><ele>325.0</ele><time>2026-03-29T08:36:28.828Z</time></trkpt><trkpt lat="43.2217441090447" lon="12.185548157320692"><ele>327.0</ele><time>2026-03-29T08:36:29.828Z</time></trkpt><trkpt lat="43.221827140409616" lon="12.185491284239394"><ele>329.0</ele><time>2026-03-29T08:36:30.828Z</time></trkpt><trkpt lat="43.221890239294844" lon="12.185482014689223"><ele>331.0</ele><time>2026-03-29T08:36:31.828Z</time></trkpt><trkpt lat="43.221999787080556" lon="12.185512288658531"><ele>333.0</ele><time>2026-03-29T08:36:33.827Z</time></trkpt><trkpt lat="43.22205207639946" lon="12.18557264104249"><ele>333.0</ele><time>2026-03-29T08:36:34.827Z</time></trkpt><trkpt lat="43.222100646670654" lon="12.185638587733285"><ele>333.0</ele><time>2026-03-29T08:36:35.827Z</time></trkpt><trkpt lat="43.222155884062985" lon="12.185713920885137"><ele>333.0</ele><time>2026-03-29T08:36:36.827Z</time></trkpt><trkpt lat="43.22221018564146" lon="12.185820563668528"><ele>333.0</ele><time>2026-03-29T08:36:37.827Z</time></trkpt><trkpt lat="43.22229715496592" lon="12.185912538083775"><ele>333.0</ele><time>2026-03-29T08:36:38.827Z</time></trkpt><trkpt lat="43.22236661907191" lon="12.186035103417918"><ele>337.25</ele><time>2026-03-29T08:36:39.827Z</time></trkpt><trkpt lat="43.22244113676908" lon="12.186206550853456"><ele>341.5</ele><time>2026-03-29T08:36:40.827Z</time></trkpt><trkpt lat="43.222502977680485" lon="12.186389721218694"><ele>345.75</ele><time>2026-03-29T08:36:41.827Z</time></trkpt><trkpt lat="43.222536996273014" lon="12.186495609040701"><ele>350.0</ele><time>2026-03-29T08:36:42.827Z</time></trkpt><trkpt lat="43.22258321527201" lon="12.186577300892804"><ele>350.0</ele><time>2026-03-29T08:36:43.827Z</time></trkpt><trkpt lat="43.22264889552187" lon="12.186619839545296"><ele>350.0</ele><time>2026-03-29T08:36:44.827Z</time></trkpt><trkpt lat="43.22273750487188" lon="12.186648442273924"><ele>350.0</ele><time>2026-03-29T08:36:45.827Z</time></trkpt><trkpt lat="43.222829696702064" lon="12.186683739943076"><ele>350.0</ele><time>2026-03-29T08:36:46.827Z</time></trkpt><trkpt lat="43.22293180113024" lon="12.186718316528323"><ele>350.0</ele><time>2026-03-29T08:36:47.827Z</time></trkpt><trkpt lat="43.22305419783285" lon="12.18676278462296"><ele>352.5</ele><time>2026-03-29T08:36:48.827Z</time></trkpt><trkpt lat="43.223153910406204" lon="12.186783972454963"><ele>355.0</ele><time>2026-03-29T08:36:49.827Z</time></trkpt><trkpt lat="43.2232174382748" lon="12.186791885119419"><ele>357.5</ele><time>2026-03-29T08:36:50.827Z</time></trkpt><trkpt lat="43.22332596182547" lon="12.186738221629634"><ele>360.0</ele><time>2026-03-29T08:36:52.827Z</time></trkpt><trkpt lat="43.223391879597024" lon="12.186703397738682"><ele>362.5</ele><time>2026-03-29T08:36:53.827Z</time></trkpt><trkpt lat="43.223480095560596" lon="12.186686048008587"><ele>365.0</ele><time>2026-03-29T08:36:54.827Z</time></trkpt><trkpt lat="43.22357628581486" lon="12.18666188747138"><ele>365.0</ele><time>2026-03-29T08:36:55.827Z</time></trkpt><trkpt lat="43.223686550475264" lon="12.186613885186944"><ele>365.0</ele><time>2026-03-29T08:36:56.827Z</time></trkpt><trkpt lat="43.22380551237481" lon="12.186545766679632"><ele>365.0</ele><time>2026-03-29T08:36:57.827Z</time></trkpt><trkpt lat="43.223902662939025" lon="12.186476228203237"><ele>365.0</ele><time>2026-03-29T08:36:58.827Z</time></trkpt><trkpt lat="43.224027919913794" lon="12.186390350899185"><ele>367.2</ele><time>2026-03-29T08:36:59.827Z</time></trkpt><trkpt lat="43.22416085719721" lon="12.186301663648731"><ele>369.4</ele><time>2026-03-29T08:37:00.826Z</time></trkpt><trkpt lat="43.22426363214006" lon="12.18626283635029"><ele>371.6</ele><time>2026-03-29T08:37:01.826Z</time></trkpt><trkpt lat="43.2243448603169" lon="12.186230838374465"><ele>373.8</ele><time>2026-03-29T08:37:02.826Z</time></trkpt><trkpt lat="43.224403932046116" lon="12.186185683953568"><ele>376.0</ele><time>2026-03-29T08:37:03.826Z</time></trkpt><trkpt lat="43.22444517026878" lon="12.186042294506928"><ele>376.0</ele><time>2026-03-29T08:37:05.826Z</time></trkpt><trkpt lat="43.22435205846323" lon="12.185921768206118"><ele>376.0</ele><time>2026-03-29T08:37:07.826Z</time></trkpt><trkpt lat="43.2242797716181" lon="12.185816849604638"><ele>376.0</ele><time>2026-03-29T08:37:08.826Z</time></trkpt><trkpt lat="43.22421399016424" lon="12.185660100470335"><ele>376.0</ele><time>2026-03-29T08:37:09.826Z</time></trkpt><trkpt lat="43.224162679106406" lon="12.185539101940845"><ele>375.66666666666663</ele><time>2026-03-29T08:37:10.826Z</time></trkpt><trkpt lat="43.22412920075314" lon="12.185450630531639"><ele>375.3333333333333</ele><time>2026-03-29T08:37:11.826Z</time></trkpt><trkpt lat="43.224119091658615" lon="12.185339738002785"><ele>375.0</ele><time>2026-03-29T08:37:12.826Z</time></trkpt><trkpt lat="43.224143273770615" lon="12.185242893645775"><ele>374.6666666666667</ele><time>2026-03-29T08:37:13.826Z</time></trkpt><trkpt lat="43.22416078218778" lon="12.185118927985572"><ele>374.33333333333337</ele><time>2026-03-29T08:37:14.826Z</time></trkpt><trkpt lat="43.22419894269952" lon="12.184972419470983"><ele>374.0</ele><time>2026-03-29T08:37:15.826Z</time></trkpt><trkpt lat="43.22424126984224" lon="12.184790431308048"><ele>373.75</ele><time>2026-03-29T08:37:16.826Z</time></trkpt><trkpt lat="43.22426893207196" lon="12.184600892870794"><ele>373.5</ele><time>2026-03-29T08:37:17.826Z</time></trkpt><trkpt lat="43.22429167884377" lon="12.184433356293392"><ele>373.25</ele><time>2026-03-29T08:37:18.826Z</time></trkpt><trkpt lat="43.22429105871559" lon="12.184264693861513"><ele>373.0</ele><time>2026-03-29T08:37:19.826Z</time></trkpt><trkpt lat="43.2242865546635" lon="12.184097604487311"><ele>374.0</ele><time>2026-03-29T08:37:20.826Z</time></trkpt><trkpt lat="43.224249144564475" lon="12.183867700535087"><ele>375.0</ele><time>2026-03-29T08:37:21.826Z</time></trkpt><trkpt lat="43.22421998146763" lon="12.183622684062586"><ele>376.0</ele><time>2026-03-29T08:37:22.826Z</time></trkpt><trkpt lat="43.22419386988474" lon="12.183441405930127"><ele>376.0</ele><time>2026-03-29T08:37:23.826Z</time></trkpt><trkpt lat="43.22416889314263" lon="12.183302006081705"><ele>376.0</ele><time>2026-03-29T08:37:24.826Z</time></trkpt><trkpt lat="43.22414091593382" lon="12.183205276089886"><ele>376.0</ele><time>2026-03-29T08:37:25.826Z</time></trkpt><trkpt lat="43.22406679665788" lon="12.18312971081146"><ele>376.0</ele><time>2026-03-29T08:37:26.826Z</time></trkpt><trkpt lat="43.223987524325935" lon="12.183062880539772"><ele>376.0</ele><time>2026-03-29T08:37:27.826Z</time></trkpt><trkpt lat="43.22390216457912" lon="12.183003624523991"><ele>377.5</ele><time>2026-03-29T08:37:28.826Z</time></trkpt><trkpt lat="43.22379119221097" lon="12.182939820375816"><ele>379.0</ele><time>2026-03-29T08:37:29.825Z</time></trkpt><trkpt lat="43.22365937968943" lon="12.182819933185371"><ele>380.5</ele><time>2026-03-29T08:37:30.825Z</time></trkpt><trkpt lat="43.223544815633495" lon="12.182742758073257"><ele>382.0</ele><time>2026-03-29T08:37:31.825Z</time></trkpt><trkpt lat="43.223453727557924" lon="12.182656406356791"><ele>382.0</ele><time>2026-03-29T08:37:32.825Z</time></trkpt><trkpt lat="43.22338122877757" lon="12.182567517146307"><ele>382.0</ele><time>2026-03-29T08:37:33.825Z</time></trkpt><trkpt lat="43.22334186017496" lon="12.182464793255898"><ele>382.0</ele><time>2026-03-29T08:37:34.825Z</time></trkpt><trkpt lat="43.22328331955783" lon="12.182368182109899"><ele>382.0</ele><time>2026-03-29T08:37:35.825Z</time></trkpt><trkpt lat="43.22322359239902" lon="12.182218182496245"><ele>382.0</ele><time>2026-03-29T08:37:36.825Z</time></trkpt><trkpt lat="43.2231385485995" lon="12.182036202820226"><ele>382.75</ele><time>2026-03-29T08:37:37.825Z</time></trkpt><trkpt lat="43.223047585607155" lon="12.181878100563752"><ele>383.5</ele><time>2026-03-29T08:37:38.825Z</time></trkpt><trkpt lat="43.22293504326858" lon="12.181757740670294"><ele>384.25</ele><time>2026-03-29T08:37:39.825Z</time></trkpt><trkpt lat="43.22283571827319" lon="12.18161729390079"><ele>385.0</ele><time>2026-03-29T08:37:40.825Z</time></trkpt><trkpt lat="43.22276179276214" lon="12.181485719255821"><ele>386.33333333333337</ele><time>2026-03-29T08:37:41.825Z</time></trkpt><trkpt lat="43.22271963494541" lon="12.18136151403983"><ele>387.6666666666667</ele><time>2026-03-29T08:37:42.825Z</time></trkpt><trkpt lat="43.2226995941649" lon="12.181262366063638"><ele>389.0</ele><time>2026-03-29T08:37:43.825Z</time></trkpt><trkpt lat="43.22272069495849" lon="12.181140677293486"><ele>390.33333333333337</ele><time>2026-03-29T08:37:45.825Z</time></trkpt><trkpt lat="43.22274539056908" lon="12.1810496174773"><ele>391.6666666666667</ele><time>2026-03-29T08:37:46.825Z</time></trkpt><trkpt lat="43.22277953703714" lon="12.180976297679074"><ele>393.0</ele><time>2026-03-29T08:37:47.825Z</time></trkpt><trkpt lat="43.22284428841032" lon="12.180925096905606"><ele>393.0</ele><time>2026-03-29T08:37:48.825Z</time></trkpt><trkpt lat="43.22293399815867" lon="12.180943934014756"><ele>393.0</ele><time>2026-03-29T08:37:50.825Z</time></trkpt><trkpt lat="43.223007615676984" lon="12.181025508776793"><ele>393.0</ele><time>2026-03-29T08:37:52.827Z</time></trkpt><trkpt lat="43.22307389271002" lon="12.181066850335121"><ele>393.0</ele><time>2026-03-29T08:37:54.827Z</time></trkpt><trkpt lat="43.2232146322672" lon="12.181029216542369"><ele>393.0</ele><time>2026-03-29T08:37:56.826Z</time></trkpt><trkpt lat="43.223313417633285" lon="12.181033415553863"><ele>396.4</ele><time>2026-03-29T08:37:57.826Z</time></trkpt><trkpt lat="43.22342111526808" lon="12.181053976812033"><ele>399.79999999999995</ele><time>2026-03-29T08:37:58.826Z</time></trkpt><trkpt lat="43.22351479378031" lon="12.18105849875416"><ele>403.2</ele><time>2026-03-29T08:37:59.826Z</time></trkpt><trkpt lat="43.22359609897256" lon="12.181079994537578"><ele>406.6</ele><time>2026-03-29T08:38:00.826Z</time></trkpt><trkpt lat="43.223674168930046" lon="12.181150638924393"><ele>410.0</ele><time>2026-03-29T08:38:01.826Z</time></trkpt><trkpt lat="43.2238687336309" lon="12.18122830293212"><ele>410.0</ele><time>2026-03-29T08:38:03.826Z</time></trkpt><trkpt lat="43.223952486525974" lon="12.181221099741103"><ele>410.0</ele><time>2026-03-29T08:38:04.826Z</time></trkpt><trkpt lat="43.224042060389884" lon="12.18119559335819"><ele>410.0</ele><time>2026-03-29T08:38:05.827Z</time></trkpt><trkpt lat="43.22415415215795" lon="12.181167174099532"><ele>410.0</ele><time>2026-03-29T08:38:06.827Z</time></trkpt><trkpt lat="43.22427271516959" lon="12.181142628554673"><ele>410.0</ele><time>2026-03-29T08:38:07.827Z</time></trkpt><trkpt lat="43.22435925015709" lon="12.181122878999624"><ele>412.8</ele><time>2026-03-29T08:38:08.827Z</time></trkpt><trkpt lat="43.2244294087713" lon="12.181115435310042"><ele>415.6</ele><time>2026-03-29T08:38:09.827Z</time></trkpt><trkpt lat="43.22452654568349" lon="12.181112353302188"><ele>418.4</ele><time>2026-03-29T08:38:11.827Z</time></trkpt><trkpt lat="43.224686891947854" lon="12.18112015344002"><ele>421.2</ele><time>2026-03-29T08:38:14.826Z</time></trkpt><trkpt lat="43.22475950043565" lon="12.181124290062554"><ele>424.0</ele><time>2026-03-29T08:38:15.826Z</time></trkpt><trkpt lat="43.22483481656285" lon="12.181135708974997"><ele>425.33333333333337</ele><time>2026-03-29T08:38:16.826Z</time></trkpt><trkpt lat="43.22491803778272" lon="12.18113992015534"><ele>426.6666666666667</ele><time>2026-03-29T08:38:17.826Z</time></trkpt><trkpt lat="43.22501946497901" lon="12.181136544815878"><ele>428.0</ele><time>2026-03-29T08:38:18.826Z</time></trkpt><trkpt lat="43.225113688765894" lon="12.181141351446332"><ele>429.33333333333337</ele><time>2026-03-29T08:38:19.826Z</time></trkpt><trkpt lat="43.225177948744" lon="12.181136840836553"><ele>430.6666666666667</ele><time>2026-03-29T08:38:20.826Z</time></trkpt><trkpt lat="43.22524866356323" lon="12.181120034268915"><ele>432.0</ele><time>2026-03-29T08:38:22.826Z</time></trkpt><trkpt lat="43.22526378333219" lon="12.181013106951141"><ele>432.0</ele><time>2026-03-29T08:38:24.826Z</time></trkpt><trkpt lat="43.22521995767565" lon="12.180830376737866"><ele>432.0</ele><time>2026-03-29T08:38:26.826Z</time></trkpt><trkpt lat="43.22517476969042" lon="12.180696551130238"><ele>432.0</ele><time>2026-03-29T08:38:27.826Z</time></trkpt><trkpt lat="43.22512292370101" lon="12.180599410044266"><ele>432.0</ele><time>2026-03-29T08:38:28.826Z</time></trkpt><trkpt lat="43.22503066066855" lon="12.180505211559993"><ele>431.20000000000005</ele><time>2026-03-29T08:38:30.826Z</time></trkpt><trkpt lat="43.22493661953054" lon="12.180389266181564"><ele>430.40000000000003</ele><time>2026-03-29T08:38:32.826Z</time></trkpt><trkpt lat="43.224872644731086" lon="12.180323661330501"><ele>429.59999999999997</ele><time>2026-03-29T08:38:33.826Z</time></trkpt><trkpt lat="43.224809893687144" lon="12.18027298110989"><ele>428.79999999999995</ele><time>2026-03-29T08:38:34.826Z</time></trkpt><trkpt lat="43.22471049444632" lon="12.180228629876092"><ele>428.0</ele><time>2026-03-29T08:38:36.826Z</time></trkpt><trkpt lat="43.22469457293464" lon="12.180117940785612"><ele>428.0</ele><time>2026-03-29T08:38:38.826Z</time></trkpt><trkpt lat="43.22476471545818" lon="12.179977617911247"><ele>427.99999999999994</ele><time>2026-03-29T08:38:40.825Z</time></trkpt><trkpt lat="43.22479724379167" lon="12.179879491750741"><ele>427.99999999999994</ele><time>2026-03-29T08:38:41.825Z</time></trkpt><trkpt lat="43.22482503686163" lon="12.17979333686445"><ele>428.0</ele><time>2026-03-29T08:38:43.825Z</time></trkpt><trkpt lat="43.224894328120435" lon="12.179730427399788"><ele>428.0</ele><time>2026-03-29T08:38:45.825Z</time></trkpt><trkpt lat="43.22501951772995" lon="12.179675097890135"><ele>431.2</ele><time>2026-03-29T08:38:47.825Z</time></trkpt><trkpt lat="43.22510303877072" lon="12.179615488124982"><ele>434.4</ele><time>2026-03-29T08:38:48.825Z</time></trkpt><trkpt lat="43.22520231168547" lon="12.179559657064903"><ele>437.59999999999997</ele><time>2026-03-29T08:38:49.825Z</time></trkpt><trkpt lat="43.22529656371809" lon="12.179495825063121"><ele>440.79999999999995</ele><time>2026-03-29T08:38:50.825Z</time></trkpt><trkpt lat="43.22535498532755" lon="12.17943721860243"><ele>444.0</ele><time>2026-03-29T08:38:51.825Z</time></trkpt><trkpt lat="43.22539688046316" lon="12.179306468479641"><ele>444.0</ele><time>2026-03-29T08:38:53.825Z</time></trkpt><trkpt lat="43.2254381852185" lon="12.179195980481847"><ele>444.0</ele><time>2026-03-29T08:38:55.825Z</time></trkpt><trkpt lat="43.22548228316898" lon="12.179124797834536"><ele>444.0</ele><time>2026-03-29T08:38:56.825Z</time></trkpt><trkpt lat="43.225555351234156" lon="12.179041385313484"><ele>444.0</ele><time>2026-03-29T08:38:58.825Z</time></trkpt><trkpt lat="43.22551558038246" lon="12.178937929368756"><ele>444.0</ele><time>2026-03-29T08:39:01.825Z</time></trkpt><trkpt lat="43.22551245212811" lon="12.178790413868208"><ele>444.0</ele><time>2026-03-29T08:39:04.825Z</time></trkpt><trkpt lat="43.225580198342584" lon="12.17868400203539"><ele>446.79999999999995</ele><time>2026-03-29T08:39:06.825Z</time></trkpt><trkpt lat="43.225670033631445" lon="12.178612867336588"><ele>449.59999999999997</ele><time>2026-03-29T08:39:08.824Z</time></trkpt><trkpt lat="43.225711704242244" lon="12.178453173429514"><ele>452.4</ele><time>2026-03-29T08:39:10.824Z</time></trkpt><trkpt lat="43.22571123169545" lon="12.17834563667979"><ele>455.2</ele><time>2026-03-29T08:39:11.824Z</time></trkpt><trkpt lat="43.225719712440814" lon="12.178238722445727"><ele>458.0</ele><time>2026-03-29T08:39:12.824Z</time></trkpt><trkpt lat="43.22572654640751" lon="12.178137453160742"><ele>458.49999999999994</ele><time>2026-03-29T08:39:13.824Z</time></trkpt><trkpt lat="43.22571216382076" lon="12.178031311875737"><ele>459.0</ele><time>2026-03-29T08:39:14.824Z</time></trkpt><trkpt lat="43.225681882756" lon="12.177921495506826"><ele>459.5</ele><time>2026-03-29T08:39:15.824Z</time></trkpt><trkpt lat="43.22567387242688" lon="12.177832044773242"><ele>460.0</ele><time>2026-03-29T08:39:16.824Z</time></trkpt><trkpt lat="43.225665686030624" lon="12.17771477673172"><ele>460.49999999999994</ele><time>2026-03-29T08:39:17.824Z</time></trkpt><trkpt lat="43.225659447994026" lon="12.17761393285746"><ele>461.0</ele><time>2026-03-29T08:39:18.824Z</time></trkpt><trkpt lat="43.225666953687494" lon="12.177508061291636"><ele>461.0</ele><time>2026-03-29T08:39:19.824Z</time></trkpt><trkpt lat="43.22568352537539" lon="12.177396941946398"><ele>461.0</ele><time>2026-03-29T08:39:20.824Z</time></trkpt><trkpt lat="43.22570053593932" lon="12.17723857933665"><ele>461.0</ele><time>2026-03-29T08:39:21.824Z</time></trkpt><trkpt lat="43.22572039146425" lon="12.17708183275729"><ele>461.0</ele><time>2026-03-29T08:39:22.824Z</time></trkpt><trkpt lat="43.22574118145297" lon="12.176951973739087"><ele>461.0</ele><time>2026-03-29T08:39:23.824Z</time></trkpt><trkpt lat="43.22579295659614" lon="12.176817227277505"><ele>461.8</ele><time>2026-03-29T08:39:25.824Z</time></trkpt><trkpt lat="43.22590691822144" lon="12.176679429630068"><ele>462.6</ele><time>2026-03-29T08:39:27.824Z</time></trkpt><trkpt lat="43.22596749568794" lon="12.176593047437105"><ele>463.4</ele><time>2026-03-29T08:39:28.824Z</time></trkpt><trkpt lat="43.22600176258155" lon="12.176504138647164"><ele>464.2</ele><time>2026-03-29T08:39:29.824Z</time></trkpt><trkpt lat="43.22603577771337" lon="12.176418397055276"><ele>465.0</ele><time>2026-03-29T08:39:30.824Z</time></trkpt><trkpt lat="43.22606279900185" lon="12.176321126512978"><ele>466.6</ele><time>2026-03-29T08:39:31.824Z</time></trkpt><trkpt lat="43.2261057958374" lon="12.176179182078492"><ele>468.2</ele><time>2026-03-29T08:39:33.824Z</time></trkpt><trkpt lat="43.22615413601787" lon="12.17605848040594"><ele>469.79999999999995</ele><time>2026-03-29T08:39:35.823Z</time></trkpt><trkpt lat="43.226153637935475" lon="12.175921026935328"><ele>471.4</ele><time>2026-03-29T08:39:37.823Z</time></trkpt><trkpt lat="43.226169630609036" lon="12.175775879747436"><ele>473.0</ele><time>2026-03-29T08:39:39.823Z</time></trkpt><trkpt lat="43.22622182255969" lon="12.175652743766934"><ele>474.8571428571429</ele><time>2026-03-29T08:39:41.823Z</time></trkpt><trkpt lat="43.22622852302459" lon="12.175566490042888"><ele>476.71428571428567</ele><time>2026-03-29T08:39:46.823Z</time></trkpt><trkpt lat="43.22622170250026" lon="12.175460306341606"><ele>478.57142857142856</ele><time>2026-03-29T08:39:51.823Z</time></trkpt><trkpt lat="43.226227662409855" lon="12.175361108688612"><ele>480.42857142857144</ele><time>2026-03-29T08:39:54.823Z</time></trkpt><trkpt lat="43.2262308280892" lon="12.175273088561802"><ele>482.28571428571433</ele><time>2026-03-29T08:39:58.827Z</time></trkpt><trkpt lat="43.22622961786317" lon="12.175181079841655"><ele>484.1428571428571</ele><time>2026-03-29T08:40:00.829Z</time></trkpt><trkpt lat="43.22619222751291" lon="12.175089992793175"><ele>486.0</ele><time>2026-03-29T08:40:03.831Z</time></trkpt><trkpt lat="43.226165199130286" lon="12.174998498029412"><ele>486.0</ele><time>2026-03-29T08:40:05.832Z</time></trkpt><trkpt lat="43.22610965949852" lon="12.1749397253127"><ele>486.0</ele><time>2026-03-29T08:40:06.833Z</time></trkpt><trkpt lat="43.226051055579795" lon="12.174864088618168"><ele>486.0</ele><time>2026-03-29T08:40:07.834Z</time></trkpt><trkpt lat="43.22601226646306" lon="12.17477783682312"><ele>486.0</ele><time>2026-03-29T08:40:08.834Z</time></trkpt><trkpt lat="43.225968089967374" lon="12.174672785553687"><ele>486.0</ele><time>2026-03-29T08:40:10.835Z</time></trkpt><trkpt lat="43.22596390558607" lon="12.174558652728482"><ele>486.0</ele><time>2026-03-29T08:40:12.836Z</time></trkpt><trkpt lat="43.226024645836425" lon="12.174472899618086"><ele>488.4</ele><time>2026-03-29T08:40:14.836Z</time></trkpt><trkpt lat="43.22611242845867" lon="12.174415137485358"><ele>490.8</ele><time>2026-03-29T08:40:16.837Z</time></trkpt><trkpt lat="43.22620695464609" lon="12.174328671918255"><ele>493.19999999999993</ele><time>2026-03-29T08:40:18.837Z</time></trkpt><trkpt lat="43.2262956544581" lon="12.17427793989902"><ele>495.59999999999997</ele><time>2026-03-29T08:40:20.838Z</time></trkpt><trkpt lat="43.22635159671352" lon="12.174218711463071"><ele>498.0</ele><time>2026-03-29T08:40:22.838Z</time></trkpt><trkpt lat="43.22643391960335" lon="12.17416124510256"><ele>501.2</ele><time>2026-03-29T08:40:24.838Z</time></trkpt><trkpt lat="43.226527022824875" lon="12.17412154180608"><ele>504.4</ele><time>2026-03-29T08:40:27.839Z</time></trkpt><trkpt lat="43.226600333583114" lon="12.174092426021838"><ele>507.59999999999997</ele><time>2026-03-29T08:40:29.839Z</time></trkpt><trkpt lat="43.2266636043111" lon="12.174091304933587"><ele>510.79999999999995</ele><time>2026-03-29T08:40:30.839Z</time></trkpt><trkpt lat="43.22678735516069" lon="12.17407020533795"><ele>514.0</ele><time>2026-03-29T08:40:32.839Z</time></trkpt><trkpt lat="43.226856625470525" lon="12.17398091591337"><ele>515.5</ele><time>2026-03-29T08:40:34.839Z</time></trkpt><trkpt lat="43.2268976632159" lon="12.17387770965772"><ele>517.0</ele><time>2026-03-29T08:40:36.84Z</time></trkpt><trkpt lat="43.22695318716835" lon="12.173831372702146"><ele>518.5</ele><time>2026-03-29T08:40:42.84Z</time></trkpt><trkpt lat="43.22689100676811" lon="12.173778587771611"><ele>520.0</ele><time>2026-03-29T08:40:47.84Z</time></trkpt><trkpt lat="43.226855201526156" lon="12.173652516538143"><ele>521.5</ele><time>2026-03-29T08:40:50.84Z</time></trkpt><trkpt lat="43.226784572250224" lon="12.173583411867629"><ele>523.0</ele><time>2026-03-29T08:40:52.84Z</time></trkpt><trkpt lat="43.22676495625257" lon="12.173420026407994"><ele>523.0</ele><time>2026-03-29T08:40:55.84Z</time></trkpt><trkpt lat="43.22678857806395" lon="12.173313936733821"><ele>523.0</ele><time>2026-03-29T08:40:57.84Z</time></trkpt><trkpt lat="43.22686709808136" lon="12.173220638892504"><ele>523.0</ele><time>2026-03-29T08:40:59.84Z</time></trkpt><trkpt lat="43.22694011887607" lon="12.173181639178189"><ele>523.0</ele><time>2026-03-29T08:41:00.84Z</time></trkpt><trkpt lat="43.226936214904505" lon="12.17308015070761"><ele>523.0</ele><time>2026-03-29T08:41:02.84Z</time></trkpt><trkpt lat="43.226898528040444" lon="12.173008127347941"><ele>523.0</ele><time>2026-03-29T08:41:03.84Z</time></trkpt><trkpt lat="43.226882730805876" lon="12.172922773495262"><ele>525.0</ele><time>2026-03-29T08:41:04.84Z</time></trkpt><trkpt lat="43.22690592004531" lon="12.172786764208396"><ele>527.0</ele><time>2026-03-29T08:41:06.84Z</time></trkpt><trkpt lat="43.2269187302932" lon="12.172694664941766"><ele>529.0</ele><time>2026-03-29T08:41:07.84Z</time></trkpt><trkpt lat="43.22694440012043" lon="12.172604659191357"><ele>531.0</ele><time>2026-03-29T08:41:08.84Z</time></trkpt><trkpt lat="43.22695817102257" lon="12.172472263126942"><ele>533.0</ele><time>2026-03-29T08:41:10.84Z</time></trkpt><trkpt lat="43.22695253968273" lon="12.172385938952472"><ele>535.0</ele><time>2026-03-29T08:41:11.84Z</time></trkpt><trkpt lat="43.22690093712617" lon="12.172219040358916"><ele>537.5</ele><time>2026-03-29T08:41:13.839Z</time></trkpt><trkpt lat="43.226850205406336" lon="12.172152949867895"><ele>540.0</ele><time>2026-03-29T08:41:14.839Z</time></trkpt><trkpt lat="43.226805464953976" lon="12.172087584879808"><ele>542.5</ele><time>2026-03-29T08:41:15.839Z</time></trkpt><trkpt lat="43.22674114351094" lon="12.17196105623971"><ele>545.0</ele><time>2026-03-29T08:41:17.839Z</time></trkpt><trkpt lat="43.22666578443441" lon="12.17188663433232"><ele>547.5</ele><time>2026-03-29T08:41:19.839Z</time></trkpt><trkpt lat="43.22665218773537" lon="12.171764350658222"><ele>550.0</ele><time>2026-03-29T08:41:22.839Z</time></trkpt><trkpt lat="43.226677842226366" lon="12.171656530298677"><ele>550.0</ele><time>2026-03-29T08:41:23.839Z</time></trkpt><trkpt lat="43.226819802935786" lon="12.171578637315724"><ele>550.0</ele><time>2026-03-29T08:41:25.839Z</time></trkpt><trkpt lat="43.22692940540619" lon="12.171560879765783"><ele>550.0</ele><time>2026-03-29T08:41:26.839Z</time></trkpt><trkpt lat="43.2270046915122" lon="12.171541220054776"><ele>550.0</ele><time>2026-03-29T08:41:27.839Z</time></trkpt><trkpt lat="43.22704719215912" lon="12.17141983807192"><ele>550.0</ele><time>2026-03-29T08:41:29.839Z</time></trkpt><trkpt lat="43.226997378569195" lon="12.171270867811694"><ele>551.6666666666667</ele><time>2026-03-29T08:41:31.839Z</time></trkpt><trkpt lat="43.226953731485786" lon="12.171205568571596"><ele>553.3333333333334</ele><time>2026-03-29T08:41:32.839Z</time></trkpt><trkpt lat="43.22688411493397" lon="12.171118376122127"><ele>555.0</ele><time>2026-03-29T08:41:33.839Z</time></trkpt><trkpt lat="43.22682636683196" lon="12.17107416671854"><ele>556.6666666666666</ele><time>2026-03-29T08:41:34.839Z</time></trkpt><trkpt lat="43.22678092669297" lon="12.171008505716548"><ele>558.3333333333333</ele><time>2026-03-29T08:41:35.839Z</time></trkpt><trkpt lat="43.2267926184814" lon="12.170833368674495"><ele>560.0</ele><time>2026-03-29T08:41:38.839Z</time></trkpt><trkpt lat="43.22679019090104" lon="12.17072899123379"><ele>560.0</ele><time>2026-03-29T08:41:39.839Z</time></trkpt><trkpt lat="43.22683790746951" lon="12.170621170374565"><ele>560.0</ele><time>2026-03-29T08:41:41.839Z</time></trkpt><trkpt lat="43.22699032265786" lon="12.170685825064739"><ele>560.0</ele><time>2026-03-29T08:41:43.839Z</time></trkpt><trkpt lat="43.227103188922705" lon="12.17073937526638"><ele>560.0</ele><time>2026-03-29T08:41:44.839Z</time></trkpt><trkpt lat="43.227221870446705" lon="12.170756200722163"><ele>560.0</ele><time>2026-03-29T08:41:45.839Z</time></trkpt><trkpt lat="43.22730230163481" lon="12.170769389155385"><ele>560.0</ele><time>2026-03-29T08:41:46.838Z</time></trkpt><trkpt lat="43.227373076614896" lon="12.170714295281213"><ele>560.0</ele><time>2026-03-29T08:41:49.838Z</time></trkpt><trkpt lat="43.22744044667362" lon="12.170690524778026"><ele>560.0</ele><time>2026-03-29T08:42:52.839Z</time></trkpt><trkpt lat="43.227517042795625" lon="12.170742929685744"><ele>560.0</ele><time>2026-03-29T08:42:54.839Z</time></trkpt><trkpt lat="43.2275843301442" lon="12.170777741769317"><ele>560.0</ele><time>2026-03-29T08:42:56.839Z</time></trkpt><trkpt lat="43.227664996129725" lon="12.170826471916307"><ele>562.0</ele><time>2026-03-29T08:42:58.839Z</time></trkpt><trkpt lat="43.22776655491326" lon="12.170852575755577"><ele>564.0</ele><time>2026-03-29T08:43:00.839Z</time></trkpt><trkpt lat="43.22787109361552" lon="12.170819588285774"><ele>566.0</ele><time>2026-03-29T08:43:01.839Z</time></trkpt><trkpt lat="43.22796071671005" lon="12.170790309966852"><ele>568.0</ele><time>2026-03-29T08:43:02.838Z</time></trkpt><trkpt lat="43.22802621429862" lon="12.17075876491032"><ele>570.0</ele><time>2026-03-29T08:43:03.838Z</time></trkpt><trkpt lat="43.228097196162416" lon="12.170818871258813"><ele>570.4</ele><time>2026-03-29T08:43:05.838Z</time></trkpt><trkpt lat="43.22814938107093" lon="12.170886308099352"><ele>570.8</ele><time>2026-03-29T08:43:06.838Z</time></trkpt><trkpt lat="43.22824780788094" lon="12.170998066670654"><ele>571.2</ele><time>2026-03-29T08:43:07.838Z</time></trkpt><trkpt lat="43.22830074443675" lon="12.171079507295206"><ele>571.6</ele><time>2026-03-29T08:43:08.838Z</time></trkpt><trkpt lat="43.228404672595126" lon="12.17112194943747"><ele>572.0</ele><time>2026-03-29T08:43:10.838Z</time></trkpt><trkpt lat="43.22851108726646" lon="12.171150457700923"><ele>572.0</ele><time>2026-03-29T08:43:11.838Z</time></trkpt><trkpt lat="43.22861946599157" lon="12.171202194726016"><ele>572.0</ele><time>2026-03-29T08:43:12.838Z</time></trkpt><trkpt lat="43.22872423267863" lon="12.171240667283612"><ele>572.0</ele><time>2026-03-29T08:43:13.838Z</time></trkpt><trkpt lat="43.22880013935838" lon="12.171289913691695"><ele>572.0</ele><time>2026-03-29T08:43:14.838Z</time></trkpt><trkpt lat="43.22886619011704" lon="12.171319356647258"><ele>572.0</ele><time>2026-03-29T08:43:15.838Z</time></trkpt><trkpt lat="43.22894434699454" lon="12.171333778187122"><ele>574.0</ele><time>2026-03-29T08:43:16.838Z</time></trkpt><trkpt lat="43.229037077333494" lon="12.171367225051778"><ele>576.0</ele><time>2026-03-29T08:43:17.838Z</time></trkpt><trkpt lat="43.22912591111139" lon="12.171408815457182"><ele>578.0</ele><time>2026-03-29T08:43:18.838Z</time></trkpt><trkpt lat="43.229199531133325" lon="12.171477366224632"><ele>580.0</ele><time>2026-03-29T08:43:19.838Z</time></trkpt><trkpt lat="43.22929022792226" lon="12.171552515363596"><ele>582.0</ele><time>2026-03-29T08:43:20.838Z</time></trkpt><trkpt lat="43.2293860068413" lon="12.171650077858802"><ele>576.0</ele><time>2026-03-29T08:43:21.838Z</time></trkpt><trkpt lat="43.22947260844581" lon="12.171732287740005"><ele>570.0</ele><time>2026-03-29T08:43:22.838Z</time></trkpt><trkpt lat="43.22952781793443" lon="12.171820130933819"><ele>564.0</ele><time>2026-03-29T08:43:23.838Z</time></trkpt><trkpt lat="43.22962815043201" lon="12.17191041412006"><ele>558.0</ele><time>2026-03-29T08:43:25.838Z</time></trkpt><trkpt lat="43.22977091395196" lon="12.17198354455831"><ele>559.4</ele><time>2026-03-29T08:43:27.838Z</time></trkpt><trkpt lat="43.229874612736324" lon="12.172012598873748"><ele>560.8</ele><time>2026-03-29T08:43:28.838Z</time></trkpt><trkpt lat="43.22996144333831" lon="12.17203208090846"><ele>562.2</ele><time>2026-03-29T08:43:29.838Z</time></trkpt><trkpt lat="43.230052217471275" lon="12.172054343422758"><ele>563.6</ele><time>2026-03-29T08:43:30.838Z</time></trkpt><trkpt lat="43.23013247585729" lon="12.172063292320107"><ele>565.0</ele><time>2026-03-29T08:43:31.838Z</time></trkpt><trkpt lat="43.23022156457985" lon="12.172050283547003"><ele>565.0</ele><time>2026-03-29T08:43:32.837Z</time></trkpt><trkpt lat="43.23031512074122" lon="12.171995458120382"><ele>565.0</ele><time>2026-03-29T08:43:33.837Z</time></trkpt><trkpt lat="43.23041004298593" lon="12.171958996830885"><ele>565.0</ele><time>2026-03-29T08:43:34.837Z</time></trkpt><trkpt lat="43.23050068111782" lon="12.171921114332621"><ele>565.0</ele><time>2026-03-29T08:43:35.837Z</time></trkpt><trkpt lat="43.230582347744765" lon="12.171860670502678"><ele>565.0</ele><time>2026-03-29T08:43:36.837Z</time></trkpt><trkpt lat="43.23066392328459" lon="12.171785204545674"><ele>563.5</ele><time>2026-03-29T08:43:37.837Z</time></trkpt><trkpt lat="43.230719466984276" lon="12.171705665067908"><ele>562.0</ele><time>2026-03-29T08:43:38.837Z</time></trkpt><trkpt lat="43.23075602042689" lon="12.171623832336762"><ele>560.5</ele><time>2026-03-29T08:43:39.837Z</time></trkpt><trkpt lat="43.23077451451128" lon="12.171524286583484"><ele>559.0</ele><time>2026-03-29T08:43:40.837Z</time></trkpt><trkpt lat="43.23079260521324" lon="12.171419892332455"><ele>557.5</ele><time>2026-03-29T08:43:41.837Z</time></trkpt><trkpt lat="43.230822365423315" lon="12.171313004523086"><ele>556.0</ele><time>2026-03-29T08:43:42.837Z</time></trkpt><trkpt lat="43.23085817302471" lon="12.171221725552806"><ele>556.0</ele><time>2026-03-29T08:43:43.837Z</time></trkpt><trkpt lat="43.23091769353493" lon="12.17114949396188"><ele>556.0</ele><time>2026-03-29T08:43:44.837Z</time></trkpt><trkpt lat="43.2309543613119" lon="12.171047509315542"><ele>556.0</ele><time>2026-03-29T08:43:45.837Z</time></trkpt><trkpt lat="43.23097661383583" lon="12.170898911078343"><ele>556.0</ele><time>2026-03-29T08:43:47.837Z</time></trkpt><trkpt lat="43.23100837274191" lon="12.170800690046974"><ele>556.0</ele><time>2026-03-29T08:43:49.837Z</time></trkpt><trkpt lat="43.2310889225239" lon="12.170767755230745"><ele>556.0</ele><time>2026-03-29T08:43:51.837Z</time></trkpt><trkpt lat="43.23116124089117" lon="12.1707324956325"><ele>558.4</ele><time>2026-03-29T08:43:52.837Z</time></trkpt><trkpt lat="43.23123583412371" lon="12.17065512074949"><ele>560.8</ele><time>2026-03-29T08:43:53.837Z</time></trkpt><trkpt lat="43.23128987668727" lon="12.170567048229415"><ele>563.1999999999999</ele><time>2026-03-29T08:43:54.837Z</time></trkpt><trkpt lat="43.2313110978881" lon="12.170478255934118"><ele>565.6</ele><time>2026-03-29T08:43:55.837Z</time></trkpt><trkpt lat="43.23134694155899" lon="12.170368448849961"><ele>568.0</ele><time>2026-03-29T08:43:56.837Z</time></trkpt><trkpt lat="43.231472042368125" lon="12.170258355821357"><ele>566.6</ele><time>2026-03-29T08:43:59.837Z</time></trkpt><trkpt lat="43.23155073732081" lon="12.1702226144005"><ele>565.1999999999999</ele><time>2026-03-29T08:44:00.837Z</time></trkpt><trkpt lat="43.23164192817184" lon="12.17021473033039"><ele>563.8</ele><time>2026-03-29T08:44:01.837Z</time></trkpt><trkpt lat="43.231727774048984" lon="12.17016947520211"><ele>562.4</ele><time>2026-03-29T08:44:02.836Z</time></trkpt><trkpt lat="43.231805840186865" lon="12.170114879423775"><ele>561.0</ele><time>2026-03-29T08:44:03.836Z</time></trkpt><trkpt lat="43.231895162957" lon="12.170021576407116"><ele>561.0</ele><time>2026-03-29T08:44:04.836Z</time></trkpt><trkpt lat="43.2319670919817" lon="12.169955368158854"><ele>561.0</ele><time>2026-03-29T08:44:05.836Z</time></trkpt><trkpt lat="43.23204973033814" lon="12.169916844346298"><ele>561.0</ele><time>2026-03-29T08:44:06.836Z</time></trkpt><trkpt lat="43.232133844664574" lon="12.169861612500329"><ele>561.0</ele><time>2026-03-29T08:44:07.836Z</time></trkpt><trkpt lat="43.232198573113685" lon="12.169752518476908"><ele>561.0</ele><time>2026-03-29T08:44:08.836Z</time></trkpt><trkpt lat="43.23225922872666" lon="12.169604696073813"><ele>562.2</ele><time>2026-03-29T08:44:09.836Z</time></trkpt><trkpt lat="43.23230458913868" lon="12.169467386994963"><ele>563.4000000000001</ele><time>2026-03-29T08:44:10.839Z</time></trkpt><trkpt lat="43.23240327489836" lon="12.169336956295355"><ele>564.6</ele><time>2026-03-29T08:44:12.838Z</time></trkpt><trkpt lat="43.23246872419387" lon="12.169263481103835"><ele>565.8000000000001</ele><time>2026-03-29T08:44:13.838Z</time></trkpt><trkpt lat="43.23252812785562" lon="12.169206814576496"><ele>567.0</ele><time>2026-03-29T08:44:14.838Z</time></trkpt><trkpt lat="43.23258496084403" lon="12.169157737761168"><ele>567.0</ele><time>2026-03-29T08:44:15.838Z</time></trkpt><trkpt lat="43.23266167207549" lon="12.169050417070396"><ele>567.0</ele><time>2026-03-29T08:44:16.839Z</time></trkpt><trkpt lat="43.23275068827635" lon="12.16895252133253"><ele>567.0</ele><time>2026-03-29T08:44:17.838Z</time></trkpt><trkpt lat="43.232834887621465" lon="12.168867783783197"><ele>567.0</ele><time>2026-03-29T08:44:18.838Z</time></trkpt><trkpt lat="43.232907172593976" lon="12.168801957116372"><ele>567.0</ele><time>2026-03-29T08:44:19.838Z</time></trkpt><trkpt lat="43.23298025385387" lon="12.168756579402041"><ele>568.8000000000001</ele><time>2026-03-29T08:44:20.837Z</time></trkpt><trkpt lat="43.23307244680523" lon="12.168751996838758"><ele>570.6</ele><time>2026-03-29T08:44:21.837Z</time></trkpt><trkpt lat="43.23313738089776" lon="12.168743422690328"><ele>572.4000000000001</ele><time>2026-03-29T08:44:22.838Z</time></trkpt><trkpt lat="43.233265763934604" lon="12.168748272568612"><ele>574.2</ele><time>2026-03-29T08:44:24.838Z</time></trkpt><trkpt lat="43.233349873065066" lon="12.168756631252535"><ele>576.0</ele><time>2026-03-29T08:44:25.838Z</time></trkpt><trkpt lat="43.23343288099576" lon="12.168726189767014"><ele>576.0</ele><time>2026-03-29T08:44:27.837Z</time></trkpt><trkpt lat="43.2334249954946" lon="12.168630872907695"><ele>576.0</ele><time>2026-03-29T08:44:29.837Z</time></trkpt><trkpt lat="43.23333858602667" lon="12.168607159143917"><ele>576.0</ele><time>2026-03-29T08:44:31.837Z</time></trkpt><trkpt lat="43.23333228593527" lon="12.16847041706946"><ele>576.0</ele><time>2026-03-29T08:44:35.837Z</time></trkpt><trkpt lat="43.23335739382761" lon="12.168385605691396"><ele>576.0</ele><time>2026-03-29T08:44:36.837Z</time></trkpt><trkpt lat="43.23339986175767" lon="12.168264165979048"><ele>576.0</ele><time>2026-03-29T08:44:37.837Z</time></trkpt><trkpt lat="43.233414997209714" lon="12.168120855796294"><ele>576.8333333333334</ele><time>2026-03-29T08:44:38.837Z</time></trkpt><trkpt lat="43.2333916076177" lon="12.168026061583053"><ele>577.6666666666666</ele><time>2026-03-29T08:44:39.837Z</time></trkpt><trkpt lat="43.23337266351752" lon="12.167938523211808"><ele>578.5</ele><time>2026-03-29T08:44:40.837Z</time></trkpt><trkpt lat="43.233334493837894" lon="12.16785577687064"><ele>579.3333333333333</ele><time>2026-03-29T08:44:41.837Z</time></trkpt><trkpt lat="43.233287251672365" lon="12.167676461881399"><ele>580.1666666666666</ele><time>2026-03-29T08:44:43.837Z</time></trkpt><trkpt lat="43.233284671427505" lon="12.167584286929149"><ele>581.0</ele><time>2026-03-29T08:44:44.837Z</time></trkpt><trkpt lat="43.2332816019843" lon="12.167454204570095"><ele>581.3333333333333</ele><time>2026-03-29T08:44:46.837Z</time></trkpt><trkpt lat="43.233299955350724" lon="12.167358297022194"><ele>581.6666666666666</ele><time>2026-03-29T08:44:47.837Z</time></trkpt><trkpt lat="43.23331139364731" lon="12.167273067012493"><ele>582.0</ele><time>2026-03-29T08:44:48.837Z</time></trkpt><trkpt lat="43.233318128628504" lon="12.167136809927225"><ele>582.3333333333334</ele><time>2026-03-29T08:44:50.837Z</time></trkpt><trkpt lat="43.23332679840388" lon="12.16702344830054"><ele>582.6666666666667</ele><time>2026-03-29T08:44:53.837Z</time></trkpt><trkpt lat="43.23339535703148" lon="12.166989174503723"><ele>583.0</ele><time>2026-03-29T08:44:55.837Z</time></trkpt><trkpt lat="43.233379119526106" lon="12.166894091587748"><ele>583.0</ele><time>2026-03-29T08:44:57.836Z</time></trkpt><trkpt lat="43.233421261666976" lon="12.166762531234"><ele>583.0</ele><time>2026-03-29T08:44:58.836Z</time></trkpt><trkpt lat="43.23350256491379" lon="12.166722827069373"><ele>583.0</ele><time>2026-03-29T08:44:59.836Z</time></trkpt><trkpt lat="43.23370840359484" lon="12.166712644085353"><ele>583.0</ele><time>2026-03-29T08:45:00.836Z</time></trkpt><trkpt lat="43.23384890859066" lon="12.16661521056602"><ele>583.0</ele><time>2026-03-29T08:45:01.836Z</time></trkpt><trkpt lat="43.233961081478796" lon="12.16653597268296"><ele>583.0</ele><time>2026-03-29T08:45:02.836Z</time></trkpt><trkpt lat="43.23406100836485" lon="12.166468772595444"><ele>583.0</ele><time>2026-03-29T08:45:03.836Z</time></trkpt><trkpt lat="43.234165710875516" lon="12.16640148480699"><ele>583.0</ele><time>2026-03-29T08:45:04.836Z</time></trkpt><trkpt lat="43.234253970463946" lon="12.166424159320323"><ele>583.0</ele><time>2026-03-29T08:45:06.836Z</time></trkpt><trkpt lat="43.23431671885608" lon="12.166454874771256"><ele>582.4</ele><time>2026-03-29T08:45:07.836Z</time></trkpt><trkpt lat="43.234396789272715" lon="12.166465280843896"><ele>581.8</ele><time>2026-03-29T08:45:08.836Z</time></trkpt><trkpt lat="43.23451760365845" lon="12.16649911506044"><ele>581.2</ele><time>2026-03-29T08:45:09.836Z</time></trkpt><trkpt lat="43.23466196424701" lon="12.166481019437777"><ele>580.6</ele><time>2026-03-29T08:45:10.836Z</time></trkpt><trkpt lat="43.23476007957163" lon="12.16647468547284"><ele>580.0</ele><time>2026-03-29T08:45:11.836Z</time></trkpt><trkpt lat="43.23482958589136" lon="12.166492958427863"><ele>576.8</ele><time>2026-03-29T08:45:12.836Z</time></trkpt><trkpt lat="43.234906118917884" lon="12.166544191738495"><ele>573.6</ele><time>2026-03-29T08:45:13.836Z</time></trkpt><trkpt lat="43.23500217057498" lon="12.166608307503356"><ele>570.4</ele><time>2026-03-29T08:45:14.836Z</time></trkpt><trkpt lat="43.23509599079187" lon="12.166688043702637"><ele>567.2</ele><time>2026-03-29T08:45:15.836Z</time></trkpt><trkpt lat="43.23518394173235" lon="12.166764462892049"><ele>564.0</ele><time>2026-03-29T08:45:16.836Z</time></trkpt><trkpt lat="43.23526092198243" lon="12.166836330639802"><ele>564.0</ele><time>2026-03-29T08:45:17.836Z</time></trkpt><trkpt lat="43.23531251005944" lon="12.166901303884485"><ele>564.0</ele><time>2026-03-29T08:45:18.836Z</time></trkpt><trkpt lat="43.23538236415452" lon="12.166939674872363"><ele>564.0</ele><time>2026-03-29T08:45:19.836Z</time></trkpt><trkpt lat="43.23544441102124" lon="12.166974378018528"><ele>564.0</ele><time>2026-03-29T08:45:20.836Z</time></trkpt><trkpt lat="43.23551939916838" lon="12.167007527621502"><ele>564.0</ele><time>2026-03-29T08:45:21.836Z</time></trkpt><trkpt lat="43.235611756071684" lon="12.167092677746119"><ele>564.0</ele><time>2026-03-29T08:45:22.836Z</time></trkpt><trkpt lat="43.235670952324384" lon="12.167179854151994"><ele>564.8</ele><time>2026-03-29T08:45:23.836Z</time></trkpt><trkpt lat="43.23572465237307" lon="12.16725777761917"><ele>565.5999999999999</ele><time>2026-03-29T08:45:24.836Z</time></trkpt><trkpt lat="43.23582351686364" lon="12.167354544621851"><ele>566.4</ele><time>2026-03-29T08:45:26.836Z</time></trkpt><trkpt lat="43.235904177115195" lon="12.16728347588414"><ele>567.1999999999999</ele><time>2026-03-29T08:45:28.835Z</time></trkpt><trkpt lat="43.235962592246814" lon="12.167184694468173"><ele>568.0</ele><time>2026-03-29T08:45:29.835Z</time></trkpt><trkpt lat="43.23599845749892" lon="12.167082154042161"><ele>568.0</ele><time>2026-03-29T08:45:30.835Z</time></trkpt><trkpt lat="43.23602901757185" lon="12.166969928556576"><ele>568.0</ele><time>2026-03-29T08:45:31.835Z</time></trkpt><trkpt lat="43.23606914091429" lon="12.166849795490057"><ele>568.0</ele><time>2026-03-29T08:45:32.835Z</time></trkpt><trkpt lat="43.236100290963996" lon="12.166760850770672"><ele>568.0</ele><time>2026-03-29T08:45:33.835Z</time></trkpt><trkpt lat="43.23617637645513" lon="12.166652586566332"><ele>568.0</ele><time>2026-03-29T08:45:35.835Z</time></trkpt><trkpt lat="43.236245253189445" lon="12.166671572891799"><ele>568.0</ele><time>2026-03-29T08:45:37.835Z</time></trkpt><trkpt lat="43.23632198489101" lon="12.166697271871382"><ele>568.0</ele><time>2026-03-29T08:45:39.835Z</time></trkpt><trkpt lat="43.23643173379003" lon="12.166732868264601"><ele>568.0</ele><time>2026-03-29T08:45:41.835Z</time></trkpt><trkpt lat="43.23653966226136" lon="12.166778362117029"><ele>568.0</ele><time>2026-03-29T08:45:42.835Z</time></trkpt><trkpt lat="43.23663105635226" lon="12.166802731837276"><ele>568.0</ele><time>2026-03-29T08:45:43.835Z</time></trkpt><trkpt lat="43.23668620681808" lon="12.166849469411614"><ele>568.0</ele><time>2026-03-29T08:45:44.835Z</time></trkpt><trkpt lat="43.23674362381701" lon="12.166946314205457"><ele>565.0</ele><time>2026-03-29T08:45:45.835Z</time></trkpt><trkpt lat="43.23681143187713" lon="12.167010749385803"><ele>562.0</ele><time>2026-03-29T08:45:46.835Z</time></trkpt><trkpt lat="43.23694919733032" lon="12.166987303076532"><ele>559.0</ele><time>2026-03-29T08:45:48.835Z</time></trkpt><trkpt lat="43.23703612671329" lon="12.166979556185987"><ele>556.0</ele><time>2026-03-29T08:45:49.835Z</time></trkpt><trkpt lat="43.23714895944032" lon="12.166956797189666"><ele>553.0</ele><time>2026-03-29T08:45:50.835Z</time></trkpt><trkpt lat="43.23724184930463" lon="12.166906430087803"><ele>551.6666666666667</ele><time>2026-03-29T08:45:51.835Z</time></trkpt><trkpt lat="43.23733983685873" lon="12.16686765330674"><ele>550.3333333333334</ele><time>2026-03-29T08:45:52.835Z</time></trkpt><trkpt lat="43.23741607080069" lon="12.166856662722093"><ele>549.0</ele><time>2026-03-29T08:45:53.835Z</time></trkpt><trkpt lat="43.23749260679764" lon="12.166852211529124"><ele>547.6666666666666</ele><time>2026-03-29T08:45:54.835Z</time></trkpt><trkpt lat="43.23758084398616" lon="12.16687158638912"><ele>546.3333333333333</ele><time>2026-03-29T08:45:55.835Z</time></trkpt><trkpt lat="43.23768078226798" lon="12.166898778425232"><ele>545.0</ele><time>2026-03-29T08:45:56.835Z</time></trkpt><trkpt lat="43.23777546567712" lon="12.166937660615808"><ele>545.0</ele><time>2026-03-29T08:45:57.835Z</time></trkpt><trkpt lat="43.237857036928425" lon="12.166979882711848"><ele>545.0</ele><time>2026-03-29T08:45:58.834Z</time></trkpt><trkpt lat="43.23793718092005" lon="12.166977734254738"><ele>545.0</ele><time>2026-03-29T08:45:59.834Z</time></trkpt><trkpt lat="43.23801444140815" lon="12.166976288804175"><ele>545.0</ele><time>2026-03-29T08:46:00.834Z</time></trkpt><trkpt lat="43.23811383843809" lon="12.166961590290562"><ele>545.0</ele><time>2026-03-29T08:46:01.834Z</time></trkpt><trkpt lat="43.238195929025096" lon="12.16694245449105"><ele>545.0</ele><time>2026-03-29T08:46:02.834Z</time></trkpt><trkpt lat="43.23831605335102" lon="12.166925817026172"><ele>542.1666666666666</ele><time>2026-03-29T08:46:04.834Z</time></trkpt><trkpt lat="43.23840194722346" lon="12.166952846705167"><ele>539.3333333333333</ele><time>2026-03-29T08:46:05.834Z</time></trkpt><trkpt lat="43.238482137971324" lon="12.166989016464687"><ele>536.5</ele><time>2026-03-29T08:46:06.834Z</time></trkpt><trkpt lat="43.23858231411499" lon="12.167038435489694"><ele>533.6666666666666</ele><time>2026-03-29T08:46:07.834Z</time></trkpt><trkpt lat="43.238664708099975" lon="12.167081564404704"><ele>530.8333333333334</ele><time>2026-03-29T08:46:08.834Z</time></trkpt><trkpt lat="43.23872758617595" lon="12.167133606871031"><ele>528.0</ele><time>2026-03-29T08:46:09.834Z</time></trkpt><trkpt lat="43.23878478546116" lon="12.16721479417889"><ele>528.0</ele><time>2026-03-29T08:46:10.834Z</time></trkpt><trkpt lat="43.238848236376086" lon="12.167290970420531"><ele>528.0</ele><time>2026-03-29T08:46:11.834Z</time></trkpt><trkpt lat="43.23891925156527" lon="12.167381411736367"><ele>528.0</ele><time>2026-03-29T08:46:13.834Z</time></trkpt><trkpt lat="43.238969299789694" lon="12.167450469426036"><ele>528.0</ele><time>2026-03-29T08:47:12.834Z</time></trkpt><trkpt lat="43.23891560222268" lon="12.167404685876159"><ele>528.0</ele><time>2026-03-29T08:47:16.834Z</time></trkpt><trkpt lat="43.23886277616267" lon="12.167292677189746"><ele>528.0</ele><time>2026-03-29T08:47:18.834Z</time></trkpt><trkpt lat="43.23879363056054" lon="12.167198627819403"><ele>528.0</ele><time>2026-03-29T08:47:20.834Z</time></trkpt><trkpt lat="43.238735890819754" lon="12.16707764806792"><ele>528.0</ele><time>2026-03-29T08:47:22.834Z</time></trkpt><trkpt lat="43.23873791182176" lon="12.166931723222534"><ele>528.0</ele><time>2026-03-29T08:47:24.834Z</time></trkpt><trkpt lat="43.238730563084964" lon="12.166841355395352"><ele>528.0</ele><time>2026-03-29T08:47:25.834Z</time></trkpt><trkpt lat="43.23871081194186" lon="12.166714183776426"><ele>528.0</ele><time>2026-03-29T08:47:26.834Z</time></trkpt><trkpt lat="43.23868405965931" lon="12.166589794093758"><ele>529.0</ele><time>2026-03-29T08:47:27.834Z</time></trkpt><trkpt lat="43.238650030456974" lon="12.166468160229108"><ele>530.0</ele><time>2026-03-29T08:47:28.834Z</time></trkpt><trkpt lat="43.23862434331603" lon="12.166347846290744"><ele>531.0</ele><time>2026-03-29T08:47:29.834Z</time></trkpt><trkpt lat="43.23858866654868" lon="12.166196846026276"><ele>532.0</ele><time>2026-03-29T08:47:30.833Z</time></trkpt><trkpt lat="43.23851587711099" lon="12.165965229137433"><ele>532.0</ele><time>2026-03-29T08:47:31.833Z</time></trkpt><trkpt lat="43.238468463713126" lon="12.16569598977653"><ele>532.0</ele><time>2026-03-29T08:47:32.833Z</time></trkpt><trkpt lat="43.238443523699935" lon="12.165429661760673"><ele>532.0</ele><time>2026-03-29T08:47:33.833Z</time></trkpt><trkpt lat="43.23842069569011" lon="12.165183918876101"><ele>532.0</ele><time>2026-03-29T08:47:34.833Z</time></trkpt><trkpt lat="43.238384549486035" lon="12.165000495130208"><ele>532.0</ele><time>2026-03-29T08:47:35.833Z</time></trkpt><trkpt lat="43.238337640117905" lon="12.164861126373623"><ele>532.0</ele><time>2026-03-29T08:47:36.833Z</time></trkpt><trkpt lat="43.23827680377199" lon="12.164710621177205"><ele>532.0</ele><time>2026-03-29T08:47:37.833Z</time></trkpt><trkpt lat="43.238232786021605" lon="12.164583330590592"><ele>532.0</ele><time>2026-03-29T08:47:38.833Z</time></trkpt><trkpt lat="43.23820847120909" lon="12.164441031889188"><ele>532.0</ele><time>2026-03-29T08:47:39.833Z</time></trkpt><trkpt lat="43.23821117198742" lon="12.16432114462163"><ele>532.0</ele><time>2026-03-29T08:47:40.833Z</time></trkpt><trkpt lat="43.23824169148326" lon="12.164227645816315"><ele>532.0</ele><time>2026-03-29T08:47:41.833Z</time></trkpt><trkpt lat="43.23827239346951" lon="12.164126156255138"><ele>532.0</ele><time>2026-03-29T08:47:42.833Z</time></trkpt><trkpt lat="43.23827979818959" lon="12.164019921133045"><ele>532.0</ele><time>2026-03-29T08:47:43.833Z</time></trkpt><trkpt lat="43.23826292849732" lon="12.163881522368289"><ele>531.6</ele><time>2026-03-29T08:47:44.833Z</time></trkpt><trkpt lat="43.23822359989308" lon="12.163745793549618"><ele>531.2</ele><time>2026-03-29T08:47:45.833Z</time></trkpt><trkpt lat="43.23818386931736" lon="12.163633009919922"><ele>530.8</ele><time>2026-03-29T08:47:46.833Z</time></trkpt><trkpt lat="43.238133296430526" lon="12.16352572356591"><ele>530.4</ele><time>2026-03-29T08:47:47.833Z</time></trkpt><trkpt lat="43.2380725507329" lon="12.163435534929238"><ele>530.0</ele><time>2026-03-29T08:47:48.833Z</time></trkpt><trkpt lat="43.2379996991369" lon="12.163333097993311"><ele>533.6</ele><time>2026-03-29T08:47:49.833Z</time></trkpt><trkpt lat="43.23790819951876" lon="12.16328529143431"><ele>537.2</ele><time>2026-03-29T08:47:50.833Z</time></trkpt><trkpt lat="43.23781754946201" lon="12.16322616938157"><ele>540.8</ele><time>2026-03-29T08:47:51.833Z</time></trkpt><trkpt lat="43.23772503884253" lon="12.16315796458425"><ele>544.4</ele><time>2026-03-29T08:47:52.833Z</time></trkpt><trkpt lat="43.23765767958495" lon="12.163081510619138"><ele>548.0</ele><time>2026-03-29T08:47:53.833Z</time></trkpt><trkpt lat="43.23761429609696" lon="12.162980706165346"><ele>548.0</ele><time>2026-03-29T08:47:54.833Z</time></trkpt><trkpt lat="43.23758538178353" lon="12.162898758664285"><ele>548.0</ele><time>2026-03-29T08:47:55.833Z</time></trkpt><trkpt lat="43.23755385929155" lon="12.162813252383259"><ele>548.0</ele><time>2026-03-29T08:47:56.833Z</time></trkpt><trkpt lat="43.237491233155886" lon="12.162703694919875"><ele>548.0</ele><time>2026-03-29T08:47:57.833Z</time></trkpt><trkpt lat="43.237400489413076" lon="12.16259391136935"><ele>548.0</ele><time>2026-03-29T08:47:58.833Z</time></trkpt><trkpt lat="43.237280744751956" lon="12.162486737335511"><ele>551.6666666666666</ele><time>2026-03-29T08:47:59.833Z</time></trkpt><trkpt lat="43.23719991727647" lon="12.162454959608926"><ele>555.3333333333333</ele><time>2026-03-29T08:48:00.832Z</time></trkpt><trkpt lat="43.23714007432824" lon="12.162419903067628"><ele>559.0</ele><time>2026-03-29T08:48:01.832Z</time></trkpt><trkpt lat="43.23707960712799" lon="12.1623524531407"><ele>562.6666666666666</ele><time>2026-03-29T08:48:03.832Z</time></trkpt><trkpt lat="43.23704933886639" lon="12.162217434259398"><ele>566.3333333333334</ele><time>2026-03-29T08:48:05.832Z</time></trkpt><trkpt lat="43.23702684268314" lon="12.162131690430892"><ele>570.0</ele><time>2026-03-29T08:48:06.832Z</time></trkpt><trkpt lat="43.23699299053369" lon="12.16205867603996"><ele>570.0</ele><time>2026-03-29T08:48:07.832Z</time></trkpt><trkpt lat="43.23693916785231" lon="12.161927161780389"><ele>570.0</ele><time>2026-03-29T08:48:08.832Z</time></trkpt><trkpt lat="43.23688051484898" lon="12.161823098144854"><ele>570.0</ele><time>2026-03-29T08:48:09.832Z</time></trkpt><trkpt lat="43.23681187639069" lon="12.161797920186972"><ele>570.0</ele><time>2026-03-29T08:48:10.832Z</time></trkpt><trkpt lat="43.23672790615842" lon="12.161763950001667"><ele>570.0</ele><time>2026-03-29T08:48:11.832Z</time></trkpt><trkpt lat="43.23663330044759" lon="12.161728301244867"><ele>570.0</ele><time>2026-03-29T08:48:12.832Z</time></trkpt><trkpt lat="43.23652734669543" lon="12.161684166061285"><ele>570.0</ele><time>2026-03-29T08:48:13.832Z</time></trkpt><trkpt lat="43.23648324681709" lon="12.161613798894818"><ele>570.0</ele><time>2026-03-29T08:48:14.832Z</time></trkpt><trkpt lat="43.23647168217946" lon="12.161478646472814"><ele>570.0</ele><time>2026-03-29T08:48:16.832Z</time></trkpt><trkpt lat="43.23652538362382" lon="12.161240996873591"><ele>568.75</ele><time>2026-03-29T08:48:18.832Z</time></trkpt><trkpt lat="43.23655076838248" lon="12.161114620132606"><ele>567.5</ele><time>2026-03-29T08:48:19.832Z</time></trkpt><trkpt lat="43.23655749439485" lon="12.160973120789828"><ele>566.25</ele><time>2026-03-29T08:48:20.832Z</time></trkpt><trkpt lat="43.23654475108164" lon="12.160806678180698"><ele>565.0</ele><time>2026-03-29T08:48:21.832Z</time></trkpt><trkpt lat="43.23651560149593" lon="12.160605186000511"><ele>564.25</ele><time>2026-03-29T08:48:22.835Z</time></trkpt><trkpt lat="43.23647917287556" lon="12.160385557836323"><ele>563.5</ele><time>2026-03-29T08:48:23.834Z</time></trkpt><trkpt lat="43.23644163992347" lon="12.160216742646265"><ele>562.75</ele><time>2026-03-29T08:48:24.834Z</time></trkpt><trkpt lat="43.236406397244075" lon="12.160100249945822"><ele>562.0</ele><time>2026-03-29T08:48:25.834Z</time></trkpt><trkpt lat="43.23636722839562" lon="12.160027220220657"><ele>563.5</ele><time>2026-03-29T08:48:26.834Z</time></trkpt><trkpt lat="43.23631094332873" lon="12.159980196970748"><ele>565.0</ele><time>2026-03-29T08:48:27.834Z</time></trkpt><trkpt lat="43.23626875007153" lon="12.159836654283232"><ele>566.5</ele><time>2026-03-29T08:48:30.834Z</time></trkpt><trkpt lat="43.23625075272551" lon="12.159743213876467"><ele>568.0</ele><time>2026-03-29T08:48:31.834Z</time></trkpt><trkpt lat="43.23622045032517" lon="12.159654153785993"><ele>569.5</ele><time>2026-03-29T08:48:32.835Z</time></trkpt><trkpt lat="43.236200014464316" lon="12.15954949370353"><ele>571.0</ele><time>2026-03-29T08:48:33.834Z</time></trkpt><trkpt lat="43.23620030365681" lon="12.159426690345517"><ele>571.0</ele><time>2026-03-29T08:48:35.835Z</time></trkpt><trkpt lat="43.23624481879791" lon="12.15934892369232"><ele>571.0</ele><time>2026-03-29T08:48:36.835Z</time></trkpt><trkpt lat="43.23629724524063" lon="12.159242112380728"><ele>571.0</ele><time>2026-03-29T08:48:37.835Z</time></trkpt><trkpt lat="43.23634184270839" lon="12.159156023854642"><ele>571.0</ele><time>2026-03-29T08:48:38.834Z</time></trkpt><trkpt lat="43.23638600680066" lon="12.159070314218157"><ele>571.0</ele><time>2026-03-29T08:48:39.834Z</time></trkpt><trkpt lat="43.23641960670667" lon="12.158993845843733"><ele>571.0</ele><time>2026-03-29T08:48:40.834Z</time></trkpt><trkpt lat="43.236489908143525" lon="12.158908529602666"><ele>566.0</ele><time>2026-03-29T08:48:42.834Z</time></trkpt><trkpt lat="43.23656652501592" lon="12.15893759148251"><ele>561.0</ele><time>2026-03-29T08:48:44.834Z</time></trkpt><trkpt lat="43.2366454065897" lon="12.1589165900501"><ele>556.0</ele><time>2026-03-29T08:48:45.834Z</time></trkpt><trkpt lat="43.2367209910456" lon="12.15890901023914"><ele>551.0</ele><time>2026-03-29T08:48:46.834Z</time></trkpt><trkpt lat="43.23680191066522" lon="12.158868925607788"><ele>546.0</ele><time>2026-03-29T08:48:47.834Z</time></trkpt><trkpt lat="43.23687857865231" lon="12.158845170699589"><ele>541.0</ele><time>2026-03-29T08:48:48.834Z</time></trkpt><trkpt lat="43.23695285256652" lon="12.158810867078328"><ele>541.0</ele><time>2026-03-29T08:48:49.834Z</time></trkpt><trkpt lat="43.237029031770554" lon="12.158773796513444"><ele>541.0</ele><time>2026-03-29T08:48:50.834Z</time></trkpt><trkpt lat="43.237105652999915" lon="12.158706533660045"><ele>541.0</ele><time>2026-03-29T08:48:51.834Z</time></trkpt><trkpt lat="43.237168309501996" lon="12.15864916280733"><ele>541.0</ele><time>2026-03-29T08:48:52.834Z</time></trkpt><trkpt lat="43.23722340394676" lon="12.158598990179861"><ele>541.0</ele><time>2026-03-29T08:48:53.834Z</time></trkpt><trkpt lat="43.23728016477868" lon="12.158459686532868"><ele>541.0</ele><time>2026-03-29T08:48:55.834Z</time></trkpt><trkpt lat="43.23729384634814" lon="12.15837518840997"><ele>537.6</ele><time>2026-03-29T08:48:56.834Z</time></trkpt><trkpt lat="43.23737539368617" lon="12.158262957089123"><ele>534.2</ele><time>2026-03-29T08:48:58.834Z</time></trkpt><trkpt lat="43.23745691860339" lon="12.158180480134492"><ele>530.8</ele><time>2026-03-29T08:49:00.834Z</time></trkpt><trkpt lat="43.23748140702802" lon="12.15801839684091"><ele>527.4</ele><time>2026-03-29T08:49:02.834Z</time></trkpt><trkpt lat="43.23748327547164" lon="12.157906006198441"><ele>524.0</ele><time>2026-03-29T08:49:03.834Z</time></trkpt><trkpt lat="43.23748918660328" lon="12.157784081879699"><ele>522.4</ele><time>2026-03-29T08:49:04.834Z</time></trkpt><trkpt lat="43.23748159305419" lon="12.15768425527683"><ele>520.8</ele><time>2026-03-29T08:49:05.834Z</time></trkpt><trkpt lat="43.23747703548026" lon="12.157529577118929"><ele>519.2</ele><time>2026-03-29T08:49:07.834Z</time></trkpt><trkpt lat="43.23752846903229" lon="12.157362870303123"><ele>517.6</ele><time>2026-03-29T08:49:09.833Z</time></trkpt><trkpt lat="43.23753782310844" lon="12.157276124352231"><ele>516.0</ele><time>2026-03-29T08:49:10.833Z</time></trkpt><trkpt lat="43.23752673778842" lon="12.157144686430499"><ele>513.6666666666666</ele><time>2026-03-29T08:49:12.833Z</time></trkpt><trkpt lat="43.237489982970025" lon="12.157067524623066"><ele>511.33333333333337</ele><time>2026-03-29T08:49:13.833Z</time></trkpt><trkpt lat="43.2374712711573" lon="12.156975369289224"><ele>509.0</ele><time>2026-03-29T08:49:14.833Z</time></trkpt><trkpt lat="43.23743848645012" lon="12.15682430522353"><ele>506.6666666666667</ele><time>2026-03-29T08:49:16.833Z</time></trkpt><trkpt lat="43.23736952233372" lon="12.156746498331268"><ele>504.33333333333337</ele><time>2026-03-29T08:49:18.833Z</time></trkpt><trkpt lat="43.237312460669884" lon="12.15666154634767"><ele>502.0</ele><time>2026-03-29T08:49:20.833Z</time></trkpt><trkpt lat="43.23731743503089" lon="12.156554294213075"><ele>499.1666666666667</ele><time>2026-03-29T08:49:22.833Z</time></trkpt><trkpt lat="43.23737879196524" lon="12.156486119165836"><ele>496.33333333333337</ele><time>2026-03-29T08:49:23.833Z</time></trkpt><trkpt lat="43.23743089628591" lon="12.156414566072764"><ele>493.5</ele><time>2026-03-29T08:49:24.833Z</time></trkpt><trkpt lat="43.23750506608237" lon="12.156345862633318"><ele>490.66666666666663</ele><time>2026-03-29T08:49:25.833Z</time></trkpt><trkpt lat="43.23757429744552" lon="12.156269661592463"><ele>487.8333333333333</ele><time>2026-03-29T08:49:26.833Z</time></trkpt><trkpt lat="43.2376410298086" lon="12.156195352282301"><ele>485.0</ele><time>2026-03-29T08:49:27.833Z</time></trkpt><trkpt lat="43.237694724196565" lon="12.15612801716091"><ele>484.99999999999994</ele><time>2026-03-29T08:49:28.833Z</time></trkpt><trkpt lat="43.23773174971988" lon="12.15605794456918"><ele>485.0</ele><time>2026-03-29T08:49:29.833Z</time></trkpt><trkpt lat="43.23779283141116" lon="12.155946485779507"><ele>485.0</ele><time>2026-03-29T08:49:31.833Z</time></trkpt><trkpt lat="43.237753041288904" lon="12.155864520422366"><ele>485.0</ele><time>2026-03-29T08:49:41.832Z</time></trkpt><trkpt lat="43.23768854515833" lon="12.155839525343232"><ele>484.99999999999994</ele><time>2026-03-29T08:49:42.832Z</time></trkpt><trkpt lat="43.237572794086475" lon="12.155799689399249"><ele>485.0</ele><time>2026-03-29T08:49:43.832Z</time></trkpt><trkpt lat="43.23747993393879" lon="12.155742537838755"><ele>484.99999999999994</ele><time>2026-03-29T08:49:44.832Z</time></trkpt><trkpt lat="43.237403135867474" lon="12.155719780614795"><ele>485.0</ele><time>2026-03-29T08:49:45.832Z</time></trkpt><trkpt lat="43.237316465501074" lon="12.155692880607605"><ele>485.0</ele><time>2026-03-29T08:49:46.832Z</time></trkpt><trkpt lat="43.2372335295318" lon="12.15567482045988"><ele>485.0</ele><time>2026-03-29T08:49:47.832Z</time></trkpt><trkpt lat="43.23715904069528" lon="12.155671282374545"><ele>484.99999999999994</ele><time>2026-03-29T08:49:48.832Z</time></trkpt><trkpt lat="43.237094943714105" lon="12.155660098964454"><ele>485.0</ele><time>2026-03-29T08:49:49.832Z</time></trkpt><trkpt lat="43.23702179754294" lon="12.155602906006804"><ele>483.99999999999994</ele><time>2026-03-29T08:49:50.832Z</time></trkpt><trkpt lat="43.23693536852688" lon="12.155520251949978"><ele>483.0</ele><time>2026-03-29T08:49:51.832Z</time></trkpt><trkpt lat="43.23687343160486" lon="12.155482611150944"><ele>482.0</ele><time>2026-03-29T08:49:52.832Z</time></trkpt><trkpt lat="43.23676747856697" lon="12.155499666052114"><ele>481.0</ele><time>2026-03-29T08:49:54.832Z</time></trkpt><trkpt lat="43.236706842934495" lon="12.155533410210491"><ele>479.99999999999994</ele><time>2026-03-29T08:49:55.832Z</time></trkpt><trkpt lat="43.23662806542379" lon="12.155569539478343"><ele>479.0</ele><time>2026-03-29T08:49:56.832Z</time></trkpt><trkpt lat="43.236508319660366" lon="12.155562216282936"><ele>483.16666666666663</ele><time>2026-03-29T08:49:58.832Z</time></trkpt><trkpt lat="43.23637655026195" lon="12.155445138882952"><ele>487.3333333333333</ele><time>2026-03-29T08:50:00.832Z</time></trkpt><trkpt lat="43.23632013569172" lon="12.155386299687594"><ele>491.5</ele><time>2026-03-29T08:50:01.832Z</time></trkpt><trkpt lat="43.23624308567637" lon="12.155390669660125"><ele>495.66666666666663</ele><time>2026-03-29T08:50:04.832Z</time></trkpt><trkpt lat="43.2361695175669" lon="12.1553899130385"><ele>499.8333333333333</ele><time>2026-03-29T08:50:07.832Z</time></trkpt><trkpt lat="43.23612056361795" lon="12.155323913091145"><ele>504.0</ele><time>2026-03-29T08:50:11.831Z</time></trkpt><trkpt lat="43.23605116724351" lon="12.155354065452165"><ele>504.0</ele><time>2026-03-29T08:50:14.831Z</time></trkpt><trkpt lat="43.235981595221745" lon="12.15539181390472"><ele>504.0</ele><time>2026-03-29T08:50:15.831Z</time></trkpt><trkpt lat="43.23592128449063" lon="12.155443903117446"><ele>504.0</ele><time>2026-03-29T08:50:16.831Z</time></trkpt><trkpt lat="43.23584859015474" lon="12.15557969410232"><ele>504.0</ele><time>2026-03-29T08:50:18.831Z</time></trkpt><trkpt lat="43.2357845487309" lon="12.155649228382352"><ele>504.0</ele><time>2026-03-29T08:50:19.831Z</time></trkpt><trkpt lat="43.23563293792801" lon="12.155731434093939"><ele>511.6</ele><time>2026-03-29T08:50:21.831Z</time></trkpt><trkpt lat="43.23553535381623" lon="12.155812240276651"><ele>519.2</ele><time>2026-03-29T08:50:22.831Z</time></trkpt><trkpt lat="43.23546842842946" lon="12.155815436796386"><ele>526.8000000000001</ele><time>2026-03-29T08:50:24.831Z</time></trkpt><trkpt lat="43.23541139042663" lon="12.1557096683105"><ele>534.4</ele><time>2026-03-29T08:50:26.831Z</time></trkpt><trkpt lat="43.235366479790386" lon="12.155863935330048"><ele>542.0</ele><time>2026-03-29T08:50:28.833Z</time></trkpt><trkpt lat="43.23524807363165" lon="12.155738682281585"><ele>544.0</ele><time>2026-03-29T08:50:30.833Z</time></trkpt><trkpt lat="43.235246326396194" lon="12.15564173383002"><ele>546.0</ele><time>2026-03-29T08:50:31.833Z</time></trkpt><trkpt lat="43.23524616451846" lon="12.155515979015856"><ele>548.0</ele><time>2026-03-29T08:50:32.833Z</time></trkpt><trkpt lat="43.235249710333385" lon="12.155399698387635"><ele>550.0</ele><time>2026-03-29T08:50:33.833Z</time></trkpt><trkpt lat="43.235246818993026" lon="12.155277299667299"><ele>552.0</ele><time>2026-03-29T08:50:34.833Z</time></trkpt><trkpt lat="43.235232100485256" lon="12.155170806566378"><ele>554.0</ele><time>2026-03-29T08:50:35.832Z</time></trkpt><trkpt lat="43.23517885139294" lon="12.155011046282903"><ele>554.0</ele><time>2026-03-29T08:50:37.833Z</time></trkpt><trkpt lat="43.23512880261112" lon="12.154935039202353"><ele>554.0</ele><time>2026-03-29T08:50:38.833Z</time></trkpt><trkpt lat="43.23504126435764" lon="12.154846863752736"><ele>554.0</ele><time>2026-03-29T08:50:39.833Z</time></trkpt><trkpt lat="43.23498956721018" lon="12.154738689983455"><ele>554.0</ele><time>2026-03-29T08:50:40.833Z</time></trkpt><trkpt lat="43.234961409262205" lon="12.154585958628658"><ele>554.0</ele><time>2026-03-29T08:50:41.832Z</time></trkpt><trkpt lat="43.234931226341736" lon="12.15448753250979"><ele>554.2</ele><time>2026-03-29T08:50:42.832Z</time></trkpt><trkpt lat="43.234851356454385" lon="12.154437185292284"><ele>554.4</ele><time>2026-03-29T08:50:44.832Z</time></trkpt><trkpt lat="43.234787258200086" lon="12.154383823827704"><ele>554.6</ele><time>2026-03-29T08:50:45.832Z</time></trkpt><trkpt lat="43.23467941091683" lon="12.15432540665761"><ele>554.8</ele><time>2026-03-29T08:50:46.832Z</time></trkpt><trkpt lat="43.23455835340794" lon="12.154335947546542"><ele>555.0</ele><time>2026-03-29T08:50:47.832Z</time></trkpt><trkpt lat="43.23446912200941" lon="12.15431721180779"><ele>559.6666666666666</ele><time>2026-03-29T08:50:48.832Z</time></trkpt><trkpt lat="43.23442011608082" lon="12.154262596957532"><ele>564.3333333333334</ele><time>2026-03-29T08:50:50.832Z</time></trkpt><trkpt lat="43.234393640008" lon="12.154175965530507"><ele>569.0</ele><time>2026-03-29T08:50:52.832Z</time></trkpt><trkpt lat="43.234333137922825" lon="12.154211593897744"><ele>573.6666666666667</ele><time>2026-03-29T08:50:55.832Z</time></trkpt><trkpt lat="43.23429700793006" lon="12.154323023028846"><ele>578.3333333333334</ele><time>2026-03-29T08:50:57.832Z</time></trkpt><trkpt lat="43.234268308716096" lon="12.154435736290663"><ele>583.0</ele><time>2026-03-29T08:51:02.831Z</time></trkpt><trkpt lat="43.2342713274067" lon="12.154544476499781"><ele>583.0</ele><time>2026-03-29T08:51:03.831Z</time></trkpt><trkpt lat="43.234228711230664" lon="12.154683132718704"><ele>583.0</ele><time>2026-03-29T08:51:05.831Z</time></trkpt><trkpt lat="43.23419003576418" lon="12.154770246776847"><ele>583.0</ele><time>2026-03-29T08:51:06.831Z</time></trkpt><trkpt lat="43.234148311458966" lon="12.154843876415143"><ele>583.0</ele><time>2026-03-29T08:51:07.831Z</time></trkpt><trkpt lat="43.234038815667695" lon="12.15493563384083"><ele>583.0</ele><time>2026-03-29T08:51:08.831Z</time></trkpt><trkpt lat="43.23395653726675" lon="12.15498538140106"><ele>589.4</ele><time>2026-03-29T08:51:09.831Z</time></trkpt><trkpt lat="43.23388964253609" lon="12.155004033383339"><ele>595.8</ele><time>2026-03-29T08:51:10.831Z</time></trkpt><trkpt lat="43.2337959040704" lon="12.155027743298808"><ele>602.2</ele><time>2026-03-29T08:51:12.831Z</time></trkpt><trkpt lat="43.233708656862454" lon="12.15497676073229"><ele>608.6</ele><time>2026-03-29T08:51:14.831Z</time></trkpt><trkpt lat="43.233603981687764" lon="12.155031873625102"><ele>615.0</ele><time>2026-03-29T08:51:16.831Z</time></trkpt><trkpt lat="43.23355262233006" lon="12.155132642978543"><ele>615.0</ele><time>2026-03-29T08:51:18.831Z</time></trkpt><trkpt lat="43.23340046601021" lon="12.155103491261134"><ele>615.0</ele><time>2026-03-29T08:51:20.831Z</time></trkpt><trkpt lat="43.233250238188795" lon="12.155088459857543"><ele>615.0</ele><time>2026-03-29T08:51:21.831Z</time></trkpt><trkpt lat="43.233095191020624" lon="12.155073402726853"><ele>620.25</ele><time>2026-03-29T08:51:22.831Z</time></trkpt><trkpt lat="43.23292009462532" lon="12.155056476978848"><ele>625.5</ele><time>2026-03-29T08:51:23.831Z</time></trkpt><trkpt lat="43.232787003654096" lon="12.155050507449223"><ele>630.75</ele><time>2026-03-29T08:51:24.831Z</time></trkpt><trkpt lat="43.23269039490452" lon="12.155059977119103"><ele>636.0</ele><time>2026-03-29T08:51:25.831Z</time></trkpt><trkpt lat="43.23258184484219" lon="12.155066217358401"><ele>636.0</ele><time>2026-03-29T08:51:26.831Z</time></trkpt><trkpt lat="43.232507301409356" lon="12.155081668435026"><ele>636.0</ele><time>2026-03-29T08:51:27.831Z</time></trkpt><trkpt lat="43.232443058689356" lon="12.155140694399313"><ele>636.0</ele><time>2026-03-29T08:51:30.831Z</time></trkpt><trkpt lat="43.232411978789216" lon="12.155276283265882"><ele>636.0</ele><time>2026-03-29T08:51:33.83Z</time></trkpt><trkpt lat="43.23239922916072" lon="12.155384335167884"><ele>636.0</ele><time>2026-03-29T08:51:34.83Z</time></trkpt><trkpt lat="43.23234379447467" lon="12.15542915500992"><ele>636.0</ele><time>2026-03-29T08:51:36.83Z</time></trkpt><trkpt lat="43.232234868514126" lon="12.15538654731515"><ele>641.6666666666666</ele><time>2026-03-29T08:51:39.83Z</time></trkpt><trkpt lat="43.232068961881566" lon="12.15535129404705"><ele>647.3333333333333</ele><time>2026-03-29T08:51:40.83Z</time></trkpt><trkpt lat="43.23190536774281" lon="12.155312773674796"><ele>653.0</ele><time>2026-03-29T08:51:41.83Z</time></trkpt><trkpt lat="43.23173820047427" lon="12.155272440246462"><ele>653.0</ele><time>2026-03-29T08:51:42.83Z</time></trkpt><trkpt lat="43.231603678579084" lon="12.155234666221913"><ele>653.0</ele><time>2026-03-29T08:51:43.83Z</time></trkpt><trkpt lat="43.23148658702989" lon="12.155208231286547"><ele>653.0</ele><time>2026-03-29T08:51:44.83Z</time></trkpt><trkpt lat="43.23138123728106" lon="12.155143804243025"><ele>653.0</ele><time>2026-03-29T08:51:45.83Z</time></trkpt><trkpt lat="43.23133663128618" lon="12.155257670150805"><ele>653.5</ele><time>2026-03-29T08:51:46.83Z</time></trkpt><trkpt lat="43.23125223874832" lon="12.155403750116323"><ele>654.0</ele><time>2026-03-29T08:51:47.83Z</time></trkpt><trkpt lat="43.23121249224423" lon="12.155577275745173"><ele>654.5</ele><time>2026-03-29T08:51:48.83Z</time></trkpt><trkpt lat="43.23122362213704" lon="12.155756526849844"><ele>655.0</ele><time>2026-03-29T08:51:49.83Z</time></trkpt><trkpt lat="43.231231737466416" lon="12.155990580616468"><ele>654.2</ele><time>2026-03-29T08:51:50.83Z</time></trkpt><trkpt lat="43.23123529692194" lon="12.15616157604309"><ele>653.4</ele><time>2026-03-29T08:51:51.83Z</time></trkpt><trkpt lat="43.23123137525448" lon="12.156304650164978"><ele>652.5999999999999</ele><time>2026-03-29T08:51:52.83Z</time></trkpt><trkpt lat="43.231210442453076" lon="12.156453457149048"><ele>651.8</ele><time>2026-03-29T08:51:53.83Z</time></trkpt><trkpt lat="43.231176414455675" lon="12.156573403393523"><ele>651.0</ele><time>2026-03-29T08:51:54.83Z</time></trkpt><trkpt lat="43.23112844759043" lon="12.156709860149318"><ele>650.5999999999999</ele><time>2026-03-29T08:51:55.83Z</time></trkpt><trkpt lat="43.231077623397994" lon="12.156811296443907"><ele>650.2</ele><time>2026-03-29T08:51:56.83Z</time></trkpt><trkpt lat="43.231007073848204" lon="12.15692227876307"><ele>649.8</ele><time>2026-03-29T08:51:58.83Z</time></trkpt><trkpt lat="43.23093374472881" lon="12.157012945736922"><ele>649.4000000000001</ele><time>2026-03-29T08:51:59.83Z</time></trkpt><trkpt lat="43.2308077235057" lon="12.15712623121924"><ele>649.0</ele><time>2026-03-29T08:52:00.83Z</time></trkpt><trkpt lat="43.23067918682307" lon="12.157249082864277"><ele>648.2</ele><time>2026-03-29T08:52:01.83Z</time></trkpt><trkpt lat="43.2305602837252" lon="12.15735199504274"><ele>647.4000000000001</ele><time>2026-03-29T08:52:02.83Z</time></trkpt><trkpt lat="43.23045669901664" lon="12.157460614456546"><ele>646.6</ele><time>2026-03-29T08:52:03.829Z</time></trkpt><trkpt lat="43.23037878082922" lon="12.157551042942742"><ele>645.8</ele><time>2026-03-29T08:52:04.829Z</time></trkpt><trkpt lat="43.23032117664216" lon="12.157609671873649"><ele>645.0</ele><time>2026-03-29T08:52:05.829Z</time></trkpt><trkpt lat="43.23026130021693" lon="12.1576380113737"><ele>645.0</ele><time>2026-03-29T08:52:06.829Z</time></trkpt><trkpt lat="43.23016478669984" lon="12.157644714103421"><ele>645.0</ele><time>2026-03-29T08:52:08.829Z</time></trkpt><trkpt lat="43.23008671025663" lon="12.157617532151484"><ele>645.0</ele><time>2026-03-29T08:52:10.829Z</time></trkpt><trkpt lat="43.23003850931751" lon="12.157541484459204"><ele>645.0</ele><time>2026-03-29T08:52:12.829Z</time></trkpt><trkpt lat="43.230030877685564" lon="12.157435262395264"><ele>645.0</ele><time>2026-03-29T08:52:14.829Z</time></trkpt><trkpt lat="43.23004886577796" lon="12.157299751869823"><ele>645.0</ele><time>2026-03-29T08:52:16.829Z</time></trkpt><trkpt lat="43.23003518833865" lon="12.1571454544431"><ele>646.8333333333334</ele><time>2026-03-29T08:52:18.829Z</time></trkpt><trkpt lat="43.23002472540359" lon="12.157059638384863"><ele>648.6666666666666</ele><time>2026-03-29T08:52:19.829Z</time></trkpt><trkpt lat="43.23003576641101" lon="12.156884179800294"><ele>650.5</ele><time>2026-03-29T08:52:21.829Z</time></trkpt><trkpt lat="43.23004859667072" lon="12.156785615194847"><ele>652.3333333333333</ele><time>2026-03-29T08:52:22.829Z</time></trkpt><trkpt lat="43.230056724732044" lon="12.156693395943678"><ele>654.1666666666666</ele><time>2026-03-29T08:52:23.829Z</time></trkpt><trkpt lat="43.23005211018181" lon="12.156602907975675"><ele>656.0</ele><time>2026-03-29T08:52:24.829Z</time></trkpt><trkpt lat="43.23009370661313" lon="12.15643133912067"><ele>656.0</ele><time>2026-03-29T08:52:26.829Z</time></trkpt><trkpt lat="43.23012040143201" lon="12.15634105340025"><ele>656.0</ele><time>2026-03-29T08:52:27.829Z</time></trkpt><trkpt lat="43.230148260122384" lon="12.156252243257137"><ele>656.0</ele><time>2026-03-29T08:52:28.829Z</time></trkpt><trkpt lat="43.23018203755807" lon="12.156140403000727"><ele>656.0</ele><time>2026-03-29T08:52:29.829Z</time></trkpt><trkpt lat="43.2302021580932" lon="12.15602377073189"><ele>656.0</ele><time>2026-03-29T08:52:30.829Z</time></trkpt><trkpt lat="43.23021783384815" lon="12.155906372530048"><ele>656.0</ele><time>2026-03-29T08:52:31.829Z</time></trkpt><trkpt lat="43.230237319216066" lon="12.15579684034217"><ele>655.1999999999999</ele><time>2026-03-29T08:52:32.829Z</time></trkpt><trkpt lat="43.23025696691232" lon="12.155680026041779"><ele>654.4</ele><time>2026-03-29T08:52:33.828Z</time></trkpt><trkpt lat="43.230280931239676" lon="12.155546147992066"><ele>653.6</ele><time>2026-03-29T08:52:34.831Z</time></trkpt><trkpt lat="43.23030990510422" lon="12.15541040017878"><ele>652.8</ele><time>2026-03-29T08:52:35.831Z</time></trkpt><trkpt lat="43.23033439301777" lon="12.155297428357631"><ele>652.0</ele><time>2026-03-29T08:52:36.831Z</time></trkpt><trkpt lat="43.23036005250397" lon="12.155185153224132"><ele>652.0</ele><time>2026-03-29T08:52:37.83Z</time></trkpt><trkpt lat="43.23037787408748" lon="12.155089221387527"><ele>652.0</ele><time>2026-03-29T08:52:38.83Z</time></trkpt><trkpt lat="43.230409373791986" lon="12.154956713062088"><ele>652.0</ele><time>2026-03-29T08:52:40.831Z</time></trkpt><trkpt lat="43.230486310944904" lon="12.1549081852721"><ele>652.0</ele><time>2026-03-29T08:52:42.831Z</time></trkpt><trkpt lat="43.23056447680369" lon="12.154889851242388"><ele>652.0</ele><time>2026-03-29T08:52:43.831Z</time></trkpt><trkpt lat="43.2306572199574" lon="12.154821920696834"><ele>652.0</ele><time>2026-03-29T08:52:44.83Z</time></trkpt><trkpt lat="43.23073588616381" lon="12.154792464517442"><ele>654.4000000000001</ele><time>2026-03-29T08:52:45.83Z</time></trkpt><trkpt lat="43.230825216128025" lon="12.154800189834342"><ele>656.8000000000001</ele><time>2026-03-29T08:52:46.83Z</time></trkpt><trkpt lat="43.23093153414677" lon="12.15480892337426"><ele>659.2</ele><time>2026-03-29T08:52:47.831Z</time></trkpt><trkpt lat="43.231042613099476" lon="12.154826289453645"><ele>661.6</ele><time>2026-03-29T08:52:48.831Z</time></trkpt><trkpt lat="43.231144593704286" lon="12.154851974283332"><ele>664.0</ele><time>2026-03-29T08:52:49.831Z</time></trkpt><trkpt lat="43.23123262212271" lon="12.15486816202612"><ele>664.0</ele><time>2026-03-29T08:52:50.831Z</time></trkpt><trkpt lat="43.23131490236429" lon="12.154881265317826"><ele>664.0</ele><time>2026-03-29T08:52:51.831Z</time></trkpt><trkpt lat="43.23138355834364" lon="12.154870789873163"><ele>664.0</ele><time>2026-03-29T08:52:52.831Z</time></trkpt><trkpt lat="43.23144712922838" lon="12.154845439181008"><ele>664.0</ele><time>2026-03-29T08:52:53.831Z</time></trkpt><trkpt lat="43.23150739203673" lon="12.154802535231973"><ele>664.0</ele><time>2026-03-29T08:52:54.831Z</time></trkpt><trkpt lat="43.2315835636551" lon="12.154654517165902"><ele>664.0</ele><time>2026-03-29T08:52:56.831Z</time></trkpt><trkpt lat="43.23161082226674" lon="12.154536599368138"><ele>662.6666666666667</ele><time>2026-03-29T08:52:57.831Z</time></trkpt><trkpt lat="43.23163796985747" lon="12.15444882602666"><ele>661.3333333333334</ele><time>2026-03-29T08:52:58.831Z</time></trkpt><trkpt lat="43.23166449353053" lon="12.154357381548786"><ele>660.0</ele><time>2026-03-29T08:52:59.831Z</time></trkpt><trkpt lat="43.231729078838036" lon="12.154353397135221"><ele>658.6666666666666</ele><time>2026-03-29T08:53:00.831Z</time></trkpt><trkpt lat="43.23179207193713" lon="12.15434832387986"><ele>657.3333333333333</ele><time>2026-03-29T08:53:01.831Z</time></trkpt><trkpt lat="43.23175475337299" lon="12.154233798941803"><ele>656.0</ele><time>2026-03-29T08:53:04.831Z</time></trkpt><trkpt lat="43.231692599893435" lon="12.154143493276354"><ele>655.0</ele><time>2026-03-29T08:53:05.831Z</time></trkpt><trkpt lat="43.23167543614901" lon="12.154013236419827"><ele>654.0</ele><time>2026-03-29T08:53:07.831Z</time></trkpt><trkpt lat="43.231718578823624" lon="12.153881604730433"><ele>653.0</ele><time>2026-03-29T08:53:09.83Z</time></trkpt><trkpt lat="43.2317300249367" lon="12.153779500709675"><ele>652.0</ele><time>2026-03-29T08:53:10.83Z</time></trkpt><trkpt lat="43.23168620684476" lon="12.153677301414143"><ele>651.0</ele><time>2026-03-29T08:53:12.83Z</time></trkpt><trkpt lat="43.23162521533877" lon="12.153534192444635"><ele>651.0</ele><time>2026-03-29T08:53:14.83Z</time></trkpt><trkpt lat="43.23159464428734" lon="12.153404152594605"><ele>651.0</ele><time>2026-03-29T08:53:16.83Z</time></trkpt><trkpt lat="43.231589902955584" lon="12.153288990146509"><ele>651.0</ele><time>2026-03-29T08:53:18.83Z</time></trkpt><trkpt lat="43.23162240536514" lon="12.153188341147299"><ele>651.0</ele><time>2026-03-29T08:53:20.83Z</time></trkpt><trkpt lat="43.231684440015044" lon="12.153111608101332"><ele>651.0</ele><time>2026-03-29T08:53:22.83Z</time></trkpt><trkpt lat="43.23169929655494" lon="12.152998079961558"><ele>651.0</ele><time>2026-03-29T08:53:24.83Z</time></trkpt><trkpt lat="43.231768433371094" lon="12.152897127454862"><ele>651.75</ele><time>2026-03-29T08:53:27.83Z</time></trkpt><trkpt lat="43.231845774221725" lon="12.152858716896965"><ele>652.5</ele><time>2026-03-29T08:53:30.83Z</time></trkpt><trkpt lat="43.23198864082296" lon="12.152722344148533"><ele>653.25</ele><time>2026-03-29T08:53:32.83Z</time></trkpt><trkpt lat="43.23207547448717" lon="12.152614039257227"><ele>654.0</ele><time>2026-03-29T08:53:33.83Z</time></trkpt><trkpt lat="43.23215222461687" lon="12.152535932753965"><ele>654.0</ele><time>2026-03-29T08:53:34.83Z</time></trkpt><trkpt lat="43.2322133837016" lon="12.152468038270095"><ele>654.0</ele><time>2026-03-29T08:53:35.83Z</time></trkpt><trkpt lat="43.23226303264137" lon="12.152396320931484"><ele>654.0</ele><time>2026-03-29T08:53:36.83Z</time></trkpt><trkpt lat="43.232312207834596" lon="12.15229521176056"><ele>654.0</ele><time>2026-03-29T08:53:38.83Z</time></trkpt><trkpt lat="43.2323466249969" lon="12.152148147188605"><ele>654.0</ele><time>2026-03-29T08:53:40.829Z</time></trkpt><trkpt lat="43.23236104320714" lon="12.152037941381586"><ele>654.0</ele><time>2026-03-29T08:53:41.829Z</time></trkpt><trkpt lat="43.23235502667137" lon="12.151922352045155"><ele>655.3333333333334</ele><time>2026-03-29T08:53:42.829Z</time></trkpt><trkpt lat="43.2323339801268" lon="12.151754927440834"><ele>656.6666666666666</ele><time>2026-03-29T08:53:44.829Z</time></trkpt><trkpt lat="43.23231337959236" lon="12.151660964435921"><ele>658.0</ele><time>2026-03-29T08:53:45.829Z</time></trkpt><trkpt lat="43.23228968900131" lon="12.15154889112588"><ele>659.3333333333333</ele><time>2026-03-29T08:53:47.829Z</time></trkpt><trkpt lat="43.232324444742915" lon="12.151471120012298"><ele>660.6666666666666</ele><time>2026-03-29T08:53:49.829Z</time></trkpt><trkpt lat="43.23237910473247" lon="12.151426113897646"><ele>662.0</ele><time>2026-03-29T08:53:51.829Z</time></trkpt><trkpt lat="43.23246973155268" lon="12.151294030288915"><ele>659.3333333333333</ele><time>2026-03-29T08:53:53.829Z</time></trkpt><trkpt lat="43.23252485397909" lon="12.151221657252993"><ele>656.6666666666666</ele><time>2026-03-29T08:53:55.829Z</time></trkpt><trkpt lat="43.23258587146199" lon="12.15119397823475"><ele>654.0</ele><time>2026-03-29T08:53:58.829Z</time></trkpt><trkpt lat="43.232661497224754" lon="12.151145406685567"><ele>651.3333333333334</ele><time>2026-03-29T08:54:00.829Z</time></trkpt><trkpt lat="43.23277870930731" lon="12.151065419521679"><ele>648.6666666666667</ele><time>2026-03-29T08:54:02.829Z</time></trkpt><trkpt lat="43.23283657576799" lon="12.15097700245397"><ele>646.0</ele><time>2026-03-29T08:54:03.829Z</time></trkpt><trkpt lat="43.232881353255294" lon="12.150910771000444"><ele>646.0</ele><time>2026-03-29T08:54:04.829Z</time></trkpt><trkpt lat="43.23289586300884" lon="12.150820908880386"><ele>646.0</ele><time>2026-03-29T08:54:05.829Z</time></trkpt><trkpt lat="43.232949395296274" lon="12.150643504764501"><ele>646.0</ele><time>2026-03-29T08:54:07.829Z</time></trkpt><trkpt lat="43.23300448008252" lon="12.150594541939947"><ele>646.0</ele><time>2026-03-29T08:54:08.829Z</time></trkpt><trkpt lat="43.233107500532704" lon="12.150509499817698"><ele>646.0</ele><time>2026-03-29T08:54:09.828Z</time></trkpt><trkpt lat="43.23321308006773" lon="12.150410954045604"><ele>641.25</ele><time>2026-03-29T08:54:10.828Z</time></trkpt><trkpt lat="43.23329368483522" lon="12.150318579667092"><ele>636.5</ele><time>2026-03-29T08:54:11.828Z</time></trkpt><trkpt lat="43.2334154329403" lon="12.150176254506077"><ele>631.75</ele><time>2026-03-29T08:54:13.828Z</time></trkpt><trkpt lat="43.23348205914146" lon="12.15005343121588"><ele>627.0</ele><time>2026-03-29T08:54:14.828Z</time></trkpt><trkpt lat="43.2335248025129" lon="12.14997190769301"><ele>627.0</ele><time>2026-03-29T08:54:15.828Z</time></trkpt><trkpt lat="43.23357824820218" lon="12.14991125025058"><ele>627.0</ele><time>2026-03-29T08:54:16.828Z</time></trkpt><trkpt lat="43.23366307723575" lon="12.149870838790608"><ele>627.0</ele><time>2026-03-29T08:54:17.828Z</time></trkpt><trkpt lat="43.233753335496274" lon="12.14984613109745"><ele>627.0</ele><time>2026-03-29T08:54:18.828Z</time></trkpt><trkpt lat="43.2338649699639" lon="12.149816738711337"><ele>627.0</ele><time>2026-03-29T08:54:19.828Z</time></trkpt><trkpt lat="43.23397793269459" lon="12.14979051028115"><ele>623.6</ele><time>2026-03-29T08:54:20.828Z</time></trkpt><trkpt lat="43.23408074431161" lon="12.149745168017649"><ele>620.2</ele><time>2026-03-29T08:54:21.828Z</time></trkpt><trkpt lat="43.23416617363284" lon="12.149707650723414"><ele>616.8</ele><time>2026-03-29T08:54:22.828Z</time></trkpt><trkpt lat="43.23423707508081" lon="12.149722196743847"><ele>613.4</ele><time>2026-03-29T08:54:23.828Z</time></trkpt><trkpt lat="43.2343577022864" lon="12.149729899909467"><ele>610.0</ele><time>2026-03-29T08:54:24.828Z</time></trkpt><trkpt lat="43.23447281301903" lon="12.149749516956287"><ele>610.0</ele><time>2026-03-29T08:54:25.828Z</time></trkpt><trkpt lat="43.2345666564363" lon="12.149742716513229"><ele>610.0</ele><time>2026-03-29T08:54:26.828Z</time></trkpt><trkpt lat="43.23466034314423" lon="12.149742249743253"><ele>610.0</ele><time>2026-03-29T08:54:27.828Z</time></trkpt><trkpt lat="43.23475791462172" lon="12.149749676269275"><ele>610.0</ele><time>2026-03-29T08:54:28.828Z</time></trkpt><trkpt lat="43.23484076072134" lon="12.14977056786507"><ele>610.0</ele><time>2026-03-29T08:54:29.828Z</time></trkpt><trkpt lat="43.23490898659085" lon="12.149804879146798"><ele>610.0</ele><time>2026-03-29T08:54:30.828Z</time></trkpt><trkpt lat="43.234982520905426" lon="12.14985477924606"><ele>609.2</ele><time>2026-03-29T08:54:31.828Z</time></trkpt><trkpt lat="43.23506624470057" lon="12.1499108282253"><ele>608.4</ele><time>2026-03-29T08:54:32.828Z</time></trkpt><trkpt lat="43.235147673116096" lon="12.149948347063946"><ele>607.6</ele><time>2026-03-29T08:54:33.828Z</time></trkpt><trkpt lat="43.235227575388016" lon="12.14996711365529"><ele>606.8</ele><time>2026-03-29T08:54:34.828Z</time></trkpt><trkpt lat="43.23531353610638" lon="12.149983816047106"><ele>606.0</ele><time>2026-03-29T08:54:35.828Z</time></trkpt><trkpt lat="43.23539374902847" lon="12.15007880942093"><ele>606.0</ele><time>2026-03-29T08:54:38.828Z</time></trkpt><trkpt lat="43.235425092631424" lon="12.150162616397333"><ele>606.0</ele><time>2026-03-29T08:54:39.827Z</time></trkpt><trkpt lat="43.235504297437885" lon="12.150247151579851"><ele>606.0</ele><time>2026-03-29T08:54:41.829Z</time></trkpt><trkpt lat="43.23560990499577" lon="12.150268147808447"><ele>606.0</ele><time>2026-03-29T08:54:43.829Z</time></trkpt><trkpt lat="43.235741542914035" lon="12.150303971847269"><ele>606.0</ele><time>2026-03-29T08:54:45.828Z</time></trkpt><trkpt lat="43.235817578580615" lon="12.150352577277701"><ele>601.2</ele><time>2026-03-29T08:54:46.829Z</time></trkpt><trkpt lat="43.23588244213254" lon="12.150389993096926"><ele>596.4000000000001</ele><time>2026-03-29T08:54:47.829Z</time></trkpt><trkpt lat="43.23594944829069" lon="12.15040087742655"><ele>591.6</ele><time>2026-03-29T08:54:48.829Z</time></trkpt><trkpt lat="43.23603785979075" lon="12.150376356279892"><ele>586.8000000000001</ele><time>2026-03-29T08:54:50.828Z</time></trkpt><trkpt lat="43.23616409339983" lon="12.150315221401167"><ele>582.0</ele><time>2026-03-29T08:54:52.828Z</time></trkpt><trkpt lat="43.236251830252556" lon="12.15032818628295"><ele>582.0</ele><time>2026-03-29T08:54:53.829Z</time></trkpt><trkpt lat="43.23634187509548" lon="12.150334321389764"><ele>582.0</ele><time>2026-03-29T08:54:54.829Z</time></trkpt><trkpt lat="43.23641961202784" lon="12.150327567983613"><ele>582.0</ele><time>2026-03-29T08:54:55.829Z</time></trkpt><trkpt lat="43.23649645982945" lon="12.1503611388971"><ele>582.0</ele><time>2026-03-29T08:54:56.829Z</time></trkpt><trkpt lat="43.236572875477535" lon="12.1504012603047"><ele>582.0</ele><time>2026-03-29T08:54:57.829Z</time></trkpt><trkpt lat="43.236633533909846" lon="12.150436156782275"><ele>582.0</ele><time>2026-03-29T08:54:58.829Z</time></trkpt><trkpt lat="43.23674869690191" lon="12.150465992827561"><ele>577.2</ele><time>2026-03-29T08:55:00.829Z</time></trkpt><trkpt lat="43.23681903794209" lon="12.150469344614898"><ele>572.4000000000001</ele><time>2026-03-29T08:55:01.829Z</time></trkpt><trkpt lat="43.2369273919487" lon="12.150440686229224"><ele>567.5999999999999</ele><time>2026-03-29T08:55:03.829Z</time></trkpt><trkpt lat="43.237023571513475" lon="12.150390321883942"><ele>562.8</ele><time>2026-03-29T08:55:05.829Z</time></trkpt><trkpt lat="43.23711523502567" lon="12.150353623171288"><ele>558.0</ele><time>2026-03-29T08:55:07.828Z</time></trkpt><trkpt lat="43.23721719631554" lon="12.15032157426316"><ele>553.0</ele><time>2026-03-29T08:55:09.828Z</time></trkpt><trkpt lat="43.237333019444925" lon="12.150298922402447"><ele>548.0</ele><time>2026-03-29T08:55:11.829Z</time></trkpt><trkpt lat="43.237439960820005" lon="12.150302475566768"><ele>543.0</ele><time>2026-03-29T08:55:13.831Z</time></trkpt><trkpt lat="43.23756445688901" lon="12.150259427307878"><ele>538.0</ele><time>2026-03-29T08:55:15.833Z</time></trkpt><trkpt lat="43.237630583482584" lon="12.150266461504712"><ele>533.0</ele><time>2026-03-29T08:55:16.834Z</time></trkpt><trkpt lat="43.23772577895194" lon="12.15030815932235"><ele>533.0</ele><time>2026-03-29T08:55:18.835Z</time></trkpt><trkpt lat="43.23780511617071" lon="12.150333670914593"><ele>533.0</ele><time>2026-03-29T08:55:20.836Z</time></trkpt><trkpt lat="43.23793383029742" lon="12.15030642070005"><ele>533.0</ele><time>2026-03-29T08:55:22.837Z</time></trkpt><trkpt lat="43.238015024379216" lon="12.150309752476263"><ele>533.0</ele><time>2026-03-29T08:55:23.838Z</time></trkpt><trkpt lat="43.23811511801" lon="12.150300006169061"><ele>533.0</ele><time>2026-03-29T08:55:24.838Z</time></trkpt><trkpt lat="43.23819931337171" lon="12.150272324186563"><ele>529.6</ele><time>2026-03-29T08:55:25.839Z</time></trkpt><trkpt lat="43.23829219034445" lon="12.150265607134667"><ele>526.1999999999999</ele><time>2026-03-29T08:55:26.839Z</time></trkpt><trkpt lat="43.238361456354006" lon="12.150227548706718"><ele>522.8</ele><time>2026-03-29T08:55:27.839Z</time></trkpt><trkpt lat="43.23848568961176" lon="12.15019562033858"><ele>519.4</ele><time>2026-03-29T08:55:29.84Z</time></trkpt><trkpt lat="43.23861049091533" lon="12.150202533907304"><ele>516.0</ele><time>2026-03-29T08:55:31.841Z</time></trkpt><trkpt lat="43.23873564713655" lon="12.150168719134566"><ele>516.0</ele><time>2026-03-29T08:55:33.841Z</time></trkpt><trkpt lat="43.23879745520438" lon="12.150140529618568"><ele>516.0</ele><time>2026-03-29T08:55:34.841Z</time></trkpt><trkpt lat="43.2388710891613" lon="12.150069588698365"><ele>516.0</ele><time>2026-03-29T08:55:36.842Z</time></trkpt><trkpt lat="43.23896284146161" lon="12.1499782747581"><ele>516.0</ele><time>2026-03-29T08:55:38.842Z</time></trkpt><trkpt lat="43.23903304986722" lon="12.149919333138374"><ele>516.0</ele><time>2026-03-29T08:55:40.842Z</time></trkpt><trkpt lat="43.23909264705847" lon="12.149856720924882"><ele>516.0</ele><time>2026-03-29T08:55:44.843Z</time></trkpt><trkpt lat="43.23918270412561" lon="12.149820620337378"><ele>512.1666666666666</ele><time>2026-03-29T08:55:47.843Z</time></trkpt><trkpt lat="43.23924575207541" lon="12.149812376066855"><ele>508.33333333333337</ele><time>2026-03-29T08:55:48.843Z</time></trkpt><trkpt lat="43.23936582032026" lon="12.149746227790773"><ele>504.5</ele><time>2026-03-29T08:55:50.843Z</time></trkpt><trkpt lat="43.23943147313171" lon="12.149685400817607"><ele>500.6666666666667</ele><time>2026-03-29T08:55:51.843Z</time></trkpt><trkpt lat="43.23950051154735" lon="12.149627057029988"><ele>496.83333333333337</ele><time>2026-03-29T08:55:52.843Z</time></trkpt><trkpt lat="43.2395706025652" lon="12.149567224648873"><ele>493.0</ele><time>2026-03-29T08:55:53.844Z</time></trkpt><trkpt lat="43.23963218274249" lon="12.149497442086592"><ele>493.00000000000006</ele><time>2026-03-29T08:55:54.844Z</time></trkpt><trkpt lat="43.23968737031021" lon="12.149406521382"><ele>493.0</ele><time>2026-03-29T08:55:55.844Z</time></trkpt><trkpt lat="43.23973722866572" lon="12.149319509676364"><ele>493.0</ele><time>2026-03-29T08:55:56.844Z</time></trkpt><trkpt lat="43.239793464483235" lon="12.149241873610277"><ele>493.0</ele><time>2026-03-29T08:55:57.844Z</time></trkpt><trkpt lat="43.23984953177135" lon="12.149169055729645"><ele>493.00000000000006</ele><time>2026-03-29T08:55:58.844Z</time></trkpt><trkpt lat="43.23991756235933" lon="12.14908693249496"><ele>493.0</ele><time>2026-03-29T08:55:59.844Z</time></trkpt><trkpt lat="43.23996466044777" lon="12.149008554465706"><ele>490.1666666666667</ele><time>2026-03-29T08:56:00.844Z</time></trkpt><trkpt lat="43.240019805050565" lon="12.148939583785872"><ele>487.33333333333337</ele><time>2026-03-29T08:56:01.844Z</time></trkpt><trkpt lat="43.2400772555903" lon="12.14887813947867"><ele>484.5</ele><time>2026-03-29T08:56:02.844Z</time></trkpt><trkpt lat="43.24012189670241" lon="12.148767425177292"><ele>481.66666666666663</ele><time>2026-03-29T08:56:04.844Z</time></trkpt><trkpt lat="43.240039141752284" lon="12.148690247188913"><ele>478.8333333333333</ele><time>2026-03-29T08:56:06.844Z</time></trkpt><trkpt lat="43.23997050833518" lon="12.148677817654871"><ele>476.0</ele><time>2026-03-29T08:56:07.844Z</time></trkpt><trkpt lat="43.23988273830074" lon="12.14867623565801"><ele>476.3333333333333</ele><time>2026-03-29T08:56:08.844Z</time></trkpt><trkpt lat="43.239789476607164" lon="12.148695073595897"><ele>476.66666666666663</ele><time>2026-03-29T08:56:09.844Z</time></trkpt><trkpt lat="43.239711300962924" lon="12.14870755808323"><ele>477.0</ele><time>2026-03-29T08:56:10.844Z</time></trkpt><trkpt lat="43.23962585857369" lon="12.148702545587376"><ele>477.33333333333337</ele><time>2026-03-29T08:56:11.844Z</time></trkpt><trkpt lat="43.23955506370857" lon="12.148690323281297"><ele>477.6666666666667</ele><time>2026-03-29T08:56:12.844Z</time></trkpt><trkpt lat="43.23948854728424" lon="12.14865939141254"><ele>478.0</ele><time>2026-03-29T08:56:14.844Z</time></trkpt><trkpt lat="43.239454532127546" lon="12.148568277359828"><ele>478.0</ele><time>2026-03-29T08:56:16.844Z</time></trkpt><trkpt lat="43.23945918555521" lon="12.148359536833755"><ele>477.99999999999994</ele><time>2026-03-29T08:56:18.844Z</time></trkpt><trkpt lat="43.239457969570914" lon="12.148260239894269"><ele>477.99999999999994</ele><time>2026-03-29T08:56:19.844Z</time></trkpt><trkpt lat="43.23939728290504" lon="12.148136960117506"><ele>478.0</ele><time>2026-03-29T08:56:21.844Z</time></trkpt><trkpt lat="43.239359557645145" lon="12.14802314498642"><ele>478.0</ele><time>2026-03-29T08:56:23.844Z</time></trkpt><trkpt lat="43.239377564464355" lon="12.147889296265923"><ele>475.83333333333337</ele><time>2026-03-29T08:56:25.844Z</time></trkpt><trkpt lat="43.2393366165258" lon="12.147770419038707"><ele>473.6666666666667</ele><time>2026-03-29T08:56:27.843Z</time></trkpt><trkpt lat="43.23929184642048" lon="12.1477059655364"><ele>471.5</ele><time>2026-03-29T08:56:28.843Z</time></trkpt><trkpt lat="43.239216977005384" lon="12.14769348605835"><ele>469.33333333333337</ele><time>2026-03-29T08:56:29.843Z</time></trkpt><trkpt lat="43.23914446600113" lon="12.14762372734055"><ele>467.1666666666667</ele><time>2026-03-29T08:56:31.843Z</time></trkpt><trkpt lat="43.23909684617338" lon="12.14749950225139"><ele>465.0</ele><time>2026-03-29T08:56:33.843Z</time></trkpt><trkpt lat="43.239084636418966" lon="12.147411185707222"><ele>465.6666666666667</ele><time>2026-03-29T08:56:34.843Z</time></trkpt><trkpt lat="43.23903029733006" lon="12.147278264639217"><ele>466.33333333333337</ele><time>2026-03-29T08:56:36.843Z</time></trkpt><trkpt lat="43.23900072737102" lon="12.147178080720451"><ele>467.0</ele><time>2026-03-29T08:56:37.843Z</time></trkpt><trkpt lat="43.23895505670903" lon="12.147057805869267"><ele>467.6666666666667</ele><time>2026-03-29T08:56:39.843Z</time></trkpt><trkpt lat="43.23891600645369" lon="12.1469878235834"><ele>468.33333333333337</ele><time>2026-03-29T08:56:40.843Z</time></trkpt><trkpt lat="43.23887173973347" lon="12.146905202613391"><ele>469.0</ele><time>2026-03-29T08:56:41.843Z</time></trkpt><trkpt lat="43.23881016397167" lon="12.146764561437983"><ele>469.00000000000006</ele><time>2026-03-29T08:56:43.843Z</time></trkpt><trkpt lat="43.23876831217335" lon="12.14667841247062"><ele>469.0</ele><time>2026-03-29T08:56:44.843Z</time></trkpt><trkpt lat="43.238724097821716" lon="12.14655818292943"><ele>469.0</ele><time>2026-03-29T08:56:46.845Z</time></trkpt><trkpt lat="43.23871633911293" lon="12.146451598099995"><ele>469.0</ele><time>2026-03-29T08:56:47.845Z</time></trkpt><trkpt lat="43.23869014161404" lon="12.14632142146777"><ele>469.00000000000006</ele><time>2026-03-29T08:56:48.845Z</time></trkpt><trkpt lat="43.238634702493755" lon="12.146224542272405"><ele>469.0</ele><time>2026-03-29T08:56:49.845Z</time></trkpt><trkpt lat="43.23859328349497" lon="12.146105708371557"><ele>467.0</ele><time>2026-03-29T08:56:50.845Z</time></trkpt><trkpt lat="43.23853809270758" lon="12.146006433995835"><ele>465.0</ele><time>2026-03-29T08:56:52.845Z</time></trkpt><trkpt lat="43.238486319405105" lon="12.145899489569837"><ele>463.0</ele><time>2026-03-29T08:56:54.844Z</time></trkpt><trkpt lat="43.238411577503825" lon="12.14576340708674"><ele>461.0</ele><time>2026-03-29T08:56:56.844Z</time></trkpt><trkpt lat="43.23835810761441" lon="12.14564670611736"><ele>459.0</ele><time>2026-03-29T08:56:57.844Z</time></trkpt><trkpt lat="43.23829622307793" lon="12.145523974590699"><ele>457.2</ele><time>2026-03-29T08:56:58.845Z</time></trkpt><trkpt lat="43.23826114101703" lon="12.1454425279418"><ele>455.4</ele><time>2026-03-29T08:56:59.845Z</time></trkpt><trkpt lat="43.23823072722538" lon="12.145303943821608"><ele>453.6</ele><time>2026-03-29T08:57:01.845Z</time></trkpt><trkpt lat="43.23823160725841" lon="12.14513953766653"><ele>451.8</ele><time>2026-03-29T08:57:03.845Z</time></trkpt><trkpt lat="43.23825697665628" lon="12.145029567426114"><ele>450.0</ele><time>2026-03-29T08:57:04.845Z</time></trkpt><trkpt lat="43.23829968578003" lon="12.144945995371351"><ele>449.75</ele><time>2026-03-29T08:57:05.845Z</time></trkpt><trkpt lat="43.23833022785799" lon="12.144764895467144"><ele>449.5</ele><time>2026-03-29T08:57:07.845Z</time></trkpt><trkpt lat="43.23833335957592" lon="12.14462752957718"><ele>449.25</ele><time>2026-03-29T08:57:09.845Z</time></trkpt><trkpt lat="43.23837846498148" lon="12.144497407068283"><ele>449.0</ele><time>2026-03-29T08:57:11.844Z</time></trkpt><trkpt lat="43.238470827296055" lon="12.144384569987974"><ele>448.99999999999994</ele><time>2026-03-29T08:57:13.844Z</time></trkpt><trkpt lat="43.23853229538389" lon="12.144337203812306"><ele>449.0</ele><time>2026-03-29T08:57:14.844Z</time></trkpt><trkpt lat="43.23861536196648" lon="12.144280432278217"><ele>449.0</ele><time>2026-03-29T08:57:15.844Z</time></trkpt><trkpt lat="43.23870126732516" lon="12.144213532996773"><ele>449.0</ele><time>2026-03-29T08:57:16.844Z</time></trkpt><trkpt lat="43.238783526867216" lon="12.144168767648775"><ele>448.99999999999994</ele><time>2026-03-29T08:57:17.844Z</time></trkpt><trkpt lat="43.2388648231609" lon="12.144137381043759"><ele>449.0</ele><time>2026-03-29T08:57:18.844Z</time></trkpt><trkpt lat="43.23895193074639" lon="12.144122663149803"><ele>445.3333333333333</ele><time>2026-03-29T08:57:19.844Z</time></trkpt><trkpt lat="43.23901310387991" lon="12.144078066653542"><ele>441.66666666666663</ele><time>2026-03-29T08:57:20.844Z</time></trkpt><trkpt lat="43.239097350166844" lon="12.14392448119025"><ele>438.0</ele><time>2026-03-29T08:57:22.844Z</time></trkpt><trkpt lat="43.23915116648464" lon="12.143826268428134"><ele>434.33333333333337</ele><time>2026-03-29T08:57:23.844Z</time></trkpt><trkpt lat="43.2391972458835" lon="12.143744187593294"><ele>430.6666666666667</ele><time>2026-03-29T08:57:24.844Z</time></trkpt><trkpt lat="43.23925880667334" lon="12.14369033380546"><ele>427.0</ele><time>2026-03-29T08:57:25.844Z</time></trkpt><trkpt lat="43.23931751148585" lon="12.143657350129628"><ele>427.00000000000006</ele><time>2026-03-29T08:57:26.844Z</time></trkpt><trkpt lat="43.23939444987905" lon="12.143635651445098"><ele>427.0</ele><time>2026-03-29T08:57:27.844Z</time></trkpt><trkpt lat="43.239471617289745" lon="12.143631990278168"><ele>427.0</ele><time>2026-03-29T08:57:28.844Z</time></trkpt><trkpt lat="43.23957007378966" lon="12.143654243494323"><ele>427.0</ele><time>2026-03-29T08:57:29.844Z</time></trkpt><trkpt lat="43.23965655208395" lon="12.143675878976792"><ele>427.00000000000006</ele><time>2026-03-29T08:57:30.844Z</time></trkpt><trkpt lat="43.23973784927206" lon="12.143697115846205"><ele>427.0</ele><time>2026-03-29T08:57:31.844Z</time></trkpt><trkpt lat="43.23981090813433" lon="12.143688441164313"><ele>422.33333333333337</ele><time>2026-03-29T08:57:32.844Z</time></trkpt><trkpt lat="43.23989520141595" lon="12.143652798235891"><ele>417.6666666666667</ele><time>2026-03-29T08:57:33.844Z</time></trkpt><trkpt lat="43.2399849657526" lon="12.143618539844642"><ele>413.0</ele><time>2026-03-29T08:57:34.844Z</time></trkpt><trkpt lat="43.24006326681417" lon="12.143593308420778"><ele>408.33333333333337</ele><time>2026-03-29T08:57:35.844Z</time></trkpt><trkpt lat="43.24014006035498" lon="12.143598866696"><ele>403.6666666666667</ele><time>2026-03-29T08:57:36.844Z</time></trkpt><trkpt lat="43.240206025858384" lon="12.1435825109203"><ele>399.0</ele><time>2026-03-29T08:57:37.844Z</time></trkpt><trkpt lat="43.24025727897077" lon="12.143504409981505"><ele>399.0</ele><time>2026-03-29T08:57:39.844Z</time></trkpt><trkpt lat="43.2402617591588" lon="12.14335602062128"><ele>399.0</ele><time>2026-03-29T08:57:41.844Z</time></trkpt><trkpt lat="43.24026354366176" lon="12.143217542840775"><ele>399.0</ele><time>2026-03-29T08:57:43.844Z</time></trkpt><trkpt lat="43.24033580312515" lon="12.143118178714959"><ele>399.0</ele><time>2026-03-29T08:57:45.843Z</time></trkpt><trkpt lat="43.2404008990094" lon="12.143093551297047"><ele>399.0</ele><time>2026-03-29T08:57:46.843Z</time></trkpt><trkpt lat="43.24047146639316" lon="12.143014919766573"><ele>397.5</ele><time>2026-03-29T08:57:48.843Z</time></trkpt><trkpt lat="43.24045497335929" lon="12.14293090460611"><ele>396.0</ele><time>2026-03-29T08:57:50.843Z</time></trkpt><trkpt lat="43.24036756627777" lon="12.142881208421946"><ele>394.5</ele><time>2026-03-29T08:57:52.843Z</time></trkpt><trkpt lat="43.240281648051614" lon="12.14283775057044"><ele>393.0</ele><time>2026-03-29T08:57:54.843Z</time></trkpt><trkpt lat="43.24027710413255" lon="12.142719276102396"><ele>391.5</ele><time>2026-03-29T08:57:56.843Z</time></trkpt><trkpt lat="43.2403144956538" lon="12.142637233004574"><ele>390.0</ele><time>2026-03-29T08:57:57.843Z</time></trkpt><trkpt lat="43.240361992293145" lon="12.142568016672323"><ele>390.0</ele><time>2026-03-29T08:57:58.843Z</time></trkpt><trkpt lat="43.240429237982624" lon="12.142499744264505"><ele>390.0</ele><time>2026-03-29T08:57:59.843Z</time></trkpt><trkpt lat="43.24048993222129" lon="12.142441904234369"><ele>390.0</ele><time>2026-03-29T08:58:00.843Z</time></trkpt><trkpt lat="43.240565290871686" lon="12.142386681147839"><ele>390.0</ele><time>2026-03-29T08:58:02.843Z</time></trkpt><trkpt lat="43.24063656094035" lon="12.142474268555125"><ele>390.0</ele><time>2026-03-29T08:58:05.843Z</time></trkpt><trkpt lat="43.24071472342071" lon="12.142548319122424"><ele>390.0</ele><time>2026-03-29T08:58:07.843Z</time></trkpt><trkpt lat="43.24083130109315" lon="12.142563972105512"><ele>385.6</ele><time>2026-03-29T08:58:09.843Z</time></trkpt><trkpt lat="43.24091226216676" lon="12.142519646985889"><ele>381.2</ele><time>2026-03-29T08:58:11.843Z</time></trkpt><trkpt lat="43.24103713301013" lon="12.142504675510947"><ele>376.79999999999995</ele><time>2026-03-29T08:58:13.843Z</time></trkpt><trkpt lat="43.24116077587875" lon="12.142601048538484"><ele>372.4</ele><time>2026-03-29T08:58:15.843Z</time></trkpt><trkpt lat="43.24121335251528" lon="12.14267998678121"><ele>368.0</ele><time>2026-03-29T08:58:16.843Z</time></trkpt><trkpt lat="43.24127197117412" lon="12.142763247102126"><ele>368.0</ele><time>2026-03-29T08:58:17.843Z</time></trkpt><trkpt lat="43.24134123804941" lon="12.142774790185596"><ele>368.0</ele><time>2026-03-29T08:58:19.842Z</time></trkpt><trkpt lat="43.24141347834808" lon="12.142741099556806"><ele>368.0</ele><time>2026-03-29T08:58:22.842Z</time></trkpt><trkpt lat="43.24150370949437" lon="12.142703254121942"><ele>368.0</ele><time>2026-03-29T08:58:24.842Z</time></trkpt><trkpt lat="43.241591499273845" lon="12.14266263381698"><ele>368.0</ele><time>2026-03-29T08:58:26.842Z</time></trkpt><trkpt lat="43.24166412786425" lon="12.142622861029135"><ele>368.0</ele><time>2026-03-29T08:58:28.842Z</time></trkpt><trkpt lat="43.24172811501408" lon="12.14259336693234"><ele>367.1666666666667</ele><time>2026-03-29T08:58:29.842Z</time></trkpt><trkpt lat="43.24179870349429" lon="12.142541491250048"><ele>366.33333333333337</ele><time>2026-03-29T08:58:30.842Z</time></trkpt><trkpt lat="43.24186094910615" lon="12.14250962227989"><ele>365.5</ele><time>2026-03-29T08:58:31.842Z</time></trkpt><trkpt lat="43.24193780021403" lon="12.142459267861113"><ele>364.6666666666667</ele><time>2026-03-29T08:58:32.842Z</time></trkpt><trkpt lat="43.24201904021003" lon="12.142406796673988"><ele>363.8333333333333</ele><time>2026-03-29T08:58:33.842Z</time></trkpt><trkpt lat="43.24209358310515" lon="12.142373357258398"><ele>363.0</ele><time>2026-03-29T08:58:34.842Z</time></trkpt><trkpt lat="43.242156003446375" lon="12.142350033746624"><ele>362.2</ele><time>2026-03-29T08:58:35.842Z</time></trkpt><trkpt lat="43.24228854977557" lon="12.14228726898761"><ele>361.4</ele><time>2026-03-29T08:58:37.842Z</time></trkpt><trkpt lat="43.24236188205435" lon="12.142228000463389"><ele>360.59999999999997</ele><time>2026-03-29T08:58:38.842Z</time></trkpt><trkpt lat="43.24244284549269" lon="12.142206631757373"><ele>359.79999999999995</ele><time>2026-03-29T08:58:39.842Z</time></trkpt><trkpt lat="43.242504117832375" lon="12.142262371447671"><ele>359.0</ele><time>2026-03-29T08:58:40.842Z</time></trkpt><trkpt lat="43.24259720914408" lon="12.142284092501624"><ele>359.0</ele><time>2026-03-29T08:58:41.842Z</time></trkpt><trkpt lat="43.24272012093466" lon="12.14228872700049"><ele>359.0</ele><time>2026-03-29T08:58:42.842Z</time></trkpt><trkpt lat="43.242859305842714" lon="12.142267258403908"><ele>359.0</ele><time>2026-03-29T08:58:43.842Z</time></trkpt><trkpt lat="43.24301674531537" lon="12.142275044307905"><ele>359.0</ele><time>2026-03-29T08:58:44.842Z</time></trkpt><trkpt lat="43.24315660948584" lon="12.142279086920723"><ele>356.25</ele><time>2026-03-29T08:58:45.842Z</time></trkpt><trkpt lat="43.2432986546274" lon="12.142269334035348"><ele>353.5</ele><time>2026-03-29T08:58:46.842Z</time></trkpt><trkpt lat="43.243419476319296" lon="12.14222197860936"><ele>350.75</ele><time>2026-03-29T08:58:47.842Z</time></trkpt><trkpt lat="43.243529711817885" lon="12.142210035994164"><ele>348.0</ele><time>2026-03-29T08:58:48.842Z</time></trkpt><trkpt lat="43.24365643039454" lon="12.14219517667342"><ele>348.0</ele><time>2026-03-29T08:58:49.842Z</time></trkpt><trkpt lat="43.24378006600757" lon="12.14220369630407"><ele>348.0</ele><time>2026-03-29T08:58:50.842Z</time></trkpt><trkpt lat="43.24390227092538" lon="12.142202636445411"><ele>348.0</ele><time>2026-03-29T08:58:51.841Z</time></trkpt><trkpt lat="43.24401904445543" lon="12.142202614781537"><ele>348.0</ele><time>2026-03-29T08:58:52.844Z</time></trkpt><trkpt lat="43.24411325721741" lon="12.142218531710423"><ele>345.4</ele><time>2026-03-29T08:58:53.843Z</time></trkpt><trkpt lat="43.24422519833942" lon="12.142243205997753"><ele>342.79999999999995</ele><time>2026-03-29T08:58:54.843Z</time></trkpt><trkpt lat="43.24432964599696" lon="12.142272551994843"><ele>340.2</ele><time>2026-03-29T08:58:55.844Z</time></trkpt><trkpt lat="43.24443050318964" lon="12.142310491770305"><ele>337.6</ele><time>2026-03-29T08:58:56.843Z</time></trkpt><trkpt lat="43.2445232579054" lon="12.142349852937242"><ele>335.0</ele><time>2026-03-29T08:58:57.843Z</time></trkpt><trkpt lat="43.24462372634793" lon="12.14240712975759"><ele>334.6</ele><time>2026-03-29T08:58:58.843Z</time></trkpt><trkpt lat="43.24473032334927" lon="12.142443229751644"><ele>334.2</ele><time>2026-03-29T08:58:59.843Z</time></trkpt><trkpt lat="43.24483049772837" lon="12.142500845341347"><ele>333.79999999999995</ele><time>2026-03-29T08:59:00.843Z</time></trkpt><trkpt lat="43.244913669139166" lon="12.14256401076288"><ele>333.4</ele><time>2026-03-29T08:59:01.843Z</time></trkpt><trkpt lat="43.24500400244738" lon="12.142624922348995"><ele>333.0</ele><time>2026-03-29T08:59:02.844Z</time></trkpt><trkpt lat="43.24511469229423" lon="12.142690026969058"><ele>330.3333333333333</ele><time>2026-03-29T08:59:03.844Z</time></trkpt><trkpt lat="43.24526027431829" lon="12.142731484049976"><ele>327.66666666666663</ele><time>2026-03-29T08:59:04.843Z</time></trkpt><trkpt lat="43.24542365777377" lon="12.142755422567802"><ele>325.0</ele><time>2026-03-29T08:59:05.843Z</time></trkpt><trkpt lat="43.24556767231239" lon="12.142777648776164"><ele>323.5</ele><time>2026-03-29T08:59:06.843Z</time></trkpt><trkpt lat="43.24569307802701" lon="12.142799593571713"><ele>322.0</ele><time>2026-03-29T08:59:07.843Z</time></trkpt><trkpt lat="43.24581602369997" lon="12.142821739931279"><ele>320.5</ele><time>2026-03-29T08:59:08.843Z</time></trkpt><trkpt lat="43.2459274597606" lon="12.142874245449677"><ele>319.0</ele><time>2026-03-29T08:59:09.843Z</time></trkpt><trkpt lat="43.24602742168932" lon="12.14292574449738"><ele>319.0</ele><time>2026-03-29T08:59:10.843Z</time></trkpt><trkpt lat="43.2461169565783" lon="12.14296790557352"><ele>319.0</ele><time>2026-03-29T08:59:11.843Z</time></trkpt><trkpt lat="43.2461826369513" lon="12.142997922530212"><ele>319.0</ele><time>2026-03-29T08:59:12.843Z</time></trkpt><trkpt lat="43.246280196962374" lon="12.143086934593505"><ele>319.0</ele><time>2026-03-29T08:59:14.843Z</time></trkpt><trkpt lat="43.2463163748889" lon="12.143206320480951"><ele>319.0</ele><time>2026-03-29T08:59:16.843Z</time></trkpt><trkpt lat="43.24631074399953" lon="12.143347807118825"><ele>319.0</ele><time>2026-03-29T08:59:18.843Z</time></trkpt><trkpt lat="43.24627585579468" lon="12.143427560503268"><ele>319.0</ele><time>2026-03-29T08:59:19.843Z</time></trkpt><trkpt lat="43.246179868033565" lon="12.14355528071404"><ele>319.0</ele><time>2026-03-29T08:59:21.843Z</time></trkpt><trkpt lat="43.24613756561595" lon="12.143625981380485"><ele>319.0</ele><time>2026-03-29T08:59:22.843Z</time></trkpt><trkpt lat="43.24609664331809" lon="12.143696332196852"><ele>319.0</ele><time>2026-03-29T08:59:23.842Z</time></trkpt><trkpt lat="43.246036223380095" lon="12.143818319890133"><ele>319.0</ele><time>2026-03-29T08:59:25.842Z</time></trkpt><trkpt lat="43.24608426501719" lon="12.143940969521232"><ele>319.2</ele><time>2026-03-29T08:59:28.842Z</time></trkpt><trkpt lat="43.24618396516933" lon="12.144082483025072"><ele>319.4</ele><time>2026-03-29T08:59:30.842Z</time></trkpt><trkpt lat="43.24623284040962" lon="12.144145447493765"><ele>319.6</ele><time>2026-03-29T08:59:31.842Z</time></trkpt><trkpt lat="43.24630058068327" lon="12.144208349265421"><ele>319.8</ele><time>2026-03-29T08:59:33.842Z</time></trkpt><trkpt lat="43.24635261767959" lon="12.144289711901386"><ele>320.0</ele><time>2026-03-29T08:59:37.842Z</time></trkpt><trkpt lat="43.24644807907293" lon="12.144425371922072"><ele>318.0</ele><time>2026-03-29T09:00:10.841Z</time></trkpt><trkpt lat="43.24650114456287" lon="12.144491750925056"><ele>316.0</ele><time>2026-03-29T09:00:54.84Z</time></trkpt><trkpt lat="43.2466131849113" lon="12.144524820994189"><ele>314.0</ele><time>2026-03-29T09:02:14.841Z</time></trkpt><trkpt lat="43.24667398065737" lon="12.144554828892849"><ele>312.0</ele><time>2026-03-29T09:03:37.839Z</time></trkpt><trkpt lat="43.24667975434516" lon="12.144461253797095"><ele>310.0</ele><time>2026-03-29T09:06:32.837Z</time></trkpt><trkpt lat="43.24661796684749" lon="12.144505916973843"><ele>308.0</ele><time>2026-03-29T09:11:48.879Z</time></trkpt><trkpt lat="43.24668613281858" lon="12.14446041109578"><ele>308.0</ele><time>2026-03-29T09:18:31.876Z</time></trkpt><trkpt lat="43.246680612859926" lon="12.144560600393882"><ele>308.0</ele><time>2026-03-29T09:19:01.876Z</time></trkpt><trkpt lat="43.246621923037644" lon="12.144595068092853"><ele>308.0</ele><time>2026-03-29T09:23:01.875Z</time></trkpt><trkpt lat="43.246565251084206" lon="12.144553986742746"><ele>308.0</ele><time>2026-03-29T09:23:07.875Z</time></trkpt><trkpt lat="43.24649482909238" lon="12.144517924637178"><ele>308.0</ele><time>2026-03-29T09:23:14.875Z</time></trkpt><trkpt lat="43.24644403498087" lon="12.14440177564732"><ele>308.0</ele><time>2026-03-29T09:25:54.876Z</time></trkpt><trkpt lat="43.24655294329845" lon="12.14454556471945"><ele>308.0</ele><time>2026-03-29T09:26:45.877Z</time></trkpt><trkpt lat="43.246639310293254" lon="12.144629025057247"><ele>308.0</ele><time>2026-03-29T09:26:49.877Z</time></trkpt><trkpt lat="43.2467005322219" lon="12.144664237434672"><ele>308.0</ele><time>2026-03-29T09:27:01.877Z</time></trkpt><trkpt lat="43.246792341358336" lon="12.144726883948318"><ele>308.0</ele><time>2026-03-29T09:27:04.877Z</time></trkpt><trkpt lat="43.24687301813409" lon="12.144779508832245"><ele>308.0</ele><time>2026-03-29T09:27:06.877Z</time></trkpt><trkpt lat="43.246935320400205" lon="12.144831368322311"><ele>308.0</ele><time>2026-03-29T09:27:08.877Z</time></trkpt><trkpt lat="43.24703215198873" lon="12.144827974235781"><ele>308.0</ele><time>2026-03-29T09:27:10.876Z</time></trkpt><trkpt lat="43.24710417004143" lon="12.144822867121636"><ele>308.0</ele><time>2026-03-29T09:27:11.876Z</time></trkpt><trkpt lat="43.2472064367673" lon="12.144806240672873"><ele>308.0</ele><time>2026-03-29T09:27:13.876Z</time></trkpt><trkpt lat="43.247303457565174" lon="12.144767280206215"><ele>308.0</ele><time>2026-03-29T09:27:15.876Z</time></trkpt><trkpt lat="43.247371333089355" lon="12.144759278184395"><ele>308.0</ele><time>2026-03-29T09:27:17.876Z</time></trkpt><trkpt lat="43.24738603804358" lon="12.14462605725775"><ele>308.0</ele><time>2026-03-29T09:27:20.876Z</time></trkpt><trkpt lat="43.24738347296696" lon="12.14452777878241"><ele>306.5</ele><time>2026-03-29T09:27:21.876Z</time></trkpt><trkpt lat="43.24739608272654" lon="12.144369762163612"><ele>305.0</ele><time>2026-03-29T09:27:22.876Z</time></trkpt><trkpt lat="43.24740652473574" lon="12.144162011182845"><ele>303.5</ele><time>2026-03-29T09:27:23.876Z</time></trkpt><trkpt lat="43.24740862817013" lon="12.143913502638977"><ele>302.0</ele><time>2026-03-29T09:27:24.876Z</time></trkpt><trkpt lat="43.24740955481882" lon="12.143658725047954"><ele>302.0</ele><time>2026-03-29T09:27:25.876Z</time></trkpt><trkpt lat="43.247408359028725" lon="12.14343893917112"><ele>302.0</ele><time>2026-03-29T09:27:26.876Z</time></trkpt><trkpt lat="43.24740280029146" lon="12.143236587831433"><ele>302.0</ele><time>2026-03-29T09:27:27.876Z</time></trkpt><trkpt lat="43.24739038790857" lon="12.14304872008368"><ele>302.0</ele><time>2026-03-29T09:27:28.876Z</time></trkpt><trkpt lat="43.247346247443616" lon="12.142863622449763"><ele>302.75</ele><time>2026-03-29T09:27:29.876Z</time></trkpt><trkpt lat="43.24729664269515" lon="12.142655826089092"><ele>303.5</ele><time>2026-03-29T09:27:30.876Z</time></trkpt><trkpt lat="43.247237963291155" lon="12.142472575323717"><ele>304.25</ele><time>2026-03-29T09:27:31.876Z</time></trkpt><trkpt lat="43.247196202631" lon="12.14230777338458"><ele>305.0</ele><time>2026-03-29T09:27:32.876Z</time></trkpt><trkpt lat="43.24718160501079" lon="12.14215908459014"><ele>305.1666666666667</ele><time>2026-03-29T09:27:33.876Z</time></trkpt><trkpt lat="43.247184509449156" lon="12.142039852046931"><ele>305.33333333333337</ele><time>2026-03-29T09:27:34.876Z</time></trkpt><trkpt lat="43.247211164280586" lon="12.141936472192253"><ele>305.5</ele><time>2026-03-29T09:27:35.876Z</time></trkpt><trkpt lat="43.24724027721429" lon="12.141832644648673"><ele>305.6666666666667</ele><time>2026-03-29T09:27:36.876Z</time></trkpt><trkpt lat="43.247286649942" lon="12.141724485584243"><ele>305.8333333333333</ele><time>2026-03-29T09:27:37.876Z</time></trkpt><trkpt lat="43.247362050214974" lon="12.141617290104591"><ele>306.0</ele><time>2026-03-29T09:27:38.876Z</time></trkpt><trkpt lat="43.247463878223776" lon="12.141530215530398"><ele>307.75</ele><time>2026-03-29T09:27:39.876Z</time></trkpt><trkpt lat="43.24755612027272" lon="12.141425158150122"><ele>309.5</ele><time>2026-03-29T09:27:40.876Z</time></trkpt><trkpt lat="43.24764907644913" lon="12.14131267589466"><ele>311.25</ele><time>2026-03-29T09:27:41.876Z</time></trkpt><trkpt lat="43.24774844264463" lon="12.141175515982356"><ele>313.0</ele><time>2026-03-29T09:27:42.876Z</time></trkpt><trkpt lat="43.247848796745096" lon="12.141041904529358"><ele>313.0</ele><time>2026-03-29T09:27:43.876Z</time></trkpt><trkpt lat="43.24794524556145" lon="12.140906878627899"><ele>313.0</ele><time>2026-03-29T09:27:44.876Z</time></trkpt><trkpt lat="43.24804631315491" lon="12.140786398554216"><ele>313.0</ele><time>2026-03-29T09:27:45.876Z</time></trkpt><trkpt lat="43.24813976306746" lon="12.140668022065949"><ele>313.0</ele><time>2026-03-29T09:27:46.876Z</time></trkpt><trkpt lat="43.248222946908456" lon="12.14054646280659"><ele>311.75</ele><time>2026-03-29T09:27:47.876Z</time></trkpt><trkpt lat="43.24830409055247" lon="12.140440701583584"><ele>310.5</ele><time>2026-03-29T09:27:48.876Z</time></trkpt><trkpt lat="43.24839004183701" lon="12.14033501064441"><ele>309.25</ele><time>2026-03-29T09:27:49.876Z</time></trkpt><trkpt lat="43.24847328758801" lon="12.140235769772525"><ele>308.0</ele><time>2026-03-29T09:27:50.876Z</time></trkpt><trkpt lat="43.24855559683445" lon="12.140131135532634"><ele>308.0</ele><time>2026-03-29T09:27:51.876Z</time></trkpt><trkpt lat="43.2486359156576" lon="12.140027703683774"><ele>308.0</ele><time>2026-03-29T09:27:52.876Z</time></trkpt><trkpt lat="43.24871649054099" lon="12.139930174213637"><ele>308.0</ele><time>2026-03-29T09:27:53.876Z</time></trkpt><trkpt lat="43.24879090025817" lon="12.139838020776192"><ele>308.0</ele><time>2026-03-29T09:27:54.876Z</time></trkpt><trkpt lat="43.248859711528475" lon="12.139752862606594"><ele>308.0</ele><time>2026-03-29T09:27:55.876Z</time></trkpt><trkpt lat="43.24892691581191" lon="12.139678376761642"><ele>307.83333333333337</ele><time>2026-03-29T09:27:56.875Z</time></trkpt><trkpt lat="43.24897809037749" lon="12.139599647928506"><ele>307.6666666666667</ele><time>2026-03-29T09:27:57.875Z</time></trkpt><trkpt lat="43.24903387726273" lon="12.139534440619729"><ele>307.5</ele><time>2026-03-29T09:27:58.875Z</time></trkpt><trkpt lat="43.24908935538225" lon="12.139462601431005"><ele>307.3333333333333</ele><time>2026-03-29T09:27:59.875Z</time></trkpt><trkpt lat="43.24915667424536" lon="12.139369830413603"><ele>307.16666666666663</ele><time>2026-03-29T09:28:00.875Z</time></trkpt><trkpt lat="43.24923083303376" lon="12.13926913645658"><ele>307.0</ele><time>2026-03-29T09:28:01.875Z</time></trkpt><trkpt lat="43.2493034411894" lon="12.13916899187433"><ele>307.0</ele><time>2026-03-29T09:28:02.875Z</time></trkpt><trkpt lat="43.24936875344804" lon="12.139083733930546"><ele>307.0</ele><time>2026-03-29T09:28:03.875Z</time></trkpt><trkpt lat="43.24943116396826" lon="12.139007943199033"><ele>307.0</ele><time>2026-03-29T09:28:04.875Z</time></trkpt><trkpt lat="43.24949243700139" lon="12.138954116977729"><ele>307.0</ele><time>2026-03-29T09:28:05.875Z</time></trkpt><trkpt lat="43.24955661377705" lon="12.138908783433484"><ele>307.0</ele><time>2026-03-29T09:28:06.875Z</time></trkpt><trkpt lat="43.249632675795645" lon="12.138884326855575"><ele>307.0</ele><time>2026-03-29T09:28:07.875Z</time></trkpt><trkpt lat="43.24973406778791" lon="12.138870054250807"><ele>304.66666666666663</ele><time>2026-03-29T09:28:08.875Z</time></trkpt><trkpt lat="43.249879952396846" lon="12.138891892321812"><ele>302.3333333333333</ele><time>2026-03-29T09:28:09.875Z</time></trkpt><trkpt lat="43.250055446569704" lon="12.138922497297896"><ele>300.0</ele><time>2026-03-29T09:28:10.875Z</time></trkpt><trkpt lat="43.25024339004029" lon="12.138940450199938"><ele>300.0</ele><time>2026-03-29T09:28:11.875Z</time></trkpt><trkpt lat="43.25043584455327" lon="12.13895786346947"><ele>300.0</ele><time>2026-03-29T09:28:12.875Z</time></trkpt><trkpt lat="43.25064276881752" lon="12.138986471935707"><ele>300.0</ele><time>2026-03-29T09:28:13.875Z</time></trkpt><trkpt lat="43.25085445096393" lon="12.139020772845704"><ele>299.3333333333333</ele><time>2026-03-29T09:28:14.875Z</time></trkpt><trkpt lat="43.251059044859176" lon="12.139048276518448"><ele>298.66666666666663</ele><time>2026-03-29T09:28:15.877Z</time></trkpt><trkpt lat="43.251239514314186" lon="12.139064191884493"><ele>298.0</ele><time>2026-03-29T09:28:16.877Z</time></trkpt><trkpt lat="43.25140007810302" lon="12.13907945980745"><ele>298.25</ele><time>2026-03-29T09:28:17.877Z</time></trkpt><trkpt lat="43.25154943848418" lon="12.139091115876704"><ele>298.5</ele><time>2026-03-29T09:28:18.878Z</time></trkpt><trkpt lat="43.251688947840954" lon="12.139104438949781"><ele>298.75</ele><time>2026-03-29T09:28:19.878Z</time></trkpt><trkpt lat="43.251813967799045" lon="12.13911537528106"><ele>299.0</ele><time>2026-03-29T09:28:20.878Z</time></trkpt><trkpt lat="43.25193397202886" lon="12.139135092053642"><ele>299.0</ele><time>2026-03-29T09:28:21.877Z</time></trkpt><trkpt lat="43.25204346795482" lon="12.13914644731965"><ele>299.0</ele><time>2026-03-29T09:28:22.878Z</time></trkpt><trkpt lat="43.25215851308897" lon="12.139154532052748"><ele>299.0</ele><time>2026-03-29T09:28:23.878Z</time></trkpt><trkpt lat="43.252276076545655" lon="12.139168748313695"><ele>299.0</ele><time>2026-03-29T09:28:24.877Z</time></trkpt><trkpt lat="43.252392539413286" lon="12.139182117541914"><ele>299.25</ele><time>2026-03-29T09:28:25.877Z</time></trkpt><trkpt lat="43.252506063875956" lon="12.139195497703769"><ele>299.5</ele><time>2026-03-29T09:28:26.877Z</time></trkpt><trkpt lat="43.25263059675481" lon="12.139210692094295"><ele>299.75</ele><time>2026-03-29T09:28:27.878Z</time></trkpt><trkpt lat="43.25274041802532" lon="12.139221421518508"><ele>300.0</ele><time>2026-03-29T09:28:28.877Z</time></trkpt><trkpt lat="43.25284326554564" lon="12.139229823693205"><ele>300.0</ele><time>2026-03-29T09:28:29.877Z</time></trkpt><trkpt lat="43.25294609200938" lon="12.139251432734751"><ele>300.0</ele><time>2026-03-29T09:28:30.877Z</time></trkpt><trkpt lat="43.253032795551455" lon="12.139259990105895"><ele>300.0</ele><time>2026-03-29T09:28:31.877Z</time></trkpt><trkpt lat="43.253128697775246" lon="12.139292856370764"><ele>300.0</ele><time>2026-03-29T09:28:32.877Z</time></trkpt><trkpt lat="43.253228779670415" lon="12.139286109706418"><ele>300.0</ele><time>2026-03-29T09:28:33.877Z</time></trkpt><trkpt lat="43.25332729097951" lon="12.139308810735521"><ele>300.4</ele><time>2026-03-29T09:28:34.877Z</time></trkpt><trkpt lat="43.253423418946895" lon="12.139319794167015"><ele>300.8</ele><time>2026-03-29T09:28:35.877Z</time></trkpt><trkpt lat="43.25351935721992" lon="12.139335269200469"><ele>301.2</ele><time>2026-03-29T09:28:36.877Z</time></trkpt><trkpt lat="43.2536079027741" lon="12.139345649847272"><ele>301.6</ele><time>2026-03-29T09:28:37.877Z</time></trkpt><trkpt lat="43.25368358998619" lon="12.139352127595023"><ele>302.0</ele><time>2026-03-29T09:28:38.877Z</time></trkpt><trkpt lat="43.25379968875416" lon="12.139361021266149"><ele>302.0</ele><time>2026-03-29T09:28:40.877Z</time></trkpt><trkpt lat="43.253868085164" lon="12.139374988383247"><ele>302.0</ele><time>2026-03-29T09:28:44.877Z</time></trkpt><trkpt lat="43.25389922935008" lon="12.139471560823507"><ele>302.0</ele><time>2026-03-29T09:33:01.876Z</time></trkpt><trkpt lat="43.2539991797184" lon="12.139398943929235"><ele>302.0</ele><time>2026-03-29T09:45:39.851Z</time></trkpt><trkpt lat="43.253991919139125" lon="12.139490358307532"><ele>302.0</ele><time>2026-03-29T09:46:27.85Z</time></trkpt><trkpt lat="43.25405071480848" lon="12.139560843147834"><ele>302.0</ele><time>2026-03-29T09:46:54.85Z</time></trkpt><trkpt lat="43.25407547675834" lon="12.139642341625136"><ele>302.00000000000006</ele><time>2026-03-29T09:50:58.848Z</time></trkpt><trkpt lat="43.25414665097475" lon="12.13969909382469"><ele>302.0</ele><time>2026-03-29T09:52:40.848Z</time></trkpt><trkpt lat="43.254092519279375" lon="12.139628425452596"><ele>302.0</ele><time>2026-03-29T09:53:00.847Z</time></trkpt><trkpt lat="43.25406281096489" lon="12.139551220178705"><ele>302.0</ele><time>2026-03-29T09:53:15.847Z</time></trkpt><trkpt lat="43.25406050969879" lon="12.139458851731739"><ele>302.0</ele><time>2026-03-29T09:53:38.848Z</time></trkpt><trkpt lat="43.25406315595767" lon="12.139361946314652"><ele>302.00000000000006</ele><time>2026-03-29T09:53:42.848Z</time></trkpt><trkpt lat="43.25398602757921" lon="12.139313086840888"><ele>302.0</ele><time>2026-03-29T09:53:44.848Z</time></trkpt><trkpt lat="43.253882492419734" lon="12.13932585140129"><ele>302.0</ele><time>2026-03-29T09:53:46.848Z</time></trkpt><trkpt lat="43.25378996218212" lon="12.139331004172407"><ele>302.0</ele><time>2026-03-29T09:53:48.848Z</time></trkpt><trkpt lat="43.253694147869" lon="12.139321860825492"><ele>302.0</ele><time>2026-03-29T09:53:50.848Z</time></trkpt><trkpt lat="43.25358300968293" lon="12.139316659653769"><ele>302.0</ele><time>2026-03-29T09:53:51.848Z</time></trkpt><trkpt lat="43.25347205194243" lon="12.139302686329842"><ele>302.0</ele><time>2026-03-29T09:53:52.848Z</time></trkpt><trkpt lat="43.253363597916525" lon="12.139285761125366"><ele>302.0</ele><time>2026-03-29T09:53:53.848Z</time></trkpt><trkpt lat="43.25325766182899" lon="12.139263919202472"><ele>302.0</ele><time>2026-03-29T09:53:54.848Z</time></trkpt><trkpt lat="43.253171105023284" lon="12.139250982479272"><ele>302.0</ele><time>2026-03-29T09:53:55.848Z</time></trkpt><trkpt lat="43.25310059307649" lon="12.139243483193246"><ele>302.0</ele><time>2026-03-29T09:53:56.848Z</time></trkpt><trkpt lat="43.25303676075478" lon="12.13923629863572"><ele>302.0</ele><time>2026-03-29T09:53:58.848Z</time></trkpt><trkpt lat="43.25295519886781" lon="12.139222709383336"><ele>302.0</ele><time>2026-03-29T09:54:01.847Z</time></trkpt><trkpt lat="43.25288801268715" lon="12.139219085839901"><ele>301.6666666666667</ele><time>2026-03-29T09:54:03.847Z</time></trkpt><trkpt lat="43.25280740902928" lon="12.139210666734254"><ele>301.33333333333337</ele><time>2026-03-29T09:54:05.847Z</time></trkpt><trkpt lat="43.252722756972865" lon="12.139199667756717"><ele>301.0</ele><time>2026-03-29T09:54:07.847Z</time></trkpt><trkpt lat="43.25265822022956" lon="12.139187707964988"><ele>300.6666666666667</ele><time>2026-03-29T09:54:08.847Z</time></trkpt><trkpt lat="43.25257179996929" lon="12.139185907971612"><ele>300.3333333333333</ele><time>2026-03-29T09:54:09.847Z</time></trkpt><trkpt lat="43.252462886386255" lon="12.139179151108312"><ele>300.0</ele><time>2026-03-29T09:54:10.847Z</time></trkpt><trkpt lat="43.252336547774476" lon="12.139164662029229"><ele>299.6666666666667</ele><time>2026-03-29T09:54:11.847Z</time></trkpt><trkpt lat="43.25219230982138" lon="12.139146216596819"><ele>299.33333333333337</ele><time>2026-03-29T09:54:12.847Z</time></trkpt><trkpt lat="43.25202561428844" lon="12.139127138573745"><ele>299.0</ele><time>2026-03-29T09:54:13.847Z</time></trkpt><trkpt lat="43.25187468902147" lon="12.139111412554877"><ele>299.0</ele><time>2026-03-29T09:54:14.847Z</time></trkpt><trkpt lat="43.25172507845562" lon="12.13909388670324"><ele>299.0</ele><time>2026-03-29T09:54:15.847Z</time></trkpt><trkpt lat="43.25158637357005" lon="12.139078955553268"><ele>299.0</ele><time>2026-03-29T09:54:16.847Z</time></trkpt><trkpt lat="43.25145223496807" lon="12.139062537754036"><ele>299.0</ele><time>2026-03-29T09:54:17.847Z</time></trkpt><trkpt lat="43.251311625638046" lon="12.139044123212017"><ele>298.75</ele><time>2026-03-29T09:54:18.847Z</time></trkpt><trkpt lat="43.25116369815843" lon="12.139027452482084"><ele>298.5</ele><time>2026-03-29T09:54:19.847Z</time></trkpt><trkpt lat="43.25101671626014" lon="12.139009390364826"><ele>298.25</ele><time>2026-03-29T09:54:20.847Z</time></trkpt><trkpt lat="43.250872267274985" lon="12.1389907910609"><ele>298.0</ele><time>2026-03-29T09:54:21.847Z</time></trkpt><trkpt lat="43.250727221298526" lon="12.138972035446068"><ele>298.66666666666663</ele><time>2026-03-29T09:54:22.847Z</time></trkpt><trkpt lat="43.250582464688115" lon="12.138957542434971"><ele>299.3333333333333</ele><time>2026-03-29T09:54:23.847Z</time></trkpt><trkpt lat="43.25042056197698" lon="12.13894112081743"><ele>300.0</ele><time>2026-03-29T09:54:24.847Z</time></trkpt><trkpt lat="43.2502753372731" lon="12.138928755611998"><ele>300.0</ele><time>2026-03-29T09:54:25.847Z</time></trkpt><trkpt lat="43.2501411611567" lon="12.138916259252298"><ele>300.0</ele><time>2026-03-29T09:54:26.847Z</time></trkpt><trkpt lat="43.2500266444854" lon="12.13890321827184"><ele>300.0</ele><time>2026-03-29T09:54:27.847Z</time></trkpt><trkpt lat="43.24992227536776" lon="12.138890343144082"><ele>300.0</ele><time>2026-03-29T09:54:28.847Z</time></trkpt><trkpt lat="43.249827019325934" lon="12.138865436639394"><ele>305.2</ele><time>2026-03-29T09:54:29.847Z</time></trkpt><trkpt lat="43.24975096949439" lon="12.138814657465346"><ele>310.4</ele><time>2026-03-29T09:54:30.847Z</time></trkpt><trkpt lat="43.249697619194855" lon="12.138731340446673"><ele>315.6</ele><time>2026-03-29T09:54:31.847Z</time></trkpt><trkpt lat="43.24967834086786" lon="12.13862409013717"><ele>320.8</ele><time>2026-03-29T09:54:32.847Z</time></trkpt><trkpt lat="43.24969809027751" lon="12.138485802627033"><ele>326.0</ele><time>2026-03-29T09:54:33.847Z</time></trkpt><trkpt lat="43.24974205213364" lon="12.13832703286608"><ele>320.75</ele><time>2026-03-29T09:54:34.847Z</time></trkpt><trkpt lat="43.249803094030874" lon="12.138156762783009"><ele>315.5</ele><time>2026-03-29T09:54:35.847Z</time></trkpt><trkpt lat="43.249865872747264" lon="12.137960132886963"><ele>310.25</ele><time>2026-03-29T09:54:36.847Z</time></trkpt><trkpt lat="43.24991687188837" lon="12.137768602835669"><ele>305.0</ele><time>2026-03-29T09:54:37.847Z</time></trkpt><trkpt lat="43.249971470980434" lon="12.137585017322866"><ele>305.0</ele><time>2026-03-29T09:54:38.847Z</time></trkpt><trkpt lat="43.25003218044655" lon="12.137400103101532"><ele>305.0</ele><time>2026-03-29T09:54:39.847Z</time></trkpt><trkpt lat="43.25011448917854" lon="12.137202718321069"><ele>305.0</ele><time>2026-03-29T09:54:40.846Z</time></trkpt><trkpt lat="43.25020875188619" lon="12.137013393511406"><ele>306.6666666666667</ele><time>2026-03-29T09:54:41.846Z</time></trkpt><trkpt lat="43.250304171987096" lon="12.13684573979586"><ele>308.3333333333333</ele><time>2026-03-29T09:54:42.846Z</time></trkpt><trkpt lat="43.25040153442617" lon="12.136688405703323"><ele>310.0</ele><time>2026-03-29T09:54:43.846Z</time></trkpt><trkpt lat="43.25049191787118" lon="12.136529843700174"><ele>308.66666666666663</ele><time>2026-03-29T09:54:44.846Z</time></trkpt><trkpt lat="43.250575228157565" lon="12.13635650799542"><ele>307.3333333333333</ele><time>2026-03-29T09:54:45.846Z</time></trkpt><trkpt lat="43.25064768083493" lon="12.136168505384482"><ele>306.0</ele><time>2026-03-29T09:54:46.846Z</time></trkpt><trkpt lat="43.25071338198957" lon="12.135963716015404"><ele>306.0</ele><time>2026-03-29T09:54:47.846Z</time></trkpt><trkpt lat="43.25078441841203" lon="12.135762596348417"><ele>306.0</ele><time>2026-03-29T09:54:48.846Z</time></trkpt><trkpt lat="43.250849123419506" lon="12.135573609195676"><ele>306.0</ele><time>2026-03-29T09:54:49.846Z</time></trkpt><trkpt lat="43.25091326954271" lon="12.13540249472314"><ele>308.75</ele><time>2026-03-29T09:54:50.846Z</time></trkpt><trkpt lat="43.25097129474297" lon="12.135238623193063"><ele>311.5</ele><time>2026-03-29T09:54:51.846Z</time></trkpt><trkpt lat="43.25102199373001" lon="12.135080679627473"><ele>314.25</ele><time>2026-03-29T09:54:52.846Z</time></trkpt><trkpt lat="43.25106895639606" lon="12.134915570898759"><ele>317.0</ele><time>2026-03-29T09:54:53.846Z</time></trkpt><trkpt lat="43.25111986988702" lon="12.13475851544769"><ele>315.5</ele><time>2026-03-29T09:54:54.846Z</time></trkpt><trkpt lat="43.25119003579367" lon="12.134618302274749"><ele>314.0</ele><time>2026-03-29T09:54:55.846Z</time></trkpt><trkpt lat="43.25127975578013" lon="12.13450667237351"><ele>312.5</ele><time>2026-03-29T09:54:56.846Z</time></trkpt><trkpt lat="43.25138769396772" lon="12.134405352244762"><ele>311.0</ele><time>2026-03-29T09:54:57.846Z</time></trkpt><trkpt lat="43.25148882320403" lon="12.13430585106276"><ele>311.0</ele><time>2026-03-29T09:54:58.846Z</time></trkpt><trkpt lat="43.25156865673644" lon="12.134188712150848"><ele>311.0</ele><time>2026-03-29T09:54:59.846Z</time></trkpt><trkpt lat="43.251637721673916" lon="12.134050468780607"><ele>311.0</ele><time>2026-03-29T09:55:00.846Z</time></trkpt><trkpt lat="43.251699230675385" lon="12.133892130617202"><ele>311.0</ele><time>2026-03-29T09:55:01.846Z</time></trkpt><trkpt lat="43.25177134724275" lon="12.133736263446595"><ele>315.0</ele><time>2026-03-29T09:55:02.846Z</time></trkpt><trkpt lat="43.25185226642261" lon="12.133589439547295"><ele>319.0</ele><time>2026-03-29T09:55:03.846Z</time></trkpt><trkpt lat="43.25193700565205" lon="12.133456480320412"><ele>323.0</ele><time>2026-03-29T09:55:04.846Z</time></trkpt><trkpt lat="43.25202833381295" lon="12.133339329198714"><ele>327.0</ele><time>2026-03-29T09:55:05.846Z</time></trkpt><trkpt lat="43.252121017582404" lon="12.133223541362103"><ele>328.20000000000005</ele><time>2026-03-29T09:55:06.846Z</time></trkpt><trkpt lat="43.252208517284565" lon="12.133107980423821"><ele>329.4</ele><time>2026-03-29T09:55:07.846Z</time></trkpt><trkpt lat="43.25227524192402" lon="12.133001476995236"><ele>330.6</ele><time>2026-03-29T09:55:08.846Z</time></trkpt><trkpt lat="43.25231716963717" lon="12.132879886241156"><ele>331.79999999999995</ele><time>2026-03-29T09:55:09.846Z</time></trkpt><trkpt lat="43.252349113309926" lon="12.13275615174751"><ele>333.0</ele><time>2026-03-29T09:55:10.846Z</time></trkpt><trkpt lat="43.252344225792534" lon="12.132622236902442"><ele>331.4</ele><time>2026-03-29T09:55:11.846Z</time></trkpt><trkpt lat="43.252318904767336" lon="12.132488471422214"><ele>329.79999999999995</ele><time>2026-03-29T09:55:12.846Z</time></trkpt><trkpt lat="43.252288732233446" lon="12.132346710160789"><ele>328.2</ele><time>2026-03-29T09:55:13.846Z</time></trkpt><trkpt lat="43.252258136480975" lon="12.132195033850348"><ele>326.6</ele><time>2026-03-29T09:55:14.846Z</time></trkpt><trkpt lat="43.25223007122705" lon="12.132066890156537"><ele>325.0</ele><time>2026-03-29T09:55:15.846Z</time></trkpt><trkpt lat="43.25219693455472" lon="12.131959457456936"><ele>325.0</ele><time>2026-03-29T09:55:16.846Z</time></trkpt><trkpt lat="43.25216693658707" lon="12.131853801936025"><ele>325.0</ele><time>2026-03-29T09:55:17.846Z</time></trkpt><trkpt lat="43.25210466975175" lon="12.131768193529647"><ele>325.0</ele><time>2026-03-29T09:55:18.846Z</time></trkpt><trkpt lat="43.252011963959966" lon="12.131767489888112"><ele>325.0</ele><time>2026-03-29T09:55:19.845Z</time></trkpt><trkpt lat="43.251913000918755" lon="12.13173562060246"><ele>325.0</ele><time>2026-03-29T09:55:21.845Z</time></trkpt><trkpt lat="43.25183484776556" lon="12.131721415114985"><ele>325.0</ele><time>2026-03-29T09:55:25.845Z</time></trkpt><trkpt lat="43.25176645838753" lon="12.131708984340218"><ele>325.0</ele><time>2026-03-29T09:55:26.845Z</time></trkpt><trkpt lat="43.251691430784845" lon="12.131694092880434"><ele>325.0</ele><time>2026-03-29T09:55:28.845Z</time></trkpt><trkpt lat="43.25159182706949" lon="12.132285283934129"><ele>326.3333333333333</ele><time>2026-03-29T09:55:32.853Z</time></trkpt><trkpt lat="43.25158962177735" lon="12.132423259328228"><ele>327.66666666666663</ele><time>2026-03-29T09:55:33.855Z</time></trkpt><trkpt lat="43.251583527087995" lon="12.132533081178144"><ele>329.0</ele><time>2026-03-29T09:55:34.858Z</time></trkpt><trkpt lat="43.25157744034621" lon="12.132629491453919"><ele>330.3333333333333</ele><time>2026-03-29T09:55:35.86Z</time></trkpt><trkpt lat="43.25156639057415" lon="12.132721082799936"><ele>331.6666666666667</ele><time>2026-03-29T09:55:36.862Z</time></trkpt><trkpt lat="43.25152759334865" lon="12.132842221166406"><ele>333.0</ele><time>2026-03-29T09:55:38.864Z</time></trkpt><trkpt lat="43.25143588398512" lon="12.132869257303906"><ele>336.6666666666667</ele><time>2026-03-29T09:55:40.867Z</time></trkpt><trkpt lat="43.25133937073412" lon="12.132922282557766"><ele>340.3333333333333</ele><time>2026-03-29T09:55:42.869Z</time></trkpt><trkpt lat="43.25124864443914" lon="12.132908893554276"><ele>344.0</ele><time>2026-03-29T09:55:46.873Z</time></trkpt><trkpt lat="43.25118381752544" lon="12.132893018486271"><ele>347.66666666666663</ele><time>2026-03-29T09:55:48.875Z</time></trkpt><trkpt lat="43.251111367637435" lon="12.13283135932444"><ele>351.3333333333333</ele><time>2026-03-29T09:55:50.876Z</time></trkpt><trkpt lat="43.2510415653526" lon="12.132873662869944"><ele>355.0</ele><time>2026-03-29T09:55:55.879Z</time></trkpt><trkpt lat="43.25099712196237" lon="12.132948159430045"><ele>355.0</ele><time>2026-03-29T09:55:57.88Z</time></trkpt><trkpt lat="43.25092127833487" lon="12.13289841351349"><ele>355.0</ele><time>2026-03-29T09:56:00.881Z</time></trkpt><trkpt lat="43.250805647821245" lon="12.132889667875641"><ele>355.0</ele><time>2026-03-29T09:56:03.882Z</time></trkpt><trkpt lat="43.2507419419876" lon="12.132891222882382"><ele>355.0</ele><time>2026-03-29T09:56:05.883Z</time></trkpt><trkpt lat="43.250664842257656" lon="12.132869684988272"><ele>355.0</ele><time>2026-03-29T09:56:07.883Z</time></trkpt><trkpt lat="43.25058914005854" lon="12.132872289907807"><ele>355.0</ele><time>2026-03-29T09:56:08.883Z</time></trkpt><trkpt lat="43.25049441804275" lon="12.132891936187146"><ele>357.0</ele><time>2026-03-29T09:56:09.884Z</time></trkpt><trkpt lat="43.25035215198315" lon="12.132918667420169"><ele>359.0</ele><time>2026-03-29T09:56:10.884Z</time></trkpt><trkpt lat="43.25023500051814" lon="12.132940463391527"><ele>361.0</ele><time>2026-03-29T09:56:11.884Z</time></trkpt><trkpt lat="43.250166069998635" lon="12.13291902056826"><ele>363.0</ele><time>2026-03-29T09:56:12.884Z</time></trkpt><trkpt lat="43.25006051592755" lon="12.132895724377278"><ele>365.0</ele><time>2026-03-29T09:56:14.884Z</time></trkpt><trkpt lat="43.249985846298905" lon="12.132933738193989"><ele>365.0</ele><time>2026-03-29T09:56:15.884Z</time></trkpt><trkpt lat="43.24991138476922" lon="12.132960773093435"><ele>365.0</ele><time>2026-03-29T09:56:16.885Z</time></trkpt><trkpt lat="43.24983316513974" lon="12.132952951401686"><ele>365.0</ele><time>2026-03-29T09:56:17.885Z</time></trkpt><trkpt lat="43.249743865824364" lon="12.132927489732896"><ele>365.0</ele><time>2026-03-29T09:56:18.885Z</time></trkpt><trkpt lat="43.24963254925209" lon="12.132936451707607"><ele>365.0</ele><time>2026-03-29T09:56:20.885Z</time></trkpt><trkpt lat="43.24957168431241" lon="12.132968024697504"><ele>365.0</ele><time>2026-03-29T09:56:21.885Z</time></trkpt><trkpt lat="43.249510330124735" lon="12.133007004055521"><ele>367.0</ele><time>2026-03-29T09:56:22.885Z</time></trkpt><trkpt lat="43.24938620310265" lon="12.133110767062256"><ele>369.0</ele><time>2026-03-29T09:56:24.885Z</time></trkpt><trkpt lat="43.24928798431273" lon="12.13316151632451"><ele>371.0</ele><time>2026-03-29T09:56:25.885Z</time></trkpt><trkpt lat="43.24920450953294" lon="12.133188221994004"><ele>373.0</ele><time>2026-03-29T09:56:26.885Z</time></trkpt><trkpt lat="43.24906876719574" lon="12.133218737723892"><ele>373.0</ele><time>2026-03-29T09:56:28.885Z</time></trkpt><trkpt lat="43.24899150486619" lon="12.13321459505415"><ele>373.0</ele><time>2026-03-29T09:56:29.885Z</time></trkpt><trkpt lat="43.24892577376211" lon="12.133224198038716"><ele>373.0</ele><time>2026-03-29T09:56:30.886Z</time></trkpt><trkpt lat="43.24886163363455" lon="12.133245824766743"><ele>373.0</ele><time>2026-03-29T09:56:31.886Z</time></trkpt><trkpt lat="43.24875314178302" lon="12.133310461778374"><ele>373.0</ele><time>2026-03-29T09:56:33.886Z</time></trkpt><trkpt lat="43.24862311740001" lon="12.133328059530953"><ele>377.2</ele><time>2026-03-29T09:56:35.886Z</time></trkpt><trkpt lat="43.248537099747935" lon="12.133350687917856"><ele>381.4</ele><time>2026-03-29T09:56:36.886Z</time></trkpt><trkpt lat="43.24845065454291" lon="12.133364059002202"><ele>385.59999999999997</ele><time>2026-03-29T09:56:38.886Z</time></trkpt><trkpt lat="43.24833816942875" lon="12.133326837606393"><ele>389.79999999999995</ele><time>2026-03-29T09:56:40.886Z</time></trkpt><trkpt lat="43.2482598865728" lon="12.133325313489582"><ele>394.0</ele><time>2026-03-29T09:56:41.886Z</time></trkpt><trkpt lat="43.24817879761745" lon="12.133325452698763"><ele>394.4</ele><time>2026-03-29T09:56:42.886Z</time></trkpt><trkpt lat="43.24805327918076" lon="12.133276300324225"><ele>394.79999999999995</ele><time>2026-03-29T09:56:44.886Z</time></trkpt><trkpt lat="43.247982378272674" lon="12.133250477149888"><ele>395.20000000000005</ele><time>2026-03-29T09:56:45.886Z</time></trkpt><trkpt lat="43.2478923397014" lon="12.133212210273186"><ele>395.6</ele><time>2026-03-29T09:56:46.886Z</time></trkpt><trkpt lat="43.247805873262756" lon="12.133155958725961"><ele>396.0</ele><time>2026-03-29T09:56:47.886Z</time></trkpt><trkpt lat="43.24772540254129" lon="12.133107234938016"><ele>396.0</ele><time>2026-03-29T09:56:48.886Z</time></trkpt><trkpt lat="43.24765548892952" lon="12.133060951719091"><ele>396.0</ele><time>2026-03-29T09:56:49.886Z</time></trkpt><trkpt lat="43.24758510879294" lon="12.133004673834913"><ele>396.0</ele><time>2026-03-29T09:56:50.886Z</time></trkpt><trkpt lat="43.24751477637222" lon="12.132952638336493"><ele>396.0</ele><time>2026-03-29T09:56:51.886Z</time></trkpt><trkpt lat="43.24744750452358" lon="12.132899230191313"><ele>396.0</ele><time>2026-03-29T09:56:52.886Z</time></trkpt><trkpt lat="43.24738252910132" lon="12.132823855703586"><ele>396.0</ele><time>2026-03-29T09:56:53.886Z</time></trkpt><trkpt lat="43.24729960827121" lon="12.132737809140156"><ele>398.3333333333333</ele><time>2026-03-29T09:56:55.886Z</time></trkpt><trkpt lat="43.24721568206727" lon="12.13268596984311"><ele>400.66666666666663</ele><time>2026-03-29T09:56:57.886Z</time></trkpt><trkpt lat="43.24714739327735" lon="12.132680994277429"><ele>403.0</ele><time>2026-03-29T09:56:58.886Z</time></trkpt><trkpt lat="43.247085146168146" lon="12.132768593415006"><ele>405.3333333333333</ele><time>2026-03-29T09:57:01.886Z</time></trkpt><trkpt lat="43.24701909373591" lon="12.132809252195848"><ele>407.66666666666663</ele><time>2026-03-29T09:57:03.886Z</time></trkpt><trkpt lat="43.24695321872468" lon="12.132838474999327"><ele>410.0</ele><time>2026-03-29T09:57:04.886Z</time></trkpt><trkpt lat="43.24688780473818" lon="12.132854480321432"><ele>409.99999999999994</ele><time>2026-03-29T09:57:05.886Z</time></trkpt><trkpt lat="43.24682637693438" lon="12.13289936301024"><ele>410.0</ele><time>2026-03-29T09:57:08.886Z</time></trkpt><trkpt lat="43.24679123149672" lon="12.133009626112782"><ele>410.0</ele><time>2026-03-29T09:57:11.886Z</time></trkpt><trkpt lat="43.246755567369505" lon="12.13310468352838"><ele>410.0</ele><time>2026-03-29T09:57:17.885Z</time></trkpt><trkpt lat="43.246750713686666" lon="12.133212355152587"><ele>409.99999999999994</ele><time>2026-03-29T09:57:20.885Z</time></trkpt><trkpt lat="43.24673431729807" lon="12.13334551011088"><ele>410.0</ele><time>2026-03-29T09:57:22.885Z</time></trkpt><trkpt lat="43.2467194199939" lon="12.133456032859444"><ele>412.8333333333333</ele><time>2026-03-29T09:57:23.885Z</time></trkpt><trkpt lat="43.24672242060766" lon="12.133567673198474"><ele>415.66666666666663</ele><time>2026-03-29T09:57:24.885Z</time></trkpt><trkpt lat="43.24673836661938" lon="12.133654281621341"><ele>418.5</ele><time>2026-03-29T09:57:25.885Z</time></trkpt><trkpt lat="43.246722456534236" lon="12.133745867378988"><ele>421.33333333333337</ele><time>2026-03-29T09:57:27.885Z</time></trkpt><trkpt lat="43.246659666886835" lon="12.133853306656688"><ele>424.1666666666667</ele><time>2026-03-29T09:57:29.885Z</time></trkpt><trkpt lat="43.24661194572581" lon="12.13395939057344"><ele>427.0</ele><time>2026-03-29T09:57:30.885Z</time></trkpt><trkpt lat="43.2465843873702" lon="12.134042101953462"><ele>429.40000000000003</ele><time>2026-03-29T09:57:31.885Z</time></trkpt><trkpt lat="43.2465144778036" lon="12.134126710432367"><ele>431.80000000000007</ele><time>2026-03-29T09:57:33.885Z</time></trkpt><trkpt lat="43.24655849137516" lon="12.134236501767647"><ele>434.2</ele><time>2026-03-29T09:57:35.885Z</time></trkpt><trkpt lat="43.24650237207514" lon="12.134348911395843"><ele>436.6</ele><time>2026-03-29T09:57:37.888Z</time></trkpt><trkpt lat="43.24644532520782" lon="12.134461194434088"><ele>439.0</ele><time>2026-03-29T09:57:39.887Z</time></trkpt><trkpt lat="43.24634036392731" lon="12.13446343646673"><ele>443.4</ele><time>2026-03-29T09:57:42.887Z</time></trkpt><trkpt lat="43.24624650287797" lon="12.134427514826127"><ele>447.79999999999995</ele><time>2026-03-29T09:57:43.888Z</time></trkpt><trkpt lat="43.246138490600266" lon="12.134436382077189"><ele>452.20000000000005</ele><time>2026-03-29T09:57:44.887Z</time></trkpt><trkpt lat="43.24605138245094" lon="12.134460553272103"><ele>456.6</ele><time>2026-03-29T09:57:45.887Z</time></trkpt><trkpt lat="43.24597103811348" lon="12.134488342591139"><ele>461.0</ele><time>2026-03-29T09:57:46.888Z</time></trkpt><trkpt lat="43.24588488892114" lon="12.134499439805488"><ele>461.0</ele><time>2026-03-29T09:57:47.888Z</time></trkpt><trkpt lat="43.2458069479969" lon="12.134503630878154"><ele>461.0</ele><time>2026-03-29T09:57:48.888Z</time></trkpt><trkpt lat="43.24571858516457" lon="12.13451238419267"><ele>461.0</ele><time>2026-03-29T09:57:49.887Z</time></trkpt><trkpt lat="43.245654767168496" lon="12.134497127503696"><ele>461.0</ele><time>2026-03-29T09:57:50.888Z</time></trkpt><trkpt lat="43.2455522706876" lon="12.134464462246308"><ele>461.0</ele><time>2026-03-29T09:57:53.888Z</time></trkpt><trkpt lat="43.24541220331944" lon="12.134540656590747"><ele>464.14285714285717</ele><time>2026-03-29T09:57:55.888Z</time></trkpt><trkpt lat="43.24534525826754" lon="12.134551123998312"><ele>467.28571428571433</ele><time>2026-03-29T09:57:56.888Z</time></trkpt><trkpt lat="43.245244810257375" lon="12.134555844864332"><ele>470.42857142857144</ele><time>2026-03-29T09:57:57.888Z</time></trkpt><trkpt lat="43.24516910136525" lon="12.134560077748436"><ele>473.57142857142856</ele><time>2026-03-29T09:57:58.888Z</time></trkpt><trkpt lat="43.24510413271775" lon="12.134571615955954"><ele>476.7142857142857</ele><time>2026-03-29T09:57:59.888Z</time></trkpt><trkpt lat="43.24503920021729" lon="12.134584620407129"><ele>479.8571428571429</ele><time>2026-03-29T09:58:00.888Z</time></trkpt><trkpt lat="43.244968286113576" lon="12.134590239675687"><ele>483.0</ele><time>2026-03-29T09:58:06.888Z</time></trkpt><trkpt lat="43.24488333399798" lon="12.134619895590598"><ele>483.0</ele><time>2026-03-29T09:58:08.888Z</time></trkpt><trkpt lat="43.244813079510706" lon="12.134628652196383"><ele>483.0</ele><time>2026-03-29T09:58:09.888Z</time></trkpt><trkpt lat="43.24474922642518" lon="12.134618569466129"><ele>483.0</ele><time>2026-03-29T09:58:17.888Z</time></trkpt><trkpt lat="43.24467529613754" lon="12.134606470303996"><ele>483.0</ele><time>2026-03-29T09:58:37.887Z</time></trkpt><trkpt lat="43.24459733821538" lon="12.134637813356479"><ele>483.0</ele><time>2026-03-29T09:58:39.887Z</time></trkpt><trkpt lat="43.24453240733946" lon="12.134641215722123"><ele>483.0</ele><time>2026-03-29T09:58:40.887Z</time></trkpt><trkpt lat="43.24444238091398" lon="12.134622524670206"><ele>483.0</ele><time>2026-03-29T09:58:42.887Z</time></trkpt><trkpt lat="43.24435057578349" lon="12.134611071195586"><ele>488.75</ele><time>2026-03-29T09:58:43.887Z</time></trkpt><trkpt lat="43.24421673398892" lon="12.134617142464686"><ele>494.5</ele><time>2026-03-29T09:58:44.887Z</time></trkpt><trkpt lat="43.2440572634641" lon="12.134624195273952"><ele>500.25</ele><time>2026-03-29T09:58:45.887Z</time></trkpt><trkpt lat="43.24391775626821" lon="12.134636206968914"><ele>506.0</ele><time>2026-03-29T09:58:46.887Z</time></trkpt><trkpt lat="43.2437857486274" lon="12.134645060252174"><ele>510.99999999999994</ele><time>2026-03-29T09:58:47.887Z</time></trkpt><trkpt lat="43.243660577512976" lon="12.134639100980472"><ele>516.0</ele><time>2026-03-29T09:58:48.887Z</time></trkpt><trkpt lat="43.243572035904265" lon="12.134628103446245"><ele>521.0</ele><time>2026-03-29T09:58:49.887Z</time></trkpt><trkpt lat="43.243474721176575" lon="12.134625490665234"><ele>526.0</ele><time>2026-03-29T09:58:50.887Z</time></trkpt><trkpt lat="43.24340838824476" lon="12.13461587308773"><ele>531.0</ele><time>2026-03-29T09:58:51.887Z</time></trkpt><trkpt lat="43.243346051615056" lon="12.134598732521754"><ele>536.0</ele><time>2026-03-29T09:58:52.887Z</time></trkpt><trkpt lat="43.24326001630075" lon="12.134549046314241"><ele>536.0</ele><time>2026-03-29T09:58:54.887Z</time></trkpt><trkpt lat="43.24330807499838" lon="12.134620161448193"><ele>536.0</ele><time>2026-03-29T09:59:33.886Z</time></trkpt><trkpt lat="43.243400666518426" lon="12.13464310447344"><ele>536.0</ele><time>2026-03-29T09:59:35.886Z</time></trkpt><trkpt lat="43.24347420323633" lon="12.134652251274439"><ele>536.0</ele><time>2026-03-29T09:59:36.886Z</time></trkpt><trkpt lat="43.24358295163291" lon="12.13464300191997"><ele>536.0</ele><time>2026-03-29T09:59:38.886Z</time></trkpt><trkpt lat="43.24366245973714" lon="12.13465950288497"><ele>536.0</ele><time>2026-03-29T09:59:42.886Z</time></trkpt><trkpt lat="43.24374697202463" lon="12.134652437272287"><ele>536.0</ele><time>2026-03-29T09:59:45.888Z</time></trkpt><trkpt lat="43.243815603650404" lon="12.13465471820005"><ele>536.0</ele><time>2026-03-29T09:59:47.888Z</time></trkpt><trkpt lat="43.24388726025709" lon="12.134649608963453"><ele>536.0</ele><time>2026-03-29T09:59:52.888Z</time></trkpt><trkpt lat="43.243812007873636" lon="12.134668090176554"><ele>536.0</ele><time>2026-03-29T10:00:05.888Z</time></trkpt><trkpt lat="43.24373554741168" lon="12.134667822416066"><ele>536.0</ele><time>2026-03-29T10:00:30.887Z</time></trkpt><trkpt lat="43.24360652930987" lon="12.134656191239584"><ele>536.0</ele><time>2026-03-29T10:00:32.887Z</time></trkpt><trkpt lat="43.243508422443306" lon="12.13465586943488"><ele>536.0</ele><time>2026-03-29T10:00:33.887Z</time></trkpt><trkpt lat="43.243426005818634" lon="12.134652256236219"><ele>536.0</ele><time>2026-03-29T10:00:34.887Z</time></trkpt><trkpt lat="43.24335561077109" lon="12.134635176572973"><ele>536.0</ele><time>2026-03-29T10:00:35.887Z</time></trkpt><trkpt lat="43.24326920617928" lon="12.134586573356417"><ele>536.0</ele><time>2026-03-29T10:00:37.887Z</time></trkpt><trkpt lat="43.243200592065726" lon="12.13454527244957"><ele>536.0</ele><time>2026-03-29T10:00:40.887Z</time></trkpt><trkpt lat="43.24313672633055" lon="12.134519583021364"><ele>536.0</ele><time>2026-03-29T10:00:42.887Z</time></trkpt><trkpt lat="43.243077478144365" lon="12.134487231711933"><ele>539.8333333333333</ele><time>2026-03-29T10:00:47.887Z</time></trkpt><trkpt lat="43.24300379166823" lon="12.13444651978096"><ele>543.6666666666666</ele><time>2026-03-29T10:00:50.887Z</time></trkpt><trkpt lat="43.24293567748227" lon="12.134387469618124"><ele>547.5</ele><time>2026-03-29T10:00:53.887Z</time></trkpt><trkpt lat="43.24281380206718" lon="12.134328684030582"><ele>551.3333333333334</ele><time>2026-03-29T10:00:55.887Z</time></trkpt><trkpt lat="43.24274135392005" lon="12.134307142637157"><ele>555.1666666666667</ele><time>2026-03-29T10:00:56.887Z</time></trkpt><trkpt lat="43.24266105110582" lon="12.13426697814396"><ele>559.0</ele><time>2026-03-29T10:00:57.887Z</time></trkpt><trkpt lat="43.24256949285756" lon="12.134215460261137"><ele>559.0</ele><time>2026-03-29T10:00:58.887Z</time></trkpt><trkpt lat="43.24246392624544" lon="12.134133708498654"><ele>559.0</ele><time>2026-03-29T10:01:00.887Z</time></trkpt><trkpt lat="43.24237158339514" lon="12.134099710613127"><ele>559.0</ele><time>2026-03-29T10:01:01.887Z</time></trkpt><trkpt lat="43.24226949220871" lon="12.134082557352098"><ele>559.0</ele><time>2026-03-29T10:01:02.887Z</time></trkpt><trkpt lat="43.24219025315204" lon="12.134051186506943"><ele>559.0</ele><time>2026-03-29T10:01:03.887Z</time></trkpt><trkpt lat="43.2421062458129" lon="12.134002107017338"><ele>562.2</ele><time>2026-03-29T10:01:04.887Z</time></trkpt><trkpt lat="43.24199615308144" lon="12.133942206605091"><ele>565.4</ele><time>2026-03-29T10:01:05.887Z</time></trkpt><trkpt lat="43.24191153043977" lon="12.133894171887595"><ele>568.6</ele><time>2026-03-29T10:01:06.887Z</time></trkpt><trkpt lat="43.24185408522598" lon="12.133850614085878"><ele>571.8</ele><time>2026-03-29T10:01:07.887Z</time></trkpt><trkpt lat="43.24176814334315" lon="12.133831422504446"><ele>575.0</ele><time>2026-03-29T10:01:08.887Z</time></trkpt><trkpt lat="43.24167266349174" lon="12.133806396978152"><ele>575.0</ele><time>2026-03-29T10:01:09.887Z</time></trkpt><trkpt lat="43.24156735471595" lon="12.133754585436245"><ele>575.0</ele><time>2026-03-29T10:01:10.887Z</time></trkpt><trkpt lat="43.24146267160635" lon="12.13370887864515"><ele>575.0</ele><time>2026-03-29T10:01:11.886Z</time></trkpt><trkpt lat="43.24136694587844" lon="12.133674022993551"><ele>575.0</ele><time>2026-03-29T10:01:12.886Z</time></trkpt><trkpt lat="43.2412836209493" lon="12.133656935954539"><ele>575.0</ele><time>2026-03-29T10:01:13.886Z</time></trkpt><trkpt lat="43.24121040581839" lon="12.133663859835783"><ele>578.8571428571429</ele><time>2026-03-29T10:01:14.886Z</time></trkpt><trkpt lat="43.24112976888371" lon="12.133682965431372"><ele>582.7142857142857</ele><time>2026-03-29T10:01:15.886Z</time></trkpt><trkpt lat="43.24106238250622" lon="12.133692111253065"><ele>586.5714285714286</ele><time>2026-03-29T10:01:16.886Z</time></trkpt><trkpt lat="43.24098678337031" lon="12.133701093733448"><ele>590.4285714285714</ele><time>2026-03-29T10:01:17.886Z</time></trkpt><trkpt lat="43.24091855791805" lon="12.133698996133928"><ele>594.2857142857142</ele><time>2026-03-29T10:01:18.886Z</time></trkpt><trkpt lat="43.24084232364553" lon="12.133667664101887"><ele>598.1428571428571</ele><time>2026-03-29T10:01:19.886Z</time></trkpt><trkpt lat="43.24077275949081" lon="12.133628281863773"><ele>602.0</ele><time>2026-03-29T10:01:20.886Z</time></trkpt><trkpt lat="43.24070429898452" lon="12.133581616550059"><ele>607.2</ele><time>2026-03-29T10:01:21.886Z</time></trkpt><trkpt lat="43.24060634846278" lon="12.133541207521954"><ele>612.4000000000001</ele><time>2026-03-29T10:01:22.886Z</time></trkpt><trkpt lat="43.24051673261911" lon="12.133525310368029"><ele>617.5999999999999</ele><time>2026-03-29T10:01:23.886Z</time></trkpt><trkpt lat="43.24044299299989" lon="12.13349910050228"><ele>622.8</ele><time>2026-03-29T10:01:24.886Z</time></trkpt><trkpt lat="43.24034318964608" lon="12.133468837446655"><ele>628.0</ele><time>2026-03-29T10:01:25.886Z</time></trkpt><trkpt lat="43.240232504122645" lon="12.133444963975881"><ele>628.0</ele><time>2026-03-29T10:01:26.886Z</time></trkpt><trkpt lat="43.24011716435209" lon="12.13343270422899"><ele>628.0</ele><time>2026-03-29T10:01:27.886Z</time></trkpt><trkpt lat="43.240034854978525" lon="12.133409338011859"><ele>628.0</ele><time>2026-03-29T10:01:29.886Z</time></trkpt><trkpt lat="43.23995885655477" lon="12.133333985061004"><ele>628.0</ele><time>2026-03-29T10:01:31.886Z</time></trkpt><trkpt lat="43.239853036999904" lon="12.133258208899353"><ele>628.0</ele><time>2026-03-29T10:01:33.886Z</time></trkpt><trkpt lat="43.239748009071604" lon="12.133211589373841"><ele>632.5999999999999</ele><time>2026-03-29T10:01:35.886Z</time></trkpt><trkpt lat="43.239655571366654" lon="12.13314925452247"><ele>637.1999999999999</ele><time>2026-03-29T10:01:37.886Z</time></trkpt><trkpt lat="43.239593884927274" lon="12.133095875880691"><ele>641.8</ele><time>2026-03-29T10:01:40.886Z</time></trkpt><trkpt lat="43.23949175347586" lon="12.133080958318578"><ele>646.4</ele><time>2026-03-29T10:01:42.886Z</time></trkpt><trkpt lat="43.23942642958351" lon="12.13313960292538"><ele>651.0</ele><time>2026-03-29T10:01:43.886Z</time></trkpt><trkpt lat="43.23932080044457" lon="12.13316206288472"><ele>651.0</ele><time>2026-03-29T10:01:45.886Z</time></trkpt><trkpt lat="43.23923205631512" lon="12.13314015424734"><ele>651.0</ele><time>2026-03-29T10:01:46.886Z</time></trkpt><trkpt lat="43.23914062948143" lon="12.13313668261525"><ele>651.0</ele><time>2026-03-29T10:01:47.886Z</time></trkpt><trkpt lat="43.23906910646858" lon="12.133105398326474"><ele>651.0</ele><time>2026-03-29T10:01:48.886Z</time></trkpt><trkpt lat="43.23902240907091" lon="12.132949110880492"><ele>651.0</ele><time>2026-03-29T10:01:50.888Z</time></trkpt><trkpt lat="43.238972573566656" lon="12.132796549947724"><ele>652.0</ele><time>2026-03-29T10:01:51.888Z</time></trkpt><trkpt lat="43.23890878553143" lon="12.132670381382587"><ele>653.0</ele><time>2026-03-29T10:01:52.888Z</time></trkpt><trkpt lat="43.238845516677806" lon="12.132619962844883"><ele>654.0</ele><time>2026-03-29T10:01:53.888Z</time></trkpt><trkpt lat="43.238744053596676" lon="12.132557387924551"><ele>655.0</ele><time>2026-03-29T10:01:55.888Z</time></trkpt><trkpt lat="43.238649691197686" lon="12.132514093571434"><ele>656.0</ele><time>2026-03-29T10:01:57.888Z</time></trkpt><trkpt lat="43.23854204633641" lon="12.132428308656477"><ele>656.0</ele><time>2026-03-29T10:01:59.888Z</time></trkpt><trkpt lat="43.23847915419093" lon="12.132400510720847"><ele>656.0</ele><time>2026-03-29T10:02:00.888Z</time></trkpt><trkpt lat="43.23836672402848" lon="12.13236879308714"><ele>656.0</ele><time>2026-03-29T10:02:01.888Z</time></trkpt><trkpt lat="43.23822762869129" lon="12.132363163470616"><ele>656.0</ele><time>2026-03-29T10:02:02.888Z</time></trkpt><trkpt lat="43.238037255192424" lon="12.132372813475865"><ele>655.5</ele><time>2026-03-29T10:02:03.888Z</time></trkpt><trkpt lat="43.23786511771343" lon="12.132375735126187"><ele>655.0</ele><time>2026-03-29T10:02:04.888Z</time></trkpt><trkpt lat="43.23773093431828" lon="12.132380182377606"><ele>654.5</ele><time>2026-03-29T10:02:05.888Z</time></trkpt><trkpt lat="43.23762417426475" lon="12.132382841970408"><ele>654.0</ele><time>2026-03-29T10:02:06.888Z</time></trkpt><trkpt lat="43.237504284175564" lon="12.132422810541264"><ele>654.0</ele><time>2026-03-29T10:02:07.888Z</time></trkpt><trkpt lat="43.23733760208201" lon="12.1325070456639"><ele>654.0</ele><time>2026-03-29T10:02:08.888Z</time></trkpt><trkpt lat="43.2372036071815" lon="12.132578274750852"><ele>654.0</ele><time>2026-03-29T10:02:09.888Z</time></trkpt><trkpt lat="43.2371117338114" lon="12.132647538138274"><ele>654.0</ele><time>2026-03-29T10:02:10.888Z</time></trkpt><trkpt lat="43.23704742665081" lon="12.13268948095817"><ele>655.0</ele><time>2026-03-29T10:02:11.888Z</time></trkpt><trkpt lat="43.23696431686051" lon="12.13266507760131"><ele>656.0</ele><time>2026-03-29T10:02:13.888Z</time></trkpt><trkpt lat="43.2368507684302" lon="12.13252437748159"><ele>657.0</ele><time>2026-03-29T10:02:15.888Z</time></trkpt><trkpt lat="43.23674690756667" lon="12.132399104979338"><ele>658.0</ele><time>2026-03-29T10:02:16.888Z</time></trkpt><trkpt lat="43.236630323689155" lon="12.132265193863374"><ele>665.0</ele><time>2026-03-29T10:02:17.888Z</time></trkpt><trkpt lat="43.2364877030678" lon="12.132170547776497"><ele>672.0</ele><time>2026-03-29T10:02:18.888Z</time></trkpt><trkpt lat="43.23631007421906" lon="12.132066627401272"><ele>679.0</ele><time>2026-03-29T10:02:19.888Z</time></trkpt><trkpt lat="43.236148126288654" lon="12.131985278005835"><ele>679.25</ele><time>2026-03-29T10:02:20.888Z</time></trkpt><trkpt lat="43.23602123442913" lon="12.13190801715722"><ele>679.5</ele><time>2026-03-29T10:02:21.888Z</time></trkpt><trkpt lat="43.235931536542495" lon="12.131832321556134"><ele>679.75</ele><time>2026-03-29T10:02:22.888Z</time></trkpt><trkpt lat="43.2358155106958" lon="12.131802836252122"><ele>680.0</ele><time>2026-03-29T10:02:24.888Z</time></trkpt><trkpt lat="43.23573995282049" lon="12.131863915484756"><ele>680.0</ele><time>2026-03-29T10:02:25.888Z</time></trkpt><trkpt lat="43.23566881453802" lon="12.131944237965628"><ele>680.0</ele><time>2026-03-29T10:02:26.888Z</time></trkpt><trkpt lat="43.23559309114638" lon="12.132017318857493"><ele>680.0</ele><time>2026-03-29T10:02:27.888Z</time></trkpt><trkpt lat="43.23551324874539" lon="12.132056426133003"><ele>680.0</ele><time>2026-03-29T10:02:28.888Z</time></trkpt><trkpt lat="43.23543918995901" lon="12.132078102876692"><ele>680.0</ele><time>2026-03-29T10:02:29.888Z</time></trkpt><trkpt lat="43.23535704344558" lon="12.132055659140548"><ele>680.0</ele><time>2026-03-29T10:02:30.888Z</time></trkpt><trkpt lat="43.23523716848583" lon="12.132016460762195"><ele>687.3333333333333</ele><time>2026-03-29T10:02:31.888Z</time></trkpt><trkpt lat="43.23507443737701" lon="12.131993266343885"><ele>694.6666666666666</ele><time>2026-03-29T10:02:32.888Z</time></trkpt><trkpt lat="43.23492155479213" lon="12.132008313777622"><ele>702.0</ele><time>2026-03-29T10:02:33.888Z</time></trkpt><trkpt lat="43.23474560076369" lon="12.132042097775267"><ele>704.75</ele><time>2026-03-29T10:02:34.888Z</time></trkpt><trkpt lat="43.23458426630565" lon="12.132101909029142"><ele>707.5</ele><time>2026-03-29T10:02:35.887Z</time></trkpt><trkpt lat="43.23444323927342" lon="12.132145605205144"><ele>710.25</ele><time>2026-03-29T10:02:36.887Z</time></trkpt><trkpt lat="43.23435066245544" lon="12.132163037217865"><ele>713.0</ele><time>2026-03-29T10:02:37.887Z</time></trkpt><trkpt lat="43.23427553612352" lon="12.132140418313481"><ele>713.0</ele><time>2026-03-29T10:02:38.887Z</time></trkpt><trkpt lat="43.23419544542396" lon="12.132080742683168"><ele>713.0</ele><time>2026-03-29T10:02:39.887Z</time></trkpt><trkpt lat="43.23407627092793" lon="12.131993893090197"><ele>713.0</ele><time>2026-03-29T10:02:40.887Z</time></trkpt><trkpt lat="43.23394355992851" lon="12.131905959353753"><ele>713.0</ele><time>2026-03-29T10:02:41.887Z</time></trkpt><trkpt lat="43.23380357970716" lon="12.131812741879102"><ele>713.8</ele><time>2026-03-29T10:02:42.887Z</time></trkpt><trkpt lat="43.23366850730134" lon="12.131693853322481"><ele>714.5999999999999</ele><time>2026-03-29T10:02:43.887Z</time></trkpt><trkpt lat="43.23357475269325" lon="12.131617109812808"><ele>715.4000000000001</ele><time>2026-03-29T10:02:44.887Z</time></trkpt><trkpt lat="43.23351185659135" lon="12.131595386687463"><ele>716.2</ele><time>2026-03-29T10:02:45.887Z</time></trkpt><trkpt lat="43.233446619879054" lon="12.131658182762942"><ele>717.0</ele><time>2026-03-29T10:02:47.887Z</time></trkpt><trkpt lat="43.2333524256692" lon="12.131794824437511"><ele>717.0</ele><time>2026-03-29T10:02:49.887Z</time></trkpt><trkpt lat="43.23329489666904" lon="12.13192826471559"><ele>717.0</ele><time>2026-03-29T10:02:50.887Z</time></trkpt><trkpt lat="43.233245492255215" lon="12.132073766378506"><ele>717.0</ele><time>2026-03-29T10:02:51.887Z</time></trkpt><trkpt lat="43.23315474799003" lon="12.132164827865362"><ele>717.0</ele><time>2026-03-29T10:02:52.887Z</time></trkpt><trkpt lat="43.233053152884814" lon="12.132183798609802"><ele>717.0</ele><time>2026-03-29T10:02:53.887Z</time></trkpt><trkpt lat="43.23295510259938" lon="12.132199235508496"><ele>720.6666666666666</ele><time>2026-03-29T10:02:54.887Z</time></trkpt><trkpt lat="43.23280217699" lon="12.132193042821012"><ele>724.3333333333333</ele><time>2026-03-29T10:02:55.887Z</time></trkpt><trkpt lat="43.2326442322164" lon="12.132183853385971"><ele>728.0</ele><time>2026-03-29T10:02:56.887Z</time></trkpt><trkpt lat="43.23250150541183" lon="12.132186849042126"><ele>728.0</ele><time>2026-03-29T10:02:57.887Z</time></trkpt><trkpt lat="43.23236768980114" lon="12.132215532330667"><ele>728.0</ele><time>2026-03-29T10:02:58.887Z</time></trkpt><trkpt lat="43.2322410826335" lon="12.132275548085692"><ele>728.0</ele><time>2026-03-29T10:02:59.887Z</time></trkpt><trkpt lat="43.23210338056061" lon="12.132390017423315"><ele>728.0</ele><time>2026-03-29T10:03:00.887Z</time></trkpt><trkpt lat="43.23194833436984" lon="12.132491827086707"><ele>726.75</ele><time>2026-03-29T10:03:01.887Z</time></trkpt><trkpt lat="43.23182651654329" lon="12.132563276246332"><ele>725.5</ele><time>2026-03-29T10:03:02.887Z</time></trkpt><trkpt lat="43.23171446716517" lon="12.132579621954513"><ele>724.25</ele><time>2026-03-29T10:03:03.887Z</time></trkpt><trkpt lat="43.231609661800704" lon="12.132564066337"><ele>723.0</ele><time>2026-03-29T10:03:04.887Z</time></trkpt><trkpt lat="43.231516255797416" lon="12.132517674331948"><ele>723.1666666666666</ele><time>2026-03-29T10:03:05.887Z</time></trkpt><trkpt lat="43.23144183813475" lon="12.132467692829612"><ele>723.3333333333334</ele><time>2026-03-29T10:03:06.887Z</time></trkpt><trkpt lat="43.231382602299995" lon="12.132435664654698"><ele>723.5</ele><time>2026-03-29T10:03:07.887Z</time></trkpt><trkpt lat="43.231318131251335" lon="12.132445144492902"><ele>723.6666666666667</ele><time>2026-03-29T10:03:11.887Z</time></trkpt><trkpt lat="43.23122499666693" lon="12.13246364653761"><ele>723.8333333333334</ele><time>2026-03-29T10:03:15.887Z</time></trkpt><trkpt lat="43.23117352404078" lon="12.132554982835337"><ele>724.0</ele><time>2026-03-29T10:03:17.887Z</time></trkpt><trkpt lat="43.23110475373989" lon="12.132713660299101"><ele>724.0</ele><time>2026-03-29T10:03:19.887Z</time></trkpt><trkpt lat="43.23105579618374" lon="12.13283257051244"><ele>724.0</ele><time>2026-03-29T10:03:20.887Z</time></trkpt><trkpt lat="43.23101141665167" lon="12.132952046962481"><ele>724.0</ele><time>2026-03-29T10:03:21.887Z</time></trkpt><trkpt lat="43.230994479395264" lon="12.133090873773021"><ele>724.0</ele><time>2026-03-29T10:03:22.887Z</time></trkpt><trkpt lat="43.23099594791549" lon="12.133220136632849"><ele>724.0</ele><time>2026-03-29T10:03:23.887Z</time></trkpt><trkpt lat="43.231009498985955" lon="12.133365905525084"><ele>724.25</ele><time>2026-03-29T10:03:24.887Z</time></trkpt><trkpt lat="43.23104627172283" lon="12.133562889710792"><ele>724.5</ele><time>2026-03-29T10:03:25.887Z</time></trkpt><trkpt lat="43.231070382739546" lon="12.133779982740833"><ele>724.75</ele><time>2026-03-29T10:03:26.887Z</time></trkpt><trkpt lat="43.23108960451272" lon="12.13395254522559"><ele>725.0</ele><time>2026-03-29T10:03:27.887Z</time></trkpt><trkpt lat="43.23110373699992" lon="12.134103395919249"><ele>725.5</ele><time>2026-03-29T10:03:28.887Z</time></trkpt><trkpt lat="43.23112315760243" lon="12.134242569430514"><ele>726.0</ele><time>2026-03-29T10:03:29.887Z</time></trkpt><trkpt lat="43.23111918049311" lon="12.134401301678224"><ele>726.5</ele><time>2026-03-29T10:03:30.887Z</time></trkpt><trkpt lat="43.2311138015879" lon="12.134585026706537"><ele>727.0</ele><time>2026-03-29T10:03:31.887Z</time></trkpt><trkpt lat="43.2311068574947" lon="12.134770475409908"><ele>725.6</ele><time>2026-03-29T10:03:32.886Z</time></trkpt><trkpt lat="43.23109663906673" lon="12.13495280491856"><ele>724.2</ele><time>2026-03-29T10:03:33.886Z</time></trkpt><trkpt lat="43.23108310044103" lon="12.13511137822156"><ele>722.8</ele><time>2026-03-29T10:03:34.886Z</time></trkpt><trkpt lat="43.23107169237229" lon="12.135252779875549"><ele>721.4</ele><time>2026-03-29T10:03:35.886Z</time></trkpt><trkpt lat="43.2310353568025" lon="12.135358532883226"><ele>720.0</ele><time>2026-03-29T10:03:36.886Z</time></trkpt><trkpt lat="43.23097235242087" lon="12.135457987806705"><ele>720.0</ele><time>2026-03-29T10:03:37.886Z</time></trkpt><trkpt lat="43.230875893112525" lon="12.135533566443291"><ele>720.0</ele><time>2026-03-29T10:03:38.886Z</time></trkpt><trkpt lat="43.23077321485355" lon="12.135589752301714"><ele>720.0</ele><time>2026-03-29T10:03:39.886Z</time></trkpt><trkpt lat="43.23067126814515" lon="12.13562290042517"><ele>720.0</ele><time>2026-03-29T10:03:40.886Z</time></trkpt><trkpt lat="43.23058106910087" lon="12.135657038531294"><ele>720.0</ele><time>2026-03-29T10:03:41.886Z</time></trkpt><trkpt lat="43.230474670021444" lon="12.135725102415819"><ele>718.8</ele><time>2026-03-29T10:03:42.886Z</time></trkpt><trkpt lat="43.23035435830562" lon="12.135803650299605"><ele>717.6</ele><time>2026-03-29T10:03:43.886Z</time></trkpt><trkpt lat="43.23024997117534" lon="12.135862683938061"><ele>716.4000000000001</ele><time>2026-03-29T10:03:44.886Z</time></trkpt><trkpt lat="43.23016894505553" lon="12.135897568790828"><ele>715.2</ele><time>2026-03-29T10:03:45.886Z</time></trkpt><trkpt lat="43.23011199522606" lon="12.135935134174032"><ele>714.0</ele><time>2026-03-29T10:03:46.886Z</time></trkpt><trkpt lat="43.230047985405236" lon="12.135983809863815"><ele>714.0</ele><time>2026-03-29T10:03:47.886Z</time></trkpt><trkpt lat="43.22996229001692" lon="12.13607332153652"><ele>714.0</ele><time>2026-03-29T10:03:48.886Z</time></trkpt><trkpt lat="43.22989279867421" lon="12.136165372351817"><ele>714.0</ele><time>2026-03-29T10:03:49.886Z</time></trkpt><trkpt lat="43.22983572253849" lon="12.13630058311316"><ele>714.0</ele><time>2026-03-29T10:03:50.886Z</time></trkpt><trkpt lat="43.22979192352821" lon="12.136455768683875"><ele>714.0</ele><time>2026-03-29T10:03:51.886Z</time></trkpt><trkpt lat="43.22972589616253" lon="12.136607616238978"><ele>715.6666666666666</ele><time>2026-03-29T10:03:52.886Z</time></trkpt><trkpt lat="43.22968083254664" lon="12.136737907331128"><ele>717.3333333333334</ele><time>2026-03-29T10:03:53.886Z</time></trkpt><trkpt lat="43.22967311644982" lon="12.13683639647333"><ele>719.0</ele><time>2026-03-29T10:03:54.886Z</time></trkpt><trkpt lat="43.22967547208977" lon="12.136949039309311"><ele>720.6666666666667</ele><time>2026-03-29T10:03:55.888Z</time></trkpt><trkpt lat="43.22968270274808" lon="12.137087689744183"><ele>722.3333333333334</ele><time>2026-03-29T10:03:56.889Z</time></trkpt><trkpt lat="43.229660568053056" lon="12.137205642877497"><ele>724.0</ele><time>2026-03-29T10:03:57.889Z</time></trkpt><trkpt lat="43.22962100372195" lon="12.137338463738374"><ele>721.2</ele><time>2026-03-29T10:03:58.889Z</time></trkpt><trkpt lat="43.22958276001671" lon="12.137479945640466"><ele>718.4000000000001</ele><time>2026-03-29T10:03:59.888Z</time></trkpt><trkpt lat="43.22954848766068" lon="12.137603086891433"><ele>715.6</ele><time>2026-03-29T10:04:00.888Z</time></trkpt><trkpt lat="43.229507568765825" lon="12.13777037199712"><ele>712.8</ele><time>2026-03-29T10:04:01.888Z</time></trkpt><trkpt lat="43.22948606388404" lon="12.13791842601738"><ele>710.0</ele><time>2026-03-29T10:04:02.888Z</time></trkpt><trkpt lat="43.22947579608674" lon="12.138065532480576"><ele>710.0</ele><time>2026-03-29T10:04:03.888Z</time></trkpt><trkpt lat="43.22946390484226" lon="12.138174965065579"><ele>710.0</ele><time>2026-03-29T10:04:04.888Z</time></trkpt><trkpt lat="43.229450860155104" lon="12.138263347658542"><ele>710.0</ele><time>2026-03-29T10:04:05.888Z</time></trkpt><trkpt lat="43.22946935784417" lon="12.13838954275711"><ele>710.0</ele><time>2026-03-29T10:04:08.888Z</time></trkpt><trkpt lat="43.22951172038998" lon="12.138567150069548"><ele>710.0</ele><time>2026-03-29T10:04:10.888Z</time></trkpt><trkpt lat="43.22956629639906" lon="12.13869035300156"><ele>710.0</ele><time>2026-03-29T10:04:11.888Z</time></trkpt><trkpt lat="43.2296188399923" lon="12.13882589352537"><ele>710.0</ele><time>2026-03-29T10:04:12.888Z</time></trkpt><trkpt lat="43.22968301246612" lon="12.138982983396053"><ele>710.0</ele><time>2026-03-29T10:04:13.888Z</time></trkpt><trkpt lat="43.229747179973096" lon="12.139112768417345"><ele>710.0</ele><time>2026-03-29T10:04:14.888Z</time></trkpt><trkpt lat="43.22979631151344" lon="12.139189296641387"><ele>710.0</ele><time>2026-03-29T10:04:15.888Z</time></trkpt><trkpt lat="43.229862205213394" lon="12.139237052526033"><ele>709.5</ele><time>2026-03-29T10:04:16.888Z</time></trkpt><trkpt lat="43.229931125629584" lon="12.139296518087027"><ele>709.0</ele><time>2026-03-29T10:04:17.888Z</time></trkpt><trkpt lat="43.229994887810776" lon="12.139408668832337"><ele>708.5</ele><time>2026-03-29T10:04:18.888Z</time></trkpt><trkpt lat="43.23006133018311" lon="12.139572544515246"><ele>708.0</ele><time>2026-03-29T10:04:19.888Z</time></trkpt><trkpt lat="43.23012186217509" lon="12.139751382575799"><ele>708.2</ele><time>2026-03-29T10:04:20.888Z</time></trkpt><trkpt lat="43.23017992852722" lon="12.139900707025431"><ele>708.4</ele><time>2026-03-29T10:04:21.888Z</time></trkpt><trkpt lat="43.23023080668086" lon="12.140023910639123"><ele>708.6</ele><time>2026-03-29T10:04:22.888Z</time></trkpt><trkpt lat="43.23028862361262" lon="12.140134656686532"><ele>708.8000000000001</ele><time>2026-03-29T10:04:23.888Z</time></trkpt><trkpt lat="43.23033575937558" lon="12.140223334223522"><ele>709.0</ele><time>2026-03-29T10:04:24.888Z</time></trkpt><trkpt lat="43.230383748659435" lon="12.14030221258779"><ele>709.0</ele><time>2026-03-29T10:04:25.888Z</time></trkpt><trkpt lat="43.23042607678863" lon="12.140401871092296"><ele>709.0</ele><time>2026-03-29T10:04:26.888Z</time></trkpt><trkpt lat="43.23044317825581" lon="12.140504627953161"><ele>709.0</ele><time>2026-03-29T10:04:27.888Z</time></trkpt><trkpt lat="43.23043909540424" lon="12.140628920847528"><ele>709.0</ele><time>2026-03-29T10:04:28.888Z</time></trkpt><trkpt lat="43.23041033470302" lon="12.140736189471264"><ele>709.0</ele><time>2026-03-29T10:04:29.888Z</time></trkpt><trkpt lat="43.23038082365691" lon="12.140847422770367"><ele>709.0</ele><time>2026-03-29T10:04:30.888Z</time></trkpt><trkpt lat="43.23034932467425" lon="12.140959390345243"><ele>705.6</ele><time>2026-03-29T10:04:31.888Z</time></trkpt><trkpt lat="43.23032586714097" lon="12.141062951635314"><ele>702.2</ele><time>2026-03-29T10:04:32.888Z</time></trkpt><trkpt lat="43.230274772989816" lon="12.141187609863628"><ele>698.8000000000001</ele><time>2026-03-29T10:04:33.888Z</time></trkpt><trkpt lat="43.23022492916251" lon="12.141302600028435"><ele>695.4000000000001</ele><time>2026-03-29T10:04:34.888Z</time></trkpt><trkpt lat="43.23020040097648" lon="12.141424916787894"><ele>692.0</ele><time>2026-03-29T10:04:35.888Z</time></trkpt><trkpt lat="43.230189812784026" lon="12.141580139907436"><ele>690.2</ele><time>2026-03-29T10:04:36.888Z</time></trkpt><trkpt lat="43.23015736846823" lon="12.141761864328963"><ele>688.4000000000001</ele><time>2026-03-29T10:04:37.888Z</time></trkpt><trkpt lat="43.23013033961551" lon="12.141909793778762"><ele>686.5999999999999</ele><time>2026-03-29T10:04:38.888Z</time></trkpt><trkpt lat="43.23010240256694" lon="12.142042998167954"><ele>684.8</ele><time>2026-03-29T10:04:39.888Z</time></trkpt><trkpt lat="43.230064287246236" lon="12.142170834351509"><ele>683.0</ele><time>2026-03-29T10:04:40.888Z</time></trkpt><trkpt lat="43.23000403318414" lon="12.14228844696482"><ele>681.5999999999999</ele><time>2026-03-29T10:04:41.888Z</time></trkpt><trkpt lat="43.22994918606241" lon="12.142408308425368"><ele>680.1999999999999</ele><time>2026-03-29T10:04:42.888Z</time></trkpt><trkpt lat="43.22991471241849" lon="12.14256126833202"><ele>678.8</ele><time>2026-03-29T10:04:43.888Z</time></trkpt><trkpt lat="43.22989246101158" lon="12.142720975109732"><ele>677.4</ele><time>2026-03-29T10:04:44.888Z</time></trkpt><trkpt lat="43.22987258309431" lon="12.142864324777667"><ele>676.0</ele><time>2026-03-29T10:04:45.888Z</time></trkpt><trkpt lat="43.22983170717792" lon="12.142990417393609"><ele>675.25</ele><time>2026-03-29T10:04:46.888Z</time></trkpt><trkpt lat="43.22976525359951" lon="12.14311916377248"><ele>674.5</ele><time>2026-03-29T10:04:47.888Z</time></trkpt><trkpt lat="43.229689283994375" lon="12.143262768974424"><ele>673.75</ele><time>2026-03-29T10:04:48.888Z</time></trkpt><trkpt lat="43.22962174105047" lon="12.143413502314537"><ele>673.0</ele><time>2026-03-29T10:04:49.888Z</time></trkpt><trkpt lat="43.22957628562417" lon="12.143575587298084"><ele>673.0</ele><time>2026-03-29T10:04:50.888Z</time></trkpt><trkpt lat="43.2295230143503" lon="12.143742925129885"><ele>673.0</ele><time>2026-03-29T10:04:51.888Z</time></trkpt><trkpt lat="43.22948563473639" lon="12.143856318395265"><ele>673.0</ele><time>2026-03-29T10:04:52.888Z</time></trkpt><trkpt lat="43.22946121529945" lon="12.143992697834602"><ele>673.0</ele><time>2026-03-29T10:04:54.888Z</time></trkpt><trkpt lat="43.2295171594117" lon="12.144102872371384"><ele>673.0</ele><time>2026-03-29T10:04:55.888Z</time></trkpt><trkpt lat="43.229575884291094" lon="12.144192871124124"><ele>674.8</ele><time>2026-03-29T10:04:56.888Z</time></trkpt><trkpt lat="43.22961099393807" lon="12.14426493774429"><ele>676.5999999999999</ele><time>2026-03-29T10:04:57.888Z</time></trkpt><trkpt lat="43.22954930318265" lon="12.144414270443816"><ele>678.4000000000001</ele><time>2026-03-29T10:04:59.888Z</time></trkpt><trkpt lat="43.229508249060174" lon="12.144532928745237"><ele>680.2</ele><time>2026-03-29T10:05:00.888Z</time></trkpt><trkpt lat="43.22950003861601" lon="12.144672718514236"><ele>682.0</ele><time>2026-03-29T10:05:01.888Z</time></trkpt><trkpt lat="43.229480900151515" lon="12.144816617799771"><ele>684.0</ele><time>2026-03-29T10:05:02.888Z</time></trkpt><trkpt lat="43.22945834669754" lon="12.144923876632976"><ele>686.0</ele><time>2026-03-29T10:05:03.887Z</time></trkpt><trkpt lat="43.229478488979716" lon="12.14500575470793"><ele>688.0</ele><time>2026-03-29T10:05:04.887Z</time></trkpt><trkpt lat="43.22952938922458" lon="12.145103567539934"><ele>690.0</ele><time>2026-03-29T10:05:05.887Z</time></trkpt><trkpt lat="43.229565965237185" lon="12.14520788823708"><ele>692.0</ele><time>2026-03-29T10:05:06.887Z</time></trkpt><trkpt lat="43.229573872421746" lon="12.145318156470518"><ele>694.0</ele><time>2026-03-29T10:05:07.887Z</time></trkpt><trkpt lat="43.22957067703933" lon="12.145423029994504"><ele>694.0</ele><time>2026-03-29T10:05:08.887Z</time></trkpt><trkpt lat="43.2295637475346" lon="12.145530061733982"><ele>694.0</ele><time>2026-03-29T10:05:09.887Z</time></trkpt><trkpt lat="43.229561874072985" lon="12.145674315809027"><ele>694.0</ele><time>2026-03-29T10:05:10.887Z</time></trkpt><trkpt lat="43.229569145413336" lon="12.145876076805147"><ele>694.0</ele><time>2026-03-29T10:05:11.887Z</time></trkpt><trkpt lat="43.22958630470316" lon="12.146095833698382"><ele>694.5</ele><time>2026-03-29T10:05:12.887Z</time></trkpt><trkpt lat="43.22959731017909" lon="12.14627631724774"><ele>695.0</ele><time>2026-03-29T10:05:13.887Z</time></trkpt><trkpt lat="43.229629511636716" lon="12.146441180981965"><ele>695.5</ele><time>2026-03-29T10:05:14.887Z</time></trkpt><trkpt lat="43.229656964461675" lon="12.14655437448451"><ele>696.0</ele><time>2026-03-29T10:05:15.887Z</time></trkpt><trkpt lat="43.22971346210306" lon="12.1466821581481"><ele>695.1666666666666</ele><time>2026-03-29T10:05:17.887Z</time></trkpt><trkpt lat="43.22973106782139" lon="12.146769193689135"><ele>694.3333333333334</ele><time>2026-03-29T10:05:18.887Z</time></trkpt><trkpt lat="43.22973378558942" lon="12.146879408950532"><ele>693.5</ele><time>2026-03-29T10:05:19.887Z</time></trkpt><trkpt lat="43.22973182826555" lon="12.147003588312295"><ele>692.6666666666667</ele><time>2026-03-29T10:05:20.887Z</time></trkpt><trkpt lat="43.22973471075777" lon="12.147110794573615"><ele>691.8333333333334</ele><time>2026-03-29T10:05:21.887Z</time></trkpt><trkpt lat="43.22975923169422" lon="12.147207685602202"><ele>691.0</ele><time>2026-03-29T10:05:22.887Z</time></trkpt><trkpt lat="43.229789298571895" lon="12.147302167587974"><ele>691.6666666666667</ele><time>2026-03-29T10:05:23.887Z</time></trkpt><trkpt lat="43.229815092237345" lon="12.147384954480316"><ele>692.3333333333334</ele><time>2026-03-29T10:05:24.887Z</time></trkpt><trkpt lat="43.22984372207818" lon="12.147465693447119"><ele>693.0</ele><time>2026-03-29T10:05:25.887Z</time></trkpt><trkpt lat="43.229856946705645" lon="12.147550197593121"><ele>693.6666666666666</ele><time>2026-03-29T10:05:26.887Z</time></trkpt><trkpt lat="43.22989914964036" lon="12.147719052674288"><ele>694.3333333333333</ele><time>2026-03-29T10:05:28.887Z</time></trkpt><trkpt lat="43.229935047964155" lon="12.147795126783178"><ele>695.0</ele><time>2026-03-29T10:05:29.887Z</time></trkpt><trkpt lat="43.23000945432588" lon="12.147937110639344"><ele>695.0</ele><time>2026-03-29T10:05:31.887Z</time></trkpt><trkpt lat="43.23006058013795" lon="12.148080985001348"><ele>695.0</ele><time>2026-03-29T10:05:33.887Z</time></trkpt><trkpt lat="43.2301037892113" lon="12.148213562725678"><ele>695.0</ele><time>2026-03-29T10:05:35.887Z</time></trkpt><trkpt lat="43.23014163911968" lon="12.148313349393154"><ele>695.0</ele><time>2026-03-29T10:05:37.887Z</time></trkpt><trkpt lat="43.23017552771417" lon="12.148424569082138"><ele>695.0</ele><time>2026-03-29T10:05:39.887Z</time></trkpt><trkpt lat="43.230234107026156" lon="12.148567210752496"><ele>695.0</ele><time>2026-03-29T10:05:41.887Z</time></trkpt><trkpt lat="43.23027134223876" lon="12.148643582426667"><ele>695.0</ele><time>2026-03-29T10:05:42.887Z</time></trkpt><trkpt lat="43.23031106537507" lon="12.148737029683703"><ele>695.0</ele><time>2026-03-29T10:05:43.887Z</time></trkpt><trkpt lat="43.23035773144713" lon="12.148851105293442"><ele>695.0</ele><time>2026-03-29T10:05:44.887Z</time></trkpt><trkpt lat="43.23040016052761" lon="12.148965865571064"><ele>695.0</ele><time>2026-03-29T10:05:45.887Z</time></trkpt><trkpt lat="43.23044388569837" lon="12.14908529597426"><ele>695.0</ele><time>2026-03-29T10:05:46.887Z</time></trkpt><trkpt lat="43.23049695986668" lon="12.149205249634479"><ele>695.0</ele><time>2026-03-29T10:05:47.887Z</time></trkpt><trkpt lat="43.230578506317045" lon="12.149353731314967"><ele>695.0</ele><time>2026-03-29T10:05:48.887Z</time></trkpt><trkpt lat="43.23067069493374" lon="12.149530299324068"><ele>695.0</ele><time>2026-03-29T10:05:49.887Z</time></trkpt><trkpt lat="43.23075826526974" lon="12.149716182283296"><ele>694.5</ele><time>2026-03-29T10:05:50.887Z</time></trkpt><trkpt lat="43.23082892936051" lon="12.149911545703356"><ele>694.0</ele><time>2026-03-29T10:05:51.887Z</time></trkpt><trkpt lat="43.2308930538605" lon="12.150083086973527"><ele>693.5</ele><time>2026-03-29T10:05:52.887Z</time></trkpt><trkpt lat="43.23094432294662" lon="12.150183781030897"><ele>693.0</ele><time>2026-03-29T10:05:53.887Z</time></trkpt><trkpt lat="43.23100867526771" lon="12.150274064130137"><ele>693.0</ele><time>2026-03-29T10:05:54.887Z</time></trkpt><trkpt lat="43.23106983068859" lon="12.150383471170725"><ele>693.0</ele><time>2026-03-29T10:05:55.887Z</time></trkpt><trkpt lat="43.23112413422585" lon="12.150490035585499"><ele>693.0</ele><time>2026-03-29T10:05:56.887Z</time></trkpt><trkpt lat="43.23115567528045" lon="12.150595560422962"><ele>693.0</ele><time>2026-03-29T10:05:57.887Z</time></trkpt><trkpt lat="43.231158726762274" lon="12.150707102603983"><ele>693.0</ele><time>2026-03-29T10:05:58.887Z</time></trkpt><trkpt lat="43.231125527349306" lon="12.150821046852997"><ele>693.0</ele><time>2026-03-29T10:05:59.887Z</time></trkpt><trkpt lat="43.231058547047354" lon="12.15093483174303"><ele>692.2</ele><time>2026-03-29T10:06:00.886Z</time></trkpt><trkpt lat="43.23097536129777" lon="12.15099526112504"><ele>691.4</ele><time>2026-03-29T10:06:01.889Z</time></trkpt><trkpt lat="43.230883386382985" lon="12.151041243076564"><ele>690.6</ele><time>2026-03-29T10:06:02.888Z</time></trkpt><trkpt lat="43.23080015335525" lon="12.151058936207706"><ele>689.8000000000001</ele><time>2026-03-29T10:06:03.888Z</time></trkpt><trkpt lat="43.23071895092353" lon="12.15108628879608"><ele>689.0</ele><time>2026-03-29T10:06:04.889Z</time></trkpt><trkpt lat="43.230628229854474" lon="12.151108833394797"><ele>687.1666666666666</ele><time>2026-03-29T10:06:05.889Z</time></trkpt><trkpt lat="43.230554741156375" lon="12.151137064715009"><ele>685.3333333333333</ele><time>2026-03-29T10:06:06.889Z</time></trkpt><trkpt lat="43.230522413612015" lon="12.15129152756293"><ele>683.5</ele><time>2026-03-29T10:06:08.888Z</time></trkpt><trkpt lat="43.23055627881778" lon="12.151385820374376"><ele>681.6666666666666</ele><time>2026-03-29T10:06:09.888Z</time></trkpt><trkpt lat="43.23057712141295" lon="12.15149055910417"><ele>679.8333333333334</ele><time>2026-03-29T10:06:10.888Z</time></trkpt><trkpt lat="43.23059063929137" lon="12.151601727520497"><ele>678.0</ele><time>2026-03-29T10:06:11.888Z</time></trkpt><trkpt lat="43.23060243995225" lon="12.151722946914669"><ele>675.75</ele><time>2026-03-29T10:06:12.888Z</time></trkpt><trkpt lat="43.230590844305" lon="12.151855998821791"><ele>673.5</ele><time>2026-03-29T10:06:13.889Z</time></trkpt><trkpt lat="43.230552685973834" lon="12.151983471542382"><ele>671.25</ele><time>2026-03-29T10:06:14.889Z</time></trkpt><trkpt lat="43.23053295938604" lon="12.15217070689984"><ele>669.0</ele><time>2026-03-29T10:06:15.889Z</time></trkpt><trkpt lat="43.23054202728825" lon="12.152407487451766"><ele>669.0</ele><time>2026-03-29T10:06:16.889Z</time></trkpt><trkpt lat="43.23055618440599" lon="12.15263676042675"><ele>669.0</ele><time>2026-03-29T10:06:17.889Z</time></trkpt><trkpt lat="43.23059488113597" lon="12.152884873523728"><ele>669.0</ele><time>2026-03-29T10:06:18.889Z</time></trkpt><trkpt lat="43.23062331238636" lon="12.153129290983236"><ele>668.25</ele><time>2026-03-29T10:06:19.889Z</time></trkpt><trkpt lat="43.230643985650886" lon="12.15331764743101"><ele>667.5</ele><time>2026-03-29T10:06:20.889Z</time></trkpt><trkpt lat="43.23066313746899" lon="12.153465314686352"><ele>666.75</ele><time>2026-03-29T10:06:21.889Z</time></trkpt><trkpt lat="43.230679114990245" lon="12.153628518788748"><ele>666.0</ele><time>2026-03-29T10:06:22.889Z</time></trkpt><trkpt lat="43.23069598918596" lon="12.153782451359332"><ele>666.0</ele><time>2026-03-29T10:06:23.889Z</time></trkpt><trkpt lat="43.230712960425464" lon="12.153908081884017"><ele>666.0</ele><time>2026-03-29T10:06:24.889Z</time></trkpt><trkpt lat="43.230722146410564" lon="12.15400530383595"><ele>666.0</ele><time>2026-03-29T10:06:25.889Z</time></trkpt><trkpt lat="43.230719869670715" lon="12.154101840095558"><ele>666.0</ele><time>2026-03-29T10:06:26.889Z</time></trkpt><trkpt lat="43.230699939694965" lon="12.154195806952789"><ele>666.0</ele><time>2026-03-29T10:06:27.889Z</time></trkpt><trkpt lat="43.2306517918869" lon="12.154296290712473"><ele>666.0</ele><time>2026-03-29T10:06:28.889Z</time></trkpt><trkpt lat="43.23057891251326" lon="12.154398680207516"><ele>664.5999999999999</ele><time>2026-03-29T10:06:29.889Z</time></trkpt><trkpt lat="43.23050298634664" lon="12.154486563923163"><ele>663.2</ele><time>2026-03-29T10:06:30.889Z</time></trkpt><trkpt lat="43.23042908106517" lon="12.154605944184084"><ele>661.8</ele><time>2026-03-29T10:06:31.889Z</time></trkpt><trkpt lat="43.23037255377988" lon="12.154741503808635"><ele>660.4000000000001</ele><time>2026-03-29T10:06:32.889Z</time></trkpt><trkpt lat="43.23033661611533" lon="12.154890340469338"><ele>659.0</ele><time>2026-03-29T10:06:33.889Z</time></trkpt><trkpt lat="43.23030222839691" lon="12.155037432792371"><ele>658.4000000000001</ele><time>2026-03-29T10:06:34.889Z</time></trkpt><trkpt lat="43.2302728148814" lon="12.155186084021187"><ele>657.8</ele><time>2026-03-29T10:06:35.888Z</time></trkpt><trkpt lat="43.23023814152707" lon="12.155321501209336"><ele>657.2</ele><time>2026-03-29T10:06:36.888Z</time></trkpt><trkpt lat="43.23019184340222" lon="12.155462102036939"><ele>656.5999999999999</ele><time>2026-03-29T10:06:37.888Z</time></trkpt><trkpt lat="43.23014889951208" lon="12.155604306633137"><ele>656.0</ele><time>2026-03-29T10:06:38.888Z</time></trkpt><trkpt lat="43.23010662597048" lon="12.155739263315942"><ele>656.0</ele><time>2026-03-29T10:06:39.888Z</time></trkpt><trkpt lat="43.23007298739022" lon="12.155879674442156"><ele>656.0</ele><time>2026-03-29T10:06:40.888Z</time></trkpt><trkpt lat="43.23003063652111" lon="12.156022149913097"><ele>656.0</ele><time>2026-03-29T10:06:41.888Z</time></trkpt><trkpt lat="43.229993639794785" lon="12.156161308597307"><ele>656.0</ele><time>2026-03-29T10:06:42.888Z</time></trkpt><trkpt lat="43.22994685680959" lon="12.156316713469526"><ele>656.0</ele><time>2026-03-29T10:06:43.888Z</time></trkpt><trkpt lat="43.229904837881406" lon="12.156464526865939"><ele>656.0</ele><time>2026-03-29T10:06:44.888Z</time></trkpt><trkpt lat="43.229865883011605" lon="12.156579855677002"><ele>656.0</ele><time>2026-03-29T10:06:45.888Z</time></trkpt><trkpt lat="43.22982949404562" lon="12.156688143661874"><ele>656.0</ele><time>2026-03-29T10:06:46.888Z</time></trkpt><trkpt lat="43.22979833916376" lon="12.156789679017777"><ele>656.0</ele><time>2026-03-29T10:06:47.888Z</time></trkpt><trkpt lat="43.22977318755492" lon="12.156887010648743"><ele>656.1666666666666</ele><time>2026-03-29T10:06:48.888Z</time></trkpt><trkpt lat="43.2297713259344" lon="12.156993352955494"><ele>656.3333333333333</ele><time>2026-03-29T10:06:49.888Z</time></trkpt><trkpt lat="43.22979334034782" lon="12.157108670234226"><ele>656.5</ele><time>2026-03-29T10:06:50.888Z</time></trkpt><trkpt lat="43.229824413341106" lon="12.157238413983443"><ele>656.6666666666666</ele><time>2026-03-29T10:06:51.888Z</time></trkpt><trkpt lat="43.229858954239944" lon="12.15734681597404"><ele>656.8333333333334</ele><time>2026-03-29T10:06:52.888Z</time></trkpt><trkpt lat="43.22988544062804" lon="12.157470369415853"><ele>657.0</ele><time>2026-03-29T10:06:53.888Z</time></trkpt><trkpt lat="43.22991245302725" lon="12.157581943254064"><ele>655.2857142857142</ele><time>2026-03-29T10:06:54.888Z</time></trkpt><trkpt lat="43.229931841940804" lon="12.15766831838168"><ele>653.5714285714287</ele><time>2026-03-29T10:06:55.888Z</time></trkpt><trkpt lat="43.229963650813566" lon="12.157759674824513"><ele>651.8571428571429</ele><time>2026-03-29T10:06:58.888Z</time></trkpt><trkpt lat="43.230044798542615" lon="12.1577398430318"><ele>650.1428571428571</ele><time>2026-03-29T10:07:02.888Z</time></trkpt><trkpt lat="43.230105102580126" lon="12.15770286750217"><ele>648.4285714285713</ele><time>2026-03-29T10:07:07.888Z</time></trkpt><trkpt lat="43.23005754572329" lon="12.157778424853031"><ele>646.7142857142858</ele><time>2026-03-29T10:07:43.887Z</time></trkpt><trkpt lat="43.22997120094651" lon="12.157772299027043"><ele>645.0</ele><time>2026-03-29T10:07:45.887Z</time></trkpt><trkpt lat="43.22991370999367" lon="12.157864566703516"><ele>645.0</ele><time>2026-03-29T10:07:48.887Z</time></trkpt><trkpt lat="43.22990578853653" lon="12.158013091834246"><ele>645.0</ele><time>2026-03-29T10:07:50.887Z</time></trkpt><trkpt lat="43.229867444427526" lon="12.158138767318109"><ele>645.0</ele><time>2026-03-29T10:07:52.887Z</time></trkpt><trkpt lat="43.2298121377654" lon="12.158289913348487"><ele>645.0</ele><time>2026-03-29T10:07:54.887Z</time></trkpt><trkpt lat="43.22977402736278" lon="12.158383953979644"><ele>645.0</ele><time>2026-03-29T10:07:55.887Z</time></trkpt><trkpt lat="43.22973481301249" lon="12.158477272703818"><ele>642.8</ele><time>2026-03-29T10:07:56.887Z</time></trkpt><trkpt lat="43.2296885938822" lon="12.158554239435698"><ele>640.6</ele><time>2026-03-29T10:07:57.887Z</time></trkpt><trkpt lat="43.229629664960825" lon="12.158618857958825"><ele>638.4</ele><time>2026-03-29T10:07:58.887Z</time></trkpt><trkpt lat="43.22956239962279" lon="12.158667879859832"><ele>636.2</ele><time>2026-03-29T10:07:59.887Z</time></trkpt><trkpt lat="43.229498950699735" lon="12.158707172629814"><ele>634.0</ele><time>2026-03-29T10:08:00.887Z</time></trkpt><trkpt lat="43.22935133304296" lon="12.158849463707664"><ele>634.0</ele><time>2026-03-29T10:08:03.887Z</time></trkpt><trkpt lat="43.22930318692686" lon="12.158926289495854"><ele>634.0</ele><time>2026-03-29T10:08:04.887Z</time></trkpt><trkpt lat="43.229257508697025" lon="12.159020605868093"><ele>634.0</ele><time>2026-03-29T10:08:05.887Z</time></trkpt><trkpt lat="43.22922359711077" lon="12.15911998952226"><ele>634.0</ele><time>2026-03-29T10:08:06.887Z</time></trkpt><trkpt lat="43.22921246855365" lon="12.159217028226545"><ele>634.0</ele><time>2026-03-29T10:08:07.889Z</time></trkpt><trkpt lat="43.22920541834045" lon="12.159353216424828"><ele>634.0</ele><time>2026-03-29T10:08:08.889Z</time></trkpt><trkpt lat="43.22918536176224" lon="12.15951343463852"><ele>634.2</ele><time>2026-03-29T10:08:09.889Z</time></trkpt><trkpt lat="43.22915989437402" lon="12.159650409463481"><ele>634.4</ele><time>2026-03-29T10:08:10.889Z</time></trkpt><trkpt lat="43.2291318669262" lon="12.15977507752004"><ele>634.6</ele><time>2026-03-29T10:08:11.889Z</time></trkpt><trkpt lat="43.2290926437081" lon="12.159900909201713"><ele>634.8</ele><time>2026-03-29T10:08:12.889Z</time></trkpt><trkpt lat="43.22904251546582" lon="12.160018164227614"><ele>635.0</ele><time>2026-03-29T10:08:13.889Z</time></trkpt><trkpt lat="43.22897458999523" lon="12.160115476874397"><ele>635.0</ele><time>2026-03-29T10:08:14.888Z</time></trkpt><trkpt lat="43.2288945985686" lon="12.1602095771178"><ele>635.0</ele><time>2026-03-29T10:08:15.888Z</time></trkpt><trkpt lat="43.22880678786354" lon="12.16027747358959"><ele>635.0</ele><time>2026-03-29T10:08:16.888Z</time></trkpt><trkpt lat="43.22871017638202" lon="12.160345978737846"><ele>635.0</ele><time>2026-03-29T10:08:17.888Z</time></trkpt><trkpt lat="43.22863360547809" lon="12.160413319396152"><ele>635.0</ele><time>2026-03-29T10:08:18.888Z</time></trkpt><trkpt lat="43.228548483774674" lon="12.160497121041695"><ele>635.0</ele><time>2026-03-29T10:08:19.888Z</time></trkpt><trkpt lat="43.228491011138956" lon="12.160585913510516"><ele>635.0</ele><time>2026-03-29T10:08:20.888Z</time></trkpt><trkpt lat="43.228441657042005" lon="12.160684497669289"><ele>635.0</ele><time>2026-03-29T10:08:21.888Z</time></trkpt><trkpt lat="43.228416066523884" lon="12.160792863811656"><ele>635.0</ele><time>2026-03-29T10:08:22.888Z</time></trkpt><trkpt lat="43.22840772427128" lon="12.160909625462079"><ele>635.0</ele><time>2026-03-29T10:08:23.888Z</time></trkpt><trkpt lat="43.22841015844078" lon="12.161064155958089"><ele>637.75</ele><time>2026-03-29T10:08:24.888Z</time></trkpt><trkpt lat="43.228424633289755" lon="12.16124872258243"><ele>640.5</ele><time>2026-03-29T10:08:25.888Z</time></trkpt><trkpt lat="43.22843064548447" lon="12.161428902258779"><ele>643.25</ele><time>2026-03-29T10:08:26.888Z</time></trkpt><trkpt lat="43.22842534439953" lon="12.161594112540072"><ele>646.0</ele><time>2026-03-29T10:08:27.888Z</time></trkpt><trkpt lat="43.22841566621383" lon="12.161733108434566"><ele>645.8333333333334</ele><time>2026-03-29T10:08:28.888Z</time></trkpt><trkpt lat="43.22840184988167" lon="12.161845756576827"><ele>645.6666666666667</ele><time>2026-03-29T10:08:29.888Z</time></trkpt><trkpt lat="43.228369984511566" lon="12.161940463602708"><ele>645.5</ele><time>2026-03-29T10:08:30.888Z</time></trkpt><trkpt lat="43.228317159304915" lon="12.162007718314191"><ele>645.3333333333334</ele><time>2026-03-29T10:08:31.888Z</time></trkpt><trkpt lat="43.228233474614356" lon="12.162067227881305"><ele>645.1666666666666</ele><time>2026-03-29T10:08:32.888Z</time></trkpt><trkpt lat="43.22813088326994" lon="12.162126393979959"><ele>645.0</ele><time>2026-03-29T10:08:33.888Z</time></trkpt><trkpt lat="43.22802822192806" lon="12.16219074569902"><ele>645.0</ele><time>2026-03-29T10:08:34.888Z</time></trkpt><trkpt lat="43.227922742927" lon="12.162275424119183"><ele>645.0</ele><time>2026-03-29T10:08:35.888Z</time></trkpt><trkpt lat="43.227825757071834" lon="12.162348463632343"><ele>645.0</ele><time>2026-03-29T10:08:36.888Z</time></trkpt><trkpt lat="43.227737009942224" lon="12.162423053353107"><ele>645.0</ele><time>2026-03-29T10:08:37.888Z</time></trkpt><trkpt lat="43.227641184664876" lon="12.16249266991831"><ele>645.0</ele><time>2026-03-29T10:08:38.888Z</time></trkpt><trkpt lat="43.22754671162438" lon="12.162563239167829"><ele>645.1666666666666</ele><time>2026-03-29T10:08:39.888Z</time></trkpt><trkpt lat="43.22745122354205" lon="12.16262134017298"><ele>645.3333333333334</ele><time>2026-03-29T10:08:40.888Z</time></trkpt><trkpt lat="43.22737121725244" lon="12.162671245881393"><ele>645.5</ele><time>2026-03-29T10:08:41.888Z</time></trkpt><trkpt lat="43.227296124850206" lon="12.16271239847807"><ele>645.6666666666667</ele><time>2026-03-29T10:08:42.888Z</time></trkpt><trkpt lat="43.22721716952087" lon="12.162759744061969"><ele>645.8333333333334</ele><time>2026-03-29T10:08:43.888Z</time></trkpt><trkpt lat="43.22714090440197" lon="12.162803829473129"><ele>646.0</ele><time>2026-03-29T10:08:44.888Z</time></trkpt><trkpt lat="43.227059703233955" lon="12.162847384971126"><ele>643.8</ele><time>2026-03-29T10:08:45.888Z</time></trkpt><trkpt lat="43.22696899275318" lon="12.162877227951231"><ele>641.5999999999999</ele><time>2026-03-29T10:08:46.888Z</time></trkpt><trkpt lat="43.226882523540475" lon="12.162883292380378"><ele>639.4</ele><time>2026-03-29T10:08:47.888Z</time></trkpt><trkpt lat="43.22678720065482" lon="12.162845331530834"><ele>637.2</ele><time>2026-03-29T10:08:48.888Z</time></trkpt><trkpt lat="43.226683772868896" lon="12.162799260360028"><ele>635.0</ele><time>2026-03-29T10:08:49.888Z</time></trkpt><trkpt lat="43.22657887259186" lon="12.162752968647064"><ele>632.75</ele><time>2026-03-29T10:08:50.888Z</time></trkpt><trkpt lat="43.22645864852534" lon="12.162709442635515"><ele>630.5</ele><time>2026-03-29T10:08:51.888Z</time></trkpt><trkpt lat="43.22634486330649" lon="12.162672964089671"><ele>628.25</ele><time>2026-03-29T10:08:52.888Z</time></trkpt><trkpt lat="43.22623228920111" lon="12.162623966105869"><ele>626.0</ele><time>2026-03-29T10:08:53.888Z</time></trkpt><trkpt lat="43.22612149476079" lon="12.162569888916464"><ele>626.0</ele><time>2026-03-29T10:08:54.888Z</time></trkpt><trkpt lat="43.22599325391145" lon="12.162523603909753"><ele>626.0</ele><time>2026-03-29T10:08:55.888Z</time></trkpt><trkpt lat="43.225870701474335" lon="12.16247794295383"><ele>626.0</ele><time>2026-03-29T10:08:56.888Z</time></trkpt><trkpt lat="43.2257489131465" lon="12.162435006407096"><ele>626.0</ele><time>2026-03-29T10:08:57.888Z</time></trkpt><trkpt lat="43.22562988650953" lon="12.162395472644594"><ele>622.75</ele><time>2026-03-29T10:08:58.888Z</time></trkpt><trkpt lat="43.22551397016152" lon="12.162362555585705"><ele>619.5</ele><time>2026-03-29T10:08:59.888Z</time></trkpt><trkpt lat="43.225388360058474" lon="12.162326780748467"><ele>616.25</ele><time>2026-03-29T10:09:00.888Z</time></trkpt><trkpt lat="43.22526977476374" lon="12.162288104388873"><ele>613.0</ele><time>2026-03-29T10:09:01.888Z</time></trkpt><trkpt lat="43.22515506998538" lon="12.162259742349729"><ele>613.0</ele><time>2026-03-29T10:09:02.888Z</time></trkpt><trkpt lat="43.22504059786381" lon="12.162247476969526"><ele>613.0</ele><time>2026-03-29T10:09:03.888Z</time></trkpt><trkpt lat="43.22492212168572" lon="12.16225561094289"><ele>613.0</ele><time>2026-03-29T10:09:04.887Z</time></trkpt><trkpt lat="43.22481240221674" lon="12.162261243942998"><ele>613.0</ele><time>2026-03-29T10:09:05.887Z</time></trkpt><trkpt lat="43.22469806255277" lon="12.162261076805368"><ele>611.0</ele><time>2026-03-29T10:09:06.887Z</time></trkpt><trkpt lat="43.224583000700775" lon="12.16224173565632"><ele>609.0</ele><time>2026-03-29T10:09:07.887Z</time></trkpt><trkpt lat="43.224463228878584" lon="12.162223273247434"><ele>607.0</ele><time>2026-03-29T10:09:08.887Z</time></trkpt><trkpt lat="43.22433747687686" lon="12.162207413099418"><ele>605.0</ele><time>2026-03-29T10:09:09.887Z</time></trkpt><trkpt lat="43.2242144112081" lon="12.162200647521232"><ele>605.0</ele><time>2026-03-29T10:09:10.887Z</time></trkpt><trkpt lat="43.22408972590648" lon="12.16220588581151"><ele>605.0</ele><time>2026-03-29T10:09:11.887Z</time></trkpt><trkpt lat="43.22396686177615" lon="12.162227186693878"><ele>605.0</ele><time>2026-03-29T10:09:12.887Z</time></trkpt><trkpt lat="43.22384332927581" lon="12.162254394807967"><ele>605.0</ele><time>2026-03-29T10:09:13.887Z</time></trkpt><trkpt lat="43.22371522496617" lon="12.16227466444153"><ele>602.5</ele><time>2026-03-29T10:09:14.887Z</time></trkpt><trkpt lat="43.22358086626427" lon="12.16229897905892"><ele>600.0</ele><time>2026-03-29T10:09:15.887Z</time></trkpt><trkpt lat="43.22345451940319" lon="12.16231508459884"><ele>597.5</ele><time>2026-03-29T10:09:16.887Z</time></trkpt><trkpt lat="43.22333563905802" lon="12.162326516349939"><ele>595.0</ele><time>2026-03-29T10:09:17.887Z</time></trkpt><trkpt lat="43.22321217983516" lon="12.162343582852456"><ele>594.25</ele><time>2026-03-29T10:09:18.887Z</time></trkpt><trkpt lat="43.223086731569815" lon="12.162362804482072"><ele>593.5</ele><time>2026-03-29T10:09:19.887Z</time></trkpt><trkpt lat="43.222962948989554" lon="12.162384141403336"><ele>592.75</ele><time>2026-03-29T10:09:20.887Z</time></trkpt><trkpt lat="43.22283187196705" lon="12.162410598589295"><ele>592.0</ele><time>2026-03-29T10:09:21.887Z</time></trkpt><trkpt lat="43.222714055853906" lon="12.162442173914332"><ele>592.0</ele><time>2026-03-29T10:09:22.887Z</time></trkpt><trkpt lat="43.22258973047316" lon="12.162478067170387"><ele>592.0</ele><time>2026-03-29T10:09:23.887Z</time></trkpt><trkpt lat="43.22246901556778" lon="12.162513575839045"><ele>592.0</ele><time>2026-03-29T10:09:24.887Z</time></trkpt><trkpt lat="43.22235518865266" lon="12.162552468864261"><ele>592.0</ele><time>2026-03-29T10:09:25.887Z</time></trkpt><trkpt lat="43.22225812533309" lon="12.162584396863664"><ele>590.6</ele><time>2026-03-29T10:09:26.887Z</time></trkpt><trkpt lat="43.222185920643824" lon="12.162597314502047"><ele>589.2</ele><time>2026-03-29T10:09:27.887Z</time></trkpt><trkpt lat="43.22207971507949" lon="12.162589127804857"><ele>587.8</ele><time>2026-03-29T10:09:29.887Z</time></trkpt><trkpt lat="43.22196450537994" lon="12.162667114687268"><ele>586.4</ele><time>2026-03-29T10:09:31.887Z</time></trkpt><trkpt lat="43.22188048183602" lon="12.162706281647003"><ele>585.0</ele><time>2026-03-29T10:09:32.887Z</time></trkpt><trkpt lat="43.22177063985062" lon="12.16274211004299"><ele>585.0</ele><time>2026-03-29T10:09:33.887Z</time></trkpt><trkpt lat="43.22166573880496" lon="12.162733838804439"><ele>585.0</ele><time>2026-03-29T10:09:34.887Z</time></trkpt><trkpt lat="43.221567335762394" lon="12.162745361330572"><ele>585.0</ele><time>2026-03-29T10:09:35.887Z</time></trkpt><trkpt lat="43.221472585121" lon="12.162784936782051"><ele>585.0</ele><time>2026-03-29T10:09:36.887Z</time></trkpt><trkpt lat="43.221355100115524" lon="12.162829002296832"><ele>585.0</ele><time>2026-03-29T10:09:37.887Z</time></trkpt><trkpt lat="43.22126462328101" lon="12.162857924513398"><ele>583.5</ele><time>2026-03-29T10:09:38.887Z</time></trkpt><trkpt lat="43.221178133797565" lon="12.16288603725185"><ele>582.0</ele><time>2026-03-29T10:09:39.887Z</time></trkpt><trkpt lat="43.221087645699775" lon="12.162908598010189"><ele>580.5</ele><time>2026-03-29T10:09:40.887Z</time></trkpt><trkpt lat="43.22100842615261" lon="12.162932562054452"><ele>579.0</ele><time>2026-03-29T10:09:41.887Z</time></trkpt><trkpt lat="43.22092109469446" lon="12.16296704078061"><ele>577.5</ele><time>2026-03-29T10:09:42.887Z</time></trkpt><trkpt lat="43.220835383409316" lon="12.16302613486126"><ele>576.0</ele><time>2026-03-29T10:09:43.887Z</time></trkpt><trkpt lat="43.22076522052121" lon="12.16310760722287"><ele>576.0</ele><time>2026-03-29T10:09:44.887Z</time></trkpt><trkpt lat="43.22071916929024" lon="12.163196292801388"><ele>576.0</ele><time>2026-03-29T10:09:45.887Z</time></trkpt><trkpt lat="43.220685154594236" lon="12.163364955793584"><ele>576.0</ele><time>2026-03-29T10:09:47.887Z</time></trkpt><trkpt lat="43.22066175934167" lon="12.163463665698671"><ele>576.0</ele><time>2026-03-29T10:09:48.887Z</time></trkpt><trkpt lat="43.22065896234047" lon="12.163562874982135"><ele>576.0</ele><time>2026-03-29T10:09:49.887Z</time></trkpt><trkpt lat="43.22068867710305" lon="12.163687773303522"><ele>576.8</ele><time>2026-03-29T10:09:50.887Z</time></trkpt><trkpt lat="43.22073414510627" lon="12.163813440466656"><ele>577.6</ele><time>2026-03-29T10:09:51.887Z</time></trkpt><trkpt lat="43.22077481767147" lon="12.163921555770267"><ele>578.4</ele><time>2026-03-29T10:09:52.887Z</time></trkpt><trkpt lat="43.2208271652635" lon="12.164010161165598"><ele>579.2</ele><time>2026-03-29T10:09:53.887Z</time></trkpt><trkpt lat="43.22090708284383" lon="12.164123606481546"><ele>580.0</ele><time>2026-03-29T10:09:54.887Z</time></trkpt><trkpt lat="43.221001576008" lon="12.164218577205103"><ele>578.4</ele><time>2026-03-29T10:09:55.887Z</time></trkpt><trkpt lat="43.22108084156694" lon="12.164310653052281"><ele>576.8</ele><time>2026-03-29T10:09:56.887Z</time></trkpt><trkpt lat="43.22114881571792" lon="12.164403704359707"><ele>575.2</ele><time>2026-03-29T10:09:57.887Z</time></trkpt><trkpt lat="43.221209128287164" lon="12.164511324936617"><ele>573.6</ele><time>2026-03-29T10:09:58.887Z</time></trkpt><trkpt lat="43.22126225322336" lon="12.164600809025048"><ele>572.0</ele><time>2026-03-29T10:09:59.887Z</time></trkpt><trkpt lat="43.22133070603978" lon="12.164713160247805"><ele>572.0</ele><time>2026-03-29T10:10:00.887Z</time></trkpt><trkpt lat="43.22139351903507" lon="12.164793181469662"><ele>572.0</ele><time>2026-03-29T10:10:01.886Z</time></trkpt><trkpt lat="43.221442038228844" lon="12.164866809748746"><ele>572.0</ele><time>2026-03-29T10:10:02.886Z</time></trkpt><trkpt lat="43.22139794558673" lon="12.164963549460145"><ele>572.0</ele><time>2026-03-29T10:10:05.886Z</time></trkpt><trkpt lat="43.22132147523976" lon="12.164963486696127"><ele>572.0</ele><time>2026-03-29T10:10:06.886Z</time></trkpt><trkpt lat="43.22124241563788" lon="12.164950080264045"><ele>572.0</ele><time>2026-03-29T10:10:07.886Z</time></trkpt><trkpt lat="43.22117826113408" lon="12.164955134093416"><ele>568.6666666666666</ele><time>2026-03-29T10:10:08.886Z</time></trkpt><trkpt lat="43.221171477449104" lon="12.165049513628448"><ele>565.3333333333333</ele><time>2026-03-29T10:10:10.886Z</time></trkpt><trkpt lat="43.22125643782018" lon="12.165151267072845"><ele>562.0</ele><time>2026-03-29T10:10:12.886Z</time></trkpt><trkpt lat="43.22131792282832" lon="12.165197128761662"><ele>558.6666666666666</ele><time>2026-03-29T10:10:13.889Z</time></trkpt><trkpt lat="43.22138233029566" lon="12.165224682428516"><ele>555.3333333333334</ele><time>2026-03-29T10:10:14.889Z</time></trkpt><trkpt lat="43.22146080811757" lon="12.165307175558805"><ele>552.0</ele><time>2026-03-29T10:10:16.888Z</time></trkpt><trkpt lat="43.22138328838356" lon="12.165453522483622"><ele>552.0</ele><time>2026-03-29T10:10:18.888Z</time></trkpt><trkpt lat="43.22131697232511" lon="12.165508201893672"><ele>552.0</ele><time>2026-03-29T10:10:19.889Z</time></trkpt><trkpt lat="43.22127000914089" lon="12.165573108227957"><ele>552.0</ele><time>2026-03-29T10:10:20.889Z</time></trkpt><trkpt lat="43.22121436622857" lon="12.165627731140717"><ele>552.0</ele><time>2026-03-29T10:10:21.889Z</time></trkpt><trkpt lat="43.2210994420521" lon="12.165665171141239"><ele>552.0</ele><time>2026-03-29T10:10:23.889Z</time></trkpt><trkpt lat="43.22100670279135" lon="12.165732344172952"><ele>552.0</ele><time>2026-03-29T10:10:25.889Z</time></trkpt><trkpt lat="43.2210094045814" lon="12.16583069002827"><ele>549.6666666666666</ele><time>2026-03-29T10:10:27.888Z</time></trkpt><trkpt lat="43.221032319721566" lon="12.165968951514724"><ele>547.3333333333334</ele><time>2026-03-29T10:10:29.888Z</time></trkpt><trkpt lat="43.221009554144786" lon="12.166056771674063"><ele>545.0</ele><time>2026-03-29T10:10:30.888Z</time></trkpt><trkpt lat="43.22097350855609" lon="12.166151138195167"><ele>542.6666666666667</ele><time>2026-03-29T10:10:31.888Z</time></trkpt><trkpt lat="43.22094134383087" lon="12.166253521588859"><ele>540.3333333333334</ele><time>2026-03-29T10:10:32.888Z</time></trkpt><trkpt lat="43.22092120232768" lon="12.166363566992809"><ele>538.0</ele><time>2026-03-29T10:10:33.888Z</time></trkpt><trkpt lat="43.220919900890664" lon="12.166466562591413"><ele>535.6666666666667</ele><time>2026-03-29T10:10:34.888Z</time></trkpt><trkpt lat="43.22092281290592" lon="12.166573574438747"><ele>533.3333333333334</ele><time>2026-03-29T10:10:35.888Z</time></trkpt><trkpt lat="43.22092216505113" lon="12.166678929125187"><ele>531.0</ele><time>2026-03-29T10:10:36.888Z</time></trkpt><trkpt lat="43.220960950365495" lon="12.166778957159256"><ele>528.6666666666666</ele><time>2026-03-29T10:10:38.888Z</time></trkpt><trkpt lat="43.22101593285988" lon="12.16682663503461"><ele>526.3333333333333</ele><time>2026-03-29T10:10:39.888Z</time></trkpt><trkpt lat="43.22106889693083" lon="12.166880695686134"><ele>524.0</ele><time>2026-03-29T10:10:40.888Z</time></trkpt><trkpt lat="43.2211071843419" lon="12.167046373495483"><ele>524.0</ele><time>2026-03-29T10:10:42.888Z</time></trkpt><trkpt lat="43.22110586605435" lon="12.16713674903886"><ele>524.0</ele><time>2026-03-29T10:10:43.888Z</time></trkpt><trkpt lat="43.22105367806492" lon="12.167288841685538"><ele>524.0</ele><time>2026-03-29T10:10:45.887Z</time></trkpt><trkpt lat="43.221002672801276" lon="12.16734337791386"><ele>524.0</ele><time>2026-03-29T10:10:46.886Z</time></trkpt><trkpt lat="43.22094191297337" lon="12.167422687314383"><ele>524.0</ele><time>2026-03-29T10:10:48.886Z</time></trkpt><trkpt lat="43.22098644702988" lon="12.167524458346021"><ele>524.0</ele><time>2026-03-29T10:10:50.885Z</time></trkpt><trkpt lat="43.22103681946024" lon="12.167660467594276"><ele>521.0</ele><time>2026-03-29T10:10:52.884Z</time></trkpt><trkpt lat="43.22104269993953" lon="12.167793094297268"><ele>518.0</ele><time>2026-03-29T10:10:54.884Z</time></trkpt><trkpt lat="43.22098133587764" lon="12.167913307106799"><ele>515.0</ele><time>2026-03-29T10:10:56.883Z</time></trkpt><trkpt lat="43.220921716493415" lon="12.167969973086025"><ele>512.0</ele><time>2026-03-29T10:10:57.883Z</time></trkpt><trkpt lat="43.2208244280799" lon="12.16802906029486"><ele>509.0</ele><time>2026-03-29T10:10:59.883Z</time></trkpt><trkpt lat="43.22074274260021" lon="12.168078616196247"><ele>508.99999999999994</ele><time>2026-03-29T10:11:01.882Z</time></trkpt><trkpt lat="43.2206644010456" lon="12.168115707733635"><ele>509.0</ele><time>2026-03-29T10:11:04.882Z</time></trkpt><trkpt lat="43.220604219846784" lon="12.16817834200269"><ele>509.0</ele><time>2026-03-29T10:11:07.882Z</time></trkpt><trkpt lat="43.220590753993704" lon="12.1682907438571"><ele>509.0</ele><time>2026-03-29T10:11:10.881Z</time></trkpt><trkpt lat="43.220612156679785" lon="12.168386908647403"><ele>508.99999999999994</ele><time>2026-03-29T10:11:12.881Z</time></trkpt><trkpt lat="43.22062692642238" lon="12.168512599076971"><ele>509.0</ele><time>2026-03-29T10:11:14.881Z</time></trkpt><trkpt lat="43.220643935680634" lon="12.1686230297298"><ele>504.66666666666663</ele><time>2026-03-29T10:11:16.881Z</time></trkpt><trkpt lat="43.22059250144745" lon="12.168691917666866"><ele>500.3333333333333</ele><time>2026-03-29T10:11:18.881Z</time></trkpt><trkpt lat="43.220476221789255" lon="12.168779453061209"><ele>496.0</ele><time>2026-03-29T10:11:20.88Z</time></trkpt><trkpt lat="43.2204108110416" lon="12.168835513752331"><ele>491.66666666666663</ele><time>2026-03-29T10:11:21.88Z</time></trkpt><trkpt lat="43.22033572334344" lon="12.168877703654124"><ele>487.3333333333333</ele><time>2026-03-29T10:11:22.88Z</time></trkpt><trkpt lat="43.220275995201774" lon="12.16892831436581"><ele>483.0</ele><time>2026-03-29T10:11:23.88Z</time></trkpt><trkpt lat="43.220205546643626" lon="12.168972622590518"><ele>483.0</ele><time>2026-03-29T10:11:24.88Z</time></trkpt><trkpt lat="43.220143678065284" lon="12.169017067256911"><ele>483.0</ele><time>2026-03-29T10:11:25.88Z</time></trkpt><trkpt lat="43.220090283085206" lon="12.16906669443629"><ele>483.0</ele><time>2026-03-29T10:11:26.88Z</time></trkpt><trkpt lat="43.22004379850066" lon="12.169150567978376"><ele>483.0</ele><time>2026-03-29T10:11:27.88Z</time></trkpt><trkpt lat="43.21999717771501" lon="12.16922909898934"><ele>483.0</ele><time>2026-03-29T10:11:28.88Z</time></trkpt><trkpt lat="43.219955285190814" lon="12.169305688251741"><ele>483.0</ele><time>2026-03-29T10:11:29.88Z</time></trkpt><trkpt lat="43.21990592222398" lon="12.169365092997321"><ele>483.0</ele><time>2026-03-29T10:11:30.88Z</time></trkpt><trkpt lat="43.21981667439395" lon="12.169425686980338"><ele>478.0</ele><time>2026-03-29T10:11:32.88Z</time></trkpt><trkpt lat="43.21973590582751" lon="12.169467237755551"><ele>472.99999999999994</ele><time>2026-03-29T10:11:34.88Z</time></trkpt><trkpt lat="43.219637591697655" lon="12.169509823022304"><ele>467.99999999999994</ele><time>2026-03-29T10:11:36.88Z</time></trkpt><trkpt lat="43.21952934444122" lon="12.16953334106261"><ele>463.0</ele><time>2026-03-29T10:11:38.88Z</time></trkpt><trkpt lat="43.21944548742001" lon="12.169553714757868"><ele>458.0</ele><time>2026-03-29T10:11:42.88Z</time></trkpt><trkpt lat="43.21940962285906" lon="12.169635355088495"><ele>457.99999999999994</ele><time>2026-03-29T10:11:44.879Z</time></trkpt><trkpt lat="43.219376109801246" lon="12.169731724685576"><ele>458.0</ele><time>2026-03-29T10:11:46.879Z</time></trkpt><trkpt lat="43.2192958554246" lon="12.169829141951091"><ele>458.0</ele><time>2026-03-29T10:11:48.879Z</time></trkpt><trkpt lat="43.219233645478525" lon="12.169865739321011"><ele>458.0</ele><time>2026-03-29T10:11:49.879Z</time></trkpt><trkpt lat="43.21915903861158" lon="12.169910070267282"><ele>457.99999999999994</ele><time>2026-03-29T10:11:50.879Z</time></trkpt><trkpt lat="43.21910349859937" lon="12.169961877194165"><ele>458.0</ele><time>2026-03-29T10:11:51.879Z</time></trkpt><trkpt lat="43.21905105330027" lon="12.170040342607422"><ele>457.4</ele><time>2026-03-29T10:11:52.879Z</time></trkpt><trkpt lat="43.21902013500124" lon="12.170135087483517"><ele>456.79999999999995</ele><time>2026-03-29T10:11:53.879Z</time></trkpt><trkpt lat="43.21899168720361" lon="12.170236618677343"><ele>456.2</ele><time>2026-03-29T10:11:54.879Z</time></trkpt><trkpt lat="43.218913702013836" lon="12.17034955079567"><ele>455.6</ele><time>2026-03-29T10:11:56.879Z</time></trkpt><trkpt lat="43.218787543703705" lon="12.170361991536781"><ele>455.0</ele><time>2026-03-29T10:11:58.879Z</time></trkpt><trkpt lat="43.21869872080386" lon="12.17033429101086"><ele>452.99999999999994</ele><time>2026-03-29T10:11:59.879Z</time></trkpt><trkpt lat="43.2186059570853" lon="12.170299589049355"><ele>451.0</ele><time>2026-03-29T10:12:00.879Z</time></trkpt><trkpt lat="43.21851592318617" lon="12.170261384711667"><ele>449.0</ele><time>2026-03-29T10:12:01.879Z</time></trkpt><trkpt lat="43.218448891355074" lon="12.170226541263744"><ele>447.0</ele><time>2026-03-29T10:12:02.879Z</time></trkpt><trkpt lat="43.21840205298792" lon="12.170164260338094"><ele>444.99999999999994</ele><time>2026-03-29T10:12:03.879Z</time></trkpt><trkpt lat="43.21837806867267" lon="12.170083250763238"><ele>443.0</ele><time>2026-03-29T10:12:04.879Z</time></trkpt><trkpt lat="43.218373544209356" lon="12.169986061430471"><ele>443.0</ele><time>2026-03-29T10:12:05.879Z</time></trkpt><trkpt lat="43.218372155071435" lon="12.169857267456718"><ele>442.99999999999994</ele><time>2026-03-29T10:12:06.879Z</time></trkpt><trkpt lat="43.21834795803855" lon="12.169717159019186"><ele>442.99999999999994</ele><time>2026-03-29T10:12:07.879Z</time></trkpt><trkpt lat="43.218298799988176" lon="12.169602160412401"><ele>443.0</ele><time>2026-03-29T10:12:08.879Z</time></trkpt><trkpt lat="43.21825156337303" lon="12.169485350170907"><ele>443.0</ele><time>2026-03-29T10:12:09.879Z</time></trkpt><trkpt lat="43.218223879125674" lon="12.16940226638868"><ele>442.99999999999994</ele><time>2026-03-29T10:12:10.879Z</time></trkpt><trkpt lat="43.21824775261591" lon="12.169265880599948"><ele>443.0</ele><time>2026-03-29T10:12:12.879Z</time></trkpt><trkpt lat="43.21829418126372" lon="12.169205275035258"><ele>443.0</ele><time>2026-03-29T10:12:13.879Z</time></trkpt><trkpt lat="43.2183497045998" lon="12.169112005442088"><ele>443.0</ele><time>2026-03-29T10:12:15.879Z</time></trkpt><trkpt lat="43.21826638075318" lon="12.169076806200765"><ele>442.99999999999994</ele><time>2026-03-29T10:12:26.881Z</time></trkpt><trkpt lat="43.21818935635368" lon="12.169118345667053"><ele>443.0</ele><time>2026-03-29T10:12:28.882Z</time></trkpt><trkpt lat="43.21809582687795" lon="12.169166314672001"><ele>439.4</ele><time>2026-03-29T10:12:30.882Z</time></trkpt><trkpt lat="43.217996783032575" lon="12.169242051970627"><ele>435.79999999999995</ele><time>2026-03-29T10:12:32.881Z</time></trkpt><trkpt lat="43.21792140264331" lon="12.169305665740014"><ele>432.2</ele><time>2026-03-29T10:12:34.881Z</time></trkpt><trkpt lat="43.21783507256557" lon="12.169377693390782"><ele>428.6</ele><time>2026-03-29T10:12:36.881Z</time></trkpt><trkpt lat="43.217771154216734" lon="12.169420918187745"><ele>425.0</ele><time>2026-03-29T10:12:37.881Z</time></trkpt><trkpt lat="43.217670118927494" lon="12.169505602831526"><ele>424.99999999999994</ele><time>2026-03-29T10:12:39.881Z</time></trkpt><trkpt lat="43.21760660447193" lon="12.16956112508977"><ele>425.0</ele><time>2026-03-29T10:12:40.881Z</time></trkpt><trkpt lat="43.21752477005622" lon="12.169600009821597"><ele>425.0</ele><time>2026-03-29T10:12:41.881Z</time></trkpt><trkpt lat="43.2174353058193" lon="12.169649019587283"><ele>425.0</ele><time>2026-03-29T10:12:43.881Z</time></trkpt><trkpt lat="43.217361777403994" lon="12.169681245780628"><ele>424.99999999999994</ele><time>2026-03-29T10:12:45.881Z</time></trkpt><trkpt lat="43.21728353782801" lon="12.16972624289582"><ele>425.0</ele><time>2026-03-29T10:12:47.881Z</time></trkpt><trkpt lat="43.21721694704071" lon="12.169749686254473"><ele>425.0</ele><time>2026-03-29T10:12:49.881Z</time></trkpt><trkpt lat="43.217158258160524" lon="12.169783415563233"><ele>425.0</ele><time>2026-03-29T10:12:53.881Z</time></trkpt><trkpt lat="43.21726099678378" lon="12.169718058687158"><ele>425.0</ele><time>2026-03-29T10:13:05.88Z</time></trkpt><trkpt lat="43.217338290533036" lon="12.169686845735713"><ele>425.0</ele><time>2026-03-29T10:13:06.88Z</time></trkpt><trkpt lat="43.21741915724283" lon="12.169650806788184"><ele>425.0</ele><time>2026-03-29T10:13:07.88Z</time></trkpt><trkpt lat="43.21751730843977" lon="12.169562877829177"><ele>425.0</ele><time>2026-03-29T10:13:09.88Z</time></trkpt><trkpt lat="43.21759467923341" lon="12.169500862671997"><ele>425.0</ele><time>2026-03-29T10:13:10.88Z</time></trkpt><trkpt lat="43.217675013888886" lon="12.169430427451948"><ele>425.0</ele><time>2026-03-29T10:13:11.88Z</time></trkpt><trkpt lat="43.21777730195938" lon="12.169358042719283"><ele>425.0</ele><time>2026-03-29T10:13:12.88Z</time></trkpt><trkpt lat="43.21786970683798" lon="12.169290788665114"><ele>425.0</ele><time>2026-03-29T10:13:13.88Z</time></trkpt><trkpt lat="43.21797247711497" lon="12.169212954617262"><ele>425.0</ele><time>2026-03-29T10:13:14.88Z</time></trkpt><trkpt lat="43.21806231961641" lon="12.169146928132525"><ele>425.0</ele><time>2026-03-29T10:13:15.88Z</time></trkpt><trkpt lat="43.21816319763954" lon="12.169093042143544"><ele>425.0</ele><time>2026-03-29T10:13:16.88Z</time></trkpt><trkpt lat="43.218267645199084" lon="12.169049338236404"><ele>425.0</ele><time>2026-03-29T10:13:17.88Z</time></trkpt><trkpt lat="43.21835733363714" lon="12.16899563327531"><ele>425.0</ele><time>2026-03-29T10:13:18.88Z</time></trkpt><trkpt lat="43.218433540269245" lon="12.168945134107615"><ele>426.4</ele><time>2026-03-29T10:13:19.88Z</time></trkpt><trkpt lat="43.21849670266971" lon="12.168895881818376"><ele>427.8</ele><time>2026-03-29T10:13:20.88Z</time></trkpt><trkpt lat="43.218616560352814" lon="12.168784927829424"><ele>429.20000000000005</ele><time>2026-03-29T10:13:22.88Z</time></trkpt><trkpt lat="43.21866953705955" lon="12.168724659341617"><ele>430.6</ele><time>2026-03-29T10:13:23.88Z</time></trkpt><trkpt lat="43.218743567678004" lon="12.168610535921642"><ele>432.0</ele><time>2026-03-29T10:13:25.88Z</time></trkpt><trkpt lat="43.21879825925017" lon="12.168559498612051"><ele>432.0</ele><time>2026-03-29T10:13:26.88Z</time></trkpt><trkpt lat="43.21886759975949" lon="12.168479592857391"><ele>432.00000000000006</ele><time>2026-03-29T10:13:28.88Z</time></trkpt><trkpt lat="43.21894919574533" lon="12.168365727250569"><ele>432.00000000000006</ele><time>2026-03-29T10:13:30.88Z</time></trkpt><trkpt lat="43.219003219050336" lon="12.168297336646676"><ele>432.0</ele><time>2026-03-29T10:13:31.88Z</time></trkpt><trkpt lat="43.219068922243295" lon="12.168224482734296"><ele>432.0</ele><time>2026-03-29T10:13:32.88Z</time></trkpt><trkpt lat="43.21914903714344" lon="12.168147905722028"><ele>438.40000000000003</ele><time>2026-03-29T10:13:33.88Z</time></trkpt><trkpt lat="43.21920276390239" lon="12.168082419137917"><ele>444.80000000000007</ele><time>2026-03-29T10:13:34.88Z</time></trkpt><trkpt lat="43.21927987324627" lon="12.167984589071507"><ele>451.2</ele><time>2026-03-29T10:13:36.88Z</time></trkpt><trkpt lat="43.21932326514337" lon="12.167867310019398"><ele>457.6</ele><time>2026-03-29T10:13:38.88Z</time></trkpt><trkpt lat="43.21933897616332" lon="12.167756466930463"><ele>464.0</ele><time>2026-03-29T10:13:39.88Z</time></trkpt><trkpt lat="43.21935027136252" lon="12.167626904689252"><ele>464.00000000000006</ele><time>2026-03-29T10:13:40.88Z</time></trkpt><trkpt lat="43.21937575635176" lon="12.16753748851752"><ele>464.0</ele><time>2026-03-29T10:13:41.88Z</time></trkpt><trkpt lat="43.219413135569596" lon="12.167442097754043"><ele>464.00000000000006</ele><time>2026-03-29T10:13:43.88Z</time></trkpt><trkpt lat="43.219414872619524" lon="12.167340256370252"><ele>464.00000000000006</ele><time>2026-03-29T10:13:46.88Z</time></trkpt><trkpt lat="43.219443798816044" lon="12.167261135221223"><ele>464.0</ele><time>2026-03-29T10:13:59.879Z</time></trkpt><trkpt lat="43.2194401180014" lon="12.167367041705614"><ele>464.00000000000006</ele><time>2026-03-29T10:14:25.881Z</time></trkpt><trkpt lat="43.21941243270167" lon="12.167472772395232"><ele>464.00000000000006</ele><time>2026-03-29T10:14:27.881Z</time></trkpt><trkpt lat="43.219395693472535" lon="12.167556872773478"><ele>464.0</ele><time>2026-03-29T10:14:28.881Z</time></trkpt><trkpt lat="43.219374318191846" lon="12.167718789192804"><ele>464.0</ele><time>2026-03-29T10:14:30.882Z</time></trkpt><trkpt lat="43.21933960472022" lon="12.16781752091134"><ele>464.0</ele><time>2026-03-29T10:14:32.881Z</time></trkpt><trkpt lat="43.219303001541526" lon="12.167912669064016"><ele>464.0</ele><time>2026-03-29T10:14:34.882Z</time></trkpt><trkpt lat="43.219216868354074" lon="12.168021478670148"><ele>464.0</ele><time>2026-03-29T10:14:36.881Z</time></trkpt><trkpt lat="43.21915309022669" lon="12.16809234671289"><ele>464.0</ele><time>2026-03-29T10:14:37.882Z</time></trkpt><trkpt lat="43.21910268372126" lon="12.16816323873582"><ele>464.0</ele><time>2026-03-29T10:14:38.882Z</time></trkpt><trkpt lat="43.21904720672734" lon="12.168262903360542"><ele>464.0</ele><time>2026-03-29T10:14:40.882Z</time></trkpt><trkpt lat="43.218985428582016" lon="12.168361389912464"><ele>464.0</ele><time>2026-03-29T10:14:42.882Z</time></trkpt><trkpt lat="43.218888024392484" lon="12.168470957751017"><ele>464.0</ele><time>2026-03-29T10:14:44.882Z</time></trkpt><trkpt lat="43.218793999507895" lon="12.168583388843956"><ele>457.6</ele><time>2026-03-29T10:14:46.882Z</time></trkpt><trkpt lat="43.21871385765067" lon="12.168691454796216"><ele>451.2</ele><time>2026-03-29T10:14:48.882Z</time></trkpt><trkpt lat="43.21866249076072" lon="12.168796339318536"><ele>444.80000000000007</ele><time>2026-03-29T10:14:50.882Z</time></trkpt><trkpt lat="43.218566514843616" lon="12.168883406920775"><ele>438.40000000000003</ele><time>2026-03-29T10:14:52.882Z</time></trkpt><trkpt lat="43.218452753966474" lon="12.168942942431547"><ele>432.0</ele><time>2026-03-29T10:14:54.882Z</time></trkpt><trkpt lat="43.21839007233582" lon="12.169010956517807"><ele>434.20000000000005</ele><time>2026-03-29T10:14:56.881Z</time></trkpt><trkpt lat="43.218349037953544" lon="12.169112714826209"><ele>436.40000000000003</ele><time>2026-03-29T10:14:58.881Z</time></trkpt><trkpt lat="43.2182793662664" lon="12.169254564905135"><ele>438.59999999999997</ele><time>2026-03-29T10:15:00.881Z</time></trkpt><trkpt lat="43.218257079331664" lon="12.169392319428795"><ele>440.79999999999995</ele><time>2026-03-29T10:15:02.881Z</time></trkpt><trkpt lat="43.218290821361336" lon="12.169538726502468"><ele>443.0</ele><time>2026-03-29T10:15:05.881Z</time></trkpt><trkpt lat="43.218332134265275" lon="12.16964201481993"><ele>442.99999999999994</ele><time>2026-03-29T10:15:07.881Z</time></trkpt><trkpt lat="43.21837462234571" lon="12.169810975696382"><ele>443.0</ele><time>2026-03-29T10:15:09.881Z</time></trkpt><trkpt lat="43.21838325979029" lon="12.169904972495724"><ele>443.0</ele><time>2026-03-29T10:15:10.881Z</time></trkpt><trkpt lat="43.21838643660504" lon="12.170006469292563"><ele>443.0</ele><time>2026-03-29T10:15:11.881Z</time></trkpt><trkpt lat="43.218391175284914" lon="12.170146997528057"><ele>442.99999999999994</ele><time>2026-03-29T10:15:13.881Z</time></trkpt><trkpt lat="43.21843838386883" lon="12.170211892364302"><ele>443.0</ele><time>2026-03-29T10:15:15.881Z</time></trkpt><trkpt lat="43.218533779361294" lon="12.170255341905822"><ele>443.0</ele><time>2026-03-29T10:15:17.881Z</time></trkpt><trkpt lat="43.218619029467554" lon="12.170283241821332"><ele>442.99999999999994</ele><time>2026-03-29T10:15:18.881Z</time></trkpt><trkpt lat="43.21871322011356" lon="12.170307114415376"><ele>442.99999999999994</ele><time>2026-03-29T10:15:19.881Z</time></trkpt><trkpt lat="43.21880569691442" lon="12.170319307803044"><ele>443.0</ele><time>2026-03-29T10:15:20.881Z</time></trkpt><trkpt lat="43.21888007696668" lon="12.170323906344072"><ele>443.0</ele><time>2026-03-29T10:15:21.881Z</time></trkpt><trkpt lat="43.218979675952674" lon="12.170296678729175"><ele>445.4</ele><time>2026-03-29T10:15:23.881Z</time></trkpt><trkpt lat="43.21908809038321" lon="12.170258616290022"><ele>447.79999999999995</ele><time>2026-03-29T10:15:25.881Z</time></trkpt><trkpt lat="43.21918390863938" lon="12.170251040621116"><ele>450.2</ele><time>2026-03-29T10:15:27.881Z</time></trkpt><trkpt lat="43.2192827735921" lon="12.170227048382392"><ele>452.6</ele><time>2026-03-29T10:15:29.881Z</time></trkpt><trkpt lat="43.21939999225837" lon="12.17024578370662"><ele>455.0</ele><time>2026-03-29T10:15:31.881Z</time></trkpt><trkpt lat="43.219475000683595" lon="12.170306578259392"><ele>454.99999999999994</ele><time>2026-03-29T10:15:32.881Z</time></trkpt><trkpt lat="43.21954817205997" lon="12.17035161360223"><ele>455.0</ele><time>2026-03-29T10:15:33.881Z</time></trkpt><trkpt lat="43.219613091474294" lon="12.170395465495021"><ele>455.0</ele><time>2026-03-29T10:15:34.881Z</time></trkpt><trkpt lat="43.219678642543435" lon="12.170409405203229"><ele>455.0</ele><time>2026-03-29T10:15:35.881Z</time></trkpt><trkpt lat="43.219811036839744" lon="12.17042057857768"><ele>454.99999999999994</ele><time>2026-03-29T10:15:37.881Z</time></trkpt><trkpt lat="43.21987238356161" lon="12.170378786403385"><ele>455.0</ele><time>2026-03-29T10:15:39.881Z</time></trkpt><trkpt lat="43.21996252399456" lon="12.17034251310576"><ele>455.8333333333333</ele><time>2026-03-29T10:15:41.881Z</time></trkpt><trkpt lat="43.22006736579242" lon="12.170336466077941"><ele>456.66666666666663</ele><time>2026-03-29T10:15:43.881Z</time></trkpt><trkpt lat="43.22014289180629" lon="12.170323389233696"><ele>457.5</ele><time>2026-03-29T10:15:44.881Z</time></trkpt><trkpt lat="43.220211536169714" lon="12.170298728632332"><ele>458.33333333333337</ele><time>2026-03-29T10:15:45.881Z</time></trkpt><trkpt lat="43.22027705944506" lon="12.170259874660683"><ele>459.1666666666667</ele><time>2026-03-29T10:15:46.881Z</time></trkpt><trkpt lat="43.220336110458895" lon="12.170216540291552"><ele>460.0</ele><time>2026-03-29T10:15:47.881Z</time></trkpt><trkpt lat="43.220400391591305" lon="12.170098454847206"><ele>460.00000000000006</ele><time>2026-03-29T10:15:49.88Z</time></trkpt><trkpt lat="43.22045860245591" lon="12.170046114256634"><ele>460.0</ele><time>2026-03-29T10:15:50.88Z</time></trkpt><trkpt lat="43.2205243136166" lon="12.170003485428996"><ele>460.0</ele><time>2026-03-29T10:15:51.88Z</time></trkpt><trkpt lat="43.22059266061535" lon="12.169982482205125"><ele>460.0</ele><time>2026-03-29T10:15:53.88Z</time></trkpt><trkpt lat="43.22070398982555" lon="12.1699565061062"><ele>460.00000000000006</ele><time>2026-03-29T10:15:55.88Z</time></trkpt><trkpt lat="43.22077767709422" lon="12.169929622979945"><ele>460.0</ele><time>2026-03-29T10:15:56.88Z</time></trkpt><trkpt lat="43.22085995458282" lon="12.16989133916459"><ele>462.33333333333337</ele><time>2026-03-29T10:15:57.88Z</time></trkpt><trkpt lat="43.22093038420018" lon="12.169839338788082"><ele>464.6666666666667</ele><time>2026-03-29T10:15:58.88Z</time></trkpt><trkpt lat="43.22098841238167" lon="12.169794283617696"><ele>467.0</ele><time>2026-03-29T10:15:59.88Z</time></trkpt><trkpt lat="43.22106823448035" lon="12.169743354023497"><ele>469.33333333333337</ele><time>2026-03-29T10:16:00.88Z</time></trkpt><trkpt lat="43.2211398910089" lon="12.169661874478717"><ele>471.6666666666667</ele><time>2026-03-29T10:16:01.88Z</time></trkpt><trkpt lat="43.22118480353909" lon="12.169590151118351"><ele>474.0</ele><time>2026-03-29T10:16:02.88Z</time></trkpt><trkpt lat="43.22126587607294" lon="12.169467899991211"><ele>474.0</ele><time>2026-03-29T10:16:04.88Z</time></trkpt><trkpt lat="43.22133800267985" lon="12.169332501037855"><ele>474.0</ele><time>2026-03-29T10:16:06.88Z</time></trkpt><trkpt lat="43.22138836278097" lon="12.169247780955905"><ele>474.0</ele><time>2026-03-29T10:16:07.88Z</time></trkpt><trkpt lat="43.221449601882675" lon="12.169128471006434"><ele>474.0</ele><time>2026-03-29T10:16:08.88Z</time></trkpt><trkpt lat="43.22151148058979" lon="12.16900832400415"><ele>474.0</ele><time>2026-03-29T10:16:09.88Z</time></trkpt><trkpt lat="43.2215627917544" lon="12.168892705806892"><ele>474.0</ele><time>2026-03-29T10:16:10.88Z</time></trkpt><trkpt lat="43.22166644312403" lon="12.168787635366717"><ele>474.0</ele><time>2026-03-29T10:16:12.88Z</time></trkpt><trkpt lat="43.22172609091431" lon="12.168701411408282"><ele>474.0</ele><time>2026-03-29T10:16:14.88Z</time></trkpt><trkpt lat="43.22180566708104" lon="12.16867000939842"><ele>474.0</ele><time>2026-03-29T10:16:16.88Z</time></trkpt><trkpt lat="43.22188882828079" lon="12.168739112318896"><ele>474.0</ele><time>2026-03-29T10:16:19.88Z</time></trkpt><trkpt lat="43.22193109259658" lon="12.16882069556832"><ele>474.0</ele><time>2026-03-29T10:16:20.88Z</time></trkpt><trkpt lat="43.22198071052061" lon="12.16890396113705"><ele>474.0</ele><time>2026-03-29T10:16:21.88Z</time></trkpt><trkpt lat="43.2220340382955" lon="12.168964135426478"><ele>474.0</ele><time>2026-03-29T10:16:22.88Z</time></trkpt><trkpt lat="43.222088850551906" lon="12.16907467352105"><ele>474.0</ele><time>2026-03-29T10:16:24.88Z</time></trkpt><trkpt lat="43.2220848227925" lon="12.169198179866694"><ele>474.0</ele><time>2026-03-29T10:16:26.88Z</time></trkpt><trkpt lat="43.2221528874364" lon="12.169253367677841"><ele>474.0</ele><time>2026-03-29T10:16:30.881Z</time></trkpt><trkpt lat="43.22223723855376" lon="12.169269388804254"><ele>470.2</ele><time>2026-03-29T10:16:33.881Z</time></trkpt><trkpt lat="43.22221911870897" lon="12.169377667966302"><ele>466.4</ele><time>2026-03-29T10:16:36.882Z</time></trkpt><trkpt lat="43.2221884188088" lon="12.169506525080262"><ele>462.6</ele><time>2026-03-29T10:16:38.881Z</time></trkpt><trkpt lat="43.22217246962059" lon="12.169740082963767"><ele>458.8</ele><time>2026-03-29T10:16:40.882Z</time></trkpt><trkpt lat="43.22215030624625" lon="12.169850603298649"><ele>455.0</ele><time>2026-03-29T10:16:41.882Z</time></trkpt><trkpt lat="43.2221558979063" lon="12.17000400919306"><ele>452.3333333333333</ele><time>2026-03-29T10:16:44.881Z</time></trkpt><trkpt lat="43.22217093809558" lon="12.170117779012726"><ele>449.66666666666663</ele><time>2026-03-29T10:16:45.881Z</time></trkpt><trkpt lat="43.222201724963355" lon="12.170199194500755"><ele>447.0</ele><time>2026-03-29T10:16:46.881Z</time></trkpt><trkpt lat="43.222281540151826" lon="12.170299998793476"><ele>444.33333333333337</ele><time>2026-03-29T10:16:48.881Z</time></trkpt><trkpt lat="43.22235318119516" lon="12.170363328525006"><ele>441.6666666666667</ele><time>2026-03-29T10:16:50.881Z</time></trkpt><trkpt lat="43.222369328404554" lon="12.170454878645279"><ele>439.0</ele><time>2026-03-29T10:16:52.881Z</time></trkpt><trkpt lat="43.222383274423734" lon="12.170561541461028"><ele>439.00000000000006</ele><time>2026-03-29T10:16:53.881Z</time></trkpt><trkpt lat="43.22243079346783" lon="12.170668885616394"><ele>439.0</ele><time>2026-03-29T10:16:54.881Z</time></trkpt><trkpt lat="43.222492753631016" lon="12.17076580108724"><ele>439.0</ele><time>2026-03-29T10:16:56.881Z</time></trkpt><trkpt lat="43.222512566996606" lon="12.170879902434656"><ele>439.0</ele><time>2026-03-29T10:16:58.881Z</time></trkpt><trkpt lat="43.22251924699948" lon="12.170983424559727"><ele>439.00000000000006</ele><time>2026-03-29T10:16:59.881Z</time></trkpt><trkpt lat="43.22254924327505" lon="12.17111662567691"><ele>439.0</ele><time>2026-03-29T10:17:00.881Z</time></trkpt><trkpt lat="43.22260275018383" lon="12.171254974829182"><ele>436.6</ele><time>2026-03-29T10:17:01.881Z</time></trkpt><trkpt lat="43.222629482658235" lon="12.171356451081115"><ele>434.2</ele><time>2026-03-29T10:17:02.881Z</time></trkpt><trkpt lat="43.22259701950693" lon="12.17147467945492"><ele>431.80000000000007</ele><time>2026-03-29T10:17:03.881Z</time></trkpt><trkpt lat="43.22252971290752" lon="12.1716390046652"><ele>429.40000000000003</ele><time>2026-03-29T10:17:04.881Z</time></trkpt><trkpt lat="43.2224693001605" lon="12.171794979021776"><ele>427.0</ele><time>2026-03-29T10:17:05.881Z</time></trkpt><trkpt lat="43.22243960911614" lon="12.171953541234554"><ele>426.6</ele><time>2026-03-29T10:17:06.881Z</time></trkpt><trkpt lat="43.22241602897755" lon="12.172088927348435"><ele>426.20000000000005</ele><time>2026-03-29T10:17:07.881Z</time></trkpt><trkpt lat="43.222391466969164" lon="12.172212493068095"><ele>425.8</ele><time>2026-03-29T10:17:08.881Z</time></trkpt><trkpt lat="43.22239457931244" lon="12.172327417943654"><ele>425.4</ele><time>2026-03-29T10:17:09.881Z</time></trkpt><trkpt lat="43.222372888020985" lon="12.172501406898405"><ele>425.0</ele><time>2026-03-29T10:17:10.881Z</time></trkpt><trkpt lat="43.222345834179336" lon="12.172654583828852"><ele>420.8</ele><time>2026-03-29T10:17:11.881Z</time></trkpt><trkpt lat="43.22229618011373" lon="12.172798812462695"><ele>416.6</ele><time>2026-03-29T10:17:12.881Z</time></trkpt><trkpt lat="43.22224493339335" lon="12.172929861891982"><ele>412.4</ele><time>2026-03-29T10:17:13.881Z</time></trkpt><trkpt lat="43.222190212225435" lon="12.1730330989111"><ele>408.2</ele><time>2026-03-29T10:17:14.881Z</time></trkpt><trkpt lat="43.22208381535935" lon="12.173132637305127"><ele>404.0</ele><time>2026-03-29T10:17:16.881Z</time></trkpt><trkpt lat="43.22200078849143" lon="12.173156811980798"><ele>405.0</ele><time>2026-03-29T10:17:17.881Z</time></trkpt><trkpt lat="43.2219269634918" lon="12.173207007133346"><ele>406.0</ele><time>2026-03-29T10:17:18.88Z</time></trkpt><trkpt lat="43.22188784370643" lon="12.173275049727877"><ele>407.0</ele><time>2026-03-29T10:17:19.88Z</time></trkpt><trkpt lat="43.221866223660854" lon="12.173475372475004"><ele>408.0</ele><time>2026-03-29T10:17:21.88Z</time></trkpt><trkpt lat="43.22185585996154" lon="12.17358607697695"><ele>409.0</ele><time>2026-03-29T10:17:22.88Z</time></trkpt><trkpt lat="43.22186736814685" lon="12.173720133438357"><ele>409.0</ele><time>2026-03-29T10:17:23.88Z</time></trkpt><trkpt lat="43.22190272613711" lon="12.173929360986865"><ele>409.0</ele><time>2026-03-29T10:17:24.88Z</time></trkpt><trkpt lat="43.22193714126772" lon="12.1741135405723"><ele>409.0</ele><time>2026-03-29T10:17:25.88Z</time></trkpt><trkpt lat="43.22195248966231" lon="12.174275591872119"><ele>409.0</ele><time>2026-03-29T10:17:26.88Z</time></trkpt><trkpt lat="43.22199464754459" lon="12.174431791739906"><ele>408.1666666666667</ele><time>2026-03-29T10:17:27.88Z</time></trkpt><trkpt lat="43.222036523339476" lon="12.174532449887666"><ele>407.33333333333337</ele><time>2026-03-29T10:17:28.88Z</time></trkpt><trkpt lat="43.222082152682134" lon="12.174595921298863"><ele>406.5</ele><time>2026-03-29T10:17:29.88Z</time></trkpt><trkpt lat="43.22215731410049" lon="12.174676290597008"><ele>405.66666666666663</ele><time>2026-03-29T10:17:30.88Z</time></trkpt><trkpt lat="43.22223953180335" lon="12.174744727495248"><ele>404.8333333333333</ele><time>2026-03-29T10:17:31.88Z</time></trkpt><trkpt lat="43.22230868082009" lon="12.174797471692578"><ele>404.0</ele><time>2026-03-29T10:17:32.88Z</time></trkpt><trkpt lat="43.2224215936679" lon="12.174810019333997"><ele>404.75</ele><time>2026-03-29T10:17:33.88Z</time></trkpt><trkpt lat="43.22256223267397" lon="12.174834007109752"><ele>405.5</ele><time>2026-03-29T10:17:34.88Z</time></trkpt><trkpt lat="43.22272130186347" lon="12.17482987480361"><ele>406.25</ele><time>2026-03-29T10:17:35.88Z</time></trkpt><trkpt lat="43.222861602560585" lon="12.174852499991804"><ele>407.0</ele><time>2026-03-29T10:17:36.88Z</time></trkpt><trkpt lat="43.22296377944343" lon="12.174892936548094"><ele>407.0</ele><time>2026-03-29T10:17:37.88Z</time></trkpt><trkpt lat="43.223051156244544" lon="12.174930339776267"><ele>407.0</ele><time>2026-03-29T10:17:38.88Z</time></trkpt><trkpt lat="43.22313765134668" lon="12.174958712846463"><ele>407.0</ele><time>2026-03-29T10:17:39.88Z</time></trkpt><trkpt lat="43.22322192810306" lon="12.174982028445296"><ele>407.0</ele><time>2026-03-29T10:17:40.88Z</time></trkpt><trkpt lat="43.223300406172584" lon="12.17501644547486"><ele>407.0</ele><time>2026-03-29T10:17:41.88Z</time></trkpt><trkpt lat="43.22335961848915" lon="12.175152652221515"><ele>407.0</ele><time>2026-03-29T10:17:43.88Z</time></trkpt><trkpt lat="43.223286070918896" lon="12.175297906328705"><ele>407.0</ele><time>2026-03-29T10:17:45.88Z</time></trkpt><trkpt lat="43.22322784395231" lon="12.17538249728153"><ele>407.0</ele><time>2026-03-29T10:17:46.88Z</time></trkpt><trkpt lat="43.2231651596049" lon="12.175413769118238"><ele>407.0</ele><time>2026-03-29T10:17:47.88Z</time></trkpt><trkpt lat="43.2230917340282" lon="12.175437284208511"><ele>407.0</ele><time>2026-03-29T10:17:48.88Z</time></trkpt><trkpt lat="43.22299999459689" lon="12.175477904810487"><ele>407.0</ele><time>2026-03-29T10:17:49.88Z</time></trkpt><trkpt lat="43.22290833324711" lon="12.175556501353233"><ele>407.0</ele><time>2026-03-29T10:17:50.88Z</time></trkpt><trkpt lat="43.222834943097595" lon="12.175656036644932"><ele>407.0</ele><time>2026-03-29T10:17:51.88Z</time></trkpt><trkpt lat="43.22275584313538" lon="12.17571790956675"><ele>407.0</ele><time>2026-03-29T10:17:52.88Z</time></trkpt><trkpt lat="43.22266204046857" lon="12.175745497449228"><ele>407.0</ele><time>2026-03-29T10:17:53.88Z</time></trkpt><trkpt lat="43.222564016628226" lon="12.17578994357129"><ele>405.0</ele><time>2026-03-29T10:17:54.88Z</time></trkpt><trkpt lat="43.22247729186684" lon="12.175881605180528"><ele>403.0</ele><time>2026-03-29T10:17:55.88Z</time></trkpt><trkpt lat="43.22240133045908" lon="12.175990415654677"><ele>401.0</ele><time>2026-03-29T10:17:56.88Z</time></trkpt><trkpt lat="43.222322971698425" lon="12.176125218638685"><ele>399.0</ele><time>2026-03-29T10:17:57.88Z</time></trkpt><trkpt lat="43.22222786808616" lon="12.176250890836608"><ele>396.6</ele><time>2026-03-29T10:17:58.88Z</time></trkpt><trkpt lat="43.22213629950094" lon="12.176369876977143"><ele>394.2</ele><time>2026-03-29T10:17:59.88Z</time></trkpt><trkpt lat="43.22207299904047" lon="12.176472391272085"><ele>391.8</ele><time>2026-03-29T10:18:00.88Z</time></trkpt><trkpt lat="43.2220228290704" lon="12.176539713449392"><ele>389.40000000000003</ele><time>2026-03-29T10:18:01.88Z</time></trkpt><trkpt lat="43.22196054635907" lon="12.176580829188094"><ele>387.0</ele><time>2026-03-29T10:18:02.88Z</time></trkpt><trkpt lat="43.22186113889303" lon="12.176571791311018"><ele>387.0</ele><time>2026-03-29T10:18:03.88Z</time></trkpt><trkpt lat="43.22173363565462" lon="12.176561156697728"><ele>387.0</ele><time>2026-03-29T10:18:04.88Z</time></trkpt><trkpt lat="43.22162445191613" lon="12.176551085360677"><ele>387.0</ele><time>2026-03-29T10:18:05.88Z</time></trkpt><trkpt lat="43.221535204106594" lon="12.176524945329566"><ele>387.0</ele><time>2026-03-29T10:18:06.88Z</time></trkpt><trkpt lat="43.221430760233275" lon="12.176490950366391"><ele>387.0</ele><time>2026-03-29T10:18:07.88Z</time></trkpt><trkpt lat="43.22131186920467" lon="12.176443518703794"><ele>385.0</ele><time>2026-03-29T10:18:08.88Z</time></trkpt><trkpt lat="43.22119131248916" lon="12.17639165949481"><ele>383.0</ele><time>2026-03-29T10:18:09.88Z</time></trkpt><trkpt lat="43.22107465413087" lon="12.176351712664188"><ele>381.0</ele><time>2026-03-29T10:18:10.879Z</time></trkpt><trkpt lat="43.22097471973228" lon="12.176311084676446"><ele>379.0</ele><time>2026-03-29T10:18:11.879Z</time></trkpt><trkpt lat="43.22089456043385" lon="12.176284045874219"><ele>377.0</ele><time>2026-03-29T10:18:12.879Z</time></trkpt><trkpt lat="43.220828119063924" lon="12.176270997836967"><ele>377.0</ele><time>2026-03-29T10:18:13.879Z</time></trkpt><trkpt lat="43.2207206512302" lon="12.176305190210977"><ele>377.0</ele><time>2026-03-29T10:18:15.879Z</time></trkpt><trkpt lat="43.22067167670364" lon="12.176378412400805"><ele>377.0</ele><time>2026-03-29T10:18:16.879Z</time></trkpt><trkpt lat="43.22060979074609" lon="12.176490971727713"><ele>377.0</ele><time>2026-03-29T10:18:17.879Z</time></trkpt><trkpt lat="43.220530002650605" lon="12.176586467142043"><ele>377.0</ele><time>2026-03-29T10:18:18.879Z</time></trkpt><trkpt lat="43.220419604663796" lon="12.176647246506754"><ele>371.6666666666667</ele><time>2026-03-29T10:18:19.879Z</time></trkpt><trkpt lat="43.22027695565983" lon="12.17669915600581"><ele>366.3333333333333</ele><time>2026-03-29T10:18:20.879Z</time></trkpt><trkpt lat="43.22012452391549" lon="12.176769550661634"><ele>361.0</ele><time>2026-03-29T10:18:21.879Z</time></trkpt><trkpt lat="43.219974880738256" lon="12.17684327506208"><ele>361.0</ele><time>2026-03-29T10:18:22.879Z</time></trkpt><trkpt lat="43.21983184366496" lon="12.176912722823308"><ele>361.0</ele><time>2026-03-29T10:18:23.879Z</time></trkpt><trkpt lat="43.21969703953999" lon="12.176980981403224"><ele>361.0</ele><time>2026-03-29T10:18:24.879Z</time></trkpt><trkpt lat="43.21958430469752" lon="12.177040980058601"><ele>361.0</ele><time>2026-03-29T10:18:25.879Z</time></trkpt><trkpt lat="43.219485215673565" lon="12.177093008891184"><ele>359.0</ele><time>2026-03-29T10:18:26.879Z</time></trkpt><trkpt lat="43.219399119467575" lon="12.177140938091423"><ele>357.0</ele><time>2026-03-29T10:18:27.879Z</time></trkpt><trkpt lat="43.21931563241227" lon="12.177178615479676"><ele>355.0</ele><time>2026-03-29T10:18:28.879Z</time></trkpt><trkpt lat="43.21923695465586" lon="12.177242901369333"><ele>353.0</ele><time>2026-03-29T10:18:29.879Z</time></trkpt><trkpt lat="43.21915253564828" lon="12.17732631652694"><ele>351.0</ele><time>2026-03-29T10:18:30.879Z</time></trkpt><trkpt lat="43.219064333472005" lon="12.177419198720887"><ele>348.25</ele><time>2026-03-29T10:18:31.879Z</time></trkpt><trkpt lat="43.21897658237873" lon="12.177519284273153"><ele>345.5</ele><time>2026-03-29T10:18:32.879Z</time></trkpt><trkpt lat="43.21887990378026" lon="12.177619722293414"><ele>342.75</ele><time>2026-03-29T10:18:33.879Z</time></trkpt><trkpt lat="43.218782626197" lon="12.177709926539983"><ele>340.0</ele><time>2026-03-29T10:18:34.879Z</time></trkpt><trkpt lat="43.218671510372076" lon="12.17780098079626"><ele>340.0</ele><time>2026-03-29T10:18:35.879Z</time></trkpt><trkpt lat="43.21856901114939" lon="12.177888460675554"><ele>340.0</ele><time>2026-03-29T10:18:36.881Z</time></trkpt><trkpt lat="43.218486135295045" lon="12.177974670804751"><ele>340.0</ele><time>2026-03-29T10:18:37.881Z</time></trkpt><trkpt lat="43.218411061034274" lon="12.178066047194118"><ele>340.0</ele><time>2026-03-29T10:18:38.881Z</time></trkpt><trkpt lat="43.21832705905106" lon="12.178152254897201"><ele>340.0</ele><time>2026-03-29T10:18:39.881Z</time></trkpt><trkpt lat="43.218234986270886" lon="12.1782177473092"><ele>339.2</ele><time>2026-03-29T10:18:40.881Z</time></trkpt><trkpt lat="43.21813386687927" lon="12.178274607022411"><ele>338.4</ele><time>2026-03-29T10:18:41.881Z</time></trkpt><trkpt lat="43.21803684101475" lon="12.178336764880608"><ele>337.6</ele><time>2026-03-29T10:18:42.881Z</time></trkpt><trkpt lat="43.217939667694274" lon="12.178398126852809"><ele>336.8</ele><time>2026-03-29T10:18:43.881Z</time></trkpt><trkpt lat="43.2178386024917" lon="12.178459879922327"><ele>336.0</ele><time>2026-03-29T10:18:44.881Z</time></trkpt><trkpt lat="43.21773857011647" lon="12.178510422644258"><ele>336.0</ele><time>2026-03-29T10:18:45.881Z</time></trkpt><trkpt lat="43.21764637663231" lon="12.178549863070241"><ele>336.0</ele><time>2026-03-29T10:18:46.882Z</time></trkpt><trkpt lat="43.21757165753595" lon="12.178568601045997"><ele>336.0</ele><time>2026-03-29T10:18:47.881Z</time></trkpt><trkpt lat="43.217475156468424" lon="12.178549558168385"><ele>336.0</ele><time>2026-03-29T10:18:49.881Z</time></trkpt><trkpt lat="43.2173982790007" lon="12.178620876518115"><ele>336.0</ele><time>2026-03-29T10:18:53.881Z</time></trkpt><trkpt lat="43.21731083972516" lon="12.17867993300102"><ele>334.8</ele><time>2026-03-29T10:18:55.881Z</time></trkpt><trkpt lat="43.21726079825259" lon="12.178738554831435"><ele>333.6</ele><time>2026-03-29T10:18:56.881Z</time></trkpt><trkpt lat="43.2171906157821" lon="12.178812056837375"><ele>332.4</ele><time>2026-03-29T10:18:57.881Z</time></trkpt><trkpt lat="43.217087331740096" lon="12.178898191269518"><ele>331.2</ele><time>2026-03-29T10:18:58.881Z</time></trkpt><trkpt lat="43.216977320972646" lon="12.17898705931116"><ele>330.0</ele><time>2026-03-29T10:18:59.881Z</time></trkpt><trkpt lat="43.216872227937316" lon="12.17907115277499"><ele>329.75</ele><time>2026-03-29T10:19:00.881Z</time></trkpt><trkpt lat="43.216762483601485" lon="12.179150780557112"><ele>329.5</ele><time>2026-03-29T10:19:01.881Z</time></trkpt><trkpt lat="43.21663898587321" lon="12.179254954841719"><ele>329.25</ele><time>2026-03-29T10:19:02.881Z</time></trkpt><trkpt lat="43.21651949725992" lon="12.17934857207483"><ele>329.0</ele><time>2026-03-29T10:19:03.881Z</time></trkpt><trkpt lat="43.216396541796364" lon="12.17944568709908"><ele>327.0</ele><time>2026-03-29T10:19:04.881Z</time></trkpt><trkpt lat="43.21626463233788" lon="12.179554226659604"><ele>325.0</ele><time>2026-03-29T10:19:05.881Z</time></trkpt><trkpt lat="43.21614217016119" lon="12.179663189040276"><ele>323.0</ele><time>2026-03-29T10:19:06.881Z</time></trkpt><trkpt lat="43.21603540346062" lon="12.179760294811663"><ele>321.0</ele><time>2026-03-29T10:19:07.881Z</time></trkpt><trkpt lat="43.215956222486454" lon="12.179854264980754"><ele>320.6666666666667</ele><time>2026-03-29T10:19:08.881Z</time></trkpt><trkpt lat="43.215898690402625" lon="12.179948696086093"><ele>320.3333333333333</ele><time>2026-03-29T10:19:09.881Z</time></trkpt><trkpt lat="43.21585649070803" lon="12.180054330445444"><ele>320.0</ele><time>2026-03-29T10:19:10.881Z</time></trkpt><trkpt lat="43.21584433962292" lon="12.18016449269697"><ele>319.66666666666663</ele><time>2026-03-29T10:19:11.881Z</time></trkpt><trkpt lat="43.21585386405038" lon="12.180269483274396"><ele>319.3333333333333</ele><time>2026-03-29T10:19:12.881Z</time></trkpt><trkpt lat="43.21589451551849" lon="12.180363904406319"><ele>319.0</ele><time>2026-03-29T10:19:13.881Z</time></trkpt><trkpt lat="43.21595270949892" lon="12.180437299362668"><ele>319.0</ele><time>2026-03-29T10:19:14.881Z</time></trkpt><trkpt lat="43.216019238463815" lon="12.18052026039092"><ele>319.0</ele><time>2026-03-29T10:19:15.881Z</time></trkpt><trkpt lat="43.216099286200574" lon="12.180613236037688"><ele>319.0</ele><time>2026-03-29T10:19:16.881Z</time></trkpt><trkpt lat="43.21618259154318" lon="12.180722588896943"><ele>319.0</ele><time>2026-03-29T10:19:17.881Z</time></trkpt><trkpt lat="43.21626538454388" lon="12.18080898688107"><ele>319.0</ele><time>2026-03-29T10:19:18.881Z</time></trkpt><trkpt lat="43.21637040176702" lon="12.180903173891034"><ele>318.75</ele><time>2026-03-29T10:19:19.88Z</time></trkpt><trkpt lat="43.21647285769288" lon="12.180993671278161"><ele>318.5</ele><time>2026-03-29T10:19:20.88Z</time></trkpt><trkpt lat="43.216574926269075" lon="12.181106376419125"><ele>318.25</ele><time>2026-03-29T10:19:21.88Z</time></trkpt><trkpt lat="43.21666436416189" lon="12.181237262833703"><ele>318.0</ele><time>2026-03-29T10:19:22.88Z</time></trkpt><trkpt lat="43.21676118489147" lon="12.181382948371223"><ele>318.25</ele><time>2026-03-29T10:19:23.88Z</time></trkpt><trkpt lat="43.21685575120958" lon="12.181534340519692"><ele>318.5</ele><time>2026-03-29T10:19:24.88Z</time></trkpt><trkpt lat="43.216955503612496" lon="12.18167492427217"><ele>318.75</ele><time>2026-03-29T10:19:25.88Z</time></trkpt><trkpt lat="43.21703255628529" lon="12.181794844948223"><ele>319.0</ele><time>2026-03-29T10:19:26.88Z</time></trkpt><trkpt lat="43.21711559061238" lon="12.181916563107785"><ele>319.0</ele><time>2026-03-29T10:19:27.88Z</time></trkpt><trkpt lat="43.21719516710061" lon="12.182045924097523"><ele>319.0</ele><time>2026-03-29T10:19:28.88Z</time></trkpt><trkpt lat="43.21727544417555" lon="12.18217924459319"><ele>319.0</ele><time>2026-03-29T10:19:29.88Z</time></trkpt><trkpt lat="43.21736947467343" lon="12.182314829241689"><ele>319.0</ele><time>2026-03-29T10:19:30.88Z</time></trkpt><trkpt lat="43.217474215734754" lon="12.182469216107245"><ele>320.3333333333333</ele><time>2026-03-29T10:19:31.88Z</time></trkpt><trkpt lat="43.2175863372567" lon="12.182640315794202"><ele>321.6666666666667</ele><time>2026-03-29T10:19:32.88Z</time></trkpt><trkpt lat="43.21769119195122" lon="12.182802996989734"><ele>323.0</ele><time>2026-03-29T10:19:33.88Z</time></trkpt><trkpt lat="43.217795692948314" lon="12.182966930317365"><ele>323.0</ele><time>2026-03-29T10:19:34.88Z</time></trkpt><trkpt lat="43.217891592703985" lon="12.183122095689075"><ele>323.0</ele><time>2026-03-29T10:19:35.88Z</time></trkpt><trkpt lat="43.21799543053184" lon="12.183266717661333"><ele>323.0</ele><time>2026-03-29T10:19:36.88Z</time></trkpt><trkpt lat="43.2180950252291" lon="12.18340774833626"><ele>323.0</ele><time>2026-03-29T10:19:37.88Z</time></trkpt><trkpt lat="43.21818974490887" lon="12.183552472645166"><ele>323.5</ele><time>2026-03-29T10:19:38.88Z</time></trkpt><trkpt lat="43.218284411996294" lon="12.183693427639227"><ele>324.0</ele><time>2026-03-29T10:19:39.88Z</time></trkpt><trkpt lat="43.21838361201462" lon="12.183831336457256"><ele>324.5</ele><time>2026-03-29T10:19:40.88Z</time></trkpt><trkpt lat="43.21847658762366" lon="12.18397092731929"><ele>325.0</ele><time>2026-03-29T10:19:41.88Z</time></trkpt><trkpt lat="43.218569452296684" lon="12.18410876597822"><ele>325.0</ele><time>2026-03-29T10:19:42.88Z</time></trkpt><trkpt lat="43.21866139499021" lon="12.184243489803062"><ele>325.0</ele><time>2026-03-29T10:19:43.88Z</time></trkpt><trkpt lat="43.21874163790959" lon="12.18437395209436"><ele>325.0</ele><time>2026-03-29T10:19:44.88Z</time></trkpt><trkpt lat="43.218823781167494" lon="12.184493404457358"><ele>325.0</ele><time>2026-03-29T10:19:45.88Z</time></trkpt><trkpt lat="43.218913235685584" lon="12.184620453074155"><ele>325.75</ele><time>2026-03-29T10:19:46.88Z</time></trkpt><trkpt lat="43.2189948479544" lon="12.18472483516764"><ele>326.5</ele><time>2026-03-29T10:19:47.88Z</time></trkpt><trkpt lat="43.21908986109577" lon="12.184825156055723"><ele>327.25</ele><time>2026-03-29T10:19:48.88Z</time></trkpt><trkpt lat="43.219173585030944" lon="12.184910962849226"><ele>328.0</ele><time>2026-03-29T10:19:49.88Z</time></trkpt><trkpt lat="43.21926315036206" lon="12.18501378644017"><ele>328.0</ele><time>2026-03-29T10:19:50.88Z</time></trkpt><trkpt lat="43.21935242671633" lon="12.185118898295508"><ele>328.0</ele><time>2026-03-29T10:19:51.88Z</time></trkpt><trkpt lat="43.21945077743997" lon="12.18520944114121"><ele>328.0</ele><time>2026-03-29T10:19:52.88Z</time></trkpt><trkpt lat="43.219549589790454" lon="12.185313008698428"><ele>328.0</ele><time>2026-03-29T10:19:53.88Z</time></trkpt><trkpt lat="43.21964547739659" lon="12.18542374802343"><ele>328.0</ele><time>2026-03-29T10:19:54.88Z</time></trkpt><trkpt lat="43.21975463496812" lon="12.185527027122662"><ele>328.0</ele><time>2026-03-29T10:19:55.88Z</time></trkpt><trkpt lat="43.21985856295611" lon="12.185631060180953"><ele>328.0</ele><time>2026-03-29T10:19:56.88Z</time></trkpt><trkpt lat="43.21996903073185" lon="12.185739968647722"><ele>328.0</ele><time>2026-03-29T10:19:57.88Z</time></trkpt><trkpt lat="43.22008155421067" lon="12.185846956230833"><ele>326.0</ele><time>2026-03-29T10:19:58.88Z</time></trkpt><trkpt lat="43.22019377441423" lon="12.185952163060634"><ele>324.0</ele><time>2026-03-29T10:19:59.88Z</time></trkpt><trkpt lat="43.22030105412761" lon="12.186045579209342"><ele>322.0</ele><time>2026-03-29T10:20:00.88Z</time></trkpt><trkpt lat="43.22040507463111" lon="12.18613064808762"><ele>320.0</ele><time>2026-03-29T10:20:01.88Z</time></trkpt><trkpt lat="43.220496681790635" lon="12.18620648263692"><ele>320.0</ele><time>2026-03-29T10:20:02.88Z</time></trkpt><trkpt lat="43.22056377155126" lon="12.18626228593775"><ele>320.0</ele><time>2026-03-29T10:20:03.88Z</time></trkpt><trkpt lat="43.22061428894956" lon="12.186313934066614"><ele>320.0</ele><time>2026-03-29T10:20:04.88Z</time></trkpt><trkpt lat="43.22071348965846" lon="12.186417968566476"><ele>320.0</ele><time>2026-03-29T10:20:06.88Z</time></trkpt><trkpt lat="43.220789332727186" lon="12.186479056255926"><ele>320.0</ele><time>2026-03-29T10:20:08.88Z</time></trkpt><trkpt lat="43.220824635269445" lon="12.186563262946281"><ele>320.0</ele><time>2026-03-29T10:20:10.88Z</time></trkpt><trkpt lat="43.22085524078453" lon="12.186742669846103"><ele>320.0</ele><time>2026-03-29T10:20:12.879Z</time></trkpt><trkpt lat="43.22084451087104" lon="12.186877652423401"><ele>320.0</ele><time>2026-03-29T10:20:13.879Z</time></trkpt><trkpt lat="43.2208504127386" lon="12.18702404135025"><ele>320.0</ele><time>2026-03-29T10:20:14.879Z</time></trkpt><trkpt lat="43.22084917025561" lon="12.187186427764699"><ele>320.0</ele><time>2026-03-29T10:20:15.879Z</time></trkpt><trkpt lat="43.22084215347436" lon="12.187359463524292"><ele>320.0</ele><time>2026-03-29T10:20:16.879Z</time></trkpt><trkpt lat="43.22083048424561" lon="12.187531362407608"><ele>320.0</ele><time>2026-03-29T10:20:17.879Z</time></trkpt><trkpt lat="43.220814414013425" lon="12.187691773494617"><ele>320.0</ele><time>2026-03-29T10:20:18.879Z</time></trkpt><trkpt lat="43.220801543308" lon="12.187860326310552"><ele>320.0</ele><time>2026-03-29T10:20:19.879Z</time></trkpt><trkpt lat="43.22078617081709" lon="12.188017733674533"><ele>319.2</ele><time>2026-03-29T10:20:20.879Z</time></trkpt><trkpt lat="43.22076654334257" lon="12.188177129462117"><ele>318.4</ele><time>2026-03-29T10:20:21.879Z</time></trkpt><trkpt lat="43.22073942683444" lon="12.188326831471949"><ele>317.6</ele><time>2026-03-29T10:20:22.879Z</time></trkpt><trkpt lat="43.220709899517985" lon="12.188471212085291"><ele>316.8</ele><time>2026-03-29T10:20:23.879Z</time></trkpt><trkpt lat="43.22068009175154" lon="12.188603274015874"><ele>316.0</ele><time>2026-03-29T10:20:24.879Z</time></trkpt><trkpt lat="43.2206467386734" lon="12.188724168351376"><ele>316.2</ele><time>2026-03-29T10:20:25.879Z</time></trkpt><trkpt lat="43.22060379827692" lon="12.188840647081943"><ele>316.40000000000003</ele><time>2026-03-29T10:20:26.879Z</time></trkpt><trkpt lat="43.22054537543513" lon="12.188965287878995"><ele>316.6</ele><time>2026-03-29T10:20:27.879Z</time></trkpt><trkpt lat="43.220469224038865" lon="12.18909713289345"><ele>316.8</ele><time>2026-03-29T10:20:28.879Z</time></trkpt><trkpt lat="43.22039355671982" lon="12.189231506987037"><ele>317.0</ele><time>2026-03-29T10:20:29.879Z</time></trkpt><trkpt lat="43.22031037250085" lon="12.189383973783324"><ele>317.0</ele><time>2026-03-29T10:20:30.879Z</time></trkpt><trkpt lat="43.220211472859155" lon="12.18950991213805"><ele>317.0</ele><time>2026-03-29T10:20:31.879Z</time></trkpt><trkpt lat="43.22013202031972" lon="12.189632181439164"><ele>317.0</ele><time>2026-03-29T10:20:32.879Z</time></trkpt><trkpt lat="43.220057361724194" lon="12.189759518447776"><ele>317.0</ele><time>2026-03-29T10:20:33.879Z</time></trkpt><trkpt lat="43.219978985925394" lon="12.189871522802168"><ele>316.5</ele><time>2026-03-29T10:20:34.879Z</time></trkpt><trkpt lat="43.21990926940938" lon="12.189988680799413"><ele>316.0</ele><time>2026-03-29T10:20:35.879Z</time></trkpt><trkpt lat="43.21984413579735" lon="12.190113438123177"><ele>315.5</ele><time>2026-03-29T10:20:36.879Z</time></trkpt><trkpt lat="43.21976207410931" lon="12.19023579352762"><ele>315.0</ele><time>2026-03-29T10:20:37.879Z</time></trkpt><trkpt lat="43.21967720926125" lon="12.190365764231265"><ele>315.0</ele><time>2026-03-29T10:20:38.879Z</time></trkpt><trkpt lat="43.21960200916246" lon="12.19050981320037"><ele>315.0</ele><time>2026-03-29T10:20:39.879Z</time></trkpt><trkpt lat="43.21951858086278" lon="12.190648491869036"><ele>315.0</ele><time>2026-03-29T10:20:40.879Z</time></trkpt><trkpt lat="43.21943089943901" lon="12.190782858635014"><ele>315.0</ele><time>2026-03-29T10:20:41.879Z</time></trkpt><trkpt lat="43.21935858709328" lon="12.190897772623382"><ele>315.2</ele><time>2026-03-29T10:20:42.881Z</time></trkpt><trkpt lat="43.21929417946843" lon="12.190991825563358"><ele>315.4</ele><time>2026-03-29T10:20:43.881Z</time></trkpt><trkpt lat="43.21924370426414" lon="12.191082229242523"><ele>315.6</ele><time>2026-03-29T10:20:44.881Z</time></trkpt><trkpt lat="43.21920100147513" lon="12.191164239779605"><ele>315.8</ele><time>2026-03-29T10:20:45.882Z</time></trkpt><trkpt lat="43.219139118139736" lon="12.191278803423346"><ele>316.0</ele><time>2026-03-29T10:20:47.881Z</time></trkpt><trkpt lat="43.21904407351256" lon="12.19140539974414"><ele>315.3333333333333</ele><time>2026-03-29T10:20:49.882Z</time></trkpt><trkpt lat="43.2189818728804" lon="12.19145703522552"><ele>314.66666666666663</ele><time>2026-03-29T10:20:50.882Z</time></trkpt><trkpt lat="43.21890666279121" lon="12.191499682601368"><ele>314.0</ele><time>2026-03-29T10:20:51.881Z</time></trkpt><trkpt lat="43.21882408402192" lon="12.191534022924822"><ele>313.3333333333333</ele><time>2026-03-29T10:20:52.881Z</time></trkpt><trkpt lat="43.218729293731506" lon="12.19156295740868"><ele>312.6666666666667</ele><time>2026-03-29T10:20:53.881Z</time></trkpt><trkpt lat="43.218626360546985" lon="12.191593719599016"><ele>312.0</ele><time>2026-03-29T10:20:54.882Z</time></trkpt><trkpt lat="43.21851514173618" lon="12.191618314838855"><ele>312.0</ele><time>2026-03-29T10:20:55.881Z</time></trkpt><trkpt lat="43.21837331070797" lon="12.191638024112573"><ele>312.0</ele><time>2026-03-29T10:20:56.881Z</time></trkpt><trkpt lat="43.21821473616478" lon="12.191664718516384"><ele>312.0</ele><time>2026-03-29T10:20:57.881Z</time></trkpt><trkpt lat="43.218071479168124" lon="12.191686022063315"><ele>312.0</ele><time>2026-03-29T10:20:58.881Z</time></trkpt><trkpt lat="43.21792659822039" lon="12.19170877533286"><ele>312.0</ele><time>2026-03-29T10:20:59.881Z</time></trkpt><trkpt lat="43.21779189340054" lon="12.191726785084185"><ele>312.0</ele><time>2026-03-29T10:21:00.881Z</time></trkpt><trkpt lat="43.217657259188876" lon="12.191742365829947"><ele>312.0</ele><time>2026-03-29T10:21:01.881Z</time></trkpt><trkpt lat="43.21753390435769" lon="12.191758955900859"><ele>312.0</ele><time>2026-03-29T10:21:02.881Z</time></trkpt><trkpt lat="43.217403420467065" lon="12.191756290136878"><ele>312.25</ele><time>2026-03-29T10:21:03.881Z</time></trkpt><trkpt lat="43.2172729323799" lon="12.191765606090053"><ele>312.5</ele><time>2026-03-29T10:21:04.881Z</time></trkpt><trkpt lat="43.217155149521155" lon="12.191775642377184"><ele>312.75</ele><time>2026-03-29T10:21:05.881Z</time></trkpt><trkpt lat="43.217047098967896" lon="12.191789783203212"><ele>313.0</ele><time>2026-03-29T10:21:06.881Z</time></trkpt><trkpt lat="43.21693344468867" lon="12.191805928726343"><ele>313.0</ele><time>2026-03-29T10:21:07.881Z</time></trkpt><trkpt lat="43.21683153392144" lon="12.191815312779708"><ele>313.0</ele><time>2026-03-29T10:21:08.881Z</time></trkpt><trkpt lat="43.21673612486227" lon="12.191820966973943"><ele>313.0</ele><time>2026-03-29T10:21:09.881Z</time></trkpt><trkpt lat="43.21666554018586" lon="12.191826952043353"><ele>313.0</ele><time>2026-03-29T10:21:10.881Z</time></trkpt><trkpt lat="43.21654346893737" lon="12.191837268738658"><ele>313.0</ele><time>2026-03-29T10:21:12.881Z</time></trkpt><trkpt lat="43.216448801557306" lon="12.191863067044592"><ele>313.0</ele><time>2026-03-29T10:21:14.881Z</time></trkpt><trkpt lat="43.216416478344286" lon="12.19196491944209"><ele>313.0</ele><time>2026-03-29T10:21:16.881Z</time></trkpt><trkpt lat="43.21642935040596" lon="12.192055678732247"><ele>313.0</ele><time>2026-03-29T10:21:17.881Z</time></trkpt><trkpt lat="43.216453058711664" lon="12.192172347731065"><ele>313.0</ele><time>2026-03-29T10:21:18.881Z</time></trkpt><trkpt lat="43.2164737342512" lon="12.192286348472553"><ele>313.0</ele><time>2026-03-29T10:21:19.881Z</time></trkpt><trkpt lat="43.216496553518695" lon="12.19241225601392"><ele>313.0</ele><time>2026-03-29T10:21:20.881Z</time></trkpt><trkpt lat="43.21654541505885" lon="12.192543649069185"><ele>313.0</ele><time>2026-03-29T10:21:21.881Z</time></trkpt><trkpt lat="43.216623927141256" lon="12.19271846614197"><ele>313.0</ele><time>2026-03-29T10:21:22.881Z</time></trkpt><trkpt lat="43.216703803058046" lon="12.192881289283855"><ele>313.0</ele><time>2026-03-29T10:21:23.881Z</time></trkpt><trkpt lat="43.216773132325415" lon="12.193023575264686"><ele>313.0</ele><time>2026-03-29T10:21:24.881Z</time></trkpt><trkpt lat="43.21683467159153" lon="12.19317107683497"><ele>313.25</ele><time>2026-03-29T10:21:25.881Z</time></trkpt><trkpt lat="43.21689513248977" lon="12.19333682924614"><ele>313.5</ele><time>2026-03-29T10:21:26.881Z</time></trkpt><trkpt lat="43.216957967788375" lon="12.193494739243025"><ele>313.75</ele><time>2026-03-29T10:21:27.881Z</time></trkpt><trkpt lat="43.21703073681278" lon="12.193665578839557"><ele>314.0</ele><time>2026-03-29T10:21:28.881Z</time></trkpt><trkpt lat="43.21710595425291" lon="12.193836924310926"><ele>314.0</ele><time>2026-03-29T10:21:29.881Z</time></trkpt><trkpt lat="43.217173230094396" lon="12.19398458842781"><ele>314.0</ele><time>2026-03-29T10:21:30.881Z</time></trkpt><trkpt lat="43.21723727410343" lon="12.194145562493762"><ele>314.0</ele><time>2026-03-29T10:21:31.881Z</time></trkpt><trkpt lat="43.21730426862505" lon="12.194291902443624"><ele>314.0</ele><time>2026-03-29T10:21:32.881Z</time></trkpt><trkpt lat="43.217368679621856" lon="12.194432633394294"><ele>313.59999999999997</ele><time>2026-03-29T10:21:33.881Z</time></trkpt><trkpt lat="43.21742828753556" lon="12.194551064375714"><ele>313.2</ele><time>2026-03-29T10:21:34.881Z</time></trkpt><trkpt lat="43.21747107205167" lon="12.19467178779479"><ele>312.79999999999995</ele><time>2026-03-29T10:21:35.881Z</time></trkpt><trkpt lat="43.21749695104449" lon="12.194801566247868"><ele>312.4</ele><time>2026-03-29T10:21:36.88Z</time></trkpt><trkpt lat="43.217484280237194" lon="12.194910952584566"><ele>312.0</ele><time>2026-03-29T10:21:37.88Z</time></trkpt><trkpt lat="43.217455613798016" lon="12.195031990091204"><ele>312.0</ele><time>2026-03-29T10:21:38.88Z</time></trkpt><trkpt lat="43.21740479418809" lon="12.195197059329983"><ele>312.0</ele><time>2026-03-29T10:21:39.88Z</time></trkpt><trkpt lat="43.217355705784996" lon="12.195359105794152"><ele>312.0</ele><time>2026-03-29T10:21:40.88Z</time></trkpt><trkpt lat="43.217316570735385" lon="12.1954968899166"><ele>312.0</ele><time>2026-03-29T10:21:41.88Z</time></trkpt><trkpt lat="43.21728113216124" lon="12.195659543854573"><ele>312.0</ele><time>2026-03-29T10:21:42.88Z</time></trkpt><trkpt lat="43.21724323701498" lon="12.195820010735524"><ele>312.0</ele><time>2026-03-29T10:21:43.88Z</time></trkpt><trkpt lat="43.2172089270718" lon="12.195970651587047"><ele>312.0</ele><time>2026-03-29T10:21:44.88Z</time></trkpt><trkpt lat="43.21718044628216" lon="12.196107423618484"><ele>312.0</ele><time>2026-03-29T10:21:45.88Z</time></trkpt><trkpt lat="43.21715863927014" lon="12.196261256305974"><ele>312.0</ele><time>2026-03-29T10:21:46.88Z</time></trkpt><trkpt lat="43.21714753435241" lon="12.196414256395537"><ele>312.0</ele><time>2026-03-29T10:21:47.88Z</time></trkpt><trkpt lat="43.21714800602481" lon="12.196588559403041"><ele>312.0</ele><time>2026-03-29T10:21:48.88Z</time></trkpt><trkpt lat="43.21716581769567" lon="12.196783587195382"><ele>312.0</ele><time>2026-03-29T10:21:49.88Z</time></trkpt><trkpt lat="43.21720105786294" lon="12.196998099279895"><ele>311.6666666666667</ele><time>2026-03-29T10:21:50.88Z</time></trkpt><trkpt lat="43.21723612647938" lon="12.197224664438878"><ele>311.33333333333337</ele><time>2026-03-29T10:21:51.88Z</time></trkpt><trkpt lat="43.21727009011349" lon="12.197472908511804"><ele>311.0</ele><time>2026-03-29T10:21:52.88Z</time></trkpt><trkpt lat="43.217297154036714" lon="12.197719788594846"><ele>310.75</ele><time>2026-03-29T10:21:53.88Z</time></trkpt><trkpt lat="43.21732066478552" lon="12.19794507910287"><ele>310.5</ele><time>2026-03-29T10:21:54.88Z</time></trkpt><trkpt lat="43.217335022915016" lon="12.19813688290597"><ele>310.25</ele><time>2026-03-29T10:21:55.88Z</time></trkpt><trkpt lat="43.217359784763474" lon="12.19832017907898"><ele>310.0</ele><time>2026-03-29T10:21:56.88Z</time></trkpt><trkpt lat="43.217398385528554" lon="12.198516175485848"><ele>310.0</ele><time>2026-03-29T10:21:57.88Z</time></trkpt><trkpt lat="43.217453217036315" lon="12.198698083843837"><ele>310.0</ele><time>2026-03-29T10:21:58.88Z</time></trkpt><trkpt lat="43.21751857181344" lon="12.198860692123997"><ele>310.0</ele><time>2026-03-29T10:21:59.88Z</time></trkpt><trkpt lat="43.21759139051776" lon="12.199019754225587"><ele>310.0</ele><time>2026-03-29T10:22:00.88Z</time></trkpt><trkpt lat="43.21767182891113" lon="12.199203540000441"><ele>310.0</ele><time>2026-03-29T10:22:01.88Z</time></trkpt><trkpt lat="43.21774999538737" lon="12.199407231296323"><ele>310.0</ele><time>2026-03-29T10:22:02.88Z</time></trkpt><trkpt lat="43.21783186696252" lon="12.1996168926211"><ele>310.0</ele><time>2026-03-29T10:22:03.88Z</time></trkpt><trkpt lat="43.2179084602877" lon="12.199820510669694"><ele>310.3333333333333</ele><time>2026-03-29T10:22:04.88Z</time></trkpt><trkpt lat="43.217987824174415" lon="12.20001872408452"><ele>310.6666666666667</ele><time>2026-03-29T10:22:05.88Z</time></trkpt><trkpt lat="43.218068770827095" lon="12.200209516821214"><ele>311.0</ele><time>2026-03-29T10:22:06.88Z</time></trkpt><trkpt lat="43.21814913617549" lon="12.200395056745931"><ele>310.75</ele><time>2026-03-29T10:22:07.88Z</time></trkpt><trkpt lat="43.21822595503538" lon="12.200580483465288"><ele>310.5</ele><time>2026-03-29T10:22:08.88Z</time></trkpt><trkpt lat="43.21830292788585" lon="12.200764136301578"><ele>310.25</ele><time>2026-03-29T10:22:09.88Z</time></trkpt><trkpt lat="43.21836655325842" lon="12.200926482715676"><ele>310.0</ele><time>2026-03-29T10:22:10.88Z</time></trkpt><trkpt lat="43.2184247365253" lon="12.201077415670264"><ele>310.4</ele><time>2026-03-29T10:22:11.88Z</time></trkpt><trkpt lat="43.2184766304106" lon="12.201215812744037"><ele>310.8</ele><time>2026-03-29T10:22:12.88Z</time></trkpt><trkpt lat="43.21852750472467" lon="12.201349397136521"><ele>311.2</ele><time>2026-03-29T10:22:13.88Z</time></trkpt><trkpt lat="43.21857829439005" lon="12.201479746170577"><ele>311.6</ele><time>2026-03-29T10:22:14.88Z</time></trkpt><trkpt lat="43.2186268142109" lon="12.201608540521416"><ele>312.0</ele><time>2026-03-29T10:22:15.88Z</time></trkpt><trkpt lat="43.21867313124441" lon="12.201730887870209"><ele>312.4</ele><time>2026-03-29T10:22:16.88Z</time></trkpt><trkpt lat="43.21871139411453" lon="12.201845015814111"><ele>312.79999999999995</ele><time>2026-03-29T10:22:17.88Z</time></trkpt><trkpt lat="43.21873418236544" lon="12.201942919960386"><ele>313.2</ele><time>2026-03-29T10:22:18.88Z</time></trkpt><trkpt lat="43.218710982486044" lon="12.202053098496162"><ele>313.59999999999997</ele><time>2026-03-29T10:22:20.88Z</time></trkpt><trkpt lat="43.2185953137699" lon="12.202122826461846"><ele>314.0</ele><time>2026-03-29T10:22:22.88Z</time></trkpt><trkpt lat="43.21850669577155" lon="12.202123986286045"><ele>314.0</ele><time>2026-03-29T10:22:23.88Z</time></trkpt><trkpt lat="43.21840117029997" lon="12.202128745908436"><ele>314.0</ele><time>2026-03-29T10:22:24.88Z</time></trkpt><trkpt lat="43.21828106910322" lon="12.202138563971607"><ele>314.0</ele><time>2026-03-29T10:22:25.88Z</time></trkpt><trkpt lat="43.21813695731384" lon="12.20215978821421"><ele>314.0</ele><time>2026-03-29T10:22:26.88Z</time></trkpt><trkpt lat="43.217995121257594" lon="12.202175816295375"><ele>314.0</ele><time>2026-03-29T10:22:27.88Z</time></trkpt><trkpt lat="43.21784049737056" lon="12.202193758674197"><ele>314.0</ele><time>2026-03-29T10:22:28.88Z</time></trkpt><trkpt lat="43.2176769150885" lon="12.202213385917732"><ele>314.0</ele><time>2026-03-29T10:22:29.879Z</time></trkpt><trkpt lat="43.21751591225985" lon="12.202236566485857"><ele>314.0</ele><time>2026-03-29T10:22:30.879Z</time></trkpt><trkpt lat="43.21736655253467" lon="12.20225635641349"><ele>314.0</ele><time>2026-03-29T10:22:31.879Z</time></trkpt><trkpt lat="43.217246576105225" lon="12.202277063900048"><ele>314.0</ele><time>2026-03-29T10:22:32.879Z</time></trkpt><trkpt lat="43.21714770596088" lon="12.202300231945873"><ele>314.0</ele><time>2026-03-29T10:22:33.879Z</time></trkpt><trkpt lat="43.217071036871104" lon="12.202335821437046"><ele>314.0</ele><time>2026-03-29T10:22:34.879Z</time></trkpt><trkpt lat="43.21701123237076" lon="12.202397584168498"><ele>314.0</ele><time>2026-03-29T10:22:35.879Z</time></trkpt><trkpt lat="43.21695471163953" lon="12.202469063647788"><ele>314.0</ele><time>2026-03-29T10:22:36.879Z</time></trkpt><trkpt lat="43.21690295440116" lon="12.202543086780068"><ele>314.0</ele><time>2026-03-29T10:22:37.879Z</time></trkpt><trkpt lat="43.216855831472316" lon="12.20260774937113"><ele>314.0</ele><time>2026-03-29T10:22:38.879Z</time></trkpt><trkpt lat="43.21679439542382" lon="12.202696465889261"><ele>314.0</ele><time>2026-03-29T10:22:39.879Z</time></trkpt><trkpt lat="43.21674030663525" lon="12.202766894574763"><ele>314.0</ele><time>2026-03-29T10:22:40.879Z</time></trkpt><trkpt lat="43.21666049929671" lon="12.202887507736905"><ele>314.0</ele><time>2026-03-29T10:22:41.879Z</time></trkpt><trkpt lat="43.21657265441643" lon="12.203025114073139"><ele>314.0</ele><time>2026-03-29T10:22:42.879Z</time></trkpt><trkpt lat="43.21647534928646" lon="12.203177380057868"><ele>314.0</ele><time>2026-03-29T10:22:43.879Z</time></trkpt><trkpt lat="43.21637801591218" lon="12.203320212142676"><ele>315.2</ele><time>2026-03-29T10:22:44.879Z</time></trkpt><trkpt lat="43.21628966048195" lon="12.203445904370083"><ele>316.4</ele><time>2026-03-29T10:22:45.879Z</time></trkpt><trkpt lat="43.21620465603161" lon="12.203552009810757"><ele>317.6</ele><time>2026-03-29T10:22:46.879Z</time></trkpt><trkpt lat="43.21613367336333" lon="12.203658011727233"><ele>318.8</ele><time>2026-03-29T10:22:47.879Z</time></trkpt><trkpt lat="43.216083481522205" lon="12.203765609203693"><ele>320.0</ele><time>2026-03-29T10:22:48.881Z</time></trkpt><trkpt lat="43.216046156536066" lon="12.2038667109831"><ele>320.0</ele><time>2026-03-29T10:22:49.881Z</time></trkpt><trkpt lat="43.21601340713911" lon="12.203967692567687"><ele>320.0</ele><time>2026-03-29T10:22:50.881Z</time></trkpt><trkpt lat="43.215971198535634" lon="12.204072298862794"><ele>320.0</ele><time>2026-03-29T10:22:51.881Z</time></trkpt><trkpt lat="43.21590927119731" lon="12.204160726292708"><ele>320.0</ele><time>2026-03-29T10:22:52.881Z</time></trkpt><trkpt lat="43.21584271711679" lon="12.204232756192022"><ele>320.0</ele><time>2026-03-29T10:22:53.881Z</time></trkpt><trkpt lat="43.215771710697084" lon="12.204295190122618"><ele>320.0</ele><time>2026-03-29T10:22:54.881Z</time></trkpt><trkpt lat="43.215687289167164" lon="12.204363164962032"><ele>321.0</ele><time>2026-03-29T10:22:55.881Z</time></trkpt><trkpt lat="43.21562071746715" lon="12.204409064846473"><ele>322.0</ele><time>2026-03-29T10:22:56.881Z</time></trkpt><trkpt lat="43.21552713748301" lon="12.204480366903393"><ele>323.0</ele><time>2026-03-29T10:22:57.882Z</time></trkpt><trkpt lat="43.215448347113096" lon="12.20456611913685"><ele>324.0</ele><time>2026-03-29T10:22:58.881Z</time></trkpt><trkpt lat="43.21537820720453" lon="12.204647156505752"><ele>325.0</ele><time>2026-03-29T10:22:59.881Z</time></trkpt><trkpt lat="43.21531860162731" lon="12.204745876069634"><ele>325.6</ele><time>2026-03-29T10:23:00.881Z</time></trkpt><trkpt lat="43.21525404368234" lon="12.204840662901557"><ele>326.2</ele><time>2026-03-29T10:23:01.881Z</time></trkpt><trkpt lat="43.2151778051734" lon="12.204936905692438"><ele>326.79999999999995</ele><time>2026-03-29T10:23:02.881Z</time></trkpt><trkpt lat="43.21510158435055" lon="12.205030532513536"><ele>327.4</ele><time>2026-03-29T10:23:03.881Z</time></trkpt><trkpt lat="43.21503455392408" lon="12.205119376918681"><ele>328.0</ele><time>2026-03-29T10:23:04.881Z</time></trkpt><trkpt lat="43.21496633616803" lon="12.20517992242183"><ele>328.0</ele><time>2026-03-29T10:23:05.881Z</time></trkpt><trkpt lat="43.214893700649554" lon="12.205189750526335"><ele>328.0</ele><time>2026-03-29T10:23:06.881Z</time></trkpt><trkpt lat="43.21480535923527" lon="12.205243879490343"><ele>328.0</ele><time>2026-03-29T10:23:07.881Z</time></trkpt><trkpt lat="43.214731903098176" lon="12.205329434259415"><ele>328.0</ele><time>2026-03-29T10:23:08.881Z</time></trkpt><trkpt lat="43.21464164995165" lon="12.205430436552318"><ele>328.0</ele><time>2026-03-29T10:23:09.881Z</time></trkpt><trkpt lat="43.214562581220875" lon="12.205544852825067"><ele>328.2</ele><time>2026-03-29T10:23:10.881Z</time></trkpt><trkpt lat="43.214492178988316" lon="12.205666695191166"><ele>328.4</ele><time>2026-03-29T10:23:11.881Z</time></trkpt><trkpt lat="43.2144249795651" lon="12.205791699579832"><ele>328.59999999999997</ele><time>2026-03-29T10:23:12.881Z</time></trkpt><trkpt lat="43.214360829001826" lon="12.205916420071109"><ele>328.79999999999995</ele><time>2026-03-29T10:23:13.881Z</time></trkpt><trkpt lat="43.21430759738864" lon="12.20602312458624"><ele>329.0</ele><time>2026-03-29T10:23:14.881Z</time></trkpt><trkpt lat="43.214256184782435" lon="12.206136378269635"><ele>329.0</ele><time>2026-03-29T10:23:15.88Z</time></trkpt><trkpt lat="43.21422684240958" lon="12.206245731966375"><ele>329.0</ele><time>2026-03-29T10:23:16.88Z</time></trkpt><trkpt lat="43.2142132765608" lon="12.206352400257671"><ele>329.0</ele><time>2026-03-29T10:23:17.88Z</time></trkpt><trkpt lat="43.21418394060309" lon="12.206454161611099"><ele>329.0</ele><time>2026-03-29T10:23:18.88Z</time></trkpt><trkpt lat="43.214148443956724" lon="12.206580759574418"><ele>329.0</ele><time>2026-03-29T10:23:19.88Z</time></trkpt><trkpt lat="43.21411818094521" lon="12.206705630218057"><ele>329.0</ele><time>2026-03-29T10:23:20.88Z</time></trkpt><trkpt lat="43.21408902934286" lon="12.206808451180777"><ele>329.6</ele><time>2026-03-29T10:23:21.88Z</time></trkpt><trkpt lat="43.21407280805146" lon="12.20691691586979"><ele>330.2</ele><time>2026-03-29T10:23:22.88Z</time></trkpt><trkpt lat="43.21405748102996" lon="12.20704625019859"><ele>330.8</ele><time>2026-03-29T10:23:23.88Z</time></trkpt><trkpt lat="43.21408446535628" lon="12.207180937057203"><ele>331.40000000000003</ele><time>2026-03-29T10:23:25.88Z</time></trkpt><trkpt lat="43.21404047776054" lon="12.20730119930241"><ele>332.0</ele><time>2026-03-29T10:23:29.88Z</time></trkpt><trkpt lat="43.21396646365795" lon="12.207400866333183"><ele>333.0</ele><time>2026-03-29T10:23:30.88Z</time></trkpt><trkpt lat="43.213888246336644" lon="12.207516340626416"><ele>334.0</ele><time>2026-03-29T10:23:31.88Z</time></trkpt><trkpt lat="43.21381943258577" lon="12.207623215448159"><ele>335.0</ele><time>2026-03-29T10:23:32.88Z</time></trkpt><trkpt lat="43.21377341199151" lon="12.207690857236843"><ele>336.0</ele><time>2026-03-29T10:23:33.88Z</time></trkpt><trkpt lat="43.21370046134484" lon="12.2078066035838"><ele>337.0</ele><time>2026-03-29T10:23:35.88Z</time></trkpt><trkpt lat="43.21365970076383" lon="12.20787300165196"><ele>337.0</ele><time>2026-03-29T10:23:36.88Z</time></trkpt><trkpt lat="43.2135936079791" lon="12.20792781219216"><ele>337.0</ele><time>2026-03-29T10:23:37.88Z</time></trkpt><trkpt lat="43.2135251621126" lon="12.207982558712645"><ele>337.0</ele><time>2026-03-29T10:23:38.88Z</time></trkpt><trkpt lat="43.21345952695916" lon="12.20800265485051"><ele>337.0</ele><time>2026-03-29T10:23:39.88Z</time></trkpt><trkpt lat="43.21336416157583" lon="12.207992466687791"><ele>337.0</ele><time>2026-03-29T10:23:41.88Z</time></trkpt><trkpt lat="43.213277615530856" lon="12.208037496411983"><ele>337.0</ele><time>2026-03-29T10:23:44.88Z</time></trkpt><trkpt lat="43.21320711880573" lon="12.208066441482806"><ele>337.8333333333333</ele><time>2026-03-29T10:23:45.88Z</time></trkpt><trkpt lat="43.21313733959663" lon="12.208094973358394"><ele>338.66666666666663</ele><time>2026-03-29T10:23:46.88Z</time></trkpt><trkpt lat="43.2130598893851" lon="12.20813341955911"><ele>339.5</ele><time>2026-03-29T10:23:47.88Z</time></trkpt><trkpt lat="43.21298735809546" lon="12.208177764169243"><ele>340.3333333333333</ele><time>2026-03-29T10:23:48.88Z</time></trkpt><trkpt lat="43.212905627031425" lon="12.208217372768848"><ele>341.1666666666667</ele><time>2026-03-29T10:23:49.88Z</time></trkpt><trkpt lat="43.212829656805496" lon="12.20823866101803"><ele>342.0</ele><time>2026-03-29T10:23:50.88Z</time></trkpt><trkpt lat="43.21274552664647" lon="12.208266819022327"><ele>342.0</ele><time>2026-03-29T10:23:51.88Z</time></trkpt><trkpt lat="43.21266500346858" lon="12.208317649434369"><ele>342.0</ele><time>2026-03-29T10:23:52.88Z</time></trkpt><trkpt lat="43.21258665046456" lon="12.208378753106873"><ele>342.0</ele><time>2026-03-29T10:23:53.88Z</time></trkpt><trkpt lat="43.212504731848234" lon="12.208441215579697"><ele>342.0</ele><time>2026-03-29T10:23:54.88Z</time></trkpt><trkpt lat="43.21243253088178" lon="12.208487020924462"><ele>342.0</ele><time>2026-03-29T10:23:55.88Z</time></trkpt><trkpt lat="43.21236129795958" lon="12.208529162528489"><ele>342.0</ele><time>2026-03-29T10:23:56.88Z</time></trkpt><trkpt lat="43.212297407549876" lon="12.208599686030928"><ele>342.6666666666667</ele><time>2026-03-29T10:23:57.88Z</time></trkpt><trkpt lat="43.21223586686929" lon="12.20867839324946"><ele>343.3333333333333</ele><time>2026-03-29T10:23:58.88Z</time></trkpt><trkpt lat="43.21217630930702" lon="12.208756459720519"><ele>344.0</ele><time>2026-03-29T10:23:59.88Z</time></trkpt><trkpt lat="43.212122292502315" lon="12.208826249783515"><ele>344.66666666666663</ele><time>2026-03-29T10:24:00.88Z</time></trkpt><trkpt lat="43.21205611522134" lon="12.20889407580364"><ele>345.3333333333333</ele><time>2026-03-29T10:24:01.88Z</time></trkpt><trkpt lat="43.21199970551806" lon="12.208949416603277"><ele>346.0</ele><time>2026-03-29T10:24:02.88Z</time></trkpt><trkpt lat="43.21192527556928" lon="12.209051300277567"><ele>346.0</ele><time>2026-03-29T10:24:04.88Z</time></trkpt><trkpt lat="43.211923563924096" lon="12.209141584395686"><ele>346.0</ele><time>2026-03-29T10:24:05.88Z</time></trkpt><trkpt lat="43.211941055369856" lon="12.209259948089327"><ele>346.0</ele><time>2026-03-29T10:24:06.88Z</time></trkpt><trkpt lat="43.211980971899514" lon="12.209413731112933"><ele>346.0</ele><time>2026-03-29T10:24:07.88Z</time></trkpt><trkpt lat="43.212022824921476" lon="12.20954125811388"><ele>346.0</ele><time>2026-03-29T10:24:08.879Z</time></trkpt><trkpt lat="43.21203377556665" lon="12.209637080643375"><ele>346.0</ele><time>2026-03-29T10:24:09.879Z</time></trkpt><trkpt lat="43.21201573105979" lon="12.20972671182928"><ele>347.25</ele><time>2026-03-29T10:24:10.879Z</time></trkpt><trkpt lat="43.21195241472764" lon="12.20983833335035"><ele>348.5</ele><time>2026-03-29T10:24:12.879Z</time></trkpt><trkpt lat="43.211990779636665" lon="12.210061910534387"><ele>349.75</ele><time>2026-03-29T10:24:14.879Z</time></trkpt><trkpt lat="43.21199919517638" lon="12.21020588657956"><ele>351.0</ele><time>2026-03-29T10:24:15.879Z</time></trkpt><trkpt lat="43.21197718681408" lon="12.21031899392705"><ele>351.0</ele><time>2026-03-29T10:24:16.879Z</time></trkpt><trkpt lat="43.21195142376267" lon="12.210458310250516"><ele>351.0</ele><time>2026-03-29T10:24:17.879Z</time></trkpt><trkpt lat="43.21193871232615" lon="12.210566020149992"><ele>351.0</ele><time>2026-03-29T10:24:18.879Z</time></trkpt><trkpt lat="43.21189776029234" lon="12.210668375823076"><ele>351.0</ele><time>2026-03-29T10:24:20.879Z</time></trkpt><trkpt lat="43.211811134975996" lon="12.210676651007269"><ele>351.0</ele><time>2026-03-29T10:24:22.879Z</time></trkpt><trkpt lat="43.21177411223542" lon="12.210600340318127"><ele>351.0</ele><time>2026-03-29T10:24:26.879Z</time></trkpt><trkpt lat="43.2117257018797" lon="12.210541803412916"><ele>351.0</ele><time>2026-03-29T10:24:28.879Z</time></trkpt><trkpt lat="43.21170133765861" lon="12.210459817824745"><ele>351.0</ele><time>2026-03-29T10:24:30.879Z</time></trkpt><trkpt lat="43.21167198743498" lon="12.210342160910347"><ele>351.0</ele><time>2026-03-29T10:24:33.879Z</time></trkpt><trkpt lat="43.21163687685698" lon="12.210242012357527"><ele>351.0</ele><time>2026-03-29T10:24:35.879Z</time></trkpt><trkpt lat="43.21159659058239" lon="12.210157190276787"><ele>351.0</ele><time>2026-03-29T10:24:37.879Z</time></trkpt><trkpt lat="43.21156500331585" lon="12.210068504398976"><ele>351.0</ele><time>2026-03-29T10:24:39.879Z</time></trkpt><trkpt lat="43.211526094847954" lon="12.209974315238062"><ele>351.6</ele><time>2026-03-29T10:24:42.879Z</time></trkpt><trkpt lat="43.21148880615778" lon="12.209861709549843"><ele>352.20000000000005</ele><time>2026-03-29T10:24:45.879Z</time></trkpt><trkpt lat="43.21143616353694" lon="12.209783274366975"><ele>352.79999999999995</ele><time>2026-03-29T10:24:48.879Z</time></trkpt><trkpt lat="43.211371142222234" lon="12.209843497666366"><ele>353.4</ele><time>2026-03-29T10:24:51.879Z</time></trkpt><trkpt lat="43.211270434768224" lon="12.209837333617122"><ele>354.0</ele><time>2026-03-29T10:24:53.879Z</time></trkpt><trkpt lat="43.21116758137645" lon="12.209901349354595"><ele>354.0</ele><time>2026-03-29T10:24:57.881Z</time></trkpt><trkpt lat="43.211067740803216" lon="12.20993350475875"><ele>354.0</ele><time>2026-03-29T10:24:59.882Z</time></trkpt><trkpt lat="43.210984320638744" lon="12.209951011012997"><ele>354.0</ele><time>2026-03-29T10:25:00.881Z</time></trkpt><trkpt lat="43.21090792908217" lon="12.209994064258424"><ele>354.0</ele><time>2026-03-29T10:25:02.881Z</time></trkpt><trkpt lat="43.210822616076456" lon="12.210051076518104"><ele>354.0</ele><time>2026-03-29T10:25:05.881Z</time></trkpt><trkpt lat="43.21076726545946" lon="12.210110494590543"><ele>354.0</ele><time>2026-03-29T10:25:08.881Z</time></trkpt><trkpt lat="43.210712363697596" lon="12.210165212708626"><ele>357.0</ele><time>2026-03-29T10:25:10.881Z</time></trkpt><trkpt lat="43.21062620914114" lon="12.210260942843032"><ele>360.0</ele><time>2026-03-29T10:25:12.881Z</time></trkpt><trkpt lat="43.21055841364748" lon="12.210282111015719"><ele>363.0</ele><time>2026-03-29T10:25:14.881Z</time></trkpt><trkpt lat="43.21049544184022" lon="12.210265540159359"><ele>366.0</ele><time>2026-03-29T10:25:16.881Z</time></trkpt><trkpt lat="43.21042135867851" lon="12.210373845096463"><ele>369.0</ele><time>2026-03-29T10:25:19.881Z</time></trkpt><trkpt lat="43.21036581628824" lon="12.210464856618671"><ele>372.0</ele><time>2026-03-29T10:25:20.881Z</time></trkpt><trkpt lat="43.21031415497205" lon="12.210551617844173"><ele>372.00000000000006</ele><time>2026-03-29T10:25:21.881Z</time></trkpt><trkpt lat="43.21027686764284" lon="12.210626133804643"><ele>372.0</ele><time>2026-03-29T10:25:22.881Z</time></trkpt><trkpt lat="43.21022416562139" lon="12.210679488243978"><ele>372.0</ele><time>2026-03-29T10:25:24.881Z</time></trkpt><trkpt lat="43.210153142267835" lon="12.210711730833655"><ele>372.0</ele><time>2026-03-29T10:25:26.881Z</time></trkpt><trkpt lat="43.2100936218713" lon="12.210742537603194"><ele>372.0</ele><time>2026-03-29T10:25:29.881Z</time></trkpt><trkpt lat="43.210020265908" lon="12.210774151866712"><ele>372.00000000000006</ele><time>2026-03-29T10:25:32.881Z</time></trkpt><trkpt lat="43.209922572808495" lon="12.21081102854588"><ele>372.0</ele><time>2026-03-29T10:25:34.881Z</time></trkpt><trkpt lat="43.209855220163" lon="12.210898256930138"><ele>372.8333333333333</ele><time>2026-03-29T10:25:37.881Z</time></trkpt><trkpt lat="43.20976881348232" lon="12.210969377946665"><ele>373.6666666666667</ele><time>2026-03-29T10:25:40.881Z</time></trkpt><trkpt lat="43.209706841771656" lon="12.211018993489047"><ele>374.5</ele><time>2026-03-29T10:25:43.881Z</time></trkpt><trkpt lat="43.209660393196195" lon="12.211090616705594"><ele>375.33333333333337</ele><time>2026-03-29T10:25:45.88Z</time></trkpt><trkpt lat="43.20963227972087" lon="12.211178242770908"><ele>376.1666666666667</ele><time>2026-03-29T10:25:47.88Z</time></trkpt><trkpt lat="43.209559651767584" lon="12.211217386705355"><ele>377.0</ele><time>2026-03-29T10:25:50.88Z</time></trkpt><trkpt lat="43.209499446259905" lon="12.21130260795089"><ele>376.99999999999994</ele><time>2026-03-29T10:25:52.88Z</time></trkpt><trkpt lat="43.20943822704522" lon="12.211324648513548"><ele>377.0</ele><time>2026-03-29T10:25:55.88Z</time></trkpt><trkpt lat="43.209353676136494" lon="12.211315457036857"><ele>377.0</ele><time>2026-03-29T10:26:01.88Z</time></trkpt><trkpt lat="43.20929680771802" lon="12.211364733901815"><ele>377.0</ele><time>2026-03-29T10:26:09.88Z</time></trkpt><trkpt lat="43.209268297544746" lon="12.211450594935451"><ele>377.0</ele><time>2026-03-29T10:26:16.88Z</time></trkpt><trkpt lat="43.209245701006814" lon="12.211534620092912"><ele>376.99999999999994</ele><time>2026-03-29T10:26:20.88Z</time></trkpt><trkpt lat="43.20924104794408" lon="12.211632570746884"><ele>377.0</ele><time>2026-03-29T10:26:28.88Z</time></trkpt><trkpt lat="43.20922458247252" lon="12.21171718212297"><ele>376.33333333333337</ele><time>2026-03-29T10:26:38.879Z</time></trkpt><trkpt lat="43.20916122558993" lon="12.211680954306022"><ele>375.6666666666667</ele><time>2026-03-29T10:27:45.88Z</time></trkpt><trkpt lat="43.209090542265024" lon="12.211699468199733"><ele>375.0</ele><time>2026-03-29T10:28:42.879Z</time></trkpt><trkpt lat="43.209025827597934" lon="12.211754310935467"><ele>374.3333333333333</ele><time>2026-03-29T10:28:49.879Z</time></trkpt><trkpt lat="43.209048882826835" lon="12.211840371016674"><ele>373.66666666666663</ele><time>2026-03-29T10:28:56.879Z</time></trkpt><trkpt lat="43.20912190208941" lon="12.21185453351167"><ele>373.0</ele><time>2026-03-29T10:29:01.879Z</time></trkpt><trkpt lat="43.209197937108044" lon="12.211930953915248"><ele>373.0</ele><time>2026-03-29T10:29:20.881Z</time></trkpt><trkpt lat="43.209260492953874" lon="12.2118964429038"><ele>373.0</ele><time>2026-03-29T10:29:42.88Z</time></trkpt><trkpt lat="43.20929263853778" lon="12.211975485956682"><ele>373.0</ele><time>2026-03-29T10:29:46.88Z</time></trkpt><trkpt lat="43.20932721586375" lon="12.21205394177089"><ele>373.0</ele><time>2026-03-29T10:29:48.88Z</time></trkpt><trkpt lat="43.20935716372166" lon="12.21215342707893"><ele>373.0</ele><time>2026-03-29T10:29:50.88Z</time></trkpt><trkpt lat="43.20936567043283" lon="12.21225221349777"><ele>373.0</ele><time>2026-03-29T10:29:55.88Z</time></trkpt><trkpt lat="43.20940715195491" lon="12.21233421033948"><ele>373.0</ele><time>2026-03-29T10:29:57.88Z</time></trkpt><trkpt lat="43.20945213125493" lon="12.212464370570395"><ele>374.5</ele><time>2026-03-29T10:29:59.88Z</time></trkpt><trkpt lat="43.20947711027494" lon="12.212580272775647"><ele>376.0</ele><time>2026-03-29T10:30:01.88Z</time></trkpt><trkpt lat="43.20949792711794" lon="12.212702761012142"><ele>377.5</ele><time>2026-03-29T10:30:04.88Z</time></trkpt><trkpt lat="43.20949790120756" lon="12.212791396579693"><ele>379.0</ele><time>2026-03-29T10:30:07.88Z</time></trkpt><trkpt lat="43.209530122990735" lon="12.21286991498721"><ele>380.5</ele><time>2026-03-29T10:30:14.879Z</time></trkpt><trkpt lat="43.20955711127915" lon="12.212970360003819"><ele>382.0</ele><time>2026-03-29T10:30:21.879Z</time></trkpt><trkpt lat="43.20949384625918" lon="12.213083600815862"><ele>385.20000000000005</ele><time>2026-03-29T10:30:24.879Z</time></trkpt><trkpt lat="43.2094366879041" lon="12.21326300070478"><ele>388.4</ele><time>2026-03-29T10:30:26.879Z</time></trkpt><trkpt lat="43.2094054802368" lon="12.213377690452646"><ele>391.6</ele><time>2026-03-29T10:30:27.879Z</time></trkpt><trkpt lat="43.20937511757942" lon="12.213453608083263"><ele>394.79999999999995</ele><time>2026-03-29T10:30:28.879Z</time></trkpt><trkpt lat="43.20932957188961" lon="12.21358391977994"><ele>398.0</ele><time>2026-03-29T10:30:30.879Z</time></trkpt><trkpt lat="43.20931063686302" lon="12.213687257084771"><ele>398.0</ele><time>2026-03-29T10:30:31.879Z</time></trkpt><trkpt lat="43.209297581718566" lon="12.213781244231694"><ele>398.0</ele><time>2026-03-29T10:30:32.879Z</time></trkpt><trkpt lat="43.20925684365104" lon="12.21393720487132"><ele>398.0</ele><time>2026-03-29T10:30:34.879Z</time></trkpt><trkpt lat="43.20923306218532" lon="12.214044066198571"><ele>398.0</ele><time>2026-03-29T10:30:36.879Z</time></trkpt><trkpt lat="43.209239501006294" lon="12.214225449881713"><ele>398.0</ele><time>2026-03-29T10:30:38.879Z</time></trkpt><trkpt lat="43.20922166445284" lon="12.214346741390127"><ele>397.66666666666663</ele><time>2026-03-29T10:30:40.879Z</time></trkpt><trkpt lat="43.209151740036916" lon="12.214462037900851"><ele>397.3333333333333</ele><time>2026-03-29T10:30:42.879Z</time></trkpt><trkpt lat="43.20908961612431" lon="12.21453801962217"><ele>397.0</ele><time>2026-03-29T10:30:43.879Z</time></trkpt><trkpt lat="43.20903154904184" lon="12.214609453572201"><ele>396.66666666666663</ele><time>2026-03-29T10:30:44.879Z</time></trkpt><trkpt lat="43.20898735854482" lon="12.21467897926932"><ele>396.3333333333333</ele><time>2026-03-29T10:30:45.879Z</time></trkpt><trkpt lat="43.20895200380474" lon="12.214760112306799"><ele>396.0</ele><time>2026-03-29T10:30:46.879Z</time></trkpt><trkpt lat="43.2089315277876" lon="12.214850661525912"><ele>399.20000000000005</ele><time>2026-03-29T10:30:47.879Z</time></trkpt><trkpt lat="43.20892168863522" lon="12.214938791524387"><ele>402.40000000000003</ele><time>2026-03-29T10:30:48.879Z</time></trkpt><trkpt lat="43.20891400145918" lon="12.215036647367215"><ele>405.6</ele><time>2026-03-29T10:30:49.879Z</time></trkpt><trkpt lat="43.20886708361383" lon="12.215231922051178"><ele>408.8</ele><time>2026-03-29T10:30:51.879Z</time></trkpt><trkpt lat="43.20883836517505" lon="12.21540890356979"><ele>412.0</ele><time>2026-03-29T10:30:52.879Z</time></trkpt><trkpt lat="43.208808760923716" lon="12.21556112127533"><ele>414.8</ele><time>2026-03-29T10:30:53.879Z</time></trkpt><trkpt lat="43.20879595820349" lon="12.21570397966249"><ele>417.6</ele><time>2026-03-29T10:30:54.879Z</time></trkpt><trkpt lat="43.208775428179734" lon="12.215832972624836"><ele>420.40000000000003</ele><time>2026-03-29T10:30:55.879Z</time></trkpt><trkpt lat="43.20876601734945" lon="12.21595170094761"><ele>423.20000000000005</ele><time>2026-03-29T10:30:56.879Z</time></trkpt><trkpt lat="43.20876279863567" lon="12.21605520685012"><ele>426.0</ele><time>2026-03-29T10:30:57.879Z</time></trkpt><trkpt lat="43.20883401244256" lon="12.216165808056154"><ele>426.0</ele><time>2026-03-29T10:30:59.879Z</time></trkpt><trkpt lat="43.20888763596544" lon="12.216257513378514"><ele>426.0</ele><time>2026-03-29T10:31:00.879Z</time></trkpt><trkpt lat="43.20895390383991" lon="12.216356231615622"><ele>426.0</ele><time>2026-03-29T10:31:01.879Z</time></trkpt><trkpt lat="43.2090179825752" lon="12.216423745605752"><ele>426.0</ele><time>2026-03-29T10:31:02.879Z</time></trkpt><trkpt lat="43.20909268089504" lon="12.216487065862246"><ele>426.0</ele><time>2026-03-29T10:31:03.879Z</time></trkpt><trkpt lat="43.20917872865543" lon="12.216522617115965"><ele>426.0</ele><time>2026-03-29T10:31:04.879Z</time></trkpt><trkpt lat="43.209288955776906" lon="12.216566044180338"><ele>430.4</ele><time>2026-03-29T10:31:05.879Z</time></trkpt><trkpt lat="43.209365621347224" lon="12.216604388396915"><ele>434.8</ele><time>2026-03-29T10:31:06.879Z</time></trkpt><trkpt lat="43.209444288220716" lon="12.216670299082905"><ele>439.19999999999993</ele><time>2026-03-29T10:31:07.878Z</time></trkpt><trkpt lat="43.20948789168433" lon="12.21673783999319"><ele>443.59999999999997</ele><time>2026-03-29T10:31:08.878Z</time></trkpt><trkpt lat="43.20957287516625" lon="12.216846439715614"><ele>448.0</ele><time>2026-03-29T10:31:09.878Z</time></trkpt><trkpt lat="43.20967767325075" lon="12.216926917569591"><ele>448.0</ele><time>2026-03-29T10:31:10.878Z</time></trkpt><trkpt lat="43.20978351943728" lon="12.216993424860027"><ele>447.99999999999994</ele><time>2026-03-29T10:31:11.878Z</time></trkpt><trkpt lat="43.2098716488736" lon="12.217063418654403"><ele>447.99999999999994</ele><time>2026-03-29T10:31:12.881Z</time></trkpt><trkpt lat="43.209942407353" lon="12.217147320401395"><ele>448.0</ele><time>2026-03-29T10:31:13.881Z</time></trkpt><trkpt lat="43.209997820297666" lon="12.217214687355085"><ele>448.0</ele><time>2026-03-29T10:31:14.881Z</time></trkpt><trkpt lat="43.21006078766651" lon="12.217258514813812"><ele>447.59999999999997</ele><time>2026-03-29T10:31:15.881Z</time></trkpt><trkpt lat="43.210218904586554" lon="12.217250645578295"><ele>447.19999999999993</ele><time>2026-03-29T10:31:17.881Z</time></trkpt><trkpt lat="43.21033342894135" lon="12.217295058394647"><ele>446.8</ele><time>2026-03-29T10:31:18.881Z</time></trkpt><trkpt lat="43.21041522777977" lon="12.217338148813909"><ele>446.4</ele><time>2026-03-29T10:31:19.881Z</time></trkpt><trkpt lat="43.21048357957923" lon="12.217400943487515"><ele>446.0</ele><time>2026-03-29T10:31:20.881Z</time></trkpt><trkpt lat="43.21051165210267" lon="12.217519721183816"><ele>449.8</ele><time>2026-03-29T10:31:22.881Z</time></trkpt><trkpt lat="43.21048306851846" lon="12.217653790322197"><ele>453.6</ele><time>2026-03-29T10:31:24.881Z</time></trkpt><trkpt lat="43.210427521302236" lon="12.217730337606882"><ele>457.4</ele><time>2026-03-29T10:31:25.881Z</time></trkpt><trkpt lat="43.21035541460434" lon="12.217826445944809"><ele>461.2</ele><time>2026-03-29T10:31:26.881Z</time></trkpt><trkpt lat="43.210263759865015" lon="12.21797791663345"><ele>465.0</ele><time>2026-03-29T10:31:27.881Z</time></trkpt><trkpt lat="43.210158263929905" lon="12.21813924248739"><ele>467.25</ele><time>2026-03-29T10:31:28.881Z</time></trkpt><trkpt lat="43.21007401299104" lon="12.21827924069594"><ele>469.5</ele><time>2026-03-29T10:31:29.88Z</time></trkpt><trkpt lat="43.210014564370496" lon="12.218420757618366"><ele>471.75</ele><time>2026-03-29T10:31:30.88Z</time></trkpt><trkpt lat="43.2099595328129" lon="12.218580457926446"><ele>474.0</ele><time>2026-03-29T10:31:31.88Z</time></trkpt><trkpt lat="43.209876568243274" lon="12.218745744910347"><ele>476.25</ele><time>2026-03-29T10:31:32.88Z</time></trkpt><trkpt lat="43.209782661384956" lon="12.21891085797601"><ele>478.5</ele><time>2026-03-29T10:31:33.88Z</time></trkpt><trkpt lat="43.20970291498647" lon="12.219066861174579"><ele>480.75</ele><time>2026-03-29T10:31:34.88Z</time></trkpt><trkpt lat="43.20961646920542" lon="12.219208583188927"><ele>483.0</ele><time>2026-03-29T10:31:35.88Z</time></trkpt><trkpt lat="43.209544650424455" lon="12.219332045569217"><ele>484.3333333333333</ele><time>2026-03-29T10:31:36.88Z</time></trkpt><trkpt lat="43.209496911036574" lon="12.21943560255919"><ele>485.66666666666663</ele><time>2026-03-29T10:31:37.88Z</time></trkpt><trkpt lat="43.20942682244131" lon="12.219442584453526"><ele>487.0</ele><time>2026-03-29T10:31:38.88Z</time></trkpt><trkpt lat="43.209359972565515" lon="12.219441521347314"><ele>488.3333333333333</ele><time>2026-03-29T10:31:39.879Z</time></trkpt><trkpt lat="43.209297360451096" lon="12.21941167964183"><ele>489.66666666666663</ele><time>2026-03-29T10:31:40.879Z</time></trkpt><trkpt lat="43.20921456020845" lon="12.219342824038474"><ele>491.0</ele><time>2026-03-29T10:31:41.878Z</time></trkpt><trkpt lat="43.20909850262987" lon="12.219255118669013"><ele>490.20000000000005</ele><time>2026-03-29T10:31:42.878Z</time></trkpt><trkpt lat="43.208973845051936" lon="12.219169396980499"><ele>489.40000000000003</ele><time>2026-03-29T10:31:43.877Z</time></trkpt><trkpt lat="43.20887168062791" lon="12.219093440652234"><ele>488.6</ele><time>2026-03-29T10:31:44.877Z</time></trkpt><trkpt lat="43.208795917185235" lon="12.219041028502867"><ele>487.8</ele><time>2026-03-29T10:31:45.877Z</time></trkpt><trkpt lat="43.208736778088955" lon="12.219000604343684"><ele>487.0</ele><time>2026-03-29T10:31:46.876Z</time></trkpt><trkpt lat="43.20863608413875" lon="12.218975118941982"><ele>487.0</ele><time>2026-03-29T10:31:48.876Z</time></trkpt><trkpt lat="43.20854062938861" lon="12.21908391759386"><ele>487.0</ele><time>2026-03-29T10:31:50.875Z</time></trkpt><trkpt lat="43.208483975505736" lon="12.219169435221483"><ele>487.0</ele><time>2026-03-29T10:31:51.875Z</time></trkpt><trkpt lat="43.20841500652656" lon="12.21928911902978"><ele>487.0</ele><time>2026-03-29T10:31:52.874Z</time></trkpt><trkpt lat="43.208326480829754" lon="12.219419869741726"><ele>487.0</ele><time>2026-03-29T10:31:53.874Z</time></trkpt><trkpt lat="43.20823106568167" lon="12.219551362020429"><ele>487.0</ele><time>2026-03-29T10:31:54.874Z</time></trkpt><trkpt lat="43.20813446578581" lon="12.219671860061904"><ele>487.0</ele><time>2026-03-29T10:31:55.874Z</time></trkpt><trkpt lat="43.20805047927158" lon="12.219802923102305"><ele>487.0</ele><time>2026-03-29T10:31:56.874Z</time></trkpt><trkpt lat="43.207975643850645" lon="12.219931843363142"><ele>491.40000000000003</ele><time>2026-03-29T10:31:57.873Z</time></trkpt><trkpt lat="43.20790137260091" lon="12.220038326025291"><ele>495.80000000000007</ele><time>2026-03-29T10:31:58.873Z</time></trkpt><trkpt lat="43.20783134730149" lon="12.220130431258792"><ele>500.2</ele><time>2026-03-29T10:31:59.873Z</time></trkpt><trkpt lat="43.207775879793104" lon="12.220178655967205"><ele>504.6</ele><time>2026-03-29T10:32:00.873Z</time></trkpt><trkpt lat="43.20768027340555" lon="12.220172128693342"><ele>509.0</ele><time>2026-03-29T10:32:02.873Z</time></trkpt><trkpt lat="43.207602378017164" lon="12.220038604671407"><ele>509.0</ele><time>2026-03-29T10:32:04.872Z</time></trkpt><trkpt lat="43.20753187622414" lon="12.219942649355342"><ele>509.0</ele><time>2026-03-29T10:32:05.872Z</time></trkpt><trkpt lat="43.20746654943773" lon="12.219911588980867"><ele>509.0</ele><time>2026-03-29T10:32:07.872Z</time></trkpt><trkpt lat="43.207383632005325" lon="12.219960091810805"><ele>509.0</ele><time>2026-03-29T10:32:08.872Z</time></trkpt><trkpt lat="43.20731160151518" lon="12.220034226758804"><ele>509.0</ele><time>2026-03-29T10:32:09.872Z</time></trkpt><trkpt lat="43.20720687704701" lon="12.220118183046697"><ele>510.25</ele><time>2026-03-29T10:32:10.872Z</time></trkpt><trkpt lat="43.207094584042686" lon="12.220207458982873"><ele>511.5</ele><time>2026-03-29T10:32:11.872Z</time></trkpt><trkpt lat="43.2069568384337" lon="12.22029679534315"><ele>512.75</ele><time>2026-03-29T10:32:12.872Z</time></trkpt><trkpt lat="43.206806952760374" lon="12.220392490828004"><ele>514.0</ele><time>2026-03-29T10:32:13.871Z</time></trkpt><trkpt lat="43.20667667569417" lon="12.22047871390254"><ele>514.0</ele><time>2026-03-29T10:32:14.871Z</time></trkpt><trkpt lat="43.206561221158374" lon="12.220543763314552"><ele>514.0</ele><time>2026-03-29T10:32:15.871Z</time></trkpt><trkpt lat="43.20647006237801" lon="12.220603054168"><ele>514.0</ele><time>2026-03-29T10:32:16.871Z</time></trkpt><trkpt lat="43.20638425332173" lon="12.220643897526042"><ele>514.0</ele><time>2026-03-29T10:32:17.871Z</time></trkpt><trkpt lat="43.20631360596695" lon="12.220664857803005"><ele>514.0</ele><time>2026-03-29T10:32:18.871Z</time></trkpt><trkpt lat="43.20622456411972" lon="12.220654660961292"><ele>514.8333333333334</ele><time>2026-03-29T10:32:19.871Z</time></trkpt><trkpt lat="43.206153156235416" lon="12.220605335398492"><ele>515.6666666666667</ele><time>2026-03-29T10:32:20.871Z</time></trkpt><trkpt lat="43.20607351722413" lon="12.220544499937258"><ele>516.5</ele><time>2026-03-29T10:32:21.871Z</time></trkpt><trkpt lat="43.20599605259477" lon="12.220532607628897"><ele>517.3333333333334</ele><time>2026-03-29T10:32:22.871Z</time></trkpt><trkpt lat="43.20592168736502" lon="12.220557923949665"><ele>518.1666666666666</ele><time>2026-03-29T10:32:23.871Z</time></trkpt><trkpt lat="43.20585195335096" lon="12.220599330267529"><ele>519.0</ele><time>2026-03-29T10:32:24.871Z</time></trkpt><trkpt lat="43.20572140639948" lon="12.220682321568486"><ele>525.5</ele><time>2026-03-29T10:32:25.871Z</time></trkpt><trkpt lat="43.20557533661275" lon="12.220760109483424"><ele>532.0</ele><time>2026-03-29T10:32:26.871Z</time></trkpt><trkpt lat="43.20543434045467" lon="12.220813154197678"><ele>538.5</ele><time>2026-03-29T10:32:27.871Z</time></trkpt><trkpt lat="43.20531368199051" lon="12.220847116426482"><ele>545.0</ele><time>2026-03-29T10:32:28.871Z</time></trkpt><trkpt lat="43.20521294239006" lon="12.220876321178327"><ele>545.0</ele><time>2026-03-29T10:32:29.871Z</time></trkpt><trkpt lat="43.205147553812445" lon="12.22091446006166"><ele>545.0</ele><time>2026-03-29T10:32:30.87Z</time></trkpt><trkpt lat="43.20508497609559" lon="12.220963452784998"><ele>545.0</ele><time>2026-03-29T10:32:31.87Z</time></trkpt><trkpt lat="43.20504212692788" lon="12.221027232247188"><ele>545.0</ele><time>2026-03-29T10:32:32.87Z</time></trkpt><trkpt lat="43.20499991258384" lon="12.221112807344864"><ele>545.0</ele><time>2026-03-29T10:32:33.87Z</time></trkpt><trkpt lat="43.204954809392966" lon="12.221242358002819"><ele>545.0</ele><time>2026-03-29T10:32:35.87Z</time></trkpt><trkpt lat="43.205017481431625" lon="12.221305846737526"><ele>545.0</ele><time>2026-03-29T10:32:37.87Z</time></trkpt><trkpt lat="43.20508573906778" lon="12.221319659813688"><ele>545.0</ele><time>2026-03-29T10:32:38.87Z</time></trkpt><trkpt lat="43.20516126701946" lon="12.221373787830963"><ele>545.0</ele><time>2026-03-29T10:32:39.87Z</time></trkpt><trkpt lat="43.205190691548374" lon="12.22146087551372"><ele>545.0</ele><time>2026-03-29T10:32:41.87Z</time></trkpt><trkpt lat="43.20515312637737" lon="12.22153694876141"><ele>545.0</ele><time>2026-03-29T10:32:42.87Z</time></trkpt><trkpt lat="43.20509383891605" lon="12.22164144494262"><ele>545.0</ele><time>2026-03-29T10:32:43.87Z</time></trkpt><trkpt lat="43.20500956556362" lon="12.221782554418908"><ele>547.8</ele><time>2026-03-29T10:32:44.87Z</time></trkpt><trkpt lat="43.20494196432567" lon="12.221909300187127"><ele>550.6</ele><time>2026-03-29T10:32:45.87Z</time></trkpt><trkpt lat="43.2048746222779" lon="12.222006370131323"><ele>553.4</ele><time>2026-03-29T10:32:46.87Z</time></trkpt><trkpt lat="43.20479192643961" lon="12.222107219819573"><ele>556.2</ele><time>2026-03-29T10:32:47.87Z</time></trkpt><trkpt lat="43.20469383874243" lon="12.222193402427578"><ele>559.0</ele><time>2026-03-29T10:32:48.87Z</time></trkpt><trkpt lat="43.204583553514915" lon="12.222255533600107"><ele>559.8</ele><time>2026-03-29T10:32:49.87Z</time></trkpt><trkpt lat="43.204455215394155" lon="12.222297396505802"><ele>560.5999999999999</ele><time>2026-03-29T10:32:50.87Z</time></trkpt><trkpt lat="43.204330162748455" lon="12.22235055778774"><ele>561.4</ele><time>2026-03-29T10:32:51.87Z</time></trkpt><trkpt lat="43.204256614887235" lon="12.222408793169595"><ele>562.1999999999999</ele><time>2026-03-29T10:32:52.87Z</time></trkpt><trkpt lat="43.20418718897037" lon="12.222454776838141"><ele>563.0</ele><time>2026-03-29T10:32:53.87Z</time></trkpt><trkpt lat="43.20409453040271" lon="12.222530879358718"><ele>565.8</ele><time>2026-03-29T10:32:55.87Z</time></trkpt><trkpt lat="43.20400833155688" lon="12.222603240285306"><ele>568.5999999999999</ele><time>2026-03-29T10:32:57.87Z</time></trkpt><trkpt lat="43.203912450686445" lon="12.222683711750872"><ele>571.4000000000001</ele><time>2026-03-29T10:32:59.87Z</time></trkpt><trkpt lat="43.20383178745824" lon="12.222764907304722"><ele>574.2</ele><time>2026-03-29T10:33:01.87Z</time></trkpt><trkpt lat="43.203758229187635" lon="12.222850787920317"><ele>577.0</ele><time>2026-03-29T10:33:03.87Z</time></trkpt><trkpt lat="43.20371038133978" lon="12.22291094929476"><ele>577.5</ele><time>2026-03-29T10:33:05.869Z</time></trkpt><trkpt lat="43.203624444052004" lon="12.222997592131223"><ele>578.0</ele><time>2026-03-29T10:33:07.869Z</time></trkpt><trkpt lat="43.2035301904233" lon="12.223085557497903"><ele>578.5</ele><time>2026-03-29T10:33:09.869Z</time></trkpt><trkpt lat="43.20340648747215" lon="12.223119829761178"><ele>579.0</ele><time>2026-03-29T10:33:11.869Z</time></trkpt><trkpt lat="43.20328806530145" lon="12.223168047330217"><ele>582.0</ele><time>2026-03-29T10:33:13.869Z</time></trkpt><trkpt lat="43.203231318671854" lon="12.223210042324729"><ele>585.0</ele><time>2026-03-29T10:33:14.869Z</time></trkpt><trkpt lat="43.20316334703311" lon="12.223239860842465"><ele>588.0</ele><time>2026-03-29T10:33:15.869Z</time></trkpt><trkpt lat="43.20309176622783" lon="12.223268377348262"><ele>591.0</ele><time>2026-03-29T10:33:16.869Z</time></trkpt><trkpt lat="43.203027219985266" lon="12.223295973236503"><ele>594.0</ele><time>2026-03-29T10:33:17.869Z</time></trkpt><trkpt lat="43.2029568071738" lon="12.223300575708944"><ele>597.0</ele><time>2026-03-29T10:33:18.872Z</time></trkpt><trkpt lat="43.202832633465434" lon="12.223252486799192"><ele>597.5</ele><time>2026-03-29T10:33:20.872Z</time></trkpt><trkpt lat="43.20275702921199" lon="12.223226425176115"><ele>598.0</ele><time>2026-03-29T10:33:22.872Z</time></trkpt><trkpt lat="43.20268658183378" lon="12.223228226500202"><ele>598.5</ele><time>2026-03-29T10:33:25.872Z</time></trkpt><trkpt lat="43.20260567912575" lon="12.223263540154866"><ele>599.0</ele><time>2026-03-29T10:33:38.871Z</time></trkpt><trkpt lat="43.20250707850011" lon="12.223360303108375"><ele>599.5</ele><time>2026-03-29T10:33:40.871Z</time></trkpt><trkpt lat="43.20246320916171" lon="12.223438472271617"><ele>600.0</ele><time>2026-03-29T10:33:41.871Z</time></trkpt><trkpt lat="43.20244767235012" lon="12.223538413912381"><ele>600.0</ele><time>2026-03-29T10:33:43.871Z</time></trkpt><trkpt lat="43.202411546629676" lon="12.223654203278633"><ele>600.0</ele><time>2026-03-29T10:33:46.871Z</time></trkpt><trkpt lat="43.202357067475596" lon="12.223723087491427"><ele>600.0</ele><time>2026-03-29T10:33:48.871Z</time></trkpt><trkpt lat="43.20227737848121" lon="12.223720805894468"><ele>600.0</ele><time>2026-03-29T10:33:51.871Z</time></trkpt><trkpt lat="43.20216349601451" lon="12.223723104493756"><ele>600.0</ele><time>2026-03-29T10:33:53.871Z</time></trkpt><trkpt lat="43.20208101112312" lon="12.223814416986967"><ele>601.1428571428571</ele><time>2026-03-29T10:33:55.871Z</time></trkpt><trkpt lat="43.20207297632995" lon="12.22394753834233"><ele>602.2857142857142</ele><time>2026-03-29T10:33:57.871Z</time></trkpt><trkpt lat="43.20207840642567" lon="12.224042832200222"><ele>603.4285714285713</ele><time>2026-03-29T10:33:59.871Z</time></trkpt><trkpt lat="43.20206831398119" lon="12.224133879983885"><ele>604.5714285714286</ele><time>2026-03-29T10:34:02.871Z</time></trkpt><trkpt lat="43.20200174157765" lon="12.224147324725713"><ele>605.7142857142858</ele><time>2026-03-29T10:34:09.871Z</time></trkpt><trkpt lat="43.201939229496446" lon="12.22417765036768"><ele>606.8571428571428</ele><time>2026-03-29T10:34:11.871Z</time></trkpt><trkpt lat="43.20187311879978" lon="12.22422930167951"><ele>608.0</ele><time>2026-03-29T10:34:13.871Z</time></trkpt><trkpt lat="43.20175800553817" lon="12.224356360880547"><ele>612.4</ele><time>2026-03-29T10:34:15.871Z</time></trkpt><trkpt lat="43.20166501564493" lon="12.224430392886909"><ele>616.8</ele><time>2026-03-29T10:34:16.871Z</time></trkpt><trkpt lat="43.20157085058701" lon="12.224515175624424"><ele>621.2</ele><time>2026-03-29T10:34:17.871Z</time></trkpt><trkpt lat="43.201477024497564" lon="12.224567531598222"><ele>625.6</ele><time>2026-03-29T10:34:18.871Z</time></trkpt><trkpt lat="43.201379537405586" lon="12.224579980172475"><ele>630.0</ele><time>2026-03-29T10:34:19.871Z</time></trkpt><trkpt lat="43.20123160705278" lon="12.224634864281587"><ele>630.2</ele><time>2026-03-29T10:34:20.871Z</time></trkpt><trkpt lat="43.201093806580566" lon="12.224703097963149"><ele>630.4</ele><time>2026-03-29T10:34:21.871Z</time></trkpt><trkpt lat="43.20099276020945" lon="12.224740180906515"><ele>630.6</ele><time>2026-03-29T10:34:22.871Z</time></trkpt><trkpt lat="43.200922215611946" lon="12.224723948894914"><ele>630.8</ele><time>2026-03-29T10:34:23.871Z</time></trkpt><trkpt lat="43.200838955214984" lon="12.224702472094988"><ele>631.0</ele><time>2026-03-29T10:34:24.871Z</time></trkpt><trkpt lat="43.20070910778752" lon="12.224686917507448"><ele>636.0</ele><time>2026-03-29T10:34:25.871Z</time></trkpt><trkpt lat="43.20058787878155" lon="12.224674913260415"><ele>641.0</ele><time>2026-03-29T10:34:26.871Z</time></trkpt><trkpt lat="43.20045308084432" lon="12.224664298590126"><ele>646.0</ele><time>2026-03-29T10:34:27.871Z</time></trkpt><trkpt lat="43.2003214069669" lon="12.22464701986933"><ele>651.0</ele><time>2026-03-29T10:34:28.871Z</time></trkpt><trkpt lat="43.20022411234432" lon="12.224639814414308"><ele>651.0</ele><time>2026-03-29T10:34:29.87Z</time></trkpt><trkpt lat="43.20013470063986" lon="12.224641490621012"><ele>651.0</ele><time>2026-03-29T10:34:31.87Z</time></trkpt><trkpt lat="43.20007950372075" lon="12.22474835548381"><ele>651.0</ele><time>2026-03-29T10:34:34.87Z</time></trkpt><trkpt lat="43.20010250599495" lon="12.224838711041674"><ele>651.0</ele><time>2026-03-29T10:34:36.87Z</time></trkpt><trkpt lat="43.200136498355434" lon="12.22496043332408"><ele>651.0</ele><time>2026-03-29T10:34:38.87Z</time></trkpt><trkpt lat="43.20014511968243" lon="12.225046341385093"><ele>651.0</ele><time>2026-03-29T10:34:40.87Z</time></trkpt><trkpt lat="43.200201480804765" lon="12.225264616606228"><ele>651.5</ele><time>2026-03-29T10:34:42.87Z</time></trkpt><trkpt lat="43.20021532818818" lon="12.225465975031359"><ele>652.0</ele><time>2026-03-29T10:34:43.87Z</time></trkpt><trkpt lat="43.200224652290274" lon="12.225669200245818"><ele>652.5</ele><time>2026-03-29T10:34:44.87Z</time></trkpt><trkpt lat="43.20024529453233" lon="12.225873352012044"><ele>653.0</ele><time>2026-03-29T10:34:45.87Z</time></trkpt><trkpt lat="43.200261384869414" lon="12.226066559809102"><ele>653.0</ele><time>2026-03-29T10:34:46.87Z</time></trkpt><trkpt lat="43.200268167431894" lon="12.226254972229441"><ele>653.0</ele><time>2026-03-29T10:34:47.87Z</time></trkpt><trkpt lat="43.20028567022844" lon="12.226489157802622"><ele>653.0</ele><time>2026-03-29T10:34:48.87Z</time></trkpt><trkpt lat="43.200305588754404" lon="12.22670858332154"><ele>653.6666666666666</ele><time>2026-03-29T10:34:49.87Z</time></trkpt><trkpt lat="43.200326732754746" lon="12.226913159652439"><ele>654.3333333333334</ele><time>2026-03-29T10:34:50.87Z</time></trkpt><trkpt lat="43.200351031338464" lon="12.22712680120904"><ele>655.0</ele><time>2026-03-29T10:34:51.87Z</time></trkpt><trkpt lat="43.20036869714769" lon="12.227320548885482"><ele>656.0</ele><time>2026-03-29T10:34:52.87Z</time></trkpt><trkpt lat="43.20038519267056" lon="12.227488760741267"><ele>657.0</ele><time>2026-03-29T10:34:53.87Z</time></trkpt><trkpt lat="43.200403469686925" lon="12.227639739695903"><ele>658.0</ele><time>2026-03-29T10:34:54.87Z</time></trkpt><trkpt lat="43.20044262487336" lon="12.227779490073697"><ele>659.0</ele><time>2026-03-29T10:34:55.87Z</time></trkpt><trkpt lat="43.20050355717993" lon="12.227925198844614"><ele>659.0</ele><time>2026-03-29T10:34:56.87Z</time></trkpt><trkpt lat="43.20057544358124" lon="12.228065324262552"><ele>659.0</ele><time>2026-03-29T10:34:57.87Z</time></trkpt><trkpt lat="43.20063873091595" lon="12.228191333333285"><ele>659.0</ele><time>2026-03-29T10:34:58.87Z</time></trkpt><trkpt lat="43.20071167141662" lon="12.228317534824763"><ele>659.0</ele><time>2026-03-29T10:34:59.87Z</time></trkpt><trkpt lat="43.2007813650324" lon="12.228444936306825"><ele>661.2</ele><time>2026-03-29T10:35:00.87Z</time></trkpt><trkpt lat="43.200839440149956" lon="12.228598167362593"><ele>663.4000000000001</ele><time>2026-03-29T10:35:01.87Z</time></trkpt><trkpt lat="43.20086166588868" lon="12.228750669342169"><ele>665.6</ele><time>2026-03-29T10:35:02.87Z</time></trkpt><trkpt lat="43.20087583265609" lon="12.228883176117993"><ele>667.8</ele><time>2026-03-29T10:35:03.87Z</time></trkpt><trkpt lat="43.200852654357185" lon="12.2289950625005"><ele>670.0</ele><time>2026-03-29T10:35:04.87Z</time></trkpt><trkpt lat="43.20081766221124" lon="12.229110175907953"><ele>670.6</ele><time>2026-03-29T10:35:05.87Z</time></trkpt><trkpt lat="43.200767622871076" lon="12.229224804611185"><ele>671.2</ele><time>2026-03-29T10:35:06.87Z</time></trkpt><trkpt lat="43.200707437610276" lon="12.229320232822706"><ele>671.8</ele><time>2026-03-29T10:35:07.87Z</time></trkpt><trkpt lat="43.20063368053403" lon="12.229391679529757"><ele>672.4</ele><time>2026-03-29T10:35:08.87Z</time></trkpt><trkpt lat="43.200547084160796" lon="12.22942876727339"><ele>673.0</ele><time>2026-03-29T10:35:09.87Z</time></trkpt><trkpt lat="43.20045742531914" lon="12.229451739234674"><ele>669.5999999999999</ele><time>2026-03-29T10:35:10.87Z</time></trkpt><trkpt lat="43.2003495402583" lon="12.229479279227474"><ele>666.1999999999999</ele><time>2026-03-29T10:35:11.87Z</time></trkpt><trkpt lat="43.200226615202006" lon="12.229537438269423"><ele>662.8</ele><time>2026-03-29T10:35:12.87Z</time></trkpt><trkpt lat="43.200136599118906" lon="12.229575071166398"><ele>659.4</ele><time>2026-03-29T10:35:13.87Z</time></trkpt><trkpt lat="43.20003629521731" lon="12.229616409865349"><ele>656.0</ele><time>2026-03-29T10:35:14.87Z</time></trkpt><trkpt lat="43.19996153438315" lon="12.229660350599334"><ele>656.0</ele><time>2026-03-29T10:35:15.87Z</time></trkpt><trkpt lat="43.19988137515322" lon="12.229701241176492"><ele>656.0</ele><time>2026-03-29T10:35:16.87Z</time></trkpt><trkpt lat="43.1998119560533" lon="12.229765871770985"><ele>656.0</ele><time>2026-03-29T10:35:17.869Z</time></trkpt><trkpt lat="43.199752909735324" lon="12.229844705566764"><ele>656.0</ele><time>2026-03-29T10:35:18.869Z</time></trkpt><trkpt lat="43.199720981574785" lon="12.229926029850828"><ele>656.0</ele><time>2026-03-29T10:35:19.869Z</time></trkpt><trkpt lat="43.19970679882118" lon="12.230019722407553"><ele>656.0</ele><time>2026-03-29T10:35:20.869Z</time></trkpt><trkpt lat="43.19972861724408" lon="12.230102274362482"><ele>655.8333333333333</ele><time>2026-03-29T10:35:21.869Z</time></trkpt><trkpt lat="43.19975705270464" lon="12.230188250988364"><ele>655.6666666666666</ele><time>2026-03-29T10:35:22.869Z</time></trkpt><trkpt lat="43.19980832380405" lon="12.230287612779419"><ele>655.5</ele><time>2026-03-29T10:35:23.869Z</time></trkpt><trkpt lat="43.199859953949506" lon="12.230406741508608"><ele>655.3333333333334</ele><time>2026-03-29T10:35:24.872Z</time></trkpt><trkpt lat="43.199917622416066" lon="12.230508927243765"><ele>655.1666666666667</ele><time>2026-03-29T10:35:25.871Z</time></trkpt><trkpt lat="43.199975910422594" lon="12.230602367106876"><ele>655.0</ele><time>2026-03-29T10:35:26.871Z</time></trkpt><trkpt lat="43.20003946337477" lon="12.230691472970337"><ele>655.5</ele><time>2026-03-29T10:35:27.871Z</time></trkpt><trkpt lat="43.200110443918746" lon="12.23078533007663"><ele>656.0</ele><time>2026-03-29T10:35:28.871Z</time></trkpt><trkpt lat="43.20017593372077" lon="12.230867495007132"><ele>656.5</ele><time>2026-03-29T10:35:29.871Z</time></trkpt><trkpt lat="43.200274854937135" lon="12.23096851989585"><ele>657.0</ele><time>2026-03-29T10:35:30.872Z</time></trkpt><trkpt lat="43.2004151300073" lon="12.231066505306517"><ele>657.0</ele><time>2026-03-29T10:35:31.871Z</time></trkpt><trkpt lat="43.200585994864596" lon="12.231156160090517"><ele>657.0</ele><time>2026-03-29T10:35:32.871Z</time></trkpt><trkpt lat="43.20075974783816" lon="12.2312046942565"><ele>657.0</ele><time>2026-03-29T10:35:33.872Z</time></trkpt><trkpt lat="43.20093072510875" lon="12.23122234409966"><ele>658.25</ele><time>2026-03-29T10:35:34.871Z</time></trkpt><trkpt lat="43.201087464192405" lon="12.231250339939399"><ele>659.5</ele><time>2026-03-29T10:35:35.871Z</time></trkpt><trkpt lat="43.20121812040167" lon="12.231284226289594"><ele>660.75</ele><time>2026-03-29T10:35:36.872Z</time></trkpt><trkpt lat="43.20132212143356" lon="12.231328695420956"><ele>662.0</ele><time>2026-03-29T10:35:37.872Z</time></trkpt><trkpt lat="43.201386555905586" lon="12.231391629626161"><ele>656.25</ele><time>2026-03-29T10:35:38.871Z</time></trkpt><trkpt lat="43.20142855420202" lon="12.231534318565329"><ele>650.5</ele><time>2026-03-29T10:35:39.871Z</time></trkpt><trkpt lat="43.20143240111101" lon="12.23172600693965"><ele>644.75</ele><time>2026-03-29T10:35:40.871Z</time></trkpt><trkpt lat="43.20140333298036" lon="12.231927264617054"><ele>639.0</ele><time>2026-03-29T10:35:41.871Z</time></trkpt><trkpt lat="43.20135401333606" lon="12.232162997413766"><ele>634.3333333333334</ele><time>2026-03-29T10:35:42.871Z</time></trkpt><trkpt lat="43.20132799130129" lon="12.232389057795986"><ele>629.6666666666667</ele><time>2026-03-29T10:35:43.871Z</time></trkpt><trkpt lat="43.201311977014015" lon="12.232617192652567"><ele>625.0</ele><time>2026-03-29T10:35:44.871Z</time></trkpt><trkpt lat="43.20130898256152" lon="12.232850283136976"><ele>625.0</ele><time>2026-03-29T10:35:45.871Z</time></trkpt><trkpt lat="43.2013302378492" lon="12.233094161915366"><ele>625.0</ele><time>2026-03-29T10:35:46.871Z</time></trkpt><trkpt lat="43.20137376954395" lon="12.233354990316817"><ele>625.0</ele><time>2026-03-29T10:35:47.871Z</time></trkpt><trkpt lat="43.201417341787575" lon="12.233609583080131"><ele>625.0</ele><time>2026-03-29T10:35:48.871Z</time></trkpt><trkpt lat="43.201465765252976" lon="12.233880142077627"><ele>625.0</ele><time>2026-03-29T10:35:49.871Z</time></trkpt><trkpt lat="43.20150947960747" lon="12.234141190593856"><ele>625.0</ele><time>2026-03-29T10:35:50.871Z</time></trkpt><trkpt lat="43.20155357729088" lon="12.234411345156197"><ele>630.3333333333334</ele><time>2026-03-29T10:35:51.871Z</time></trkpt><trkpt lat="43.20159588164585" lon="12.234685947226039"><ele>635.6666666666666</ele><time>2026-03-29T10:35:52.871Z</time></trkpt><trkpt lat="43.20163625877721" lon="12.234940329050964"><ele>641.0</ele><time>2026-03-29T10:35:53.871Z</time></trkpt><trkpt lat="43.201685376946344" lon="12.235226559231934"><ele>641.3333333333333</ele><time>2026-03-29T10:35:54.871Z</time></trkpt><trkpt lat="43.201722860051404" lon="12.235474669178688"><ele>641.6666666666666</ele><time>2026-03-29T10:35:55.871Z</time></trkpt><trkpt lat="43.20176878163277" lon="12.235720956555362"><ele>642.0</ele><time>2026-03-29T10:35:56.871Z</time></trkpt><trkpt lat="43.20182150311116" lon="12.235949793751635"><ele>642.0</ele><time>2026-03-29T10:35:57.871Z</time></trkpt><trkpt lat="43.20188183520915" lon="12.236179142133846"><ele>642.0</ele><time>2026-03-29T10:35:58.871Z</time></trkpt><trkpt lat="43.20193327445056" lon="12.236407443098848"><ele>642.0</ele><time>2026-03-29T10:35:59.871Z</time></trkpt><trkpt lat="43.20199861959438" lon="12.23662924404209"><ele>641.0</ele><time>2026-03-29T10:36:00.871Z</time></trkpt><trkpt lat="43.20205983858651" lon="12.236850199478303"><ele>640.0</ele><time>2026-03-29T10:36:01.871Z</time></trkpt><trkpt lat="43.20211841174082" lon="12.237072507010698"><ele>639.0</ele><time>2026-03-29T10:36:02.871Z</time></trkpt><trkpt lat="43.20217319571502" lon="12.237294384132623"><ele>638.6666666666666</ele><time>2026-03-29T10:36:03.871Z</time></trkpt><trkpt lat="43.202201084071895" lon="12.237492753627642"><ele>638.3333333333333</ele><time>2026-03-29T10:36:04.871Z</time></trkpt><trkpt lat="43.20224122617933" lon="12.23771425605858"><ele>638.0</ele><time>2026-03-29T10:36:05.871Z</time></trkpt><trkpt lat="43.202282088342436" lon="12.237932908062515"><ele>636.6666666666666</ele><time>2026-03-29T10:36:06.871Z</time></trkpt><trkpt lat="43.20232446816301" lon="12.238169235533972"><ele>635.3333333333334</ele><time>2026-03-29T10:36:07.871Z</time></trkpt><trkpt lat="43.20236087266581" lon="12.238386914459092"><ele>634.0</ele><time>2026-03-29T10:36:08.871Z</time></trkpt><trkpt lat="43.202403957313436" lon="12.238597695801563"><ele>640.0</ele><time>2026-03-29T10:36:09.871Z</time></trkpt><trkpt lat="43.20246554291908" lon="12.238798391279172"><ele>646.0</ele><time>2026-03-29T10:36:10.871Z</time></trkpt><trkpt lat="43.20253836568152" lon="12.238991487267377"><ele>652.0</ele><time>2026-03-29T10:36:11.871Z</time></trkpt><trkpt lat="43.202618254637876" lon="12.239181703690708"><ele>652.0</ele><time>2026-03-29T10:36:12.871Z</time></trkpt><trkpt lat="43.20270119293844" lon="12.239367919048988"><ele>652.0</ele><time>2026-03-29T10:36:13.871Z</time></trkpt><trkpt lat="43.20276387091633" lon="12.23953921951287"><ele>652.0</ele><time>2026-03-29T10:36:14.871Z</time></trkpt><trkpt lat="43.20281220780191" lon="12.239681149761193"><ele>652.0</ele><time>2026-03-29T10:36:15.871Z</time></trkpt><trkpt lat="43.20284642202266" lon="12.239773121698073"><ele>652.0</ele><time>2026-03-29T10:36:16.871Z</time></trkpt><trkpt lat="43.20283954845672" lon="12.239655812783452"><ele>652.0</ele><time>2026-03-29T10:36:23.871Z</time></trkpt><trkpt lat="43.2027431154364" lon="12.239704060012253"><ele>652.0</ele><time>2026-03-29T10:36:27.87Z</time></trkpt><trkpt lat="43.20268965804639" lon="12.239831314940455"><ele>652.0</ele><time>2026-03-29T10:36:28.87Z</time></trkpt><trkpt lat="43.20263146098384" lon="12.239983126790735"><ele>652.0</ele><time>2026-03-29T10:36:29.87Z</time></trkpt><trkpt lat="43.20256257857181" lon="12.240117632889483"><ele>652.2</ele><time>2026-03-29T10:36:30.87Z</time></trkpt><trkpt lat="43.2024991764971" lon="12.24023490086939"><ele>652.4000000000001</ele><time>2026-03-29T10:36:31.87Z</time></trkpt><trkpt lat="43.2024345256462" lon="12.240313292775252"><ele>652.5999999999999</ele><time>2026-03-29T10:36:32.87Z</time></trkpt><trkpt lat="43.202387178830215" lon="12.240403869026881"><ele>652.8</ele><time>2026-03-29T10:36:33.87Z</time></trkpt><trkpt lat="43.20232905099485" lon="12.240527167388676"><ele>653.0</ele><time>2026-03-29T10:36:35.87Z</time></trkpt><trkpt lat="43.20236688464701" lon="12.240679656775416"><ele>652.5999999999999</ele><time>2026-03-29T10:36:37.87Z</time></trkpt><trkpt lat="43.202404692928184" lon="12.240769293187856"><ele>652.1999999999999</ele><time>2026-03-29T10:36:38.87Z</time></trkpt><trkpt lat="43.20247573164389" lon="12.24088826101409"><ele>651.8</ele><time>2026-03-29T10:36:39.87Z</time></trkpt><trkpt lat="43.20256659868186" lon="12.241009963097152"><ele>651.4</ele><time>2026-03-29T10:36:40.87Z</time></trkpt><trkpt lat="43.202653952434844" lon="12.241091328804199"><ele>651.0</ele><time>2026-03-29T10:36:41.87Z</time></trkpt><trkpt lat="43.202744691870656" lon="12.241176683494878"><ele>651.0</ele><time>2026-03-29T10:36:42.87Z</time></trkpt><trkpt lat="43.2028543539846" lon="12.241266766867719"><ele>651.0</ele><time>2026-03-29T10:36:43.87Z</time></trkpt><trkpt lat="43.2029629127706" lon="12.241352127365433"><ele>651.0</ele><time>2026-03-29T10:36:44.87Z</time></trkpt><trkpt lat="43.20307640370955" lon="12.241451355736984"><ele>651.0</ele><time>2026-03-29T10:36:45.87Z</time></trkpt><trkpt lat="43.20317448864324" lon="12.241562160785465"><ele>649.4</ele><time>2026-03-29T10:36:46.87Z</time></trkpt><trkpt lat="43.20327042254657" lon="12.241668116020326"><ele>647.8</ele><time>2026-03-29T10:36:47.87Z</time></trkpt><trkpt lat="43.203376400087386" lon="12.241756985745017"><ele>646.1999999999999</ele><time>2026-03-29T10:36:48.87Z</time></trkpt><trkpt lat="43.20345248443255" lon="12.241838199786468"><ele>644.5999999999999</ele><time>2026-03-29T10:36:49.87Z</time></trkpt><trkpt lat="43.2035227356702" lon="12.241903294228559"><ele>643.0</ele><time>2026-03-29T10:36:50.87Z</time></trkpt><trkpt lat="43.20360604524314" lon="12.241947298047803"><ele>643.0</ele><time>2026-03-29T10:36:51.87Z</time></trkpt><trkpt lat="43.20367549856681" lon="12.242002424084115"><ele>643.0</ele><time>2026-03-29T10:36:52.87Z</time></trkpt><trkpt lat="43.2037242317542" lon="12.242078571596013"><ele>643.0</ele><time>2026-03-29T10:36:53.87Z</time></trkpt><trkpt lat="43.203777211116225" lon="12.242186779225259"><ele>643.0</ele><time>2026-03-29T10:36:54.87Z</time></trkpt><trkpt lat="43.20380363006749" lon="12.242322729924819"><ele>643.0</ele><time>2026-03-29T10:36:55.87Z</time></trkpt><trkpt lat="43.20382087931721" lon="12.242466677195692"><ele>639.5</ele><time>2026-03-29T10:36:56.87Z</time></trkpt><trkpt lat="43.20382999043098" lon="12.242597259456197"><ele>636.0</ele><time>2026-03-29T10:36:57.87Z</time></trkpt><trkpt lat="43.20383954915718" lon="12.242706829362207"><ele>632.5</ele><time>2026-03-29T10:36:58.87Z</time></trkpt><trkpt lat="43.20382427148642" lon="12.242804235433175"><ele>629.0</ele><time>2026-03-29T10:36:59.87Z</time></trkpt><trkpt lat="43.2037793293975" lon="12.242877459366644"><ele>625.5</ele><time>2026-03-29T10:37:00.87Z</time></trkpt><trkpt lat="43.203712333102374" lon="12.24290516885116"><ele>622.0</ele><time>2026-03-29T10:37:01.87Z</time></trkpt><trkpt lat="43.20362257568777" lon="12.242914048581444"><ele>622.0</ele><time>2026-03-29T10:37:02.87Z</time></trkpt><trkpt lat="43.20353313966625" lon="12.242942492471846"><ele>622.0</ele><time>2026-03-29T10:37:03.87Z</time></trkpt><trkpt lat="43.2034270526867" lon="12.242980336903983"><ele>622.0</ele><time>2026-03-29T10:37:04.87Z</time></trkpt><trkpt lat="43.203325663006886" lon="12.24304169047337"><ele>622.0</ele><time>2026-03-29T10:37:05.87Z</time></trkpt><trkpt lat="43.203203270286146" lon="12.243116690809709"><ele>622.0</ele><time>2026-03-29T10:37:06.87Z</time></trkpt><trkpt lat="43.203081940650215" lon="12.243157719495773"><ele>619.0</ele><time>2026-03-29T10:37:07.87Z</time></trkpt><trkpt lat="43.2029874400315" lon="12.243232473013649"><ele>616.0</ele><time>2026-03-29T10:37:08.87Z</time></trkpt><trkpt lat="43.20291066264674" lon="12.243301269246679"><ele>613.0</ele><time>2026-03-29T10:37:09.87Z</time></trkpt><trkpt lat="43.202838093920406" lon="12.24336504906595"><ele>610.0</ele><time>2026-03-29T10:37:10.87Z</time></trkpt><trkpt lat="43.202777774790505" lon="12.243459926043574"><ele>607.0</ele><time>2026-03-29T10:37:11.87Z</time></trkpt><trkpt lat="43.202726971774226" lon="12.243564722451964"><ele>607.0</ele><time>2026-03-29T10:37:12.87Z</time></trkpt><trkpt lat="43.20268390048913" lon="12.243658893483259"><ele>607.0</ele><time>2026-03-29T10:37:13.87Z</time></trkpt><trkpt lat="43.20264144492595" lon="12.243737134266665"><ele>607.0</ele><time>2026-03-29T10:37:14.869Z</time></trkpt><trkpt lat="43.202508975634274" lon="12.243751441283965"><ele>607.0</ele><time>2026-03-29T10:37:16.869Z</time></trkpt><trkpt lat="43.20244526186963" lon="12.243734250282765"><ele>607.0</ele><time>2026-03-29T10:37:17.869Z</time></trkpt><trkpt lat="43.20236509129355" lon="12.243740835730218"><ele>607.0</ele><time>2026-03-29T10:37:18.869Z</time></trkpt><trkpt lat="43.20228728419636" lon="12.243768013112419"><ele>604.6</ele><time>2026-03-29T10:37:19.869Z</time></trkpt><trkpt lat="43.20221547713412" lon="12.243814550423558"><ele>602.2</ele><time>2026-03-29T10:37:20.869Z</time></trkpt><trkpt lat="43.202164580971896" lon="12.24389887758221"><ele>599.8</ele><time>2026-03-29T10:37:21.869Z</time></trkpt><trkpt lat="43.20210320410519" lon="12.244008128293887"><ele>597.4</ele><time>2026-03-29T10:37:22.869Z</time></trkpt><trkpt lat="43.202041058190844" lon="12.244120630679042"><ele>595.0</ele><time>2026-03-29T10:37:23.869Z</time></trkpt><trkpt lat="43.201966209678965" lon="12.244233126714105"><ele>595.0</ele><time>2026-03-29T10:37:24.869Z</time></trkpt><trkpt lat="43.20189660089531" lon="12.244348662154938"><ele>595.0</ele><time>2026-03-29T10:37:25.869Z</time></trkpt><trkpt lat="43.201841865764855" lon="12.244470392194781"><ele>595.0</ele><time>2026-03-29T10:37:26.869Z</time></trkpt><trkpt lat="43.20179823513037" lon="12.244605218095238"><ele>595.0</ele><time>2026-03-29T10:37:27.869Z</time></trkpt><trkpt lat="43.20176083804741" lon="12.244707369799128"><ele>595.0</ele><time>2026-03-29T10:37:28.869Z</time></trkpt><trkpt lat="43.20175973472247" lon="12.244819645156364"><ele>595.5</ele><time>2026-03-29T10:37:30.872Z</time></trkpt><trkpt lat="43.20184841362068" lon="12.244930741677452"><ele>596.0</ele><time>2026-03-29T10:37:32.871Z</time></trkpt><trkpt lat="43.201910281532854" lon="12.24507213024302"><ele>596.5</ele><time>2026-03-29T10:37:33.871Z</time></trkpt><trkpt lat="43.201947050214756" lon="12.245249945462156"><ele>597.0</ele><time>2026-03-29T10:37:34.87Z</time></trkpt><trkpt lat="43.201960810809744" lon="12.245452004024855"><ele>597.0</ele><time>2026-03-29T10:37:35.87Z</time></trkpt><trkpt lat="43.201959270507096" lon="12.24561764311277"><ele>597.0</ele><time>2026-03-29T10:37:36.872Z</time></trkpt><trkpt lat="43.20196045509649" lon="12.245736948620669"><ele>597.0</ele><time>2026-03-29T10:37:37.872Z</time></trkpt><trkpt lat="43.20199104226187" lon="12.245857618152975"><ele>597.0</ele><time>2026-03-29T10:37:38.872Z</time></trkpt><trkpt lat="43.20201982201522" lon="12.245978664474855"><ele>597.0</ele><time>2026-03-29T10:37:39.871Z</time></trkpt><trkpt lat="43.2020249375869" lon="12.246107219805138"><ele>594.5</ele><time>2026-03-29T10:37:40.871Z</time></trkpt><trkpt lat="43.202004722869596" lon="12.246260291633543"><ele>592.0</ele><time>2026-03-29T10:37:41.871Z</time></trkpt><trkpt lat="43.201954518610115" lon="12.246401227648658"><ele>589.5</ele><time>2026-03-29T10:37:42.872Z</time></trkpt><trkpt lat="43.20188250655557" lon="12.246549778106312"><ele>587.0</ele><time>2026-03-29T10:37:43.871Z</time></trkpt><trkpt lat="43.20182314374383" lon="12.246683289368665"><ele>587.0</ele><time>2026-03-29T10:37:44.871Z</time></trkpt><trkpt lat="43.20178596625149" lon="12.246803659384383"><ele>587.0</ele><time>2026-03-29T10:37:45.871Z</time></trkpt><trkpt lat="43.201782222983105" lon="12.246917529379123"><ele>587.0</ele><time>2026-03-29T10:37:46.871Z</time></trkpt><trkpt lat="43.201792180581165" lon="12.247035428665077"><ele>587.0</ele><time>2026-03-29T10:37:47.871Z</time></trkpt><trkpt lat="43.20180740501737" lon="12.247144619591507"><ele>587.0</ele><time>2026-03-29T10:37:48.871Z</time></trkpt><trkpt lat="43.20181757949123" lon="12.247243429170107"><ele>587.0</ele><time>2026-03-29T10:37:49.871Z</time></trkpt><trkpt lat="43.201845490523255" lon="12.247355435914743"><ele>588.5</ele><time>2026-03-29T10:37:50.871Z</time></trkpt><trkpt lat="43.20187437531287" lon="12.247445819106469"><ele>590.0</ele><time>2026-03-29T10:37:51.871Z</time></trkpt><trkpt lat="43.201909308954356" lon="12.247524663500425"><ele>591.5</ele><time>2026-03-29T10:37:52.871Z</time></trkpt><trkpt lat="43.20195366555267" lon="12.247671243660932"><ele>593.0</ele><time>2026-03-29T10:37:54.871Z</time></trkpt><trkpt lat="43.201890319742134" lon="12.247780950368508"><ele>594.5</ele><time>2026-03-29T10:37:56.871Z</time></trkpt><trkpt lat="43.20184039474459" lon="12.247844971081648"><ele>596.0</ele><time>2026-03-29T10:37:57.871Z</time></trkpt><trkpt lat="43.2017710000939" lon="12.247962792133942"><ele>596.0</ele><time>2026-03-29T10:37:59.87Z</time></trkpt><trkpt lat="43.20172417709779" lon="12.248117786719995"><ele>596.0</ele><time>2026-03-29T10:38:01.87Z</time></trkpt><trkpt lat="43.20171230517216" lon="12.248217106488575"><ele>596.0</ele><time>2026-03-29T10:38:02.87Z</time></trkpt><trkpt lat="43.2017036978743" lon="12.248312918291926"><ele>596.0</ele><time>2026-03-29T10:38:03.87Z</time></trkpt><trkpt lat="43.20169319220207" lon="12.248423522142872"><ele>596.0</ele><time>2026-03-29T10:38:04.87Z</time></trkpt><trkpt lat="43.201690466304996" lon="12.248538753281085"><ele>596.0</ele><time>2026-03-29T10:38:05.87Z</time></trkpt><trkpt lat="43.201706975865335" lon="12.248663188415014"><ele>595.3333333333333</ele><time>2026-03-29T10:38:06.87Z</time></trkpt><trkpt lat="43.20171213972636" lon="12.248770239956627"><ele>594.6666666666666</ele><time>2026-03-29T10:38:07.87Z</time></trkpt><trkpt lat="43.2017156510338" lon="12.248863788680085"><ele>594.0</ele><time>2026-03-29T10:38:08.87Z</time></trkpt><trkpt lat="43.20175172786273" lon="12.248952550929367"><ele>593.3333333333334</ele><time>2026-03-29T10:38:11.87Z</time></trkpt><trkpt lat="43.20181637119625" lon="12.249043596432516"><ele>592.6666666666667</ele><time>2026-03-29T10:38:12.87Z</time></trkpt><trkpt lat="43.20189173021249" lon="12.249108420904006"><ele>592.0</ele><time>2026-03-29T10:38:13.87Z</time></trkpt><trkpt lat="43.201982491553025" lon="12.249197913204664"><ele>591.4</ele><time>2026-03-29T10:38:14.87Z</time></trkpt><trkpt lat="43.20206369930195" lon="12.24926960840654"><ele>590.8000000000001</ele><time>2026-03-29T10:38:15.87Z</time></trkpt><trkpt lat="43.20214120576749" lon="12.2493628945703"><ele>590.2</ele><time>2026-03-29T10:38:16.87Z</time></trkpt><trkpt lat="43.20220329720227" lon="12.249450027996797"><ele>589.6</ele><time>2026-03-29T10:38:17.87Z</time></trkpt><trkpt lat="43.202288409743" lon="12.24954306109231"><ele>589.0</ele><time>2026-03-29T10:38:19.87Z</time></trkpt><trkpt lat="43.20234243507991" lon="12.249617051012692"><ele>589.0</ele><time>2026-03-29T10:38:20.87Z</time></trkpt><trkpt lat="43.202379274522265" lon="12.249692846740325"><ele>589.0</ele><time>2026-03-29T10:38:21.87Z</time></trkpt><trkpt lat="43.20238386480608" lon="12.24978719064714"><ele>589.0</ele><time>2026-03-29T10:38:22.87Z</time></trkpt><trkpt lat="43.20233995947896" lon="12.249915902835859"><ele>589.0</ele><time>2026-03-29T10:38:24.87Z</time></trkpt><trkpt lat="43.20230924505223" lon="12.250009314319465"><ele>589.0</ele><time>2026-03-29T10:38:25.87Z</time></trkpt><trkpt lat="43.20227861979755" lon="12.250111470419144"><ele>589.0</ele><time>2026-03-29T10:38:26.87Z</time></trkpt><trkpt lat="43.202229366991766" lon="12.250214644615175"><ele>584.0</ele><time>2026-03-29T10:38:28.87Z</time></trkpt><trkpt lat="43.20217554865768" lon="12.250263770013923"><ele>579.0</ele><time>2026-03-29T10:38:29.87Z</time></trkpt><trkpt lat="43.202106322987866" lon="12.250270217909991"><ele>574.0</ele><time>2026-03-29T10:38:30.87Z</time></trkpt><trkpt lat="43.20202438527239" lon="12.250254156384592"><ele>569.0</ele><time>2026-03-29T10:38:31.87Z</time></trkpt><trkpt lat="43.201922512346165" lon="12.25023670170608"><ele>564.0</ele><time>2026-03-29T10:38:32.87Z</time></trkpt><trkpt lat="43.201833829081735" lon="12.25022093129018"><ele>559.0</ele><time>2026-03-29T10:38:33.87Z</time></trkpt><trkpt lat="43.20176617276658" lon="12.250229421512017"><ele>559.0</ele><time>2026-03-29T10:38:34.87Z</time></trkpt><trkpt lat="43.20168454485618" lon="12.25025759084803"><ele>559.0</ele><time>2026-03-29T10:38:36.87Z</time></trkpt><trkpt lat="43.201605757630674" lon="12.2503594193192"><ele>559.0</ele><time>2026-03-29T10:38:38.87Z</time></trkpt><trkpt lat="43.20153099738918" lon="12.25048000872961"><ele>559.0</ele><time>2026-03-29T10:38:40.87Z</time></trkpt><trkpt lat="43.2015212662707" lon="12.250651607290314"><ele>559.0</ele><time>2026-03-29T10:38:42.87Z</time></trkpt><trkpt lat="43.20153137282956" lon="12.250743905150987"><ele>557.8</ele><time>2026-03-29T10:38:43.87Z</time></trkpt><trkpt lat="43.20153615852083" lon="12.25084579499397"><ele>556.5999999999999</ele><time>2026-03-29T10:38:44.87Z</time></trkpt><trkpt lat="43.20152309234591" lon="12.250937114502392"><ele>555.4</ele><time>2026-03-29T10:38:45.87Z</time></trkpt><trkpt lat="43.201439792129946" lon="12.251097067813387"><ele>554.1999999999999</ele><time>2026-03-29T10:38:47.869Z</time></trkpt><trkpt lat="43.201364175293186" lon="12.251220809355425"><ele>553.0</ele><time>2026-03-29T10:38:48.869Z</time></trkpt><trkpt lat="43.20127208558421" lon="12.251367668015794"><ele>548.0</ele><time>2026-03-29T10:38:49.869Z</time></trkpt><trkpt lat="43.201195133684365" lon="12.251506313148392"><ele>543.0</ele><time>2026-03-29T10:38:50.869Z</time></trkpt><trkpt lat="43.20112368369887" lon="12.25163028062909"><ele>538.0</ele><time>2026-03-29T10:38:51.869Z</time></trkpt><trkpt lat="43.20105200203721" lon="12.251771234475678"><ele>533.0</ele><time>2026-03-29T10:38:52.869Z</time></trkpt><trkpt lat="43.20098940332148" lon="12.251924914354724"><ele>533.0</ele><time>2026-03-29T10:38:53.869Z</time></trkpt><trkpt lat="43.20093648801218" lon="12.25207838868644"><ele>533.0</ele><time>2026-03-29T10:38:54.869Z</time></trkpt><trkpt lat="43.20088437026987" lon="12.252225169447252"><ele>533.0</ele><time>2026-03-29T10:38:55.869Z</time></trkpt><trkpt lat="43.20081133969423" lon="12.252374394017869"><ele>533.0</ele><time>2026-03-29T10:38:56.869Z</time></trkpt><trkpt lat="43.20072652603535" lon="12.252505235484083"><ele>530.75</ele><time>2026-03-29T10:38:57.869Z</time></trkpt><trkpt lat="43.200656368304706" lon="12.252668128587308"><ele>528.5</ele><time>2026-03-29T10:38:58.869Z</time></trkpt><trkpt lat="43.20059145764293" lon="12.252832899672237"><ele>526.25</ele><time>2026-03-29T10:38:59.869Z</time></trkpt><trkpt lat="43.200532827453884" lon="12.252958460962923"><ele>524.0</ele><time>2026-03-29T10:39:00.869Z</time></trkpt><trkpt lat="43.20045902081307" lon="12.253090981267224"><ele>525.8</ele><time>2026-03-29T10:39:01.869Z</time></trkpt><trkpt lat="43.20035085107873" lon="12.253196885347089"><ele>527.5999999999999</ele><time>2026-03-29T10:39:02.869Z</time></trkpt><trkpt lat="43.200252048051325" lon="12.253253994282286"><ele>529.4</ele><time>2026-03-29T10:39:03.869Z</time></trkpt><trkpt lat="43.20014879655463" lon="12.253290737687003"><ele>531.1999999999999</ele><time>2026-03-29T10:39:04.869Z</time></trkpt><trkpt lat="43.200052911792405" lon="12.253311445309679"><ele>533.0</ele><time>2026-03-29T10:39:05.869Z</time></trkpt><trkpt lat="43.199946594554866" lon="12.253336902959076"><ele>531.5</ele><time>2026-03-29T10:39:06.869Z</time></trkpt><trkpt lat="43.19982369802257" lon="12.25336539819506"><ele>530.0</ele><time>2026-03-29T10:39:07.869Z</time></trkpt><trkpt lat="43.19971353169604" lon="12.25339358630386"><ele>528.5</ele><time>2026-03-29T10:39:08.869Z</time></trkpt><trkpt lat="43.19960367769227" lon="12.253438395753477"><ele>527.0</ele><time>2026-03-29T10:39:09.869Z</time></trkpt><trkpt lat="43.199488054753616" lon="12.253507735985282"><ele>527.0</ele><time>2026-03-29T10:39:10.869Z</time></trkpt><trkpt lat="43.1993735969306" lon="12.253591716514613"><ele>527.0</ele><time>2026-03-29T10:39:11.869Z</time></trkpt><trkpt lat="43.19925755183014" lon="12.253670398577613"><ele>527.0</ele><time>2026-03-29T10:39:12.869Z</time></trkpt><trkpt lat="43.199137082364814" lon="12.253744289430397"><ele>527.0</ele><time>2026-03-29T10:39:13.869Z</time></trkpt><trkpt lat="43.199037496830336" lon="12.253801546733479"><ele>527.6</ele><time>2026-03-29T10:39:14.869Z</time></trkpt><trkpt lat="43.198963545411495" lon="12.253865321999134"><ele>528.2</ele><time>2026-03-29T10:39:15.869Z</time></trkpt><trkpt lat="43.19890946694332" lon="12.253943179642373"><ele>528.8</ele><time>2026-03-29T10:39:16.869Z</time></trkpt><trkpt lat="43.198858271040734" lon="12.254070438395084"><ele>529.4</ele><time>2026-03-29T10:39:17.869Z</time></trkpt><trkpt lat="43.19878564872947" lon="12.254164088782217"><ele>530.0</ele><time>2026-03-29T10:39:18.869Z</time></trkpt><trkpt lat="43.198703736684784" lon="12.254206933841056"><ele>530.0</ele><time>2026-03-29T10:39:19.869Z</time></trkpt><trkpt lat="43.19861397575532" lon="12.254233552276268"><ele>530.0</ele><time>2026-03-29T10:39:20.869Z</time></trkpt><trkpt lat="43.19852645721777" lon="12.254255746903812"><ele>530.0</ele><time>2026-03-29T10:39:21.869Z</time></trkpt><trkpt lat="43.19842282332645" lon="12.254289896284236"><ele>530.0</ele><time>2026-03-29T10:39:22.869Z</time></trkpt><trkpt lat="43.19829353530831" lon="12.254319426746598"><ele>530.0</ele><time>2026-03-29T10:39:23.869Z</time></trkpt><trkpt lat="43.19816305837982" lon="12.254357275279926"><ele>527.4</ele><time>2026-03-29T10:39:24.869Z</time></trkpt><trkpt lat="43.19804587382261" lon="12.254385116898892"><ele>524.8</ele><time>2026-03-29T10:39:25.869Z</time></trkpt><trkpt lat="43.19793357953088" lon="12.2544026916963"><ele>522.2</ele><time>2026-03-29T10:39:26.869Z</time></trkpt><trkpt lat="43.19781651871411" lon="12.254427666977884"><ele>519.6</ele><time>2026-03-29T10:39:27.869Z</time></trkpt><trkpt lat="43.19773138003458" lon="12.254457080739543"><ele>517.0</ele><time>2026-03-29T10:39:28.869Z</time></trkpt><trkpt lat="43.19765032990601" lon="12.25449373772709"><ele>517.0</ele><time>2026-03-29T10:39:29.869Z</time></trkpt><trkpt lat="43.19757316227109" lon="12.254549620489266"><ele>517.0</ele><time>2026-03-29T10:39:30.869Z</time></trkpt><trkpt lat="43.197508689420665" lon="12.254625342640283"><ele>517.0</ele><time>2026-03-29T10:39:31.869Z</time></trkpt><trkpt lat="43.19744546415113" lon="12.25469419444197"><ele>517.0</ele><time>2026-03-29T10:39:32.869Z</time></trkpt><trkpt lat="43.19739540814232" lon="12.254783549155611"><ele>517.0</ele><time>2026-03-29T10:39:33.869Z</time></trkpt><trkpt lat="43.19734524776531" lon="12.25486934466067"><ele>517.0</ele><time>2026-03-29T10:39:34.869Z</time></trkpt><trkpt lat="43.1973188783599" lon="12.254961624225059"><ele>516.4</ele><time>2026-03-29T10:39:35.868Z</time></trkpt><trkpt lat="43.197327117290314" lon="12.255137338190906"><ele>515.8000000000001</ele><time>2026-03-29T10:39:37.871Z</time></trkpt><trkpt lat="43.19735334941182" lon="12.25523212689905"><ele>515.2</ele><time>2026-03-29T10:39:38.871Z</time></trkpt><trkpt lat="43.19737051942793" lon="12.255376299183252"><ele>514.6</ele><time>2026-03-29T10:39:40.871Z</time></trkpt><trkpt lat="43.19732488623405" lon="12.25545254115542"><ele>514.0</ele><time>2026-03-29T10:39:42.871Z</time></trkpt><trkpt lat="43.19726450361538" lon="12.255504752890038"><ele>510.25</ele><time>2026-03-29T10:39:43.871Z</time></trkpt><trkpt lat="43.19719337970082" lon="12.255558583908995"><ele>506.5</ele><time>2026-03-29T10:39:44.871Z</time></trkpt><trkpt lat="43.1970849090085" lon="12.255617443954677"><ele>502.75</ele><time>2026-03-29T10:39:45.871Z</time></trkpt><trkpt lat="43.19697245514458" lon="12.255722335555085"><ele>499.0</ele><time>2026-03-29T10:39:46.871Z</time></trkpt><trkpt lat="43.19688512457387" lon="12.255831780688736"><ele>499.0</ele><time>2026-03-29T10:39:47.87Z</time></trkpt><trkpt lat="43.19678364563418" lon="12.25592358119289"><ele>499.0</ele><time>2026-03-29T10:39:48.871Z</time></trkpt><trkpt lat="43.196689244986686" lon="12.25597676747263"><ele>499.0</ele><time>2026-03-29T10:39:49.871Z</time></trkpt><trkpt lat="43.19657661588137" lon="12.25599176446041"><ele>499.0</ele><time>2026-03-29T10:39:50.871Z</time></trkpt><trkpt lat="43.19646245516362" lon="12.255981718456722"><ele>497.25</ele><time>2026-03-29T10:39:51.871Z</time></trkpt><trkpt lat="43.196335957698295" lon="12.255980201864693"><ele>495.5</ele><time>2026-03-29T10:39:52.871Z</time></trkpt><trkpt lat="43.196224921427216" lon="12.255997267476905"><ele>493.75</ele><time>2026-03-29T10:39:53.871Z</time></trkpt><trkpt lat="43.19611837517988" lon="12.256032974830386"><ele>492.0</ele><time>2026-03-29T10:39:54.871Z</time></trkpt><trkpt lat="43.196006368738374" lon="12.25608069830767"><ele>492.0</ele><time>2026-03-29T10:39:55.871Z</time></trkpt><trkpt lat="43.19589979537928" lon="12.256124641019849"><ele>492.00000000000006</ele><time>2026-03-29T10:39:56.871Z</time></trkpt><trkpt lat="43.19581709196614" lon="12.256155279126581"><ele>492.00000000000006</ele><time>2026-03-29T10:39:57.871Z</time></trkpt><trkpt lat="43.1957207628381" lon="12.256123529104995"><ele>492.0</ele><time>2026-03-29T10:39:59.871Z</time></trkpt><trkpt lat="43.19568356681987" lon="12.256043767827988"><ele>492.0</ele><time>2026-03-29T10:40:00.871Z</time></trkpt><trkpt lat="43.19564760468695" lon="12.255921362974767"><ele>489.5</ele><time>2026-03-29T10:40:01.871Z</time></trkpt><trkpt lat="43.19558167613378" lon="12.255784463798832"><ele>487.0</ele><time>2026-03-29T10:40:02.87Z</time></trkpt><trkpt lat="43.19548010952761" lon="12.255665697693246"><ele>484.5</ele><time>2026-03-29T10:40:03.87Z</time></trkpt><trkpt lat="43.195374089491125" lon="12.25554579771205"><ele>482.0</ele><time>2026-03-29T10:40:04.87Z</time></trkpt><trkpt lat="43.19527450746273" lon="12.255441351406189"><ele>481.99999999999994</ele><time>2026-03-29T10:40:05.87Z</time></trkpt><trkpt lat="43.19520522159819" lon="12.255338438382584"><ele>482.0</ele><time>2026-03-29T10:40:06.87Z</time></trkpt><trkpt lat="43.195159530180355" lon="12.255264848023144"><ele>482.0</ele><time>2026-03-29T10:40:07.87Z</time></trkpt><trkpt lat="43.19510455551599" lon="12.255171163026578"><ele>482.0</ele><time>2026-03-29T10:40:09.87Z</time></trkpt><trkpt lat="43.19501449540082" lon="12.255156814726517"><ele>481.99999999999994</ele><time>2026-03-29T10:40:11.87Z</time></trkpt><trkpt lat="43.19494006882904" lon="12.255217988685342"><ele>482.0</ele><time>2026-03-29T10:40:15.87Z</time></trkpt><trkpt lat="43.19491965069294" lon="12.255305383813369"><ele>482.0</ele><time>2026-03-29T10:40:17.87Z</time></trkpt><trkpt lat="43.19485015893996" lon="12.25533769007661"><ele>482.00000000000006</ele><time>2026-03-29T10:40:19.87Z</time></trkpt><trkpt lat="43.194707066784886" lon="12.255260689657892"><ele>482.00000000000006</ele><time>2026-03-29T10:40:21.87Z</time></trkpt><trkpt lat="43.19461211898518" lon="12.255247622664493"><ele>482.0</ele><time>2026-03-29T10:40:22.87Z</time></trkpt><trkpt lat="43.194509202489066" lon="12.255279931647834"><ele>482.0</ele><time>2026-03-29T10:40:23.87Z</time></trkpt><trkpt lat="43.194390682688855" lon="12.255316505147972"><ele>479.75</ele><time>2026-03-29T10:40:24.87Z</time></trkpt><trkpt lat="43.194261159758184" lon="12.255359494040514"><ele>477.5</ele><time>2026-03-29T10:40:25.87Z</time></trkpt><trkpt lat="43.194130962048646" lon="12.255416976451436"><ele>475.25</ele><time>2026-03-29T10:40:26.87Z</time></trkpt><trkpt lat="43.194002987381744" lon="12.255471065256698"><ele>473.0</ele><time>2026-03-29T10:40:27.87Z</time></trkpt><trkpt lat="43.193875456895015" lon="12.255531607310209"><ele>473.5</ele><time>2026-03-29T10:40:28.87Z</time></trkpt><trkpt lat="43.193733101451244" lon="12.255602604197232"><ele>474.0</ele><time>2026-03-29T10:40:29.87Z</time></trkpt><trkpt lat="43.19360814264309" lon="12.255677990039786"><ele>474.5</ele><time>2026-03-29T10:40:30.87Z</time></trkpt><trkpt lat="43.19350296410864" lon="12.255757552171245"><ele>475.0</ele><time>2026-03-29T10:40:31.87Z</time></trkpt><trkpt lat="43.193414650723554" lon="12.255834359685027"><ele>475.0</ele><time>2026-03-29T10:40:32.87Z</time></trkpt><trkpt lat="43.19332834120371" lon="12.25592095276473"><ele>475.0</ele><time>2026-03-29T10:40:33.87Z</time></trkpt><trkpt lat="43.19323716351477" lon="12.255987784398513"><ele>475.0</ele><time>2026-03-29T10:40:34.87Z</time></trkpt><trkpt lat="43.19315983946202" lon="12.256017725018141"><ele>475.0</ele><time>2026-03-29T10:40:35.87Z</time></trkpt><trkpt lat="43.193017688743424" lon="12.255941158371318"><ele>475.0</ele><time>2026-03-29T10:40:37.87Z</time></trkpt><trkpt lat="43.19292105286161" lon="12.255840320013307"><ele>475.6666666666667</ele><time>2026-03-29T10:40:38.87Z</time></trkpt><trkpt lat="43.192832480574644" lon="12.255768523917515"><ele>476.33333333333337</ele><time>2026-03-29T10:40:39.87Z</time></trkpt><trkpt lat="43.192740730131256" lon="12.255720603974801"><ele>477.0</ele><time>2026-03-29T10:40:40.87Z</time></trkpt><trkpt lat="43.19265991519363" lon="12.2556928506329"><ele>477.66666666666663</ele><time>2026-03-29T10:40:41.87Z</time></trkpt><trkpt lat="43.19258904909903" lon="12.255677529396536"><ele>478.3333333333333</ele><time>2026-03-29T10:40:42.87Z</time></trkpt><trkpt lat="43.192514368084936" lon="12.25568411902576"><ele>479.0</ele><time>2026-03-29T10:40:43.87Z</time></trkpt><trkpt lat="43.19241701799514" lon="12.255706241285514"><ele>477.49999999999994</ele><time>2026-03-29T10:40:44.87Z</time></trkpt><trkpt lat="43.192327864663255" lon="12.255741047512485"><ele>476.0</ele><time>2026-03-29T10:40:45.87Z</time></trkpt><trkpt lat="43.19225065148174" lon="12.255770657440122"><ele>474.5</ele><time>2026-03-29T10:40:46.87Z</time></trkpt><trkpt lat="43.19217346578169" lon="12.255809154056182"><ele>473.0</ele><time>2026-03-29T10:40:47.87Z</time></trkpt><trkpt lat="43.19209817109975" lon="12.25584725011177"><ele>471.49999999999994</ele><time>2026-03-29T10:40:48.87Z</time></trkpt><trkpt lat="43.1920166404091" lon="12.255848153873423"><ele>470.0</ele><time>2026-03-29T10:40:50.869Z</time></trkpt><trkpt lat="43.191990087571206" lon="12.255742747353848"><ele>467.0</ele><time>2026-03-29T10:40:52.869Z</time></trkpt><trkpt lat="43.192003407365654" lon="12.255578538812797"><ele>464.0</ele><time>2026-03-29T10:40:54.869Z</time></trkpt><trkpt lat="43.19201098467451" lon="12.255451058133657"><ele>461.0</ele><time>2026-03-29T10:40:55.869Z</time></trkpt><trkpt lat="43.19202793353722" lon="12.255309097961346"><ele>458.0</ele><time>2026-03-29T10:40:56.869Z</time></trkpt><trkpt lat="43.19201249800718" lon="12.255186867537217"><ele>455.0</ele><time>2026-03-29T10:40:57.869Z</time></trkpt><trkpt lat="43.19198459058849" lon="12.25507949624826"><ele>454.99999999999994</ele><time>2026-03-29T10:40:58.869Z</time></trkpt><trkpt lat="43.191930156851164" lon="12.254977592677703"><ele>455.0</ele><time>2026-03-29T10:40:59.869Z</time></trkpt><trkpt lat="43.191879148899574" lon="12.254882436715201"><ele>455.0</ele><time>2026-03-29T10:41:00.869Z</time></trkpt><trkpt lat="43.19182744577795" lon="12.254780966684713"><ele>455.0</ele><time>2026-03-29T10:41:01.869Z</time></trkpt><trkpt lat="43.191774589751844" lon="12.25470305951955"><ele>454.99999999999994</ele><time>2026-03-29T10:41:02.869Z</time></trkpt><trkpt lat="43.191723625724556" lon="12.254593001914328"><ele>455.0</ele><time>2026-03-29T10:41:04.869Z</time></trkpt><trkpt lat="43.191764380077764" lon="12.254520796550194"><ele>452.99999999999994</ele><time>2026-03-29T10:41:06.869Z</time></trkpt><trkpt lat="43.19183300485695" lon="12.25449471453094"><ele>451.0</ele><time>2026-03-29T10:41:08.869Z</time></trkpt><trkpt lat="43.19190039070009" lon="12.254491082396985"><ele>449.0</ele><time>2026-03-29T10:41:09.869Z</time></trkpt><trkpt lat="43.191974281116856" lon="12.254505194980858"><ele>447.0</ele><time>2026-03-29T10:41:10.869Z</time></trkpt><trkpt lat="43.19205736464221" lon="12.254507826382504"><ele>444.99999999999994</ele><time>2026-03-29T10:41:11.869Z</time></trkpt><trkpt lat="43.19215310883979" lon="12.254487060801798"><ele>443.0</ele><time>2026-03-29T10:41:12.869Z</time></trkpt><trkpt lat="43.192262109941716" lon="12.254458859327345"><ele>445.16666666666663</ele><time>2026-03-29T10:41:13.869Z</time></trkpt><trkpt lat="43.19236524722125" lon="12.254438448489154"><ele>447.3333333333333</ele><time>2026-03-29T10:41:14.869Z</time></trkpt><trkpt lat="43.19245396956751" lon="12.254419790769456"><ele>449.5</ele><time>2026-03-29T10:41:15.869Z</time></trkpt><trkpt lat="43.19252769269222" lon="12.25440977488581"><ele>451.66666666666663</ele><time>2026-03-29T10:41:16.869Z</time></trkpt><trkpt lat="43.19260235402216" lon="12.25443752052042"><ele>453.8333333333333</ele><time>2026-03-29T10:41:17.869Z</time></trkpt><trkpt lat="43.19270074067837" lon="12.254478763215875"><ele>456.0</ele><time>2026-03-29T10:41:18.869Z</time></trkpt><trkpt lat="43.19277295059198" lon="12.254508752015152"><ele>456.0</ele><time>2026-03-29T10:41:19.869Z</time></trkpt><trkpt lat="43.19285061662792" lon="12.254451563197842"><ele>456.0</ele><time>2026-03-29T10:41:21.869Z</time></trkpt><trkpt lat="43.19283133047299" lon="12.254327895141188"><ele>456.0</ele><time>2026-03-29T10:41:23.869Z</time></trkpt><trkpt lat="43.19279076683435" lon="12.25425758858052"><ele>456.0</ele><time>2026-03-29T10:41:24.869Z</time></trkpt><trkpt lat="43.192730504491905" lon="12.254219138707413"><ele>456.0</ele><time>2026-03-29T10:41:25.869Z</time></trkpt><trkpt lat="43.19265371758866" lon="12.254192042214004"><ele>456.0</ele><time>2026-03-29T10:41:26.869Z</time></trkpt><trkpt lat="43.19257821079932" lon="12.254154910520427"><ele>456.0</ele><time>2026-03-29T10:41:27.869Z</time></trkpt><trkpt lat="43.19250802373167" lon="12.254119388451112"><ele>456.0</ele><time>2026-03-29T10:41:28.869Z</time></trkpt><trkpt lat="43.192417570570306" lon="12.254083527001338"><ele>456.0</ele><time>2026-03-29T10:41:29.869Z</time></trkpt><trkpt lat="43.192339715983486" lon="12.254056016017765"><ele>456.0</ele><time>2026-03-29T10:41:30.869Z</time></trkpt><trkpt lat="43.19223775954734" lon="12.254038847330033"><ele>456.0</ele><time>2026-03-29T10:41:31.869Z</time></trkpt><trkpt lat="43.19214112325222" lon="12.25403249313554"><ele>456.0</ele><time>2026-03-29T10:41:32.869Z</time></trkpt><trkpt lat="43.19204440278419" lon="12.25402814396886"><ele>453.4</ele><time>2026-03-29T10:41:33.869Z</time></trkpt><trkpt lat="43.1919726564448" lon="12.254020830563196"><ele>450.8</ele><time>2026-03-29T10:41:34.869Z</time></trkpt><trkpt lat="43.19190021149329" lon="12.253994710031838"><ele>448.19999999999993</ele><time>2026-03-29T10:41:35.869Z</time></trkpt><trkpt lat="43.191794924009606" lon="12.253946959248319"><ele>445.59999999999997</ele><time>2026-03-29T10:41:37.869Z</time></trkpt><trkpt lat="43.19171087945816" lon="12.253899415731944"><ele>443.0</ele><time>2026-03-29T10:41:38.868Z</time></trkpt><trkpt lat="43.19157763235593" lon="12.253812239593374"><ele>439.8333333333333</ele><time>2026-03-29T10:41:40.868Z</time></trkpt><trkpt lat="43.19151014521755" lon="12.25379339040314"><ele>436.66666666666663</ele><time>2026-03-29T10:41:41.868Z</time></trkpt><trkpt lat="43.19144017836009" lon="12.253777289739007"><ele>433.5</ele><time>2026-03-29T10:41:42.87Z</time></trkpt><trkpt lat="43.191360887118755" lon="12.253752929118559"><ele>430.33333333333337</ele><time>2026-03-29T10:41:43.87Z</time></trkpt><trkpt lat="43.191297331532844" lon="12.253735186307813"><ele>427.1666666666667</ele><time>2026-03-29T10:41:44.87Z</time></trkpt><trkpt lat="43.191241791484934" lon="12.253679539302547"><ele>424.0</ele><time>2026-03-29T10:41:45.871Z</time></trkpt><trkpt lat="43.191135631527175" lon="12.25359176365149"><ele>423.33333333333337</ele><time>2026-03-29T10:41:47.871Z</time></trkpt><trkpt lat="43.1910815185363" lon="12.25363855321046"><ele>422.6666666666667</ele><time>2026-03-29T10:41:48.871Z</time></trkpt><trkpt lat="43.191071561588224" lon="12.253759247652276"><ele>422.0</ele><time>2026-03-29T10:41:50.871Z</time></trkpt><trkpt lat="43.191032951407166" lon="12.253897270144396"><ele>421.33333333333337</ele><time>2026-03-29T10:41:52.871Z</time></trkpt><trkpt lat="43.191001878017474" lon="12.253993095283157"><ele>420.6666666666667</ele><time>2026-03-29T10:41:54.871Z</time></trkpt><trkpt lat="43.190993200450585" lon="12.25413930102218"><ele>420.0</ele><time>2026-03-29T10:41:56.871Z</time></trkpt><trkpt lat="43.19095984995256" lon="12.254315379419968"><ele>420.0</ele><time>2026-03-29T10:41:58.871Z</time></trkpt><trkpt lat="43.19091352014483" lon="12.254382652968498"><ele>420.0</ele><time>2026-03-29T10:41:59.871Z</time></trkpt><trkpt lat="43.190860198786915" lon="12.254460602297645"><ele>420.0</ele><time>2026-03-29T10:42:00.871Z</time></trkpt><trkpt lat="43.190824892996055" lon="12.254538461443527"><ele>420.0</ele><time>2026-03-29T10:42:01.871Z</time></trkpt><trkpt lat="43.1908068190147" lon="12.254637079358895"><ele>420.0</ele><time>2026-03-29T10:42:02.871Z</time></trkpt><trkpt lat="43.190770126850445" lon="12.254758786553571"><ele>420.0</ele><time>2026-03-29T10:42:03.871Z</time></trkpt><trkpt lat="43.19068606352807" lon="12.254790637683378"><ele>419.6666666666667</ele><time>2026-03-29T10:42:05.871Z</time></trkpt><trkpt lat="43.190612588057355" lon="12.25476865352418"><ele>419.33333333333337</ele><time>2026-03-29T10:42:07.871Z</time></trkpt><trkpt lat="43.19055062777532" lon="12.254802113609843"><ele>419.0</ele><time>2026-03-29T10:42:10.871Z</time></trkpt><trkpt lat="43.190469349811075" lon="12.25481790805346"><ele>418.6666666666667</ele><time>2026-03-29T10:42:11.871Z</time></trkpt><trkpt lat="43.190394360367094" lon="12.254872107969721"><ele>418.33333333333337</ele><time>2026-03-29T10:42:12.87Z</time></trkpt><trkpt lat="43.19034160206262" lon="12.254961273210819"><ele>418.0</ele><time>2026-03-29T10:42:13.87Z</time></trkpt><trkpt lat="43.19025799478005" lon="12.255064474919935"><ele>418.00000000000006</ele><time>2026-03-29T10:42:14.87Z</time></trkpt><trkpt lat="43.190211164152366" lon="12.25513942604622"><ele>418.0</ele><time>2026-03-29T10:42:15.87Z</time></trkpt><trkpt lat="43.19013821382106" lon="12.255102264484709"><ele>418.0</ele><time>2026-03-29T10:42:17.87Z</time></trkpt><trkpt lat="43.190083673695135" lon="12.255049387019602"><ele>418.0</ele><time>2026-03-29T10:42:18.87Z</time></trkpt><trkpt lat="43.18998233601005" lon="12.254997986586018"><ele>418.00000000000006</ele><time>2026-03-29T10:42:19.87Z</time></trkpt><trkpt lat="43.18986468107604" lon="12.254960089304335"><ele>418.0</ele><time>2026-03-29T10:42:20.87Z</time></trkpt><trkpt lat="43.1897679888399" lon="12.254947049359606"><ele>416.4</ele><time>2026-03-29T10:42:21.87Z</time></trkpt><trkpt lat="43.18970329885342" lon="12.25495650295537"><ele>414.79999999999995</ele><time>2026-03-29T10:42:22.87Z</time></trkpt><trkpt lat="43.18962593033187" lon="12.255015152123741"><ele>413.2</ele><time>2026-03-29T10:42:23.87Z</time></trkpt><trkpt lat="43.18949942356752" lon="12.255052995349725"><ele>411.6</ele><time>2026-03-29T10:42:24.87Z</time></trkpt><trkpt lat="43.18940676340901" lon="12.255066999491433"><ele>410.0</ele><time>2026-03-29T10:42:25.87Z</time></trkpt><trkpt lat="43.18931170349495" lon="12.255053105271337"><ele>409.99999999999994</ele><time>2026-03-29T10:42:26.87Z</time></trkpt><trkpt lat="43.18924053841375" lon="12.255020764719479"><ele>410.0</ele><time>2026-03-29T10:42:27.87Z</time></trkpt><trkpt lat="43.1891814121456" lon="12.254945255159381"><ele>410.0</ele><time>2026-03-29T10:42:28.87Z</time></trkpt><trkpt lat="43.18910450705898" lon="12.254914545444237"><ele>410.0</ele><time>2026-03-29T10:42:29.87Z</time></trkpt><trkpt lat="43.18901359291607" lon="12.2548923083907"><ele>409.99999999999994</ele><time>2026-03-29T10:42:30.87Z</time></trkpt><trkpt lat="43.188928360504015" lon="12.254871719858132"><ele>410.0</ele><time>2026-03-29T10:42:31.87Z</time></trkpt><trkpt lat="43.18886191058193" lon="12.254880131226198"><ele>409.66666666666663</ele><time>2026-03-29T10:42:32.87Z</time></trkpt><trkpt lat="43.18878813728439" lon="12.254909330421965"><ele>409.3333333333333</ele><time>2026-03-29T10:42:33.87Z</time></trkpt><trkpt lat="43.18871358626662" lon="12.254956168942366"><ele>409.0</ele><time>2026-03-29T10:42:34.87Z</time></trkpt><trkpt lat="43.188638190824086" lon="12.254968086320202"><ele>408.66666666666663</ele><time>2026-03-29T10:42:35.87Z</time></trkpt><trkpt lat="43.18856440326719" lon="12.254941821914416"><ele>408.3333333333333</ele><time>2026-03-29T10:42:36.87Z</time></trkpt><trkpt lat="43.18846904608541" lon="12.254896683550573"><ele>408.0</ele><time>2026-03-29T10:42:37.87Z</time></trkpt><trkpt lat="43.1883938855952" lon="12.254847980507636"><ele>405.42857142857144</ele><time>2026-03-29T10:42:38.87Z</time></trkpt><trkpt lat="43.188327885398934" lon="12.254776535461806"><ele>402.8571428571429</ele><time>2026-03-29T10:42:39.87Z</time></trkpt><trkpt lat="43.18830515439692" lon="12.254694818077319"><ele>400.2857142857143</ele><time>2026-03-29T10:42:40.87Z</time></trkpt><trkpt lat="43.1882687735809" lon="12.254620120600142"><ele>397.7142857142857</ele><time>2026-03-29T10:42:41.87Z</time></trkpt><trkpt lat="43.188199434458035" lon="12.254539078435448"><ele>395.1428571428571</ele><time>2026-03-29T10:42:42.87Z</time></trkpt><trkpt lat="43.18812642469262" lon="12.25450216025065"><ele>392.57142857142856</ele><time>2026-03-29T10:42:43.87Z</time></trkpt><trkpt lat="43.18805924390853" lon="12.254501399746506"><ele>390.0</ele><time>2026-03-29T10:42:44.87Z</time></trkpt><trkpt lat="43.18795786963723" lon="12.254512284745344"><ele>390.0</ele><time>2026-03-29T10:42:45.87Z</time></trkpt><trkpt lat="43.18786530148404" lon="12.254509254444333"><ele>390.0</ele><time>2026-03-29T10:42:46.87Z</time></trkpt><trkpt lat="43.187767940358036" lon="12.254519745597992"><ele>390.0</ele><time>2026-03-29T10:42:47.87Z</time></trkpt><trkpt lat="43.18769386927527" lon="12.254540914543636"><ele>390.0</ele><time>2026-03-29T10:42:48.87Z</time></trkpt><trkpt lat="43.18761919597945" lon="12.254555519222226"><ele>390.0</ele><time>2026-03-29T10:42:49.87Z</time></trkpt><trkpt lat="43.18752583419103" lon="12.254571503344051"><ele>390.0</ele><time>2026-03-29T10:42:50.87Z</time></trkpt><trkpt lat="43.187427467991036" lon="12.254570085423627"><ele>388.2</ele><time>2026-03-29T10:42:51.87Z</time></trkpt><trkpt lat="43.18732757005976" lon="12.254559931843119"><ele>386.4</ele><time>2026-03-29T10:42:52.87Z</time></trkpt><trkpt lat="43.18723441821709" lon="12.25455990248002"><ele>384.6</ele><time>2026-03-29T10:42:53.87Z</time></trkpt><trkpt lat="43.18714859588904" lon="12.254583975283897"><ele>382.8</ele><time>2026-03-29T10:42:54.87Z</time></trkpt><trkpt lat="43.18706581325567" lon="12.25463129023245"><ele>381.0</ele><time>2026-03-29T10:42:55.87Z</time></trkpt><trkpt lat="43.186988183254385" lon="12.254703592404299"><ele>381.0</ele><time>2026-03-29T10:42:56.87Z</time></trkpt><trkpt lat="43.186911502401095" lon="12.254777292993829"><ele>381.0</ele><time>2026-03-29T10:42:57.87Z</time></trkpt><trkpt lat="43.186841352059446" lon="12.254823267572638"><ele>381.0</ele><time>2026-03-29T10:42:58.87Z</time></trkpt><trkpt lat="43.18675845635962" lon="12.254848063536178"><ele>381.0</ele><time>2026-03-29T10:42:59.87Z</time></trkpt><trkpt lat="43.186666143547114" lon="12.254829988762268"><ele>381.0</ele><time>2026-03-29T10:43:00.869Z</time></trkpt><trkpt lat="43.186561135118524" lon="12.254835215578904"><ele>383.4</ele><time>2026-03-29T10:43:01.869Z</time></trkpt><trkpt lat="43.18645967271788" lon="12.254874958192403"><ele>385.8</ele><time>2026-03-29T10:43:02.869Z</time></trkpt><trkpt lat="43.186381487727715" lon="12.254902650244475"><ele>388.2</ele><time>2026-03-29T10:43:03.869Z</time></trkpt><trkpt lat="43.186296196339335" lon="12.254891000784289"><ele>390.59999999999997</ele><time>2026-03-29T10:43:04.869Z</time></trkpt><trkpt lat="43.18620626728368" lon="12.254852968281737"><ele>393.0</ele><time>2026-03-29T10:43:05.869Z</time></trkpt><trkpt lat="43.18611764375638" lon="12.254840811707812"><ele>393.0</ele><time>2026-03-29T10:43:06.869Z</time></trkpt><trkpt lat="43.18601321951961" lon="12.25484745650696"><ele>393.0</ele><time>2026-03-29T10:43:07.869Z</time></trkpt><trkpt lat="43.18594092762489" lon="12.254880991392165"><ele>393.0</ele><time>2026-03-29T10:43:08.869Z</time></trkpt><trkpt lat="43.18582285526076" lon="12.254935726311063"><ele>393.0</ele><time>2026-03-29T10:43:10.869Z</time></trkpt><trkpt lat="43.18574832824366" lon="12.254958292571226"><ele>393.0</ele><time>2026-03-29T10:43:11.869Z</time></trkpt><trkpt lat="43.185686978952496" lon="12.254998347037539"><ele>390.8333333333333</ele><time>2026-03-29T10:43:12.869Z</time></trkpt><trkpt lat="43.18563338024303" lon="12.255051211828931"><ele>388.6666666666667</ele><time>2026-03-29T10:43:13.869Z</time></trkpt><trkpt lat="43.1855736388748" lon="12.255113520856057"><ele>386.5</ele><time>2026-03-29T10:43:14.869Z</time></trkpt><trkpt lat="43.18551283363927" lon="12.255145166646654"><ele>384.33333333333337</ele><time>2026-03-29T10:43:15.869Z</time></trkpt><trkpt lat="43.18543508974461" lon="12.255120404981158"><ele>382.1666666666667</ele><time>2026-03-29T10:43:16.869Z</time></trkpt><trkpt lat="43.18533296046096" lon="12.255076150252515"><ele>380.0</ele><time>2026-03-29T10:43:17.869Z</time></trkpt><trkpt lat="43.185224861663286" lon="12.255056271862054"><ele>380.0</ele><time>2026-03-29T10:43:18.869Z</time></trkpt><trkpt lat="43.18512271315394" lon="12.255029016428123"><ele>380.0</ele><time>2026-03-29T10:43:19.869Z</time></trkpt><trkpt lat="43.185044966653024" lon="12.254979555717533"><ele>380.0</ele><time>2026-03-29T10:43:20.869Z</time></trkpt><trkpt lat="43.18496934936808" lon="12.254955942467952"><ele>380.0</ele><time>2026-03-29T10:43:21.869Z</time></trkpt><trkpt lat="43.184897149297" lon="12.254948194856901"><ele>380.0</ele><time>2026-03-29T10:43:22.869Z</time></trkpt><trkpt lat="43.1848251403661" lon="12.254947922262076"><ele>380.0</ele><time>2026-03-29T10:43:23.869Z</time></trkpt><trkpt lat="43.18475969476129" lon="12.254984752821022"><ele>376.6</ele><time>2026-03-29T10:43:24.869Z</time></trkpt><trkpt lat="43.18465859668192" lon="12.255064391399737"><ele>373.2</ele><time>2026-03-29T10:43:26.869Z</time></trkpt><trkpt lat="43.18461518115501" lon="12.255139055629732"><ele>369.79999999999995</ele><time>2026-03-29T10:43:27.869Z</time></trkpt><trkpt lat="43.18454851668646" lon="12.25523056739988"><ele>366.4</ele><time>2026-03-29T10:43:28.869Z</time></trkpt><trkpt lat="43.18444816163539" lon="12.255299421909493"><ele>363.0</ele><time>2026-03-29T10:43:29.869Z</time></trkpt><trkpt lat="43.184352381570186" lon="12.255341281118799"><ele>363.0</ele><time>2026-03-29T10:43:30.869Z</time></trkpt><trkpt lat="43.18427871873629" lon="12.255395346698196"><ele>363.0</ele><time>2026-03-29T10:43:31.869Z</time></trkpt><trkpt lat="43.1842036843872" lon="12.255469703631123"><ele>363.0</ele><time>2026-03-29T10:43:32.869Z</time></trkpt><trkpt lat="43.184126459879586" lon="12.255540735559988"><ele>363.0</ele><time>2026-03-29T10:43:33.869Z</time></trkpt><trkpt lat="43.18404773353208" lon="12.25562004745161"><ele>363.0</ele><time>2026-03-29T10:43:34.869Z</time></trkpt><trkpt lat="43.18397624393096" lon="12.255707887393225"><ele>360.2</ele><time>2026-03-29T10:43:35.869Z</time></trkpt><trkpt lat="43.18393238304363" lon="12.255777572417145"><ele>357.4</ele><time>2026-03-29T10:43:36.869Z</time></trkpt><trkpt lat="43.183941445951504" lon="12.255939577652901"><ele>354.59999999999997</ele><time>2026-03-29T10:43:38.869Z</time></trkpt><trkpt lat="43.18395045569311" lon="12.256109807270608"><ele>351.79999999999995</ele><time>2026-03-29T10:43:40.869Z</time></trkpt><trkpt lat="43.18393644538497" lon="12.25622364415822"><ele>349.0</ele><time>2026-03-29T10:43:42.869Z</time></trkpt><trkpt lat="43.18387655686369" lon="12.256159680997461"><ele>348.99999999999994</ele><time>2026-03-29T10:43:44.869Z</time></trkpt><trkpt lat="43.18386188353536" lon="12.256069866900926"><ele>349.0</ele><time>2026-03-29T10:43:45.869Z</time></trkpt><trkpt lat="43.183830790081906" lon="12.255991719151156"><ele>349.0</ele><time>2026-03-29T10:43:46.869Z</time></trkpt><trkpt lat="43.18377971771217" lon="12.25592986575866"><ele>349.0</ele><time>2026-03-29T10:43:47.869Z</time></trkpt><trkpt lat="43.1837182453241" lon="12.255873043028803"><ele>349.0</ele><time>2026-03-29T10:43:48.871Z</time></trkpt><trkpt lat="43.18365295217186" lon="12.255818530965598"><ele>348.99999999999994</ele><time>2026-03-29T10:43:49.871Z</time></trkpt><trkpt lat="43.183598876300614" lon="12.255749711390518"><ele>349.0</ele><time>2026-03-29T10:43:50.871Z</time></trkpt><trkpt lat="43.18352346248778" lon="12.255646077300947"><ele>348.5</ele><time>2026-03-29T10:43:52.871Z</time></trkpt><trkpt lat="43.1834650164223" lon="12.255544014950434"><ele>348.0</ele><time>2026-03-29T10:43:54.871Z</time></trkpt><trkpt lat="43.18342897046029" lon="12.255463790885054"><ele>347.5</ele><time>2026-03-29T10:43:55.87Z</time></trkpt><trkpt lat="43.18339099595112" lon="12.255392857528731"><ele>347.0</ele><time>2026-03-29T10:43:56.87Z</time></trkpt><trkpt lat="43.18330372592636" lon="12.255309566369355"><ele>346.5</ele><time>2026-03-29T10:43:58.87Z</time></trkpt><trkpt lat="43.18319109382778" lon="12.255280213847179"><ele>346.0</ele><time>2026-03-29T10:44:00.871Z</time></trkpt><trkpt lat="43.18310940040807" lon="12.255261332510932"><ele>341.8</ele><time>2026-03-29T10:44:02.871Z</time></trkpt><trkpt lat="43.18308737547333" lon="12.255175855413446"><ele>337.6</ele><time>2026-03-29T10:44:05.87Z</time></trkpt><trkpt lat="43.18308328247575" lon="12.25502360840892"><ele>333.4</ele><time>2026-03-29T10:44:07.87Z</time></trkpt><trkpt lat="43.183046157147714" lon="12.254910130976123"><ele>329.2</ele><time>2026-03-29T10:44:09.87Z</time></trkpt><trkpt lat="43.18296297914165" lon="12.25490261237693"><ele>325.0</ele><time>2026-03-29T10:44:11.87Z</time></trkpt><trkpt lat="43.182889273539466" lon="12.255022594780614"><ele>325.0</ele><time>2026-03-29T10:44:13.87Z</time></trkpt><trkpt lat="43.18288766404228" lon="12.255216709676404"><ele>325.0</ele><time>2026-03-29T10:44:15.87Z</time></trkpt><trkpt lat="43.182903501394584" lon="12.255364254928676"><ele>325.0</ele><time>2026-03-29T10:44:16.87Z</time></trkpt><trkpt lat="43.182921116864186" lon="12.255462537972685"><ele>325.0</ele><time>2026-03-29T10:44:17.87Z</time></trkpt><trkpt lat="43.182954796412886" lon="12.255559142357964"><ele>325.0</ele><time>2026-03-29T10:44:18.87Z</time></trkpt><trkpt lat="43.182988966938844" lon="12.255648833929131"><ele>325.0</ele><time>2026-03-29T10:44:19.87Z</time></trkpt><trkpt lat="43.182913578974315" lon="12.255702716102233"><ele>325.0</ele><time>2026-03-29T10:44:48.87Z</time></trkpt><trkpt lat="43.182847903328906" lon="12.25566641377597"><ele>325.0</ele><time>2026-03-29T10:44:50.87Z</time></trkpt><trkpt lat="43.18278027315718" lon="12.255605950327698"><ele>325.0</ele><time>2026-03-29T10:44:51.869Z</time></trkpt><trkpt lat="43.182694446809556" lon="12.255530653221166"><ele>325.0</ele><time>2026-03-29T10:44:52.869Z</time></trkpt><trkpt lat="43.182612994949956" lon="12.255446899359333"><ele>325.0</ele><time>2026-03-29T10:44:53.869Z</time></trkpt><trkpt lat="43.18255427292269" lon="12.25532024809286"><ele>325.0</ele><time>2026-03-29T10:44:54.869Z</time></trkpt><trkpt lat="43.18249182472546" lon="12.255182178176094"><ele>325.0</ele><time>2026-03-29T10:44:55.869Z</time></trkpt><trkpt lat="43.1824247417229" lon="12.255081580052531"><ele>325.0</ele><time>2026-03-29T10:44:56.869Z</time></trkpt><trkpt lat="43.18233417457164" lon="12.25499496596793"><ele>325.0</ele><time>2026-03-29T10:44:57.869Z</time></trkpt><trkpt lat="43.182263239411476" lon="12.254894494912525"><ele>325.0</ele><time>2026-03-29T10:44:58.869Z</time></trkpt><trkpt lat="43.18218194812235" lon="12.254799821100677"><ele>322.16666666666663</ele><time>2026-03-29T10:44:59.869Z</time></trkpt><trkpt lat="43.18211607158409" lon="12.25470480970558"><ele>319.3333333333333</ele><time>2026-03-29T10:45:00.869Z</time></trkpt><trkpt lat="43.1820733110431" lon="12.25461409034301"><ele>316.5</ele><time>2026-03-29T10:45:01.869Z</time></trkpt><trkpt lat="43.18203292556309" lon="12.25452642135982"><ele>313.6666666666667</ele><time>2026-03-29T10:45:02.869Z</time></trkpt><trkpt lat="43.18199674188373" lon="12.254438364806036"><ele>310.83333333333337</ele><time>2026-03-29T10:45:03.869Z</time></trkpt><trkpt lat="43.18195554640999" lon="12.254370307673433"><ele>308.0</ele><time>2026-03-29T10:45:04.869Z</time></trkpt><trkpt lat="43.18187080977903" lon="12.254276494256725"><ele>308.0</ele><time>2026-03-29T10:45:06.869Z</time></trkpt><trkpt lat="43.181744852753035" lon="12.25422046562133"><ele>308.0</ele><time>2026-03-29T10:45:08.869Z</time></trkpt><trkpt lat="43.18166107651272" lon="12.254195239155102"><ele>308.0</ele><time>2026-03-29T10:45:09.869Z</time></trkpt><trkpt lat="43.181575211861364" lon="12.254186284065733"><ele>308.0</ele><time>2026-03-29T10:45:10.869Z</time></trkpt><trkpt lat="43.181492182429196" lon="12.254172938356747"><ele>308.0</ele><time>2026-03-29T10:45:11.869Z</time></trkpt><trkpt lat="43.181400311531526" lon="12.254140955277496"><ele>308.0</ele><time>2026-03-29T10:45:12.869Z</time></trkpt><trkpt lat="43.181319478324866" lon="12.254107996524308"><ele>308.0</ele><time>2026-03-29T10:45:13.869Z</time></trkpt><trkpt lat="43.181261270027775" lon="12.254037339832042"><ele>308.0</ele><time>2026-03-29T10:45:14.869Z</time></trkpt><trkpt lat="43.18123714561529" lon="12.253953305007059"><ele>308.0</ele><time>2026-03-29T10:45:15.869Z</time></trkpt><trkpt lat="43.18123129623712" lon="12.253849690088432"><ele>308.0</ele><time>2026-03-29T10:45:16.869Z</time></trkpt><trkpt lat="43.181181795557876" lon="12.253732416245432"><ele>308.0</ele><time>2026-03-29T10:45:18.869Z</time></trkpt><trkpt lat="43.18104963153494" lon="12.253723256886994"><ele>308.0</ele><time>2026-03-29T10:45:21.869Z</time></trkpt><trkpt lat="43.180927865553215" lon="12.25368964167041"><ele>308.0</ele><time>2026-03-29T10:45:22.869Z</time></trkpt><trkpt lat="43.18079157357343" lon="12.253635726497036"><ele>308.0</ele><time>2026-03-29T10:45:23.869Z</time></trkpt><trkpt lat="43.180682637063384" lon="12.25357529285147"><ele>308.0</ele><time>2026-03-29T10:45:24.869Z</time></trkpt><trkpt lat="43.18058069179053" lon="12.253534088758034"><ele>309.6</ele><time>2026-03-29T10:45:25.869Z</time></trkpt><trkpt lat="43.180481407033476" lon="12.25347371325658"><ele>311.20000000000005</ele><time>2026-03-29T10:45:26.869Z</time></trkpt><trkpt lat="43.18038757671658" lon="12.253403074786737"><ele>312.8</ele><time>2026-03-29T10:45:27.869Z</time></trkpt><trkpt lat="43.18030255410987" lon="12.253314531660356"><ele>314.40000000000003</ele><time>2026-03-29T10:45:28.869Z</time></trkpt><trkpt lat="43.1802300022275" lon="12.253216715226069"><ele>316.0</ele><time>2026-03-29T10:45:29.869Z</time></trkpt><trkpt lat="43.18017161937325" lon="12.253126178613183"><ele>314.7142857142857</ele><time>2026-03-29T10:45:30.869Z</time></trkpt><trkpt lat="43.18012351855111" lon="12.25306770440417"><ele>313.42857142857144</ele><time>2026-03-29T10:45:31.869Z</time></trkpt><trkpt lat="43.18007841895337" lon="12.252988832043451"><ele>312.1428571428571</ele><time>2026-03-29T10:45:35.869Z</time></trkpt><trkpt lat="43.17999916644997" lon="12.252960681109082"><ele>310.8571428571429</ele><time>2026-03-29T10:49:44.804Z</time></trkpt><trkpt lat="43.17993807867611" lon="12.252992356715202"><ele>309.57142857142856</ele><time>2026-03-29T10:49:48.804Z</time></trkpt><trkpt lat="43.1798709899571" lon="12.253033709129355"><ele>308.2857142857143</ele><time>2026-03-29T10:49:54.803Z</time></trkpt><trkpt lat="43.17980639636352" lon="12.253051798514791"><ele>307.0</ele><time>2026-03-29T10:50:04.803Z</time></trkpt><trkpt lat="43.17974054773613" lon="12.2530964269582"><ele>311.85714285714283</ele><time>2026-03-29T10:50:16.804Z</time></trkpt><trkpt lat="43.17968713050342" lon="12.253144287041884"><ele>316.7142857142857</ele><time>2026-03-29T10:50:20.805Z</time></trkpt><trkpt lat="43.179637020050755" lon="12.25321276974691"><ele>321.57142857142856</ele><time>2026-03-29T10:50:23.805Z</time></trkpt><trkpt lat="43.1795848344927" lon="12.253267524379993"><ele>326.42857142857144</ele><time>2026-03-29T10:50:26.805Z</time></trkpt><trkpt lat="43.1795470878077" lon="12.253353893472335"><ele>331.2857142857143</ele><time>2026-03-29T10:50:29.804Z</time></trkpt><trkpt lat="43.17949146960396" lon="12.253451949049573"><ele>336.1428571428571</ele><time>2026-03-29T10:50:33.804Z</time></trkpt><trkpt lat="43.179452121022955" lon="12.253537016561513"><ele>341.0</ele><time>2026-03-29T10:50:37.804Z</time></trkpt><trkpt lat="43.179418715441294" lon="12.253616789350362"><ele>341.0</ele><time>2026-03-29T10:50:40.804Z</time></trkpt><trkpt lat="43.17936329826166" lon="12.253733494708596"><ele>341.0</ele><time>2026-03-29T10:50:43.804Z</time></trkpt><trkpt lat="43.17929486630818" lon="12.253829778518513"><ele>341.0</ele><time>2026-03-29T10:50:46.804Z</time></trkpt><trkpt lat="43.17925197722165" lon="12.253923548135788"><ele>341.0</ele><time>2026-03-29T10:50:48.804Z</time></trkpt><trkpt lat="43.179210240460826" lon="12.254004373136244"><ele>341.0</ele><time>2026-03-29T10:50:51.804Z</time></trkpt><trkpt lat="43.179178675940705" lon="12.254093021702262"><ele>341.0</ele><time>2026-03-29T10:50:55.804Z</time></trkpt><trkpt lat="43.179142629519625" lon="12.254179869874307"><ele>342.83333333333337</ele><time>2026-03-29T10:51:00.803Z</time></trkpt><trkpt lat="43.17910582603969" lon="12.254253612060229"><ele>344.6666666666667</ele><time>2026-03-29T10:51:07.803Z</time></trkpt><trkpt lat="43.179091931701194" lon="12.254389402851299"><ele>346.5</ele><time>2026-03-29T10:51:37.802Z</time></trkpt><trkpt lat="43.1790555019239" lon="12.254478298077519"><ele>348.3333333333333</ele><time>2026-03-29T10:51:43.802Z</time></trkpt><trkpt lat="43.17900346190537" lon="12.254387724057421"><ele>350.16666666666663</ele><time>2026-03-29T10:51:51.802Z</time></trkpt><trkpt lat="43.1789791487341" lon="12.254305128748566"><ele>352.0</ele><time>2026-03-29T10:51:53.802Z</time></trkpt><trkpt lat="43.17893843113494" lon="12.254229431427667"><ele>353.7142857142857</ele><time>2026-03-29T10:51:55.802Z</time></trkpt><trkpt lat="43.17887265209458" lon="12.254176299476839"><ele>355.42857142857144</ele><time>2026-03-29T10:51:58.802Z</time></trkpt><trkpt lat="43.17880362256245" lon="12.254176794540932"><ele>357.1428571428571</ele><time>2026-03-29T10:52:01.802Z</time></trkpt><trkpt lat="43.178763904619274" lon="12.254097481412009"><ele>358.8571428571429</ele><time>2026-03-29T10:52:03.801Z</time></trkpt><trkpt lat="43.17871943179012" lon="12.254018055229153"><ele>360.57142857142856</ele><time>2026-03-29T10:52:05.801Z</time></trkpt><trkpt lat="43.17872055472633" lon="12.253910189477917"><ele>362.2857142857143</ele><time>2026-03-29T10:52:06.801Z</time></trkpt><trkpt lat="43.178669150313205" lon="12.253822732813381"><ele>364.0</ele><time>2026-03-29T10:52:09.801Z</time></trkpt><trkpt lat="43.17865949359134" lon="12.253696731260376"><ele>364.0</ele><time>2026-03-29T10:52:11.801Z</time></trkpt><trkpt lat="43.178609379097935" lon="12.253606902493765"><ele>364.0</ele><time>2026-03-29T10:52:14.803Z</time></trkpt><trkpt lat="43.17857895436579" lon="12.253511724497274"><ele>364.0</ele><time>2026-03-29T10:52:16.803Z</time></trkpt><trkpt lat="43.17856720557247" lon="12.253407812272988"><ele>364.0</ele><time>2026-03-29T10:52:18.803Z</time></trkpt><trkpt lat="43.178530495849465" lon="12.253292276289532"><ele>364.0</ele><time>2026-03-29T10:52:20.803Z</time></trkpt><trkpt lat="43.178518967171954" lon="12.25319025976203"><ele>364.0</ele><time>2026-03-29T10:52:22.803Z</time></trkpt><trkpt lat="43.1785007985296" lon="12.253104635284643"><ele>362.5</ele><time>2026-03-29T10:52:23.803Z</time></trkpt><trkpt lat="43.178399670292734" lon="12.2528534877721"><ele>361.0</ele><time>2026-03-29T10:52:24.803Z</time></trkpt><trkpt lat="43.17838192649977" lon="12.25276061461323"><ele>359.5</ele><time>2026-03-29T10:52:25.803Z</time></trkpt><trkpt lat="43.17834509562812" lon="12.252594079929661"><ele>358.0</ele><time>2026-03-29T10:52:26.803Z</time></trkpt><trkpt lat="43.178324722335866" lon="12.252389580003557"><ele>356.3333333333333</ele><time>2026-03-29T10:52:27.802Z</time></trkpt><trkpt lat="43.17829885512018" lon="12.252234154583949"><ele>354.66666666666663</ele><time>2026-03-29T10:52:28.802Z</time></trkpt><trkpt lat="43.178257356441584" lon="12.252152171711948"><ele>353.0</ele><time>2026-03-29T10:52:30.802Z</time></trkpt><trkpt lat="43.178172840614394" lon="12.252156920457816"><ele>351.3333333333333</ele><time>2026-03-29T10:52:35.802Z</time></trkpt><trkpt lat="43.178118257759174" lon="12.252214634490976"><ele>349.6666666666667</ele><time>2026-03-29T10:52:37.802Z</time></trkpt><trkpt lat="43.17806309886878" lon="12.252322329130456"><ele>348.0</ele><time>2026-03-29T10:52:39.802Z</time></trkpt><trkpt lat="43.17800081463441" lon="12.252363588944618"><ele>348.0</ele><time>2026-03-29T10:52:42.802Z</time></trkpt><trkpt lat="43.178016230425705" lon="12.252651482860326"><ele>348.0</ele><time>2026-03-29T10:52:44.802Z</time></trkpt><trkpt lat="43.17790560515893" lon="12.252566359193732"><ele>348.0</ele><time>2026-03-29T10:52:48.802Z</time></trkpt><trkpt lat="43.177894681548736" lon="12.25265200564987"><ele>348.0</ele><time>2026-03-29T10:52:50.802Z</time></trkpt><trkpt lat="43.177859229245385" lon="12.252754264686606"><ele>348.0</ele><time>2026-03-29T10:52:52.802Z</time></trkpt><trkpt lat="43.17787883062335" lon="12.252860113397444"><ele>348.0</ele><time>2026-03-29T10:52:54.802Z</time></trkpt><trkpt lat="43.177824811759585" lon="12.25296797773618"><ele>348.0</ele><time>2026-03-29T10:52:56.802Z</time></trkpt><trkpt lat="43.17783293485907" lon="12.253073776077091"><ele>348.0</ele><time>2026-03-29T10:52:58.801Z</time></trkpt><trkpt lat="43.17784784760244" lon="12.25320047304208"><ele>348.0</ele><time>2026-03-29T10:53:00.801Z</time></trkpt><trkpt lat="43.17785004799837" lon="12.253324411313196"><ele>348.0</ele><time>2026-03-29T10:53:02.801Z</time></trkpt><trkpt lat="43.17784325297783" lon="12.253426127925314"><ele>350.0</ele><time>2026-03-29T10:53:05.801Z</time></trkpt><trkpt lat="43.17789532544116" lon="12.253549579743185"><ele>352.0</ele><time>2026-03-29T10:53:06.801Z</time></trkpt><trkpt lat="43.177935615056676" lon="12.253638263753357"><ele>354.0</ele><time>2026-03-29T10:53:07.801Z</time></trkpt><trkpt lat="43.1779385306492" lon="12.253727812704899"><ele>356.0</ele><time>2026-03-29T10:53:08.801Z</time></trkpt><trkpt lat="43.17795087947941" lon="12.253820933769209"><ele>358.0</ele><time>2026-03-29T10:53:09.801Z</time></trkpt><trkpt lat="43.178018701587334" lon="12.25397243215442"><ele>360.0</ele><time>2026-03-29T10:53:11.801Z</time></trkpt><trkpt lat="43.17804139569901" lon="12.254064206386017"><ele>361.6666666666667</ele><time>2026-03-29T10:53:12.801Z</time></trkpt><trkpt lat="43.178092475809926" lon="12.25416774223554"><ele>363.3333333333333</ele><time>2026-03-29T10:53:13.801Z</time></trkpt><trkpt lat="43.17813839501888" lon="12.25426037001389"><ele>365.0</ele><time>2026-03-29T10:53:14.801Z</time></trkpt><trkpt lat="43.17816726662261" lon="12.254412650482893"><ele>366.66666666666663</ele><time>2026-03-29T10:53:16.801Z</time></trkpt><trkpt lat="43.17816645635803" lon="12.254520790585326"><ele>368.3333333333333</ele><time>2026-03-29T10:53:18.801Z</time></trkpt><trkpt lat="43.17818018452574" lon="12.2546205740129"><ele>370.0</ele><time>2026-03-29T10:53:19.801Z</time></trkpt><trkpt lat="43.17822116209962" lon="12.254744764649233"><ele>381.0</ele><time>2026-03-29T10:53:21.801Z</time></trkpt><trkpt lat="43.178047523332715" lon="12.25529058079266"><ele>392.0</ele><time>2026-03-29T10:53:22.801Z</time></trkpt><trkpt lat="43.17807312020966" lon="12.255422932313065"><ele>391.99999999999994</ele><time>2026-03-29T10:53:24.801Z</time></trkpt><trkpt lat="43.1781092842773" lon="12.255555057131883"><ele>392.0</ele><time>2026-03-29T10:53:27.801Z</time></trkpt><trkpt lat="43.17812403151108" lon="12.255641866283625"><ele>392.0</ele><time>2026-03-29T10:53:28.8Z</time></trkpt><trkpt lat="43.178179205308744" lon="12.255728112971306"><ele>392.0</ele><time>2026-03-29T10:53:31.8Z</time></trkpt><trkpt lat="43.17823252594961" lon="12.255828270307395"><ele>391.99999999999994</ele><time>2026-03-29T10:53:33.8Z</time></trkpt><trkpt lat="43.178307303142546" lon="12.255917618884201"><ele>392.0</ele><time>2026-03-29T10:53:35.8Z</time></trkpt><trkpt lat="43.17866611393423" lon="12.255925820562126"><ele>391.40000000000003</ele><time>2026-03-29T10:53:44.8Z</time></trkpt><trkpt lat="43.17860605404187" lon="12.256075749236238"><ele>390.8</ele><time>2026-03-29T10:53:46.8Z</time></trkpt><trkpt lat="43.17856844442836" lon="12.256173948286737"><ele>390.2</ele><time>2026-03-29T10:53:47.8Z</time></trkpt><trkpt lat="43.17851276887207" lon="12.256310374176305"><ele>389.6</ele><time>2026-03-29T10:53:48.8Z</time></trkpt><trkpt lat="43.17850113040247" lon="12.256409129472656"><ele>389.0</ele><time>2026-03-29T10:53:49.8Z</time></trkpt><trkpt lat="43.17850652555598" lon="12.25651719693426"><ele>393.3333333333333</ele><time>2026-03-29T10:53:51.8Z</time></trkpt><trkpt lat="43.1784588174332" lon="12.25664281197964"><ele>397.66666666666663</ele><time>2026-03-29T10:53:53.8Z</time></trkpt><trkpt lat="43.17840382082183" lon="12.256779756941066"><ele>402.0</ele><time>2026-03-29T10:53:55.8Z</time></trkpt><trkpt lat="43.17840659331289" lon="12.25713294771351"><ele>402.0</ele><time>2026-03-29T10:53:57.8Z</time></trkpt><trkpt lat="43.17836587577819" lon="12.257203366127587"><ele>402.0</ele><time>2026-03-29T10:53:58.8Z</time></trkpt><trkpt lat="43.178322022143824" lon="12.257275746987814"><ele>402.0</ele><time>2026-03-29T10:54:00.799Z</time></trkpt><trkpt lat="43.17827260565419" lon="12.257341636028828"><ele>402.0</ele><time>2026-03-29T10:54:04.799Z</time></trkpt><trkpt lat="43.178222233939366" lon="12.257405714830341"><ele>402.0</ele><time>2026-03-29T10:54:07.799Z</time></trkpt><trkpt lat="43.17816879003664" lon="12.257463476236572"><ele>402.0</ele><time>2026-03-29T10:54:11.799Z</time></trkpt><trkpt lat="43.17814592173984" lon="12.257563368155434"><ele>402.0</ele><time>2026-03-29T10:54:14.799Z</time></trkpt><trkpt lat="43.178150574671356" lon="12.257652322502462"><ele>407.6</ele><time>2026-03-29T10:54:16.799Z</time></trkpt><trkpt lat="43.178114081394064" lon="12.257785288101761"><ele>413.20000000000005</ele><time>2026-03-29T10:54:18.801Z</time></trkpt><trkpt lat="43.17808045298685" lon="12.257946061149587"><ele>418.8</ele><time>2026-03-29T10:54:20.801Z</time></trkpt><trkpt lat="43.17808819493835" lon="12.258092870050138"><ele>424.4</ele><time>2026-03-29T10:54:22.802Z</time></trkpt><trkpt lat="43.17810453739071" lon="12.258200335247624"><ele>430.0</ele><time>2026-03-29T10:54:24.801Z</time></trkpt><trkpt lat="43.17810467235774" lon="12.258356287129303"><ele>430.0</ele><time>2026-03-29T10:54:26.801Z</time></trkpt><trkpt lat="43.17809078203197" lon="12.258447580328422"><ele>430.0</ele><time>2026-03-29T10:54:27.801Z</time></trkpt><trkpt lat="43.17809906090563" lon="12.258548045071626"><ele>430.0</ele><time>2026-03-29T10:54:28.801Z</time></trkpt><trkpt lat="43.17810668543653" lon="12.258647115946404"><ele>430.0</ele><time>2026-03-29T10:54:29.801Z</time></trkpt><trkpt lat="43.17809598264524" lon="12.25875454254433"><ele>430.0</ele><time>2026-03-29T10:54:30.801Z</time></trkpt><trkpt lat="43.17807297339509" lon="12.258862835376352"><ele>430.0</ele><time>2026-03-29T10:54:31.801Z</time></trkpt><trkpt lat="43.17806475894471" lon="12.258949391280328"><ele>430.0</ele><time>2026-03-29T10:54:33.801Z</time></trkpt><trkpt lat="43.17806967845907" lon="12.2590680568988"><ele>430.00000000000006</ele><time>2026-03-29T10:54:37.801Z</time></trkpt><trkpt lat="43.178096410934174" lon="12.259177432905286"><ele>430.0</ele><time>2026-03-29T10:54:39.801Z</time></trkpt><trkpt lat="43.17815120232833" lon="12.259265647198667"><ele>430.0</ele><time>2026-03-29T10:54:41.8Z</time></trkpt><trkpt lat="43.178230138231385" lon="12.259338038051162"><ele>430.0</ele><time>2026-03-29T10:54:43.8Z</time></trkpt><trkpt lat="43.1783142946447" lon="12.259404214427317"><ele>430.00000000000006</ele><time>2026-03-29T10:54:45.8Z</time></trkpt><trkpt lat="43.17837087875951" lon="12.259456241228554"><ele>430.0</ele><time>2026-03-29T10:54:48.8Z</time></trkpt><trkpt lat="43.178475518917125" lon="12.259488111690443"><ele>426.83333333333337</ele><time>2026-03-29T10:54:50.8Z</time></trkpt><trkpt lat="43.17852861536794" lon="12.25960464793912"><ele>423.6666666666667</ele><time>2026-03-29T10:54:53.8Z</time></trkpt><trkpt lat="43.17859470492478" lon="12.259676103693668"><ele>420.5</ele><time>2026-03-29T10:54:55.8Z</time></trkpt><trkpt lat="43.17864699668845" lon="12.25976340484354"><ele>417.33333333333337</ele><time>2026-03-29T10:54:58.8Z</time></trkpt><trkpt lat="43.17862721405032" lon="12.25986296478043"><ele>414.1666666666667</ele><time>2026-03-29T10:55:00.8Z</time></trkpt><trkpt lat="43.17869928050455" lon="12.259930455510494"><ele>411.0</ele><time>2026-03-29T10:55:02.8Z</time></trkpt><trkpt lat="43.17880637672937" lon="12.259886593337727"><ele>411.0</ele><time>2026-03-29T10:55:04.8Z</time></trkpt><trkpt lat="43.178873085527904" lon="12.259877158988987"><ele>411.0</ele><time>2026-03-29T10:55:05.8Z</time></trkpt><trkpt lat="43.17897797252389" lon="12.259869729851445"><ele>411.0</ele><time>2026-03-29T10:55:06.8Z</time></trkpt><trkpt lat="43.17906817567214" lon="12.259890534101894"><ele>411.0</ele><time>2026-03-29T10:55:07.8Z</time></trkpt><trkpt lat="43.17915851657163" lon="12.259918151368705"><ele>411.0</ele><time>2026-03-29T10:55:08.8Z</time></trkpt><trkpt lat="43.17925935760949" lon="12.259967188915907"><ele>412.20000000000005</ele><time>2026-03-29T10:55:09.8Z</time></trkpt><trkpt lat="43.17933637279856" lon="12.26006367304095"><ele>413.40000000000003</ele><time>2026-03-29T10:55:10.8Z</time></trkpt><trkpt lat="43.179413860527525" lon="12.26016116981917"><ele>414.6</ele><time>2026-03-29T10:55:11.8Z</time></trkpt><trkpt lat="43.17948155886857" lon="12.260262823034134"><ele>415.8</ele><time>2026-03-29T10:55:12.799Z</time></trkpt><trkpt lat="43.17957915552476" lon="12.260295499419858"><ele>417.0</ele><time>2026-03-29T10:55:13.799Z</time></trkpt><trkpt lat="43.180226094548246" lon="12.260623123003942"><ele>417.0</ele><time>2026-03-29T10:55:20.799Z</time></trkpt><trkpt lat="43.18035055851878" lon="12.260613692521046"><ele>417.0</ele><time>2026-03-29T10:55:21.799Z</time></trkpt><trkpt lat="43.18044591740338" lon="12.260598426569342"><ele>417.0</ele><time>2026-03-29T10:55:22.799Z</time></trkpt><trkpt lat="43.180552833130925" lon="12.260606021965067"><ele>417.0</ele><time>2026-03-29T10:55:24.799Z</time></trkpt><trkpt lat="43.18058696215323" lon="12.260722697400766"><ele>417.0</ele><time>2026-03-29T10:55:27.799Z</time></trkpt><trkpt lat="43.180522095353766" lon="12.260864911281335"><ele>417.0</ele><time>2026-03-29T10:55:29.799Z</time></trkpt><trkpt lat="43.18045006612866" lon="12.260954303410669"><ele>417.0</ele><time>2026-03-29T10:55:30.799Z</time></trkpt><trkpt lat="43.18039015452418" lon="12.261018934472364"><ele>417.0</ele><time>2026-03-29T10:55:31.799Z</time></trkpt><trkpt lat="43.180325950194884" lon="12.261062792356888"><ele>417.0</ele><time>2026-03-29T10:55:32.799Z</time></trkpt><trkpt lat="43.18023426560139" lon="12.261119689912595"><ele>417.0</ele><time>2026-03-29T10:55:33.799Z</time></trkpt><trkpt lat="43.18011596508105" lon="12.26117757945454"><ele>417.0</ele><time>2026-03-29T10:55:34.799Z</time></trkpt><trkpt lat="43.17999574999129" lon="12.261234949438196"><ele>417.0</ele><time>2026-03-29T10:55:35.799Z</time></trkpt><trkpt lat="43.17990371008341" lon="12.261297110881292"><ele>417.0</ele><time>2026-03-29T10:55:36.799Z</time></trkpt><trkpt lat="43.17981817512852" lon="12.261379385236225"><ele>417.0</ele><time>2026-03-29T10:55:37.799Z</time></trkpt><trkpt lat="43.17971015029579" lon="12.261483107608553"><ele>422.25</ele><time>2026-03-29T10:55:38.799Z</time></trkpt><trkpt lat="43.1795614477023" lon="12.261593611638801"><ele>427.5</ele><time>2026-03-29T10:55:39.799Z</time></trkpt><trkpt lat="43.179432462471006" lon="12.261659489695523"><ele>432.75</ele><time>2026-03-29T10:55:40.799Z</time></trkpt><trkpt lat="43.17933247150962" lon="12.261739876921933"><ele>438.0</ele><time>2026-03-29T10:55:41.799Z</time></trkpt><trkpt lat="43.17923092850945" lon="12.261832675868442"><ele>438.0</ele><time>2026-03-29T10:55:42.799Z</time></trkpt><trkpt lat="43.179109728320796" lon="12.26193408316154"><ele>438.0</ele><time>2026-03-29T10:55:43.798Z</time></trkpt><trkpt lat="43.17900422135503" lon="12.262013769861236"><ele>438.0</ele><time>2026-03-29T10:55:44.798Z</time></trkpt><trkpt lat="43.17891000335154" lon="12.262080030700147"><ele>438.0</ele><time>2026-03-29T10:55:45.798Z</time></trkpt><trkpt lat="43.17879652628854" lon="12.262153958354038"><ele>439.2</ele><time>2026-03-29T10:55:47.798Z</time></trkpt><trkpt lat="43.17869924073401" lon="12.26216787900765"><ele>440.4</ele><time>2026-03-29T10:55:48.798Z</time></trkpt><trkpt lat="43.17858125207552" lon="12.262181867297857"><ele>441.59999999999997</ele><time>2026-03-29T10:55:49.798Z</time></trkpt><trkpt lat="43.17846500418069" lon="12.262185870898115"><ele>442.79999999999995</ele><time>2026-03-29T10:55:50.798Z</time></trkpt><trkpt lat="43.178368878712625" lon="12.262174559453484"><ele>444.0</ele><time>2026-03-29T10:55:51.798Z</time></trkpt><trkpt lat="43.178272768119605" lon="12.262162582320693"><ele>444.0</ele><time>2026-03-29T10:55:52.798Z</time></trkpt><trkpt lat="43.17818705163967" lon="12.262151372218526"><ele>444.0</ele><time>2026-03-29T10:55:53.798Z</time></trkpt><trkpt lat="43.17811224122609" lon="12.262139008071534"><ele>444.0</ele><time>2026-03-29T10:55:54.798Z</time></trkpt><trkpt lat="43.17803950935013" lon="12.262131697349592"><ele>444.0</ele><time>2026-03-29T10:55:57.798Z</time></trkpt><trkpt lat="43.177974669107684" lon="12.262095721851026"><ele>444.0</ele><time>2026-03-29T10:55:59.798Z</time></trkpt><trkpt lat="43.17786485554025" lon="12.2620364985702"><ele>444.0</ele><time>2026-03-29T10:56:01.798Z</time></trkpt><trkpt lat="43.17777586374717" lon="12.261982232346764"><ele>445.6</ele><time>2026-03-29T10:56:03.798Z</time></trkpt><trkpt lat="43.17768144917252" lon="12.261912181735804"><ele>447.2</ele><time>2026-03-29T10:56:05.798Z</time></trkpt><trkpt lat="43.17758989630126" lon="12.261858597433882"><ele>448.80000000000007</ele><time>2026-03-29T10:56:07.798Z</time></trkpt><trkpt lat="43.17748716114795" lon="12.261812023053045"><ele>450.40000000000003</ele><time>2026-03-29T10:56:09.798Z</time></trkpt><trkpt lat="43.177427362212136" lon="12.261780164621767"><ele>452.0</ele><time>2026-03-29T10:56:10.798Z</time></trkpt><trkpt lat="43.17733012822668" lon="12.261743131012773"><ele>452.66666666666663</ele><time>2026-03-29T10:56:12.798Z</time></trkpt><trkpt lat="43.1772419645132" lon="12.261701163562975"><ele>453.3333333333333</ele><time>2026-03-29T10:56:15.797Z</time></trkpt><trkpt lat="43.17714983503684" lon="12.261668137685167"><ele>454.0</ele><time>2026-03-29T10:56:17.797Z</time></trkpt><trkpt lat="43.17707155929825" lon="12.261644527905348"><ele>454.66666666666663</ele><time>2026-03-29T10:56:20.797Z</time></trkpt><trkpt lat="43.17701094751681" lon="12.261615494880397"><ele>455.3333333333333</ele><time>2026-03-29T10:56:27.8Z</time></trkpt><trkpt lat="43.17694387961388" lon="12.261581446654946"><ele>456.0</ele><time>2026-03-29T10:56:36.799Z</time></trkpt><trkpt lat="43.17686924964088" lon="12.261566441611459"><ele>456.0</ele><time>2026-03-29T10:56:38.799Z</time></trkpt><trkpt lat="43.17675009082251" lon="12.261508650741872"><ele>456.0</ele><time>2026-03-29T10:56:40.799Z</time></trkpt><trkpt lat="43.17663263750202" lon="12.261423166783404"><ele>456.0</ele><time>2026-03-29T10:56:42.799Z</time></trkpt><trkpt lat="43.176580941283106" lon="12.261361652869263"><ele>456.0</ele><time>2026-03-29T10:56:43.799Z</time></trkpt><trkpt lat="43.176518737853094" lon="12.261307674814395"><ele>456.0</ele><time>2026-03-29T10:56:44.799Z</time></trkpt><trkpt lat="43.176452913831916" lon="12.261225556963447"><ele>455.4</ele><time>2026-03-29T10:56:45.799Z</time></trkpt><trkpt lat="43.17638925173502" lon="12.26113134888157"><ele>454.8</ele><time>2026-03-29T10:56:46.799Z</time></trkpt><trkpt lat="43.17631856547821" lon="12.26103767669013"><ele>454.19999999999993</ele><time>2026-03-29T10:56:47.799Z</time></trkpt><trkpt lat="43.17625741919421" lon="12.260942189113306"><ele>453.59999999999997</ele><time>2026-03-29T10:56:48.799Z</time></trkpt><trkpt lat="43.1762071710782" lon="12.26084736439177"><ele>453.0</ele><time>2026-03-29T10:56:49.799Z</time></trkpt><trkpt lat="43.176164602703686" lon="12.260754085622404"><ele>453.0</ele><time>2026-03-29T10:56:50.799Z</time></trkpt><trkpt lat="43.176128957635605" lon="12.260650557156138"><ele>452.99999999999994</ele><time>2026-03-29T10:56:51.799Z</time></trkpt><trkpt lat="43.1761027166562" lon="12.260501167206877"><ele>452.99999999999994</ele><time>2026-03-29T10:56:53.799Z</time></trkpt><trkpt lat="43.176083920743096" lon="12.260370518704082"><ele>453.0</ele><time>2026-03-29T10:56:55.799Z</time></trkpt><trkpt lat="43.176088731462016" lon="12.260215400603764"><ele>453.0</ele><time>2026-03-29T10:56:56.799Z</time></trkpt><trkpt lat="43.176112645309736" lon="12.260069304092847"><ele>454.3333333333333</ele><time>2026-03-29T10:56:57.798Z</time></trkpt><trkpt lat="43.17611766254613" lon="12.259941984449183"><ele>455.66666666666663</ele><time>2026-03-29T10:56:58.798Z</time></trkpt><trkpt lat="43.176120106341294" lon="12.259827432522798"><ele>457.0</ele><time>2026-03-29T10:56:59.798Z</time></trkpt><trkpt lat="43.176131118663285" lon="12.25971899230558"><ele>458.3333333333333</ele><time>2026-03-29T10:57:00.798Z</time></trkpt><trkpt lat="43.17614341425338" lon="12.259608751241087"><ele>459.66666666666663</ele><time>2026-03-29T10:57:01.798Z</time></trkpt><trkpt lat="43.1761658771582" lon="12.259492084178007"><ele>461.0</ele><time>2026-03-29T10:57:02.798Z</time></trkpt><trkpt lat="43.17618372301226" lon="12.259404577185204"><ele>460.4</ele><time>2026-03-29T10:57:03.798Z</time></trkpt><trkpt lat="43.17618754313368" lon="12.25923642277606"><ele>459.8</ele><time>2026-03-29T10:57:05.798Z</time></trkpt><trkpt lat="43.176118918739334" lon="12.259092734119243"><ele>459.19999999999993</ele><time>2026-03-29T10:57:07.798Z</time></trkpt><trkpt lat="43.17605597485828" lon="12.259021986935219"><ele>458.59999999999997</ele><time>2026-03-29T10:57:08.798Z</time></trkpt><trkpt lat="43.17597458757" lon="12.258962139428137"><ele>458.0</ele><time>2026-03-29T10:57:09.798Z</time></trkpt><trkpt lat="43.17586281832177" lon="12.258910268615542"><ele>458.0</ele><time>2026-03-29T10:57:10.798Z</time></trkpt><trkpt lat="43.17576758345874" lon="12.258878747949874"><ele>457.99999999999994</ele><time>2026-03-29T10:57:11.798Z</time></trkpt><trkpt lat="43.17567658502203" lon="12.258851100962751"><ele>457.99999999999994</ele><time>2026-03-29T10:57:12.798Z</time></trkpt><trkpt lat="43.175574845014296" lon="12.258838806571202"><ele>458.0</ele><time>2026-03-29T10:57:13.798Z</time></trkpt><trkpt lat="43.175445492305606" lon="12.258834799207152"><ele>458.0</ele><time>2026-03-29T10:57:14.798Z</time></trkpt><trkpt lat="43.17532966414884" lon="12.258832549443955"><ele>459.25</ele><time>2026-03-29T10:57:15.798Z</time></trkpt><trkpt lat="43.17520371716334" lon="12.258826466663507"><ele>460.5</ele><time>2026-03-29T10:57:16.798Z</time></trkpt><trkpt lat="43.17508186386773" lon="12.258811546802812"><ele>461.75</ele><time>2026-03-29T10:57:17.798Z</time></trkpt><trkpt lat="43.1749516787573" lon="12.258789130199942"><ele>463.0</ele><time>2026-03-29T10:57:18.798Z</time></trkpt><trkpt lat="43.174794819748" lon="12.258760950756846"><ele>464.25</ele><time>2026-03-29T10:57:19.798Z</time></trkpt><trkpt lat="43.17465753229228" lon="12.258731505264079"><ele>465.5</ele><time>2026-03-29T10:57:20.798Z</time></trkpt><trkpt lat="43.17453048203548" lon="12.258695885970726"><ele>466.75</ele><time>2026-03-29T10:57:21.798Z</time></trkpt><trkpt lat="43.17441397928133" lon="12.258675365969145"><ele>468.0</ele><time>2026-03-29T10:57:22.798Z</time></trkpt><trkpt lat="43.17430254739803" lon="12.258633259275975"><ele>468.0</ele><time>2026-03-29T10:57:23.798Z</time></trkpt><trkpt lat="43.17419134963293" lon="12.258575213139405"><ele>468.0</ele><time>2026-03-29T10:57:24.798Z</time></trkpt><trkpt lat="43.17407723100219" lon="12.25851679080504"><ele>468.0</ele><time>2026-03-29T10:57:25.798Z</time></trkpt><trkpt lat="43.1739759742712" lon="12.258458677447848"><ele>468.0</ele><time>2026-03-29T10:57:26.798Z</time></trkpt><trkpt lat="43.17387942211034" lon="12.258395680165039"><ele>468.25</ele><time>2026-03-29T10:57:27.798Z</time></trkpt><trkpt lat="43.17377463847624" lon="12.258316659893818"><ele>468.5</ele><time>2026-03-29T10:57:28.797Z</time></trkpt><trkpt lat="43.173666732388675" lon="12.258218337417734"><ele>468.75</ele><time>2026-03-29T10:57:29.797Z</time></trkpt><trkpt lat="43.17356686080698" lon="12.25810078838074"><ele>469.0</ele><time>2026-03-29T10:57:30.797Z</time></trkpt><trkpt lat="43.17345020064693" lon="12.257967410597702"><ele>469.0</ele><time>2026-03-29T10:57:31.797Z</time></trkpt><trkpt lat="43.17334576736952" lon="12.257839517011575"><ele>469.0</ele><time>2026-03-29T10:57:32.797Z</time></trkpt><trkpt lat="43.17324837841724" lon="12.257705685470105"><ele>469.0</ele><time>2026-03-29T10:57:33.797Z</time></trkpt><trkpt lat="43.17313571158239" lon="12.257568549946267"><ele>469.0</ele><time>2026-03-29T10:57:34.797Z</time></trkpt><trkpt lat="43.17302881760919" lon="12.257432823930737"><ele>468.5</ele><time>2026-03-29T10:57:35.797Z</time></trkpt><trkpt lat="43.172935788625374" lon="12.25730752300989"><ele>468.0</ele><time>2026-03-29T10:57:36.797Z</time></trkpt><trkpt lat="43.172849171789665" lon="12.25718916694196"><ele>467.5</ele><time>2026-03-29T10:57:37.797Z</time></trkpt><trkpt lat="43.172768512764165" lon="12.257088763056485"><ele>467.0</ele><time>2026-03-29T10:57:38.797Z</time></trkpt><trkpt lat="43.17268114069161" lon="12.257009867532192"><ele>467.0</ele><time>2026-03-29T10:57:39.797Z</time></trkpt><trkpt lat="43.17259171902628" lon="12.2569480732571"><ele>467.00000000000006</ele><time>2026-03-29T10:57:40.797Z</time></trkpt><trkpt lat="43.17249453867505" lon="12.25690010581068"><ele>467.00000000000006</ele><time>2026-03-29T10:57:41.797Z</time></trkpt><trkpt lat="43.17238811215367" lon="12.256859768775454"><ele>467.0</ele><time>2026-03-29T10:57:42.797Z</time></trkpt><trkpt lat="43.17228364686296" lon="12.256808380368527"><ele>467.0</ele><time>2026-03-29T10:57:43.797Z</time></trkpt><trkpt lat="43.1721847291486" lon="12.2567506907339"><ele>467.20000000000005</ele><time>2026-03-29T10:57:44.797Z</time></trkpt><trkpt lat="43.172090584822286" lon="12.25666527545417"><ele>467.40000000000003</ele><time>2026-03-29T10:57:45.797Z</time></trkpt><trkpt lat="43.171987281725244" lon="12.25660812533694"><ele>467.59999999999997</ele><time>2026-03-29T10:57:46.797Z</time></trkpt><trkpt lat="43.17188138468734" lon="12.256572227250128"><ele>467.79999999999995</ele><time>2026-03-29T10:57:47.797Z</time></trkpt><trkpt lat="43.17177484913428" lon="12.256553322005718"><ele>468.0</ele><time>2026-03-29T10:57:48.797Z</time></trkpt><trkpt lat="43.1716703664613" lon="12.25653893870047"><ele>468.0</ele><time>2026-03-29T10:57:49.797Z</time></trkpt><trkpt lat="43.171570607076404" lon="12.256509813909908"><ele>467.99999999999994</ele><time>2026-03-29T10:57:50.797Z</time></trkpt><trkpt lat="43.17147765639802" lon="12.256473077203436"><ele>467.99999999999994</ele><time>2026-03-29T10:57:51.797Z</time></trkpt><trkpt lat="43.171406659534995" lon="12.256401646418208"><ele>468.0</ele><time>2026-03-29T10:57:52.797Z</time></trkpt><trkpt lat="43.17134150634315" lon="12.256321325988704"><ele>468.0</ele><time>2026-03-29T10:57:53.797Z</time></trkpt><trkpt lat="43.17129348145831" lon="12.25621241094378"><ele>466.59999999999997</ele><time>2026-03-29T10:57:54.797Z</time></trkpt><trkpt lat="43.171248092674844" lon="12.256088391590009"><ele>465.19999999999993</ele><time>2026-03-29T10:57:55.797Z</time></trkpt><trkpt lat="43.17120504413582" lon="12.255982629673602"><ele>463.8</ele><time>2026-03-29T10:57:56.797Z</time></trkpt><trkpt lat="43.17116717332164" lon="12.255868759961091"><ele>462.4</ele><time>2026-03-29T10:57:57.797Z</time></trkpt><trkpt lat="43.17112233034946" lon="12.255755946661752"><ele>461.0</ele><time>2026-03-29T10:57:58.797Z</time></trkpt><trkpt lat="43.171071541217714" lon="12.255635726490151"><ele>459.6</ele><time>2026-03-29T10:57:59.796Z</time></trkpt><trkpt lat="43.171023420221" lon="12.255524632036238"><ele>458.20000000000005</ele><time>2026-03-29T10:58:00.796Z</time></trkpt><trkpt lat="43.170982774556165" lon="12.255417952369125"><ele>456.79999999999995</ele><time>2026-03-29T10:58:01.796Z</time></trkpt><trkpt lat="43.1709497505458" lon="12.255305297396058"><ele>455.4</ele><time>2026-03-29T10:58:02.796Z</time></trkpt><trkpt lat="43.1709306195421" lon="12.255201345064338"><ele>454.0</ele><time>2026-03-29T10:58:03.796Z</time></trkpt><trkpt lat="43.17094211915848" lon="12.255051973588397"><ele>454.00000000000006</ele><time>2026-03-29T10:58:05.796Z</time></trkpt><trkpt lat="43.17099266768494" lon="12.254983412926535"><ele>454.0</ele><time>2026-03-29T10:58:07.796Z</time></trkpt><trkpt lat="43.171051116065236" lon="12.25490150001281"><ele>454.0</ele><time>2026-03-29T10:58:09.796Z</time></trkpt><trkpt lat="43.17109501951967" lon="12.25483387149599"><ele>454.0</ele><time>2026-03-29T10:58:11.796Z</time></trkpt><trkpt lat="43.17119735334724" lon="12.254815016058648"><ele>454.00000000000006</ele><time>2026-03-29T10:58:13.796Z</time></trkpt><trkpt lat="43.17127701744014" lon="12.254801123941572"><ele>454.0</ele><time>2026-03-29T10:58:15.796Z</time></trkpt><trkpt lat="43.171350868215555" lon="12.254785679090777"><ele>454.2</ele><time>2026-03-29T10:58:19.796Z</time></trkpt><trkpt lat="43.171417512469525" lon="12.25476711120529"><ele>454.4</ele><time>2026-03-29T10:58:25.796Z</time></trkpt><trkpt lat="43.171587662736954" lon="12.254780037227375"><ele>454.6</ele><time>2026-03-29T10:58:35.798Z</time></trkpt><trkpt lat="43.17167427802432" lon="12.254789948509554"><ele>454.8</ele><time>2026-03-29T10:58:37.798Z</time></trkpt><trkpt lat="43.17175827958697" lon="12.254727149102322"><ele>455.0</ele><time>2026-03-29T10:58:39.797Z</time></trkpt><trkpt lat="43.171866857329924" lon="12.254712870201386"><ele>452.16666666666663</ele><time>2026-03-29T10:58:40.798Z</time></trkpt><trkpt lat="43.17195755723532" lon="12.254703576965865"><ele>449.3333333333333</ele><time>2026-03-29T10:58:41.797Z</time></trkpt><trkpt lat="43.17202812152486" lon="12.25466447334209"><ele>446.5</ele><time>2026-03-29T10:58:42.797Z</time></trkpt><trkpt lat="43.172098586626525" lon="12.254619020875303"><ele>443.66666666666663</ele><time>2026-03-29T10:58:43.797Z</time></trkpt><trkpt lat="43.17217106175138" lon="12.254553460263917"><ele>440.8333333333333</ele><time>2026-03-29T10:58:44.797Z</time></trkpt><trkpt lat="43.17224803478623" lon="12.25449964006942"><ele>438.0</ele><time>2026-03-29T10:58:45.797Z</time></trkpt><trkpt lat="43.17232883433443" lon="12.254440425708745"><ele>438.0</ele><time>2026-03-29T10:58:46.797Z</time></trkpt><trkpt lat="43.17240486303015" lon="12.254390425104107"><ele>437.99999999999994</ele><time>2026-03-29T10:58:47.797Z</time></trkpt><trkpt lat="43.17249438419745" lon="12.2543763183444"><ele>437.99999999999994</ele><time>2026-03-29T10:58:48.797Z</time></trkpt><trkpt lat="43.172566674749866" lon="12.254367238399999"><ele>438.0</ele><time>2026-03-29T10:58:49.797Z</time></trkpt><trkpt lat="43.17262760437966" lon="12.254309764928472"><ele>438.0</ele><time>2026-03-29T10:58:50.797Z</time></trkpt><trkpt lat="43.17272743031418" lon="12.254178081716542"><ele>438.0</ele><time>2026-03-29T10:58:52.797Z</time></trkpt><trkpt lat="43.17277693671547" lon="12.254108933154134"><ele>438.0</ele><time>2026-03-29T10:58:53.797Z</time></trkpt><trkpt lat="43.17283458623496" lon="12.254055790906978"><ele>438.0</ele><time>2026-03-29T10:58:54.797Z</time></trkpt><trkpt lat="43.17291327094288" lon="12.254015606532791"><ele>438.0</ele><time>2026-03-29T10:58:55.797Z</time></trkpt><trkpt lat="43.17298037836546" lon="12.254007236734086"><ele>438.0</ele><time>2026-03-29T10:58:56.797Z</time></trkpt><trkpt lat="43.17305440237095" lon="12.25399011778535"><ele>438.0</ele><time>2026-03-29T10:58:57.797Z</time></trkpt><trkpt lat="43.173147789890194" lon="12.253939089320061"><ele>435.79999999999995</ele><time>2026-03-29T10:58:58.797Z</time></trkpt><trkpt lat="43.173230506737056" lon="12.253874345635577"><ele>433.59999999999997</ele><time>2026-03-29T10:58:59.797Z</time></trkpt><trkpt lat="43.1733159295281" lon="12.253824542493932"><ele>431.40000000000003</ele><time>2026-03-29T10:59:00.797Z</time></trkpt><trkpt lat="43.17338649817091" lon="12.253765009390255"><ele>429.20000000000005</ele><time>2026-03-29T10:59:01.797Z</time></trkpt><trkpt lat="43.173465913454365" lon="12.253693343042958"><ele>427.0</ele><time>2026-03-29T10:59:02.797Z</time></trkpt><trkpt lat="43.17357091039905" lon="12.25360201152068"><ele>427.0</ele><time>2026-03-29T10:59:03.797Z</time></trkpt><trkpt lat="43.17366745986885" lon="12.253527522603171"><ele>427.00000000000006</ele><time>2026-03-29T10:59:04.797Z</time></trkpt><trkpt lat="43.17374831643927" lon="12.253426464611026"><ele>427.00000000000006</ele><time>2026-03-29T10:59:05.797Z</time></trkpt><trkpt lat="43.17381994343255" lon="12.253320701315785"><ele>427.0</ele><time>2026-03-29T10:59:06.797Z</time></trkpt><trkpt lat="43.17386354192792" lon="12.253244565904273"><ele>427.0</ele><time>2026-03-29T10:59:07.797Z</time></trkpt><trkpt lat="43.173921312394484" lon="12.25317189722106"><ele>424.50000000000006</ele><time>2026-03-29T10:59:08.796Z</time></trkpt><trkpt lat="43.174018610499026" lon="12.253092394383252"><ele>422.0</ele><time>2026-03-29T10:59:10.796Z</time></trkpt><trkpt lat="43.174078026876714" lon="12.253046806903665"><ele>419.5</ele><time>2026-03-29T10:59:11.796Z</time></trkpt><trkpt lat="43.17413640334369" lon="12.252993769064156"><ele>417.0</ele><time>2026-03-29T10:59:12.796Z</time></trkpt><trkpt lat="43.17420259381632" lon="12.252945637292937"><ele>414.50000000000006</ele><time>2026-03-29T10:59:13.796Z</time></trkpt><trkpt lat="43.17427449846016" lon="12.25288666424685"><ele>412.0</ele><time>2026-03-29T10:59:14.796Z</time></trkpt><trkpt lat="43.17432818196084" lon="12.252833545759376"><ele>412.0</ele><time>2026-03-29T10:59:15.796Z</time></trkpt><trkpt lat="43.174378604400076" lon="12.252757328640945"><ele>412.0</ele><time>2026-03-29T10:59:16.796Z</time></trkpt><trkpt lat="43.1744388346184" lon="12.252646522552276"><ele>412.0</ele><time>2026-03-29T10:59:17.796Z</time></trkpt><trkpt lat="43.174520981498105" lon="12.25251707937852"><ele>412.0</ele><time>2026-03-29T10:59:18.796Z</time></trkpt><trkpt lat="43.174588630005296" lon="12.25241437719315"><ele>412.0</ele><time>2026-03-29T10:59:19.796Z</time></trkpt><trkpt lat="43.1746555333553" lon="12.25232361981836"><ele>409.50000000000006</ele><time>2026-03-29T10:59:20.796Z</time></trkpt><trkpt lat="43.17473101207351" lon="12.252238286572073"><ele>407.0</ele><time>2026-03-29T10:59:21.796Z</time></trkpt><trkpt lat="43.174787741984815" lon="12.252182228582189"><ele>404.5</ele><time>2026-03-29T10:59:22.796Z</time></trkpt><trkpt lat="43.17488971015249" lon="12.252108297305275"><ele>402.0</ele><time>2026-03-29T10:59:24.796Z</time></trkpt><trkpt lat="43.17496206630503" lon="12.252065318095573"><ele>399.50000000000006</ele><time>2026-03-29T10:59:25.796Z</time></trkpt><trkpt lat="43.175038639556874" lon="12.252008717535832"><ele>397.0</ele><time>2026-03-29T10:59:26.796Z</time></trkpt><trkpt lat="43.17510617285825" lon="12.251963501375476"><ele>397.0</ele><time>2026-03-29T10:59:27.796Z</time></trkpt><trkpt lat="43.17517473102746" lon="12.25191622131729"><ele>397.0</ele><time>2026-03-29T10:59:28.796Z</time></trkpt><trkpt lat="43.1752350011953" lon="12.251878652428417"><ele>397.0</ele><time>2026-03-29T10:59:29.796Z</time></trkpt><trkpt lat="43.175302176804976" lon="12.251857447162271"><ele>397.0</ele><time>2026-03-29T10:59:30.796Z</time></trkpt><trkpt lat="43.175366150356936" lon="12.251839751496764"><ele>397.0</ele><time>2026-03-29T10:59:31.796Z</time></trkpt><trkpt lat="43.17543939438802" lon="12.251853344079423"><ele>397.0</ele><time>2026-03-29T10:59:32.796Z</time></trkpt><trkpt lat="43.17550622910808" lon="12.251887129511651"><ele>397.0</ele><time>2026-03-29T10:59:33.796Z</time></trkpt><trkpt lat="43.17557976883598" lon="12.25191054093819"><ele>397.0</ele><time>2026-03-29T10:59:34.796Z</time></trkpt><trkpt lat="43.175661234602906" lon="12.251913001245306"><ele>397.0</ele><time>2026-03-29T10:59:35.796Z</time></trkpt><trkpt lat="43.17575180098561" lon="12.251860815459992"><ele>397.0</ele><time>2026-03-29T10:59:37.796Z</time></trkpt><trkpt lat="43.175759842021066" lon="12.251740252383389"><ele>397.0</ele><time>2026-03-29T10:59:39.796Z</time></trkpt><trkpt lat="43.17565950602226" lon="12.251618361185983"><ele>397.0</ele><time>2026-03-29T10:59:41.795Z</time></trkpt><trkpt lat="43.17560522096361" lon="12.251566376659031"><ele>397.00000000000006</ele><time>2026-03-29T10:59:42.795Z</time></trkpt><trkpt lat="43.17555244846319" lon="12.251491466981912"><ele>397.0</ele><time>2026-03-29T10:59:43.795Z</time></trkpt><trkpt lat="43.175517096420585" lon="12.251394571117405"><ele>397.0</ele><time>2026-03-29T10:59:44.795Z</time></trkpt><trkpt lat="43.17546644248949" lon="12.251315944180059"><ele>397.0</ele><time>2026-03-29T10:59:46.795Z</time></trkpt><trkpt lat="43.17538078380368" lon="12.251243422906954"><ele>397.00000000000006</ele><time>2026-03-29T10:59:48.795Z</time></trkpt><trkpt lat="43.17531711690687" lon="12.251155271241034"><ele>397.0</ele><time>2026-03-29T10:59:50.795Z</time></trkpt><trkpt lat="43.17537869377662" lon="12.251045922293878"><ele>392.40000000000003</ele><time>2026-03-29T10:59:52.795Z</time></trkpt><trkpt lat="43.175447893835354" lon="12.251015529760826"><ele>387.8</ele><time>2026-03-29T10:59:53.795Z</time></trkpt><trkpt lat="43.17557707441582" lon="12.250946421369513"><ele>383.2</ele><time>2026-03-29T10:59:55.795Z</time></trkpt><trkpt lat="43.17565129892447" lon="12.250905766506296"><ele>378.6</ele><time>2026-03-29T10:59:56.795Z</time></trkpt><trkpt lat="43.17572686494916" lon="12.25084344206999"><ele>374.0</ele><time>2026-03-29T10:59:57.795Z</time></trkpt><trkpt lat="43.17579558450246" lon="12.250799551365212"><ele>374.0</ele><time>2026-03-29T10:59:58.795Z</time></trkpt><trkpt lat="43.17586961991351" lon="12.250758093974062"><ele>374.0</ele><time>2026-03-29T10:59:59.795Z</time></trkpt><trkpt lat="43.17593704312102" lon="12.250736568493396"><ele>374.0</ele><time>2026-03-29T11:00:00.795Z</time></trkpt><trkpt lat="43.176002494298494" lon="12.250714473635258"><ele>374.0</ele><time>2026-03-29T11:00:01.795Z</time></trkpt><trkpt lat="43.1761038676839" lon="12.250697886914693"><ele>374.0</ele><time>2026-03-29T11:00:03.795Z</time></trkpt><trkpt lat="43.17616683328749" lon="12.250715986003273"><ele>374.0</ele><time>2026-03-29T11:00:04.795Z</time></trkpt><trkpt lat="43.176232833430824" lon="12.250731540071943"><ele>374.0</ele><time>2026-03-29T11:00:05.795Z</time></trkpt><trkpt lat="43.176295499044016" lon="12.250739839798767"><ele>374.0</ele><time>2026-03-29T11:00:06.795Z</time></trkpt><trkpt lat="43.176370225011894" lon="12.250696468222694"><ele>374.0</ele><time>2026-03-29T11:00:08.795Z</time></trkpt><trkpt lat="43.17640158792495" lon="12.250516303783652"><ele>374.0</ele><time>2026-03-29T11:00:10.795Z</time></trkpt><trkpt lat="43.17639762987993" lon="12.250411386847603"><ele>374.0</ele><time>2026-03-29T11:00:11.794Z</time></trkpt><trkpt lat="43.176401980779936" lon="12.250307401484879"><ele>374.0</ele><time>2026-03-29T11:00:12.794Z</time></trkpt><trkpt lat="43.17642146139868" lon="12.250175973898438"><ele>370.83333333333337</ele><time>2026-03-29T11:00:13.794Z</time></trkpt><trkpt lat="43.17644599834916" lon="12.250046468050046"><ele>367.6666666666667</ele><time>2026-03-29T11:00:14.794Z</time></trkpt><trkpt lat="43.17646102725552" lon="12.24992436811824"><ele>364.5</ele><time>2026-03-29T11:00:15.794Z</time></trkpt><trkpt lat="43.176477336919376" lon="12.249840955429743"><ele>361.3333333333333</ele><time>2026-03-29T11:00:16.794Z</time></trkpt><trkpt lat="43.17648722805" lon="12.249699766236859"><ele>358.16666666666663</ele><time>2026-03-29T11:00:18.794Z</time></trkpt><trkpt lat="43.17648515080577" lon="12.249592239880316"><ele>355.0</ele><time>2026-03-29T11:00:19.794Z</time></trkpt><trkpt lat="43.17647482418074" lon="12.249467555453359"><ele>352.0</ele><time>2026-03-29T11:00:20.794Z</time></trkpt><trkpt lat="43.176471978053534" lon="12.249368696469999"><ele>349.0</ele><time>2026-03-29T11:00:21.794Z</time></trkpt><trkpt lat="43.17644857572772" lon="12.249211859947236"><ele>346.0</ele><time>2026-03-29T11:00:23.794Z</time></trkpt><trkpt lat="43.176438450665735" lon="12.249124991327356"><ele>343.0</ele><time>2026-03-29T11:00:24.794Z</time></trkpt><trkpt lat="43.17644700908405" lon="12.249020420439486"><ele>340.0</ele><time>2026-03-29T11:00:25.794Z</time></trkpt><trkpt lat="43.17645786154742" lon="12.248893025342907"><ele>337.0</ele><time>2026-03-29T11:00:26.794Z</time></trkpt><trkpt lat="43.17646713874006" lon="12.248739569681478"><ele>335.66666666666663</ele><time>2026-03-29T11:00:27.794Z</time></trkpt><trkpt lat="43.176470104911836" lon="12.248602785731178"><ele>334.3333333333333</ele><time>2026-03-29T11:00:28.794Z</time></trkpt><trkpt lat="43.17647257618544" lon="12.2484780127172"><ele>333.0</ele><time>2026-03-29T11:00:29.794Z</time></trkpt><trkpt lat="43.176474737593075" lon="12.248366041651119"><ele>331.6666666666667</ele><time>2026-03-29T11:00:30.794Z</time></trkpt><trkpt lat="43.176474971216585" lon="12.248251807826538"><ele>330.33333333333337</ele><time>2026-03-29T11:00:31.794Z</time></trkpt><trkpt lat="43.17646980911942" lon="12.248150194858487"><ele>329.0</ele><time>2026-03-29T11:00:32.794Z</time></trkpt><trkpt lat="43.17646781716668" lon="12.248052536923248"><ele>330.14285714285717</ele><time>2026-03-29T11:00:33.794Z</time></trkpt><trkpt lat="43.17646486857391" lon="12.24795929583278"><ele>331.2857142857143</ele><time>2026-03-29T11:00:34.796Z</time></trkpt><trkpt lat="43.17646231716767" lon="12.247858161974957"><ele>332.42857142857144</ele><time>2026-03-29T11:00:35.796Z</time></trkpt><trkpt lat="43.176457566133024" lon="12.247769528315883"><ele>333.57142857142856</ele><time>2026-03-29T11:00:36.796Z</time></trkpt><trkpt lat="43.17644348534453" lon="12.247678119639021"><ele>334.7142857142857</ele><time>2026-03-29T11:00:37.796Z</time></trkpt><trkpt lat="43.176436926753055" lon="12.247583360644589"><ele>335.8571428571429</ele><time>2026-03-29T11:00:38.797Z</time></trkpt><trkpt lat="43.1764454906868" lon="12.24749593641637"><ele>337.0</ele><time>2026-03-29T11:00:39.796Z</time></trkpt><trkpt lat="43.17652127997504" lon="12.247368253683513"><ele>333.8</ele><time>2026-03-29T11:00:41.796Z</time></trkpt><trkpt lat="43.176587317611606" lon="12.247259825658794"><ele>330.6</ele><time>2026-03-29T11:00:43.796Z</time></trkpt><trkpt lat="43.176575397002516" lon="12.247129611642967"><ele>327.40000000000003</ele><time>2026-03-29T11:00:45.796Z</time></trkpt><trkpt lat="43.176462039838995" lon="12.247112250061038"><ele>324.20000000000005</ele><time>2026-03-29T11:00:47.795Z</time></trkpt><trkpt lat="43.176355124030906" lon="12.247172914326168"><ele>321.0</ele><time>2026-03-29T11:00:49.795Z</time></trkpt><trkpt lat="43.17632569653145" lon="12.247306283808808"><ele>320.8</ele><time>2026-03-29T11:00:51.795Z</time></trkpt><trkpt lat="43.176273692380725" lon="12.247445809895819"><ele>320.6</ele><time>2026-03-29T11:00:53.795Z</time></trkpt><trkpt lat="43.176223161040674" lon="12.247524472218972"><ele>320.4</ele><time>2026-03-29T11:00:54.795Z</time></trkpt><trkpt lat="43.17618118459844" lon="12.247608527995363"><ele>320.2</ele><time>2026-03-29T11:00:55.795Z</time></trkpt><trkpt lat="43.17614339535353" lon="12.247685699310791"><ele>320.0</ele><time>2026-03-29T11:00:56.795Z</time></trkpt><trkpt lat="43.17607623122237" lon="12.247835720924312"><ele>320.0</ele><time>2026-03-29T11:00:58.795Z</time></trkpt><trkpt lat="43.17604063479318" lon="12.247929471007708"><ele>320.0</ele><time>2026-03-29T11:00:59.795Z</time></trkpt><trkpt lat="43.1760088935869" lon="12.248013964662903"><ele>320.0</ele><time>2026-03-29T11:01:00.795Z</time></trkpt><trkpt lat="43.1759769826174" lon="12.248088844353546"><ele>320.0</ele><time>2026-03-29T11:01:01.795Z</time></trkpt><trkpt lat="43.175919145933" lon="12.248225268774187"><ele>320.0</ele><time>2026-03-29T11:01:03.795Z</time></trkpt><trkpt lat="43.17585911819238" lon="12.248168266168337"><ele>320.0</ele><time>2026-03-29T11:01:08.795Z</time></trkpt><trkpt lat="43.1758670829313" lon="12.248032726645734"><ele>320.0</ele><time>2026-03-29T11:01:10.798Z</time></trkpt><trkpt lat="43.175863978009254" lon="12.24793476884912"><ele>320.0</ele><time>2026-03-29T11:01:11.8Z</time></trkpt><trkpt lat="43.175871013968305" lon="12.247790376436862"><ele>320.0</ele><time>2026-03-29T11:01:13.804Z</time></trkpt><trkpt lat="43.175861292972506" lon="12.247700347696886"><ele>320.0</ele><time>2026-03-29T11:01:14.806Z</time></trkpt><trkpt lat="43.17584122096883" lon="12.247608369583611"><ele>320.0</ele><time>2026-03-29T11:01:15.807Z</time></trkpt><trkpt lat="43.17582598685213" lon="12.247513982563706"><ele>320.0</ele><time>2026-03-29T11:01:16.809Z</time></trkpt><trkpt lat="43.1758107287259" lon="12.247343985059532"><ele>318.57142857142856</ele><time>2026-03-29T11:01:18.812Z</time></trkpt><trkpt lat="43.17580410519448" lon="12.247257014512208"><ele>317.14285714285717</ele><time>2026-03-29T11:01:19.813Z</time></trkpt><trkpt lat="43.17579274066186" lon="12.247167243218406"><ele>315.7142857142857</ele><time>2026-03-29T11:01:20.814Z</time></trkpt><trkpt lat="43.17580652066533" lon="12.247082072911377"><ele>314.2857142857143</ele><time>2026-03-29T11:01:21.815Z</time></trkpt><trkpt lat="43.175846354218685" lon="12.24698647256586"><ele>312.85714285714283</ele><time>2026-03-29T11:01:22.816Z</time></trkpt><trkpt lat="43.17589363125647" lon="12.246887711041861"><ele>311.42857142857144</ele><time>2026-03-29T11:01:23.817Z</time></trkpt><trkpt lat="43.1759165841207" lon="12.246788490040695"><ele>310.0</ele><time>2026-03-29T11:01:24.818Z</time></trkpt><trkpt lat="43.17592380501072" lon="12.246685819744432"><ele>310.0</ele><time>2026-03-29T11:01:25.819Z</time></trkpt><trkpt lat="43.17593083264227" lon="12.24658690977202"><ele>310.0</ele><time>2026-03-29T11:01:26.82Z</time></trkpt><trkpt lat="43.175944344520026" lon="12.246491368224374"><ele>310.0</ele><time>2026-03-29T11:01:27.82Z</time></trkpt><trkpt lat="43.17601520153676" lon="12.24634530490179"><ele>310.0</ele><time>2026-03-29T11:01:29.822Z</time></trkpt><trkpt lat="43.17604156026451" lon="12.246192040929431"><ele>310.0</ele><time>2026-03-29T11:01:31.823Z</time></trkpt><trkpt lat="43.176020749668005" lon="12.246076776148849"><ele>308.75</ele><time>2026-03-29T11:01:32.824Z</time></trkpt><trkpt lat="43.17600621739335" lon="12.245977664653534"><ele>307.5</ele><time>2026-03-29T11:01:33.824Z</time></trkpt><trkpt lat="43.17606769043459" lon="12.245838415409178"><ele>306.25</ele><time>2026-03-29T11:01:35.825Z</time></trkpt><trkpt lat="43.17615374210786" lon="12.245709143525952"><ele>305.0</ele><time>2026-03-29T11:01:36.825Z</time></trkpt><trkpt lat="43.17623683492737" lon="12.245561668418468"><ele>305.0</ele><time>2026-03-29T11:01:37.826Z</time></trkpt><trkpt lat="43.176327180156264" lon="12.245415657530904"><ele>305.0</ele><time>2026-03-29T11:01:38.826Z</time></trkpt><trkpt lat="43.17640921563713" lon="12.24529028842069"><ele>305.0</ele><time>2026-03-29T11:01:39.826Z</time></trkpt><trkpt lat="43.17647877357611" lon="12.24515781297981"><ele>305.0</ele><time>2026-03-29T11:01:40.827Z</time></trkpt><trkpt lat="43.176536633552026" lon="12.245050346638168"><ele>303.0</ele><time>2026-03-29T11:01:41.827Z</time></trkpt><trkpt lat="43.176600504071985" lon="12.244954155394131"><ele>301.0</ele><time>2026-03-29T11:01:42.827Z</time></trkpt><trkpt lat="43.176646314867654" lon="12.244894906800946"><ele>299.0</ele><time>2026-03-29T11:01:43.828Z</time></trkpt><trkpt lat="43.17668855103594" lon="12.244814823210046"><ele>297.0</ele><time>2026-03-29T11:01:44.828Z</time></trkpt><trkpt lat="43.17673022787407" lon="12.244696557168872"><ele>295.0</ele><time>2026-03-29T11:01:45.828Z</time></trkpt><trkpt lat="43.176747750926275" lon="12.244569826377749"><ele>293.0</ele><time>2026-03-29T11:01:46.828Z</time></trkpt><trkpt lat="43.17674382333761" lon="12.244421740443162"><ele>292.4</ele><time>2026-03-29T11:01:47.828Z</time></trkpt><trkpt lat="43.17672498555861" lon="12.244288764897417"><ele>291.8</ele><time>2026-03-29T11:01:48.829Z</time></trkpt><trkpt lat="43.17671363036562" lon="12.24415741395689"><ele>291.2</ele><time>2026-03-29T11:01:49.829Z</time></trkpt><trkpt lat="43.17671140876812" lon="12.244050024331198"><ele>290.6</ele><time>2026-03-29T11:01:50.829Z</time></trkpt><trkpt lat="43.17673056084916" lon="12.243895219924276"><ele>290.0</ele><time>2026-03-29T11:01:52.829Z</time></trkpt><trkpt lat="43.17674505529551" lon="12.243764574512952"><ele>289.75</ele><time>2026-03-29T11:01:54.829Z</time></trkpt><trkpt lat="43.1766992750053" lon="12.243609240725275"><ele>289.5</ele><time>2026-03-29T11:01:56.83Z</time></trkpt><trkpt lat="43.176624971501845" lon="12.24348094038363"><ele>289.25</ele><time>2026-03-29T11:01:58.83Z</time></trkpt><trkpt lat="43.17653271199181" lon="12.243351322949254"><ele>289.0</ele><time>2026-03-29T11:02:00.83Z</time></trkpt><trkpt lat="43.1764674957229" lon="12.243280618826711"><ele>289.0</ele><time>2026-03-29T11:02:01.83Z</time></trkpt><trkpt lat="43.17640726112405" lon="12.243193957322454"><ele>289.0</ele><time>2026-03-29T11:02:02.83Z</time></trkpt><trkpt lat="43.17634616875665" lon="12.243113272298343"><ele>289.0</ele><time>2026-03-29T11:02:03.83Z</time></trkpt><trkpt lat="43.176316422454455" lon="12.243020913898764"><ele>289.0</ele><time>2026-03-29T11:02:04.83Z</time></trkpt><trkpt lat="43.176306359420224" lon="12.242899451974738"><ele>289.0</ele><time>2026-03-29T11:02:05.83Z</time></trkpt><trkpt lat="43.176308855955945" lon="12.242773578514353"><ele>289.0</ele><time>2026-03-29T11:02:06.83Z</time></trkpt><trkpt lat="43.17628913243357" lon="12.242653579832137"><ele>288.59999999999997</ele><time>2026-03-29T11:02:07.83Z</time></trkpt><trkpt lat="43.17627419577346" lon="12.242522878167776"><ele>288.2</ele><time>2026-03-29T11:02:08.83Z</time></trkpt><trkpt lat="43.176240447957824" lon="12.242391293022708"><ele>287.79999999999995</ele><time>2026-03-29T11:02:09.83Z</time></trkpt><trkpt lat="43.17620039189912" lon="12.242281953393297"><ele>287.4</ele><time>2026-03-29T11:02:10.83Z</time></trkpt><trkpt lat="43.17616281761877" lon="12.242129637321623"><ele>287.0</ele><time>2026-03-29T11:02:11.83Z</time></trkpt><trkpt lat="43.17609652321522" lon="12.241979076615731"><ele>286.75</ele><time>2026-03-29T11:02:12.83Z</time></trkpt><trkpt lat="43.175989787990325" lon="12.241857168715438"><ele>286.5</ele><time>2026-03-29T11:02:13.83Z</time></trkpt><trkpt lat="43.17593432025548" lon="12.241700076395343"><ele>286.25</ele><time>2026-03-29T11:02:14.83Z</time></trkpt><trkpt lat="43.17588250263724" lon="12.241537949588217"><ele>286.0</ele><time>2026-03-29T11:02:15.83Z</time></trkpt><trkpt lat="43.17583661117287" lon="12.24138576411144"><ele>286.25</ele><time>2026-03-29T11:02:16.83Z</time></trkpt><trkpt lat="43.17579228890621" lon="12.24123595345288"><ele>286.5</ele><time>2026-03-29T11:02:17.83Z</time></trkpt><trkpt lat="43.17575191244543" lon="12.241096897714351"><ele>286.75</ele><time>2026-03-29T11:02:18.83Z</time></trkpt><trkpt lat="43.1757060125136" lon="12.24093881923172"><ele>287.0</ele><time>2026-03-29T11:02:19.83Z</time></trkpt><trkpt lat="43.1756612547917" lon="12.24078403461287"><ele>287.0</ele><time>2026-03-29T11:02:20.83Z</time></trkpt><trkpt lat="43.1756193378829" lon="12.240635082286978"><ele>287.0</ele><time>2026-03-29T11:02:21.83Z</time></trkpt><trkpt lat="43.175580218626855" lon="12.24049209386034"><ele>287.0</ele><time>2026-03-29T11:02:22.83Z</time></trkpt><trkpt lat="43.1755396359974" lon="12.240339596404182"><ele>287.0</ele><time>2026-03-29T11:02:23.83Z</time></trkpt><trkpt lat="43.17550359586173" lon="12.240175349457147"><ele>286.25</ele><time>2026-03-29T11:02:24.83Z</time></trkpt><trkpt lat="43.17547847563701" lon="12.24000619691272"><ele>285.5</ele><time>2026-03-29T11:02:25.83Z</time></trkpt><trkpt lat="43.175458871934374" lon="12.239845993638925"><ele>284.75</ele><time>2026-03-29T11:02:26.83Z</time></trkpt><trkpt lat="43.17543962825091" lon="12.239686608073736"><ele>284.0</ele><time>2026-03-29T11:02:27.83Z</time></trkpt><trkpt lat="43.17542987026736" lon="12.239525658560185"><ele>283.75</ele><time>2026-03-29T11:02:28.83Z</time></trkpt><trkpt lat="43.17539657976308" lon="12.23937487058277"><ele>283.5</ele><time>2026-03-29T11:02:29.83Z</time></trkpt><trkpt lat="43.1753590642852" lon="12.239227570354926"><ele>283.25</ele><time>2026-03-29T11:02:30.83Z</time></trkpt><trkpt lat="43.17532104035035" lon="12.239082131639522"><ele>283.0</ele><time>2026-03-29T11:02:31.83Z</time></trkpt><trkpt lat="43.17528561351636" lon="12.23893236489096"><ele>282.75</ele><time>2026-03-29T11:02:32.83Z</time></trkpt><trkpt lat="43.175248469252594" lon="12.238782497220475"><ele>282.5</ele><time>2026-03-29T11:02:33.83Z</time></trkpt><trkpt lat="43.175208405743156" lon="12.238634134000879"><ele>282.25</ele><time>2026-03-29T11:02:34.83Z</time></trkpt><trkpt lat="43.17517028372938" lon="12.23848721736071"><ele>282.0</ele><time>2026-03-29T11:02:35.83Z</time></trkpt><trkpt lat="43.17513803978848" lon="12.238340686016052"><ele>282.0</ele><time>2026-03-29T11:02:36.83Z</time></trkpt><trkpt lat="43.1750912395409" lon="12.238200673726224"><ele>282.0</ele><time>2026-03-29T11:02:37.83Z</time></trkpt><trkpt lat="43.17506467268337" lon="12.238035869720699"><ele>282.0</ele><time>2026-03-29T11:02:38.83Z</time></trkpt><trkpt lat="43.175050775090966" lon="12.237866838473677"><ele>282.0</ele><time>2026-03-29T11:02:39.83Z</time></trkpt><trkpt lat="43.17505453767013" lon="12.23770018057784"><ele>283.0</ele><time>2026-03-29T11:02:40.833Z</time></trkpt><trkpt lat="43.17502983220335" lon="12.23752487517103"><ele>284.0</ele><time>2026-03-29T11:02:41.833Z</time></trkpt><trkpt lat="43.17498861884322" lon="12.237354506697557"><ele>285.0</ele><time>2026-03-29T11:02:42.833Z</time></trkpt><trkpt lat="43.17493016730251" lon="12.237195877064861"><ele>286.0</ele><time>2026-03-29T11:02:43.833Z</time></trkpt><trkpt lat="43.17486525725093" lon="12.23703164652837"><ele>284.75</ele><time>2026-03-29T11:02:44.833Z</time></trkpt><trkpt lat="43.17479793536187" lon="12.236875715693442"><ele>283.5</ele><time>2026-03-29T11:02:45.833Z</time></trkpt><trkpt lat="43.174725655588624" lon="12.236736959267848"><ele>282.25</ele><time>2026-03-29T11:02:46.833Z</time></trkpt><trkpt lat="43.17467135154782" lon="12.236598043895475"><ele>281.0</ele><time>2026-03-29T11:02:47.833Z</time></trkpt><trkpt lat="43.17460707362071" lon="12.236501221769378"><ele>281.0</ele><time>2026-03-29T11:02:48.833Z</time></trkpt><trkpt lat="43.174531302973335" lon="12.236399494187944"><ele>281.0</ele><time>2026-03-29T11:02:50.833Z</time></trkpt><trkpt lat="43.174348049942466" lon="12.236437541589542"><ele>281.0</ele><time>2026-03-29T11:02:52.833Z</time></trkpt><trkpt lat="43.17426812142117" lon="12.236519551485333"><ele>281.0</ele><time>2026-03-29T11:02:53.833Z</time></trkpt><trkpt lat="43.1741759937832" lon="12.236611781086758"><ele>281.0</ele><time>2026-03-29T11:02:54.833Z</time></trkpt><trkpt lat="43.17409043257508" lon="12.23670898182529"><ele>281.0</ele><time>2026-03-29T11:02:55.833Z</time></trkpt><trkpt lat="43.17399608485912" lon="12.236808217645557"><ele>281.0</ele><time>2026-03-29T11:02:56.833Z</time></trkpt><trkpt lat="43.173911241964156" lon="12.236856510700187"><ele>281.0</ele><time>2026-03-29T11:02:57.833Z</time></trkpt><trkpt lat="43.17384266028958" lon="12.23690912804765"><ele>281.0</ele><time>2026-03-29T11:02:58.833Z</time></trkpt><trkpt lat="43.17377381001112" lon="12.236961951499033"><ele>280.5</ele><time>2026-03-29T11:02:59.833Z</time></trkpt><trkpt lat="43.17371081482417" lon="12.237013502981007"><ele>280.0</ele><time>2026-03-29T11:03:00.833Z</time></trkpt><trkpt lat="43.17365654140935" lon="12.237066835857673"><ele>279.5</ele><time>2026-03-29T11:03:02.833Z</time></trkpt><trkpt lat="43.17357983979296" lon="12.237159818124807"><ele>279.0</ele><time>2026-03-29T11:03:04.833Z</time></trkpt><trkpt lat="43.173522981888304" lon="12.237254039863547"><ele>278.5</ele><time>2026-03-29T11:03:05.833Z</time></trkpt><trkpt lat="43.17351094848145" lon="12.237357032458057"><ele>278.0</ele><time>2026-03-29T11:03:06.833Z</time></trkpt><trkpt lat="43.17352859652731" lon="12.237448495061521"><ele>277.83333333333337</ele><time>2026-03-29T11:03:07.833Z</time></trkpt><trkpt lat="43.17358647538706" lon="12.237514476248071"><ele>277.6666666666667</ele><time>2026-03-29T11:03:09.833Z</time></trkpt><trkpt lat="43.1735166915335" lon="12.237600474192067"><ele>277.5</ele><time>2026-03-29T11:03:11.832Z</time></trkpt><trkpt lat="43.173447418993895" lon="12.23764853800908"><ele>277.3333333333333</ele><time>2026-03-29T11:03:12.832Z</time></trkpt><trkpt lat="43.17336813356994" lon="12.237702190996309"><ele>277.16666666666663</ele><time>2026-03-29T11:03:13.832Z</time></trkpt><trkpt lat="43.17327803202762" lon="12.237744577770513"><ele>277.0</ele><time>2026-03-29T11:03:14.832Z</time></trkpt><trkpt lat="43.173192316467194" lon="12.237773623757116"><ele>276.66666666666663</ele><time>2026-03-29T11:03:15.832Z</time></trkpt><trkpt lat="43.17311072156493" lon="12.237815758584732"><ele>276.3333333333333</ele><time>2026-03-29T11:03:16.832Z</time></trkpt><trkpt lat="43.173027920003186" lon="12.237867077289561"><ele>276.0</ele><time>2026-03-29T11:03:17.832Z</time></trkpt><trkpt lat="43.17295908378416" lon="12.23791106585213"><ele>275.6666666666667</ele><time>2026-03-29T11:03:18.832Z</time></trkpt><trkpt lat="43.1729075004335" lon="12.237963173234803"><ele>275.33333333333337</ele><time>2026-03-29T11:03:19.832Z</time></trkpt><trkpt lat="43.17284981260025" lon="12.23803943209735"><ele>275.0</ele><time>2026-03-29T11:03:20.832Z</time></trkpt><trkpt lat="43.17277345323334" lon="12.238181281960834"><ele>276.25</ele><time>2026-03-29T11:03:21.832Z</time></trkpt><trkpt lat="43.17267998514253" lon="12.238328276382564"><ele>277.5</ele><time>2026-03-29T11:03:22.832Z</time></trkpt><trkpt lat="43.17259450206727" lon="12.238456716902846"><ele>278.75</ele><time>2026-03-29T11:03:23.832Z</time></trkpt><trkpt lat="43.172509161118725" lon="12.238553727535292"><ele>280.0</ele><time>2026-03-29T11:03:24.832Z</time></trkpt><trkpt lat="43.17243593685669" lon="12.238611427146981"><ele>280.0</ele><time>2026-03-29T11:03:25.832Z</time></trkpt><trkpt lat="43.172384120981334" lon="12.238692163664378"><ele>280.0</ele><time>2026-03-29T11:03:27.832Z</time></trkpt><trkpt lat="43.172364344299524" lon="12.238794149853547"><ele>280.0</ele><time>2026-03-29T11:03:28.832Z</time></trkpt><trkpt lat="43.17232389639737" lon="12.238917207166056"><ele>280.0</ele><time>2026-03-29T11:03:29.832Z</time></trkpt><trkpt lat="43.17228430242463" lon="12.23903812695779"><ele>280.0</ele><time>2026-03-29T11:03:30.832Z</time></trkpt><trkpt lat="43.17222655837379" lon="12.239159939354062"><ele>281.66666666666663</ele><time>2026-03-29T11:03:31.832Z</time></trkpt><trkpt lat="43.172156981981395" lon="12.239267990528846"><ele>283.3333333333333</ele><time>2026-03-29T11:03:32.832Z</time></trkpt><trkpt lat="43.172091751958575" lon="12.239372373920105"><ele>285.0</ele><time>2026-03-29T11:03:33.832Z</time></trkpt><trkpt lat="43.172052885515804" lon="12.23944835225166"><ele>286.6666666666667</ele><time>2026-03-29T11:03:34.832Z</time></trkpt><trkpt lat="43.172039556740316" lon="12.239537895700183"><ele>288.33333333333337</ele><time>2026-03-29T11:03:35.832Z</time></trkpt><trkpt lat="43.17202235962838" lon="12.239638537293073"><ele>290.0</ele><time>2026-03-29T11:03:36.832Z</time></trkpt><trkpt lat="43.171964226460354" lon="12.2397275452062"><ele>290.8</ele><time>2026-03-29T11:03:37.832Z</time></trkpt><trkpt lat="43.17189706773539" lon="12.239811768974047"><ele>291.6</ele><time>2026-03-29T11:03:38.832Z</time></trkpt><trkpt lat="43.17180498551884" lon="12.239902900779938"><ele>292.4</ele><time>2026-03-29T11:03:39.832Z</time></trkpt><trkpt lat="43.17170690964529" lon="12.239991690671708"><ele>293.2</ele><time>2026-03-29T11:03:40.832Z</time></trkpt><trkpt lat="43.17162485620853" lon="12.240075054682755"><ele>294.0</ele><time>2026-03-29T11:03:41.832Z</time></trkpt><trkpt lat="43.17155493514103" lon="12.240162067023011"><ele>294.0</ele><time>2026-03-29T11:03:42.832Z</time></trkpt><trkpt lat="43.17152165051811" lon="12.240249753000878"><ele>294.0</ele><time>2026-03-29T11:03:43.832Z</time></trkpt><trkpt lat="43.171553899618075" lon="12.240397511510881"><ele>294.0</ele><time>2026-03-29T11:03:45.832Z</time></trkpt><trkpt lat="43.17159373125768" lon="12.240487546653846"><ele>294.0</ele><time>2026-03-29T11:03:46.832Z</time></trkpt><trkpt lat="43.17164929815097" lon="12.240593049566407"><ele>294.0</ele><time>2026-03-29T11:03:47.832Z</time></trkpt><trkpt lat="43.17172126615655" lon="12.24071448221266"><ele>296.4</ele><time>2026-03-29T11:03:48.832Z</time></trkpt><trkpt lat="43.17179627535755" lon="12.240840880939967"><ele>298.79999999999995</ele><time>2026-03-29T11:03:49.832Z</time></trkpt><trkpt lat="43.17187234038572" lon="12.240970337087607"><ele>301.20000000000005</ele><time>2026-03-29T11:03:50.831Z</time></trkpt><trkpt lat="43.17191722304227" lon="12.241060200845507"><ele>303.6</ele><time>2026-03-29T11:03:51.831Z</time></trkpt><trkpt lat="43.17198225282985" lon="12.241169281450846"><ele>306.0</ele><time>2026-03-29T11:03:52.831Z</time></trkpt><trkpt lat="43.172057419023865" lon="12.241278472484616"><ele>306.0</ele><time>2026-03-29T11:03:53.831Z</time></trkpt><trkpt lat="43.172111881807005" lon="12.241365062724343"><ele>306.0</ele><time>2026-03-29T11:03:54.831Z</time></trkpt><trkpt lat="43.17215185181462" lon="12.24143475522981"><ele>306.0</ele><time>2026-03-29T11:03:55.831Z</time></trkpt><trkpt lat="43.172171546275464" lon="12.241528917039625"><ele>306.0</ele><time>2026-03-29T11:03:56.831Z</time></trkpt><trkpt lat="43.1721716591177" lon="12.24163473774742"><ele>306.0</ele><time>2026-03-29T11:03:57.831Z</time></trkpt><trkpt lat="43.17214167049693" lon="12.241753426504438"><ele>306.0</ele><time>2026-03-29T11:03:58.831Z</time></trkpt><trkpt lat="43.17211535025688" lon="12.241877618263084"><ele>308.1666666666667</ele><time>2026-03-29T11:03:59.831Z</time></trkpt><trkpt lat="43.172090220450755" lon="12.241978663469117"><ele>310.3333333333333</ele><time>2026-03-29T11:04:00.831Z</time></trkpt><trkpt lat="43.1720591693957" lon="12.242104354410353"><ele>312.5</ele><time>2026-03-29T11:04:01.831Z</time></trkpt><trkpt lat="43.17205179640143" lon="12.24224164424322"><ele>314.66666666666663</ele><time>2026-03-29T11:04:02.831Z</time></trkpt><trkpt lat="43.172055294084956" lon="12.242357530408054"><ele>316.8333333333333</ele><time>2026-03-29T11:04:03.831Z</time></trkpt><trkpt lat="43.17202034866365" lon="12.242461369528964"><ele>319.0</ele><time>2026-03-29T11:04:05.831Z</time></trkpt><trkpt lat="43.17196573550435" lon="12.242589354868299"><ele>322.0</ele><time>2026-03-29T11:04:07.831Z</time></trkpt><trkpt lat="43.171904781755785" lon="12.242670563995802"><ele>325.0</ele><time>2026-03-29T11:04:10.831Z</time></trkpt><trkpt lat="43.17184978531274" lon="12.242801039949592"><ele>328.0</ele><time>2026-03-29T11:04:12.831Z</time></trkpt><trkpt lat="43.17184623219493" lon="12.242986580758878"><ele>331.0</ele><time>2026-03-29T11:04:14.831Z</time></trkpt><trkpt lat="43.17185495219234" lon="12.243092684145935"><ele>334.0</ele><time>2026-03-29T11:04:15.831Z</time></trkpt><trkpt lat="43.17187129322912" lon="12.243204353487721"><ele>336.6</ele><time>2026-03-29T11:04:16.831Z</time></trkpt><trkpt lat="43.17188383343503" lon="12.243306639742515"><ele>339.2</ele><time>2026-03-29T11:04:17.831Z</time></trkpt><trkpt lat="43.17190181911016" lon="12.24343299092743"><ele>341.8</ele><time>2026-03-29T11:04:18.831Z</time></trkpt><trkpt lat="43.171922992799345" lon="12.243563941662988"><ele>344.40000000000003</ele><time>2026-03-29T11:04:19.831Z</time></trkpt><trkpt lat="43.17193671477318" lon="12.243652617325633"><ele>347.0</ele><time>2026-03-29T11:04:20.831Z</time></trkpt><trkpt lat="43.172023113241764" lon="12.243772115445376"><ele>347.0</ele><time>2026-03-29T11:04:22.831Z</time></trkpt><trkpt lat="43.17211276759371" lon="12.243813666235823"><ele>347.0</ele><time>2026-03-29T11:04:24.831Z</time></trkpt><trkpt lat="43.17217108598116" lon="12.243874953938441"><ele>347.0</ele><time>2026-03-29T11:04:28.831Z</time></trkpt><trkpt lat="43.17223161701056" lon="12.243974888022352"><ele>347.0</ele><time>2026-03-29T11:04:32.83Z</time></trkpt><trkpt lat="43.17221144198836" lon="12.244096856240603"><ele>347.0</ele><time>2026-03-29T11:04:35.83Z</time></trkpt><trkpt lat="43.172171258299095" lon="12.244204153568793"><ele>347.0</ele><time>2026-03-29T11:04:37.83Z</time></trkpt><trkpt lat="43.172130263643965" lon="12.244317327709663"><ele>349.40000000000003</ele><time>2026-03-29T11:04:39.83Z</time></trkpt><trkpt lat="43.17210124272251" lon="12.244485173973123"><ele>351.8</ele><time>2026-03-29T11:04:41.83Z</time></trkpt><trkpt lat="43.17208946594574" lon="12.244614927154322"><ele>354.2</ele><time>2026-03-29T11:04:42.83Z</time></trkpt><trkpt lat="43.17207117964698" lon="12.244744739018184"><ele>356.6</ele><time>2026-03-29T11:04:43.83Z</time></trkpt><trkpt lat="43.17207451132225" lon="12.244907380581589"><ele>359.0</ele><time>2026-03-29T11:04:45.832Z</time></trkpt><trkpt lat="43.17211707989893" lon="12.245007359864054"><ele>362.2</ele><time>2026-03-29T11:04:47.832Z</time></trkpt><trkpt lat="43.17221426647028" lon="12.245115772452115"><ele>365.4</ele><time>2026-03-29T11:04:49.831Z</time></trkpt><trkpt lat="43.17225818453295" lon="12.245192865809928"><ele>368.6</ele><time>2026-03-29T11:04:50.831Z</time></trkpt><trkpt lat="43.17226083819987" lon="12.24531106481873"><ele>371.8</ele><time>2026-03-29T11:04:52.832Z</time></trkpt><trkpt lat="43.17221065503013" lon="12.245428761519324"><ele>375.0</ele><time>2026-03-29T11:04:54.832Z</time></trkpt><trkpt lat="43.17215601650718" lon="12.245555633897252"><ele>375.6</ele><time>2026-03-29T11:04:56.832Z</time></trkpt><trkpt lat="43.17215549213442" lon="12.24570579661785"><ele>376.2</ele><time>2026-03-29T11:04:58.831Z</time></trkpt><trkpt lat="43.172210354894084" lon="12.245794075362408"><ele>376.79999999999995</ele><time>2026-03-29T11:05:01.831Z</time></trkpt><trkpt lat="43.172297782686236" lon="12.245835254723263"><ele>377.4</ele><time>2026-03-29T11:05:03.831Z</time></trkpt><trkpt lat="43.17241164431117" lon="12.245887406803561"><ele>378.0</ele><time>2026-03-29T11:05:05.831Z</time></trkpt><trkpt lat="43.172515849120735" lon="12.245959588192385"><ele>378.0</ele><time>2026-03-29T11:05:06.831Z</time></trkpt><trkpt lat="43.172616941223794" lon="12.245970281561437"><ele>378.0</ele><time>2026-03-29T11:05:07.831Z</time></trkpt><trkpt lat="43.172676214424115" lon="12.246022518199728"><ele>378.0</ele><time>2026-03-29T11:05:08.831Z</time></trkpt><trkpt lat="43.17273266475256" lon="12.246078033775776"><ele>378.0</ele><time>2026-03-29T11:05:09.831Z</time></trkpt><trkpt lat="43.172789049260956" lon="12.246178932892596"><ele>378.0</ele><time>2026-03-29T11:05:10.831Z</time></trkpt><trkpt lat="43.17284012015759" lon="12.246276834903627"><ele>378.0</ele><time>2026-03-29T11:05:11.831Z</time></trkpt><trkpt lat="43.17284728324952" lon="12.246413821903783"><ele>380.1666666666667</ele><time>2026-03-29T11:05:13.831Z</time></trkpt><trkpt lat="43.1728294287109" lon="12.246572171546154"><ele>382.33333333333337</ele><time>2026-03-29T11:05:15.831Z</time></trkpt><trkpt lat="43.17284846332427" lon="12.24670468677827"><ele>384.5</ele><time>2026-03-29T11:05:16.831Z</time></trkpt><trkpt lat="43.172891566911474" lon="12.24678896414673"><ele>386.6666666666667</ele><time>2026-03-29T11:05:20.831Z</time></trkpt><trkpt lat="43.17283230519545" lon="12.246856879861175"><ele>388.83333333333337</ele><time>2026-03-29T11:05:22.83Z</time></trkpt><trkpt lat="43.17283365962919" lon="12.24694731877925"><ele>391.0</ele><time>2026-03-29T11:05:24.83Z</time></trkpt><trkpt lat="43.172840204907914" lon="12.247033730305715"><ele>390.99999999999994</ele><time>2026-03-29T11:05:27.83Z</time></trkpt><trkpt lat="43.172826671265625" lon="12.247123814219208"><ele>391.0</ele><time>2026-03-29T11:05:30.83Z</time></trkpt><trkpt lat="43.17279624127784" lon="12.247212001697962"><ele>391.0</ele><time>2026-03-29T11:05:37.83Z</time></trkpt><trkpt lat="43.1727436684318" lon="12.24728712125662"><ele>391.0</ele><time>2026-03-29T11:05:51.83Z</time></trkpt><trkpt lat="43.17266116891057" lon="12.247309878058779"><ele>391.0</ele><time>2026-03-29T11:06:17.829Z</time></trkpt><trkpt lat="43.172598743030754" lon="12.24735898691211"><ele>390.99999999999994</ele><time>2026-03-29T11:06:20.829Z</time></trkpt><trkpt lat="43.17254074337386" lon="12.24742759571773"><ele>391.0</ele><time>2026-03-29T11:06:22.829Z</time></trkpt><trkpt lat="43.17249039604305" lon="12.24748533184118"><ele>392.33333333333337</ele><time>2026-03-29T11:06:23.829Z</time></trkpt><trkpt lat="43.172416767232484" lon="12.24753168070759"><ele>393.6666666666667</ele><time>2026-03-29T11:06:25.829Z</time></trkpt><trkpt lat="43.17232784519556" lon="12.247624874140083"><ele>395.0</ele><time>2026-03-29T11:06:27.829Z</time></trkpt><trkpt lat="43.17227828029042" lon="12.24770724370145"><ele>396.33333333333337</ele><time>2026-03-29T11:06:29.829Z</time></trkpt><trkpt lat="43.17222862435794" lon="12.247760714482995"><ele>397.6666666666667</ele><time>2026-03-29T11:06:32.829Z</time></trkpt><trkpt lat="43.172173178025005" lon="12.24782122186842"><ele>399.0</ele><time>2026-03-29T11:06:35.829Z</time></trkpt><trkpt lat="43.1720589433931" lon="12.247904963140764"><ele>401.4</ele><time>2026-03-29T11:08:08.829Z</time></trkpt><trkpt lat="43.17202098954804" lon="12.248000496893159"><ele>403.79999999999995</ele><time>2026-03-29T11:19:17.847Z</time></trkpt><trkpt lat="43.17199565068918" lon="12.248088347744455"><ele>406.20000000000005</ele><time>2026-03-29T11:19:27.849Z</time></trkpt><trkpt lat="43.171940787135256" lon="12.248165287579155"><ele>408.6</ele><time>2026-03-29T11:19:45.849Z</time></trkpt><trkpt lat="43.171883179967296" lon="12.248371100802554"><ele>411.0</ele><time>2026-03-29T11:19:47.849Z</time></trkpt><trkpt lat="43.1718294309702" lon="12.248495089090621"><ele>411.0</ele><time>2026-03-29T11:19:48.849Z</time></trkpt><trkpt lat="43.1717742460561" lon="12.248589785180494"><ele>411.0</ele><time>2026-03-29T11:19:49.849Z</time></trkpt><trkpt lat="43.17171360892181" lon="12.24867984482713"><ele>411.0</ele><time>2026-03-29T11:19:50.849Z</time></trkpt><trkpt lat="43.171770460022806" lon="12.248724271822873"><ele>411.0</ele><time>2026-03-29T11:19:54.849Z</time></trkpt><trkpt lat="43.171828360038845" lon="12.248761927766175"><ele>411.0</ele><time>2026-03-29T11:19:56.849Z</time></trkpt><trkpt lat="43.17190766036222" lon="12.248820302305987"><ele>411.0</ele><time>2026-03-29T11:19:57.848Z</time></trkpt><trkpt lat="43.17199714371383" lon="12.248886327307021"><ele>413.0</ele><time>2026-03-29T11:19:58.848Z</time></trkpt><trkpt lat="43.172070222507955" lon="12.248971050640828"><ele>415.0</ele><time>2026-03-29T11:19:59.848Z</time></trkpt><trkpt lat="43.17209949270301" lon="12.249058070317725"><ele>417.0</ele><time>2026-03-29T11:20:03.848Z</time></trkpt><trkpt lat="43.17216911379214" lon="12.24916860418715"><ele>419.0</ele><time>2026-03-29T11:20:05.848Z</time></trkpt><trkpt lat="43.17223109362448" lon="12.24933064328118"><ele>421.0</ele><time>2026-03-29T11:20:07.848Z</time></trkpt><trkpt lat="43.17227038714315" lon="12.249424433087995"><ele>421.00000000000006</ele><time>2026-03-29T11:20:08.848Z</time></trkpt><trkpt lat="43.172294146071" lon="12.249506745873218"><ele>421.0</ele><time>2026-03-29T11:20:09.848Z</time></trkpt><trkpt lat="43.172333372429165" lon="12.249576136101723"><ele>421.0</ele><time>2026-03-29T11:20:10.848Z</time></trkpt><trkpt lat="43.17236472699809" lon="12.249688012413152"><ele>421.0</ele><time>2026-03-29T11:20:12.848Z</time></trkpt><trkpt lat="43.17235985389962" lon="12.24977678166996"><ele>421.0</ele><time>2026-03-29T11:20:13.848Z</time></trkpt><trkpt lat="43.17232655706858" lon="12.24989333172611"><ele>421.00000000000006</ele><time>2026-03-29T11:20:15.848Z</time></trkpt><trkpt lat="43.1722955069084" lon="12.249975069278968"><ele>421.0</ele><time>2026-03-29T11:20:16.848Z</time></trkpt><trkpt lat="43.17225230769451" lon="12.250076267404733"><ele>423.00000000000006</ele><time>2026-03-29T11:20:17.848Z</time></trkpt><trkpt lat="43.17220881945231" lon="12.250160690045863"><ele>425.0</ele><time>2026-03-29T11:20:18.848Z</time></trkpt><trkpt lat="43.1721466189332" lon="12.250224601179935"><ele>427.0</ele><time>2026-03-29T11:20:19.848Z</time></trkpt><trkpt lat="43.172097179820696" lon="12.25028351683627"><ele>429.0</ele><time>2026-03-29T11:20:20.848Z</time></trkpt><trkpt lat="43.17202940743313" lon="12.250308770016488"><ele>431.00000000000006</ele><time>2026-03-29T11:20:21.848Z</time></trkpt><trkpt lat="43.17196534936929" lon="12.250323765698948"><ele>433.0</ele><time>2026-03-29T11:20:22.848Z</time></trkpt><trkpt lat="43.171858182133256" lon="12.250386758479792"><ele>433.0</ele><time>2026-03-29T11:20:24.848Z</time></trkpt><trkpt lat="43.17176281747241" lon="12.250403693150762"><ele>432.99999999999994</ele><time>2026-03-29T11:20:25.848Z</time></trkpt><trkpt lat="43.171696413289474" lon="12.2504415657476"><ele>432.99999999999994</ele><time>2026-03-29T11:20:26.848Z</time></trkpt><trkpt lat="43.1716335241573" lon="12.250578800584565"><ele>433.0</ele><time>2026-03-29T11:20:28.848Z</time></trkpt><trkpt lat="43.17164031438136" lon="12.250719693568966"><ele>433.0</ele><time>2026-03-29T11:20:29.848Z</time></trkpt><trkpt lat="43.17163837350262" lon="12.250852325829737"><ele>431.59999999999997</ele><time>2026-03-29T11:20:30.848Z</time></trkpt><trkpt lat="43.17161774987421" lon="12.25098658164726"><ele>430.19999999999993</ele><time>2026-03-29T11:20:31.848Z</time></trkpt><trkpt lat="43.17160223307282" lon="12.251124891549228"><ele>428.8</ele><time>2026-03-29T11:20:32.848Z</time></trkpt><trkpt lat="43.17160512869149" lon="12.251268256027872"><ele>427.4</ele><time>2026-03-29T11:20:33.848Z</time></trkpt><trkpt lat="43.17162202442606" lon="12.251380634180784"><ele>426.0</ele><time>2026-03-29T11:20:35.848Z</time></trkpt><trkpt lat="43.17159163733167" lon="12.251503722939766"><ele>425.20000000000005</ele><time>2026-03-29T11:20:37.848Z</time></trkpt><trkpt lat="43.171533730292346" lon="12.251611723157465"><ele>424.40000000000003</ele><time>2026-03-29T11:20:39.848Z</time></trkpt><trkpt lat="43.17147137099218" lon="12.251694158362836"><ele>423.6</ele><time>2026-03-29T11:20:40.848Z</time></trkpt><trkpt lat="43.171399447651865" lon="12.251760102593707"><ele>422.8</ele><time>2026-03-29T11:20:41.848Z</time></trkpt><trkpt lat="43.17131322482596" lon="12.251860574357499"><ele>422.0</ele><time>2026-03-29T11:20:43.847Z</time></trkpt><trkpt lat="43.17127587576792" lon="12.251936760166508"><ele>425.8</ele><time>2026-03-29T11:20:44.847Z</time></trkpt><trkpt lat="43.17126069158906" lon="12.2520229479543"><ele>429.6</ele><time>2026-03-29T11:20:45.847Z</time></trkpt><trkpt lat="43.171207403253" lon="12.252141750556504"><ele>433.40000000000003</ele><time>2026-03-29T11:20:48.847Z</time></trkpt><trkpt lat="43.171121155553365" lon="12.252246301113473"><ele>437.20000000000005</ele><time>2026-03-29T11:20:50.847Z</time></trkpt><trkpt lat="43.17105199426584" lon="12.252310157084253"><ele>441.0</ele><time>2026-03-29T11:20:51.847Z</time></trkpt><trkpt lat="43.17097131921848" lon="12.252348559468482"><ele>441.0</ele><time>2026-03-29T11:20:52.847Z</time></trkpt><trkpt lat="43.17089439501571" lon="12.252369525449847"><ele>441.0</ele><time>2026-03-29T11:20:53.847Z</time></trkpt><trkpt lat="43.170813085028186" lon="12.252399079894074"><ele>441.0</ele><time>2026-03-29T11:20:54.847Z</time></trkpt><trkpt lat="43.17074493197587" lon="12.252430765772568"><ele>441.0</ele><time>2026-03-29T11:20:56.847Z</time></trkpt><trkpt lat="43.17068752213021" lon="12.252367249443678"><ele>441.0</ele><time>2026-03-29T11:20:58.847Z</time></trkpt><trkpt lat="43.17063917637794" lon="12.252283780974327"><ele>441.0</ele><time>2026-03-29T11:20:59.847Z</time></trkpt><trkpt lat="43.170602585032306" lon="12.25219821577999"><ele>441.1666666666667</ele><time>2026-03-29T11:21:00.847Z</time></trkpt><trkpt lat="43.170579826732094" lon="12.252111616715727"><ele>441.33333333333337</ele><time>2026-03-29T11:21:01.847Z</time></trkpt><trkpt lat="43.17055842352136" lon="12.252017676597642"><ele>441.5</ele><time>2026-03-29T11:21:02.847Z</time></trkpt><trkpt lat="43.17053449869711" lon="12.251881223147771"><ele>441.6666666666667</ele><time>2026-03-29T11:21:03.847Z</time></trkpt><trkpt lat="43.170508680104135" lon="12.251746349262023"><ele>441.83333333333337</ele><time>2026-03-29T11:21:04.847Z</time></trkpt><trkpt lat="43.17047581461217" lon="12.251628525173215"><ele>442.0</ele><time>2026-03-29T11:21:05.847Z</time></trkpt><trkpt lat="43.170423099641454" lon="12.251534002481058"><ele>447.25</ele><time>2026-03-29T11:21:06.847Z</time></trkpt><trkpt lat="43.17036299290923" lon="12.251448192849674"><ele>452.5</ele><time>2026-03-29T11:21:07.847Z</time></trkpt><trkpt lat="43.1702665468996" lon="12.25139972526894"><ele>457.75</ele><time>2026-03-29T11:21:08.847Z</time></trkpt><trkpt lat="43.17011792325434" lon="12.251351516962615"><ele>463.0</ele><time>2026-03-29T11:21:09.847Z</time></trkpt><trkpt lat="43.17000326319533" lon="12.251278363933892"><ele>463.0</ele><time>2026-03-29T11:21:10.847Z</time></trkpt><trkpt lat="43.169907604704974" lon="12.251216155121845"><ele>462.99999999999994</ele><time>2026-03-29T11:21:11.847Z</time></trkpt><trkpt lat="43.16981537667839" lon="12.25115908641502"><ele>462.99999999999994</ele><time>2026-03-29T11:21:12.847Z</time></trkpt><trkpt lat="43.169737757104166" lon="12.251078078208725"><ele>463.0</ele><time>2026-03-29T11:21:13.847Z</time></trkpt><trkpt lat="43.16965113802317" lon="12.2509862713434"><ele>463.0</ele><time>2026-03-29T11:21:14.847Z</time></trkpt><trkpt lat="43.169574150177105" lon="12.2508862130155"><ele>463.0</ele><time>2026-03-29T11:21:15.847Z</time></trkpt><trkpt lat="43.16950366626912" lon="12.250753438782453"><ele>462.99999999999994</ele><time>2026-03-29T11:21:16.847Z</time></trkpt><trkpt lat="43.16944458382642" lon="12.250629563947838"><ele>462.99999999999994</ele><time>2026-03-29T11:21:17.847Z</time></trkpt><trkpt lat="43.169382011355715" lon="12.25054128657486"><ele>463.0</ele><time>2026-03-29T11:21:18.847Z</time></trkpt><trkpt lat="43.169321249088924" lon="12.250445474368407"><ele>463.0</ele><time>2026-03-29T11:21:19.847Z</time></trkpt><trkpt lat="43.16923396814553" lon="12.250381598535647"><ele>463.00000000000006</ele><time>2026-03-29T11:21:20.847Z</time></trkpt><trkpt lat="43.16917839443881" lon="12.250323782261715"><ele>463.0</ele><time>2026-03-29T11:21:21.847Z</time></trkpt><trkpt lat="43.16910616958929" lon="12.25025688144863"><ele>463.0</ele><time>2026-03-29T11:21:22.847Z</time></trkpt><trkpt lat="43.16904740881498" lon="12.250149831053749"><ele>463.0</ele><time>2026-03-29T11:21:23.847Z</time></trkpt><trkpt lat="43.16902315118115" lon="12.250042914423837"><ele>463.00000000000006</ele><time>2026-03-29T11:21:24.847Z</time></trkpt><trkpt lat="43.16901640961243" lon="12.24995658823363"><ele>463.0</ele><time>2026-03-29T11:21:25.847Z</time></trkpt><trkpt lat="43.168917789275724" lon="12.249833281074325"><ele>462.79999999999995</ele><time>2026-03-29T11:21:27.847Z</time></trkpt><trkpt lat="43.16885067511023" lon="12.249757886420657"><ele>462.59999999999997</ele><time>2026-03-29T11:21:28.847Z</time></trkpt><trkpt lat="43.168783625909406" lon="12.249662329081609"><ele>462.40000000000003</ele><time>2026-03-29T11:21:29.846Z</time></trkpt><trkpt lat="43.1687239394751" lon="12.249549471186262"><ele>462.20000000000005</ele><time>2026-03-29T11:21:30.846Z</time></trkpt><trkpt lat="43.16866655063611" lon="12.249468793420796"><ele>462.0</ele><time>2026-03-29T11:21:31.846Z</time></trkpt><trkpt lat="43.16857824176759" lon="12.249391978436167"><ele>462.0</ele><time>2026-03-29T11:21:32.846Z</time></trkpt><trkpt lat="43.16846574463669" lon="12.249294167552938"><ele>462.0</ele><time>2026-03-29T11:21:33.848Z</time></trkpt><trkpt lat="43.168375081173416" lon="12.24916636199855"><ele>462.0</ele><time>2026-03-29T11:21:34.848Z</time></trkpt><trkpt lat="43.168264346375445" lon="12.248969657280407"><ele>462.0</ele><time>2026-03-29T11:21:35.848Z</time></trkpt><trkpt lat="43.168154778839295" lon="12.248808485458518"><ele>462.0</ele><time>2026-03-29T11:21:36.848Z</time></trkpt><trkpt lat="43.16806648214081" lon="12.248665719998884"><ele>462.0</ele><time>2026-03-29T11:21:37.848Z</time></trkpt><trkpt lat="43.16798873130401" lon="12.248555616539203"><ele>462.0</ele><time>2026-03-29T11:21:38.848Z</time></trkpt><trkpt lat="43.16789247883303" lon="12.248441239398124"><ele>462.0</ele><time>2026-03-29T11:21:39.848Z</time></trkpt><trkpt lat="43.167815173453754" lon="12.248335358723303"><ele>462.0</ele><time>2026-03-29T11:21:40.848Z</time></trkpt><trkpt lat="43.16774323177357" lon="12.24824801585303"><ele>462.0</ele><time>2026-03-29T11:21:41.848Z</time></trkpt><trkpt lat="43.167675921339494" lon="12.248171335701699"><ele>462.0</ele><time>2026-03-29T11:21:42.848Z</time></trkpt><trkpt lat="43.16761306017577" lon="12.248130269217372"><ele>462.0</ele><time>2026-03-29T11:21:43.847Z</time></trkpt><trkpt lat="43.167552011282176" lon="12.248097045635564"><ele>462.0</ele><time>2026-03-29T11:21:44.847Z</time></trkpt><trkpt lat="43.16745581868052" lon="12.24810206616828"><ele>462.0</ele><time>2026-03-29T11:21:45.848Z</time></trkpt><trkpt lat="43.16734138661718" lon="12.248131509107159"><ele>462.1666666666667</ele><time>2026-03-29T11:21:46.848Z</time></trkpt><trkpt lat="43.16723491153875" lon="12.248155742883876"><ele>462.33333333333337</ele><time>2026-03-29T11:21:47.848Z</time></trkpt><trkpt lat="43.16712511449185" lon="12.248157024012958"><ele>462.5</ele><time>2026-03-29T11:21:48.848Z</time></trkpt><trkpt lat="43.16705148567578" lon="12.24813986074592"><ele>462.6666666666667</ele><time>2026-03-29T11:21:49.848Z</time></trkpt><trkpt lat="43.16698002929236" lon="12.248133545206093"><ele>462.83333333333337</ele><time>2026-03-29T11:21:51.848Z</time></trkpt><trkpt lat="43.166897835762036" lon="12.248149901910388"><ele>463.0</ele><time>2026-03-29T11:21:52.848Z</time></trkpt><trkpt lat="43.16677460005016" lon="12.248201375989288"><ele>463.0</ele><time>2026-03-29T11:21:53.848Z</time></trkpt><trkpt lat="43.16664992569571" lon="12.248264054622753"><ele>463.0</ele><time>2026-03-29T11:21:54.848Z</time></trkpt><trkpt lat="43.166490132565585" lon="12.248355502235293"><ele>463.0</ele><time>2026-03-29T11:21:55.848Z</time></trkpt><trkpt lat="43.16635315514452" lon="12.24842196470445"><ele>461.5</ele><time>2026-03-29T11:21:56.848Z</time></trkpt><trkpt lat="43.166256284433004" lon="12.248513631559167"><ele>460.0</ele><time>2026-03-29T11:21:57.848Z</time></trkpt><trkpt lat="43.16615553182462" lon="12.248598132752218"><ele>458.5</ele><time>2026-03-29T11:21:58.848Z</time></trkpt><trkpt lat="43.166053732496316" lon="12.248693271121336"><ele>457.0</ele><time>2026-03-29T11:21:59.847Z</time></trkpt><trkpt lat="43.165955575489996" lon="12.248825474865406"><ele>457.0</ele><time>2026-03-29T11:22:00.847Z</time></trkpt><trkpt lat="43.16587073558624" lon="12.248947395036199"><ele>457.0</ele><time>2026-03-29T11:22:01.847Z</time></trkpt><trkpt lat="43.16577681315632" lon="12.249106688495857"><ele>457.0</ele><time>2026-03-29T11:22:02.847Z</time></trkpt><trkpt lat="43.16566597009492" lon="12.249287644383358"><ele>457.0</ele><time>2026-03-29T11:22:03.847Z</time></trkpt><trkpt lat="43.165571206026875" lon="12.24944767428957"><ele>458.20000000000005</ele><time>2026-03-29T11:22:04.847Z</time></trkpt><trkpt lat="43.165482665745365" lon="12.249547872554"><ele>459.40000000000003</ele><time>2026-03-29T11:22:05.847Z</time></trkpt><trkpt lat="43.165399158349935" lon="12.249638909588544"><ele>460.59999999999997</ele><time>2026-03-29T11:22:06.847Z</time></trkpt><trkpt lat="43.16532374988308" lon="12.249697426224193"><ele>461.79999999999995</ele><time>2026-03-29T11:22:07.847Z</time></trkpt><trkpt lat="43.1652662363739" lon="12.249737494413136"><ele>463.0</ele><time>2026-03-29T11:22:08.847Z</time></trkpt><trkpt lat="43.165129057247825" lon="12.249753723922526"><ele>463.0</ele><time>2026-03-29T11:22:10.847Z</time></trkpt><trkpt lat="43.16501685655358" lon="12.249733638148799"><ele>463.0</ele><time>2026-03-29T11:22:11.847Z</time></trkpt><trkpt lat="43.16488998087405" lon="12.249734879201831"><ele>463.0</ele><time>2026-03-29T11:22:12.847Z</time></trkpt><trkpt lat="43.16476713300268" lon="12.249707697916799"><ele>463.0</ele><time>2026-03-29T11:22:13.847Z</time></trkpt><trkpt lat="43.16466559573588" lon="12.24969283394533"><ele>464.4</ele><time>2026-03-29T11:22:14.847Z</time></trkpt><trkpt lat="43.16457099219224" lon="12.24964859761104"><ele>465.79999999999995</ele><time>2026-03-29T11:22:15.847Z</time></trkpt><trkpt lat="43.164471749385385" lon="12.249613269648135"><ele>467.2</ele><time>2026-03-29T11:22:16.847Z</time></trkpt><trkpt lat="43.16438976547921" lon="12.24952398559715"><ele>468.6</ele><time>2026-03-29T11:22:18.847Z</time></trkpt><trkpt lat="43.16436911713646" lon="12.249414131884567"><ele>470.0</ele><time>2026-03-29T11:22:19.847Z</time></trkpt><trkpt lat="43.164318393443146" lon="12.249310093226345"><ele>470.0</ele><time>2026-03-29T11:22:20.847Z</time></trkpt><trkpt lat="43.16426780217195" lon="12.249229781839652"><ele>470.0</ele><time>2026-03-29T11:22:21.847Z</time></trkpt><trkpt lat="43.164170339370436" lon="12.24913243518878"><ele>470.0</ele><time>2026-03-29T11:22:23.847Z</time></trkpt><trkpt lat="43.16411722110671" lon="12.24907617166115"><ele>470.0</ele><time>2026-03-29T11:22:24.847Z</time></trkpt><trkpt lat="43.164045785688586" lon="12.249055217154558"><ele>470.0</ele><time>2026-03-29T11:22:25.847Z</time></trkpt><trkpt lat="43.16392157351461" lon="12.249035387075232"><ele>472.4</ele><time>2026-03-29T11:22:27.847Z</time></trkpt><trkpt lat="43.163845643589944" lon="12.249007772456148"><ele>474.8</ele><time>2026-03-29T11:22:28.847Z</time></trkpt><trkpt lat="43.16378658519536" lon="12.248948190911753"><ele>477.20000000000005</ele><time>2026-03-29T11:22:29.847Z</time></trkpt><trkpt lat="43.163753879681394" lon="12.248746679076568"><ele>479.6</ele><time>2026-03-29T11:22:31.847Z</time></trkpt><trkpt lat="43.16371190726414" lon="12.248594581743957"><ele>482.0</ele><time>2026-03-29T11:22:32.847Z</time></trkpt><trkpt lat="43.16366298303919" lon="12.248482196478573"><ele>482.0</ele><time>2026-03-29T11:22:33.847Z</time></trkpt><trkpt lat="43.16363618242339" lon="12.248400380180808"><ele>482.00000000000006</ele><time>2026-03-29T11:22:34.847Z</time></trkpt><trkpt lat="43.16354713870117" lon="12.248308312468964"><ele>482.00000000000006</ele><time>2026-03-29T11:22:36.847Z</time></trkpt><trkpt lat="43.163457976117556" lon="12.248294850262965"><ele>482.0</ele><time>2026-03-29T11:22:37.847Z</time></trkpt><trkpt lat="43.16332425235046" lon="12.248290725175146"><ele>482.0</ele><time>2026-03-29T11:22:38.847Z</time></trkpt><trkpt lat="43.16324412858383" lon="12.248269898040416"><ele>482.8333333333333</ele><time>2026-03-29T11:22:39.847Z</time></trkpt><trkpt lat="43.16318163394957" lon="12.248282958268128"><ele>483.66666666666663</ele><time>2026-03-29T11:22:40.847Z</time></trkpt><trkpt lat="43.1631153193314" lon="12.248310046130849"><ele>484.5</ele><time>2026-03-29T11:22:41.847Z</time></trkpt><trkpt lat="43.1630261804774" lon="12.248342629616646"><ele>485.33333333333337</ele><time>2026-03-29T11:22:42.847Z</time></trkpt><trkpt lat="43.16295327043087" lon="12.248379971421805"><ele>486.1666666666667</ele><time>2026-03-29T11:22:43.847Z</time></trkpt><trkpt lat="43.16289662410821" lon="12.24843786176029"><ele>487.0</ele><time>2026-03-29T11:22:44.847Z</time></trkpt><trkpt lat="43.16284008754453" lon="12.248533727858744"><ele>487.00000000000006</ele><time>2026-03-29T11:22:45.846Z</time></trkpt><trkpt lat="43.162752440438496" lon="12.248607903087969"><ele>487.0</ele><time>2026-03-29T11:22:47.846Z</time></trkpt><trkpt lat="43.16267026837635" lon="12.248599387511456"><ele>487.0</ele><time>2026-03-29T11:22:48.846Z</time></trkpt><trkpt lat="43.16258048581521" lon="12.248557826152295"><ele>487.0</ele><time>2026-03-29T11:22:49.846Z</time></trkpt><trkpt lat="43.16250511417558" lon="12.248528371454515"><ele>487.00000000000006</ele><time>2026-03-29T11:22:50.846Z</time></trkpt><trkpt lat="43.16243521744106" lon="12.248492672607512"><ele>487.0</ele><time>2026-03-29T11:22:51.846Z</time></trkpt><trkpt lat="43.16230644590416" lon="12.24843473751845"><ele>488.5</ele><time>2026-03-29T11:22:53.846Z</time></trkpt><trkpt lat="43.16217127584653" lon="12.24838546902164"><ele>490.0</ele><time>2026-03-29T11:22:54.846Z</time></trkpt><trkpt lat="43.16203551270377" lon="12.248329097362268"><ele>491.5</ele><time>2026-03-29T11:22:55.846Z</time></trkpt><trkpt lat="43.16195295926151" lon="12.248278648196402"><ele>493.0</ele><time>2026-03-29T11:22:56.846Z</time></trkpt><trkpt lat="43.16187556682135" lon="12.248204891674453"><ele>493.0</ele><time>2026-03-29T11:22:57.846Z</time></trkpt><trkpt lat="43.1617956042153" lon="12.248153049078407"><ele>493.0</ele><time>2026-03-29T11:22:58.846Z</time></trkpt><trkpt lat="43.161693748270295" lon="12.248090762933133"><ele>493.0</ele><time>2026-03-29T11:22:59.846Z</time></trkpt><trkpt lat="43.161561380665596" lon="12.247999428754865"><ele>493.0</ele><time>2026-03-29T11:23:00.846Z</time></trkpt><trkpt lat="43.16144609440243" lon="12.247931108107153"><ele>493.5</ele><time>2026-03-29T11:23:01.846Z</time></trkpt><trkpt lat="43.1613286062446" lon="12.247867292633988"><ele>494.0</ele><time>2026-03-29T11:23:02.846Z</time></trkpt><trkpt lat="43.16120041725442" lon="12.247783145938527"><ele>494.5</ele><time>2026-03-29T11:23:03.846Z</time></trkpt><trkpt lat="43.16108358235044" lon="12.24769112726899"><ele>495.0</ele><time>2026-03-29T11:23:04.846Z</time></trkpt><trkpt lat="43.160978922930695" lon="12.247621648953274"><ele>495.0</ele><time>2026-03-29T11:23:05.846Z</time></trkpt><trkpt lat="43.160890254798744" lon="12.247564975938122"><ele>495.0</ele><time>2026-03-29T11:23:06.846Z</time></trkpt><trkpt lat="43.16082938314806" lon="12.247520168641138"><ele>495.0</ele><time>2026-03-29T11:23:07.846Z</time></trkpt><trkpt lat="43.16078576636743" lon="12.24743394751148"><ele>495.0</ele><time>2026-03-29T11:23:08.846Z</time></trkpt><trkpt lat="43.160743650610584" lon="12.247277965352788"><ele>495.0</ele><time>2026-03-29T11:23:09.846Z</time></trkpt><trkpt lat="43.16068232503432" lon="12.247117690129448"><ele>499.25</ele><time>2026-03-29T11:23:10.846Z</time></trkpt><trkpt lat="43.160619590379085" lon="12.246950507004042"><ele>503.5</ele><time>2026-03-29T11:23:11.846Z</time></trkpt><trkpt lat="43.16056338423672" lon="12.246800809653406"><ele>507.75</ele><time>2026-03-29T11:23:12.846Z</time></trkpt><trkpt lat="43.16052447469409" lon="12.246678408060205"><ele>512.0</ele><time>2026-03-29T11:23:13.846Z</time></trkpt><trkpt lat="43.160453933429814" lon="12.246572427532447"><ele>512.0</ele><time>2026-03-29T11:23:14.846Z</time></trkpt><trkpt lat="43.160376414557824" lon="12.246483765651318"><ele>512.0</ele><time>2026-03-29T11:23:15.846Z</time></trkpt><trkpt lat="43.160288147592276" lon="12.246387390088524"><ele>512.0</ele><time>2026-03-29T11:23:16.846Z</time></trkpt><trkpt lat="43.160182097623924" lon="12.246275763444082"><ele>512.0</ele><time>2026-03-29T11:23:17.846Z</time></trkpt><trkpt lat="43.160094736320886" lon="12.246154522366512"><ele>511.6</ele><time>2026-03-29T11:23:18.846Z</time></trkpt><trkpt lat="43.16003037727024" lon="12.24603455455624"><ele>511.20000000000005</ele><time>2026-03-29T11:23:19.846Z</time></trkpt><trkpt lat="43.16000328603766" lon="12.245918369071436"><ele>510.8</ele><time>2026-03-29T11:23:20.846Z</time></trkpt><trkpt lat="43.15999378047182" lon="12.245783485498935"><ele>510.4</ele><time>2026-03-29T11:23:21.846Z</time></trkpt><trkpt lat="43.16000389499939" lon="12.245639611656046"><ele>510.0</ele><time>2026-03-29T11:23:22.846Z</time></trkpt><trkpt lat="43.16002281477958" lon="12.24550448434129"><ele>510.0</ele><time>2026-03-29T11:23:23.846Z</time></trkpt><trkpt lat="43.16004144845076" lon="12.245391383176752"><ele>510.0</ele><time>2026-03-29T11:23:24.846Z</time></trkpt><trkpt lat="43.160072702530016" lon="12.245270850918741"><ele>510.0</ele><time>2026-03-29T11:23:25.846Z</time></trkpt><trkpt lat="43.16008908070007" lon="12.245151207598957"><ele>510.0</ele><time>2026-03-29T11:23:26.846Z</time></trkpt><trkpt lat="43.160087180532386" lon="12.2450393177979"><ele>510.0</ele><time>2026-03-29T11:23:27.846Z</time></trkpt><trkpt lat="43.160073293619206" lon="12.244942199942965"><ele>510.0</ele><time>2026-03-29T11:23:28.846Z</time></trkpt><trkpt lat="43.16005359230491" lon="12.244830816414863"><ele>509.2</ele><time>2026-03-29T11:23:29.846Z</time></trkpt><trkpt lat="43.16001765082896" lon="12.24471334442585"><ele>508.4</ele><time>2026-03-29T11:23:30.846Z</time></trkpt><trkpt lat="43.15998152981421" lon="12.244582048193422"><ele>507.6</ele><time>2026-03-29T11:23:31.845Z</time></trkpt><trkpt lat="43.15993176722528" lon="12.244446733548495"><ele>506.8</ele><time>2026-03-29T11:23:32.845Z</time></trkpt><trkpt lat="43.15988501321327" lon="12.244305811376112"><ele>506.0</ele><time>2026-03-29T11:23:33.845Z</time></trkpt><trkpt lat="43.159853462075645" lon="12.244164988021343"><ele>505.4</ele><time>2026-03-29T11:23:34.845Z</time></trkpt><trkpt lat="43.15982401341428" lon="12.244021697598711"><ele>504.8</ele><time>2026-03-29T11:23:35.845Z</time></trkpt><trkpt lat="43.15978779418154" lon="12.243867290657677"><ele>504.19999999999993</ele><time>2026-03-29T11:23:36.845Z</time></trkpt><trkpt lat="43.15975069776108" lon="12.243728054642615"><ele>503.59999999999997</ele><time>2026-03-29T11:23:37.845Z</time></trkpt><trkpt lat="43.159713634762646" lon="12.243589682414354"><ele>503.0</ele><time>2026-03-29T11:23:38.845Z</time></trkpt><trkpt lat="43.159683414161435" lon="12.243461579147807"><ele>501.2</ele><time>2026-03-29T11:23:39.847Z</time></trkpt><trkpt lat="43.15964397270049" lon="12.243341971412015"><ele>499.4</ele><time>2026-03-29T11:23:40.847Z</time></trkpt><trkpt lat="43.159594182688714" lon="12.243218389251682"><ele>497.59999999999997</ele><time>2026-03-29T11:23:41.847Z</time></trkpt><trkpt lat="43.15953864448945" lon="12.243087378390799"><ele>495.79999999999995</ele><time>2026-03-29T11:23:42.848Z</time></trkpt><trkpt lat="43.159488354167024" lon="12.2429783958948"><ele>494.0</ele><time>2026-03-29T11:23:43.848Z</time></trkpt><trkpt lat="43.159438770481216" lon="12.24288503451667"><ele>491.2</ele><time>2026-03-29T11:23:44.847Z</time></trkpt><trkpt lat="43.15939550038084" lon="12.242770591884256"><ele>488.4</ele><time>2026-03-29T11:23:45.847Z</time></trkpt><trkpt lat="43.15937012271138" lon="12.242657404924756"><ele>485.6</ele><time>2026-03-29T11:23:46.848Z</time></trkpt><trkpt lat="43.15935828048884" lon="12.242532219383623"><ele>482.8</ele><time>2026-03-29T11:23:47.848Z</time></trkpt><trkpt lat="43.1593387130543" lon="12.242394670829782"><ele>480.0</ele><time>2026-03-29T11:23:48.848Z</time></trkpt><trkpt lat="43.15930416768281" lon="12.242254360845871"><ele>478.4</ele><time>2026-03-29T11:23:49.848Z</time></trkpt><trkpt lat="43.15925784711085" lon="12.242111766338763"><ele>476.8</ele><time>2026-03-29T11:23:50.848Z</time></trkpt><trkpt lat="43.159215126521175" lon="12.24199505079023"><ele>475.20000000000005</ele><time>2026-03-29T11:23:51.847Z</time></trkpt><trkpt lat="43.159172925632504" lon="12.241870153833194"><ele>473.6</ele><time>2026-03-29T11:23:52.847Z</time></trkpt><trkpt lat="43.159136820099334" lon="12.241749642902722"><ele>472.0</ele><time>2026-03-29T11:23:53.847Z</time></trkpt><trkpt lat="43.15910175272018" lon="12.241642050996886"><ele>472.0</ele><time>2026-03-29T11:23:54.847Z</time></trkpt><trkpt lat="43.15906099413554" lon="12.241530833116608"><ele>472.0</ele><time>2026-03-29T11:23:55.847Z</time></trkpt><trkpt lat="43.1590231010714" lon="12.241425752979133"><ele>472.0</ele><time>2026-03-29T11:23:56.847Z</time></trkpt><trkpt lat="43.15900658711766" lon="12.24132932800298"><ele>472.0</ele><time>2026-03-29T11:23:57.847Z</time></trkpt><trkpt lat="43.15900204215983" lon="12.24123774424975"><ele>472.0</ele><time>2026-03-29T11:23:58.847Z</time></trkpt><trkpt lat="43.15901991741742" lon="12.241154461007449"><ele>472.0</ele><time>2026-03-29T11:23:59.847Z</time></trkpt><trkpt lat="43.15906404825416" lon="12.241086978061936"><ele>472.0</ele><time>2026-03-29T11:24:00.847Z</time></trkpt><trkpt lat="43.15912248131324" lon="12.241016873631128"><ele>470.20000000000005</ele><time>2026-03-29T11:24:01.847Z</time></trkpt><trkpt lat="43.159197326358665" lon="12.240924499195582"><ele>468.40000000000003</ele><time>2026-03-29T11:24:02.847Z</time></trkpt><trkpt lat="43.1592893483051" lon="12.240835408912426"><ele>466.59999999999997</ele><time>2026-03-29T11:24:03.847Z</time></trkpt><trkpt lat="43.15935908628391" lon="12.240773522314825"><ele>464.79999999999995</ele><time>2026-03-29T11:24:04.847Z</time></trkpt><trkpt lat="43.159439699468734" lon="12.240675134456318"><ele>463.0</ele><time>2026-03-29T11:24:07.847Z</time></trkpt><trkpt lat="43.159501761673646" lon="12.240618643922257"><ele>461.83333333333337</ele><time>2026-03-29T11:24:08.847Z</time></trkpt><trkpt lat="43.15957262553832" lon="12.240547116485804"><ele>460.6666666666667</ele><time>2026-03-29T11:24:09.847Z</time></trkpt><trkpt lat="43.15962576076925" lon="12.24045083700883"><ele>459.5</ele><time>2026-03-29T11:24:10.847Z</time></trkpt><trkpt lat="43.159671637957594" lon="12.240381395113044"><ele>458.33333333333337</ele><time>2026-03-29T11:24:11.847Z</time></trkpt><trkpt lat="43.15973265846094" lon="12.240331633457355"><ele>457.1666666666667</ele><time>2026-03-29T11:24:12.847Z</time></trkpt><trkpt lat="43.159814137198396" lon="12.240303160098401"><ele>456.0</ele><time>2026-03-29T11:24:13.847Z</time></trkpt><trkpt lat="43.159903074007254" lon="12.240289989853858"><ele>455.20000000000005</ele><time>2026-03-29T11:24:14.847Z</time></trkpt><trkpt lat="43.16001002674979" lon="12.240270276686612"><ele>454.40000000000003</ele><time>2026-03-29T11:24:15.847Z</time></trkpt><trkpt lat="43.16012121166333" lon="12.240254370362974"><ele>453.6</ele><time>2026-03-29T11:24:16.847Z</time></trkpt><trkpt lat="43.16022435531962" lon="12.240245713008877"><ele>452.8</ele><time>2026-03-29T11:24:17.847Z</time></trkpt><trkpt lat="43.16033242905769" lon="12.240257501209786"><ele>452.0</ele><time>2026-03-29T11:24:18.847Z</time></trkpt><trkpt lat="43.16042938891248" lon="12.240251435954562"><ele>452.0</ele><time>2026-03-29T11:24:19.847Z</time></trkpt><trkpt lat="43.16052643188017" lon="12.240240530931175"><ele>452.00000000000006</ele><time>2026-03-29T11:24:20.847Z</time></trkpt><trkpt lat="43.16063057122709" lon="12.240233003311452"><ele>452.00000000000006</ele><time>2026-03-29T11:24:21.847Z</time></trkpt><trkpt lat="43.160727180427656" lon="12.240225344949806"><ele>452.0</ele><time>2026-03-29T11:24:22.847Z</time></trkpt><trkpt lat="43.160825901876386" lon="12.240249677829851"><ele>452.0</ele><time>2026-03-29T11:24:23.847Z</time></trkpt><trkpt lat="43.160897136587835" lon="12.240279326714655"><ele>449.16666666666663</ele><time>2026-03-29T11:24:24.847Z</time></trkpt><trkpt lat="43.160964763153046" lon="12.240311631228344"><ele>446.3333333333333</ele><time>2026-03-29T11:24:25.847Z</time></trkpt><trkpt lat="43.16104438692477" lon="12.240354818915034"><ele>443.5</ele><time>2026-03-29T11:24:26.847Z</time></trkpt><trkpt lat="43.16112825852111" lon="12.240387130937352"><ele>440.66666666666663</ele><time>2026-03-29T11:24:27.847Z</time></trkpt><trkpt lat="43.1611964909179" lon="12.240412661834966"><ele>437.8333333333333</ele><time>2026-03-29T11:24:28.847Z</time></trkpt><trkpt lat="43.16126341519226" lon="12.24043997198383"><ele>435.0</ele><time>2026-03-29T11:24:29.847Z</time></trkpt><trkpt lat="43.16135075978125" lon="12.240495204245374"><ele>435.0</ele><time>2026-03-29T11:24:30.847Z</time></trkpt><trkpt lat="43.16147248715003" lon="12.24057190875588"><ele>435.0</ele><time>2026-03-29T11:24:31.847Z</time></trkpt><trkpt lat="43.16160653770637" lon="12.240629065155085"><ele>435.0</ele><time>2026-03-29T11:24:32.847Z</time></trkpt><trkpt lat="43.16172371607797" lon="12.240672273085439"><ele>435.0</ele><time>2026-03-29T11:24:33.846Z</time></trkpt><trkpt lat="43.16182462932778" lon="12.240690669683993"><ele>435.6</ele><time>2026-03-29T11:24:34.846Z</time></trkpt><trkpt lat="43.16192758630724" lon="12.240679928621272"><ele>436.2</ele><time>2026-03-29T11:24:35.846Z</time></trkpt><trkpt lat="43.162030061884465" lon="12.240641272434312"><ele>436.79999999999995</ele><time>2026-03-29T11:24:36.846Z</time></trkpt><trkpt lat="43.162131181010395" lon="12.240593181281904"><ele>437.4</ele><time>2026-03-29T11:24:37.846Z</time></trkpt><trkpt lat="43.162220552522115" lon="12.240528999000308"><ele>438.0</ele><time>2026-03-29T11:24:38.846Z</time></trkpt><trkpt lat="43.16230406382255" lon="12.240441674543048"><ele>434.59999999999997</ele><time>2026-03-29T11:24:39.846Z</time></trkpt><trkpt lat="43.16239132429612" lon="12.240333140070843"><ele>431.19999999999993</ele><time>2026-03-29T11:24:40.846Z</time></trkpt><trkpt lat="43.16248326821714" lon="12.240219571828076"><ele>427.8</ele><time>2026-03-29T11:24:41.846Z</time></trkpt><trkpt lat="43.162567070941705" lon="12.240125883717042"><ele>424.4</ele><time>2026-03-29T11:24:42.846Z</time></trkpt><trkpt lat="43.16264280634197" lon="12.240052634554868"><ele>421.0</ele><time>2026-03-29T11:24:43.846Z</time></trkpt><trkpt lat="43.16270717952513" lon="12.23998280686608"><ele>421.0</ele><time>2026-03-29T11:24:44.846Z</time></trkpt><trkpt lat="43.162770062124935" lon="12.23990402618955"><ele>421.0</ele><time>2026-03-29T11:24:45.846Z</time></trkpt><trkpt lat="43.16283615327156" lon="12.239819121836701"><ele>421.0</ele><time>2026-03-29T11:24:46.846Z</time></trkpt><trkpt lat="43.16290932353248" lon="12.239739275300709"><ele>421.0</ele><time>2026-03-29T11:24:47.846Z</time></trkpt><trkpt lat="43.16297722531929" lon="12.239656800430238"><ele>421.0</ele><time>2026-03-29T11:24:48.846Z</time></trkpt><trkpt lat="43.16304667304813" lon="12.239574938978969"><ele>418.8</ele><time>2026-03-29T11:24:49.846Z</time></trkpt><trkpt lat="43.16311955792479" lon="12.23950368135815"><ele>416.6</ele><time>2026-03-29T11:24:50.846Z</time></trkpt><trkpt lat="43.16319185721818" lon="12.239424650696979"><ele>414.4</ele><time>2026-03-29T11:24:51.846Z</time></trkpt><trkpt lat="43.1632668440734" lon="12.239335759373729"><ele>412.2</ele><time>2026-03-29T11:24:52.846Z</time></trkpt><trkpt lat="43.16334091859024" lon="12.23925639943551"><ele>410.0</ele><time>2026-03-29T11:24:53.846Z</time></trkpt><trkpt lat="43.163412292703434" lon="12.239177867671156"><ele>409.2</ele><time>2026-03-29T11:24:54.846Z</time></trkpt><trkpt lat="43.163487513833665" lon="12.239094471031736"><ele>408.4</ele><time>2026-03-29T11:24:55.846Z</time></trkpt><trkpt lat="43.16356294171036" lon="12.239007637314304"><ele>407.6</ele><time>2026-03-29T11:24:56.846Z</time></trkpt><trkpt lat="43.16363663129441" lon="12.238923983464117"><ele>406.8</ele><time>2026-03-29T11:24:57.846Z</time></trkpt><trkpt lat="43.16369192503593" lon="12.238851442069029"><ele>406.0</ele><time>2026-03-29T11:24:58.846Z</time></trkpt><trkpt lat="43.16378381640306" lon="12.23875970567551"><ele>403.33333333333337</ele><time>2026-03-29T11:25:00.846Z</time></trkpt><trkpt lat="43.16390709298477" lon="12.2387194164794"><ele>400.6666666666667</ele><time>2026-03-29T11:25:02.846Z</time></trkpt><trkpt lat="43.16397098915416" lon="12.238747902975216"><ele>398.0</ele><time>2026-03-29T11:25:03.846Z</time></trkpt><trkpt lat="43.1640381541205" lon="12.238764630092849"><ele>395.33333333333337</ele><time>2026-03-29T11:25:04.846Z</time></trkpt><trkpt lat="43.1641314191612" lon="12.238785753164162"><ele>392.6666666666667</ele><time>2026-03-29T11:25:06.846Z</time></trkpt><trkpt lat="43.1641988177097" lon="12.238718606280276"><ele>390.0</ele><time>2026-03-29T11:25:08.846Z</time></trkpt><trkpt lat="43.16423852255125" lon="12.238586658014158"><ele>388.0</ele><time>2026-03-29T11:25:10.846Z</time></trkpt><trkpt lat="43.164270008911" lon="12.238417080830311"><ele>386.0</ele><time>2026-03-29T11:25:12.846Z</time></trkpt><trkpt lat="43.164275191460135" lon="12.238329933491375"><ele>384.0</ele><time>2026-03-29T11:25:13.846Z</time></trkpt><trkpt lat="43.1642476764118" lon="12.238217682714929"><ele>382.0</ele><time>2026-03-29T11:25:15.846Z</time></trkpt><trkpt lat="43.16417534542284" lon="12.238144564185541"><ele>380.0</ele><time>2026-03-29T11:25:17.846Z</time></trkpt><trkpt lat="43.164109984582474" lon="12.238022620756729"><ele>379.0</ele><time>2026-03-29T11:25:19.845Z</time></trkpt><trkpt lat="43.16406698100836" lon="12.23790266949082"><ele>378.0</ele><time>2026-03-29T11:25:21.845Z</time></trkpt><trkpt lat="43.163985285176416" lon="12.237830568231349"><ele>377.0</ele><time>2026-03-29T11:25:23.845Z</time></trkpt><trkpt lat="43.16389525503766" lon="12.237751960958914"><ele>376.0</ele><time>2026-03-29T11:25:25.845Z</time></trkpt><trkpt lat="43.163929485169646" lon="12.237651305427278"><ele>375.0</ele><time>2026-03-29T11:25:27.845Z</time></trkpt><trkpt lat="43.16403232950174" lon="12.237560466989684"><ele>373.0</ele><time>2026-03-29T11:25:29.845Z</time></trkpt><trkpt lat="43.16410856324473" lon="12.237554121894306"><ele>371.0</ele><time>2026-03-29T11:25:30.845Z</time></trkpt><trkpt lat="43.16417257766632" lon="12.237545556538091"><ele>369.0</ele><time>2026-03-29T11:25:31.845Z</time></trkpt><trkpt lat="43.164238452711594" lon="12.2375357070305"><ele>367.0</ele><time>2026-03-29T11:25:32.845Z</time></trkpt><trkpt lat="43.16436192927488" lon="12.23752699873966"><ele>365.0</ele><time>2026-03-29T11:25:34.845Z</time></trkpt><trkpt lat="43.164485507460164" lon="12.237538328942737"><ele>365.0</ele><time>2026-03-29T11:25:36.845Z</time></trkpt><trkpt lat="43.16459824216847" lon="12.237523303748723"><ele>365.0</ele><time>2026-03-29T11:25:38.845Z</time></trkpt><trkpt lat="43.16467475100485" lon="12.23751785774139"><ele>365.0</ele><time>2026-03-29T11:25:39.845Z</time></trkpt><trkpt lat="43.16474526507079" lon="12.237516018250682"><ele>365.0</ele><time>2026-03-29T11:25:40.845Z</time></trkpt><trkpt lat="43.16481788377002" lon="12.237502623588309"><ele>365.0</ele><time>2026-03-29T11:25:41.845Z</time></trkpt><trkpt lat="43.16489622613555" lon="12.237500507147178"><ele>365.0</ele><time>2026-03-29T11:25:42.845Z</time></trkpt><trkpt lat="43.16497168960773" lon="12.23749363927477"><ele>363.2</ele><time>2026-03-29T11:25:43.845Z</time></trkpt><trkpt lat="43.16503945599699" lon="12.237481022752965"><ele>361.4</ele><time>2026-03-29T11:25:44.845Z</time></trkpt><trkpt lat="43.16514188810756" lon="12.237553201486726"><ele>359.6</ele><time>2026-03-29T11:25:46.847Z</time></trkpt><trkpt lat="43.16526048466787" lon="12.237556177811292"><ele>357.8</ele><time>2026-03-29T11:25:48.847Z</time></trkpt><trkpt lat="43.16532400201321" lon="12.237508148673843"><ele>356.0</ele><time>2026-03-29T11:25:49.847Z</time></trkpt><trkpt lat="43.16537971258923" lon="12.23743493492276"><ele>356.0</ele><time>2026-03-29T11:25:50.847Z</time></trkpt><trkpt lat="43.16543094407762" lon="12.237351885320205"><ele>356.0</ele><time>2026-03-29T11:25:51.847Z</time></trkpt><trkpt lat="43.16548279156644" lon="12.237268319853369"><ele>356.0</ele><time>2026-03-29T11:25:52.847Z</time></trkpt><trkpt lat="43.16551510099842" lon="12.237181791280376"><ele>356.0</ele><time>2026-03-29T11:25:53.847Z</time></trkpt><trkpt lat="43.16553469176546" lon="12.237026542400011"><ele>356.0</ele><time>2026-03-29T11:25:55.847Z</time></trkpt><trkpt lat="43.16556904881125" lon="12.236880397367402"><ele>354.1666666666667</ele><time>2026-03-29T11:25:57.846Z</time></trkpt><trkpt lat="43.16561754746936" lon="12.236815780472106"><ele>352.33333333333337</ele><time>2026-03-29T11:25:58.847Z</time></trkpt><trkpt lat="43.16567514063001" lon="12.236757425162285"><ele>350.5</ele><time>2026-03-29T11:25:59.847Z</time></trkpt><trkpt lat="43.165777123666" lon="12.23665414939988"><ele>348.6666666666667</ele><time>2026-03-29T11:26:01.847Z</time></trkpt><trkpt lat="43.16583704981952" lon="12.23656928013377"><ele>346.8333333333333</ele><time>2026-03-29T11:26:02.847Z</time></trkpt><trkpt lat="43.165881799764584" lon="12.236489693866403"><ele>345.0</ele><time>2026-03-29T11:26:03.847Z</time></trkpt><trkpt lat="43.165934499684745" lon="12.236432219608334"><ele>342.6666666666667</ele><time>2026-03-29T11:26:04.847Z</time></trkpt><trkpt lat="43.16600911834455" lon="12.236386217214257"><ele>340.3333333333333</ele><time>2026-03-29T11:26:05.847Z</time></trkpt><trkpt lat="43.16608496642729" lon="12.236356271086935"><ele>338.0</ele><time>2026-03-29T11:26:06.847Z</time></trkpt><trkpt lat="43.16616725599195" lon="12.23631539990441"><ele>335.66666666666663</ele><time>2026-03-29T11:26:07.847Z</time></trkpt><trkpt lat="43.1662538671944" lon="12.236266584230602"><ele>333.3333333333333</ele><time>2026-03-29T11:26:08.847Z</time></trkpt><trkpt lat="43.16632301842452" lon="12.23620459404958"><ele>331.0</ele><time>2026-03-29T11:26:09.847Z</time></trkpt><trkpt lat="43.1663953490131" lon="12.236146129970424"><ele>331.0</ele><time>2026-03-29T11:26:10.847Z</time></trkpt><trkpt lat="43.16644862619033" lon="12.23607906544461"><ele>331.0</ele><time>2026-03-29T11:26:11.847Z</time></trkpt><trkpt lat="43.166497665303396" lon="12.235990871224471"><ele>331.0</ele><time>2026-03-29T11:26:12.847Z</time></trkpt><trkpt lat="43.16654543499703" lon="12.235901072619841"><ele>331.0</ele><time>2026-03-29T11:26:13.847Z</time></trkpt><trkpt lat="43.16659345192645" lon="12.235811035076498"><ele>331.0</ele><time>2026-03-29T11:26:14.847Z</time></trkpt><trkpt lat="43.16663851608447" lon="12.235720988156677"><ele>331.0</ele><time>2026-03-29T11:26:15.847Z</time></trkpt><trkpt lat="43.16667440472499" lon="12.23563369857116"><ele>329.16666666666663</ele><time>2026-03-29T11:26:16.847Z</time></trkpt><trkpt lat="43.166694641654246" lon="12.235543204224307"><ele>327.3333333333333</ele><time>2026-03-29T11:26:17.847Z</time></trkpt><trkpt lat="43.16675443060586" lon="12.23541083209995"><ele>325.5</ele><time>2026-03-29T11:26:19.847Z</time></trkpt><trkpt lat="43.1668646872201" lon="12.235332736241777"><ele>323.6666666666667</ele><time>2026-03-29T11:26:21.846Z</time></trkpt><trkpt lat="43.166917743661415" lon="12.235267740471926"><ele>321.83333333333337</ele><time>2026-03-29T11:26:22.846Z</time></trkpt><trkpt lat="43.16696314414314" lon="12.235203887357875"><ele>320.0</ele><time>2026-03-29T11:26:23.846Z</time></trkpt><trkpt lat="43.1670115613244" lon="12.2350564130856"><ele>320.0</ele><time>2026-03-29T11:26:25.846Z</time></trkpt><trkpt lat="43.16701396867054" lon="12.234949044677043"><ele>320.0</ele><time>2026-03-29T11:26:26.846Z</time></trkpt><trkpt lat="43.166992459899014" lon="12.234842639570752"><ele>320.0</ele><time>2026-03-29T11:26:27.846Z</time></trkpt><trkpt lat="43.16694543681536" lon="12.234767477652255"><ele>320.0</ele><time>2026-03-29T11:26:28.846Z</time></trkpt><trkpt lat="43.166890227709175" lon="12.234705205270908"><ele>320.0</ele><time>2026-03-29T11:26:29.846Z</time></trkpt><trkpt lat="43.16683724411566" lon="12.234647072717994"><ele>320.0</ele><time>2026-03-29T11:26:30.846Z</time></trkpt><trkpt lat="43.166774283147625" lon="12.234609855492273"><ele>320.0</ele><time>2026-03-29T11:26:31.846Z</time></trkpt><trkpt lat="43.166726092031915" lon="12.234551613907621"><ele>317.6</ele><time>2026-03-29T11:26:32.846Z</time></trkpt><trkpt lat="43.166729268042566" lon="12.234428287577646"><ele>315.2</ele><time>2026-03-29T11:26:34.846Z</time></trkpt><trkpt lat="43.166703724860305" lon="12.234263925823589"><ele>312.8</ele><time>2026-03-29T11:26:36.846Z</time></trkpt><trkpt lat="43.16666140267384" lon="12.234153988826705"><ele>310.4</ele><time>2026-03-29T11:26:37.846Z</time></trkpt><trkpt lat="43.16662114283075" lon="12.234051518605066"><ele>308.0</ele><time>2026-03-29T11:26:38.846Z</time></trkpt><trkpt lat="43.166582143823206" lon="12.233956578791187"><ele>306.2</ele><time>2026-03-29T11:26:39.846Z</time></trkpt><trkpt lat="43.166553631529155" lon="12.23384810809263"><ele>304.4</ele><time>2026-03-29T11:26:40.846Z</time></trkpt><trkpt lat="43.16652545708945" lon="12.233732809564929"><ele>302.59999999999997</ele><time>2026-03-29T11:26:41.846Z</time></trkpt><trkpt lat="43.166489342752755" lon="12.233605662697707"><ele>300.8</ele><time>2026-03-29T11:26:42.846Z</time></trkpt><trkpt lat="43.16645074547195" lon="12.233453594153858"><ele>299.0</ele><time>2026-03-29T11:26:43.846Z</time></trkpt><trkpt lat="43.16641741294901" lon="12.233322471011117"><ele>298.2</ele><time>2026-03-29T11:26:44.846Z</time></trkpt><trkpt lat="43.166379700766655" lon="12.233200725950894"><ele>297.4</ele><time>2026-03-29T11:26:45.846Z</time></trkpt><trkpt lat="43.16634667817561" lon="12.233069407382738"><ele>296.6</ele><time>2026-03-29T11:26:46.846Z</time></trkpt><trkpt lat="43.16631939155916" lon="12.232940028582702"><ele>295.8</ele><time>2026-03-29T11:26:47.846Z</time></trkpt><trkpt lat="43.16629071433986" lon="12.23281411114007"><ele>295.0</ele><time>2026-03-29T11:26:48.846Z</time></trkpt><trkpt lat="43.166273349188636" lon="12.232706914592885"><ele>293.6</ele><time>2026-03-29T11:26:49.846Z</time></trkpt><trkpt lat="43.166288843503885" lon="12.232547176480368"><ele>292.2</ele><time>2026-03-29T11:26:51.846Z</time></trkpt><trkpt lat="43.16631087386953" lon="12.232429729080108"><ele>290.8</ele><time>2026-03-29T11:26:52.846Z</time></trkpt><trkpt lat="43.166318200233" lon="12.232306079635704"><ele>289.4</ele><time>2026-03-29T11:26:53.846Z</time></trkpt><trkpt lat="43.166320544052745" lon="12.232189585044422"><ele>288.0</ele><time>2026-03-29T11:26:54.846Z</time></trkpt><trkpt lat="43.16633200700972" lon="12.232095772894473"><ele>287.1666666666667</ele><time>2026-03-29T11:26:55.846Z</time></trkpt><trkpt lat="43.16633376049188" lon="12.231995923268007"><ele>286.3333333333333</ele><time>2026-03-29T11:26:56.846Z</time></trkpt><trkpt lat="43.16629603159935" lon="12.231896101458087"><ele>285.5</ele><time>2026-03-29T11:26:57.846Z</time></trkpt><trkpt lat="43.16625044211958" lon="12.231801926106625"><ele>284.66666666666663</ele><time>2026-03-29T11:26:58.846Z</time></trkpt><trkpt lat="43.16622102399177" lon="12.231645196324962"><ele>283.8333333333333</ele><time>2026-03-29T11:27:00.846Z</time></trkpt><trkpt lat="43.166247216564784" lon="12.231558317604623"><ele>283.0</ele><time>2026-03-29T11:27:01.846Z</time></trkpt><trkpt lat="43.16628172536528" lon="12.231477700779408"><ele>281.2</ele><time>2026-03-29T11:27:02.846Z</time></trkpt><trkpt lat="43.166305568434716" lon="12.231330297909457"><ele>279.4</ele><time>2026-03-29T11:27:04.846Z</time></trkpt><trkpt lat="43.16623194466132" lon="12.231211175856165"><ele>277.59999999999997</ele><time>2026-03-29T11:27:06.846Z</time></trkpt><trkpt lat="43.16616477684092" lon="12.231152327197123"><ele>275.8</ele><time>2026-03-29T11:27:07.845Z</time></trkpt><trkpt lat="43.16607859479185" lon="12.231125747796252"><ele>274.0</ele><time>2026-03-29T11:27:08.845Z</time></trkpt><trkpt lat="43.165996745661566" lon="12.231125517892158"><ele>274.0</ele><time>2026-03-29T11:27:09.845Z</time></trkpt><trkpt lat="43.165914318119746" lon="12.23115875370589"><ele>274.0</ele><time>2026-03-29T11:27:10.845Z</time></trkpt><trkpt lat="43.165840471182484" lon="12.231214269378809"><ele>274.0</ele><time>2026-03-29T11:27:11.845Z</time></trkpt><trkpt lat="43.16578704333155" lon="12.231278524201247"><ele>274.0</ele><time>2026-03-29T11:27:12.845Z</time></trkpt><trkpt lat="43.165741795084514" lon="12.231375304803239"><ele>274.0</ele><time>2026-03-29T11:27:13.845Z</time></trkpt><trkpt lat="43.16573493935477" lon="12.231475946544936"><ele>274.0</ele><time>2026-03-29T11:27:14.845Z</time></trkpt><trkpt lat="43.165727575934014" lon="12.23158593730472"><ele>274.4</ele><time>2026-03-29T11:27:15.845Z</time></trkpt><trkpt lat="43.165719890651644" lon="12.231688016463243"><ele>274.79999999999995</ele><time>2026-03-29T11:27:16.845Z</time></trkpt><trkpt lat="43.165709715635856" lon="12.231788489731363"><ele>275.20000000000005</ele><time>2026-03-29T11:27:17.845Z</time></trkpt><trkpt lat="43.16566330707246" lon="12.231928854000097"><ele>275.6</ele><time>2026-03-29T11:27:19.845Z</time></trkpt><trkpt lat="43.16555006564688" lon="12.2318734283357"><ele>276.0</ele><time>2026-03-29T11:27:22.845Z</time></trkpt><trkpt lat="43.16548905120067" lon="12.231802669082692"><ele>276.0</ele><time>2026-03-29T11:27:23.845Z</time></trkpt><trkpt lat="43.165428548764574" lon="12.231724456617393"><ele>276.0</ele><time>2026-03-29T11:27:24.845Z</time></trkpt><trkpt lat="43.16535885172875" lon="12.23163602512364"><ele>276.0</ele><time>2026-03-29T11:27:25.845Z</time></trkpt><trkpt lat="43.165299824669944" lon="12.231549391248356"><ele>276.0</ele><time>2026-03-29T11:27:26.845Z</time></trkpt><trkpt lat="43.16525819709692" lon="12.231431758972855"><ele>276.0</ele><time>2026-03-29T11:27:27.845Z</time></trkpt><trkpt lat="43.165193358569276" lon="12.2313156808592"><ele>274.0</ele><time>2026-03-29T11:27:28.845Z</time></trkpt><trkpt lat="43.165126062148005" lon="12.231197895644074"><ele>272.0</ele><time>2026-03-29T11:27:29.845Z</time></trkpt><trkpt lat="43.16505246946012" lon="12.231065907609885"><ele>270.0</ele><time>2026-03-29T11:27:30.845Z</time></trkpt><trkpt lat="43.16497820004127" lon="12.230948038988698"><ele>268.0</ele><time>2026-03-29T11:27:31.845Z</time></trkpt><trkpt lat="43.164894746533506" lon="12.230827547024184"><ele>268.4</ele><time>2026-03-29T11:27:32.845Z</time></trkpt><trkpt lat="43.164821089289106" lon="12.230708016047005"><ele>268.8</ele><time>2026-03-29T11:27:33.845Z</time></trkpt><trkpt lat="43.16476228805684" lon="12.230581200676882"><ele>269.2</ele><time>2026-03-29T11:27:34.845Z</time></trkpt><trkpt lat="43.164715485194755" lon="12.2304484709"><ele>269.6</ele><time>2026-03-29T11:27:35.845Z</time></trkpt><trkpt lat="43.164681741606216" lon="12.230296522689336"><ele>270.0</ele><time>2026-03-29T11:27:36.845Z</time></trkpt><trkpt lat="43.164668978375104" lon="12.230121539031948"><ele>270.0</ele><time>2026-03-29T11:27:37.845Z</time></trkpt><trkpt lat="43.16466720672563" lon="12.229962081082196"><ele>270.0</ele><time>2026-03-29T11:27:38.845Z</time></trkpt><trkpt lat="43.16469264947129" lon="12.229801952834986"><ele>270.0</ele><time>2026-03-29T11:27:39.845Z</time></trkpt><trkpt lat="43.164719300138806" lon="12.229651236445276"><ele>270.0</ele><time>2026-03-29T11:27:40.845Z</time></trkpt><trkpt lat="43.1647624794801" lon="12.229510858599777"><ele>269.5</ele><time>2026-03-29T11:27:41.845Z</time></trkpt><trkpt lat="43.16480237345133" lon="12.229357534973326"><ele>269.0</ele><time>2026-03-29T11:27:42.845Z</time></trkpt><trkpt lat="43.16484782663884" lon="12.229213108240112"><ele>268.5</ele><time>2026-03-29T11:27:43.845Z</time></trkpt><trkpt lat="43.16490657241661" lon="12.229065455611716"><ele>268.0</ele><time>2026-03-29T11:27:44.845Z</time></trkpt><trkpt lat="43.164977407711305" lon="12.228895487647957"><ele>267.0</ele><time>2026-03-29T11:27:45.845Z</time></trkpt><trkpt lat="43.16505303683719" lon="12.228708529106127"><ele>266.0</ele><time>2026-03-29T11:27:46.845Z</time></trkpt><trkpt lat="43.165130168946014" lon="12.228531926917405"><ele>265.0</ele><time>2026-03-29T11:27:47.845Z</time></trkpt><trkpt lat="43.16520937727859" lon="12.228358705695802"><ele>265.0</ele><time>2026-03-29T11:27:48.845Z</time></trkpt><trkpt lat="43.16529034086317" lon="12.22821217836257"><ele>265.0</ele><time>2026-03-29T11:27:49.845Z</time></trkpt><trkpt lat="43.1653793955426" lon="12.228106397475308"><ele>265.0</ele><time>2026-03-29T11:27:50.845Z</time></trkpt><trkpt lat="43.16545474466718" lon="12.228022851198304"><ele>265.0</ele><time>2026-03-29T11:27:51.847Z</time></trkpt><trkpt lat="43.16551627988424" lon="12.227943460489504"><ele>265.0</ele><time>2026-03-29T11:27:52.846Z</time></trkpt><trkpt lat="43.1655741076214" lon="12.227853545675478"><ele>264.25</ele><time>2026-03-29T11:27:53.846Z</time></trkpt><trkpt lat="43.16564099666037" lon="12.227790477867522"><ele>263.5</ele><time>2026-03-29T11:27:54.846Z</time></trkpt><trkpt lat="43.16573195293702" lon="12.227722613227343"><ele>262.75</ele><time>2026-03-29T11:27:55.847Z</time></trkpt><trkpt lat="43.16587785609935" lon="12.227640267508153"><ele>262.0</ele><time>2026-03-29T11:27:56.847Z</time></trkpt><trkpt lat="43.16602576922894" lon="12.227495935217462"><ele>261.66666666666663</ele><time>2026-03-29T11:27:57.846Z</time></trkpt><trkpt lat="43.16616433476125" lon="12.227327543642108"><ele>261.3333333333333</ele><time>2026-03-29T11:27:58.846Z</time></trkpt><trkpt lat="43.16630292631769" lon="12.22718184404219"><ele>261.0</ele><time>2026-03-29T11:27:59.846Z</time></trkpt><trkpt lat="43.16643991868445" lon="12.227057012896593"><ele>261.0</ele><time>2026-03-29T11:28:00.846Z</time></trkpt><trkpt lat="43.16656207612376" lon="12.226945372169903"><ele>261.0</ele><time>2026-03-29T11:28:01.846Z</time></trkpt><trkpt lat="43.16667027511257" lon="12.226823074415819"><ele>261.0</ele><time>2026-03-29T11:28:02.846Z</time></trkpt><trkpt lat="43.166755120215186" lon="12.226679184155163"><ele>261.0</ele><time>2026-03-29T11:28:03.846Z</time></trkpt><trkpt lat="43.16682420587039" lon="12.226543620259001"><ele>261.1666666666667</ele><time>2026-03-29T11:28:04.846Z</time></trkpt><trkpt lat="43.16688717716386" lon="12.226412969732285"><ele>261.3333333333333</ele><time>2026-03-29T11:28:05.846Z</time></trkpt><trkpt lat="43.166941471747755" lon="12.226303940644478"><ele>261.5</ele><time>2026-03-29T11:28:06.846Z</time></trkpt><trkpt lat="43.16697690937069" lon="12.226223993051956"><ele>261.66666666666663</ele><time>2026-03-29T11:28:07.846Z</time></trkpt><trkpt lat="43.16700718941486" lon="12.2261240828116"><ele>261.8333333333333</ele><time>2026-03-29T11:28:09.846Z</time></trkpt><trkpt lat="43.166959815258004" lon="12.22604466930183"><ele>262.0</ele><time>2026-03-29T11:28:11.846Z</time></trkpt><trkpt lat="43.166862131684645" lon="12.22594595413197"><ele>262.0</ele><time>2026-03-29T11:28:13.846Z</time></trkpt><trkpt lat="43.166803312460374" lon="12.22590327940193"><ele>262.0</ele><time>2026-03-29T11:28:14.846Z</time></trkpt><trkpt lat="43.166743834283146" lon="12.225840747154317"><ele>262.0</ele><time>2026-03-29T11:28:15.846Z</time></trkpt><trkpt lat="43.16667573540353" lon="12.22576805177838"><ele>262.0</ele><time>2026-03-29T11:28:16.846Z</time></trkpt><trkpt lat="43.16659905178973" lon="12.225691621405685"><ele>262.0</ele><time>2026-03-29T11:28:17.846Z</time></trkpt><trkpt lat="43.16650116991727" lon="12.225600075018706"><ele>262.0</ele><time>2026-03-29T11:28:18.846Z</time></trkpt><trkpt lat="43.166394937315246" lon="12.225493871026096"><ele>261.0</ele><time>2026-03-29T11:28:19.846Z</time></trkpt><trkpt lat="43.1662808748233" lon="12.225378880406039"><ele>260.0</ele><time>2026-03-29T11:28:20.846Z</time></trkpt><trkpt lat="43.166156841732786" lon="12.225256356276018"><ele>259.0</ele><time>2026-03-29T11:28:21.846Z</time></trkpt><trkpt lat="43.166015597269784" lon="12.225122242015981"><ele>259.0</ele><time>2026-03-29T11:28:22.846Z</time></trkpt><trkpt lat="43.165875808279395" lon="12.224986717792314"><ele>259.0</ele><time>2026-03-29T11:28:23.846Z</time></trkpt><trkpt lat="43.16572863017177" lon="12.224838451480569"><ele>259.0</ele><time>2026-03-29T11:28:24.846Z</time></trkpt><trkpt lat="43.16557658942009" lon="12.22467852216435"><ele>258.66666666666663</ele><time>2026-03-29T11:28:25.846Z</time></trkpt><trkpt lat="43.165428178273" lon="12.22450269167213"><ele>258.3333333333333</ele><time>2026-03-29T11:28:26.846Z</time></trkpt><trkpt lat="43.165281052943556" lon="12.224314781590705"><ele>258.0</ele><time>2026-03-29T11:28:27.846Z</time></trkpt><trkpt lat="43.16513292658206" lon="12.224121729319972"><ele>257.6666666666667</ele><time>2026-03-29T11:28:28.846Z</time></trkpt><trkpt lat="43.16498131454652" lon="12.223931642484647"><ele>257.33333333333337</ele><time>2026-03-29T11:28:29.846Z</time></trkpt><trkpt lat="43.164828942446434" lon="12.223736833180034"><ele>257.0</ele><time>2026-03-29T11:28:30.846Z</time></trkpt><trkpt lat="43.164678176231256" lon="12.22354166660439"><ele>256.33333333333337</ele><time>2026-03-29T11:28:31.845Z</time></trkpt><trkpt lat="43.164531861092534" lon="12.223350098771219"><ele>255.66666666666669</ele><time>2026-03-29T11:28:32.845Z</time></trkpt><trkpt lat="43.164393206414864" lon="12.223161893331016"><ele>255.0</ele><time>2026-03-29T11:28:33.845Z</time></trkpt><trkpt lat="43.16426196994289" lon="12.222983269295236"><ele>255.0</ele><time>2026-03-29T11:28:34.845Z</time></trkpt><trkpt lat="43.164140989197335" lon="12.222816942623743"><ele>255.0</ele><time>2026-03-29T11:28:35.845Z</time></trkpt><trkpt lat="43.16402861653518" lon="12.222663946695093"><ele>255.0</ele><time>2026-03-29T11:28:36.845Z</time></trkpt><trkpt lat="43.163920459391015" lon="12.222513408102863"><ele>255.0</ele><time>2026-03-29T11:28:37.845Z</time></trkpt><trkpt lat="43.16381219868914" lon="12.222370365173882"><ele>255.0</ele><time>2026-03-29T11:28:38.845Z</time></trkpt><trkpt lat="43.16372789451586" lon="12.22224999604863"><ele>255.0</ele><time>2026-03-29T11:28:39.845Z</time></trkpt><trkpt lat="43.16365863574005" lon="12.222154580048112"><ele>255.0</ele><time>2026-03-29T11:28:40.845Z</time></trkpt><trkpt lat="43.163609291709584" lon="12.222085382296092"><ele>255.0</ele><time>2026-03-29T11:28:41.845Z</time></trkpt><trkpt lat="43.16373746146132" lon="12.221945233937152"><ele>255.0</ele><time>2026-03-29T11:28:48.845Z</time></trkpt><trkpt lat="43.16381129539145" lon="12.221889451562925"><ele>255.0</ele><time>2026-03-29T11:28:50.845Z</time></trkpt><trkpt lat="43.163925426240986" lon="12.22181129616847"><ele>255.0</ele><time>2026-03-29T11:28:52.845Z</time></trkpt><trkpt lat="43.16398335758626" lon="12.221766151808957"><ele>255.0</ele><time>2026-03-29T11:28:53.845Z</time></trkpt><trkpt lat="43.16404140995496" lon="12.221718358156243"><ele>255.0</ele><time>2026-03-29T11:28:54.845Z</time></trkpt><trkpt lat="43.16409882586463" lon="12.221666779326624"><ele>255.0</ele><time>2026-03-29T11:28:55.845Z</time></trkpt><trkpt lat="43.164152910623514" lon="12.22162155530264"><ele>255.33333333333334</ele><time>2026-03-29T11:28:56.845Z</time></trkpt><trkpt lat="43.16421219861304" lon="12.221580071628175"><ele>255.66666666666669</ele><time>2026-03-29T11:28:57.845Z</time></trkpt><trkpt lat="43.16427799988773" lon="12.221528278265346"><ele>256.0</ele><time>2026-03-29T11:28:58.845Z</time></trkpt><trkpt lat="43.164345117851745" lon="12.22147788958959"><ele>256.33333333333337</ele><time>2026-03-29T11:28:59.845Z</time></trkpt><trkpt lat="43.164405370677926" lon="12.221439103061732"><ele>256.6666666666667</ele><time>2026-03-29T11:29:00.845Z</time></trkpt><trkpt lat="43.16446240096746" lon="12.221395242564189"><ele>257.0</ele><time>2026-03-29T11:29:01.845Z</time></trkpt><trkpt lat="43.16456016384129" lon="12.221316492454774"><ele>257.0</ele><time>2026-03-29T11:29:03.845Z</time></trkpt><trkpt lat="43.164641546653804" lon="12.221268446307391"><ele>257.0</ele><time>2026-03-29T11:29:05.845Z</time></trkpt><trkpt lat="43.16469342042637" lon="12.22121888339724"><ele>257.0</ele><time>2026-03-29T11:29:06.845Z</time></trkpt><trkpt lat="43.164747799170826" lon="12.221158757983297"><ele>257.0</ele><time>2026-03-29T11:29:07.845Z</time></trkpt><trkpt lat="43.16480988326963" lon="12.221096951784379"><ele>257.0</ele><time>2026-03-29T11:29:08.845Z</time></trkpt><trkpt lat="43.16487837131263" lon="12.221041999731822"><ele>257.0</ele><time>2026-03-29T11:29:09.845Z</time></trkpt><trkpt lat="43.164933425479354" lon="12.22099273153598"><ele>257.0</ele><time>2026-03-29T11:29:10.845Z</time></trkpt><trkpt lat="43.16500753481192" lon="12.220945319635039"><ele>257.2</ele><time>2026-03-29T11:29:11.845Z</time></trkpt><trkpt lat="43.16511382700809" lon="12.220884913626858"><ele>257.4</ele><time>2026-03-29T11:29:12.845Z</time></trkpt><trkpt lat="43.16523327899817" lon="12.220822101066231"><ele>257.6</ele><time>2026-03-29T11:29:13.845Z</time></trkpt><trkpt lat="43.165334106672" lon="12.220757246079332"><ele>257.8</ele><time>2026-03-29T11:29:14.845Z</time></trkpt><trkpt lat="43.165420360971034" lon="12.22070896409686"><ele>258.0</ele><time>2026-03-29T11:29:15.845Z</time></trkpt><trkpt lat="43.1655058647263" lon="12.220661418263294"><ele>258.25</ele><time>2026-03-29T11:29:16.845Z</time></trkpt><trkpt lat="43.16558857232016" lon="12.220626178005272"><ele>258.5</ele><time>2026-03-29T11:29:17.844Z</time></trkpt><trkpt lat="43.16568292056221" lon="12.220577986074602"><ele>258.75</ele><time>2026-03-29T11:29:18.844Z</time></trkpt><trkpt lat="43.16581130831782" lon="12.220506689088841"><ele>259.0</ele><time>2026-03-29T11:29:19.844Z</time></trkpt><trkpt lat="43.16594101949066" lon="12.220431652951754"><ele>259.0</ele><time>2026-03-29T11:29:20.844Z</time></trkpt><trkpt lat="43.16610051536276" lon="12.220353062712904"><ele>259.0</ele><time>2026-03-29T11:29:21.844Z</time></trkpt><trkpt lat="43.16627212060122" lon="12.220251740558632"><ele>259.0</ele><time>2026-03-29T11:29:22.844Z</time></trkpt><trkpt lat="43.16644882114864" lon="12.220154233296409"><ele>259.3333333333333</ele><time>2026-03-29T11:29:23.844Z</time></trkpt><trkpt lat="43.1666314831431" lon="12.22004829189829"><ele>259.6666666666667</ele><time>2026-03-29T11:29:24.844Z</time></trkpt><trkpt lat="43.16679449709548" lon="12.219963329940029"><ele>260.0</ele><time>2026-03-29T11:29:25.844Z</time></trkpt><trkpt lat="43.16693939136156" lon="12.2198834051607"><ele>260.0</ele><time>2026-03-29T11:29:26.844Z</time></trkpt><trkpt lat="43.16708406528706" lon="12.219807168110407"><ele>260.0</ele><time>2026-03-29T11:29:27.844Z</time></trkpt><trkpt lat="43.16722264369514" lon="12.219731328856756"><ele>260.0</ele><time>2026-03-29T11:29:28.844Z</time></trkpt><trkpt lat="43.16735729466277" lon="12.219650375795757"><ele>260.25</ele><time>2026-03-29T11:29:29.844Z</time></trkpt><trkpt lat="43.16748926978837" lon="12.219579806256611"><ele>260.5</ele><time>2026-03-29T11:29:30.844Z</time></trkpt><trkpt lat="43.16762094543042" lon="12.21950729909924"><ele>260.75</ele><time>2026-03-29T11:29:31.844Z</time></trkpt><trkpt lat="43.16775355837216" lon="12.219436737563536"><ele>261.0</ele><time>2026-03-29T11:29:32.844Z</time></trkpt><trkpt lat="43.16788547152673" lon="12.219358919153152"><ele>261.0</ele><time>2026-03-29T11:29:33.844Z</time></trkpt><trkpt lat="43.16801319183228" lon="12.219285392365755"><ele>261.0</ele><time>2026-03-29T11:29:34.844Z</time></trkpt><trkpt lat="43.16814135222035" lon="12.219212279353428"><ele>261.0</ele><time>2026-03-29T11:29:35.844Z</time></trkpt><trkpt lat="43.1682802309182" lon="12.219136559019915"><ele>261.0</ele><time>2026-03-29T11:29:36.844Z</time></trkpt><trkpt lat="43.16842880871509" lon="12.219059194009406"><ele>261.6666666666667</ele><time>2026-03-29T11:29:37.844Z</time></trkpt><trkpt lat="43.1685770600787" lon="12.218973612403557"><ele>262.33333333333337</ele><time>2026-03-29T11:29:38.844Z</time></trkpt><trkpt lat="43.16872759401423" lon="12.21889444605708"><ele>263.0</ele><time>2026-03-29T11:29:39.844Z</time></trkpt><trkpt lat="43.168876326656935" lon="12.21881442559286"><ele>263.0</ele><time>2026-03-29T11:29:40.844Z</time></trkpt><trkpt lat="43.16902185235551" lon="12.218730229430719"><ele>263.0</ele><time>2026-03-29T11:29:41.844Z</time></trkpt><trkpt lat="43.16916963409744" lon="12.21865132901173"><ele>263.0</ele><time>2026-03-29T11:29:42.844Z</time></trkpt><trkpt lat="43.16932582728758" lon="12.218567272661964"><ele>264.0</ele><time>2026-03-29T11:29:43.844Z</time></trkpt><trkpt lat="43.169472232352504" lon="12.21848252767247"><ele>265.0</ele><time>2026-03-29T11:29:44.844Z</time></trkpt><trkpt lat="43.16960288274141" lon="12.21839638788333"><ele>266.0</ele><time>2026-03-29T11:29:45.844Z</time></trkpt><trkpt lat="43.169723617659066" lon="12.218336500812915"><ele>267.0</ele><time>2026-03-29T11:29:46.844Z</time></trkpt><trkpt lat="43.16982161133825" lon="12.218284451599946"><ele>267.3333333333333</ele><time>2026-03-29T11:29:47.844Z</time></trkpt><trkpt lat="43.16991153727185" lon="12.218281398769818"><ele>267.6666666666667</ele><time>2026-03-29T11:29:48.844Z</time></trkpt><trkpt lat="43.16998005831357" lon="12.218244934951672"><ele>268.0</ele><time>2026-03-29T11:29:52.844Z</time></trkpt><trkpt lat="43.170040796851616" lon="12.218216816321803"><ele>268.33333333333337</ele><time>2026-03-29T11:29:54.844Z</time></trkpt><trkpt lat="43.170127522275344" lon="12.218176282481183"><ele>268.6666666666667</ele><time>2026-03-29T11:29:57.846Z</time></trkpt><trkpt lat="43.17021396236975" lon="12.218141212196524"><ele>269.0</ele><time>2026-03-29T11:29:59.846Z</time></trkpt><trkpt lat="43.17029969935269" lon="12.218108316938716"><ele>269.0</ele><time>2026-03-29T11:30:00.846Z</time></trkpt><trkpt lat="43.1704264828495" lon="12.218042827117612"><ele>269.0</ele><time>2026-03-29T11:30:01.845Z</time></trkpt><trkpt lat="43.170547085176075" lon="12.218013135190235"><ele>269.0</ele><time>2026-03-29T11:30:02.845Z</time></trkpt><trkpt lat="43.17066070299383" lon="12.217969172764228"><ele>269.0</ele><time>2026-03-29T11:30:03.846Z</time></trkpt><trkpt lat="43.17076964043496" lon="12.217906331105702"><ele>270.2</ele><time>2026-03-29T11:30:04.846Z</time></trkpt><trkpt lat="43.170874184308914" lon="12.21786220261086"><ele>271.4</ele><time>2026-03-29T11:30:05.846Z</time></trkpt><trkpt lat="43.17097279147012" lon="12.217834849825941"><ele>272.6</ele><time>2026-03-29T11:30:06.845Z</time></trkpt><trkpt lat="43.17106772638686" lon="12.21779525562438"><ele>273.8</ele><time>2026-03-29T11:30:07.846Z</time></trkpt><trkpt lat="43.171176908159104" lon="12.217754074342796"><ele>275.0</ele><time>2026-03-29T11:30:08.846Z</time></trkpt><trkpt lat="43.17128996247738" lon="12.217706134646432"><ele>275.0</ele><time>2026-03-29T11:30:09.845Z</time></trkpt><trkpt lat="43.17140776821098" lon="12.217667493744692"><ele>275.0</ele><time>2026-03-29T11:30:10.846Z</time></trkpt><trkpt lat="43.17153096664625" lon="12.217618076602728"><ele>275.0</ele><time>2026-03-29T11:30:11.846Z</time></trkpt><trkpt lat="43.17165257243164" lon="12.217593839240724"><ele>275.0</ele><time>2026-03-29T11:30:12.846Z</time></trkpt><trkpt lat="43.17175371995315" lon="12.217567895289195"><ele>276.2</ele><time>2026-03-29T11:30:13.846Z</time></trkpt><trkpt lat="43.171838103315444" lon="12.21755975909927"><ele>277.4</ele><time>2026-03-29T11:30:14.846Z</time></trkpt><trkpt lat="43.171935361946225" lon="12.21765282275609"><ele>278.6</ele><time>2026-03-29T11:30:16.846Z</time></trkpt><trkpt lat="43.17200746771984" lon="12.21769554690666"><ele>279.8</ele><time>2026-03-29T11:30:17.846Z</time></trkpt><trkpt lat="43.17208759675224" lon="12.217726013924985"><ele>281.0</ele><time>2026-03-29T11:30:18.846Z</time></trkpt><trkpt lat="43.17219819553306" lon="12.217773235979639"><ele>281.0</ele><time>2026-03-29T11:30:19.846Z</time></trkpt><trkpt lat="43.17232561228033" lon="12.217823324529498"><ele>281.0</ele><time>2026-03-29T11:30:20.846Z</time></trkpt><trkpt lat="43.172448171465646" lon="12.217864893917016"><ele>281.0</ele><time>2026-03-29T11:30:21.846Z</time></trkpt><trkpt lat="43.17255288596273" lon="12.217918802300698"><ele>281.0</ele><time>2026-03-29T11:30:22.846Z</time></trkpt><trkpt lat="43.17264965599493" lon="12.217953494624242"><ele>282.2</ele><time>2026-03-29T11:30:23.846Z</time></trkpt><trkpt lat="43.172745291005135" lon="12.217995687718444"><ele>283.40000000000003</ele><time>2026-03-29T11:30:24.846Z</time></trkpt><trkpt lat="43.17285391659213" lon="12.218022812995162"><ele>284.6</ele><time>2026-03-29T11:30:25.846Z</time></trkpt><trkpt lat="43.17295961358582" lon="12.218067120711074"><ele>285.8</ele><time>2026-03-29T11:30:26.846Z</time></trkpt><trkpt lat="43.173060705013164" lon="12.218131141842408"><ele>287.0</ele><time>2026-03-29T11:30:27.846Z</time></trkpt><trkpt lat="43.17315714702086" lon="12.218149087296808"><ele>288.0</ele><time>2026-03-29T11:30:28.846Z</time></trkpt><trkpt lat="43.17323584919192" lon="12.218194157085268"><ele>289.0</ele><time>2026-03-29T11:30:29.846Z</time></trkpt><trkpt lat="43.17330874332683" lon="12.218230615174429"><ele>290.0</ele><time>2026-03-29T11:30:30.846Z</time></trkpt><trkpt lat="43.173380628634995" lon="12.218252159540441"><ele>291.0</ele><time>2026-03-29T11:30:32.846Z</time></trkpt><trkpt lat="43.17338462059156" lon="12.21803943108956"><ele>292.0</ele><time>2026-03-29T11:30:36.846Z</time></trkpt><trkpt lat="43.17343905442537" lon="12.217865982665499"><ele>292.0</ele><time>2026-03-29T11:30:37.846Z</time></trkpt><trkpt lat="43.17346276942003" lon="12.217623613354455"><ele>292.0</ele><time>2026-03-29T11:30:38.845Z</time></trkpt><trkpt lat="43.17349490036361" lon="12.21742025356264"><ele>292.0</ele><time>2026-03-29T11:30:39.845Z</time></trkpt><trkpt lat="43.17352027717024" lon="12.217239226424839"><ele>290.75</ele><time>2026-03-29T11:30:40.845Z</time></trkpt><trkpt lat="43.17355735843663" lon="12.21707012918168"><ele>289.5</ele><time>2026-03-29T11:30:41.845Z</time></trkpt><trkpt lat="43.17358615691747" lon="12.216904332940896"><ele>288.25</ele><time>2026-03-29T11:30:42.845Z</time></trkpt><trkpt lat="43.17361023315454" lon="12.216741673112754"><ele>287.0</ele><time>2026-03-29T11:30:43.845Z</time></trkpt><trkpt lat="43.17363589916887" lon="12.216584252772007"><ele>286.5</ele><time>2026-03-29T11:30:44.845Z</time></trkpt><trkpt lat="43.1736550268113" lon="12.216427508651819"><ele>286.0</ele><time>2026-03-29T11:30:45.845Z</time></trkpt><trkpt lat="43.173679820090676" lon="12.216254152047082"><ele>285.5</ele><time>2026-03-29T11:30:46.845Z</time></trkpt><trkpt lat="43.17370678930163" lon="12.216073504819967"><ele>285.0</ele><time>2026-03-29T11:30:47.845Z</time></trkpt><trkpt lat="43.17372634620661" lon="12.215903481906519"><ele>285.0</ele><time>2026-03-29T11:30:48.845Z</time></trkpt><trkpt lat="43.17374869917389" lon="12.215732323593036"><ele>285.0</ele><time>2026-03-29T11:30:49.845Z</time></trkpt><trkpt lat="43.17377232658882" lon="12.215577506370714"><ele>285.0</ele><time>2026-03-29T11:30:50.845Z</time></trkpt><trkpt lat="43.17378116509179" lon="12.215436895145107"><ele>285.0</ele><time>2026-03-29T11:30:51.845Z</time></trkpt><trkpt lat="43.17378925281149" lon="12.215297598288034"><ele>285.0</ele><time>2026-03-29T11:30:52.845Z</time></trkpt><trkpt lat="43.17379955420262" lon="12.215166423902328"><ele>284.8333333333333</ele><time>2026-03-29T11:30:53.845Z</time></trkpt><trkpt lat="43.173817038179095" lon="12.215081215723199"><ele>284.6666666666667</ele><time>2026-03-29T11:30:54.845Z</time></trkpt><trkpt lat="43.17383043511664" lon="12.214985956758177"><ele>284.5</ele><time>2026-03-29T11:30:57.845Z</time></trkpt><trkpt lat="43.17375592217885" lon="12.214940907960731"><ele>284.33333333333337</ele><time>2026-03-29T11:31:00.845Z</time></trkpt><trkpt lat="43.1736767375553" lon="12.214908184587072"><ele>284.1666666666667</ele><time>2026-03-29T11:31:02.845Z</time></trkpt><trkpt lat="43.173603779096744" lon="12.214898603036884"><ele>284.0</ele><time>2026-03-29T11:31:03.845Z</time></trkpt><trkpt lat="43.173519776327076" lon="12.21488193131402"><ele>284.0</ele><time>2026-03-29T11:31:04.845Z</time></trkpt><trkpt lat="43.173424956944125" lon="12.21485035697959"><ele>284.0</ele><time>2026-03-29T11:31:05.845Z</time></trkpt><trkpt lat="43.173324658092504" lon="12.21481415599075"><ele>284.0</ele><time>2026-03-29T11:31:06.845Z</time></trkpt><trkpt lat="43.17322354750369" lon="12.214775442150794"><ele>284.0</ele><time>2026-03-29T11:31:07.845Z</time></trkpt><trkpt lat="43.17311669410968" lon="12.214729238057402"><ele>284.0</ele><time>2026-03-29T11:31:08.845Z</time></trkpt><trkpt lat="43.17301885242112" lon="12.214666928137131"><ele>283.33333333333337</ele><time>2026-03-29T11:31:09.845Z</time></trkpt><trkpt lat="43.17293375208059" lon="12.214598318510005"><ele>282.6666666666667</ele><time>2026-03-29T11:31:10.845Z</time></trkpt><trkpt lat="43.17285912645985" lon="12.214527369156045"><ele>282.0</ele><time>2026-03-29T11:31:11.845Z</time></trkpt><trkpt lat="43.17279206659221" lon="12.214461595776477"><ele>281.3333333333333</ele><time>2026-03-29T11:31:12.845Z</time></trkpt><trkpt lat="43.172733448490476" lon="12.214388497228834"><ele>280.66666666666663</ele><time>2026-03-29T11:31:13.845Z</time></trkpt><trkpt lat="43.172686655049255" lon="12.214275152440397"><ele>280.0</ele><time>2026-03-29T11:31:14.845Z</time></trkpt><trkpt lat="43.172652649289596" lon="12.214164833157497"><ele>280.0</ele><time>2026-03-29T11:31:15.845Z</time></trkpt><trkpt lat="43.1726378608288" lon="12.214028422335117"><ele>280.0</ele><time>2026-03-29T11:31:16.845Z</time></trkpt><trkpt lat="43.172644167887206" lon="12.213909483818727"><ele>280.0</ele><time>2026-03-29T11:31:17.845Z</time></trkpt><trkpt lat="43.17265708565603" lon="12.213798440030367"><ele>280.0</ele><time>2026-03-29T11:31:18.845Z</time></trkpt><trkpt lat="43.172699299802865" lon="12.213680193481853"><ele>280.0</ele><time>2026-03-29T11:31:19.845Z</time></trkpt><trkpt lat="43.17274468260117" lon="12.213572935808918"><ele>279.5</ele><time>2026-03-29T11:31:20.845Z</time></trkpt><trkpt lat="43.172812772801585" lon="12.21346234909965"><ele>279.0</ele><time>2026-03-29T11:31:21.845Z</time></trkpt><trkpt lat="43.172890793547666" lon="12.213337693728775"><ele>278.5</ele><time>2026-03-29T11:31:22.845Z</time></trkpt><trkpt lat="43.17297024129092" lon="12.213203469162119"><ele>278.0</ele><time>2026-03-29T11:31:23.845Z</time></trkpt><trkpt lat="43.173042289957884" lon="12.213089089587784"><ele>278.0</ele><time>2026-03-29T11:31:24.844Z</time></trkpt><trkpt lat="43.17311471047358" lon="12.212949627166799"><ele>278.0</ele><time>2026-03-29T11:31:25.844Z</time></trkpt><trkpt lat="43.173179152270144" lon="12.212814524110888"><ele>278.0</ele><time>2026-03-29T11:31:26.844Z</time></trkpt><trkpt lat="43.1732504839963" lon="12.212661125583038"><ele>278.0</ele><time>2026-03-29T11:31:27.844Z</time></trkpt><trkpt lat="43.173311938179125" lon="12.21250247971171"><ele>278.0</ele><time>2026-03-29T11:31:28.844Z</time></trkpt><trkpt lat="43.17336906230159" lon="12.212347223177682"><ele>278.0</ele><time>2026-03-29T11:31:29.844Z</time></trkpt><trkpt lat="43.17342742654839" lon="12.212191169384045"><ele>278.0</ele><time>2026-03-29T11:31:30.844Z</time></trkpt><trkpt lat="43.173480584065196" lon="12.212048563378254"><ele>278.0</ele><time>2026-03-29T11:31:31.844Z</time></trkpt><trkpt lat="43.17352767035849" lon="12.211907861588994"><ele>278.0</ele><time>2026-03-29T11:31:32.844Z</time></trkpt><trkpt lat="43.173561283889306" lon="12.211763300757996"><ele>278.0</ele><time>2026-03-29T11:31:33.844Z</time></trkpt><trkpt lat="43.17357871410366" lon="12.211626479204785"><ele>278.0</ele><time>2026-03-29T11:31:34.844Z</time></trkpt><trkpt lat="43.17359918126501" lon="12.211497197745201"><ele>278.0</ele><time>2026-03-29T11:31:35.844Z</time></trkpt><trkpt lat="43.17361969309486" lon="12.2113799239997"><ele>278.0</ele><time>2026-03-29T11:31:36.844Z</time></trkpt><trkpt lat="43.173662747126684" lon="12.21125228609174"><ele>277.75</ele><time>2026-03-29T11:31:37.844Z</time></trkpt><trkpt lat="43.17371586858186" lon="12.211145583607777"><ele>277.5</ele><time>2026-03-29T11:31:38.844Z</time></trkpt><trkpt lat="43.17379046458065" lon="12.211053782702473"><ele>277.25</ele><time>2026-03-29T11:31:39.844Z</time></trkpt><trkpt lat="43.173878715114164" lon="12.210979300584755"><ele>277.0</ele><time>2026-03-29T11:31:40.844Z</time></trkpt><trkpt lat="43.174071348893186" lon="12.210910947419135"><ele>277.6</ele><time>2026-03-29T11:31:42.844Z</time></trkpt><trkpt lat="43.1741604237421" lon="12.210873831911599"><ele>278.2</ele><time>2026-03-29T11:31:43.844Z</time></trkpt><trkpt lat="43.17424762945859" lon="12.210813612350185"><ele>278.8</ele><time>2026-03-29T11:31:44.844Z</time></trkpt><trkpt lat="43.17434056819923" lon="12.210716932332161"><ele>279.4</ele><time>2026-03-29T11:31:45.844Z</time></trkpt><trkpt lat="43.17443485524189" lon="12.2106000824481"><ele>280.0</ele><time>2026-03-29T11:31:46.844Z</time></trkpt><trkpt lat="43.17450880744041" lon="12.210492878735304"><ele>280.0</ele><time>2026-03-29T11:31:47.844Z</time></trkpt><trkpt lat="43.17458976033368" lon="12.210394146887168"><ele>280.0</ele><time>2026-03-29T11:31:48.844Z</time></trkpt><trkpt lat="43.174677821959605" lon="12.21032167227154"><ele>280.0</ele><time>2026-03-29T11:31:49.844Z</time></trkpt><trkpt lat="43.174779013729136" lon="12.210279835447196"><ele>280.0</ele><time>2026-03-29T11:31:50.844Z</time></trkpt><trkpt lat="43.17487565283593" lon="12.210237920692316"><ele>280.0</ele><time>2026-03-29T11:31:51.844Z</time></trkpt><trkpt lat="43.174958743218184" lon="12.210209409352206"><ele>280.66666666666663</ele><time>2026-03-29T11:31:52.844Z</time></trkpt><trkpt lat="43.17502859975657" lon="12.210183616223093"><ele>281.3333333333333</ele><time>2026-03-29T11:31:53.844Z</time></trkpt><trkpt lat="43.175135754486696" lon="12.210101488364502"><ele>282.0</ele><time>2026-03-29T11:31:55.845Z</time></trkpt><trkpt lat="43.17517683808104" lon="12.210005168315243"><ele>282.6666666666667</ele><time>2026-03-29T11:31:57.846Z</time></trkpt><trkpt lat="43.17517890275587" lon="12.209874656213268"><ele>283.33333333333337</ele><time>2026-03-29T11:31:59.847Z</time></trkpt><trkpt lat="43.17516872804733" lon="12.209785402878122"><ele>284.0</ele><time>2026-03-29T11:32:00.847Z</time></trkpt><trkpt lat="43.175148533815616" lon="12.209701610621588"><ele>284.0</ele><time>2026-03-29T11:32:01.847Z</time></trkpt><trkpt lat="43.175141205770835" lon="12.209590487487613"><ele>284.0</ele><time>2026-03-29T11:32:02.848Z</time></trkpt><trkpt lat="43.17513748911459" lon="12.209456855511585"><ele>284.0</ele><time>2026-03-29T11:32:03.85Z</time></trkpt><trkpt lat="43.17511550424837" lon="12.209311256272033"><ele>284.0</ele><time>2026-03-29T11:32:04.85Z</time></trkpt><trkpt lat="43.175093802182786" lon="12.209181196883572"><ele>284.0</ele><time>2026-03-29T11:32:05.851Z</time></trkpt><trkpt lat="43.17507312285264" lon="12.209058849711322"><ele>285.33333333333337</ele><time>2026-03-29T11:32:06.851Z</time></trkpt><trkpt lat="43.17507504938365" lon="12.208932045249323"><ele>286.6666666666667</ele><time>2026-03-29T11:32:07.85Z</time></trkpt><trkpt lat="43.17507848672074" lon="12.208819305478928"><ele>288.0</ele><time>2026-03-29T11:32:08.851Z</time></trkpt><trkpt lat="43.17510295363509" lon="12.208711849816327"><ele>289.3333333333333</ele><time>2026-03-29T11:32:09.852Z</time></trkpt><trkpt lat="43.175145922971474" lon="12.208621195395967"><ele>290.66666666666663</ele><time>2026-03-29T11:32:10.851Z</time></trkpt><trkpt lat="43.17518866269527" lon="12.20854773152559"><ele>292.0</ele><time>2026-03-29T11:32:11.852Z</time></trkpt><trkpt lat="43.175277720893064" lon="12.208423560007905"><ele>292.0</ele><time>2026-03-29T11:32:13.852Z</time></trkpt><trkpt lat="43.1753121735364" lon="12.208330099691553"><ele>292.0</ele><time>2026-03-29T11:32:14.853Z</time></trkpt><trkpt lat="43.17535192968114" lon="12.20823447631619"><ele>292.0</ele><time>2026-03-29T11:32:15.852Z</time></trkpt><trkpt lat="43.17541850870213" lon="12.20814988629946"><ele>292.0</ele><time>2026-03-29T11:32:16.853Z</time></trkpt><trkpt lat="43.17549145007907" lon="12.208050746061504"><ele>292.0</ele><time>2026-03-29T11:32:17.853Z</time></trkpt><trkpt lat="43.17556942743799" lon="12.20796085790478"><ele>294.0</ele><time>2026-03-29T11:32:18.853Z</time></trkpt><trkpt lat="43.17562752693152" lon="12.20786473661535"><ele>296.0</ele><time>2026-03-29T11:32:19.853Z</time></trkpt><trkpt lat="43.175662620106515" lon="12.207742688804368"><ele>298.0</ele><time>2026-03-29T11:32:21.853Z</time></trkpt><trkpt lat="43.175601268959134" lon="12.2077178321326"><ele>300.0</ele><time>2026-03-29T11:32:23.853Z</time></trkpt><trkpt lat="43.17555653397766" lon="12.207620834415298"><ele>302.0</ele><time>2026-03-29T11:32:26.854Z</time></trkpt><trkpt lat="43.175586324832004" lon="12.207474065656783"><ele>304.0</ele><time>2026-03-29T11:32:29.854Z</time></trkpt><trkpt lat="43.17564883647348" lon="12.2073155838574"><ele>306.3333333333333</ele><time>2026-03-29T11:32:31.854Z</time></trkpt><trkpt lat="43.17566533688619" lon="12.207205909957052"><ele>308.66666666666663</ele><time>2026-03-29T11:32:32.854Z</time></trkpt><trkpt lat="43.175657846782" lon="12.20709373258544"><ele>311.0</ele><time>2026-03-29T11:32:33.854Z</time></trkpt><trkpt lat="43.1756521234844" lon="12.207003550737156"><ele>313.3333333333333</ele><time>2026-03-29T11:32:34.854Z</time></trkpt><trkpt lat="43.17565503604574" lon="12.20690456272651"><ele>315.6666666666667</ele><time>2026-03-29T11:32:35.854Z</time></trkpt><trkpt lat="43.17564790234917" lon="12.206780846967826"><ele>318.0</ele><time>2026-03-29T11:32:36.854Z</time></trkpt><trkpt lat="43.17564157328981" lon="12.206646408143317"><ele>318.0</ele><time>2026-03-29T11:32:37.854Z</time></trkpt><trkpt lat="43.1756234215832" lon="12.206558304641824"><ele>318.0</ele><time>2026-03-29T11:32:40.854Z</time></trkpt><trkpt lat="43.175593018428394" lon="12.206361886548901"><ele>318.0</ele><time>2026-03-29T11:32:42.854Z</time></trkpt><trkpt lat="43.17552294751166" lon="12.206233149777992"><ele>318.0</ele><time>2026-03-29T11:32:43.854Z</time></trkpt><trkpt lat="43.175464205651096" lon="12.206147416691449"><ele>318.0</ele><time>2026-03-29T11:32:44.854Z</time></trkpt><trkpt lat="43.17541539776871" lon="12.206068057564993"><ele>319.1666666666667</ele><time>2026-03-29T11:32:45.854Z</time></trkpt><trkpt lat="43.175350816366226" lon="12.205994294129594"><ele>320.3333333333333</ele><time>2026-03-29T11:32:46.854Z</time></trkpt><trkpt lat="43.1752798538992" lon="12.20584884073715"><ele>321.5</ele><time>2026-03-29T11:32:48.854Z</time></trkpt><trkpt lat="43.17524502327669" lon="12.205775254538366"><ele>322.66666666666663</ele><time>2026-03-29T11:32:49.854Z</time></trkpt><trkpt lat="43.17520710226957" lon="12.205851326329963"><ele>323.8333333333333</ele><time>2026-03-29T11:33:00.854Z</time></trkpt><trkpt lat="43.17525064443012" lon="12.20596084331516"><ele>325.0</ele><time>2026-03-29T11:33:02.854Z</time></trkpt><trkpt lat="43.17529492547637" lon="12.206049214546152"><ele>325.0</ele><time>2026-03-29T11:33:03.854Z</time></trkpt><trkpt lat="43.17531398048133" lon="12.206222930637194"><ele>325.0</ele><time>2026-03-29T11:33:05.854Z</time></trkpt><trkpt lat="43.17529988517533" lon="12.206316023064586"><ele>325.0</ele><time>2026-03-29T11:33:06.854Z</time></trkpt><trkpt lat="43.17527086122773" lon="12.206420373277918"><ele>325.0</ele><time>2026-03-29T11:33:07.854Z</time></trkpt><trkpt lat="43.17524101058882" lon="12.206517923131734"><ele>325.0</ele><time>2026-03-29T11:33:08.854Z</time></trkpt><trkpt lat="43.17519189142731" lon="12.206594235794475"><ele>325.0</ele><time>2026-03-29T11:33:09.854Z</time></trkpt><trkpt lat="43.17512728519075" lon="12.206651356458291"><ele>323.8333333333333</ele><time>2026-03-29T11:33:10.854Z</time></trkpt><trkpt lat="43.17505060432654" lon="12.206720177317608"><ele>322.66666666666663</ele><time>2026-03-29T11:33:11.854Z</time></trkpt><trkpt lat="43.174980223542626" lon="12.206769244012184"><ele>321.5</ele><time>2026-03-29T11:33:12.854Z</time></trkpt><trkpt lat="43.17491954714144" lon="12.206797260063336"><ele>320.3333333333333</ele><time>2026-03-29T11:33:13.854Z</time></trkpt><trkpt lat="43.17485369579166" lon="12.206828192954818"><ele>319.1666666666667</ele><time>2026-03-29T11:33:14.854Z</time></trkpt><trkpt lat="43.17479758539946" lon="12.206873812944496"><ele>318.0</ele><time>2026-03-29T11:33:15.854Z</time></trkpt><trkpt lat="43.17470621539032" lon="12.206957366158779"><ele>317.75</ele><time>2026-03-29T11:33:17.854Z</time></trkpt><trkpt lat="43.17462266664526" lon="12.207045103577476"><ele>317.5</ele><time>2026-03-29T11:33:18.854Z</time></trkpt><trkpt lat="43.17452007924372" lon="12.207156161264274"><ele>317.25</ele><time>2026-03-29T11:33:19.854Z</time></trkpt><trkpt lat="43.17442258652027" lon="12.207261322230675"><ele>317.0</ele><time>2026-03-29T11:33:20.854Z</time></trkpt><trkpt lat="43.17433053987877" lon="12.207357552363058"><ele>317.0</ele><time>2026-03-29T11:33:21.854Z</time></trkpt><trkpt lat="43.17425090052018" lon="12.207444454166998"><ele>317.0</ele><time>2026-03-29T11:33:22.854Z</time></trkpt><trkpt lat="43.17418599552428" lon="12.207539244991887"><ele>317.0</ele><time>2026-03-29T11:33:23.854Z</time></trkpt><trkpt lat="43.17411422260619" lon="12.207628941818712"><ele>317.0</ele><time>2026-03-29T11:33:24.854Z</time></trkpt><trkpt lat="43.174031793798676" lon="12.207706639556081"><ele>317.0</ele><time>2026-03-29T11:33:25.854Z</time></trkpt><trkpt lat="43.173935327215986" lon="12.207791255549855"><ele>320.75</ele><time>2026-03-29T11:33:26.853Z</time></trkpt><trkpt lat="43.17383541195689" lon="12.207890402295575"><ele>324.5</ele><time>2026-03-29T11:33:27.853Z</time></trkpt><trkpt lat="43.173739300505396" lon="12.207973458331876"><ele>328.25</ele><time>2026-03-29T11:33:28.853Z</time></trkpt><trkpt lat="43.17363112102561" lon="12.208033193719395"><ele>332.0</ele><time>2026-03-29T11:33:29.853Z</time></trkpt><trkpt lat="43.17350039099047" lon="12.208098209103536"><ele>327.0</ele><time>2026-03-29T11:33:30.853Z</time></trkpt><trkpt lat="43.17335078062116" lon="12.208170317985354"><ele>322.0</ele><time>2026-03-29T11:33:31.853Z</time></trkpt><trkpt lat="43.17318551848625" lon="12.208236904802149"><ele>317.0</ele><time>2026-03-29T11:33:32.853Z</time></trkpt><trkpt lat="43.173016087187705" lon="12.20832993702132"><ele>317.0</ele><time>2026-03-29T11:33:33.853Z</time></trkpt><trkpt lat="43.17287657989562" lon="12.208391935637126"><ele>317.0</ele><time>2026-03-29T11:33:34.853Z</time></trkpt><trkpt lat="43.17277868059027" lon="12.20843651511677"><ele>317.0</ele><time>2026-03-29T11:33:35.853Z</time></trkpt><trkpt lat="43.172699998563544" lon="12.208481481305704"><ele>317.0</ele><time>2026-03-29T11:33:36.853Z</time></trkpt><trkpt lat="43.17261219520541" lon="12.208512153299957"><ele>317.0</ele><time>2026-03-29T11:33:37.853Z</time></trkpt><trkpt lat="43.17253226069431" lon="12.208521770279054"><ele>317.0</ele><time>2026-03-29T11:33:38.853Z</time></trkpt><trkpt lat="43.17246023059819" lon="12.208503603868468"><ele>317.0</ele><time>2026-03-29T11:33:39.853Z</time></trkpt><trkpt lat="43.17237931485628" lon="12.208472056844967"><ele>317.0</ele><time>2026-03-29T11:33:40.853Z</time></trkpt><trkpt lat="43.172309947538636" lon="12.208476240741028"><ele>317.0</ele><time>2026-03-29T11:33:41.853Z</time></trkpt><trkpt lat="43.17223577350272" lon="12.208525284801096"><ele>317.0</ele><time>2026-03-29T11:33:42.853Z</time></trkpt><trkpt lat="43.172141306839194" lon="12.208587089704551"><ele>317.0</ele><time>2026-03-29T11:33:43.853Z</time></trkpt><trkpt lat="43.17206597643366" lon="12.208590064140632"><ele>318.1666666666667</ele><time>2026-03-29T11:33:44.853Z</time></trkpt><trkpt lat="43.171975814260826" lon="12.208552964838018"><ele>319.33333333333337</ele><time>2026-03-29T11:33:45.853Z</time></trkpt><trkpt lat="43.17185548470244" lon="12.208567655082541"><ele>320.5</ele><time>2026-03-29T11:33:47.853Z</time></trkpt><trkpt lat="43.17180277349376" lon="12.20864209976143"><ele>321.6666666666667</ele><time>2026-03-29T11:33:49.853Z</time></trkpt><trkpt lat="43.17178642848526" lon="12.208552863252118"><ele>322.8333333333333</ele><time>2026-03-29T11:33:51.853Z</time></trkpt><trkpt lat="43.17174116481013" lon="12.208471859869734"><ele>324.0</ele><time>2026-03-29T11:33:53.853Z</time></trkpt><trkpt lat="43.17163616450686" lon="12.208433452316507"><ele>324.0</ele><time>2026-03-29T11:33:55.853Z</time></trkpt><trkpt lat="43.17155208188032" lon="12.208371359265337"><ele>324.0</ele><time>2026-03-29T11:33:56.853Z</time></trkpt><trkpt lat="43.17145517880225" lon="12.208334225953735"><ele>324.0</ele><time>2026-03-29T11:33:57.853Z</time></trkpt><trkpt lat="43.1713574970546" lon="12.208309884697506"><ele>324.0</ele><time>2026-03-29T11:33:58.853Z</time></trkpt><trkpt lat="43.171281352139516" lon="12.208297976044435"><ele>324.0</ele><time>2026-03-29T11:33:59.853Z</time></trkpt><trkpt lat="43.171265893896184" lon="12.208210020340095"><ele>324.0</ele><time>2026-03-29T11:34:01.853Z</time></trkpt><trkpt lat="43.17124622753129" lon="12.208078798745174"><ele>330.0</ele><time>2026-03-29T11:34:03.853Z</time></trkpt><trkpt lat="43.17118826635582" lon="12.208004912797394"><ele>336.0</ele><time>2026-03-29T11:34:04.853Z</time></trkpt><trkpt lat="43.17108477872088" lon="12.207931653799657"><ele>342.0</ele><time>2026-03-29T11:34:05.853Z</time></trkpt><trkpt lat="43.17097428111675" lon="12.207891566376231"><ele>348.0</ele><time>2026-03-29T11:34:06.853Z</time></trkpt><trkpt lat="43.1708874719912" lon="12.207833728250534"><ele>354.0</ele><time>2026-03-29T11:34:07.853Z</time></trkpt><trkpt lat="43.17082383866054" lon="12.207790803350356"><ele>354.0</ele><time>2026-03-29T11:34:08.853Z</time></trkpt><trkpt lat="43.170779124626435" lon="12.207720276391862"><ele>354.0</ele><time>2026-03-29T11:34:09.855Z</time></trkpt><trkpt lat="43.17076747272567" lon="12.20758338739296"><ele>354.0</ele><time>2026-03-29T11:34:11.854Z</time></trkpt><trkpt lat="43.17084125264421" lon="12.207591365221237"><ele>354.0</ele><time>2026-03-29T11:34:14.855Z</time></trkpt><trkpt lat="43.17091922657339" lon="12.207527550977282"><ele>354.0</ele><time>2026-03-29T11:34:16.855Z</time></trkpt><trkpt lat="43.1709773321953" lon="12.207468555960343"><ele>354.0</ele><time>2026-03-29T11:34:18.855Z</time></trkpt><trkpt lat="43.17103601477215" lon="12.207361060481382"><ele>356.5</ele><time>2026-03-29T11:34:20.854Z</time></trkpt><trkpt lat="43.17109846706485" lon="12.20725443594329"><ele>359.0</ele><time>2026-03-29T11:34:22.855Z</time></trkpt><trkpt lat="43.171143827248905" lon="12.207168488217071"><ele>361.5</ele><time>2026-03-29T11:34:23.855Z</time></trkpt><trkpt lat="43.171189995620715" lon="12.207057403347038"><ele>364.0</ele><time>2026-03-29T11:34:24.855Z</time></trkpt><trkpt lat="43.17123008998403" lon="12.20696930242358"><ele>366.5</ele><time>2026-03-29T11:34:25.855Z</time></trkpt><trkpt lat="43.17127313373081" lon="12.206889604315265"><ele>369.0</ele><time>2026-03-29T11:34:26.855Z</time></trkpt><trkpt lat="43.17123037892281" lon="12.206807999905992"><ele>369.0</ele><time>2026-03-29T11:34:32.854Z</time></trkpt><trkpt lat="43.171205731404534" lon="12.206723070731089"><ele>369.0</ele><time>2026-03-29T11:34:36.854Z</time></trkpt><trkpt lat="43.17117652991079" lon="12.206617034472432"><ele>369.0</ele><time>2026-03-29T11:34:39.854Z</time></trkpt><trkpt lat="43.17110648755539" lon="12.206587184032852"><ele>369.0</ele><time>2026-03-29T11:34:41.854Z</time></trkpt><trkpt lat="43.17104084758789" lon="12.206555691383853"><ele>369.0</ele><time>2026-03-29T11:34:43.854Z</time></trkpt><trkpt lat="43.170919395550854" lon="12.206480855469934"><ele>369.0</ele><time>2026-03-29T11:34:45.854Z</time></trkpt><trkpt lat="43.17084421509491" lon="12.206452473683106"><ele>373.2</ele><time>2026-03-29T11:34:46.854Z</time></trkpt><trkpt lat="43.17079142129489" lon="12.206397162650715"><ele>377.4</ele><time>2026-03-29T11:34:51.854Z</time></trkpt><trkpt lat="43.170842867720005" lon="12.206315327741377"><ele>381.6</ele><time>2026-03-29T11:34:56.854Z</time></trkpt><trkpt lat="43.17094240563193" lon="12.206206352036684"><ele>385.8</ele><time>2026-03-29T11:34:58.854Z</time></trkpt><trkpt lat="43.170994315188786" lon="12.20610068166934"><ele>390.0</ele><time>2026-03-29T11:34:59.854Z</time></trkpt><trkpt lat="43.171048927382316" lon="12.20600450408037"><ele>390.0</ele><time>2026-03-29T11:35:00.854Z</time></trkpt><trkpt lat="43.17111032213888" lon="12.205895037379177"><ele>390.0</ele><time>2026-03-29T11:35:01.854Z</time></trkpt><trkpt lat="43.17119523042208" lon="12.205705478253991"><ele>390.0</ele><time>2026-03-29T11:35:02.854Z</time></trkpt><trkpt lat="43.17124164181056" lon="12.205608930941441"><ele>390.0</ele><time>2026-03-29T11:35:03.854Z</time></trkpt><trkpt lat="43.1712946732747" lon="12.205518326984976"><ele>390.0</ele><time>2026-03-29T11:35:04.854Z</time></trkpt><trkpt lat="43.17133170303449" lon="12.205408851086947"><ele>394.66666666666663</ele><time>2026-03-29T11:35:05.854Z</time></trkpt><trkpt lat="43.17137623716649" lon="12.205231838793098"><ele>399.3333333333333</ele><time>2026-03-29T11:35:06.854Z</time></trkpt><trkpt lat="43.17141646501829" lon="12.205098036571446"><ele>404.0</ele><time>2026-03-29T11:35:07.854Z</time></trkpt><trkpt lat="43.17165089107993" lon="12.20504096664719"><ele>403.99999999999994</ele><time>2026-03-29T11:35:14.854Z</time></trkpt><trkpt lat="43.17172879821419" lon="12.205016399528706"><ele>404.0</ele><time>2026-03-29T11:35:15.854Z</time></trkpt><trkpt lat="43.171830661087746" lon="12.20498085978627"><ele>404.0</ele><time>2026-03-29T11:35:18.854Z</time></trkpt><trkpt lat="43.17190157235205" lon="12.204948323807495"><ele>404.0</ele><time>2026-03-29T11:35:19.854Z</time></trkpt><trkpt lat="43.17196875634676" lon="12.20488122653675"><ele>403.99999999999994</ele><time>2026-03-29T11:35:20.854Z</time></trkpt><trkpt lat="43.17203529938751" lon="12.204808495938202"><ele>404.0</ele><time>2026-03-29T11:35:21.853Z</time></trkpt><trkpt lat="43.17208287599377" lon="12.20474288897052"><ele>404.79999999999995</ele><time>2026-03-29T11:35:22.853Z</time></trkpt><trkpt lat="43.17214975448725" lon="12.204621550759507"><ele>405.59999999999997</ele><time>2026-03-29T11:35:24.853Z</time></trkpt><trkpt lat="43.172183874380096" lon="12.204516307380713"><ele>406.4</ele><time>2026-03-29T11:35:25.853Z</time></trkpt><trkpt lat="43.1722357017281" lon="12.204395301782858"><ele>407.2</ele><time>2026-03-29T11:35:26.853Z</time></trkpt><trkpt lat="43.17229574801963" lon="12.204240432942234"><ele>408.0</ele><time>2026-03-29T11:35:27.853Z</time></trkpt><trkpt lat="43.17235736272554" lon="12.204073630191248"><ele>412.75</ele><time>2026-03-29T11:35:28.853Z</time></trkpt><trkpt lat="43.172432249533664" lon="12.203878982354283"><ele>417.5</ele><time>2026-03-29T11:35:29.853Z</time></trkpt><trkpt lat="43.17249088206421" lon="12.203738941310668"><ele>422.25</ele><time>2026-03-29T11:35:30.853Z</time></trkpt><trkpt lat="43.172531846900185" lon="12.203670645873956"><ele>427.0</ele><time>2026-03-29T11:35:31.853Z</time></trkpt><trkpt lat="43.17262612676409" lon="12.203565345993683"><ele>427.0</ele><time>2026-03-29T11:35:34.853Z</time></trkpt><trkpt lat="43.172702558673016" lon="12.203464310148089"><ele>427.00000000000006</ele><time>2026-03-29T11:35:36.853Z</time></trkpt><trkpt lat="43.17274800607241" lon="12.203345748831893"><ele>427.00000000000006</ele><time>2026-03-29T11:35:37.853Z</time></trkpt><trkpt lat="43.17277803134998" lon="12.203248444869146"><ele>427.0</ele><time>2026-03-29T11:35:38.853Z</time></trkpt><trkpt lat="43.17280016643646" lon="12.203094488890056"><ele>427.0</ele><time>2026-03-29T11:35:40.853Z</time></trkpt><trkpt lat="43.172833184931186" lon="12.20295889205723"><ele>429.0</ele><time>2026-03-29T11:35:42.853Z</time></trkpt><trkpt lat="43.17287811942187" lon="12.202852221994746"><ele>431.00000000000006</ele><time>2026-03-29T11:35:43.853Z</time></trkpt><trkpt lat="43.17292820693186" lon="12.20271608804651"><ele>433.00000000000006</ele><time>2026-03-29T11:35:44.853Z</time></trkpt><trkpt lat="43.17298883336406" lon="12.202543182009785"><ele>435.0</ele><time>2026-03-29T11:35:45.853Z</time></trkpt><trkpt lat="43.17302450181912" lon="12.202430686131294"><ele>437.0</ele><time>2026-03-29T11:35:46.853Z</time></trkpt><trkpt lat="43.17305801524475" lon="12.202296557020516"><ele>437.0</ele><time>2026-03-29T11:35:48.853Z</time></trkpt><trkpt lat="43.17306321256465" lon="12.202183817977682"><ele>437.00000000000006</ele><time>2026-03-29T11:35:49.853Z</time></trkpt><trkpt lat="43.1730537122137" lon="12.202079971500314"><ele>437.00000000000006</ele><time>2026-03-29T11:35:50.853Z</time></trkpt><trkpt lat="43.173014225536924" lon="12.201955105004625"><ele>437.0</ele><time>2026-03-29T11:35:51.853Z</time></trkpt><trkpt lat="43.17298258969126" lon="12.201810889688266"><ele>437.0</ele><time>2026-03-29T11:35:52.853Z</time></trkpt><trkpt lat="43.172952786294196" lon="12.201621991218428"><ele>434.66666666666663</ele><time>2026-03-29T11:35:53.853Z</time></trkpt><trkpt lat="43.17295975848734" lon="12.201478087727505"><ele>432.3333333333333</ele><time>2026-03-29T11:35:54.853Z</time></trkpt><trkpt lat="43.17292371179151" lon="12.201366131903375"><ele>430.0</ele><time>2026-03-29T11:35:55.853Z</time></trkpt><trkpt lat="43.172880313579505" lon="12.201263232754116"><ele>427.66666666666663</ele><time>2026-03-29T11:35:57.853Z</time></trkpt><trkpt lat="43.17286656688376" lon="12.201161814672943"><ele>425.3333333333333</ele><time>2026-03-29T11:35:58.853Z</time></trkpt><trkpt lat="43.172848416362285" lon="12.20105503054765"><ele>423.0</ele><time>2026-03-29T11:35:59.853Z</time></trkpt><trkpt lat="43.172798869819694" lon="12.200959917751454"><ele>423.0</ele><time>2026-03-29T11:36:00.853Z</time></trkpt><trkpt lat="43.17272088006631" lon="12.200906321856953"><ele>423.0</ele><time>2026-03-29T11:36:01.853Z</time></trkpt><trkpt lat="43.1726338958348" lon="12.20078413596379"><ele>423.0</ele><time>2026-03-29T11:36:03.853Z</time></trkpt><trkpt lat="43.17259001289394" lon="12.200679514499853"><ele>423.0</ele><time>2026-03-29T11:36:04.853Z</time></trkpt><trkpt lat="43.172547125265304" lon="12.200584817858616"><ele>423.0</ele><time>2026-03-29T11:36:05.853Z</time></trkpt><trkpt lat="43.172511782766" lon="12.200488370426363"><ele>422.3333333333333</ele><time>2026-03-29T11:36:06.853Z</time></trkpt><trkpt lat="43.17247527052458" lon="12.200399310499181"><ele>421.66666666666663</ele><time>2026-03-29T11:36:07.853Z</time></trkpt><trkpt lat="43.172432751987145" lon="12.200314707103182"><ele>421.0</ele><time>2026-03-29T11:36:08.853Z</time></trkpt><trkpt lat="43.17231685597016" lon="12.200260500945102"><ele>420.3333333333333</ele><time>2026-03-29T11:36:10.853Z</time></trkpt><trkpt lat="43.17224450989108" lon="12.200255655756944"><ele>419.66666666666663</ele><time>2026-03-29T11:36:11.852Z</time></trkpt><trkpt lat="43.17216443366969" lon="12.200250347346342"><ele>419.0</ele><time>2026-03-29T11:36:12.852Z</time></trkpt><trkpt lat="43.17208593953558" lon="12.200240888813347"><ele>418.99999999999994</ele><time>2026-03-29T11:36:13.852Z</time></trkpt><trkpt lat="43.172018843602864" lon="12.200254423187467"><ele>419.0</ele><time>2026-03-29T11:36:14.852Z</time></trkpt><trkpt lat="43.171948521561774" lon="12.200266539372405"><ele>419.0</ele><time>2026-03-29T11:36:15.855Z</time></trkpt><trkpt lat="43.17188834258639" lon="12.200301582362158"><ele>419.0</ele><time>2026-03-29T11:36:16.854Z</time></trkpt><trkpt lat="43.171779611414145" lon="12.200341573443858"><ele>418.99999999999994</ele><time>2026-03-29T11:36:18.855Z</time></trkpt><trkpt lat="43.17169885124256" lon="12.200383299342402"><ele>419.0</ele><time>2026-03-29T11:36:20.855Z</time></trkpt><trkpt lat="43.171620638498744" lon="12.200422264516712"><ele>418.99999999999994</ele><time>2026-03-29T11:36:22.854Z</time></trkpt><trkpt lat="43.171548438101006" lon="12.200417920797504"><ele>419.0</ele><time>2026-03-29T11:36:25.854Z</time></trkpt><trkpt lat="43.17149080080586" lon="12.200470367035754"><ele>419.0</ele><time>2026-03-29T11:36:29.854Z</time></trkpt><trkpt lat="43.17143406819972" lon="12.200515258750643"><ele>419.0</ele><time>2026-03-29T11:36:31.854Z</time></trkpt><trkpt lat="43.17133826378108" lon="12.200551051693703"><ele>418.99999999999994</ele><time>2026-03-29T11:36:33.854Z</time></trkpt><trkpt lat="43.171248061541725" lon="12.200573577458288"><ele>419.0</ele><time>2026-03-29T11:36:35.854Z</time></trkpt><trkpt lat="43.17111631927285" lon="12.200661481812094"><ele>423.16666666666663</ele><time>2026-03-29T11:36:37.854Z</time></trkpt><trkpt lat="43.171028284759394" lon="12.200709545391225"><ele>427.3333333333333</ele><time>2026-03-29T11:36:38.854Z</time></trkpt><trkpt lat="43.17096202531978" lon="12.200729082543651"><ele>431.5</ele><time>2026-03-29T11:36:39.854Z</time></trkpt><trkpt lat="43.170890085899366" lon="12.200749508699444"><ele>435.66666666666663</ele><time>2026-03-29T11:36:40.854Z</time></trkpt><trkpt lat="43.17078037476123" lon="12.200808796547152"><ele>439.8333333333333</ele><time>2026-03-29T11:36:42.854Z</time></trkpt><trkpt lat="43.17072365602437" lon="12.200855162615383"><ele>444.0</ele><time>2026-03-29T11:36:43.854Z</time></trkpt><trkpt lat="43.17065824485549" lon="12.200907081939958"><ele>444.4285714285714</ele><time>2026-03-29T11:36:44.854Z</time></trkpt><trkpt lat="43.17057712363191" lon="12.20094452934942"><ele>444.8571428571429</ele><time>2026-03-29T11:36:45.854Z</time></trkpt><trkpt lat="43.170511755392404" lon="12.200958312500111"><ele>445.2857142857143</ele><time>2026-03-29T11:36:46.854Z</time></trkpt><trkpt lat="43.170434361857446" lon="12.200962520696208"><ele>445.71428571428567</ele><time>2026-03-29T11:36:47.854Z</time></trkpt><trkpt lat="43.170376037210374" lon="12.20099998853108"><ele>446.1428571428571</ele><time>2026-03-29T11:36:48.854Z</time></trkpt><trkpt lat="43.1703103864441" lon="12.201046530674569"><ele>446.57142857142856</ele><time>2026-03-29T11:36:49.854Z</time></trkpt><trkpt lat="43.17025467019678" lon="12.201095421517488"><ele>447.0</ele><time>2026-03-29T11:36:50.854Z</time></trkpt><trkpt lat="43.17017316155817" lon="12.201111896554096"><ele>447.0</ele><time>2026-03-29T11:36:52.854Z</time></trkpt><trkpt lat="43.17007635388996" lon="12.20113236872032"><ele>447.0</ele><time>2026-03-29T11:36:54.854Z</time></trkpt><trkpt lat="43.17001761568976" lon="12.201169682218515"><ele>447.0</ele><time>2026-03-29T11:36:55.854Z</time></trkpt><trkpt lat="43.16995368239449" lon="12.201210370134326"><ele>447.0</ele><time>2026-03-29T11:36:56.853Z</time></trkpt><trkpt lat="43.16989571644897" lon="12.201250608598228"><ele>447.0</ele><time>2026-03-29T11:36:57.853Z</time></trkpt><trkpt lat="43.169801200388534" lon="12.201238986458726"><ele>447.0</ele><time>2026-03-29T11:36:59.853Z</time></trkpt><trkpt lat="43.16968597153198" lon="12.201198513792686"><ele>446.8333333333333</ele><time>2026-03-29T11:37:01.853Z</time></trkpt><trkpt lat="43.1695965871756" lon="12.201220044289096"><ele>446.66666666666663</ele><time>2026-03-29T11:37:03.853Z</time></trkpt><trkpt lat="43.16952969938835" lon="12.201245811679762"><ele>446.5</ele><time>2026-03-29T11:37:07.853Z</time></trkpt><trkpt lat="43.169463124370374" lon="12.20128736304487"><ele>446.3333333333333</ele><time>2026-03-29T11:41:07.852Z</time></trkpt><trkpt lat="43.169383964387755" lon="12.201304606003713"><ele>446.16666666666663</ele><time>2026-03-29T11:41:09.852Z</time></trkpt><trkpt lat="43.1692974354049" lon="12.201309243645177"><ele>446.0</ele><time>2026-03-29T11:41:11.852Z</time></trkpt><trkpt lat="43.169203457918854" lon="12.201307377456384"><ele>446.0</ele><time>2026-03-29T11:41:13.852Z</time></trkpt><trkpt lat="43.16911955902051" lon="12.201265824953817"><ele>446.0</ele><time>2026-03-29T11:41:15.852Z</time></trkpt><trkpt lat="43.169027905904194" lon="12.201251436596129"><ele>446.0</ele><time>2026-03-29T11:41:17.852Z</time></trkpt><trkpt lat="43.16895868111712" lon="12.20125479350489"><ele>446.0</ele><time>2026-03-29T11:41:18.852Z</time></trkpt><trkpt lat="43.168846142115186" lon="12.201246425846684"><ele>446.0</ele><time>2026-03-29T11:41:20.852Z</time></trkpt><trkpt lat="43.16874515497983" lon="12.201217849577413"><ele>446.20000000000005</ele><time>2026-03-29T11:41:22.852Z</time></trkpt><trkpt lat="43.16863993679977" lon="12.201196971153362"><ele>446.40000000000003</ele><time>2026-03-29T11:41:24.852Z</time></trkpt><trkpt lat="43.1685223014244" lon="12.201179856368233"><ele>446.6</ele><time>2026-03-29T11:41:26.852Z</time></trkpt><trkpt lat="43.168435906748314" lon="12.201169013327261"><ele>446.8</ele><time>2026-03-29T11:41:27.852Z</time></trkpt><trkpt lat="43.1683682746876" lon="12.201157028034297"><ele>447.0</ele><time>2026-03-29T11:41:28.852Z</time></trkpt><trkpt lat="43.16823985280482" lon="12.20112761950549"><ele>446.8</ele><time>2026-03-29T11:41:30.852Z</time></trkpt><trkpt lat="43.16813165078459" lon="12.201114232492504"><ele>446.6</ele><time>2026-03-29T11:41:32.852Z</time></trkpt><trkpt lat="43.16801228106748" lon="12.20112145054216"><ele>446.40000000000003</ele><time>2026-03-29T11:41:34.852Z</time></trkpt><trkpt lat="43.16791691756342" lon="12.20112080212774"><ele>446.20000000000005</ele><time>2026-03-29T11:41:36.852Z</time></trkpt><trkpt lat="43.16784342982919" lon="12.201094136547173"><ele>446.0</ele><time>2026-03-29T11:41:38.852Z</time></trkpt><trkpt lat="43.16775428983094" lon="12.20106177586639"><ele>445.99999999999994</ele><time>2026-03-29T11:41:40.852Z</time></trkpt><trkpt lat="43.16768968441896" lon="12.201037003181602"><ele>446.0</ele><time>2026-03-29T11:41:41.852Z</time></trkpt><trkpt lat="43.16760490782278" lon="12.201006285939402"><ele>446.0</ele><time>2026-03-29T11:41:42.852Z</time></trkpt><trkpt lat="43.16752415128432" lon="12.200980458584773"><ele>446.0</ele><time>2026-03-29T11:41:43.852Z</time></trkpt><trkpt lat="43.16745381208558" lon="12.20095167946891"><ele>445.99999999999994</ele><time>2026-03-29T11:41:44.852Z</time></trkpt><trkpt lat="43.167385969263144" lon="12.200923940731867"><ele>446.0</ele><time>2026-03-29T11:41:45.852Z</time></trkpt><trkpt lat="43.167321286294715" lon="12.200892266994538"><ele>445.49999999999994</ele><time>2026-03-29T11:41:46.852Z</time></trkpt><trkpt lat="43.16724989160844" lon="12.200867789616044"><ele>445.0</ele><time>2026-03-29T11:41:47.852Z</time></trkpt><trkpt lat="43.16718187862125" lon="12.20085495517131"><ele>444.5</ele><time>2026-03-29T11:41:48.851Z</time></trkpt><trkpt lat="43.167118387290365" lon="12.200845012942896"><ele>444.0</ele><time>2026-03-29T11:41:49.851Z</time></trkpt><trkpt lat="43.16705001368114" lon="12.200836475833567"><ele>443.49999999999994</ele><time>2026-03-29T11:41:50.851Z</time></trkpt><trkpt lat="43.1669501986647" lon="12.200827704821561"><ele>443.0</ele><time>2026-03-29T11:41:52.851Z</time></trkpt><trkpt lat="43.1668533335308" lon="12.200797569511614"><ele>443.0</ele><time>2026-03-29T11:41:54.851Z</time></trkpt><trkpt lat="43.166797267799346" lon="12.20074998140869"><ele>442.99999999999994</ele><time>2026-03-29T11:41:55.851Z</time></trkpt><trkpt lat="43.16669087144084" lon="12.200685489740664"><ele>442.99999999999994</ele><time>2026-03-29T11:41:57.851Z</time></trkpt><trkpt lat="43.166555500671116" lon="12.200712973784512"><ele>443.0</ele><time>2026-03-29T11:41:59.851Z</time></trkpt><trkpt lat="43.16645959552134" lon="12.20074782753503"><ele>443.0</ele><time>2026-03-29T11:42:00.851Z</time></trkpt><trkpt lat="43.16634452921197" lon="12.200776314926207"><ele>441.4</ele><time>2026-03-29T11:42:01.851Z</time></trkpt><trkpt lat="43.166248448841024" lon="12.20080463530901"><ele>439.79999999999995</ele><time>2026-03-29T11:42:02.851Z</time></trkpt><trkpt lat="43.16615436976463" lon="12.200830042455987"><ele>438.2</ele><time>2026-03-29T11:42:03.851Z</time></trkpt><trkpt lat="43.16605764123312" lon="12.200852094091772"><ele>436.6</ele><time>2026-03-29T11:42:04.851Z</time></trkpt><trkpt lat="43.16594994793626" lon="12.200887162006174"><ele>435.0</ele><time>2026-03-29T11:42:05.851Z</time></trkpt><trkpt lat="43.1658556307431" lon="12.200925327642079"><ele>435.0</ele><time>2026-03-29T11:42:06.851Z</time></trkpt><trkpt lat="43.16575946360792" lon="12.200936495731435"><ele>435.0</ele><time>2026-03-29T11:42:07.851Z</time></trkpt><trkpt lat="43.165666120668014" lon="12.200966180672454"><ele>435.0</ele><time>2026-03-29T11:42:08.851Z</time></trkpt><trkpt lat="43.16556324833085" lon="12.20098923282366"><ele>435.0</ele><time>2026-03-29T11:42:09.851Z</time></trkpt><trkpt lat="43.16546274803036" lon="12.201015493470747"><ele>435.0</ele><time>2026-03-29T11:42:10.851Z</time></trkpt><trkpt lat="43.16536219353351" lon="12.201047293839729"><ele>433.6</ele><time>2026-03-29T11:42:11.851Z</time></trkpt><trkpt lat="43.16525609151119" lon="12.20106953598679"><ele>432.2</ele><time>2026-03-29T11:42:12.851Z</time></trkpt><trkpt lat="43.16515915026015" lon="12.201094021233889"><ele>430.79999999999995</ele><time>2026-03-29T11:42:13.851Z</time></trkpt><trkpt lat="43.16506852450552" lon="12.201115764213219"><ele>429.4</ele><time>2026-03-29T11:42:14.851Z</time></trkpt><trkpt lat="43.16497477358915" lon="12.20113727602165"><ele>428.0</ele><time>2026-03-29T11:42:15.851Z</time></trkpt><trkpt lat="43.164891623022505" lon="12.201156917553103"><ele>425.79999999999995</ele><time>2026-03-29T11:42:16.851Z</time></trkpt><trkpt lat="43.16479963667807" lon="12.201184747533892"><ele>423.59999999999997</ele><time>2026-03-29T11:42:17.851Z</time></trkpt><trkpt lat="43.16470848966203" lon="12.201209338792555"><ele>421.4</ele><time>2026-03-29T11:42:18.851Z</time></trkpt><trkpt lat="43.16461854137415" lon="12.201230142480021"><ele>419.20000000000005</ele><time>2026-03-29T11:42:19.851Z</time></trkpt><trkpt lat="43.16453540627774" lon="12.201256785423501"><ele>417.0</ele><time>2026-03-29T11:42:20.851Z</time></trkpt><trkpt lat="43.164441849620225" lon="12.20127635335986"><ele>417.0</ele><time>2026-03-29T11:42:21.851Z</time></trkpt><trkpt lat="43.16436893266629" lon="12.2013049223594"><ele>417.0</ele><time>2026-03-29T11:42:22.851Z</time></trkpt><trkpt lat="43.164344126967755" lon="12.201388205679502"><ele>417.0</ele><time>2026-03-29T11:42:27.851Z</time></trkpt><trkpt lat="43.164346120321184" lon="12.201521584696462"><ele>417.0</ele><time>2026-03-29T11:42:31.851Z</time></trkpt><trkpt lat="43.16438791056653" lon="12.20162653552104"><ele>417.0</ele><time>2026-03-29T11:42:33.852Z</time></trkpt><trkpt lat="43.164351758044" lon="12.201709225879725"><ele>417.0</ele><time>2026-03-29T11:42:36.853Z</time></trkpt><trkpt lat="43.16427945131967" lon="12.201718317397958"><ele>415.8</ele><time>2026-03-29T11:42:39.853Z</time></trkpt><trkpt lat="43.16415366943905" lon="12.201662514932936"><ele>414.6</ele><time>2026-03-29T11:42:42.853Z</time></trkpt><trkpt lat="43.16405524187849" lon="12.201612723961919"><ele>413.40000000000003</ele><time>2026-03-29T11:42:43.853Z</time></trkpt><trkpt lat="43.16396473775144" lon="12.201590086752352"><ele>412.20000000000005</ele><time>2026-03-29T11:42:44.852Z</time></trkpt><trkpt lat="43.16387556270803" lon="12.201571783026267"><ele>411.0</ele><time>2026-03-29T11:42:45.852Z</time></trkpt><trkpt lat="43.16378862265104" lon="12.201578125075232"><ele>409.6</ele><time>2026-03-29T11:42:46.852Z</time></trkpt><trkpt lat="43.16370474917859" lon="12.201595536510144"><ele>408.20000000000005</ele><time>2026-03-29T11:42:47.852Z</time></trkpt><trkpt lat="43.16360317091498" lon="12.201638244701876"><ele>406.79999999999995</ele><time>2026-03-29T11:42:48.852Z</time></trkpt><trkpt lat="43.163476600902406" lon="12.201688629613843"><ele>405.4</ele><time>2026-03-29T11:42:49.852Z</time></trkpt><trkpt lat="43.16337657938619" lon="12.20170207526353"><ele>404.0</ele><time>2026-03-29T11:42:50.852Z</time></trkpt><trkpt lat="43.16327537831399" lon="12.201711021331652"><ele>404.4</ele><time>2026-03-29T11:42:51.852Z</time></trkpt><trkpt lat="43.16317578359226" lon="12.201700110343772"><ele>404.79999999999995</ele><time>2026-03-29T11:42:52.852Z</time></trkpt><trkpt lat="43.16308717078677" lon="12.20168154762127"><ele>405.20000000000005</ele><time>2026-03-29T11:42:53.852Z</time></trkpt><trkpt lat="43.16301685177629" lon="12.201663188143002"><ele>405.6</ele><time>2026-03-29T11:42:54.852Z</time></trkpt><trkpt lat="43.16292380974639" lon="12.201654654386656"><ele>406.0</ele><time>2026-03-29T11:42:55.852Z</time></trkpt><trkpt lat="43.162803088192575" lon="12.201664174652457"><ele>406.00000000000006</ele><time>2026-03-29T11:42:56.852Z</time></trkpt><trkpt lat="43.162702397678714" lon="12.20167589579669"><ele>406.0</ele><time>2026-03-29T11:42:57.852Z</time></trkpt><trkpt lat="43.162613000937746" lon="12.201698517772323"><ele>406.0</ele><time>2026-03-29T11:42:58.852Z</time></trkpt><trkpt lat="43.16254269932193" lon="12.201737833947961"><ele>406.0</ele><time>2026-03-29T11:42:59.852Z</time></trkpt><trkpt lat="43.16246798103165" lon="12.201784867444383"><ele>406.00000000000006</ele><time>2026-03-29T11:43:00.852Z</time></trkpt><trkpt lat="43.162400945659755" lon="12.201823616041926"><ele>406.0</ele><time>2026-03-29T11:43:01.852Z</time></trkpt><trkpt lat="43.162329936804724" lon="12.201856890908216"><ele>404.6666666666667</ele><time>2026-03-29T11:43:02.852Z</time></trkpt><trkpt lat="43.1622470049824" lon="12.201867539042489"><ele>403.33333333333337</ele><time>2026-03-29T11:43:03.852Z</time></trkpt><trkpt lat="43.16217369228527" lon="12.201864932147673"><ele>402.0</ele><time>2026-03-29T11:43:04.852Z</time></trkpt><trkpt lat="43.16210684519331" lon="12.20184786633283"><ele>400.66666666666663</ele><time>2026-03-29T11:43:05.852Z</time></trkpt><trkpt lat="43.16203230756021" lon="12.201858789650469"><ele>399.3333333333333</ele><time>2026-03-29T11:43:06.851Z</time></trkpt><trkpt lat="43.16191890157113" lon="12.20197166488271"><ele>398.0</ele><time>2026-03-29T11:43:08.851Z</time></trkpt><trkpt lat="43.1618566746746" lon="12.20204904159182"><ele>398.0</ele><time>2026-03-29T11:43:09.851Z</time></trkpt><trkpt lat="43.16177567960427" lon="12.202143473389306"><ele>398.0</ele><time>2026-03-29T11:43:10.851Z</time></trkpt><trkpt lat="43.16169981119905" lon="12.202202790766922"><ele>398.0</ele><time>2026-03-29T11:43:11.851Z</time></trkpt><trkpt lat="43.16160425326821" lon="12.202269107988972"><ele>398.0</ele><time>2026-03-29T11:43:12.851Z</time></trkpt><trkpt lat="43.16151460083952" lon="12.202321162343619"><ele>398.0</ele><time>2026-03-29T11:43:13.851Z</time></trkpt><trkpt lat="43.16141422442923" lon="12.202368837016138"><ele>398.79999999999995</ele><time>2026-03-29T11:43:14.851Z</time></trkpt><trkpt lat="43.161314925655596" lon="12.202423392290207"><ele>399.6</ele><time>2026-03-29T11:43:15.851Z</time></trkpt><trkpt lat="43.16123383047398" lon="12.202480128438227"><ele>400.4</ele><time>2026-03-29T11:43:16.851Z</time></trkpt><trkpt lat="43.16113927479058" lon="12.202552024763593"><ele>401.20000000000005</ele><time>2026-03-29T11:43:17.851Z</time></trkpt><trkpt lat="43.16105619583085" lon="12.202618380997441"><ele>402.0</ele><time>2026-03-29T11:43:18.851Z</time></trkpt><trkpt lat="43.16097791735979" lon="12.202676449045647"><ele>402.0</ele><time>2026-03-29T11:43:19.851Z</time></trkpt><trkpt lat="43.16088827121744" lon="12.202727352395259"><ele>402.0</ele><time>2026-03-29T11:43:20.851Z</time></trkpt><trkpt lat="43.1608006369527" lon="12.202789081350685"><ele>402.0</ele><time>2026-03-29T11:43:21.851Z</time></trkpt><trkpt lat="43.16072298437561" lon="12.202865812301736"><ele>402.0</ele><time>2026-03-29T11:43:22.851Z</time></trkpt><trkpt lat="43.1606423286035" lon="12.202950229687245"><ele>402.0</ele><time>2026-03-29T11:43:23.851Z</time></trkpt><trkpt lat="43.160571526239195" lon="12.203031099829568"><ele>401.5</ele><time>2026-03-29T11:43:24.851Z</time></trkpt><trkpt lat="43.1605011562207" lon="12.203081924157228"><ele>401.0</ele><time>2026-03-29T11:43:25.851Z</time></trkpt><trkpt lat="43.16043372266947" lon="12.203105257741974"><ele>400.5</ele><time>2026-03-29T11:43:26.851Z</time></trkpt><trkpt lat="43.16035010591684" lon="12.203123567232584"><ele>400.0</ele><time>2026-03-29T11:43:27.851Z</time></trkpt><trkpt lat="43.160287428566384" lon="12.20314708836157"><ele>399.5</ele><time>2026-03-29T11:43:28.851Z</time></trkpt><trkpt lat="43.16016632105489" lon="12.203232173073134"><ele>399.0</ele><time>2026-03-29T11:43:30.851Z</time></trkpt><trkpt lat="43.16009619618715" lon="12.203320158293533"><ele>399.4</ele><time>2026-03-29T11:43:31.851Z</time></trkpt><trkpt lat="43.16000398243799" lon="12.2034204897884"><ele>399.79999999999995</ele><time>2026-03-29T11:43:32.851Z</time></trkpt><trkpt lat="43.159922621529596" lon="12.203506041166463"><ele>400.20000000000005</ele><time>2026-03-29T11:43:33.851Z</time></trkpt><trkpt lat="43.15983034832233" lon="12.203579897237754"><ele>400.6</ele><time>2026-03-29T11:43:34.851Z</time></trkpt><trkpt lat="43.15974577606614" lon="12.203632023399948"><ele>401.0</ele><time>2026-03-29T11:43:35.851Z</time></trkpt><trkpt lat="43.159664631192896" lon="12.203675076209683"><ele>401.0</ele><time>2026-03-29T11:43:36.851Z</time></trkpt><trkpt lat="43.15957267834566" lon="12.203714456510943"><ele>401.0</ele><time>2026-03-29T11:43:37.851Z</time></trkpt><trkpt lat="43.1594704773965" lon="12.203750485582257"><ele>401.0</ele><time>2026-03-29T11:43:38.851Z</time></trkpt><trkpt lat="43.15936397405902" lon="12.203770040956881"><ele>401.0</ele><time>2026-03-29T11:43:39.851Z</time></trkpt><trkpt lat="43.159253016107634" lon="12.203781632865354"><ele>401.0</ele><time>2026-03-29T11:43:40.851Z</time></trkpt><trkpt lat="43.159131747901505" lon="12.203784420276273"><ele>400.75</ele><time>2026-03-29T11:43:41.851Z</time></trkpt><trkpt lat="43.159004062786636" lon="12.203797052229582"><ele>400.5</ele><time>2026-03-29T11:43:42.851Z</time></trkpt><trkpt lat="43.15888118278252" lon="12.203797308138386"><ele>400.25</ele><time>2026-03-29T11:43:43.851Z</time></trkpt><trkpt lat="43.15877240062335" lon="12.203802431334532"><ele>400.0</ele><time>2026-03-29T11:43:44.851Z</time></trkpt><trkpt lat="43.15867024807278" lon="12.20380230196989"><ele>400.00000000000006</ele><time>2026-03-29T11:43:45.851Z</time></trkpt><trkpt lat="43.15858111560053" lon="12.20381485161444"><ele>400.0</ele><time>2026-03-29T11:43:46.851Z</time></trkpt><trkpt lat="43.158505369564026" lon="12.203841602914878"><ele>400.0</ele><time>2026-03-29T11:43:47.851Z</time></trkpt><trkpt lat="43.158427158152826" lon="12.203877966693321"><ele>400.0</ele><time>2026-03-29T11:43:48.851Z</time></trkpt><trkpt lat="43.15833886946456" lon="12.20391910823753"><ele>400.00000000000006</ele><time>2026-03-29T11:43:49.851Z</time></trkpt><trkpt lat="43.15825380351246" lon="12.203963134306184"><ele>400.0</ele><time>2026-03-29T11:43:50.851Z</time></trkpt><trkpt lat="43.15816289673257" lon="12.204017479857765"><ele>402.4</ele><time>2026-03-29T11:43:51.851Z</time></trkpt><trkpt lat="43.15806052795288" lon="12.20405361857882"><ele>404.8</ele><time>2026-03-29T11:43:52.851Z</time></trkpt><trkpt lat="43.15796070993363" lon="12.204073066849872"><ele>407.20000000000005</ele><time>2026-03-29T11:43:53.851Z</time></trkpt><trkpt lat="43.157861567779555" lon="12.20411637716212"><ele>409.6</ele><time>2026-03-29T11:43:54.851Z</time></trkpt><trkpt lat="43.15774595986644" lon="12.204171419759398"><ele>412.0</ele><time>2026-03-29T11:43:55.851Z</time></trkpt><trkpt lat="43.15764837413255" lon="12.204203474534747"><ele>412.0</ele><time>2026-03-29T11:43:56.85Z</time></trkpt><trkpt lat="43.15753404940685" lon="12.204230829916407"><ele>412.0</ele><time>2026-03-29T11:43:57.85Z</time></trkpt><trkpt lat="43.15742150100387" lon="12.204260182970271"><ele>412.0</ele><time>2026-03-29T11:43:58.85Z</time></trkpt><trkpt lat="43.15731559773448" lon="12.204272294595281"><ele>412.0</ele><time>2026-03-29T11:43:59.85Z</time></trkpt><trkpt lat="43.15721294249446" lon="12.204293620889022"><ele>412.0</ele><time>2026-03-29T11:44:00.85Z</time></trkpt><trkpt lat="43.15712164439502" lon="12.20430253877147"><ele>413.1666666666667</ele><time>2026-03-29T11:44:01.85Z</time></trkpt><trkpt lat="43.15702581353484" lon="12.204293204991945"><ele>414.33333333333337</ele><time>2026-03-29T11:44:02.85Z</time></trkpt><trkpt lat="43.156930338083306" lon="12.204296849420762"><ele>415.5</ele><time>2026-03-29T11:44:03.85Z</time></trkpt><trkpt lat="43.15686131602705" lon="12.204284183683065"><ele>416.66666666666663</ele><time>2026-03-29T11:44:04.85Z</time></trkpt><trkpt lat="43.15678061336774" lon="12.204257480328582"><ele>417.8333333333333</ele><time>2026-03-29T11:44:05.85Z</time></trkpt><trkpt lat="43.15670310782914" lon="12.204225239910535"><ele>419.0</ele><time>2026-03-29T11:44:06.85Z</time></trkpt><trkpt lat="43.15664116316996" lon="12.204167989418988"><ele>419.0</ele><time>2026-03-29T11:44:07.85Z</time></trkpt><trkpt lat="43.156582261642" lon="12.204096412194561"><ele>419.0</ele><time>2026-03-29T11:44:08.85Z</time></trkpt><trkpt lat="43.15652595937088" lon="12.204021706549486"><ele>419.0</ele><time>2026-03-29T11:44:09.85Z</time></trkpt><trkpt lat="43.156418792156245" lon="12.203968553651382"><ele>419.0</ele><time>2026-03-29T11:44:10.85Z</time></trkpt><trkpt lat="43.15631461316865" lon="12.203926546667734"><ele>419.0</ele><time>2026-03-29T11:44:11.85Z</time></trkpt><trkpt lat="43.15621543931476" lon="12.203877363337332"><ele>418.2</ele><time>2026-03-29T11:44:12.85Z</time></trkpt><trkpt lat="43.156125873936915" lon="12.203823160742237"><ele>417.4</ele><time>2026-03-29T11:44:13.85Z</time></trkpt><trkpt lat="43.15603609951365" lon="12.203754582965894"><ele>416.6</ele><time>2026-03-29T11:44:14.85Z</time></trkpt><trkpt lat="43.155944230777735" lon="12.203680195026077"><ele>415.8</ele><time>2026-03-29T11:44:15.85Z</time></trkpt><trkpt lat="43.15585921979056" lon="12.203598394288694"><ele>415.0</ele><time>2026-03-29T11:44:16.85Z</time></trkpt><trkpt lat="43.15577467326992" lon="12.203514333916592"><ele>413.6</ele><time>2026-03-29T11:44:17.85Z</time></trkpt><trkpt lat="43.15569727321031" lon="12.20342357194178"><ele>412.2</ele><time>2026-03-29T11:44:18.85Z</time></trkpt><trkpt lat="43.15563711347909" lon="12.203304459752216"><ele>410.79999999999995</ele><time>2026-03-29T11:44:19.85Z</time></trkpt><trkpt lat="43.155574000211445" lon="12.203176310283107"><ele>409.4</ele><time>2026-03-29T11:44:20.85Z</time></trkpt><trkpt lat="43.155509072535494" lon="12.203071140801903"><ele>408.0</ele><time>2026-03-29T11:44:21.85Z</time></trkpt><trkpt lat="43.155426660358486" lon="12.20296129892264"><ele>408.0</ele><time>2026-03-29T11:44:22.85Z</time></trkpt><trkpt lat="43.155342624965236" lon="12.202850221714188"><ele>408.0</ele><time>2026-03-29T11:44:23.85Z</time></trkpt><trkpt lat="43.15525658582712" lon="12.202747765540108"><ele>408.0</ele><time>2026-03-29T11:44:24.85Z</time></trkpt><trkpt lat="43.15518979056421" lon="12.202645909042705"><ele>408.0</ele><time>2026-03-29T11:44:25.85Z</time></trkpt><trkpt lat="43.155129439455266" lon="12.202542726829392"><ele>408.0</ele><time>2026-03-29T11:44:26.85Z</time></trkpt><trkpt lat="43.15507860606429" lon="12.202436494072815"><ele>408.2</ele><time>2026-03-29T11:44:27.85Z</time></trkpt><trkpt lat="43.1550372614343" lon="12.202320753595226"><ele>408.4</ele><time>2026-03-29T11:44:28.85Z</time></trkpt><trkpt lat="43.15498734525007" lon="12.202219690125068"><ele>408.59999999999997</ele><time>2026-03-29T11:44:29.85Z</time></trkpt><trkpt lat="43.15491466617276" lon="12.202125542711785"><ele>408.79999999999995</ele><time>2026-03-29T11:44:30.85Z</time></trkpt><trkpt lat="43.15482507155199" lon="12.202032612185572"><ele>409.0</ele><time>2026-03-29T11:44:31.85Z</time></trkpt><trkpt lat="43.15473386389611" lon="12.201915367300787"><ele>409.5</ele><time>2026-03-29T11:44:32.85Z</time></trkpt><trkpt lat="43.154629654617324" lon="12.201798435095617"><ele>410.0</ele><time>2026-03-29T11:44:33.85Z</time></trkpt><trkpt lat="43.154529062859424" lon="12.201688918922198"><ele>410.5</ele><time>2026-03-29T11:44:34.85Z</time></trkpt><trkpt lat="43.15444234309547" lon="12.20160078584596"><ele>411.0</ele><time>2026-03-29T11:44:35.85Z</time></trkpt><trkpt lat="43.15436855428511" lon="12.201521419161919"><ele>411.0</ele><time>2026-03-29T11:44:36.85Z</time></trkpt><trkpt lat="43.15429029747976" lon="12.201464421486296"><ele>411.0</ele><time>2026-03-29T11:44:37.85Z</time></trkpt><trkpt lat="43.15422315964976" lon="12.201422579810542"><ele>411.0</ele><time>2026-03-29T11:44:39.852Z</time></trkpt><trkpt lat="43.154167368954454" lon="12.201479343726756"><ele>411.0</ele><time>2026-03-29T11:44:41.852Z</time></trkpt><trkpt lat="43.15410112194305" lon="12.201544107527543"><ele>411.0</ele><time>2026-03-29T11:44:43.852Z</time></trkpt><trkpt lat="43.15400209959114" lon="12.201544470125185"><ele>411.0</ele><time>2026-03-29T11:44:45.852Z</time></trkpt><trkpt lat="43.15391532879423" lon="12.201529125711753"><ele>411.6666666666667</ele><time>2026-03-29T11:44:47.852Z</time></trkpt><trkpt lat="43.15384550572927" lon="12.201532066163944"><ele>412.33333333333337</ele><time>2026-03-29T11:44:48.852Z</time></trkpt><trkpt lat="43.15375174252267" lon="12.201524130251688"><ele>413.0</ele><time>2026-03-29T11:44:49.852Z</time></trkpt><trkpt lat="43.15366516240566" lon="12.201517926851649"><ele>413.6666666666667</ele><time>2026-03-29T11:44:50.852Z</time></trkpt><trkpt lat="43.15358227224083" lon="12.201498851976194"><ele>414.33333333333337</ele><time>2026-03-29T11:44:51.851Z</time></trkpt><trkpt lat="43.153491532558526" lon="12.201460909626972"><ele>415.0</ele><time>2026-03-29T11:44:52.851Z</time></trkpt><trkpt lat="43.15341435749746" lon="12.201421003119956"><ele>415.0</ele><time>2026-03-29T11:44:53.851Z</time></trkpt><trkpt lat="43.15335330013679" lon="12.20137069592304"><ele>415.0</ele><time>2026-03-29T11:44:54.851Z</time></trkpt><trkpt lat="43.15327852313968" lon="12.201311319986942"><ele>415.0</ele><time>2026-03-29T11:44:55.851Z</time></trkpt><trkpt lat="43.15318103137513" lon="12.20126418561064"><ele>415.0</ele><time>2026-03-29T11:44:56.851Z</time></trkpt><trkpt lat="43.15307916844518" lon="12.201216757597905"><ele>415.0</ele><time>2026-03-29T11:44:57.851Z</time></trkpt><trkpt lat="43.15298329603911" lon="12.20118460870383"><ele>416.0</ele><time>2026-03-29T11:44:58.851Z</time></trkpt><trkpt lat="43.15289260276807" lon="12.201171987071971"><ele>417.0</ele><time>2026-03-29T11:44:59.851Z</time></trkpt><trkpt lat="43.15280676979843" lon="12.201171730749511"><ele>418.0</ele><time>2026-03-29T11:45:00.851Z</time></trkpt><trkpt lat="43.15269684060456" lon="12.201190701967814"><ele>419.0</ele><time>2026-03-29T11:45:01.851Z</time></trkpt><trkpt lat="43.15257843083261" lon="12.201195706957064"><ele>420.0</ele><time>2026-03-29T11:45:02.851Z</time></trkpt><trkpt lat="43.15247573040451" lon="12.20119441750721"><ele>420.0</ele><time>2026-03-29T11:45:03.851Z</time></trkpt><trkpt lat="43.15238229191644" lon="12.201186696094641"><ele>420.0</ele><time>2026-03-29T11:45:04.851Z</time></trkpt><trkpt lat="43.152294269916915" lon="12.201154530009772"><ele>420.0</ele><time>2026-03-29T11:45:05.851Z</time></trkpt><trkpt lat="43.15220172008019" lon="12.201096386253012"><ele>420.0</ele><time>2026-03-29T11:45:06.851Z</time></trkpt><trkpt lat="43.15211723834143" lon="12.201035352968276"><ele>420.0</ele><time>2026-03-29T11:45:07.851Z</time></trkpt><trkpt lat="43.152041752027415" lon="12.200980844591003"><ele>420.6666666666667</ele><time>2026-03-29T11:45:08.851Z</time></trkpt><trkpt lat="43.15194272599651" lon="12.20092533928095"><ele>421.33333333333337</ele><time>2026-03-29T11:45:10.851Z</time></trkpt><trkpt lat="43.15187409923478" lon="12.200935022744314"><ele>422.0</ele><time>2026-03-29T11:45:13.851Z</time></trkpt><trkpt lat="43.151926913777295" lon="12.200878806143333"><ele>422.6666666666667</ele><time>2026-03-29T11:45:23.851Z</time></trkpt><trkpt lat="43.15192452333797" lon="12.201013040706787"><ele>423.33333333333337</ele><time>2026-03-29T11:46:11.85Z</time></trkpt><trkpt lat="43.15185884168404" lon="12.20098662596822"><ele>424.0</ele><time>2026-03-29T11:51:55.805Z</time></trkpt><trkpt lat="43.151865814365344" lon="12.200892359880331"><ele>424.0</ele><time>2026-03-29T11:51:59.805Z</time></trkpt><trkpt lat="43.15195633592593" lon="12.20083981828457"><ele>424.0</ele><time>2026-03-29T11:52:01.805Z</time></trkpt><trkpt lat="43.1519782274793" lon="12.200710956721558"><ele>424.0</ele><time>2026-03-29T11:52:03.805Z</time></trkpt><trkpt lat="43.151930892461536" lon="12.200564438391897"><ele>424.0</ele><time>2026-03-29T11:52:05.805Z</time></trkpt><trkpt lat="43.15186216601117" lon="12.200424005039027"><ele>424.0</ele><time>2026-03-29T11:52:07.805Z</time></trkpt><trkpt lat="43.15187874386726" lon="12.200322906932257"><ele>422.79999999999995</ele><time>2026-03-29T11:52:08.805Z</time></trkpt><trkpt lat="43.15185874288382" lon="12.200146165264407"><ele>421.59999999999997</ele><time>2026-03-29T11:52:10.805Z</time></trkpt><trkpt lat="43.15185380510177" lon="12.200039037804567"><ele>420.4</ele><time>2026-03-29T11:52:11.805Z</time></trkpt><trkpt lat="43.151835632126975" lon="12.199948363014242"><ele>419.2</ele><time>2026-03-29T11:52:12.805Z</time></trkpt><trkpt lat="43.15183275607775" lon="12.199770709542927"><ele>418.0</ele><time>2026-03-29T11:52:14.805Z</time></trkpt><trkpt lat="43.15182155731462" lon="12.199664324203237"><ele>415.2</ele><time>2026-03-29T11:52:15.805Z</time></trkpt><trkpt lat="43.15181407052856" lon="12.199575670567906"><ele>412.4</ele><time>2026-03-29T11:52:16.805Z</time></trkpt><trkpt lat="43.15180812422775" lon="12.19940834166243"><ele>409.59999999999997</ele><time>2026-03-29T11:52:18.805Z</time></trkpt><trkpt lat="43.151773379326755" lon="12.19924264199665"><ele>406.79999999999995</ele><time>2026-03-29T11:52:20.805Z</time></trkpt><trkpt lat="43.151751266704764" lon="12.199128816761704"><ele>404.0</ele><time>2026-03-29T11:52:21.804Z</time></trkpt><trkpt lat="43.15171889188527" lon="12.199011552311463"><ele>402.2</ele><time>2026-03-29T11:52:22.804Z</time></trkpt><trkpt lat="43.15168811862148" lon="12.198888020887608"><ele>400.4</ele><time>2026-03-29T11:52:23.804Z</time></trkpt><trkpt lat="43.151656551255385" lon="12.19876880750491"><ele>398.6</ele><time>2026-03-29T11:52:24.804Z</time></trkpt><trkpt lat="43.15162093807255" lon="12.198651082074292"><ele>396.8</ele><time>2026-03-29T11:52:25.804Z</time></trkpt><trkpt lat="43.15158498922216" lon="12.198532876719092"><ele>395.0</ele><time>2026-03-29T11:52:26.804Z</time></trkpt><trkpt lat="43.1515567111355" lon="12.198423454053613"><ele>393.0</ele><time>2026-03-29T11:52:27.804Z</time></trkpt><trkpt lat="43.15152365597235" lon="12.198326798457039"><ele>391.0</ele><time>2026-03-29T11:52:28.804Z</time></trkpt><trkpt lat="43.15146788114966" lon="12.19822061251506"><ele>389.0</ele><time>2026-03-29T11:52:29.804Z</time></trkpt><trkpt lat="43.151395326316525" lon="12.198094074273461"><ele>387.0</ele><time>2026-03-29T11:52:30.804Z</time></trkpt><trkpt lat="43.15132741829462" lon="12.197959303944701"><ele>385.0</ele><time>2026-03-29T11:52:31.804Z</time></trkpt><trkpt lat="43.15125596995958" lon="12.197827601034927"><ele>385.0</ele><time>2026-03-29T11:52:32.804Z</time></trkpt><trkpt lat="43.15117994449185" lon="12.197706261922875"><ele>385.0</ele><time>2026-03-29T11:52:33.804Z</time></trkpt><trkpt lat="43.15111098656035" lon="12.197569026879853"><ele>385.0</ele><time>2026-03-29T11:52:34.804Z</time></trkpt><trkpt lat="43.15103784030235" lon="12.197447493629944"><ele>385.0</ele><time>2026-03-29T11:52:35.804Z</time></trkpt><trkpt lat="43.15097534338505" lon="12.19732259600467"><ele>386.0</ele><time>2026-03-29T11:52:36.804Z</time></trkpt><trkpt lat="43.15091051528977" lon="12.197200213278492"><ele>387.0</ele><time>2026-03-29T11:52:37.804Z</time></trkpt><trkpt lat="43.150857356568984" lon="12.197085882509366"><ele>388.0</ele><time>2026-03-29T11:52:38.804Z</time></trkpt><trkpt lat="43.15080779756737" lon="12.196978661793375"><ele>389.0</ele><time>2026-03-29T11:52:39.804Z</time></trkpt><trkpt lat="43.15076323963426" lon="12.196892144884465"><ele>390.0</ele><time>2026-03-29T11:52:40.804Z</time></trkpt><trkpt lat="43.15071148027248" lon="12.19680601901869"><ele>386.1666666666667</ele><time>2026-03-29T11:52:41.804Z</time></trkpt><trkpt lat="43.150672332420676" lon="12.196718720098117"><ele>382.3333333333333</ele><time>2026-03-29T11:52:42.804Z</time></trkpt><trkpt lat="43.15062007235472" lon="12.196597989901926"><ele>378.5</ele><time>2026-03-29T11:52:44.804Z</time></trkpt><trkpt lat="43.15054992728632" lon="12.196638963957474"><ele>374.66666666666663</ele><time>2026-03-29T11:52:48.804Z</time></trkpt><trkpt lat="43.150508602638155" lon="12.196743910770348"><ele>370.8333333333333</ele><time>2026-03-29T11:52:50.804Z</time></trkpt><trkpt lat="43.1504160216565" lon="12.19671031256101"><ele>367.0</ele><time>2026-03-29T11:52:52.804Z</time></trkpt><trkpt lat="43.15037602348712" lon="12.196642683275366"><ele>367.0</ele><time>2026-03-29T11:52:53.804Z</time></trkpt><trkpt lat="43.15033838497461" lon="12.196556681346815"><ele>367.0</ele><time>2026-03-29T11:52:54.804Z</time></trkpt><trkpt lat="43.150294878587914" lon="12.19645499412456"><ele>367.0</ele><time>2026-03-29T11:52:55.804Z</time></trkpt><trkpt lat="43.150248025196376" lon="12.19636576149224"><ele>367.0</ele><time>2026-03-29T11:52:56.804Z</time></trkpt><trkpt lat="43.15020476533105" lon="12.196275998546856"><ele>367.0</ele><time>2026-03-29T11:52:57.803Z</time></trkpt><trkpt lat="43.150159727680524" lon="12.196182897977454"><ele>367.0</ele><time>2026-03-29T11:52:58.803Z</time></trkpt><trkpt lat="43.15013655970221" lon="12.196089717295349"><ele>366.8333333333333</ele><time>2026-03-29T11:52:59.803Z</time></trkpt><trkpt lat="43.150125333543066" lon="12.195997050402163"><ele>366.66666666666663</ele><time>2026-03-29T11:53:00.803Z</time></trkpt><trkpt lat="43.15012681170143" lon="12.195898719967342"><ele>366.5</ele><time>2026-03-29T11:53:01.805Z</time></trkpt><trkpt lat="43.15016510381979" lon="12.195797133418903"><ele>366.3333333333333</ele><time>2026-03-29T11:53:02.805Z</time></trkpt><trkpt lat="43.15021908671391" lon="12.195705830750546"><ele>366.1666666666667</ele><time>2026-03-29T11:53:03.805Z</time></trkpt><trkpt lat="43.15029288384487" lon="12.195630232025358"><ele>366.0</ele><time>2026-03-29T11:53:04.805Z</time></trkpt><trkpt lat="43.1503607673344" lon="12.195587319474878"><ele>364.0</ele><time>2026-03-29T11:53:05.805Z</time></trkpt><trkpt lat="43.15043546538002" lon="12.195527413803761"><ele>362.0</ele><time>2026-03-29T11:53:06.805Z</time></trkpt><trkpt lat="43.150512196160314" lon="12.19546133010997"><ele>360.0</ele><time>2026-03-29T11:53:07.805Z</time></trkpt><trkpt lat="43.15057925174131" lon="12.195370524281884"><ele>358.0</ele><time>2026-03-29T11:53:08.804Z</time></trkpt><trkpt lat="43.15063715632286" lon="12.195281805928971"><ele>356.0</ele><time>2026-03-29T11:53:09.804Z</time></trkpt><trkpt lat="43.15070476892775" lon="12.195194038523402"><ele>357.20000000000005</ele><time>2026-03-29T11:53:10.805Z</time></trkpt><trkpt lat="43.15076966036026" lon="12.195103062944563"><ele>358.40000000000003</ele><time>2026-03-29T11:53:11.805Z</time></trkpt><trkpt lat="43.15084567279182" lon="12.19504013531925"><ele>359.6</ele><time>2026-03-29T11:53:12.805Z</time></trkpt><trkpt lat="43.15092854825945" lon="12.194995358050338"><ele>360.8</ele><time>2026-03-29T11:53:13.805Z</time></trkpt><trkpt lat="43.15102021149264" lon="12.194965604112067"><ele>362.0</ele><time>2026-03-29T11:53:14.804Z</time></trkpt><trkpt lat="43.151110088961765" lon="12.194928395083574"><ele>362.0</ele><time>2026-03-29T11:53:15.804Z</time></trkpt><trkpt lat="43.15120565734283" lon="12.194924462161653"><ele>362.0</ele><time>2026-03-29T11:53:16.804Z</time></trkpt><trkpt lat="43.151302525007125" lon="12.194926546469945"><ele>362.0</ele><time>2026-03-29T11:53:17.804Z</time></trkpt><trkpt lat="43.15138888520314" lon="12.194940054794513"><ele>362.0</ele><time>2026-03-29T11:53:18.804Z</time></trkpt><trkpt lat="43.151469854476844" lon="12.19494793775098"><ele>362.0</ele><time>2026-03-29T11:53:19.804Z</time></trkpt><trkpt lat="43.15153561283926" lon="12.194943424334053"><ele>362.0</ele><time>2026-03-29T11:53:20.804Z</time></trkpt><trkpt lat="43.15160952288517" lon="12.194952407497711"><ele>361.83333333333337</ele><time>2026-03-29T11:53:22.804Z</time></trkpt><trkpt lat="43.15162679801341" lon="12.194865296398191"><ele>361.6666666666667</ele><time>2026-03-29T11:53:26.804Z</time></trkpt><trkpt lat="43.15158094009404" lon="12.194788174251581"><ele>361.5</ele><time>2026-03-29T11:53:28.804Z</time></trkpt><trkpt lat="43.151513056893336" lon="12.19477082732087"><ele>361.3333333333333</ele><time>2026-03-29T11:53:29.804Z</time></trkpt><trkpt lat="43.1514322248152" lon="12.19476718242128"><ele>361.16666666666663</ele><time>2026-03-29T11:53:30.804Z</time></trkpt><trkpt lat="43.15133226989582" lon="12.194738149259154"><ele>361.0</ele><time>2026-03-29T11:53:31.804Z</time></trkpt><trkpt lat="43.151224168144296" lon="12.19470232566377"><ele>361.0</ele><time>2026-03-29T11:53:32.804Z</time></trkpt><trkpt lat="43.15111065008501" lon="12.19467318281787"><ele>361.0</ele><time>2026-03-29T11:53:33.804Z</time></trkpt><trkpt lat="43.1510275015084" lon="12.19465414455078"><ele>361.0</ele><time>2026-03-29T11:53:34.804Z</time></trkpt><trkpt lat="43.1509622402254" lon="12.194657027500062"><ele>361.0</ele><time>2026-03-29T11:53:41.803Z</time></trkpt><trkpt lat="43.15088691013041" lon="12.194679387914677"><ele>361.0</ele><time>2026-03-29T11:53:43.803Z</time></trkpt><trkpt lat="43.15073231915318" lon="12.194734149774467"><ele>360.5</ele><time>2026-03-29T11:53:45.803Z</time></trkpt><trkpt lat="43.150631247532694" lon="12.19476799736751"><ele>360.0</ele><time>2026-03-29T11:53:46.803Z</time></trkpt><trkpt lat="43.15054926813163" lon="12.194795886190086"><ele>359.5</ele><time>2026-03-29T11:53:47.803Z</time></trkpt><trkpt lat="43.1504713372568" lon="12.194828136351788"><ele>359.0</ele><time>2026-03-29T11:53:48.803Z</time></trkpt><trkpt lat="43.15039417444201" lon="12.19485355310841"><ele>358.5</ele><time>2026-03-29T11:53:49.803Z</time></trkpt><trkpt lat="43.150327087934855" lon="12.194869635213559"><ele>358.0</ele><time>2026-03-29T11:53:50.803Z</time></trkpt><trkpt lat="43.150244267411985" lon="12.194853401083106"><ele>358.0</ele><time>2026-03-29T11:53:52.803Z</time></trkpt><trkpt lat="43.150212516939995" lon="12.194726200292576"><ele>358.0</ele><time>2026-03-29T11:53:54.803Z</time></trkpt><trkpt lat="43.150171692346014" lon="12.194655838551718"><ele>358.0</ele><time>2026-03-29T11:53:56.803Z</time></trkpt><trkpt lat="43.150146797200044" lon="12.19456182729364"><ele>358.0</ele><time>2026-03-29T11:53:59.803Z</time></trkpt><trkpt lat="43.15010853933812" lon="12.194453897776627"><ele>358.0</ele><time>2026-03-29T11:54:01.803Z</time></trkpt><trkpt lat="43.15004777402225" lon="12.194307775171266"><ele>358.0</ele><time>2026-03-29T11:54:03.803Z</time></trkpt><trkpt lat="43.15000506369337" lon="12.19423839044705"><ele>358.0</ele><time>2026-03-29T11:54:04.803Z</time></trkpt><trkpt lat="43.14999608777815" lon="12.194125959902472"><ele>358.0</ele><time>2026-03-29T11:54:05.803Z</time></trkpt><trkpt lat="43.14994108086531" lon="12.194063139303058"><ele>358.0</ele><time>2026-03-29T11:54:06.803Z</time></trkpt><trkpt lat="43.14983617469628" lon="12.193961163288414"><ele>358.0</ele><time>2026-03-29T11:54:08.803Z</time></trkpt><trkpt lat="43.149775332190664" lon="12.193903886504817"><ele>358.0</ele><time>2026-03-29T11:54:09.803Z</time></trkpt><trkpt lat="43.14972163761802" lon="12.193853815499727"><ele>358.0</ele><time>2026-03-29T11:54:10.803Z</time></trkpt><trkpt lat="43.14966578353185" lon="12.193795987261806"><ele>358.0</ele><time>2026-03-29T11:54:11.803Z</time></trkpt><trkpt lat="43.149609997115" lon="12.19373140916046"><ele>358.0</ele><time>2026-03-29T11:54:12.803Z</time></trkpt><trkpt lat="43.149550683091974" lon="12.193648073637156"><ele>358.0</ele><time>2026-03-29T11:54:13.803Z</time></trkpt><trkpt lat="43.149492369425836" lon="12.193544857900376"><ele>358.0</ele><time>2026-03-29T11:54:14.803Z</time></trkpt><trkpt lat="43.149423948134455" lon="12.193409933669823"><ele>358.0</ele><time>2026-03-29T11:54:15.802Z</time></trkpt><trkpt lat="43.14934145913648" lon="12.193238624182522"><ele>360.0</ele><time>2026-03-29T11:54:16.802Z</time></trkpt><trkpt lat="43.14926816437783" lon="12.19306783492763"><ele>362.0</ele><time>2026-03-29T11:54:17.802Z</time></trkpt><trkpt lat="43.149212172646784" lon="12.192922653771163"><ele>364.0</ele><time>2026-03-29T11:54:18.802Z</time></trkpt><trkpt lat="43.14916047079651" lon="12.192791761935585"><ele>366.0</ele><time>2026-03-29T11:54:19.802Z</time></trkpt><trkpt lat="43.149099696460304" lon="12.192676242423456"><ele>366.0</ele><time>2026-03-29T11:54:20.802Z</time></trkpt><trkpt lat="43.14906688008677" lon="12.192546092478146"><ele>366.0</ele><time>2026-03-29T11:54:21.802Z</time></trkpt><trkpt lat="43.14902706106724" lon="12.192434381589297"><ele>366.0</ele><time>2026-03-29T11:54:22.802Z</time></trkpt><trkpt lat="43.148998153348835" lon="12.192320106544479"><ele>366.0</ele><time>2026-03-29T11:54:23.802Z</time></trkpt><trkpt lat="43.148982826844346" lon="12.192175818723483"><ele>366.0</ele><time>2026-03-29T11:54:24.802Z</time></trkpt><trkpt lat="43.14899837471637" lon="12.192028990460841"><ele>366.20000000000005</ele><time>2026-03-29T11:54:25.802Z</time></trkpt><trkpt lat="43.14901948953583" lon="12.191887584927652"><ele>366.40000000000003</ele><time>2026-03-29T11:54:26.802Z</time></trkpt><trkpt lat="43.14905607770645" lon="12.191741409985873"><ele>366.6</ele><time>2026-03-29T11:54:27.802Z</time></trkpt><trkpt lat="43.14909499729198" lon="12.191587643967223"><ele>366.8</ele><time>2026-03-29T11:54:28.802Z</time></trkpt><trkpt lat="43.149131888988926" lon="12.191443387258083"><ele>367.0</ele><time>2026-03-29T11:54:29.802Z</time></trkpt><trkpt lat="43.14917499287789" lon="12.191314898423602"><ele>367.0</ele><time>2026-03-29T11:54:30.802Z</time></trkpt><trkpt lat="43.14922151564311" lon="12.191185974442634"><ele>367.0</ele><time>2026-03-29T11:54:31.802Z</time></trkpt><trkpt lat="43.14926102762645" lon="12.191066014101777"><ele>367.0</ele><time>2026-03-29T11:54:32.802Z</time></trkpt><trkpt lat="43.1493035047478" lon="12.190936404632458"><ele>367.0</ele><time>2026-03-29T11:54:33.802Z</time></trkpt><trkpt lat="43.14934672322011" lon="12.190803711235066"><ele>367.0</ele><time>2026-03-29T11:54:34.802Z</time></trkpt><trkpt lat="43.1493873607829" lon="12.190682437167068"><ele>368.0</ele><time>2026-03-29T11:54:35.802Z</time></trkpt><trkpt lat="43.14941662128741" lon="12.190551926446137"><ele>369.0</ele><time>2026-03-29T11:54:36.802Z</time></trkpt><trkpt lat="43.14942697072471" lon="12.190410120838843"><ele>370.0</ele><time>2026-03-29T11:54:37.802Z</time></trkpt><trkpt lat="43.14944693635697" lon="12.19024789706832"><ele>371.0</ele><time>2026-03-29T11:54:38.802Z</time></trkpt><trkpt lat="43.149430345444024" lon="12.190067159236916"><ele>371.0</ele><time>2026-03-29T11:54:39.802Z</time></trkpt><trkpt lat="43.14940180232829" lon="12.189876271532654"><ele>371.0</ele><time>2026-03-29T11:54:40.802Z</time></trkpt><trkpt lat="43.14940570019876" lon="12.189668321588762"><ele>371.0</ele><time>2026-03-29T11:54:41.802Z</time></trkpt><trkpt lat="43.14940812923242" lon="12.189483557342554"><ele>371.0</ele><time>2026-03-29T11:54:42.802Z</time></trkpt><trkpt lat="43.14938785107939" lon="12.189299978974905"><ele>372.25</ele><time>2026-03-29T11:54:43.802Z</time></trkpt><trkpt lat="43.14935518067681" lon="12.189126296341993"><ele>373.5</ele><time>2026-03-29T11:54:44.802Z</time></trkpt><trkpt lat="43.14927608514003" lon="12.188989935112671"><ele>374.75</ele><time>2026-03-29T11:54:45.802Z</time></trkpt><trkpt lat="43.149193311553844" lon="12.188845151053114"><ele>376.0</ele><time>2026-03-29T11:54:46.802Z</time></trkpt><trkpt lat="43.14906928960006" lon="12.188759630469093"><ele>379.66666666666663</ele><time>2026-03-29T11:54:47.802Z</time></trkpt><trkpt lat="43.1489353893837" lon="12.188674164728045"><ele>383.3333333333333</ele><time>2026-03-29T11:54:48.802Z</time></trkpt><trkpt lat="43.14879019309975" lon="12.188597058760713"><ele>387.0</ele><time>2026-03-29T11:54:49.802Z</time></trkpt><trkpt lat="43.14865080091893" lon="12.188516761404319"><ele>387.0</ele><time>2026-03-29T11:54:50.802Z</time></trkpt><trkpt lat="43.14851425219436" lon="12.188428228577031"><ele>387.0</ele><time>2026-03-29T11:54:51.802Z</time></trkpt><trkpt lat="43.14838468607402" lon="12.188337064006378"><ele>387.0</ele><time>2026-03-29T11:54:52.801Z</time></trkpt><trkpt lat="43.14826921473731" lon="12.188242286750372"><ele>387.0</ele><time>2026-03-29T11:54:53.801Z</time></trkpt><trkpt lat="43.14815267454601" lon="12.188141734550777"><ele>387.0</ele><time>2026-03-29T11:54:54.801Z</time></trkpt><trkpt lat="43.14804970532186" lon="12.188018583122854"><ele>387.0</ele><time>2026-03-29T11:54:55.801Z</time></trkpt><trkpt lat="43.147934011250136" lon="12.187900711005645"><ele>387.0</ele><time>2026-03-29T11:54:56.801Z</time></trkpt><trkpt lat="43.14782325926513" lon="12.187772182702403"><ele>387.0</ele><time>2026-03-29T11:54:57.801Z</time></trkpt><trkpt lat="43.147722074252776" lon="12.187637055882886"><ele>387.0</ele><time>2026-03-29T11:54:58.801Z</time></trkpt><trkpt lat="43.14762241549115" lon="12.187502222984909"><ele>387.0</ele><time>2026-03-29T11:54:59.801Z</time></trkpt><trkpt lat="43.14753051570689" lon="12.187371329497891"><ele>387.0</ele><time>2026-03-29T11:55:00.801Z</time></trkpt><trkpt lat="43.14744392681164" lon="12.187239591110238"><ele>387.0</ele><time>2026-03-29T11:55:01.801Z</time></trkpt><trkpt lat="43.147377541225985" lon="12.187100892163501"><ele>388.0</ele><time>2026-03-29T11:55:02.801Z</time></trkpt><trkpt lat="43.14733846383993" lon="12.186938480737686"><ele>389.0</ele><time>2026-03-29T11:55:03.801Z</time></trkpt><trkpt lat="43.14731396593393" lon="12.18675880744446"><ele>390.0</ele><time>2026-03-29T11:55:04.801Z</time></trkpt><trkpt lat="43.14730818030042" lon="12.186566939902331"><ele>391.0</ele><time>2026-03-29T11:55:05.801Z</time></trkpt><trkpt lat="43.14732287597727" lon="12.186379255594368"><ele>390.25</ele><time>2026-03-29T11:55:06.801Z</time></trkpt><trkpt lat="43.14735089217265" lon="12.186181837633276"><ele>389.5</ele><time>2026-03-29T11:55:07.804Z</time></trkpt><trkpt lat="43.147381684554276" lon="12.18599853307268"><ele>388.75</ele><time>2026-03-29T11:55:08.804Z</time></trkpt><trkpt lat="43.147412646560035" lon="12.185805994593315"><ele>388.0</ele><time>2026-03-29T11:55:09.804Z</time></trkpt><trkpt lat="43.14744519459218" lon="12.18560699126918"><ele>388.0</ele><time>2026-03-29T11:55:10.804Z</time></trkpt><trkpt lat="43.14748041370768" lon="12.185403907607883"><ele>388.0</ele><time>2026-03-29T11:55:11.803Z</time></trkpt><trkpt lat="43.147517324902225" lon="12.185196652014314"><ele>388.0</ele><time>2026-03-29T11:55:12.803Z</time></trkpt><trkpt lat="43.14755574362413" lon="12.184989489320913"><ele>388.75</ele><time>2026-03-29T11:55:13.804Z</time></trkpt><trkpt lat="43.147599542630566" lon="12.184788993575758"><ele>389.5</ele><time>2026-03-29T11:55:14.803Z</time></trkpt><trkpt lat="43.14764505481933" lon="12.184605085149519"><ele>390.25</ele><time>2026-03-29T11:55:15.803Z</time></trkpt><trkpt lat="43.147689797211044" lon="12.184430950445098"><ele>391.0</ele><time>2026-03-29T11:55:16.804Z</time></trkpt><trkpt lat="43.14773291636365" lon="12.18426355087531"><ele>391.0</ele><time>2026-03-29T11:55:17.803Z</time></trkpt><trkpt lat="43.14777660113898" lon="12.184104193074672"><ele>391.0</ele><time>2026-03-29T11:55:18.803Z</time></trkpt><trkpt lat="43.14781495491731" lon="12.183951205355172"><ele>391.0</ele><time>2026-03-29T11:55:19.804Z</time></trkpt><trkpt lat="43.14786584616402" lon="12.183806301491332"><ele>391.0</ele><time>2026-03-29T11:55:20.803Z</time></trkpt><trkpt lat="43.14789160237679" lon="12.183648465695487"><ele>389.25</ele><time>2026-03-29T11:55:21.803Z</time></trkpt><trkpt lat="43.1478945285156" lon="12.183490771566285"><ele>387.5</ele><time>2026-03-29T11:55:22.803Z</time></trkpt><trkpt lat="43.147868098839744" lon="12.183334195331145"><ele>385.75</ele><time>2026-03-29T11:55:23.803Z</time></trkpt><trkpt lat="43.147815851014066" lon="12.18318631005787"><ele>384.0</ele><time>2026-03-29T11:55:24.803Z</time></trkpt><trkpt lat="43.14774766703437" lon="12.18304483323621"><ele>380.25</ele><time>2026-03-29T11:55:25.803Z</time></trkpt><trkpt lat="43.14767919009105" lon="12.18289386820128"><ele>376.5</ele><time>2026-03-29T11:55:26.803Z</time></trkpt><trkpt lat="43.14759242732729" lon="12.18276150374823"><ele>372.75</ele><time>2026-03-29T11:55:27.803Z</time></trkpt><trkpt lat="43.147497397036496" lon="12.182636185183611"><ele>369.0</ele><time>2026-03-29T11:55:28.803Z</time></trkpt><trkpt lat="43.147387505991254" lon="12.182522755026463"><ele>368.75</ele><time>2026-03-29T11:55:29.803Z</time></trkpt><trkpt lat="43.14727414607474" lon="12.182422792289533"><ele>368.5</ele><time>2026-03-29T11:55:30.803Z</time></trkpt><trkpt lat="43.147151395400876" lon="12.182348906071693"><ele>368.25</ele><time>2026-03-29T11:55:31.803Z</time></trkpt><trkpt lat="43.14703812725896" lon="12.182255726758699"><ele>368.0</ele><time>2026-03-29T11:55:32.803Z</time></trkpt><trkpt lat="43.14693129044007" lon="12.182154505147293"><ele>368.0</ele><time>2026-03-29T11:55:33.803Z</time></trkpt><trkpt lat="43.14683508233236" lon="12.1820404711677"><ele>368.0</ele><time>2026-03-29T11:55:34.803Z</time></trkpt><trkpt lat="43.14674932403909" lon="12.181914815747957"><ele>368.0</ele><time>2026-03-29T11:55:35.803Z</time></trkpt><trkpt lat="43.14667105091232" lon="12.181779017543702"><ele>368.0</ele><time>2026-03-29T11:55:36.803Z</time></trkpt><trkpt lat="43.146596530109846" lon="12.1816456513975"><ele>369.59999999999997</ele><time>2026-03-29T11:55:37.803Z</time></trkpt><trkpt lat="43.14652836386875" lon="12.181514019471972"><ele>371.2</ele><time>2026-03-29T11:55:38.803Z</time></trkpt><trkpt lat="43.146467202352376" lon="12.181386746301353"><ele>372.8</ele><time>2026-03-29T11:55:39.803Z</time></trkpt><trkpt lat="43.1464068449719" lon="12.181265569749241"><ele>374.4</ele><time>2026-03-29T11:55:40.803Z</time></trkpt><trkpt lat="43.14635189203781" lon="12.181138963948275"><ele>376.0</ele><time>2026-03-29T11:55:41.803Z</time></trkpt><trkpt lat="43.14629109165061" lon="12.180999039477411"><ele>376.0</ele><time>2026-03-29T11:55:42.803Z</time></trkpt><trkpt lat="43.14623227565426" lon="12.180839740763835"><ele>376.0</ele><time>2026-03-29T11:55:43.803Z</time></trkpt><trkpt lat="43.146193184577946" lon="12.180656846193083"><ele>376.0</ele><time>2026-03-29T11:55:44.803Z</time></trkpt><trkpt lat="43.14613801774804" lon="12.180473675815946"><ele>376.0</ele><time>2026-03-29T11:55:45.803Z</time></trkpt><trkpt lat="43.14608239219536" lon="12.180284436988547"><ele>375.0</ele><time>2026-03-29T11:55:46.803Z</time></trkpt><trkpt lat="43.14602806675374" lon="12.180096522974146"><ele>374.0</ele><time>2026-03-29T11:55:47.803Z</time></trkpt><trkpt lat="43.14596532212079" lon="12.179924323698547"><ele>373.0</ele><time>2026-03-29T11:55:48.803Z</time></trkpt><trkpt lat="43.145914012944935" lon="12.179750277831241"><ele>372.0</ele><time>2026-03-29T11:55:49.803Z</time></trkpt><trkpt lat="43.14587020052105" lon="12.179580055790602"><ele>370.25</ele><time>2026-03-29T11:55:50.803Z</time></trkpt><trkpt lat="43.145824904832196" lon="12.179418218173572"><ele>368.5</ele><time>2026-03-29T11:55:51.803Z</time></trkpt><trkpt lat="43.14578214480538" lon="12.179262043342622"><ele>366.75</ele><time>2026-03-29T11:55:52.803Z</time></trkpt><trkpt lat="43.14575202705205" lon="12.179108846379751"><ele>365.0</ele><time>2026-03-29T11:55:53.803Z</time></trkpt><trkpt lat="43.14570260624428" lon="12.178968826151422"><ele>365.0</ele><time>2026-03-29T11:55:54.803Z</time></trkpt><trkpt lat="43.1456340495157" lon="12.178844636996681"><ele>365.0</ele><time>2026-03-29T11:55:55.803Z</time></trkpt><trkpt lat="43.14555566656788" lon="12.178745509717361"><ele>365.0</ele><time>2026-03-29T11:55:56.802Z</time></trkpt><trkpt lat="43.14546551989048" lon="12.178670690452204"><ele>365.0</ele><time>2026-03-29T11:55:57.802Z</time></trkpt><trkpt lat="43.14537403046187" lon="12.178607571584745"><ele>365.0</ele><time>2026-03-29T11:55:58.802Z</time></trkpt><trkpt lat="43.14527556969808" lon="12.178563920950312"><ele>365.0</ele><time>2026-03-29T11:55:59.802Z</time></trkpt><trkpt lat="43.145182728437696" lon="12.178476653830112"><ele>365.0</ele><time>2026-03-29T11:56:00.802Z</time></trkpt><trkpt lat="43.145074761609024" lon="12.1784020131868"><ele>365.0</ele><time>2026-03-29T11:56:01.802Z</time></trkpt><trkpt lat="43.144956367249904" lon="12.178319002981569"><ele>365.0</ele><time>2026-03-29T11:56:02.802Z</time></trkpt><trkpt lat="43.1448402472296" lon="12.178223871973913"><ele>367.25</ele><time>2026-03-29T11:56:03.802Z</time></trkpt><trkpt lat="43.144739529495894" lon="12.178115957529371"><ele>369.5</ele><time>2026-03-29T11:56:04.802Z</time></trkpt><trkpt lat="43.14465085180508" lon="12.178009086645721"><ele>371.75</ele><time>2026-03-29T11:56:05.802Z</time></trkpt><trkpt lat="43.14457004147067" lon="12.177895245858693"><ele>374.0</ele><time>2026-03-29T11:56:06.802Z</time></trkpt><trkpt lat="43.1444882838544" lon="12.177779840244531"><ele>374.0</ele><time>2026-03-29T11:56:07.802Z</time></trkpt><trkpt lat="43.144417067234045" lon="12.177654765535035"><ele>374.0</ele><time>2026-03-29T11:56:08.802Z</time></trkpt><trkpt lat="43.14435649729544" lon="12.177522200616446"><ele>374.0</ele><time>2026-03-29T11:56:09.802Z</time></trkpt><trkpt lat="43.14429895409601" lon="12.177398772725224"><ele>374.0</ele><time>2026-03-29T11:56:10.802Z</time></trkpt><trkpt lat="43.14424975321143" lon="12.177287667871163"><ele>374.0</ele><time>2026-03-29T11:56:11.802Z</time></trkpt><trkpt lat="43.14419954042703" lon="12.177182929429595"><ele>374.5</ele><time>2026-03-29T11:56:12.802Z</time></trkpt><trkpt lat="43.144154573122826" lon="12.177086861490983"><ele>375.0</ele><time>2026-03-29T11:56:13.802Z</time></trkpt><trkpt lat="43.1441095294739" lon="12.176999793553689"><ele>375.5</ele><time>2026-03-29T11:56:14.802Z</time></trkpt><trkpt lat="43.14406768954633" lon="12.176909326654647"><ele>376.0</ele><time>2026-03-29T11:56:15.802Z</time></trkpt><trkpt lat="43.144031575696815" lon="12.176800838173056"><ele>376.5</ele><time>2026-03-29T11:56:16.802Z</time></trkpt><trkpt lat="43.144003803416254" lon="12.176686049586923"><ele>377.0</ele><time>2026-03-29T11:56:17.802Z</time></trkpt><trkpt lat="43.14399002396338" lon="12.17658601667777"><ele>375.8</ele><time>2026-03-29T11:56:18.802Z</time></trkpt><trkpt lat="43.143987949406764" lon="12.176479128865372"><ele>374.6</ele><time>2026-03-29T11:56:19.802Z</time></trkpt><trkpt lat="43.14400106270194" lon="12.176355511633078"><ele>373.40000000000003</ele><time>2026-03-29T11:56:20.802Z</time></trkpt><trkpt lat="43.144010892961624" lon="12.176230972970792"><ele>372.20000000000005</ele><time>2026-03-29T11:56:21.803Z</time></trkpt><trkpt lat="43.144024232470386" lon="12.17609647411887"><ele>371.0</ele><time>2026-03-29T11:56:22.803Z</time></trkpt><trkpt lat="43.144041150886146" lon="12.17595302217754"><ele>370.5</ele><time>2026-03-29T11:56:23.803Z</time></trkpt><trkpt lat="43.14405605761424" lon="12.175801304135968"><ele>370.0</ele><time>2026-03-29T11:56:24.803Z</time></trkpt><trkpt lat="43.14406752254632" lon="12.175645532360825"><ele>369.5</ele><time>2026-03-29T11:56:25.803Z</time></trkpt><trkpt lat="43.144074100306376" lon="12.175484645159584"><ele>369.0</ele><time>2026-03-29T11:56:26.803Z</time></trkpt><trkpt lat="43.14407136424668" lon="12.175321485452864"><ele>368.25</ele><time>2026-03-29T11:56:27.803Z</time></trkpt><trkpt lat="43.14405950784751" lon="12.175155070736622"><ele>367.5</ele><time>2026-03-29T11:56:28.803Z</time></trkpt><trkpt lat="43.14404146194308" lon="12.174982997896667"><ele>366.75</ele><time>2026-03-29T11:56:29.803Z</time></trkpt><trkpt lat="43.14403625446706" lon="12.174793260393061"><ele>366.0</ele><time>2026-03-29T11:56:30.803Z</time></trkpt><trkpt lat="43.14402357777049" lon="12.174608847012214"><ele>364.75</ele><time>2026-03-29T11:56:31.803Z</time></trkpt><trkpt lat="43.14401998748088" lon="12.174428688886792"><ele>363.5</ele><time>2026-03-29T11:56:32.802Z</time></trkpt><trkpt lat="43.1440180373978" lon="12.174256327914787"><ele>362.25</ele><time>2026-03-29T11:56:33.802Z</time></trkpt><trkpt lat="43.14402079918361" lon="12.174086623778145"><ele>361.0</ele><time>2026-03-29T11:56:34.802Z</time></trkpt><trkpt lat="43.14402168500838" lon="12.17392096788081"><ele>360.6</ele><time>2026-03-29T11:56:35.802Z</time></trkpt><trkpt lat="43.144024253868274" lon="12.17376342514791"><ele>360.20000000000005</ele><time>2026-03-29T11:56:36.802Z</time></trkpt><trkpt lat="43.14402802482876" lon="12.17362381669734"><ele>359.79999999999995</ele><time>2026-03-29T11:56:37.802Z</time></trkpt><trkpt lat="43.14403838770422" lon="12.173503204035494"><ele>359.4</ele><time>2026-03-29T11:56:38.802Z</time></trkpt><trkpt lat="43.1440632292532" lon="12.17339281829097"><ele>359.0</ele><time>2026-03-29T11:56:39.802Z</time></trkpt><trkpt lat="43.144111867012725" lon="12.17327420046335"><ele>356.25</ele><time>2026-03-29T11:56:40.802Z</time></trkpt><trkpt lat="43.14417573508616" lon="12.173162189557566"><ele>353.5</ele><time>2026-03-29T11:56:41.802Z</time></trkpt><trkpt lat="43.14426261737246" lon="12.173050300374207"><ele>350.75</ele><time>2026-03-29T11:56:42.802Z</time></trkpt><trkpt lat="43.144358758613926" lon="12.172940098594657"><ele>348.0</ele><time>2026-03-29T11:56:43.802Z</time></trkpt><trkpt lat="43.14446054833186" lon="12.172817902286132"><ele>348.0</ele><time>2026-03-29T11:56:44.802Z</time></trkpt><trkpt lat="43.1445769390512" lon="12.172719205467132"><ele>348.0</ele><time>2026-03-29T11:56:45.802Z</time></trkpt><trkpt lat="43.144680653012415" lon="12.172606599571331"><ele>348.0</ele><time>2026-03-29T11:56:46.802Z</time></trkpt><trkpt lat="43.144774992829994" lon="12.17250050786106"><ele>348.0</ele><time>2026-03-29T11:56:47.802Z</time></trkpt><trkpt lat="43.14486232089411" lon="12.172389577327372"><ele>345.75</ele><time>2026-03-29T11:56:48.802Z</time></trkpt><trkpt lat="43.144934087369776" lon="12.172276065478666"><ele>343.5</ele><time>2026-03-29T11:56:49.802Z</time></trkpt><trkpt lat="43.14497786245743" lon="12.172125150963758"><ele>341.25</ele><time>2026-03-29T11:56:50.802Z</time></trkpt><trkpt lat="43.14498585143224" lon="12.171956398871759"><ele>339.0</ele><time>2026-03-29T11:56:51.802Z</time></trkpt><trkpt lat="43.14496171481606" lon="12.171788460269417"><ele>339.0</ele><time>2026-03-29T11:56:52.802Z</time></trkpt><trkpt lat="43.144909819916656" lon="12.171633542166964"><ele>339.0</ele><time>2026-03-29T11:56:53.802Z</time></trkpt><trkpt lat="43.14484577388322" lon="12.171484121111948"><ele>339.0</ele><time>2026-03-29T11:56:54.802Z</time></trkpt><trkpt lat="43.144781934047835" lon="12.171332436159412"><ele>339.0</ele><time>2026-03-29T11:56:55.802Z</time></trkpt><trkpt lat="43.14470610835215" lon="12.171187446188592"><ele>336.75</ele><time>2026-03-29T11:56:56.802Z</time></trkpt><trkpt lat="43.1446538575225" lon="12.171021924897818"><ele>334.5</ele><time>2026-03-29T11:56:57.802Z</time></trkpt><trkpt lat="43.14459700412668" lon="12.17086266697194"><ele>332.25</ele><time>2026-03-29T11:56:58.802Z</time></trkpt><trkpt lat="43.14453877216592" lon="12.170701097494465"><ele>330.0</ele><time>2026-03-29T11:56:59.802Z</time></trkpt><trkpt lat="43.1444850523447" lon="12.170541441000607"><ele>330.0</ele><time>2026-03-29T11:57:00.802Z</time></trkpt><trkpt lat="43.14443835876813" lon="12.17037518595147"><ele>330.0</ele><time>2026-03-29T11:57:01.802Z</time></trkpt><trkpt lat="43.144403108612686" lon="12.17020444543343"><ele>330.0</ele><time>2026-03-29T11:57:02.802Z</time></trkpt><trkpt lat="43.14437614200445" lon="12.170033546447817"><ele>330.0</ele><time>2026-03-29T11:57:03.802Z</time></trkpt><trkpt lat="43.14435578193589" lon="12.169861285188762"><ele>329.25</ele><time>2026-03-29T11:57:04.802Z</time></trkpt><trkpt lat="43.14434349482385" lon="12.169687246111254"><ele>328.5</ele><time>2026-03-29T11:57:05.802Z</time></trkpt><trkpt lat="43.144337708659016" lon="12.169513882068205"><ele>327.75</ele><time>2026-03-29T11:57:06.802Z</time></trkpt><trkpt lat="43.14433094005783" lon="12.169338874952894"><ele>327.0</ele><time>2026-03-29T11:57:07.802Z</time></trkpt><trkpt lat="43.144332705256915" lon="12.169159512043786"><ele>326.5</ele><time>2026-03-29T11:57:08.801Z</time></trkpt><trkpt lat="43.14433783395569" lon="12.168984488465728"><ele>326.0</ele><time>2026-03-29T11:57:09.801Z</time></trkpt><trkpt lat="43.14435767108692" lon="12.168813208596658"><ele>325.5</ele><time>2026-03-29T11:57:10.801Z</time></trkpt><trkpt lat="43.144346858263255" lon="12.168642129051687"><ele>325.0</ele><time>2026-03-29T11:57:11.801Z</time></trkpt><trkpt lat="43.14431502997944" lon="12.168475678091077"><ele>325.0</ele><time>2026-03-29T11:57:12.801Z</time></trkpt><trkpt lat="43.14426503226952" lon="12.168311387742506"><ele>325.0</ele><time>2026-03-29T11:57:13.804Z</time></trkpt><trkpt lat="43.14420579770924" lon="12.168146388874295"><ele>325.0</ele><time>2026-03-29T11:57:14.803Z</time></trkpt><trkpt lat="43.14414385060596" lon="12.16798389644982"><ele>325.0</ele><time>2026-03-29T11:57:15.803Z</time></trkpt><trkpt lat="43.14408072720464" lon="12.167819386459716"><ele>320.0</ele><time>2026-03-29T11:57:16.803Z</time></trkpt><trkpt lat="43.14401992663966" lon="12.16765586313847"><ele>315.0</ele><time>2026-03-29T11:57:17.804Z</time></trkpt><trkpt lat="43.1439630892734" lon="12.167488796158317"><ele>310.0</ele><time>2026-03-29T11:57:18.803Z</time></trkpt><trkpt lat="43.143910155627694" lon="12.167322442983588"><ele>305.0</ele><time>2026-03-29T11:57:19.804Z</time></trkpt><trkpt lat="43.14386052356939" lon="12.167155117063544"><ele>304.25</ele><time>2026-03-29T11:57:20.803Z</time></trkpt><trkpt lat="43.14382568179761" lon="12.166981587310623"><ele>303.5</ele><time>2026-03-29T11:57:21.803Z</time></trkpt><trkpt lat="43.143796904330415" lon="12.166808136799755"><ele>302.75</ele><time>2026-03-29T11:57:22.803Z</time></trkpt><trkpt lat="43.14377707075224" lon="12.16664295829713"><ele>302.0</ele><time>2026-03-29T11:57:23.803Z</time></trkpt><trkpt lat="43.143766749862394" lon="12.166488646287984"><ele>300.75</ele><time>2026-03-29T11:57:24.803Z</time></trkpt><trkpt lat="43.143774156185906" lon="12.166330993733999"><ele>299.5</ele><time>2026-03-29T11:57:25.803Z</time></trkpt><trkpt lat="43.143803725373175" lon="12.166176370551073"><ele>298.25</ele><time>2026-03-29T11:57:26.804Z</time></trkpt><trkpt lat="43.14385184662299" lon="12.16602925718183"><ele>297.0</ele><time>2026-03-29T11:57:27.804Z</time></trkpt><trkpt lat="43.14391904725047" lon="12.165897696154255"><ele>297.0</ele><time>2026-03-29T11:57:28.804Z</time></trkpt><trkpt lat="43.144004630352704" lon="12.16578165689973"><ele>297.0</ele><time>2026-03-29T11:57:29.804Z</time></trkpt><trkpt lat="43.14410662797604" lon="12.165688341203994"><ele>297.0</ele><time>2026-03-29T11:57:30.804Z</time></trkpt><trkpt lat="43.144219389902844" lon="12.165623988156701"><ele>297.0</ele><time>2026-03-29T11:57:31.804Z</time></trkpt><trkpt lat="43.14433752726518" lon="12.165582141108118"><ele>295.5</ele><time>2026-03-29T11:57:32.804Z</time></trkpt><trkpt lat="43.14445923254259" lon="12.165549372024792"><ele>294.0</ele><time>2026-03-29T11:57:33.804Z</time></trkpt><trkpt lat="43.14457859177651" lon="12.165538648521379"><ele>292.5</ele><time>2026-03-29T11:57:34.804Z</time></trkpt><trkpt lat="43.14469925809248" lon="12.165512506473199"><ele>291.0</ele><time>2026-03-29T11:57:35.804Z</time></trkpt><trkpt lat="43.144817568315055" lon="12.165481893390579"><ele>291.75</ele><time>2026-03-29T11:57:36.804Z</time></trkpt><trkpt lat="43.14494016006568" lon="12.165450110011978"><ele>292.5</ele><time>2026-03-29T11:57:37.804Z</time></trkpt><trkpt lat="43.14505834720119" lon="12.165413347278296"><ele>293.25</ele><time>2026-03-29T11:57:38.804Z</time></trkpt><trkpt lat="43.145167385419434" lon="12.16535973252094"><ele>294.0</ele><time>2026-03-29T11:57:39.804Z</time></trkpt><trkpt lat="43.14527188839432" lon="12.16530419581032"><ele>294.0</ele><time>2026-03-29T11:57:40.804Z</time></trkpt><trkpt lat="43.14535621672625" lon="12.165206896676569"><ele>294.0</ele><time>2026-03-29T11:57:41.803Z</time></trkpt><trkpt lat="43.14541932871774" lon="12.165074223223883"><ele>294.0</ele><time>2026-03-29T11:57:42.803Z</time></trkpt><trkpt lat="43.14542211895932" lon="12.164921184820042"><ele>294.0</ele><time>2026-03-29T11:57:43.803Z</time></trkpt><trkpt lat="43.14541159381585" lon="12.164793460646658"><ele>294.0</ele><time>2026-03-29T11:57:44.803Z</time></trkpt><trkpt lat="43.1453667149764" lon="12.1646786528552"><ele>292.59999999999997</ele><time>2026-03-29T11:57:45.803Z</time></trkpt><trkpt lat="43.14530030793181" lon="12.164580286045373"><ele>291.2</ele><time>2026-03-29T11:57:46.803Z</time></trkpt><trkpt lat="43.145225751475095" lon="12.16449759979278"><ele>289.79999999999995</ele><time>2026-03-29T11:57:47.803Z</time></trkpt><trkpt lat="43.14515085357803" lon="12.164413932373662"><ele>288.4</ele><time>2026-03-29T11:57:48.803Z</time></trkpt><trkpt lat="43.14508008377067" lon="12.164340018200429"><ele>287.0</ele><time>2026-03-29T11:57:49.803Z</time></trkpt><trkpt lat="43.145025177740415" lon="12.164269012187502"><ele>287.0</ele><time>2026-03-29T11:57:50.803Z</time></trkpt><trkpt lat="43.14497666938914" lon="12.164132045591023"><ele>287.0</ele><time>2026-03-29T11:57:52.803Z</time></trkpt><trkpt lat="43.14499249162172" lon="12.16402439123694"><ele>287.0</ele><time>2026-03-29T11:57:54.803Z</time></trkpt><trkpt lat="43.14499757442447" lon="12.163935698168434"><ele>287.0</ele><time>2026-03-29T11:57:56.803Z</time></trkpt><trkpt lat="43.14503297140763" lon="12.163863857288801"><ele>287.0</ele><time>2026-03-29T12:00:51.8Z</time></trkpt><trkpt lat="43.145124543925846" lon="12.163865592199688"><ele>287.0</ele><time>2026-03-29T12:01:38.801Z</time></trkpt><trkpt lat="43.14505924665684" lon="12.163964712843427"><ele>287.0</ele><time>2026-03-29T12:01:44.801Z</time></trkpt><trkpt lat="43.145058470377315" lon="12.164095800908568"><ele>287.0</ele><time>2026-03-29T12:01:47.801Z</time></trkpt><trkpt lat="43.14507868839279" lon="12.164199732374948"><ele>287.0</ele><time>2026-03-29T12:01:49.801Z</time></trkpt><trkpt lat="43.14511926783957" lon="12.164280552180905"><ele>287.0</ele><time>2026-03-29T12:01:51.801Z</time></trkpt><trkpt lat="43.14521089642217" lon="12.164405434625296"><ele>287.0</ele><time>2026-03-29T12:01:53.801Z</time></trkpt><trkpt lat="43.14523230370976" lon="12.164563654950175"><ele>287.0</ele><time>2026-03-29T12:01:54.801Z</time></trkpt><trkpt lat="43.14528998071102" lon="12.164630768471486"><ele>287.0</ele><time>2026-03-29T12:01:55.801Z</time></trkpt><trkpt lat="43.145337169892954" lon="12.164698721656743"><ele>287.0</ele><time>2026-03-29T12:01:56.801Z</time></trkpt><trkpt lat="43.14537216510317" lon="12.164775328335853"><ele>287.0</ele><time>2026-03-29T12:01:57.801Z</time></trkpt><trkpt lat="43.14539750824608" lon="12.164869163239821"><ele>287.0</ele><time>2026-03-29T12:01:58.801Z</time></trkpt><trkpt lat="43.14541679574041" lon="12.164962678589228"><ele>287.0</ele><time>2026-03-29T12:01:59.801Z</time></trkpt><trkpt lat="43.145388819435475" lon="12.165065496025091"><ele>287.0</ele><time>2026-03-29T12:02:00.801Z</time></trkpt><trkpt lat="43.14533752270863" lon="12.165147490065797"><ele>287.8</ele><time>2026-03-29T12:02:01.801Z</time></trkpt><trkpt lat="43.14527007428784" lon="12.165221182377753"><ele>288.6</ele><time>2026-03-29T12:02:02.801Z</time></trkpt><trkpt lat="43.145181901960385" lon="12.16528723526236"><ele>289.40000000000003</ele><time>2026-03-29T12:02:03.801Z</time></trkpt><trkpt lat="43.145090652234444" lon="12.165338854774644"><ele>290.2</ele><time>2026-03-29T12:02:04.801Z</time></trkpt><trkpt lat="43.14498823796692" lon="12.165366532026386"><ele>291.0</ele><time>2026-03-29T12:02:05.801Z</time></trkpt><trkpt lat="43.14486645678853" lon="12.165395743151672"><ele>291.0</ele><time>2026-03-29T12:02:06.801Z</time></trkpt><trkpt lat="43.144752168950866" lon="12.16542658403937"><ele>291.0</ele><time>2026-03-29T12:02:07.801Z</time></trkpt><trkpt lat="43.14464155541825" lon="12.165462752463446"><ele>291.0</ele><time>2026-03-29T12:02:08.801Z</time></trkpt><trkpt lat="43.14453451578153" lon="12.165496072361716"><ele>291.0</ele><time>2026-03-29T12:02:09.8Z</time></trkpt><trkpt lat="43.14443165832636" lon="12.165522725802461"><ele>291.0</ele><time>2026-03-29T12:02:10.8Z</time></trkpt><trkpt lat="43.14431960382698" lon="12.165549244207783"><ele>291.0</ele><time>2026-03-29T12:02:11.8Z</time></trkpt><trkpt lat="43.1442167031419" lon="12.1655843274818"><ele>291.0</ele><time>2026-03-29T12:02:12.8Z</time></trkpt><trkpt lat="43.144118527979536" lon="12.165642347370593"><ele>291.0</ele><time>2026-03-29T12:02:13.8Z</time></trkpt><trkpt lat="43.144030306839" lon="12.165720290591203"><ele>291.0</ele><time>2026-03-29T12:02:14.8Z</time></trkpt><trkpt lat="43.14395036230587" lon="12.165813893877214"><ele>291.0</ele><time>2026-03-29T12:02:15.8Z</time></trkpt><trkpt lat="43.143882048065514" lon="12.165916340431348"><ele>292.2</ele><time>2026-03-29T12:02:16.8Z</time></trkpt><trkpt lat="43.14382247808076" lon="12.16604370043832"><ele>293.40000000000003</ele><time>2026-03-29T12:02:17.8Z</time></trkpt><trkpt lat="43.14377006721375" lon="12.16614930324051"><ele>294.6</ele><time>2026-03-29T12:02:18.8Z</time></trkpt><trkpt lat="43.143742106859264" lon="12.166279003940415"><ele>295.8</ele><time>2026-03-29T12:02:19.8Z</time></trkpt><trkpt lat="43.143732641720646" lon="12.166409733297977"><ele>297.0</ele><time>2026-03-29T12:02:20.8Z</time></trkpt><trkpt lat="43.14373287976539" lon="12.166549695320098"><ele>298.0</ele><time>2026-03-29T12:02:21.8Z</time></trkpt><trkpt lat="43.143761037817775" lon="12.166687156733497"><ele>299.0</ele><time>2026-03-29T12:02:22.8Z</time></trkpt><trkpt lat="43.143784702249754" lon="12.166830036530445"><ele>300.0</ele><time>2026-03-29T12:02:23.8Z</time></trkpt><trkpt lat="43.143809117497135" lon="12.166978553392035"><ele>301.0</ele><time>2026-03-29T12:02:24.8Z</time></trkpt><trkpt lat="43.143838542549304" lon="12.16712958921599"><ele>302.0</ele><time>2026-03-29T12:02:25.8Z</time></trkpt><trkpt lat="43.143875455218485" lon="12.167277313321145"><ele>302.6</ele><time>2026-03-29T12:02:26.8Z</time></trkpt><trkpt lat="43.14392099563552" lon="12.167426241817095"><ele>303.2</ele><time>2026-03-29T12:02:27.8Z</time></trkpt><trkpt lat="43.14396970282528" lon="12.167567912318367"><ele>303.8</ele><time>2026-03-29T12:02:28.8Z</time></trkpt><trkpt lat="43.14401892144407" lon="12.167699972180172"><ele>304.4</ele><time>2026-03-29T12:02:29.8Z</time></trkpt><trkpt lat="43.14406109970687" lon="12.167814183927623"><ele>305.0</ele><time>2026-03-29T12:02:30.8Z</time></trkpt><trkpt lat="43.14410260759274" lon="12.167929432704948"><ele>308.0</ele><time>2026-03-29T12:02:31.8Z</time></trkpt><trkpt lat="43.14414776317725" lon="12.168046767947725"><ele>311.0</ele><time>2026-03-29T12:02:32.8Z</time></trkpt><trkpt lat="43.144196031816264" lon="12.168178673955541"><ele>314.0</ele><time>2026-03-29T12:02:33.8Z</time></trkpt><trkpt lat="43.14424547319205" lon="12.16831346036321"><ele>317.0</ele><time>2026-03-29T12:02:34.8Z</time></trkpt><trkpt lat="43.14428213929817" lon="12.168427224630133"><ele>320.0</ele><time>2026-03-29T12:02:35.8Z</time></trkpt><trkpt lat="43.14430940429396" lon="12.168526209806634"><ele>321.0</ele><time>2026-03-29T12:02:36.8Z</time></trkpt><trkpt lat="43.14433331116728" lon="12.16863463638047"><ele>322.0</ele><time>2026-03-29T12:02:37.8Z</time></trkpt><trkpt lat="43.14433602437418" lon="12.16875923501781"><ele>323.0</ele><time>2026-03-29T12:02:38.8Z</time></trkpt><trkpt lat="43.144328517377105" lon="12.168899774103771"><ele>324.0</ele><time>2026-03-29T12:02:39.799Z</time></trkpt><trkpt lat="43.144315244873205" lon="12.169049265697582"><ele>325.0</ele><time>2026-03-29T12:02:40.799Z</time></trkpt><trkpt lat="43.14430587471444" lon="12.169214924569737"><ele>325.5</ele><time>2026-03-29T12:02:41.799Z</time></trkpt><trkpt lat="43.14430582234747" lon="12.169394857992659"><ele>326.0</ele><time>2026-03-29T12:02:42.799Z</time></trkpt><trkpt lat="43.144315460604936" lon="12.169583930273099"><ele>326.5</ele><time>2026-03-29T12:02:43.799Z</time></trkpt><trkpt lat="43.144329120299965" lon="12.169755234876265"><ele>327.0</ele><time>2026-03-29T12:02:44.799Z</time></trkpt><trkpt lat="43.144344139710995" lon="12.16991742522766"><ele>327.75</ele><time>2026-03-29T12:02:45.798Z</time></trkpt><trkpt lat="43.144360402864244" lon="12.170070906799776"><ele>328.5</ele><time>2026-03-29T12:02:46.798Z</time></trkpt><trkpt lat="43.144382055440154" lon="12.170216097441129"><ele>329.25</ele><time>2026-03-29T12:02:47.798Z</time></trkpt><trkpt lat="43.14441416251591" lon="12.170379151486058"><ele>330.0</ele><time>2026-03-29T12:02:48.798Z</time></trkpt><trkpt lat="43.144463974128634" lon="12.170549398712643"><ele>329.0</ele><time>2026-03-29T12:02:49.798Z</time></trkpt><trkpt lat="43.144518423025225" lon="12.170722619893352"><ele>328.0</ele><time>2026-03-29T12:02:50.798Z</time></trkpt><trkpt lat="43.14457923042697" lon="12.170890130754172"><ele>327.0</ele><time>2026-03-29T12:02:51.798Z</time></trkpt><trkpt lat="43.144645513443244" lon="12.17105784338893"><ele>326.0</ele><time>2026-03-29T12:02:52.798Z</time></trkpt><trkpt lat="43.14471111565324" lon="12.171224574833373"><ele>326.0</ele><time>2026-03-29T12:02:53.798Z</time></trkpt><trkpt lat="43.144775687344755" lon="12.171383002384978"><ele>326.0</ele><time>2026-03-29T12:02:54.797Z</time></trkpt><trkpt lat="43.14483474746983" lon="12.171532660496549"><ele>326.0</ele><time>2026-03-29T12:02:55.797Z</time></trkpt><trkpt lat="43.14488892022022" lon="12.171676418399732"><ele>326.0</ele><time>2026-03-29T12:02:56.797Z</time></trkpt><trkpt lat="43.144924068621215" lon="12.171819929806137"><ele>328.6</ele><time>2026-03-29T12:02:57.797Z</time></trkpt><trkpt lat="43.14493675487297" lon="12.171963368694998"><ele>331.20000000000005</ele><time>2026-03-29T12:02:58.797Z</time></trkpt><trkpt lat="43.144923556034044" lon="12.172105192493293"><ele>333.79999999999995</ele><time>2026-03-29T12:02:59.797Z</time></trkpt><trkpt lat="43.144887620395274" lon="12.172240550633564"><ele>336.4</ele><time>2026-03-29T12:03:00.797Z</time></trkpt><trkpt lat="43.144818229497524" lon="12.17236535837629"><ele>339.0</ele><time>2026-03-29T12:03:01.797Z</time></trkpt><trkpt lat="43.1447329739416" lon="12.172474668237882"><ele>341.25</ele><time>2026-03-29T12:03:02.797Z</time></trkpt><trkpt lat="43.144638284252444" lon="12.172574147988207"><ele>343.5</ele><time>2026-03-29T12:03:03.797Z</time></trkpt><trkpt lat="43.144540205307045" lon="12.172670656425593"><ele>345.75</ele><time>2026-03-29T12:03:04.797Z</time></trkpt><trkpt lat="43.14444822469826" lon="12.172771124364292"><ele>348.0</ele><time>2026-03-29T12:03:05.797Z</time></trkpt><trkpt lat="43.14434856414476" lon="12.172882539010619"><ele>348.0</ele><time>2026-03-29T12:03:06.797Z</time></trkpt><trkpt lat="43.14425216684864" lon="12.172996310679189"><ele>348.0</ele><time>2026-03-29T12:03:07.797Z</time></trkpt><trkpt lat="43.144163032546125" lon="12.173107256854538"><ele>348.0</ele><time>2026-03-29T12:03:08.796Z</time></trkpt><trkpt lat="43.144088900638174" lon="12.173211246439191"><ele>348.0</ele><time>2026-03-29T12:03:09.796Z</time></trkpt><trkpt lat="43.14403394233602" lon="12.173326141953218"><ele>350.75</ele><time>2026-03-29T12:03:10.796Z</time></trkpt><trkpt lat="43.14400220757469" lon="12.173467075562055"><ele>353.5</ele><time>2026-03-29T12:03:11.796Z</time></trkpt><trkpt lat="43.1439967236511" lon="12.173633033746126"><ele>356.25</ele><time>2026-03-29T12:03:12.796Z</time></trkpt><trkpt lat="43.14400121177961" lon="12.173800081481774"><ele>359.0</ele><time>2026-03-29T12:03:13.796Z</time></trkpt><trkpt lat="43.14400691300969" lon="12.173953256667865"><ele>359.5</ele><time>2026-03-29T12:03:14.796Z</time></trkpt><trkpt lat="43.14400781044056" lon="12.174100204771637"><ele>360.0</ele><time>2026-03-29T12:03:15.796Z</time></trkpt><trkpt lat="43.14400267555098" lon="12.17425322879773"><ele>360.5</ele><time>2026-03-29T12:03:16.796Z</time></trkpt><trkpt lat="43.143998813845364" lon="12.174411740603595"><ele>361.0</ele><time>2026-03-29T12:03:17.796Z</time></trkpt><trkpt lat="43.144004926559035" lon="12.174572750779538"><ele>361.0</ele><time>2026-03-29T12:03:18.796Z</time></trkpt><trkpt lat="43.144014910727144" lon="12.174740711332568"><ele>361.0</ele><time>2026-03-29T12:03:19.796Z</time></trkpt><trkpt lat="43.14401436771535" lon="12.174909993331704"><ele>361.0</ele><time>2026-03-29T12:03:20.796Z</time></trkpt><trkpt lat="43.144041368824396" lon="12.175072608462825"><ele>361.0</ele><time>2026-03-29T12:03:21.796Z</time></trkpt><trkpt lat="43.14405258825728" lon="12.17523617345223"><ele>362.0</ele><time>2026-03-29T12:03:22.796Z</time></trkpt><trkpt lat="43.14405182333369" lon="12.17540022860176"><ele>363.0</ele><time>2026-03-29T12:03:23.796Z</time></trkpt><trkpt lat="43.14404387791865" lon="12.175568850817177"><ele>364.0</ele><time>2026-03-29T12:03:24.796Z</time></trkpt><trkpt lat="43.14403299648258" lon="12.175745203615211"><ele>365.0</ele><time>2026-03-29T12:03:25.796Z</time></trkpt><trkpt lat="43.144013369158785" lon="12.175922015701131"><ele>366.0</ele><time>2026-03-29T12:03:26.796Z</time></trkpt><trkpt lat="43.14399099215392" lon="12.176075503402945"><ele>367.0</ele><time>2026-03-29T12:03:27.796Z</time></trkpt><trkpt lat="43.143976309309714" lon="12.176199802189926"><ele>368.0</ele><time>2026-03-29T12:03:28.796Z</time></trkpt><trkpt lat="43.14396199516495" lon="12.176284972590254"><ele>369.0</ele><time>2026-03-29T12:03:29.796Z</time></trkpt><trkpt lat="43.14393446575285" lon="12.176367274782764"><ele>370.0</ele><time>2026-03-29T12:03:32.797Z</time></trkpt><trkpt lat="43.14393343309264" lon="12.17645539236784"><ele>371.0</ele><time>2026-03-29T12:03:46.797Z</time></trkpt><trkpt lat="43.14397161847976" lon="12.176551421290254"><ele>370.83333333333337</ele><time>2026-03-29T12:03:50.797Z</time></trkpt><trkpt lat="43.14397540267842" lon="12.176651365256372"><ele>370.6666666666667</ele><time>2026-03-29T12:03:52.796Z</time></trkpt><trkpt lat="43.14399744672956" lon="12.176762329664108"><ele>370.5</ele><time>2026-03-29T12:03:54.796Z</time></trkpt><trkpt lat="43.14403327111261" lon="12.176877300660536"><ele>370.3333333333333</ele><time>2026-03-29T12:03:57.796Z</time></trkpt><trkpt lat="43.14408667017547" lon="12.17697575819808"><ele>370.16666666666663</ele><time>2026-03-29T12:04:00.796Z</time></trkpt><trkpt lat="43.14411661339331" lon="12.177052667198545"><ele>370.0</ele><time>2026-03-29T12:04:03.796Z</time></trkpt><trkpt lat="43.144076820306694" lon="12.176974551952636"><ele>370.0</ele><time>2026-03-29T12:04:13.796Z</time></trkpt><trkpt lat="43.14403648887606" lon="12.17689940551748"><ele>370.0</ele><time>2026-03-29T12:04:14.796Z</time></trkpt><trkpt lat="43.14400681425777" lon="12.176815584325011"><ele>370.0</ele><time>2026-03-29T12:04:15.796Z</time></trkpt><trkpt lat="43.14397740953156" lon="12.176692022682069"><ele>370.0</ele><time>2026-03-29T12:04:17.796Z</time></trkpt><trkpt lat="43.1440213733196" lon="12.176851360656501"><ele>370.0</ele><time>2026-03-29T12:04:36.795Z</time></trkpt><trkpt lat="43.14407997807749" lon="12.177017532833672"><ele>370.0</ele><time>2026-03-29T12:04:37.795Z</time></trkpt><trkpt lat="43.14416691116145" lon="12.17721834407197"><ele>370.0</ele><time>2026-03-29T12:04:38.795Z</time></trkpt><trkpt lat="43.14425120048165" lon="12.177405840659507"><ele>370.0</ele><time>2026-03-29T12:04:39.795Z</time></trkpt><trkpt lat="43.144338382042704" lon="12.177580782000346"><ele>371.3333333333333</ele><time>2026-03-29T12:04:40.795Z</time></trkpt><trkpt lat="43.144442746067085" lon="12.17774402258677"><ele>372.6666666666667</ele><time>2026-03-29T12:04:41.795Z</time></trkpt><trkpt lat="43.144562515265925" lon="12.177947797686153"><ele>374.0</ele><time>2026-03-29T12:04:42.795Z</time></trkpt><trkpt lat="43.1447259301292" lon="12.178147458770363"><ele>371.0</ele><time>2026-03-29T12:04:43.795Z</time></trkpt><trkpt lat="43.144898873926536" lon="12.17829963705273"><ele>368.0</ele><time>2026-03-29T12:04:44.795Z</time></trkpt><trkpt lat="43.14505409236796" lon="12.178436074707248"><ele>365.0</ele><time>2026-03-29T12:04:45.795Z</time></trkpt><trkpt lat="43.14520471113278" lon="12.17854828516669"><ele>365.0</ele><time>2026-03-29T12:04:46.795Z</time></trkpt><trkpt lat="43.145341611450974" lon="12.178651078117879"><ele>365.0</ele><time>2026-03-29T12:04:47.795Z</time></trkpt><trkpt lat="43.14546489030405" lon="12.178749470599987"><ele>365.0</ele><time>2026-03-29T12:04:48.795Z</time></trkpt><trkpt lat="43.145566884925884" lon="12.178849756927876"><ele>365.0</ele><time>2026-03-29T12:04:49.795Z</time></trkpt><trkpt lat="43.14564817926016" lon="12.178961963330904"><ele>365.0</ele><time>2026-03-29T12:04:50.795Z</time></trkpt><trkpt lat="43.14571008062221" lon="12.179096278034052"><ele>365.0</ele><time>2026-03-29T12:04:51.795Z</time></trkpt><trkpt lat="43.145757812886444" lon="12.179245252842184"><ele>365.0</ele><time>2026-03-29T12:04:52.795Z</time></trkpt><trkpt lat="43.145799434635656" lon="12.179408620914772"><ele>365.0</ele><time>2026-03-29T12:04:53.795Z</time></trkpt><trkpt lat="43.14584316676226" lon="12.17957271099331"><ele>365.0</ele><time>2026-03-29T12:04:54.795Z</time></trkpt><trkpt lat="43.145892045111594" lon="12.179748279045077"><ele>365.0</ele><time>2026-03-29T12:04:55.795Z</time></trkpt><trkpt lat="43.14594921386637" lon="12.179933904915222"><ele>365.0</ele><time>2026-03-29T12:04:56.795Z</time></trkpt><trkpt lat="43.14600748695302" lon="12.180140736928116"><ele>365.0</ele><time>2026-03-29T12:04:57.795Z</time></trkpt><trkpt lat="43.146073959035945" lon="12.180355231376787"><ele>367.33333333333337</ele><time>2026-03-29T12:04:58.795Z</time></trkpt><trkpt lat="43.14613739418643" lon="12.180573918942802"><ele>369.6666666666667</ele><time>2026-03-29T12:04:59.795Z</time></trkpt><trkpt lat="43.14620612644709" lon="12.180791348743885"><ele>372.0</ele><time>2026-03-29T12:05:00.795Z</time></trkpt><trkpt lat="43.14627551322594" lon="12.181005844428755"><ele>373.3333333333333</ele><time>2026-03-29T12:05:01.795Z</time></trkpt><trkpt lat="43.14635304935164" lon="12.181203450335856"><ele>374.66666666666663</ele><time>2026-03-29T12:05:02.795Z</time></trkpt><trkpt lat="43.146438242352716" lon="12.18139516747929"><ele>376.0</ele><time>2026-03-29T12:05:03.794Z</time></trkpt><trkpt lat="43.146532920243935" lon="12.181581764252515"><ele>374.0</ele><time>2026-03-29T12:05:04.794Z</time></trkpt><trkpt lat="43.14662348573645" lon="12.181752191419783"><ele>372.0</ele><time>2026-03-29T12:05:05.794Z</time></trkpt><trkpt lat="43.146714449183" lon="12.181908239991957"><ele>370.0</ele><time>2026-03-29T12:05:06.794Z</time></trkpt><trkpt lat="43.14681956754701" lon="12.182051769928789"><ele>368.0</ele><time>2026-03-29T12:05:07.794Z</time></trkpt><trkpt lat="43.14692760460929" lon="12.182182852660913"><ele>368.0</ele><time>2026-03-29T12:05:08.794Z</time></trkpt><trkpt lat="43.147060607641606" lon="12.182299965804344"><ele>368.0</ele><time>2026-03-29T12:05:09.794Z</time></trkpt><trkpt lat="43.147199744451356" lon="12.18240950986433"><ele>368.0</ele><time>2026-03-29T12:05:10.794Z</time></trkpt><trkpt lat="43.147319967897865" lon="12.18250704879345"><ele>368.25</ele><time>2026-03-29T12:05:11.794Z</time></trkpt><trkpt lat="43.14743542745764" lon="12.18262710547931"><ele>368.5</ele><time>2026-03-29T12:05:12.794Z</time></trkpt><trkpt lat="43.147547041712684" lon="12.182760279850239"><ele>368.75</ele><time>2026-03-29T12:05:13.794Z</time></trkpt><trkpt lat="43.1476490113572" lon="12.182908482580643"><ele>369.0</ele><time>2026-03-29T12:05:14.794Z</time></trkpt><trkpt lat="43.14773816883451" lon="12.183055413988354"><ele>372.75</ele><time>2026-03-29T12:05:15.794Z</time></trkpt><trkpt lat="43.147807523638015" lon="12.183210063218699"><ele>376.5</ele><time>2026-03-29T12:05:16.794Z</time></trkpt><trkpt lat="43.147847638813296" lon="12.183371868746784"><ele>380.25</ele><time>2026-03-29T12:05:17.794Z</time></trkpt><trkpt lat="43.147861892984174" lon="12.1835432374118"><ele>384.0</ele><time>2026-03-29T12:05:18.794Z</time></trkpt><trkpt lat="43.14784991424976" lon="12.183713669862499"><ele>384.0</ele><time>2026-03-29T12:05:19.794Z</time></trkpt><trkpt lat="43.14780734694345" lon="12.183905475382755"><ele>384.0</ele><time>2026-03-29T12:05:20.794Z</time></trkpt><trkpt lat="43.147753358689855" lon="12.184080438708401"><ele>384.0</ele><time>2026-03-29T12:05:21.794Z</time></trkpt><trkpt lat="43.147710516694694" lon="12.18422324143791"><ele>384.0</ele><time>2026-03-29T12:05:22.794Z</time></trkpt><trkpt lat="43.1476750453457" lon="12.184368563812308"><ele>385.0</ele><time>2026-03-29T12:05:23.794Z</time></trkpt><trkpt lat="43.147636074298276" lon="12.18451854752632"><ele>386.0</ele><time>2026-03-29T12:05:24.794Z</time></trkpt><trkpt lat="43.14759690676078" lon="12.184704403740588"><ele>387.0</ele><time>2026-03-29T12:05:25.794Z</time></trkpt><trkpt lat="43.147546425515976" lon="12.184917591923952"><ele>388.0</ele><time>2026-03-29T12:05:26.794Z</time></trkpt><trkpt lat="43.14750002647473" lon="12.18512224604668"><ele>388.0</ele><time>2026-03-29T12:05:27.794Z</time></trkpt><trkpt lat="43.14746491809556" lon="12.185314882561881"><ele>388.0</ele><time>2026-03-29T12:05:28.794Z</time></trkpt><trkpt lat="43.14743257022718" lon="12.185502125884012"><ele>388.0</ele><time>2026-03-29T12:05:29.794Z</time></trkpt><trkpt lat="43.14740316277418" lon="12.185686900968609"><ele>388.0</ele><time>2026-03-29T12:05:30.794Z</time></trkpt><trkpt lat="43.14736976976172" lon="12.185873887130224"><ele>388.75</ele><time>2026-03-29T12:05:31.794Z</time></trkpt><trkpt lat="43.1473411634429" lon="12.186065674498304"><ele>389.5</ele><time>2026-03-29T12:05:32.794Z</time></trkpt><trkpt lat="43.14731040945739" lon="12.186259165581038"><ele>390.25</ele><time>2026-03-29T12:05:33.794Z</time></trkpt><trkpt lat="43.14728718069408" lon="12.186442059687051"><ele>391.0</ele><time>2026-03-29T12:05:34.794Z</time></trkpt><trkpt lat="43.14726303918328" lon="12.186626271689931"><ele>391.0</ele><time>2026-03-29T12:05:35.794Z</time></trkpt><trkpt lat="43.14727205177152" lon="12.18680996981057"><ele>391.0</ele><time>2026-03-29T12:05:36.795Z</time></trkpt><trkpt lat="43.14729846308833" lon="12.186982655934168"><ele>391.0</ele><time>2026-03-29T12:05:37.796Z</time></trkpt><trkpt lat="43.14734129361506" lon="12.187135637042722"><ele>391.0</ele><time>2026-03-29T12:05:38.796Z</time></trkpt><trkpt lat="43.147421926948844" lon="12.18726318596747"><ele>390.0</ele><time>2026-03-29T12:05:39.795Z</time></trkpt><trkpt lat="43.14751191983964" lon="12.187391811977044"><ele>389.0</ele><time>2026-03-29T12:05:40.795Z</time></trkpt><trkpt lat="43.14761442061505" lon="12.187528098011677"><ele>388.0</ele><time>2026-03-29T12:05:41.795Z</time></trkpt><trkpt lat="43.147721482059005" lon="12.187672161014463"><ele>387.0</ele><time>2026-03-29T12:05:42.796Z</time></trkpt><trkpt lat="43.14783185141286" lon="12.18782246907344"><ele>387.0</ele><time>2026-03-29T12:05:43.796Z</time></trkpt><trkpt lat="43.14793431059273" lon="12.187952126425476"><ele>387.0</ele><time>2026-03-29T12:05:44.796Z</time></trkpt><trkpt lat="43.14804185777592" lon="12.188064896600759"><ele>387.0</ele><time>2026-03-29T12:05:45.796Z</time></trkpt><trkpt lat="43.148156207073185" lon="12.188164386166067"><ele>387.0</ele><time>2026-03-29T12:05:46.796Z</time></trkpt><trkpt lat="43.148275442972135" lon="12.18827096910275"><ele>387.0</ele><time>2026-03-29T12:05:47.796Z</time></trkpt><trkpt lat="43.14839895310234" lon="12.188369394697427"><ele>387.0</ele><time>2026-03-29T12:05:48.795Z</time></trkpt><trkpt lat="43.14852625327588" lon="12.188457920042785"><ele>387.0</ele><time>2026-03-29T12:05:49.796Z</time></trkpt><trkpt lat="43.148657786363174" lon="12.18853196160951"><ele>387.0</ele><time>2026-03-29T12:05:50.796Z</time></trkpt><trkpt lat="43.14878444088547" lon="12.188605911718959"><ele>387.0</ele><time>2026-03-29T12:05:51.796Z</time></trkpt><trkpt lat="43.14891135334749" lon="12.188684486732503"><ele>387.0</ele><time>2026-03-29T12:05:52.796Z</time></trkpt><trkpt lat="43.149031644835" lon="12.188774273328745"><ele>387.0</ele><time>2026-03-29T12:05:53.796Z</time></trkpt><trkpt lat="43.14914210372942" lon="12.188871599045154"><ele>387.0</ele><time>2026-03-29T12:05:54.795Z</time></trkpt><trkpt lat="43.14923903282906" lon="12.188987507905635"><ele>385.0</ele><time>2026-03-29T12:05:55.795Z</time></trkpt><trkpt lat="43.14930715242191" lon="12.189124207978363"><ele>383.0</ele><time>2026-03-29T12:05:56.795Z</time></trkpt><trkpt lat="43.14934483186044" lon="12.18926884101162"><ele>381.0</ele><time>2026-03-29T12:05:57.795Z</time></trkpt><trkpt lat="43.14936373686112" lon="12.189417049748947"><ele>379.0</ele><time>2026-03-29T12:05:58.795Z</time></trkpt><trkpt lat="43.14937276209784" lon="12.189592563102778"><ele>379.0</ele><time>2026-03-29T12:05:59.795Z</time></trkpt><trkpt lat="43.14937636778258" lon="12.189736894254114"><ele>379.0</ele><time>2026-03-29T12:06:00.795Z</time></trkpt><trkpt lat="43.1493747482086" lon="12.189842006417226"><ele>379.0</ele><time>2026-03-29T12:06:01.795Z</time></trkpt><trkpt lat="43.14937601580238" lon="12.189965118780384"><ele>379.0</ele><time>2026-03-29T12:06:14.795Z</time></trkpt><trkpt lat="43.149240577529675" lon="12.189890231476838"><ele>379.0</ele><time>2026-03-29T12:06:16.795Z</time></trkpt><trkpt lat="43.14915592385636" lon="12.189865079370332"><ele>379.0</ele><time>2026-03-29T12:06:17.795Z</time></trkpt><trkpt lat="43.14906795671569" lon="12.18983776362102"><ele>379.0</ele><time>2026-03-29T12:06:18.795Z</time></trkpt><trkpt lat="43.14898105138444" lon="12.189809530937138"><ele>379.0</ele><time>2026-03-29T12:06:19.795Z</time></trkpt><trkpt lat="43.14890049357791" lon="12.189782088936022"><ele>379.0</ele><time>2026-03-29T12:06:20.795Z</time></trkpt><trkpt lat="43.14882346504134" lon="12.189754085150433"><ele>379.0</ele><time>2026-03-29T12:06:21.795Z</time></trkpt><trkpt lat="43.14873153609412" lon="12.189733843231297"><ele>379.0</ele><time>2026-03-29T12:06:22.795Z</time></trkpt><trkpt lat="43.148638783280575" lon="12.189675457262764"><ele>379.4</ele><time>2026-03-29T12:06:23.795Z</time></trkpt><trkpt lat="43.14854482926038" lon="12.189628991272436"><ele>379.79999999999995</ele><time>2026-03-29T12:06:24.795Z</time></trkpt><trkpt lat="43.14845306855967" lon="12.189584425151539"><ele>380.20000000000005</ele><time>2026-03-29T12:06:25.795Z</time></trkpt><trkpt lat="43.148357150482184" lon="12.189545097171417"><ele>380.6</ele><time>2026-03-29T12:06:26.795Z</time></trkpt><trkpt lat="43.14826229544893" lon="12.189491990484866"><ele>381.0</ele><time>2026-03-29T12:06:27.795Z</time></trkpt><trkpt lat="43.14815670663723" lon="12.189463436154577"><ele>378.8</ele><time>2026-03-29T12:06:28.795Z</time></trkpt><trkpt lat="43.1480495120487" lon="12.189439587282935"><ele>376.6</ele><time>2026-03-29T12:06:29.795Z</time></trkpt><trkpt lat="43.14794586068955" lon="12.189418595701035"><ele>374.4</ele><time>2026-03-29T12:06:30.794Z</time></trkpt><trkpt lat="43.14783654500019" lon="12.189399378096255"><ele>372.2</ele><time>2026-03-29T12:06:31.794Z</time></trkpt><trkpt lat="43.14772587297363" lon="12.18938176649273"><ele>370.0</ele><time>2026-03-29T12:06:32.794Z</time></trkpt><trkpt lat="43.14761707359539" lon="12.189369992781193"><ele>370.0</ele><time>2026-03-29T12:06:33.794Z</time></trkpt><trkpt lat="43.14751890643191" lon="12.189359748603623"><ele>370.0</ele><time>2026-03-29T12:06:34.794Z</time></trkpt><trkpt lat="43.147425529903586" lon="12.189345906818659"><ele>370.0</ele><time>2026-03-29T12:06:35.794Z</time></trkpt><trkpt lat="43.147322085347064" lon="12.189323247768828"><ele>370.0</ele><time>2026-03-29T12:06:36.794Z</time></trkpt><trkpt lat="43.1472322934705" lon="12.189302744463646"><ele>370.0</ele><time>2026-03-29T12:06:37.794Z</time></trkpt><trkpt lat="43.14715087907318" lon="12.189285566176329"><ele>368.0</ele><time>2026-03-29T12:06:38.794Z</time></trkpt><trkpt lat="43.14708063208149" lon="12.189278077186527"><ele>366.0</ele><time>2026-03-29T12:06:39.794Z</time></trkpt><trkpt lat="43.14700565843977" lon="12.189278918767183"><ele>364.0</ele><time>2026-03-29T12:06:40.794Z</time></trkpt><trkpt lat="43.14692292820422" lon="12.189290815127155"><ele>362.0</ele><time>2026-03-29T12:06:41.794Z</time></trkpt><trkpt lat="43.14683083235697" lon="12.189311623798778"><ele>360.0</ele><time>2026-03-29T12:06:42.794Z</time></trkpt><trkpt lat="43.14673900937726" lon="12.189339182052112"><ele>358.0</ele><time>2026-03-29T12:06:43.794Z</time></trkpt><trkpt lat="43.14665664278975" lon="12.189369071649079"><ele>358.0</ele><time>2026-03-29T12:06:44.794Z</time></trkpt><trkpt lat="43.14655640236792" lon="12.189390589824388"><ele>358.0</ele><time>2026-03-29T12:06:46.794Z</time></trkpt><trkpt lat="43.14648832545063" lon="12.189303642474641"><ele>358.0</ele><time>2026-03-29T12:06:48.794Z</time></trkpt><trkpt lat="43.146394950653345" lon="12.189133429989285"><ele>358.0</ele><time>2026-03-29T12:06:50.794Z</time></trkpt><trkpt lat="43.14631566049259" lon="12.188984583852873"><ele>357.16666666666663</ele><time>2026-03-29T12:06:51.794Z</time></trkpt><trkpt lat="43.14624189090494" lon="12.188855988509452"><ele>356.3333333333333</ele><time>2026-03-29T12:06:52.794Z</time></trkpt><trkpt lat="43.14618560848835" lon="12.188732194803558"><ele>355.5</ele><time>2026-03-29T12:06:53.794Z</time></trkpt><trkpt lat="43.1461270522922" lon="12.18865333853902"><ele>354.6666666666667</ele><time>2026-03-29T12:06:54.794Z</time></trkpt><trkpt lat="43.1460804761576" lon="12.188580956549826"><ele>353.83333333333337</ele><time>2026-03-29T12:06:55.794Z</time></trkpt><trkpt lat="43.14604512671065" lon="12.188502313537306"><ele>353.0</ele><time>2026-03-29T12:06:56.794Z</time></trkpt><trkpt lat="43.14597603676851" lon="12.188440122865858"><ele>353.0</ele><time>2026-03-29T12:06:57.794Z</time></trkpt><trkpt lat="43.145914979593115" lon="12.18833911612767"><ele>353.0</ele><time>2026-03-29T12:06:58.794Z</time></trkpt><trkpt lat="43.14586205271936" lon="12.188265586440249"><ele>353.0</ele><time>2026-03-29T12:06:59.794Z</time></trkpt><trkpt lat="43.14581649098942" lon="12.18820425010226"><ele>353.0</ele><time>2026-03-29T12:07:00.794Z</time></trkpt><trkpt lat="43.14576180096006" lon="12.188130625039845"><ele>353.0</ele><time>2026-03-29T12:07:01.794Z</time></trkpt><trkpt lat="43.1456819451473" lon="12.188025807417453"><ele>353.0</ele><time>2026-03-29T12:07:02.794Z</time></trkpt><trkpt lat="43.145597048720205" lon="12.187916828673044"><ele>354.2</ele><time>2026-03-29T12:07:03.794Z</time></trkpt><trkpt lat="43.14551196720818" lon="12.187819871623583"><ele>355.4</ele><time>2026-03-29T12:07:04.794Z</time></trkpt><trkpt lat="43.14542832748756" lon="12.18773800635199"><ele>356.59999999999997</ele><time>2026-03-29T12:07:05.794Z</time></trkpt><trkpt lat="43.14535725665718" lon="12.187675143038978"><ele>357.79999999999995</ele><time>2026-03-29T12:07:06.793Z</time></trkpt><trkpt lat="43.14529288832835" lon="12.187626845760052"><ele>359.0</ele><time>2026-03-29T12:07:07.793Z</time></trkpt><trkpt lat="43.14519695095629" lon="12.18767994652665"><ele>359.0</ele><time>2026-03-29T12:07:08.793Z</time></trkpt><trkpt lat="43.14511784935175" lon="12.18765310553054"><ele>359.0</ele><time>2026-03-29T12:07:09.793Z</time></trkpt><trkpt lat="43.145052431306794" lon="12.187639845805245"><ele>359.0</ele><time>2026-03-29T12:07:10.793Z</time></trkpt><trkpt lat="43.144967804406654" lon="12.187647065271175"><ele>359.0</ele><time>2026-03-29T12:07:11.793Z</time></trkpt><trkpt lat="43.144900849057564" lon="12.187669012458043"><ele>359.0</ele><time>2026-03-29T12:07:12.793Z</time></trkpt><trkpt lat="43.14478278285135" lon="12.187691031490456"><ele>359.0</ele><time>2026-03-29T12:08:21.794Z</time></trkpt><trkpt lat="43.14470201018406" lon="12.187716434291673"><ele>358.0</ele><time>2026-03-29T12:08:40.793Z</time></trkpt><trkpt lat="43.14460491715028" lon="12.187752634600818"><ele>357.0</ele><time>2026-03-29T12:08:42.793Z</time></trkpt><trkpt lat="43.14453965337358" lon="12.187761405397639"><ele>356.0</ele><time>2026-03-29T12:08:43.793Z</time></trkpt><trkpt lat="43.144475395651945" lon="12.18775314939229"><ele>355.0</ele><time>2026-03-29T12:08:44.793Z</time></trkpt><trkpt lat="43.144405130027216" lon="12.18774079223033"><ele>354.0</ele><time>2026-03-29T12:08:46.793Z</time></trkpt><trkpt lat="43.144402728848235" lon="12.187626740280646"><ele>353.0</ele><time>2026-03-29T12:08:47.793Z</time></trkpt><trkpt lat="43.144389483284115" lon="12.187528479152691"><ele>353.0</ele><time>2026-03-29T12:08:50.793Z</time></trkpt><trkpt lat="43.14436741772114" lon="12.187442231006772"><ele>353.0</ele><time>2026-03-29T12:08:56.793Z</time></trkpt><trkpt lat="43.14436468451502" lon="12.187344452416655"><ele>353.0</ele><time>2026-03-29T12:08:57.793Z</time></trkpt><trkpt lat="43.14436426304596" lon="12.187249600877667"><ele>353.0</ele><time>2026-03-29T12:08:58.793Z</time></trkpt><trkpt lat="43.144364067404446" lon="12.187149388400496"><ele>353.0</ele><time>2026-03-29T12:08:59.793Z</time></trkpt><trkpt lat="43.144365784205576" lon="12.187035163056583"><ele>353.0</ele><time>2026-03-29T12:09:00.793Z</time></trkpt><trkpt lat="43.144361096538844" lon="12.186923808212148"><ele>353.0</ele><time>2026-03-29T12:09:01.793Z</time></trkpt><trkpt lat="43.144359950802645" lon="12.186804003488627"><ele>354.4</ele><time>2026-03-29T12:09:02.793Z</time></trkpt><trkpt lat="43.14435830757933" lon="12.186704280599036"><ele>355.79999999999995</ele><time>2026-03-29T12:09:03.793Z</time></trkpt><trkpt lat="43.14434678302928" lon="12.186570128112281"><ele>357.2</ele><time>2026-03-29T12:09:05.792Z</time></trkpt><trkpt lat="43.144280710367916" lon="12.186517038816147"><ele>358.6</ele><time>2026-03-29T12:09:11.792Z</time></trkpt><trkpt lat="43.14431076127451" lon="12.186407877050629"><ele>360.0</ele><time>2026-03-29T12:09:14.792Z</time></trkpt><trkpt lat="43.1443640086874" lon="12.186255974822334"><ele>362.0</ele><time>2026-03-29T12:09:16.792Z</time></trkpt><trkpt lat="43.14438767783802" lon="12.186122560682708"><ele>364.0</ele><time>2026-03-29T12:09:18.792Z</time></trkpt><trkpt lat="43.14436154490403" lon="12.185968263804513"><ele>366.0</ele><time>2026-03-29T12:09:20.792Z</time></trkpt><trkpt lat="43.14434788836867" lon="12.185836668023322"><ele>368.0</ele><time>2026-03-29T12:09:21.792Z</time></trkpt><trkpt lat="43.14431192549087" lon="12.185710297062966"><ele>370.0</ele><time>2026-03-29T12:09:22.792Z</time></trkpt><trkpt lat="43.14427618098761" lon="12.185563427089711"><ele>372.6</ele><time>2026-03-29T12:09:23.792Z</time></trkpt><trkpt lat="43.14423513800167" lon="12.185441078109823"><ele>375.2</ele><time>2026-03-29T12:09:24.792Z</time></trkpt><trkpt lat="43.144190532153544" lon="12.185290694947616"><ele>377.79999999999995</ele><time>2026-03-29T12:09:25.792Z</time></trkpt><trkpt lat="43.14415468856394" lon="12.185176852200458"><ele>380.4</ele><time>2026-03-29T12:09:26.792Z</time></trkpt><trkpt lat="43.14412864352229" lon="12.18507635721814"><ele>383.0</ele><time>2026-03-29T12:09:27.792Z</time></trkpt><trkpt lat="43.14410862596461" lon="12.184962339014008"><ele>383.6666666666667</ele><time>2026-03-29T12:09:28.792Z</time></trkpt><trkpt lat="43.144094052908265" lon="12.184844074630139"><ele>384.33333333333337</ele><time>2026-03-29T12:09:29.792Z</time></trkpt><trkpt lat="43.1440853869318" lon="12.184729206333097"><ele>385.0</ele><time>2026-03-29T12:09:30.792Z</time></trkpt><trkpt lat="43.14407298796892" lon="12.1846418359348"><ele>385.6666666666667</ele><time>2026-03-29T12:09:31.792Z</time></trkpt><trkpt lat="43.144021104820034" lon="12.184537346727032"><ele>386.3333333333333</ele><time>2026-03-29T12:09:32.792Z</time></trkpt><trkpt lat="43.14394918273743" lon="12.184414565201543"><ele>387.0</ele><time>2026-03-29T12:09:33.792Z</time></trkpt><trkpt lat="43.143885749080695" lon="12.18428243423516"><ele>387.0</ele><time>2026-03-29T12:09:34.792Z</time></trkpt><trkpt lat="43.14382422216121" lon="12.184198788070475"><ele>387.0</ele><time>2026-03-29T12:09:35.792Z</time></trkpt><trkpt lat="43.14376704112242" lon="12.184152702556922"><ele>387.0</ele><time>2026-03-29T12:09:36.792Z</time></trkpt><trkpt lat="43.14370556585087" lon="12.18408894102334"><ele>387.0</ele><time>2026-03-29T12:09:37.792Z</time></trkpt><trkpt lat="43.143652509034226" lon="12.184036528207828"><ele>387.0</ele><time>2026-03-29T12:09:38.792Z</time></trkpt><trkpt lat="43.14361547808081" lon="12.183963036678348"><ele>387.0</ele><time>2026-03-29T12:09:39.792Z</time></trkpt><trkpt lat="43.14355822501893" lon="12.18387026762455"><ele>387.0</ele><time>2026-03-29T12:09:40.791Z</time></trkpt><trkpt lat="43.143489856018675" lon="12.183779999261736"><ele>388.8333333333333</ele><time>2026-03-29T12:09:41.791Z</time></trkpt><trkpt lat="43.143407284582935" lon="12.183695229123094"><ele>390.66666666666663</ele><time>2026-03-29T12:09:42.791Z</time></trkpt><trkpt lat="43.143339111045215" lon="12.183602833145942"><ele>392.5</ele><time>2026-03-29T12:09:43.791Z</time></trkpt><trkpt lat="43.143277545167216" lon="12.183526170863576"><ele>394.3333333333333</ele><time>2026-03-29T12:09:44.791Z</time></trkpt><trkpt lat="43.14321821363535" lon="12.183448455865546"><ele>396.16666666666663</ele><time>2026-03-29T12:09:45.791Z</time></trkpt><trkpt lat="43.14315848282322" lon="12.183392201156924"><ele>398.0</ele><time>2026-03-29T12:09:46.791Z</time></trkpt><trkpt lat="43.14309057950201" lon="12.183357749689504"><ele>398.0</ele><time>2026-03-29T12:09:47.791Z</time></trkpt><trkpt lat="43.14301608586019" lon="12.183301108867067"><ele>398.0</ele><time>2026-03-29T12:09:48.793Z</time></trkpt><trkpt lat="43.14290680893409" lon="12.183253023883417"><ele>398.0</ele><time>2026-03-29T12:09:49.793Z</time></trkpt><trkpt lat="43.1427932682064" lon="12.183210070167096"><ele>398.0</ele><time>2026-03-29T12:09:50.793Z</time></trkpt><trkpt lat="43.14268733404191" lon="12.183171883417907"><ele>398.0</ele><time>2026-03-29T12:09:51.794Z</time></trkpt><trkpt lat="43.14259124549979" lon="12.18313403257725"><ele>399.99999999999994</ele><time>2026-03-29T12:09:52.793Z</time></trkpt><trkpt lat="43.14250244386933" lon="12.18309598268911"><ele>402.0</ele><time>2026-03-29T12:09:53.793Z</time></trkpt><trkpt lat="43.14241865986956" lon="12.18304569902459"><ele>404.0</ele><time>2026-03-29T12:09:54.793Z</time></trkpt><trkpt lat="43.142334602561306" lon="12.183019123518802"><ele>406.0</ele><time>2026-03-29T12:09:55.793Z</time></trkpt><trkpt lat="43.142250206053255" lon="12.18297380464178"><ele>407.99999999999994</ele><time>2026-03-29T12:09:56.793Z</time></trkpt><trkpt lat="43.142188904264174" lon="12.182933394716148"><ele>410.0</ele><time>2026-03-29T12:09:57.793Z</time></trkpt><trkpt lat="43.14211779704242" lon="12.18288278465143"><ele>410.0</ele><time>2026-03-29T12:09:58.793Z</time></trkpt><trkpt lat="43.142023353953185" lon="12.182818093823162"><ele>410.0</ele><time>2026-03-29T12:09:59.793Z</time></trkpt><trkpt lat="43.14193696233915" lon="12.182772270845012"><ele>410.0</ele><time>2026-03-29T12:10:00.794Z</time></trkpt><trkpt lat="43.141859397061864" lon="12.18275033530372"><ele>410.0</ele><time>2026-03-29T12:10:01.793Z</time></trkpt><trkpt lat="43.14178744235779" lon="12.182735625866217"><ele>410.0</ele><time>2026-03-29T12:10:02.793Z</time></trkpt><trkpt lat="43.14168199894171" lon="12.182729757156661"><ele>410.0</ele><time>2026-03-29T12:10:07.792Z</time></trkpt><trkpt lat="43.14158360157842" lon="12.182698918589198"><ele>410.0</ele><time>2026-03-29T12:10:09.792Z</time></trkpt><trkpt lat="43.14149291090567" lon="12.182698882294035"><ele>410.0</ele><time>2026-03-29T12:10:11.792Z</time></trkpt><trkpt lat="43.14135302111916" lon="12.182757878439123"><ele>410.0</ele><time>2026-03-29T12:10:14.792Z</time></trkpt><trkpt lat="43.141262953060554" lon="12.182786922431776"><ele>410.0</ele><time>2026-03-29T12:10:15.792Z</time></trkpt><trkpt lat="43.141171074363974" lon="12.182810614091311"><ele>410.4</ele><time>2026-03-29T12:10:16.792Z</time></trkpt><trkpt lat="43.14109915200115" lon="12.182823751774103"><ele>410.8</ele><time>2026-03-29T12:10:17.792Z</time></trkpt><trkpt lat="43.14100467782134" lon="12.18282322209902"><ele>411.20000000000005</ele><time>2026-03-29T12:10:19.792Z</time></trkpt><trkpt lat="43.14091518100206" lon="12.182845317302966"><ele>411.6</ele><time>2026-03-29T12:10:20.792Z</time></trkpt><trkpt lat="43.14079554068314" lon="12.18288751977532"><ele>412.0</ele><time>2026-03-29T12:10:21.792Z</time></trkpt><trkpt lat="43.140669353609134" lon="12.182933806725437"><ele>412.6666666666667</ele><time>2026-03-29T12:10:22.792Z</time></trkpt><trkpt lat="43.14052167788136" lon="12.182980695686725"><ele>413.33333333333337</ele><time>2026-03-29T12:10:23.792Z</time></trkpt><trkpt lat="43.14036002907764" lon="12.183025201351278"><ele>414.0</ele><time>2026-03-29T12:10:24.792Z</time></trkpt><trkpt lat="43.14017985154941" lon="12.183050343013159"><ele>414.0</ele><time>2026-03-29T12:10:25.792Z</time></trkpt><trkpt lat="43.13997854767127" lon="12.183061088298096"><ele>414.0</ele><time>2026-03-29T12:10:26.792Z</time></trkpt><trkpt lat="43.139777828014694" lon="12.183062344532974"><ele>414.0</ele><time>2026-03-29T12:10:27.792Z</time></trkpt><trkpt lat="43.139609781021164" lon="12.183087034129285"><ele>414.5</ele><time>2026-03-29T12:10:28.792Z</time></trkpt><trkpt lat="43.13946731970086" lon="12.183101496656365"><ele>415.0</ele><time>2026-03-29T12:10:29.792Z</time></trkpt><trkpt lat="43.1393537915575" lon="12.183114545985635"><ele>415.5</ele><time>2026-03-29T12:10:30.792Z</time></trkpt><trkpt lat="43.13924002903329" lon="12.183122711520351"><ele>416.0</ele><time>2026-03-29T12:10:31.792Z</time></trkpt><trkpt lat="43.139113371650915" lon="12.183149701830121"><ele>415.5</ele><time>2026-03-29T12:10:32.792Z</time></trkpt><trkpt lat="43.138995687497854" lon="12.18317866817945"><ele>415.0</ele><time>2026-03-29T12:10:33.792Z</time></trkpt><trkpt lat="43.13886240028218" lon="12.183185050923845"><ele>414.5</ele><time>2026-03-29T12:10:34.792Z</time></trkpt><trkpt lat="43.13873380060989" lon="12.183164860668198"><ele>414.0</ele><time>2026-03-29T12:10:35.792Z</time></trkpt><trkpt lat="43.13860136401604" lon="12.183140393849731"><ele>414.0</ele><time>2026-03-29T12:10:36.792Z</time></trkpt><trkpt lat="43.1384629804352" lon="12.183114767387746"><ele>414.0</ele><time>2026-03-29T12:10:37.792Z</time></trkpt><trkpt lat="43.138328561003384" lon="12.183093137467315"><ele>414.0</ele><time>2026-03-29T12:10:38.792Z</time></trkpt><trkpt lat="43.13818879845166" lon="12.183066328724127"><ele>414.0</ele><time>2026-03-29T12:10:39.792Z</time></trkpt><trkpt lat="43.13806039772267" lon="12.183053606762158"><ele>412.6</ele><time>2026-03-29T12:10:40.792Z</time></trkpt><trkpt lat="43.137944968573535" lon="12.183044506368388"><ele>411.2</ele><time>2026-03-29T12:10:41.791Z</time></trkpt><trkpt lat="43.13785714178516" lon="12.183043274626737"><ele>409.8</ele><time>2026-03-29T12:10:42.791Z</time></trkpt><trkpt lat="43.1377750485051" lon="12.183042814175996"><ele>408.40000000000003</ele><time>2026-03-29T12:10:43.791Z</time></trkpt><trkpt lat="43.137693694616054" lon="12.183033878567961"><ele>407.0</ele><time>2026-03-29T12:10:44.791Z</time></trkpt><trkpt lat="43.137606879558" lon="12.183024416846218"><ele>406.99999999999994</ele><time>2026-03-29T12:10:45.791Z</time></trkpt><trkpt lat="43.13753289500553" lon="12.183040484481891"><ele>407.0</ele><time>2026-03-29T12:10:46.791Z</time></trkpt><trkpt lat="43.137480112530106" lon="12.183095762100564"><ele>407.0</ele><time>2026-03-29T12:10:47.791Z</time></trkpt><trkpt lat="43.137441425003786" lon="12.183167376495316"><ele>407.0</ele><time>2026-03-29T12:10:48.791Z</time></trkpt><trkpt lat="43.13740884666846" lon="12.183294575012457"><ele>406.99999999999994</ele><time>2026-03-29T12:10:50.791Z</time></trkpt><trkpt lat="43.13738153016001" lon="12.183442040565335"><ele>407.0</ele><time>2026-03-29T12:10:52.791Z</time></trkpt><trkpt lat="43.137362526386745" lon="12.183548152282329"><ele>406.8333333333333</ele><time>2026-03-29T12:10:53.791Z</time></trkpt><trkpt lat="43.13733466464606" lon="12.183666938262721"><ele>406.66666666666663</ele><time>2026-03-29T12:10:54.791Z</time></trkpt><trkpt lat="43.137310954215764" lon="12.183782039407557"><ele>406.5</ele><time>2026-03-29T12:10:55.791Z</time></trkpt><trkpt lat="43.13727777142275" lon="12.18389126613049"><ele>406.33333333333337</ele><time>2026-03-29T12:10:56.791Z</time></trkpt><trkpt lat="43.137240491408335" lon="12.183982624248642"><ele>406.1666666666667</ele><time>2026-03-29T12:10:57.791Z</time></trkpt><trkpt lat="43.1371930219306" lon="12.184053645488058"><ele>406.0</ele><time>2026-03-29T12:10:58.791Z</time></trkpt><trkpt lat="43.13711205034612" lon="12.184066172753282"><ele>408.25</ele><time>2026-03-29T12:10:59.791Z</time></trkpt><trkpt lat="43.13698491244597" lon="12.184078332021448"><ele>410.5</ele><time>2026-03-29T12:11:00.791Z</time></trkpt><trkpt lat="43.136833959456695" lon="12.184084932202405"><ele>412.75</ele><time>2026-03-29T12:11:01.791Z</time></trkpt><trkpt lat="43.1367150522645" lon="12.18410444767832"><ele>415.0</ele><time>2026-03-29T12:11:02.791Z</time></trkpt><trkpt lat="43.136602924812976" lon="12.184145040318151"><ele>413.0</ele><time>2026-03-29T12:11:03.791Z</time></trkpt><trkpt lat="43.13650112683233" lon="12.184204720371516"><ele>411.0</ele><time>2026-03-29T12:11:04.791Z</time></trkpt><trkpt lat="43.13639585286445" lon="12.184276073364591"><ele>409.0</ele><time>2026-03-29T12:11:05.791Z</time></trkpt><trkpt lat="43.13629437998081" lon="12.184362427345167"><ele>407.0</ele><time>2026-03-29T12:11:06.791Z</time></trkpt><trkpt lat="43.136201079846096" lon="12.184438559021121"><ele>406.99999999999994</ele><time>2026-03-29T12:11:07.791Z</time></trkpt><trkpt lat="43.13610827190089" lon="12.18449976660017"><ele>407.0</ele><time>2026-03-29T12:11:08.791Z</time></trkpt><trkpt lat="43.136022611957934" lon="12.184525022445605"><ele>407.0</ele><time>2026-03-29T12:11:09.791Z</time></trkpt><trkpt lat="43.135944871619614" lon="12.184499980614586"><ele>407.0</ele><time>2026-03-29T12:11:10.791Z</time></trkpt><trkpt lat="43.13588183230904" lon="12.184452445602563"><ele>406.99999999999994</ele><time>2026-03-29T12:11:11.791Z</time></trkpt><trkpt lat="43.13581080340745" lon="12.184411827261389"><ele>407.0</ele><time>2026-03-29T12:11:12.791Z</time></trkpt><trkpt lat="43.13573669009154" lon="12.184394219924798"><ele>404.8333333333333</ele><time>2026-03-29T12:11:13.791Z</time></trkpt><trkpt lat="43.13567074931942" lon="12.18439292487899"><ele>402.66666666666663</ele><time>2026-03-29T12:11:14.791Z</time></trkpt><trkpt lat="43.13560067888903" lon="12.184394188958784"><ele>400.5</ele><time>2026-03-29T12:11:15.791Z</time></trkpt><trkpt lat="43.13550281340078" lon="12.184406384369106"><ele>398.33333333333337</ele><time>2026-03-29T12:11:17.79Z</time></trkpt><trkpt lat="43.13542581264062" lon="12.184416862059823"><ele>396.1666666666667</ele><time>2026-03-29T12:11:19.79Z</time></trkpt><trkpt lat="43.13539636416167" lon="12.184338732666857"><ele>394.0</ele><time>2026-03-29T12:11:21.79Z</time></trkpt><trkpt lat="43.135420129511346" lon="12.18417410756492"><ele>394.00000000000006</ele><time>2026-03-29T12:11:23.79Z</time></trkpt><trkpt lat="43.135454033759636" lon="12.184074531722374"><ele>394.0</ele><time>2026-03-29T12:11:24.79Z</time></trkpt><trkpt lat="43.135486853563584" lon="12.183974540050341"><ele>394.0</ele><time>2026-03-29T12:11:25.79Z</time></trkpt><trkpt lat="43.13552424915523" lon="12.183880928323099"><ele>394.0</ele><time>2026-03-29T12:11:26.79Z</time></trkpt><trkpt lat="43.1355871137388" lon="12.183793011816489"><ele>394.00000000000006</ele><time>2026-03-29T12:11:27.79Z</time></trkpt><trkpt lat="43.13567561259655" lon="12.183693850535548"><ele>394.0</ele><time>2026-03-29T12:11:28.79Z</time></trkpt><trkpt lat="43.13576866957788" lon="12.183600754445491"><ele>394.2</ele><time>2026-03-29T12:11:29.79Z</time></trkpt><trkpt lat="43.135851112055406" lon="12.183507568057259"><ele>394.4</ele><time>2026-03-29T12:11:30.79Z</time></trkpt><trkpt lat="43.13592150627776" lon="12.183398502055764"><ele>394.6</ele><time>2026-03-29T12:11:31.79Z</time></trkpt><trkpt lat="43.135965459265215" lon="12.183267886327018"><ele>394.8</ele><time>2026-03-29T12:11:32.79Z</time></trkpt><trkpt lat="43.135982659328356" lon="12.18313959884129"><ele>395.0</ele><time>2026-03-29T12:11:33.79Z</time></trkpt><trkpt lat="43.13599328854444" lon="12.183007730240698"><ele>394.6</ele><time>2026-03-29T12:11:34.79Z</time></trkpt><trkpt lat="43.135983769505785" lon="12.182891772675395"><ele>394.2</ele><time>2026-03-29T12:11:35.79Z</time></trkpt><trkpt lat="43.13594268885041" lon="12.182791513004435"><ele>393.79999999999995</ele><time>2026-03-29T12:11:36.79Z</time></trkpt><trkpt lat="43.13588528086195" lon="12.182710048433142"><ele>393.4</ele><time>2026-03-29T12:11:37.79Z</time></trkpt><trkpt lat="43.135804179469325" lon="12.182609990013255"><ele>393.0</ele><time>2026-03-29T12:11:38.79Z</time></trkpt><trkpt lat="43.135722747093766" lon="12.182485944915458"><ele>392.25</ele><time>2026-03-29T12:11:39.79Z</time></trkpt><trkpt lat="43.13565762784563" lon="12.182365071188341"><ele>391.5</ele><time>2026-03-29T12:11:40.79Z</time></trkpt><trkpt lat="43.13558452782728" lon="12.182259321430248"><ele>390.75</ele><time>2026-03-29T12:11:41.79Z</time></trkpt><trkpt lat="43.13550515290838" lon="12.182142730518102"><ele>390.0</ele><time>2026-03-29T12:11:42.79Z</time></trkpt><trkpt lat="43.13539458129557" lon="12.182041956291108"><ele>390.0</ele><time>2026-03-29T12:11:43.79Z</time></trkpt><trkpt lat="43.135264268252975" lon="12.181921414177927"><ele>390.0</ele><time>2026-03-29T12:11:44.79Z</time></trkpt><trkpt lat="43.13514115561197" lon="12.18179995282102"><ele>390.0</ele><time>2026-03-29T12:11:45.79Z</time></trkpt><trkpt lat="43.1350211393066" lon="12.181684671399587"><ele>390.0</ele><time>2026-03-29T12:11:46.79Z</time></trkpt><trkpt lat="43.13491533637035" lon="12.181580880385255"><ele>390.0</ele><time>2026-03-29T12:11:47.79Z</time></trkpt><trkpt lat="43.134811577647156" lon="12.181490918129871"><ele>390.0</ele><time>2026-03-29T12:11:48.79Z</time></trkpt><trkpt lat="43.13470917638425" lon="12.181422499327716"><ele>390.0</ele><time>2026-03-29T12:11:49.79Z</time></trkpt><trkpt lat="43.134587336752475" lon="12.181352313711683"><ele>390.75</ele><time>2026-03-29T12:11:50.79Z</time></trkpt><trkpt lat="43.13446049084288" lon="12.18128962732866"><ele>391.5</ele><time>2026-03-29T12:11:51.79Z</time></trkpt><trkpt lat="43.13433484978829" lon="12.181224931775523"><ele>392.25</ele><time>2026-03-29T12:11:52.79Z</time></trkpt><trkpt lat="43.134213988339404" lon="12.18116153270288"><ele>393.0</ele><time>2026-03-29T12:11:53.789Z</time></trkpt><trkpt lat="43.13410265500216" lon="12.181098589402954"><ele>391.25</ele><time>2026-03-29T12:11:54.792Z</time></trkpt><trkpt lat="43.1339883952465" lon="12.181042328685411"><ele>389.5</ele><time>2026-03-29T12:11:55.792Z</time></trkpt><trkpt lat="43.133876064507994" lon="12.18098717166991"><ele>387.75</ele><time>2026-03-29T12:11:56.792Z</time></trkpt><trkpt lat="43.13376538946657" lon="12.180925085365098"><ele>386.0</ele><time>2026-03-29T12:11:57.792Z</time></trkpt><trkpt lat="43.1336466073308" lon="12.180860962567866"><ele>386.0</ele><time>2026-03-29T12:11:58.792Z</time></trkpt><trkpt lat="43.13352268512509" lon="12.180801347196239"><ele>386.0</ele><time>2026-03-29T12:11:59.792Z</time></trkpt><trkpt lat="43.13339236889821" lon="12.18074430684107"><ele>386.0</ele><time>2026-03-29T12:12:00.792Z</time></trkpt><trkpt lat="43.133263408740866" lon="12.18068977762722"><ele>386.0</ele><time>2026-03-29T12:12:01.792Z</time></trkpt><trkpt lat="43.13312594887364" lon="12.180638400946448"><ele>386.0</ele><time>2026-03-29T12:12:02.792Z</time></trkpt><trkpt lat="43.132987444637386" lon="12.180586677023587"><ele>386.0</ele><time>2026-03-29T12:12:03.792Z</time></trkpt><trkpt lat="43.13285284744762" lon="12.18053729133214"><ele>386.0</ele><time>2026-03-29T12:12:04.792Z</time></trkpt><trkpt lat="43.13272341356915" lon="12.180472541649072"><ele>386.0</ele><time>2026-03-29T12:12:05.792Z</time></trkpt><trkpt lat="43.13259113857402" lon="12.180411372403212"><ele>386.0</ele><time>2026-03-29T12:12:06.792Z</time></trkpt><trkpt lat="43.1324605515356" lon="12.180353933271114"><ele>386.0</ele><time>2026-03-29T12:12:07.792Z</time></trkpt><trkpt lat="43.1323250714081" lon="12.180289454287232"><ele>386.0</ele><time>2026-03-29T12:12:08.792Z</time></trkpt><trkpt lat="43.13219280499943" lon="12.180218119198251"><ele>386.0</ele><time>2026-03-29T12:12:09.791Z</time></trkpt><trkpt lat="43.1320619367825" lon="12.180155776271064"><ele>385.4</ele><time>2026-03-29T12:12:10.791Z</time></trkpt><trkpt lat="43.13194186941485" lon="12.18009276546998"><ele>384.8</ele><time>2026-03-29T12:12:11.791Z</time></trkpt><trkpt lat="43.13183773623891" lon="12.180045204522138"><ele>384.2</ele><time>2026-03-29T12:12:12.791Z</time></trkpt><trkpt lat="43.13173905321968" lon="12.180030042253673"><ele>383.59999999999997</ele><time>2026-03-29T12:12:13.791Z</time></trkpt><trkpt lat="43.13166136700026" lon="12.180013323009316"><ele>383.0</ele><time>2026-03-29T12:12:14.791Z</time></trkpt><trkpt lat="43.131561255962495" lon="12.179985155069181"><ele>381.5</ele><time>2026-03-29T12:12:15.791Z</time></trkpt><trkpt lat="43.13146222539859" lon="12.179923907972743"><ele>380.0</ele><time>2026-03-29T12:12:16.791Z</time></trkpt><trkpt lat="43.13136050162727" lon="12.179845272474754"><ele>378.5</ele><time>2026-03-29T12:12:17.791Z</time></trkpt><trkpt lat="43.13123784540989" lon="12.179769993208849"><ele>377.0</ele><time>2026-03-29T12:12:18.791Z</time></trkpt><trkpt lat="43.131118838121104" lon="12.179697905090558"><ele>377.0</ele><time>2026-03-29T12:12:19.791Z</time></trkpt><trkpt lat="43.13097390994277" lon="12.179646913780804"><ele>377.0</ele><time>2026-03-29T12:12:20.791Z</time></trkpt><trkpt lat="43.13082746017236" lon="12.179593129287252"><ele>377.0</ele><time>2026-03-29T12:12:21.791Z</time></trkpt><trkpt lat="43.1306843186501" lon="12.179544898230912"><ele>377.0</ele><time>2026-03-29T12:12:22.791Z</time></trkpt><trkpt lat="43.13055462386595" lon="12.179495139273396"><ele>377.5</ele><time>2026-03-29T12:12:23.791Z</time></trkpt><trkpt lat="43.13042990829658" lon="12.179439920032578"><ele>378.0</ele><time>2026-03-29T12:12:24.791Z</time></trkpt><trkpt lat="43.13030096414585" lon="12.179390614320168"><ele>378.5</ele><time>2026-03-29T12:12:25.791Z</time></trkpt><trkpt lat="43.13018398700684" lon="12.179332663361789"><ele>379.0</ele><time>2026-03-29T12:12:26.791Z</time></trkpt><trkpt lat="43.13005821584457" lon="12.179265014871685"><ele>379.0</ele><time>2026-03-29T12:12:27.791Z</time></trkpt><trkpt lat="43.129932082427786" lon="12.179203919260598"><ele>379.0</ele><time>2026-03-29T12:12:28.791Z</time></trkpt><trkpt lat="43.12981885186528" lon="12.179150248091254"><ele>379.0</ele><time>2026-03-29T12:12:29.791Z</time></trkpt><trkpt lat="43.12969882126659" lon="12.179098242521183"><ele>379.0</ele><time>2026-03-29T12:12:30.791Z</time></trkpt><trkpt lat="43.129596738737376" lon="12.179051731988922"><ele>377.5</ele><time>2026-03-29T12:12:31.791Z</time></trkpt><trkpt lat="43.12947671486687" lon="12.179002602293945"><ele>376.0</ele><time>2026-03-29T12:12:32.791Z</time></trkpt><trkpt lat="43.12934203743145" lon="12.178935912811431"><ele>374.5</ele><time>2026-03-29T12:12:33.791Z</time></trkpt><trkpt lat="43.12921345641028" lon="12.17887839511563"><ele>373.0</ele><time>2026-03-29T12:12:34.791Z</time></trkpt><trkpt lat="43.12907744597723" lon="12.178799864819045"><ele>373.75</ele><time>2026-03-29T12:12:35.791Z</time></trkpt><trkpt lat="43.1289442391631" lon="12.178720102694921"><ele>374.5</ele><time>2026-03-29T12:12:36.791Z</time></trkpt><trkpt lat="43.128813686579065" lon="12.17865442569455"><ele>375.25</ele><time>2026-03-29T12:12:37.791Z</time></trkpt><trkpt lat="43.128685404585156" lon="12.178584727201"><ele>376.0</ele><time>2026-03-29T12:12:38.791Z</time></trkpt><trkpt lat="43.12855595263488" lon="12.178521695154219"><ele>376.0</ele><time>2026-03-29T12:12:39.791Z</time></trkpt><trkpt lat="43.12842680355229" lon="12.178454712872187"><ele>376.0</ele><time>2026-03-29T12:12:40.791Z</time></trkpt><trkpt lat="43.12830124670975" lon="12.17837721551794"><ele>376.0</ele><time>2026-03-29T12:12:41.791Z</time></trkpt><trkpt lat="43.128188884754046" lon="12.178283477373833"><ele>376.0</ele><time>2026-03-29T12:12:42.791Z</time></trkpt><trkpt lat="43.12807994299989" lon="12.178199840504284"><ele>375.25</ele><time>2026-03-29T12:12:43.791Z</time></trkpt><trkpt lat="43.1279922236306" lon="12.178109397775367"><ele>374.5</ele><time>2026-03-29T12:12:44.791Z</time></trkpt><trkpt lat="43.1278983314156" lon="12.178018035347643"><ele>373.75</ele><time>2026-03-29T12:12:45.79Z</time></trkpt><trkpt lat="43.12781375910544" lon="12.177905979767045"><ele>373.0</ele><time>2026-03-29T12:12:46.79Z</time></trkpt><trkpt lat="43.12773612031737" lon="12.177803496454601"><ele>373.0</ele><time>2026-03-29T12:12:47.79Z</time></trkpt><trkpt lat="43.12764910589015" lon="12.177695291173709"><ele>373.0</ele><time>2026-03-29T12:12:48.79Z</time></trkpt><trkpt lat="43.12757138629989" lon="12.177591983227392"><ele>373.0</ele><time>2026-03-29T12:12:49.79Z</time></trkpt><trkpt lat="43.12750711120179" lon="12.177511842217276"><ele>373.0</ele><time>2026-03-29T12:12:50.79Z</time></trkpt><trkpt lat="43.12745019606886" lon="12.177441436254519"><ele>373.0</ele><time>2026-03-29T12:12:51.79Z</time></trkpt><trkpt lat="43.12733768544464" lon="12.177371164488752"><ele>373.4</ele><time>2026-03-29T12:12:53.79Z</time></trkpt><trkpt lat="43.12722382836894" lon="12.177364019540574"><ele>373.79999999999995</ele><time>2026-03-29T12:12:55.79Z</time></trkpt><trkpt lat="43.12714243575931" lon="12.177448194526905"><ele>374.2</ele><time>2026-03-29T12:12:57.79Z</time></trkpt><trkpt lat="43.127088425379554" lon="12.177554757743081"><ele>374.6</ele><time>2026-03-29T12:12:58.79Z</time></trkpt><trkpt lat="43.12702236748317" lon="12.177647664188678"><ele>375.0</ele><time>2026-03-29T12:12:59.79Z</time></trkpt><trkpt lat="43.12694786290143" lon="12.177740981674093"><ele>375.0</ele><time>2026-03-29T12:13:00.79Z</time></trkpt><trkpt lat="43.126861627793694" lon="12.177816279213031"><ele>375.0</ele><time>2026-03-29T12:13:01.79Z</time></trkpt><trkpt lat="43.126779292405764" lon="12.177864145570338"><ele>375.0</ele><time>2026-03-29T12:13:02.79Z</time></trkpt><trkpt lat="43.12669818575125" lon="12.177898843365636"><ele>375.0</ele><time>2026-03-29T12:13:03.79Z</time></trkpt><trkpt lat="43.12659890543682" lon="12.17791641595846"><ele>375.0</ele><time>2026-03-29T12:13:04.79Z</time></trkpt><trkpt lat="43.12647861451433" lon="12.177910196755764"><ele>377.5</ele><time>2026-03-29T12:13:05.79Z</time></trkpt><trkpt lat="43.12634399386123" lon="12.177908600530971"><ele>380.0</ele><time>2026-03-29T12:13:06.79Z</time></trkpt><trkpt lat="43.12619496296771" lon="12.17791978514044"><ele>382.5</ele><time>2026-03-29T12:13:07.79Z</time></trkpt><trkpt lat="43.126032230204906" lon="12.177939418576777"><ele>385.0</ele><time>2026-03-29T12:13:08.79Z</time></trkpt><trkpt lat="43.125878814217096" lon="12.177957477618731"><ele>385.0</ele><time>2026-03-29T12:13:09.79Z</time></trkpt><trkpt lat="43.12573318581478" lon="12.177979848758447"><ele>385.0</ele><time>2026-03-29T12:13:10.79Z</time></trkpt><trkpt lat="43.12560248135825" lon="12.178011392000018"><ele>385.0</ele><time>2026-03-29T12:13:11.79Z</time></trkpt><trkpt lat="43.12549466270439" lon="12.178064769329264"><ele>385.0</ele><time>2026-03-29T12:13:12.79Z</time></trkpt><trkpt lat="43.125405703205956" lon="12.178135171653688"><ele>384.4</ele><time>2026-03-29T12:13:13.79Z</time></trkpt><trkpt lat="43.125346426406146" lon="12.178236650699107"><ele>383.8</ele><time>2026-03-29T12:13:14.79Z</time></trkpt><trkpt lat="43.12526729112602" lon="12.178352720752844"><ele>383.20000000000005</ele><time>2026-03-29T12:13:15.79Z</time></trkpt><trkpt lat="43.125207779543835" lon="12.178468330488029"><ele>382.6</ele><time>2026-03-29T12:13:16.79Z</time></trkpt><trkpt lat="43.12512738731956" lon="12.17857786648326"><ele>382.0</ele><time>2026-03-29T12:13:17.79Z</time></trkpt><trkpt lat="43.125050379990924" lon="12.178669937150351"><ele>382.0</ele><time>2026-03-29T12:13:18.79Z</time></trkpt><trkpt lat="43.12496399661882" lon="12.178736920674696"><ele>382.0</ele><time>2026-03-29T12:13:19.79Z</time></trkpt><trkpt lat="43.12491172926174" lon="12.178799300427137"><ele>382.0</ele><time>2026-03-29T12:13:20.789Z</time></trkpt><trkpt lat="43.12486390167499" lon="12.178948253207516"><ele>382.0</ele><time>2026-03-29T12:13:22.789Z</time></trkpt><trkpt lat="43.12483949928859" lon="12.17904621137209"><ele>382.0</ele><time>2026-03-29T12:13:23.789Z</time></trkpt><trkpt lat="43.124817299926946" lon="12.179167551802593"><ele>382.40000000000003</ele><time>2026-03-29T12:13:24.789Z</time></trkpt><trkpt lat="43.12478629074909" lon="12.179327448019482"><ele>382.8</ele><time>2026-03-29T12:13:25.789Z</time></trkpt><trkpt lat="43.12476737590261" lon="12.179466854201165"><ele>383.2</ele><time>2026-03-29T12:13:26.789Z</time></trkpt><trkpt lat="43.12475053325634" lon="12.179608308733108"><ele>383.6</ele><time>2026-03-29T12:13:27.789Z</time></trkpt><trkpt lat="43.12474584640186" lon="12.179729157006689"><ele>384.0</ele><time>2026-03-29T12:13:28.789Z</time></trkpt><trkpt lat="43.124736683556314" lon="12.17986802393632"><ele>384.0</ele><time>2026-03-29T12:13:29.789Z</time></trkpt><trkpt lat="43.12472225023294" lon="12.18000287443556"><ele>384.0</ele><time>2026-03-29T12:13:30.789Z</time></trkpt><trkpt lat="43.12471280838569" lon="12.180138744854293"><ele>384.0</ele><time>2026-03-29T12:13:31.789Z</time></trkpt><trkpt lat="43.12470151119313" lon="12.180288176756445"><ele>384.0</ele><time>2026-03-29T12:13:32.789Z</time></trkpt><trkpt lat="43.12467715908382" lon="12.180432619348037"><ele>384.0</ele><time>2026-03-29T12:13:33.789Z</time></trkpt><trkpt lat="43.124662337199624" lon="12.180559172469113"><ele>384.0</ele><time>2026-03-29T12:13:34.789Z</time></trkpt><trkpt lat="43.12465378758567" lon="12.180689378095002"><ele>384.0</ele><time>2026-03-29T12:13:35.789Z</time></trkpt><trkpt lat="43.12465674755915" lon="12.180810019004744"><ele>384.0</ele><time>2026-03-29T12:13:36.789Z</time></trkpt><trkpt lat="43.12466298921916" lon="12.180950534727199"><ele>384.0</ele><time>2026-03-29T12:13:37.789Z</time></trkpt><trkpt lat="43.12467951237035" lon="12.1810856704595"><ele>384.0</ele><time>2026-03-29T12:13:38.789Z</time></trkpt><trkpt lat="43.124704408934626" lon="12.181255158962252"><ele>384.0</ele><time>2026-03-29T12:13:39.789Z</time></trkpt><trkpt lat="43.12472651917707" lon="12.18142541872619"><ele>384.0</ele><time>2026-03-29T12:13:40.789Z</time></trkpt><trkpt lat="43.12474446898913" lon="12.181584509870161"><ele>384.0</ele><time>2026-03-29T12:13:41.789Z</time></trkpt><trkpt lat="43.12475425531592" lon="12.18173409275814"><ele>384.0</ele><time>2026-03-29T12:13:42.789Z</time></trkpt><trkpt lat="43.124758593040305" lon="12.18188326272094"><ele>384.6666666666667</ele><time>2026-03-29T12:13:43.789Z</time></trkpt><trkpt lat="43.124764339352225" lon="12.182029247585021"><ele>385.33333333333337</ele><time>2026-03-29T12:13:44.789Z</time></trkpt><trkpt lat="43.124771471235206" lon="12.182163984185214"><ele>386.0</ele><time>2026-03-29T12:13:45.789Z</time></trkpt><trkpt lat="43.12478011926061" lon="12.182277503339185"><ele>386.6666666666667</ele><time>2026-03-29T12:13:46.789Z</time></trkpt><trkpt lat="43.12477031964347" lon="12.182372574173359"><ele>387.33333333333337</ele><time>2026-03-29T12:13:47.789Z</time></trkpt><trkpt lat="43.124734356782064" lon="12.182454959857822"><ele>388.0</ele><time>2026-03-29T12:13:48.789Z</time></trkpt><trkpt lat="43.12468422239806" lon="12.182537624780993"><ele>388.00000000000006</ele><time>2026-03-29T12:13:49.789Z</time></trkpt><trkpt lat="43.12463296251674" lon="12.182614274626863"><ele>388.0</ele><time>2026-03-29T12:13:50.789Z</time></trkpt><trkpt lat="43.124575047550515" lon="12.182685589420306"><ele>388.0</ele><time>2026-03-29T12:13:51.789Z</time></trkpt><trkpt lat="43.12449745721125" lon="12.182745850736374"><ele>388.0</ele><time>2026-03-29T12:13:52.789Z</time></trkpt><trkpt lat="43.12440293353243" lon="12.182787727487437"><ele>388.00000000000006</ele><time>2026-03-29T12:13:53.789Z</time></trkpt><trkpt lat="43.12431266992332" lon="12.182823445034181"><ele>388.0</ele><time>2026-03-29T12:13:54.789Z</time></trkpt><trkpt lat="43.12422950607099" lon="12.182844757425537"><ele>388.00000000000006</ele><time>2026-03-29T12:13:55.789Z</time></trkpt><trkpt lat="43.12415800497589" lon="12.182884544204887"><ele>388.0</ele><time>2026-03-29T12:13:56.788Z</time></trkpt><trkpt lat="43.12409728293943" lon="12.182942803009437"><ele>388.0</ele><time>2026-03-29T12:13:57.788Z</time></trkpt><trkpt lat="43.124034424357426" lon="12.183009019768482"><ele>388.0</ele><time>2026-03-29T12:13:58.788Z</time></trkpt><trkpt lat="43.123922753443985" lon="12.18302612038847"><ele>388.00000000000006</ele><time>2026-03-29T12:14:00.791Z</time></trkpt><trkpt lat="43.123843233192815" lon="12.182999217590803"><ele>388.0</ele><time>2026-03-29T12:14:01.791Z</time></trkpt><trkpt lat="43.12377084671557" lon="12.182997378516216"><ele>388.0</ele><time>2026-03-29T12:14:02.791Z</time></trkpt><trkpt lat="43.12370507579733" lon="12.183008302637207"><ele>388.0</ele><time>2026-03-29T12:14:03.791Z</time></trkpt><trkpt lat="43.12364178209187" lon="12.18304626578649"><ele>388.0</ele><time>2026-03-29T12:14:04.791Z</time></trkpt><trkpt lat="43.12356316292035" lon="12.183155099914261"><ele>388.0</ele><time>2026-03-29T12:14:06.791Z</time></trkpt><trkpt lat="43.12352943316287" lon="12.1832511293906"><ele>388.0</ele><time>2026-03-29T12:14:07.791Z</time></trkpt><trkpt lat="43.12344900031811" lon="12.183392821345102"><ele>388.6666666666667</ele><time>2026-03-29T12:14:09.79Z</time></trkpt><trkpt lat="43.123402866660086" lon="12.18346186068522"><ele>389.33333333333337</ele><time>2026-03-29T12:14:10.79Z</time></trkpt><trkpt lat="43.123373678276444" lon="12.183573507262995"><ele>390.0</ele><time>2026-03-29T12:14:12.791Z</time></trkpt><trkpt lat="43.12331578141035" lon="12.183639098036672"><ele>390.66666666666663</ele><time>2026-03-29T12:14:14.79Z</time></trkpt><trkpt lat="43.123237135352994" lon="12.183652354738207"><ele>391.3333333333333</ele><time>2026-03-29T12:14:15.79Z</time></trkpt><trkpt lat="43.12316739442194" lon="12.183680961305427"><ele>392.0</ele><time>2026-03-29T12:14:16.79Z</time></trkpt><trkpt lat="43.12310950474121" lon="12.183733401717085"><ele>392.0</ele><time>2026-03-29T12:14:17.79Z</time></trkpt><trkpt lat="43.12302332069889" lon="12.183780212439707"><ele>392.0</ele><time>2026-03-29T12:14:18.79Z</time></trkpt><trkpt lat="43.1229012019268" lon="12.18380785998857"><ele>392.0</ele><time>2026-03-29T12:14:19.79Z</time></trkpt><trkpt lat="43.12276157666252" lon="12.18383932527826"><ele>392.0</ele><time>2026-03-29T12:14:20.79Z</time></trkpt><trkpt lat="43.122641117828806" lon="12.183869196208823"><ele>391.99999999999994</ele><time>2026-03-29T12:14:21.79Z</time></trkpt><trkpt lat="43.12254531853847" lon="12.183909382284092"><ele>392.0</ele><time>2026-03-29T12:14:22.79Z</time></trkpt><trkpt lat="43.12247201251558" lon="12.183943197596257"><ele>392.0</ele><time>2026-03-29T12:14:23.79Z</time></trkpt><trkpt lat="43.12240443515793" lon="12.183991518472473"><ele>392.0</ele><time>2026-03-29T12:14:24.79Z</time></trkpt><trkpt lat="43.122334613924735" lon="12.184059114206068"><ele>391.99999999999994</ele><time>2026-03-29T12:14:25.79Z</time></trkpt><trkpt lat="43.122277510131035" lon="12.184140737679714"><ele>392.0</ele><time>2026-03-29T12:14:26.79Z</time></trkpt><trkpt lat="43.12221630040133" lon="12.18423402120865"><ele>394.6</ele><time>2026-03-29T12:14:27.79Z</time></trkpt><trkpt lat="43.122160478423496" lon="12.184327588348285"><ele>397.20000000000005</ele><time>2026-03-29T12:14:28.79Z</time></trkpt><trkpt lat="43.122103873729095" lon="12.184430399715115"><ele>399.8</ele><time>2026-03-29T12:14:29.79Z</time></trkpt><trkpt lat="43.12205807043192" lon="12.184546912009807"><ele>402.4</ele><time>2026-03-29T12:14:30.79Z</time></trkpt><trkpt lat="43.122036074266376" lon="12.184655301009187"><ele>405.0</ele><time>2026-03-29T12:14:31.789Z</time></trkpt><trkpt lat="43.12200714044868" lon="12.18479056186299"><ele>405.0</ele><time>2026-03-29T12:14:32.789Z</time></trkpt><trkpt lat="43.121973648963795" lon="12.184901977317894"><ele>405.0</ele><time>2026-03-29T12:14:33.789Z</time></trkpt><trkpt lat="43.121938496705205" lon="12.185001202905527"><ele>405.0</ele><time>2026-03-29T12:14:34.789Z</time></trkpt><trkpt lat="43.12189281692027" lon="12.185070557337909"><ele>405.0</ele><time>2026-03-29T12:14:35.789Z</time></trkpt><trkpt lat="43.12184003910574" lon="12.185137403962651"><ele>405.0</ele><time>2026-03-29T12:14:36.789Z</time></trkpt><trkpt lat="43.12177722434665" lon="12.185193556266793"><ele>405.0</ele><time>2026-03-29T12:14:37.789Z</time></trkpt><trkpt lat="43.12169548021845" lon="12.185259853259591"><ele>405.0</ele><time>2026-03-29T12:14:38.789Z</time></trkpt><trkpt lat="43.121587373639066" lon="12.185345738235013"><ele>405.0</ele><time>2026-03-29T12:14:39.789Z</time></trkpt><trkpt lat="43.12149621575138" lon="12.185440156319737"><ele>405.0</ele><time>2026-03-29T12:14:40.789Z</time></trkpt><trkpt lat="43.12141816499951" lon="12.185525781810547"><ele>405.0</ele><time>2026-03-29T12:14:41.789Z</time></trkpt><trkpt lat="43.12133523977324" lon="12.185610019688564"><ele>405.0</ele><time>2026-03-29T12:14:42.789Z</time></trkpt><trkpt lat="43.1212548909155" lon="12.185677951193352"><ele>404.3333333333333</ele><time>2026-03-29T12:14:43.789Z</time></trkpt><trkpt lat="43.12118295478653" lon="12.185742199110155"><ele>403.66666666666663</ele><time>2026-03-29T12:14:44.789Z</time></trkpt><trkpt lat="43.121125508081214" lon="12.185822313968842"><ele>403.0</ele><time>2026-03-29T12:14:45.789Z</time></trkpt><trkpt lat="43.12108600696135" lon="12.185894034015801"><ele>402.3333333333333</ele><time>2026-03-29T12:14:46.789Z</time></trkpt><trkpt lat="43.12108127774259" lon="12.186016692234954"><ele>401.66666666666663</ele><time>2026-03-29T12:14:48.789Z</time></trkpt><trkpt lat="43.1210677885995" lon="12.186153507802786"><ele>401.0</ele><time>2026-03-29T12:14:51.789Z</time></trkpt><trkpt lat="43.121050432437066" lon="12.186270979672791"><ele>401.0</ele><time>2026-03-29T12:14:53.789Z</time></trkpt><trkpt lat="43.12098801312503" lon="12.18634486480357"><ele>401.0</ele><time>2026-03-29T12:14:55.789Z</time></trkpt><trkpt lat="43.1209454177767" lon="12.186410676090297"><ele>401.0</ele><time>2026-03-29T12:14:56.789Z</time></trkpt><trkpt lat="43.12089181659117" lon="12.18656927616601"><ele>401.0</ele><time>2026-03-29T12:14:58.789Z</time></trkpt><trkpt lat="43.120826561405764" lon="12.1866766912561"><ele>401.0</ele><time>2026-03-29T12:15:00.789Z</time></trkpt><trkpt lat="43.1207257093132" lon="12.186769924201423"><ele>399.25</ele><time>2026-03-29T12:15:02.789Z</time></trkpt><trkpt lat="43.12062374344754" lon="12.186887576636938"><ele>397.5</ele><time>2026-03-29T12:15:04.789Z</time></trkpt><trkpt lat="43.120503978845534" lon="12.186965325314794"><ele>395.75</ele><time>2026-03-29T12:15:05.789Z</time></trkpt><trkpt lat="43.12040082061404" lon="12.187037138524714"><ele>394.0</ele><time>2026-03-29T12:15:06.789Z</time></trkpt><trkpt lat="43.12030849506132" lon="12.187084764472331"><ele>394.0</ele><time>2026-03-29T12:15:07.788Z</time></trkpt><trkpt lat="43.120238165961865" lon="12.187113853553825"><ele>394.0</ele><time>2026-03-29T12:15:08.788Z</time></trkpt><trkpt lat="43.120184810008" lon="12.187163154807733"><ele>394.0</ele><time>2026-03-29T12:15:09.788Z</time></trkpt><trkpt lat="43.12015516249371" lon="12.187246487705716"><ele>394.0</ele><time>2026-03-29T12:15:10.788Z</time></trkpt><trkpt lat="43.12009525017816" lon="12.18732045997994"><ele>394.0</ele><time>2026-03-29T12:15:11.788Z</time></trkpt><trkpt lat="43.12001749533997" lon="12.187391523124523"><ele>394.0</ele><time>2026-03-29T12:15:12.788Z</time></trkpt><trkpt lat="43.11997304037837" lon="12.187458599605835"><ele>394.0</ele><time>2026-03-29T12:15:14.788Z</time></trkpt><trkpt lat="43.11990115450275" lon="12.187485571872958"><ele>390.79999999999995</ele><time>2026-03-29T12:15:16.788Z</time></trkpt><trkpt lat="43.119791829049305" lon="12.187553699108827"><ele>387.59999999999997</ele><time>2026-03-29T12:15:19.788Z</time></trkpt><trkpt lat="43.119693263863894" lon="12.187608563116521"><ele>384.4</ele><time>2026-03-29T12:15:21.788Z</time></trkpt><trkpt lat="43.119626426206" lon="12.187622779864437"><ele>381.2</ele><time>2026-03-29T12:15:22.788Z</time></trkpt><trkpt lat="43.119532512419106" lon="12.187714319978594"><ele>378.0</ele><time>2026-03-29T12:15:24.788Z</time></trkpt><trkpt lat="43.119409883477616" lon="12.187853861601027"><ele>378.0</ele><time>2026-03-29T12:15:26.788Z</time></trkpt><trkpt lat="43.11933152750825" lon="12.18789992258002"><ele>378.0</ele><time>2026-03-29T12:15:27.788Z</time></trkpt><trkpt lat="43.119252626405746" lon="12.187935468518695"><ele>378.0</ele><time>2026-03-29T12:15:28.788Z</time></trkpt><trkpt lat="43.11918267403049" lon="12.187986739467542"><ele>378.0</ele><time>2026-03-29T12:15:29.788Z</time></trkpt><trkpt lat="43.119114921592995" lon="12.18805728330885"><ele>378.0</ele><time>2026-03-29T12:15:30.788Z</time></trkpt><trkpt lat="43.11907332334825" lon="12.188157130228216"><ele>378.0</ele><time>2026-03-29T12:15:31.788Z</time></trkpt><trkpt lat="43.119045748820284" lon="12.188252720519138"><ele>377.14285714285717</ele><time>2026-03-29T12:15:32.788Z</time></trkpt><trkpt lat="43.11901035546547" lon="12.188332857874988"><ele>376.2857142857143</ele><time>2026-03-29T12:15:33.788Z</time></trkpt><trkpt lat="43.118956762450786" lon="12.188401445722972"><ele>375.42857142857144</ele><time>2026-03-29T12:15:34.788Z</time></trkpt><trkpt lat="43.11889001473695" lon="12.188472172716896"><ele>374.57142857142856</ele><time>2026-03-29T12:15:35.788Z</time></trkpt><trkpt lat="43.118830783276614" lon="12.188530487788888"><ele>373.7142857142857</ele><time>2026-03-29T12:15:36.788Z</time></trkpt><trkpt lat="43.1187758833995" lon="12.18860143097521"><ele>372.8571428571429</ele><time>2026-03-29T12:15:37.788Z</time></trkpt><trkpt lat="43.11871829674483" lon="12.188666203326536"><ele>372.0</ele><time>2026-03-29T12:15:38.788Z</time></trkpt><trkpt lat="43.118650090060825" lon="12.188722511414483"><ele>372.0</ele><time>2026-03-29T12:15:39.788Z</time></trkpt><trkpt lat="43.118593539774906" lon="12.188788479681433"><ele>372.0</ele><time>2026-03-29T12:15:40.788Z</time></trkpt><trkpt lat="43.118543571220606" lon="12.188848488956053"><ele>372.0</ele><time>2026-03-29T12:15:41.788Z</time></trkpt><trkpt lat="43.11846013918843" lon="12.188912512371749"><ele>372.0</ele><time>2026-03-29T12:15:43.787Z</time></trkpt><trkpt lat="43.118344609069396" lon="12.18894159038493"><ele>372.0</ele><time>2026-03-29T12:15:45.787Z</time></trkpt><trkpt lat="43.11828371283783" lon="12.18899020446936"><ele>372.0</ele><time>2026-03-29T12:15:46.787Z</time></trkpt><trkpt lat="43.118221901503205" lon="12.189018564188748"><ele>373.0</ele><time>2026-03-29T12:15:47.787Z</time></trkpt><trkpt lat="43.11815841167295" lon="12.18902965852701"><ele>374.0</ele><time>2026-03-29T12:15:48.787Z</time></trkpt><trkpt lat="43.1180915040532" lon="12.189018365673894"><ele>375.0</ele><time>2026-03-29T12:15:49.787Z</time></trkpt><trkpt lat="43.117994268890534" lon="12.189036991476618"><ele>376.0</ele><time>2026-03-29T12:15:51.787Z</time></trkpt><trkpt lat="43.11788836080196" lon="12.18909133996115"><ele>377.0</ele><time>2026-03-29T12:15:53.787Z</time></trkpt><trkpt lat="43.11781095609088" lon="12.18908621359744"><ele>378.0</ele><time>2026-03-29T12:15:54.787Z</time></trkpt><trkpt lat="43.11773433119559" lon="12.189076599521455"><ele>378.0</ele><time>2026-03-29T12:15:55.787Z</time></trkpt><trkpt lat="43.11766273111848" lon="12.189071357094367"><ele>378.0</ele><time>2026-03-29T12:15:56.787Z</time></trkpt><trkpt lat="43.117593050365656" lon="12.189055141824243"><ele>378.0</ele><time>2026-03-29T12:15:57.787Z</time></trkpt><trkpt lat="43.117530102705004" lon="12.189046728064701"><ele>378.0</ele><time>2026-03-29T12:15:58.787Z</time></trkpt><trkpt lat="43.11744997412736" lon="12.189093794942547"><ele>378.0</ele><time>2026-03-29T12:16:00.787Z</time></trkpt><trkpt lat="43.11737611549013" lon="12.189174095108426"><ele>378.0</ele><time>2026-03-29T12:16:02.787Z</time></trkpt><trkpt lat="43.11731447803072" lon="12.189191984306083"><ele>374.59999999999997</ele><time>2026-03-29T12:16:03.787Z</time></trkpt><trkpt lat="43.11725304152806" lon="12.189221051275771"><ele>371.2</ele><time>2026-03-29T12:16:04.787Z</time></trkpt><trkpt lat="43.11719821133616" lon="12.189272309345773"><ele>367.8</ele><time>2026-03-29T12:16:05.787Z</time></trkpt><trkpt lat="43.117117176269986" lon="12.189373301858975"><ele>364.4</ele><time>2026-03-29T12:16:07.789Z</time></trkpt><trkpt lat="43.11701770223726" lon="12.189420321859112"><ele>361.0</ele><time>2026-03-29T12:16:09.79Z</time></trkpt><trkpt lat="43.11698827577679" lon="12.189560394900683"><ele>361.0</ele><time>2026-03-29T12:16:12.789Z</time></trkpt><trkpt lat="43.11692780573772" lon="12.189696290826179"><ele>361.0</ele><time>2026-03-29T12:16:14.789Z</time></trkpt><trkpt lat="43.11688614115099" lon="12.18978520549853"><ele>361.0</ele><time>2026-03-29T12:16:15.789Z</time></trkpt><trkpt lat="43.116874072248365" lon="12.18987534813569"><ele>361.0</ele><time>2026-03-29T12:16:16.79Z</time></trkpt><trkpt lat="43.11688085359722" lon="12.19003214117274"><ele>361.0</ele><time>2026-03-29T12:16:18.79Z</time></trkpt><trkpt lat="43.116845470207586" lon="12.190112849908164"><ele>361.0</ele><time>2026-03-29T12:16:19.79Z</time></trkpt><trkpt lat="43.11680446892212" lon="12.190183124371716"><ele>361.5</ele><time>2026-03-29T12:16:20.79Z</time></trkpt><trkpt lat="43.11676718275632" lon="12.190256629391966"><ele>362.0</ele><time>2026-03-29T12:16:21.789Z</time></trkpt><trkpt lat="43.11672456253621" lon="12.190323552207095"><ele>362.5</ele><time>2026-03-29T12:16:22.789Z</time></trkpt><trkpt lat="43.11667326136511" lon="12.190384837537339"><ele>363.0</ele><time>2026-03-29T12:16:23.789Z</time></trkpt><trkpt lat="43.11661905177051" lon="12.190434512294965"><ele>363.5</ele><time>2026-03-29T12:16:24.789Z</time></trkpt><trkpt lat="43.11653363078697" lon="12.190522263727448"><ele>364.0</ele><time>2026-03-29T12:16:26.789Z</time></trkpt><trkpt lat="43.11646973372916" lon="12.190616788969255"><ele>364.2</ele><time>2026-03-29T12:16:28.789Z</time></trkpt><trkpt lat="43.11639543685412" lon="12.190729603644371"><ele>364.4</ele><time>2026-03-29T12:16:30.789Z</time></trkpt><trkpt lat="43.11636365204472" lon="12.190805923400912"><ele>364.6</ele><time>2026-03-29T12:16:31.789Z</time></trkpt><trkpt lat="43.11633393550595" lon="12.190892465952354"><ele>364.8</ele><time>2026-03-29T12:16:32.789Z</time></trkpt><trkpt lat="43.11628906757282" lon="12.191038580451165"><ele>365.0</ele><time>2026-03-29T12:16:34.789Z</time></trkpt><trkpt lat="43.11622159052109" lon="12.191154959086491"><ele>365.0</ele><time>2026-03-29T12:16:36.789Z</time></trkpt><trkpt lat="43.116155055556135" lon="12.191219764246789"><ele>365.0</ele><time>2026-03-29T12:16:37.789Z</time></trkpt><trkpt lat="43.11609281532998" lon="12.191286150369166"><ele>365.0</ele><time>2026-03-29T12:16:38.789Z</time></trkpt><trkpt lat="43.11603634074388" lon="12.191371683821425"><ele>365.0</ele><time>2026-03-29T12:16:39.789Z</time></trkpt><trkpt lat="43.115987573810315" lon="12.191479374582432"><ele>365.0</ele><time>2026-03-29T12:16:40.789Z</time></trkpt><trkpt lat="43.115952099083096" lon="12.191586256175308"><ele>365.0</ele><time>2026-03-29T12:16:41.789Z</time></trkpt><trkpt lat="43.11591651474846" lon="12.191682714677606"><ele>363.83333333333337</ele><time>2026-03-29T12:16:42.789Z</time></trkpt><trkpt lat="43.11588512567195" lon="12.191792676384292"><ele>362.6666666666667</ele><time>2026-03-29T12:16:43.789Z</time></trkpt><trkpt lat="43.11587428421162" lon="12.191912163361975"><ele>361.5</ele><time>2026-03-29T12:16:44.789Z</time></trkpt><trkpt lat="43.115878487771575" lon="12.192019656925348"><ele>360.3333333333333</ele><time>2026-03-29T12:16:45.789Z</time></trkpt><trkpt lat="43.11586955781411" lon="12.19213686082944"><ele>359.16666666666663</ele><time>2026-03-29T12:16:46.789Z</time></trkpt><trkpt lat="43.11584877595191" lon="12.192225174052435"><ele>358.0</ele><time>2026-03-29T12:16:47.789Z</time></trkpt><trkpt lat="43.11579632299084" lon="12.192297731699046"><ele>357.0</ele><time>2026-03-29T12:16:49.789Z</time></trkpt><trkpt lat="43.115693880466104" lon="12.192364140737885"><ele>356.0</ele><time>2026-03-29T12:16:51.789Z</time></trkpt><trkpt lat="43.11561864043478" lon="12.192449406642123"><ele>355.0</ele><time>2026-03-29T12:16:53.789Z</time></trkpt><trkpt lat="43.115559783057215" lon="12.192487348406814"><ele>354.0</ele><time>2026-03-29T12:16:54.789Z</time></trkpt><trkpt lat="43.11545364995703" lon="12.192568554087847"><ele>353.0</ele><time>2026-03-29T12:16:56.789Z</time></trkpt><trkpt lat="43.11537662561896" lon="12.192583991732265"><ele>353.0</ele><time>2026-03-29T12:16:57.788Z</time></trkpt><trkpt lat="43.11530602809307" lon="12.192589923096952"><ele>353.0</ele><time>2026-03-29T12:16:58.788Z</time></trkpt><trkpt lat="43.11519451463461" lon="12.192683250625308"><ele>353.0</ele><time>2026-03-29T12:17:00.788Z</time></trkpt><trkpt lat="43.11514464625357" lon="12.192793653122399"><ele>353.0</ele><time>2026-03-29T12:17:01.788Z</time></trkpt><trkpt lat="43.11510326365735" lon="12.19289808204072"><ele>353.0</ele><time>2026-03-29T12:17:02.788Z</time></trkpt><trkpt lat="43.115058770689785" lon="12.193026255240623"><ele>353.0</ele><time>2026-03-29T12:17:03.788Z</time></trkpt><trkpt lat="43.11502414423178" lon="12.193136600317946"><ele>353.0</ele><time>2026-03-29T12:17:05.788Z</time></trkpt><trkpt lat="43.11514591369003" lon="12.19314741490411"><ele>353.0</ele><time>2026-03-29T12:17:10.788Z</time></trkpt><trkpt lat="43.11521995937903" lon="12.193170717388512"><ele>353.0</ele><time>2026-03-29T12:17:11.788Z</time></trkpt><trkpt lat="43.11530882094285" lon="12.193260185178934"><ele>353.0</ele><time>2026-03-29T12:17:13.788Z</time></trkpt><trkpt lat="43.11537317654806" lon="12.193300713559875"><ele>350.6666666666667</ele><time>2026-03-29T12:17:14.788Z</time></trkpt><trkpt lat="43.1154900155851" lon="12.193373487560255"><ele>348.33333333333337</ele><time>2026-03-29T12:17:16.788Z</time></trkpt><trkpt lat="43.115545732850556" lon="12.193418101192407"><ele>346.0</ele><time>2026-03-29T12:17:17.788Z</time></trkpt><trkpt lat="43.11560747450412" lon="12.193454854247776"><ele>343.6666666666667</ele><time>2026-03-29T12:17:18.788Z</time></trkpt><trkpt lat="43.11567306994558" lon="12.193502178972976"><ele>341.3333333333333</ele><time>2026-03-29T12:17:19.788Z</time></trkpt><trkpt lat="43.11573710312797" lon="12.193556936052483"><ele>339.0</ele><time>2026-03-29T12:17:20.788Z</time></trkpt><trkpt lat="43.115796341366014" lon="12.193638503490812"><ele>336.6666666666667</ele><time>2026-03-29T12:17:21.788Z</time></trkpt><trkpt lat="43.11584336287725" lon="12.193728523705332"><ele>334.3333333333333</ele><time>2026-03-29T12:17:22.788Z</time></trkpt><trkpt lat="43.115878374682396" lon="12.193805414120808"><ele>332.0</ele><time>2026-03-29T12:17:23.788Z</time></trkpt><trkpt lat="43.11594970051242" lon="12.193874682671083"><ele>329.66666666666663</ele><time>2026-03-29T12:17:25.788Z</time></trkpt><trkpt lat="43.11607250387629" lon="12.193898760052294"><ele>327.3333333333333</ele><time>2026-03-29T12:17:27.788Z</time></trkpt><trkpt lat="43.11613917321331" lon="12.19390972194606"><ele>325.0</ele><time>2026-03-29T12:17:28.788Z</time></trkpt><trkpt lat="43.11625859182206" lon="12.19394035180895"><ele>325.0</ele><time>2026-03-29T12:17:30.788Z</time></trkpt><trkpt lat="43.11632329520725" lon="12.193977407384036"><ele>325.0</ele><time>2026-03-29T12:17:31.788Z</time></trkpt><trkpt lat="43.1163768330491" lon="12.194043764847253"><ele>325.0</ele><time>2026-03-29T12:17:32.788Z</time></trkpt><trkpt lat="43.116419205830034" lon="12.194125119346877"><ele>325.0</ele><time>2026-03-29T12:17:33.787Z</time></trkpt><trkpt lat="43.116461768721486" lon="12.194198838809697"><ele>325.0</ele><time>2026-03-29T12:17:34.787Z</time></trkpt><trkpt lat="43.11651244682152" lon="12.19429712211869"><ele>325.0</ele><time>2026-03-29T12:17:35.787Z</time></trkpt><trkpt lat="43.11655369258253" lon="12.194378101365286"><ele>325.0</ele><time>2026-03-29T12:17:36.787Z</time></trkpt><trkpt lat="43.1166274846572" lon="12.19443708096703"><ele>320.8</ele><time>2026-03-29T12:17:38.787Z</time></trkpt><trkpt lat="43.11674210293114" lon="12.194504846449117"><ele>316.6</ele><time>2026-03-29T12:17:40.787Z</time></trkpt><trkpt lat="43.11679601729142" lon="12.194590123357722"><ele>312.4</ele><time>2026-03-29T12:17:41.787Z</time></trkpt><trkpt lat="43.116845139704154" lon="12.19469065748007"><ele>308.2</ele><time>2026-03-29T12:17:42.787Z</time></trkpt><trkpt lat="43.116899462876354" lon="12.194787642904245"><ele>304.0</ele><time>2026-03-29T12:17:43.787Z</time></trkpt><trkpt lat="43.11696874502551" lon="12.194891885241457"><ele>303.2</ele><time>2026-03-29T12:17:44.787Z</time></trkpt><trkpt lat="43.11703961287633" lon="12.19500441020086"><ele>302.4</ele><time>2026-03-29T12:17:45.787Z</time></trkpt><trkpt lat="43.11710298394156" lon="12.195121275873392"><ele>301.6</ele><time>2026-03-29T12:17:46.787Z</time></trkpt><trkpt lat="43.11717290222057" lon="12.195243253343428"><ele>300.8</ele><time>2026-03-29T12:17:47.787Z</time></trkpt><trkpt lat="43.11723954070697" lon="12.19536606713248"><ele>300.0</ele><time>2026-03-29T12:17:48.787Z</time></trkpt><trkpt lat="43.11729883573396" lon="12.195486904975445"><ele>300.0</ele><time>2026-03-29T12:17:49.787Z</time></trkpt><trkpt lat="43.117359418008924" lon="12.195607805941552"><ele>300.0</ele><time>2026-03-29T12:17:50.787Z</time></trkpt><trkpt lat="43.11741600426681" lon="12.195725251116516"><ele>300.0</ele><time>2026-03-29T12:17:51.787Z</time></trkpt><trkpt lat="43.117472082455194" lon="12.19582263325217"><ele>300.0</ele><time>2026-03-29T12:17:52.787Z</time></trkpt><trkpt lat="43.11752284009416" lon="12.195889906532738"><ele>300.0</ele><time>2026-03-29T12:17:53.787Z</time></trkpt><trkpt lat="43.11758056490065" lon="12.195930341777755"><ele>300.0</ele><time>2026-03-29T12:17:54.787Z</time></trkpt><trkpt lat="43.11765810365001" lon="12.195948420204562"><ele>297.5</ele><time>2026-03-29T12:17:55.787Z</time></trkpt><trkpt lat="43.117736107876276" lon="12.195958675791182"><ele>295.0</ele><time>2026-03-29T12:17:56.787Z</time></trkpt><trkpt lat="43.11782391102128" lon="12.195992701166421"><ele>292.5</ele><time>2026-03-29T12:17:57.787Z</time></trkpt><trkpt lat="43.117888962534145" lon="12.19602979592884"><ele>290.0</ele><time>2026-03-29T12:17:58.787Z</time></trkpt><trkpt lat="43.117950484956516" lon="12.196128766526575"><ele>287.5</ele><time>2026-03-29T12:17:59.787Z</time></trkpt><trkpt lat="43.11800246382888" lon="12.1962206647074"><ele>285.0</ele><time>2026-03-29T12:18:00.787Z</time></trkpt><trkpt lat="43.11804692148979" lon="12.19632040950869"><ele>285.0</ele><time>2026-03-29T12:18:01.787Z</time></trkpt><trkpt lat="43.118083898843196" lon="12.196423104331195"><ele>285.0</ele><time>2026-03-29T12:18:02.787Z</time></trkpt><trkpt lat="43.118113620833746" lon="12.196532551006744"><ele>285.0</ele><time>2026-03-29T12:18:03.787Z</time></trkpt><trkpt lat="43.118122109409626" lon="12.196643081486622"><ele>285.0</ele><time>2026-03-29T12:18:04.787Z</time></trkpt><trkpt lat="43.11811413416052" lon="12.196758063677082"><ele>285.0</ele><time>2026-03-29T12:18:05.893Z</time></trkpt><trkpt lat="43.11810522276948" lon="12.196862766170865"><ele>285.0</ele><time>2026-03-29T12:18:06.893Z</time></trkpt><trkpt lat="43.11808660375031" lon="12.196956073826172"><ele>284.3333333333333</ele><time>2026-03-29T12:18:07.894Z</time></trkpt><trkpt lat="43.11804848264839" lon="12.19705453049423"><ele>283.6666666666667</ele><time>2026-03-29T12:18:08.894Z</time></trkpt><trkpt lat="43.1180095317316" lon="12.197154838881413"><ele>283.0</ele><time>2026-03-29T12:18:09.894Z</time></trkpt><trkpt lat="43.11796426230033" lon="12.197234558407931"><ele>282.33333333333337</ele><time>2026-03-29T12:18:10.894Z</time></trkpt><trkpt lat="43.11793105458898" lon="12.197312220790113"><ele>281.6666666666667</ele><time>2026-03-29T12:18:11.894Z</time></trkpt><trkpt lat="43.117906899720865" lon="12.197487273484494"><ele>281.0</ele><time>2026-03-29T12:18:13.896Z</time></trkpt><trkpt lat="43.11790846484344" lon="12.197587438370519"><ele>278.8</ele><time>2026-03-29T12:18:14.896Z</time></trkpt><trkpt lat="43.117928143803496" lon="12.197685505788717"><ele>276.6</ele><time>2026-03-29T12:18:15.896Z</time></trkpt><trkpt lat="43.117934109579956" lon="12.197802763217995"><ele>274.4</ele><time>2026-03-29T12:18:16.896Z</time></trkpt><trkpt lat="43.117941632826025" lon="12.197938906721983"><ele>272.2</ele><time>2026-03-29T12:18:17.896Z</time></trkpt><trkpt lat="43.117948605431586" lon="12.198074323459663"><ele>270.0</ele><time>2026-03-29T12:18:18.896Z</time></trkpt><trkpt lat="43.11795858551055" lon="12.198218942939102"><ele>267.6</ele><time>2026-03-29T12:18:19.896Z</time></trkpt><trkpt lat="43.11796323416572" lon="12.198358878221189"><ele>265.2</ele><time>2026-03-29T12:18:20.896Z</time></trkpt><trkpt lat="43.11797413062913" lon="12.19850029208401"><ele>262.8</ele><time>2026-03-29T12:18:21.896Z</time></trkpt><trkpt lat="43.1179765046478" lon="12.198651327289902"><ele>260.4</ele><time>2026-03-29T12:18:22.897Z</time></trkpt><trkpt lat="43.117981787787194" lon="12.198800843503564"><ele>258.0</ele><time>2026-03-29T12:18:23.897Z</time></trkpt><trkpt lat="43.117998769910756" lon="12.198952140501195"><ele>256.5</ele><time>2026-03-29T12:18:24.896Z</time></trkpt><trkpt lat="43.11802078180084" lon="12.199093764404925"><ele>255.0</ele><time>2026-03-29T12:18:25.896Z</time></trkpt><trkpt lat="43.1180395875205" lon="12.19925067213606"><ele>253.5</ele><time>2026-03-29T12:18:26.896Z</time></trkpt><trkpt lat="43.1180597754775" lon="12.199402313991104"><ele>252.0</ele><time>2026-03-29T12:18:27.896Z</time></trkpt><trkpt lat="43.118076632152906" lon="12.199561554212831"><ele>252.0</ele><time>2026-03-29T12:18:28.896Z</time></trkpt><trkpt lat="43.118088728514074" lon="12.199713506062045"><ele>252.0</ele><time>2026-03-29T12:18:29.896Z</time></trkpt><trkpt lat="43.118098571384195" lon="12.19986655259359"><ele>252.0</ele><time>2026-03-29T12:18:30.896Z</time></trkpt><trkpt lat="43.11810935112294" lon="12.199998485499684"><ele>252.0</ele><time>2026-03-29T12:18:31.896Z</time></trkpt><trkpt lat="43.118116232810685" lon="12.200109235592356"><ele>252.0</ele><time>2026-03-29T12:18:32.896Z</time></trkpt><trkpt lat="43.1181211534466" lon="12.20020605456789"><ele>251.16666666666666</ele><time>2026-03-29T12:18:33.896Z</time></trkpt><trkpt lat="43.11812949596348" lon="12.200292497510176"><ele>250.33333333333331</ele><time>2026-03-29T12:18:34.896Z</time></trkpt><trkpt lat="43.11813504678334" lon="12.20037991773868"><ele>249.5</ele><time>2026-03-29T12:18:35.896Z</time></trkpt><trkpt lat="43.1181587689249" lon="12.200532409032675"><ele>248.66666666666666</ele><time>2026-03-29T12:18:37.896Z</time></trkpt><trkpt lat="43.118202237425805" lon="12.200595078238871"><ele>247.83333333333331</ele><time>2026-03-29T12:18:39.896Z</time></trkpt><trkpt lat="43.11830776184156" lon="12.200694571819104"><ele>247.0</ele><time>2026-03-29T12:18:41.896Z</time></trkpt><trkpt lat="43.11834294928289" lon="12.200767539600184"><ele>246.2</ele><time>2026-03-29T12:18:42.896Z</time></trkpt><trkpt lat="43.11835405655819" lon="12.200868109765995"><ele>245.39999999999998</ele><time>2026-03-29T12:18:43.896Z</time></trkpt><trkpt lat="43.118352785069106" lon="12.201001736497812"><ele>244.60000000000002</ele><time>2026-03-29T12:18:44.896Z</time></trkpt><trkpt lat="43.11834948741211" lon="12.201169233691333"><ele>243.8</ele><time>2026-03-29T12:18:45.896Z</time></trkpt><trkpt lat="43.11834810214847" lon="12.201370888463698"><ele>243.0</ele><time>2026-03-29T12:18:46.896Z</time></trkpt><trkpt lat="43.11835121114112" lon="12.201594207936319"><ele>242.66666666666669</ele><time>2026-03-29T12:18:47.896Z</time></trkpt><trkpt lat="43.11835223786193" lon="12.201836633515164"><ele>242.33333333333334</ele><time>2026-03-29T12:18:48.896Z</time></trkpt><trkpt lat="43.118354447595266" lon="12.202077570292506"><ele>242.0</ele><time>2026-03-29T12:18:49.896Z</time></trkpt><trkpt lat="43.118358831513724" lon="12.202283239436582"><ele>242.0</ele><time>2026-03-29T12:18:50.896Z</time></trkpt><trkpt lat="43.118358635060524" lon="12.202479236763404"><ele>242.0</ele><time>2026-03-29T12:18:51.896Z</time></trkpt><trkpt lat="43.11835733213194" lon="12.202659317526065"><ele>242.0</ele><time>2026-03-29T12:18:52.896Z</time></trkpt><trkpt lat="43.118358579448746" lon="12.202840277543274"><ele>242.0</ele><time>2026-03-29T12:18:53.896Z</time></trkpt><trkpt lat="43.11835997540492" lon="12.202995409677655"><ele>242.0</ele><time>2026-03-29T12:18:54.896Z</time></trkpt><trkpt lat="43.118357412265276" lon="12.203136555698121"><ele>242.0</ele><time>2026-03-29T12:18:55.896Z</time></trkpt><trkpt lat="43.11832975442211" lon="12.203242420960585"><ele>242.0</ele><time>2026-03-29T12:18:56.896Z</time></trkpt><trkpt lat="43.11827528660437" lon="12.203302777812151"><ele>242.0</ele><time>2026-03-29T12:18:57.896Z</time></trkpt><trkpt lat="43.11819053788282" lon="12.203340120574355"><ele>242.0</ele><time>2026-03-29T12:18:58.896Z</time></trkpt><trkpt lat="43.118085681765834" lon="12.203377527024806"><ele>242.39999999999998</ele><time>2026-03-29T12:18:59.896Z</time></trkpt><trkpt lat="43.117982329323375" lon="12.203420524175323"><ele>242.79999999999998</ele><time>2026-03-29T12:19:00.896Z</time></trkpt><trkpt lat="43.117888554642526" lon="12.203470023251384"><ele>243.2</ele><time>2026-03-29T12:19:01.896Z</time></trkpt><trkpt lat="43.11780944602843" lon="12.203522568302963"><ele>243.6</ele><time>2026-03-29T12:19:02.896Z</time></trkpt><trkpt lat="43.11773621987146" lon="12.2035884625089"><ele>244.0</ele><time>2026-03-29T12:19:03.896Z</time></trkpt><trkpt lat="43.11767574307423" lon="12.203672800763629"><ele>244.0</ele><time>2026-03-29T12:19:04.896Z</time></trkpt><trkpt lat="43.11763855541026" lon="12.203783132692946"><ele>243.99999999999997</ele><time>2026-03-29T12:19:05.896Z</time></trkpt><trkpt lat="43.11761243156526" lon="12.203913678571535"><ele>243.99999999999997</ele><time>2026-03-29T12:19:06.896Z</time></trkpt><trkpt lat="43.117566439186874" lon="12.204043038080577"><ele>244.0</ele><time>2026-03-29T12:19:07.896Z</time></trkpt><trkpt lat="43.11754991120337" lon="12.204164669030952"><ele>244.0</ele><time>2026-03-29T12:19:08.896Z</time></trkpt><trkpt lat="43.1175084313907" lon="12.204278210249896"><ele>244.0</ele><time>2026-03-29T12:19:09.896Z</time></trkpt><trkpt lat="43.11744676738267" lon="12.204374598283616"><ele>243.99999999999997</ele><time>2026-03-29T12:19:10.896Z</time></trkpt><trkpt lat="43.11738008594488" lon="12.204457726802964"><ele>243.99999999999997</ele><time>2026-03-29T12:19:11.896Z</time></trkpt><trkpt lat="43.11730792595097" lon="12.204530859963999"><ele>244.0</ele><time>2026-03-29T12:19:12.896Z</time></trkpt><trkpt lat="43.117227108700966" lon="12.204587330801637"><ele>244.0</ele><time>2026-03-29T12:19:13.896Z</time></trkpt><trkpt lat="43.11714888074589" lon="12.204653397578944"><ele>244.33333333333331</ele><time>2026-03-29T12:19:14.896Z</time></trkpt><trkpt lat="43.11708085958349" lon="12.204717072747314"><ele>244.66666666666666</ele><time>2026-03-29T12:19:15.896Z</time></trkpt><trkpt lat="43.11702251077749" lon="12.204790670628212"><ele>245.0</ele><time>2026-03-29T12:19:16.896Z</time></trkpt><trkpt lat="43.116985398707804" lon="12.20487672710588"><ele>245.33333333333331</ele><time>2026-03-29T12:19:17.896Z</time></trkpt><trkpt lat="43.11695636250911" lon="12.204983406665862"><ele>245.66666666666666</ele><time>2026-03-29T12:19:18.896Z</time></trkpt><trkpt lat="43.11691592783057" lon="12.205071452532282"><ele>246.0</ele><time>2026-03-29T12:19:19.896Z</time></trkpt><trkpt lat="43.116844551132495" lon="12.205157147078605"><ele>246.20000000000002</ele><time>2026-03-29T12:19:20.896Z</time></trkpt><trkpt lat="43.11677854234041" lon="12.205235702975182"><ele>246.40000000000003</ele><time>2026-03-29T12:19:21.896Z</time></trkpt><trkpt lat="43.11669523191425" lon="12.205316379302781"><ele>246.6</ele><time>2026-03-29T12:19:22.896Z</time></trkpt><trkpt lat="43.11660418907715" lon="12.205409916897763"><ele>246.8</ele><time>2026-03-29T12:19:23.896Z</time></trkpt><trkpt lat="43.11650657941388" lon="12.205517529185173"><ele>247.0</ele><time>2026-03-29T12:19:24.896Z</time></trkpt><trkpt lat="43.11639555421488" lon="12.205642714110224"><ele>247.5</ele><time>2026-03-29T12:19:25.896Z</time></trkpt><trkpt lat="43.116285190499696" lon="12.20576384468144"><ele>248.0</ele><time>2026-03-29T12:19:26.896Z</time></trkpt><trkpt lat="43.11618153856212" lon="12.205877082923077"><ele>248.5</ele><time>2026-03-29T12:19:27.896Z</time></trkpt><trkpt lat="43.116091852640245" lon="12.205974853316672"><ele>249.0</ele><time>2026-03-29T12:19:28.896Z</time></trkpt><trkpt lat="43.11601063654934" lon="12.206066836744057"><ele>249.0</ele><time>2026-03-29T12:19:29.896Z</time></trkpt><trkpt lat="43.11595901665768" lon="12.206180950072634"><ele>249.0</ele><time>2026-03-29T12:19:30.896Z</time></trkpt><trkpt lat="43.11593808596377" lon="12.20632861354358"><ele>249.0</ele><time>2026-03-29T12:19:31.896Z</time></trkpt><trkpt lat="43.11586748550335" lon="12.206496631574975"><ele>249.0</ele><time>2026-03-29T12:19:32.896Z</time></trkpt><trkpt lat="43.11580160280162" lon="12.206654401453564"><ele>249.75</ele><time>2026-03-29T12:19:33.896Z</time></trkpt><trkpt lat="43.115738119651866" lon="12.206791540220893"><ele>250.5</ele><time>2026-03-29T12:19:34.896Z</time></trkpt><trkpt lat="43.115669424894165" lon="12.206922910791798"><ele>251.25</ele><time>2026-03-29T12:19:35.896Z</time></trkpt><trkpt lat="43.11558898208081" lon="12.207031276323589"><ele>252.0</ele><time>2026-03-29T12:19:36.896Z</time></trkpt><trkpt lat="43.11549968211358" lon="12.207121312988678"><ele>252.8</ele><time>2026-03-29T12:19:37.896Z</time></trkpt><trkpt lat="43.11542749982519" lon="12.207206873912591"><ele>253.6</ele><time>2026-03-29T12:19:38.896Z</time></trkpt><trkpt lat="43.11534366467669" lon="12.207283749456382"><ele>254.40000000000003</ele><time>2026-03-29T12:19:39.896Z</time></trkpt><trkpt lat="43.11528040560198" lon="12.207392855210614"><ele>255.20000000000002</ele><time>2026-03-29T12:19:40.896Z</time></trkpt><trkpt lat="43.11525549700908" lon="12.207548582622403"><ele>256.0</ele><time>2026-03-29T12:19:41.896Z</time></trkpt><trkpt lat="43.11525383494472" lon="12.207718694588669"><ele>256.25</ele><time>2026-03-29T12:19:42.896Z</time></trkpt><trkpt lat="43.115261781917134" lon="12.207907983352083"><ele>256.5</ele><time>2026-03-29T12:19:43.896Z</time></trkpt><trkpt lat="43.11528262615096" lon="12.208096170987263"><ele>256.75</ele><time>2026-03-29T12:19:44.896Z</time></trkpt><trkpt lat="43.115322749237976" lon="12.208277599789392"><ele>257.0</ele><time>2026-03-29T12:19:45.896Z</time></trkpt><trkpt lat="43.11531900576828" lon="12.20845555788706"><ele>257.0</ele><time>2026-03-29T12:19:46.896Z</time></trkpt><trkpt lat="43.115324422925895" lon="12.208633538813231"><ele>257.0</ele><time>2026-03-29T12:19:47.896Z</time></trkpt><trkpt lat="43.11532250164332" lon="12.208819764362957"><ele>257.0</ele><time>2026-03-29T12:19:48.896Z</time></trkpt><trkpt lat="43.11532423565893" lon="12.208999705486702"><ele>257.0</ele><time>2026-03-29T12:19:49.896Z</time></trkpt><trkpt lat="43.11534304598189" lon="12.209159284937826"><ele>258.8</ele><time>2026-03-29T12:19:50.896Z</time></trkpt><trkpt lat="43.11537814977363" lon="12.209298894027077"><ele>260.6</ele><time>2026-03-29T12:19:51.896Z</time></trkpt><trkpt lat="43.11542883713907" lon="12.209432366620419"><ele>262.40000000000003</ele><time>2026-03-29T12:19:52.896Z</time></trkpt><trkpt lat="43.11547191404496" lon="12.209551821483425"><ele>264.2</ele><time>2026-03-29T12:19:53.896Z</time></trkpt><trkpt lat="43.115527449682865" lon="12.209661844503438"><ele>266.0</ele><time>2026-03-29T12:19:54.896Z</time></trkpt><trkpt lat="43.11555383831529" lon="12.209774597553208"><ele>267.83333333333337</ele><time>2026-03-29T12:19:55.896Z</time></trkpt><trkpt lat="43.11557489384355" lon="12.209890692863434"><ele>269.6666666666667</ele><time>2026-03-29T12:19:56.896Z</time></trkpt><trkpt lat="43.115600793209566" lon="12.209980771977019"><ele>271.5</ele><time>2026-03-29T12:19:57.896Z</time></trkpt><trkpt lat="43.115628893062805" lon="12.210071041924282"><ele>273.3333333333333</ele><time>2026-03-29T12:19:58.896Z</time></trkpt><trkpt lat="43.11566656890147" lon="12.210200463920785"><ele>275.16666666666663</ele><time>2026-03-29T12:19:59.896Z</time></trkpt><trkpt lat="43.11570219189641" lon="12.210352148339382"><ele>277.0</ele><time>2026-03-29T12:20:00.896Z</time></trkpt><trkpt lat="43.115733001105745" lon="12.210520197140562"><ele>275.0</ele><time>2026-03-29T12:20:01.896Z</time></trkpt><trkpt lat="43.1157669298133" lon="12.21069604948826"><ele>273.0</ele><time>2026-03-29T12:20:02.896Z</time></trkpt><trkpt lat="43.11579800498475" lon="12.2108559330093"><ele>271.0</ele><time>2026-03-29T12:20:03.896Z</time></trkpt><trkpt lat="43.1158275756704" lon="12.211011981760945"><ele>269.0</ele><time>2026-03-29T12:20:04.896Z</time></trkpt><trkpt lat="43.115859535965306" lon="12.211161050735551"><ele>269.0</ele><time>2026-03-29T12:20:05.896Z</time></trkpt><trkpt lat="43.115877407136146" lon="12.211313934873116"><ele>269.0</ele><time>2026-03-29T12:20:06.896Z</time></trkpt><trkpt lat="43.11590933256699" lon="12.211478635141136"><ele>269.0</ele><time>2026-03-29T12:20:07.896Z</time></trkpt><trkpt lat="43.11593053003832" lon="12.211637522041158"><ele>269.0</ele><time>2026-03-29T12:20:08.896Z</time></trkpt><trkpt lat="43.11595015521656" lon="12.211775211000216"><ele>269.8</ele><time>2026-03-29T12:20:09.896Z</time></trkpt><trkpt lat="43.11596176078472" lon="12.211913222892987"><ele>270.59999999999997</ele><time>2026-03-29T12:20:10.896Z</time></trkpt><trkpt lat="43.11596159731649" lon="12.212037469658979"><ele>271.4</ele><time>2026-03-29T12:20:11.896Z</time></trkpt><trkpt lat="43.11595055758155" lon="12.212163363031976"><ele>272.2</ele><time>2026-03-29T12:20:12.896Z</time></trkpt><trkpt lat="43.115921328694775" lon="12.21232277253507"><ele>273.0</ele><time>2026-03-29T12:20:13.896Z</time></trkpt><trkpt lat="43.1158943405052" lon="12.212490034396152"><ele>273.8</ele><time>2026-03-29T12:20:14.896Z</time></trkpt><trkpt lat="43.11587272595386" lon="12.21265838395784"><ele>274.6</ele><time>2026-03-29T12:20:15.896Z</time></trkpt><trkpt lat="43.11584847996258" lon="12.212791037195263"><ele>275.4</ele><time>2026-03-29T12:20:16.896Z</time></trkpt><trkpt lat="43.1158436925625" lon="12.212893242067874"><ele>276.2</ele><time>2026-03-29T12:20:17.896Z</time></trkpt><trkpt lat="43.115862450678506" lon="12.212991768696487"><ele>277.0</ele><time>2026-03-29T12:20:18.898Z</time></trkpt><trkpt lat="43.11592508679371" lon="12.213103933793274"><ele>276.2</ele><time>2026-03-29T12:20:19.898Z</time></trkpt><trkpt lat="43.11601042191503" lon="12.213210548706193"><ele>275.4</ele><time>2026-03-29T12:20:20.898Z</time></trkpt><trkpt lat="43.11608883418849" lon="12.213336027919748"><ele>274.6</ele><time>2026-03-29T12:20:21.898Z</time></trkpt><trkpt lat="43.11615924747965" lon="12.213448755133575"><ele>273.8</ele><time>2026-03-29T12:20:22.898Z</time></trkpt><trkpt lat="43.11621539399055" lon="12.213536843752976"><ele>273.0</ele><time>2026-03-29T12:20:23.898Z</time></trkpt><trkpt lat="43.116246822096876" lon="12.213615422364166"><ele>273.0</ele><time>2026-03-29T12:20:24.898Z</time></trkpt><trkpt lat="43.11623526420253" lon="12.213735981868822"><ele>273.0</ele><time>2026-03-29T12:20:26.897Z</time></trkpt><trkpt lat="43.11615894559497" lon="12.213789664649653"><ele>273.0</ele><time>2026-03-29T12:20:28.897Z</time></trkpt><trkpt lat="43.11605742772555" lon="12.21382495949795"><ele>273.0</ele><time>2026-03-29T12:20:30.898Z</time></trkpt><trkpt lat="43.11599525527939" lon="12.213862122451019"><ele>273.0</ele><time>2026-03-29T12:20:31.898Z</time></trkpt><trkpt lat="43.115916846079166" lon="12.213882077015354"><ele>273.0</ele><time>2026-03-29T12:20:32.898Z</time></trkpt><trkpt lat="43.1158234604519" lon="12.21389876951481"><ele>274.1666666666667</ele><time>2026-03-29T12:20:33.898Z</time></trkpt><trkpt lat="43.11571871813845" lon="12.213913758342342"><ele>275.3333333333333</ele><time>2026-03-29T12:20:34.898Z</time></trkpt><trkpt lat="43.11565921867562" lon="12.213945352105553"><ele>276.5</ele><time>2026-03-29T12:20:35.898Z</time></trkpt><trkpt lat="43.115606892138956" lon="12.213999256682726"><ele>277.66666666666663</ele><time>2026-03-29T12:20:36.898Z</time></trkpt><trkpt lat="43.115553406053564" lon="12.214117338795198"><ele>278.8333333333333</ele><time>2026-03-29T12:20:38.898Z</time></trkpt><trkpt lat="43.11552350943641" lon="12.214210763495837"><ele>280.0</ele><time>2026-03-29T12:20:39.898Z</time></trkpt><trkpt lat="43.11554232002512" lon="12.214405052252475"><ele>280.66666666666663</ele><time>2026-03-29T12:20:41.898Z</time></trkpt><trkpt lat="43.11554490833248" lon="12.214498559985362"><ele>281.3333333333333</ele><time>2026-03-29T12:20:42.898Z</time></trkpt><trkpt lat="43.115563694951646" lon="12.21459170807407"><ele>282.0</ele><time>2026-03-29T12:20:43.898Z</time></trkpt><trkpt lat="43.115601097267096" lon="12.214668500475653"><ele>282.6666666666667</ele><time>2026-03-29T12:20:44.898Z</time></trkpt><trkpt lat="43.11567504783168" lon="12.214732480246385"><ele>283.33333333333337</ele><time>2026-03-29T12:20:45.898Z</time></trkpt><trkpt lat="43.11575740807867" lon="12.214817703203629"><ele>284.0</ele><time>2026-03-29T12:20:46.898Z</time></trkpt><trkpt lat="43.11582602261756" lon="12.21489129598129"><ele>284.0</ele><time>2026-03-29T12:20:47.898Z</time></trkpt><trkpt lat="43.11588781558121" lon="12.214962083965997"><ele>284.0</ele><time>2026-03-29T12:20:48.898Z</time></trkpt><trkpt lat="43.115958140290125" lon="12.215019822340519"><ele>284.0</ele><time>2026-03-29T12:20:49.898Z</time></trkpt><trkpt lat="43.11604618738573" lon="12.215105760856513"><ele>284.0</ele><time>2026-03-29T12:20:50.898Z</time></trkpt><trkpt lat="43.116139022325726" lon="12.215203313647557"><ele>284.0</ele><time>2026-03-29T12:20:51.898Z</time></trkpt><trkpt lat="43.116218055250606" lon="12.21529387076358"><ele>284.0</ele><time>2026-03-29T12:20:52.898Z</time></trkpt><trkpt lat="43.11628324261616" lon="12.215384682584078"><ele>284.0</ele><time>2026-03-29T12:20:53.898Z</time></trkpt><trkpt lat="43.11636138952773" lon="12.215476767044327"><ele>284.0</ele><time>2026-03-29T12:20:54.898Z</time></trkpt><trkpt lat="43.116431848828974" lon="12.215549355947148"><ele>284.0</ele><time>2026-03-29T12:20:55.898Z</time></trkpt><trkpt lat="43.11641885891698" lon="12.215637978031962"><ele>284.0</ele><time>2026-03-29T12:21:00.898Z</time></trkpt><trkpt lat="43.11629075167004" lon="12.215678853540748"><ele>286.4</ele><time>2026-03-29T12:21:02.898Z</time></trkpt><trkpt lat="43.116209422294624" lon="12.215706345873587"><ele>288.79999999999995</ele><time>2026-03-29T12:21:03.898Z</time></trkpt><trkpt lat="43.116113350096796" lon="12.215740660484206"><ele>291.20000000000005</ele><time>2026-03-29T12:21:04.898Z</time></trkpt><trkpt lat="43.116021675109145" lon="12.215741714922354"><ele>293.6</ele><time>2026-03-29T12:21:05.898Z</time></trkpt><trkpt lat="43.11590978290909" lon="12.21574899960525"><ele>296.0</ele><time>2026-03-29T12:21:06.898Z</time></trkpt><trkpt lat="43.11580702205059" lon="12.215794023170742"><ele>296.0</ele><time>2026-03-29T12:21:07.898Z</time></trkpt><trkpt lat="43.115741696148454" lon="12.215842367214824"><ele>296.0</ele><time>2026-03-29T12:21:08.898Z</time></trkpt><trkpt lat="43.115680196412185" lon="12.215864623618636"><ele>296.0</ele><time>2026-03-29T12:21:09.898Z</time></trkpt><trkpt lat="43.11560388509991" lon="12.215930731663025"><ele>296.0</ele><time>2026-03-29T12:21:10.898Z</time></trkpt><trkpt lat="43.11553346932653" lon="12.216003373420412"><ele>296.0</ele><time>2026-03-29T12:21:11.898Z</time></trkpt><trkpt lat="43.11546560189545" lon="12.216055123148534"><ele>296.0</ele><time>2026-03-29T12:21:12.898Z</time></trkpt><trkpt lat="43.11539165126199" lon="12.216107861706544"><ele>296.5</ele><time>2026-03-29T12:21:13.898Z</time></trkpt><trkpt lat="43.11531204235837" lon="12.216155281249415"><ele>297.0</ele><time>2026-03-29T12:21:14.898Z</time></trkpt><trkpt lat="43.11523476289006" lon="12.216190738927079"><ele>297.5</ele><time>2026-03-29T12:21:15.898Z</time></trkpt><trkpt lat="43.11517775220499" lon="12.216254636543509"><ele>298.0</ele><time>2026-03-29T12:21:16.898Z</time></trkpt><trkpt lat="43.11511511102652" lon="12.216347760498252"><ele>298.5</ele><time>2026-03-29T12:21:17.898Z</time></trkpt><trkpt lat="43.11505044666505" lon="12.216449478696797"><ele>299.0</ele><time>2026-03-29T12:21:18.898Z</time></trkpt><trkpt lat="43.114996016540914" lon="12.216530628333329"><ele>301.0</ele><time>2026-03-29T12:21:19.898Z</time></trkpt><trkpt lat="43.11492784918851" lon="12.216629893349152"><ele>303.0</ele><time>2026-03-29T12:21:21.898Z</time></trkpt><trkpt lat="43.114861059891986" lon="12.216700828928515"><ele>305.0</ele><time>2026-03-29T12:21:22.898Z</time></trkpt><trkpt lat="43.114818586985216" lon="12.216796426964137"><ele>307.0</ele><time>2026-03-29T12:21:23.898Z</time></trkpt><trkpt lat="43.1148468708808" lon="12.21689417598037"><ele>309.0</ele><time>2026-03-29T12:21:25.898Z</time></trkpt><trkpt lat="43.11491542438332" lon="12.216815431668117"><ele>311.0</ele><time>2026-03-29T12:21:27.897Z</time></trkpt><trkpt lat="43.11499078158965" lon="12.216759247967612"><ele>311.0</ele><time>2026-03-29T12:21:28.897Z</time></trkpt><trkpt lat="43.11507442590385" lon="12.216721809475994"><ele>311.0</ele><time>2026-03-29T12:21:30.897Z</time></trkpt><trkpt lat="43.115221435168195" lon="12.216692020908361"><ele>311.0</ele><time>2026-03-29T12:21:32.897Z</time></trkpt><trkpt lat="43.11534110786354" lon="12.216724287632886"><ele>311.0</ele><time>2026-03-29T12:21:33.897Z</time></trkpt><trkpt lat="43.11543620063551" lon="12.216760526076937"><ele>311.0</ele><time>2026-03-29T12:21:34.897Z</time></trkpt><trkpt lat="43.115497773299296" lon="12.21678697141621"><ele>311.0</ele><time>2026-03-29T12:21:35.897Z</time></trkpt><trkpt lat="43.11549549027458" lon="12.2168939905567"><ele>311.0</ele><time>2026-03-29T12:21:39.897Z</time></trkpt><trkpt lat="43.115419505837664" lon="12.216925438629676"><ele>311.0</ele><time>2026-03-29T12:21:41.897Z</time></trkpt><trkpt lat="43.11534002883351" lon="12.217055497499029"><ele>311.0</ele><time>2026-03-29T12:21:43.897Z</time></trkpt><trkpt lat="43.11527410849352" lon="12.217162889518193"><ele>311.0</ele><time>2026-03-29T12:21:45.897Z</time></trkpt><trkpt lat="43.1152264270318" lon="12.217244516218797"><ele>314.4</ele><time>2026-03-29T12:21:46.897Z</time></trkpt><trkpt lat="43.115165859124616" lon="12.217343494929397"><ele>317.8</ele><time>2026-03-29T12:21:47.897Z</time></trkpt><trkpt lat="43.11508847158479" lon="12.217460204048166"><ele>321.2</ele><time>2026-03-29T12:21:48.897Z</time></trkpt><trkpt lat="43.11501399372857" lon="12.217558173298531"><ele>324.59999999999997</ele><time>2026-03-29T12:21:49.897Z</time></trkpt><trkpt lat="43.1149513611395" lon="12.217635761160205"><ele>328.0</ele><time>2026-03-29T12:21:50.897Z</time></trkpt><trkpt lat="43.11485196824634" lon="12.217683410985888"><ele>328.0</ele><time>2026-03-29T12:21:52.897Z</time></trkpt><trkpt lat="43.11481255336803" lon="12.21778371105135"><ele>328.0</ele><time>2026-03-29T12:21:54.897Z</time></trkpt><trkpt lat="43.114899591500546" lon="12.217883963005196"><ele>328.0</ele><time>2026-03-29T12:21:57.897Z</time></trkpt><trkpt lat="43.11498981399051" lon="12.217988979321605"><ele>328.0</ele><time>2026-03-29T12:21:59.897Z</time></trkpt><trkpt lat="43.11503327724847" lon="12.218107078941589"><ele>328.0</ele><time>2026-03-29T12:22:01.897Z</time></trkpt><trkpt lat="43.11506986879873" lon="12.21820128839695"><ele>330.5</ele><time>2026-03-29T12:22:02.897Z</time></trkpt><trkpt lat="43.115091632956194" lon="12.21832228899672"><ele>333.0</ele><time>2026-03-29T12:22:03.897Z</time></trkpt><trkpt lat="43.115095388732044" lon="12.218452060242734"><ele>335.5</ele><time>2026-03-29T12:22:04.897Z</time></trkpt><trkpt lat="43.115066131927506" lon="12.218547970574779"><ele>338.0</ele><time>2026-03-29T12:22:05.897Z</time></trkpt><trkpt lat="43.11501622966892" lon="12.218627351661645"><ele>340.5</ele><time>2026-03-29T12:22:06.897Z</time></trkpt><trkpt lat="43.11494993892289" lon="12.218704847008674"><ele>343.0</ele><time>2026-03-29T12:22:07.897Z</time></trkpt><trkpt lat="43.114896611930604" lon="12.218805597083563"><ele>344.2</ele><time>2026-03-29T12:22:08.897Z</time></trkpt><trkpt lat="43.114860404539506" lon="12.218919088431647"><ele>345.4</ele><time>2026-03-29T12:22:09.897Z</time></trkpt><trkpt lat="43.1148182358564" lon="12.21907881623232"><ele>346.59999999999997</ele><time>2026-03-29T12:22:10.897Z</time></trkpt><trkpt lat="43.11477921729433" lon="12.219223670698437"><ele>347.79999999999995</ele><time>2026-03-29T12:22:11.897Z</time></trkpt><trkpt lat="43.1147496220422" lon="12.219332956440946"><ele>349.0</ele><time>2026-03-29T12:22:12.897Z</time></trkpt><trkpt lat="43.1147158282752" lon="12.219437431706096"><ele>351.3333333333333</ele><time>2026-03-29T12:22:13.897Z</time></trkpt><trkpt lat="43.114671513837536" lon="12.219512053037311"><ele>353.66666666666663</ele><time>2026-03-29T12:22:14.897Z</time></trkpt><trkpt lat="43.114612263979375" lon="12.219571352612498"><ele>356.0</ele><time>2026-03-29T12:22:15.897Z</time></trkpt><trkpt lat="43.11456687539277" lon="12.219639103355131"><ele>358.3333333333333</ele><time>2026-03-29T12:22:16.897Z</time></trkpt><trkpt lat="43.11449146553484" lon="12.219740350241635"><ele>360.6666666666667</ele><time>2026-03-29T12:22:17.897Z</time></trkpt><trkpt lat="43.11441361766583" lon="12.21984076221475"><ele>363.0</ele><time>2026-03-29T12:22:18.897Z</time></trkpt><trkpt lat="43.11436139730313" lon="12.219910975092557"><ele>364.79999999999995</ele><time>2026-03-29T12:22:19.897Z</time></trkpt><trkpt lat="43.11423961255379" lon="12.219954686834551"><ele>366.6</ele><time>2026-03-29T12:22:21.897Z</time></trkpt><trkpt lat="43.11414744748881" lon="12.21997933598914"><ele>368.4</ele><time>2026-03-29T12:22:22.897Z</time></trkpt><trkpt lat="43.114041080438795" lon="12.220043637274852"><ele>370.20000000000005</ele><time>2026-03-29T12:22:23.897Z</time></trkpt><trkpt lat="43.11395948056129" lon="12.220081112697981"><ele>372.0</ele><time>2026-03-29T12:22:24.899Z</time></trkpt><trkpt lat="43.11388526356807" lon="12.220095525494289"><ele>374.0</ele><time>2026-03-29T12:22:25.898Z</time></trkpt><trkpt lat="43.11379227831242" lon="12.220104707190215"><ele>376.0</ele><time>2026-03-29T12:22:26.898Z</time></trkpt><trkpt lat="43.1136938905282" lon="12.220115025240027"><ele>378.0</ele><time>2026-03-29T12:22:27.899Z</time></trkpt><trkpt lat="43.11359244949534" lon="12.220139282930523"><ele>380.0</ele><time>2026-03-29T12:22:28.899Z</time></trkpt><trkpt lat="43.113487621952515" lon="12.220164574961439"><ele>382.0</ele><time>2026-03-29T12:22:29.899Z</time></trkpt><trkpt lat="43.113413654065404" lon="12.220179781419567"><ele>382.0</ele><time>2026-03-29T12:22:30.899Z</time></trkpt><trkpt lat="43.11335305393466" lon="12.22022012840072"><ele>382.0</ele><time>2026-03-29T12:22:32.899Z</time></trkpt><trkpt lat="43.113383861664005" lon="12.220297178089783"><ele>382.0</ele><time>2026-03-29T12:22:34.898Z</time></trkpt><trkpt lat="43.11338183149589" lon="12.220414326461084"><ele>382.0</ele><time>2026-03-29T12:22:37.899Z</time></trkpt><trkpt lat="43.11337219251892" lon="12.220543725682845"><ele>382.0</ele><time>2026-03-29T12:22:39.899Z</time></trkpt><trkpt lat="43.11346561182918" lon="12.220615300831835"><ele>382.0</ele><time>2026-03-29T12:22:41.899Z</time></trkpt><trkpt lat="43.11355816805487" lon="12.220677043247223"><ele>384.8333333333333</ele><time>2026-03-29T12:22:42.899Z</time></trkpt><trkpt lat="43.11365012093934" lon="12.220752316246108"><ele>387.66666666666663</ele><time>2026-03-29T12:22:43.899Z</time></trkpt><trkpt lat="43.11370628801104" lon="12.220826511263914"><ele>390.5</ele><time>2026-03-29T12:22:44.899Z</time></trkpt><trkpt lat="43.113757429919886" lon="12.2209054024552"><ele>393.3333333333333</ele><time>2026-03-29T12:22:45.899Z</time></trkpt><trkpt lat="43.11381352698227" lon="12.220993548133308"><ele>396.1666666666667</ele><time>2026-03-29T12:22:46.899Z</time></trkpt><trkpt lat="43.11386248263126" lon="12.221070414409114"><ele>399.0</ele><time>2026-03-29T12:22:47.899Z</time></trkpt><trkpt lat="43.1139639491268" lon="12.221176521308925"><ele>399.0</ele><time>2026-03-29T12:22:50.899Z</time></trkpt><trkpt lat="43.11404482018805" lon="12.22124320337818"><ele>399.0</ele><time>2026-03-29T12:22:51.899Z</time></trkpt><trkpt lat="43.11410040515991" lon="12.221308400379064"><ele>399.0</ele><time>2026-03-29T12:22:52.899Z</time></trkpt><trkpt lat="43.11416684189436" lon="12.221424202388128"><ele>399.0</ele><time>2026-03-29T12:22:53.899Z</time></trkpt><trkpt lat="43.11423120875147" lon="12.221540527188719"><ele>399.0</ele><time>2026-03-29T12:22:54.899Z</time></trkpt><trkpt lat="43.11429567550874" lon="12.22165682391121"><ele>399.0</ele><time>2026-03-29T12:22:55.899Z</time></trkpt><trkpt lat="43.11436015184681" lon="12.221774477386493"><ele>399.0</ele><time>2026-03-29T12:22:56.899Z</time></trkpt><trkpt lat="43.11442832756605" lon="12.221899112028384"><ele>399.0</ele><time>2026-03-29T12:22:57.899Z</time></trkpt><trkpt lat="43.114460219776134" lon="12.222002491406489"><ele>399.0</ele><time>2026-03-29T12:22:58.899Z</time></trkpt><trkpt lat="43.114468998053226" lon="12.222106042653147"><ele>399.0</ele><time>2026-03-29T12:22:59.899Z</time></trkpt><trkpt lat="43.114452666761885" lon="12.222240051938824"><ele>401.4</ele><time>2026-03-29T12:23:00.899Z</time></trkpt><trkpt lat="43.114425374892434" lon="12.222347929963874"><ele>403.79999999999995</ele><time>2026-03-29T12:23:01.899Z</time></trkpt><trkpt lat="43.114417880498564" lon="12.222452577720528"><ele>406.20000000000005</ele><time>2026-03-29T12:23:02.899Z</time></trkpt><trkpt lat="43.114471064023945" lon="12.222553631805253"><ele>408.6</ele><time>2026-03-29T12:23:04.899Z</time></trkpt><trkpt lat="43.114552034333535" lon="12.222555599082307"><ele>411.0</ele><time>2026-03-29T12:23:07.899Z</time></trkpt><trkpt lat="43.11505153895012" lon="12.222599456605968"><ele>405.0</ele><time>2026-03-29T12:23:10.899Z</time></trkpt><trkpt lat="43.11521138487246" lon="12.222602675783028"><ele>399.0</ele><time>2026-03-29T12:23:11.899Z</time></trkpt><trkpt lat="43.115352273608394" lon="12.22260343719219"><ele>393.0</ele><time>2026-03-29T12:23:12.899Z</time></trkpt><trkpt lat="43.1154947842523" lon="12.222608649708977"><ele>387.0</ele><time>2026-03-29T12:23:13.899Z</time></trkpt><trkpt lat="43.115757392004156" lon="12.222612702600712"><ele>384.20000000000005</ele><time>2026-03-29T12:23:15.899Z</time></trkpt><trkpt lat="43.115863120441844" lon="12.222626486180966"><ele>381.4</ele><time>2026-03-29T12:23:16.899Z</time></trkpt><trkpt lat="43.11596217583937" lon="12.222677148000928"><ele>378.6</ele><time>2026-03-29T12:23:17.899Z</time></trkpt><trkpt lat="43.11606836438135" lon="12.222735767206485"><ele>375.79999999999995</ele><time>2026-03-29T12:23:18.899Z</time></trkpt><trkpt lat="43.11618438068146" lon="12.222788397403479"><ele>373.0</ele><time>2026-03-29T12:23:19.899Z</time></trkpt><trkpt lat="43.11628728304147" lon="12.222819276597676"><ele>373.0</ele><time>2026-03-29T12:23:20.899Z</time></trkpt><trkpt lat="43.11639876982509" lon="12.222836796324989"><ele>373.0</ele><time>2026-03-29T12:23:21.899Z</time></trkpt><trkpt lat="43.1165091368023" lon="12.222844670545069"><ele>373.0</ele><time>2026-03-29T12:23:22.899Z</time></trkpt><trkpt lat="43.11662756669431" lon="12.222851164475873"><ele>373.0</ele><time>2026-03-29T12:23:23.899Z</time></trkpt><trkpt lat="43.11674270500927" lon="12.222867497147803"><ele>371.79999999999995</ele><time>2026-03-29T12:23:24.899Z</time></trkpt><trkpt lat="43.116833397822234" lon="12.222880986125976"><ele>370.6</ele><time>2026-03-29T12:23:25.899Z</time></trkpt><trkpt lat="43.116907827477725" lon="12.222874170985026"><ele>369.4</ele><time>2026-03-29T12:23:26.899Z</time></trkpt><trkpt lat="43.117016424507995" lon="12.222888788098919"><ele>368.20000000000005</ele><time>2026-03-29T12:23:28.899Z</time></trkpt><trkpt lat="43.11703146348428" lon="12.22303859595743"><ele>367.0</ele><time>2026-03-29T12:23:44.899Z</time></trkpt><trkpt lat="43.11692762836375" lon="12.223162383050944"><ele>371.40000000000003</ele><time>2026-03-29T12:23:46.899Z</time></trkpt><trkpt lat="43.116899214413074" lon="12.22325006451594"><ele>375.8</ele><time>2026-03-29T12:23:47.899Z</time></trkpt><trkpt lat="43.11685321404489" lon="12.223367532250318"><ele>380.2</ele><time>2026-03-29T12:23:49.899Z</time></trkpt><trkpt lat="43.116713458418175" lon="12.223446032836515"><ele>384.6</ele><time>2026-03-29T12:23:51.899Z</time></trkpt><trkpt lat="43.11664137809652" lon="12.223486462814328"><ele>389.0</ele><time>2026-03-29T12:23:52.899Z</time></trkpt><trkpt lat="43.116577658789076" lon="12.223518463901172"><ele>389.79999999999995</ele><time>2026-03-29T12:23:53.899Z</time></trkpt><trkpt lat="43.116515483964974" lon="12.223563835898995"><ele>390.59999999999997</ele><time>2026-03-29T12:23:54.898Z</time></trkpt><trkpt lat="43.11644100732689" lon="12.223597255282277"><ele>391.4</ele><time>2026-03-29T12:23:55.898Z</time></trkpt><trkpt lat="43.11636744686427" lon="12.22365893141609"><ele>392.2</ele><time>2026-03-29T12:23:56.898Z</time></trkpt><trkpt lat="43.116231981798485" lon="12.223731188790167"><ele>393.0</ele><time>2026-03-29T12:23:58.898Z</time></trkpt><trkpt lat="43.116153145868225" lon="12.223754280039037"><ele>393.00000000000006</ele><time>2026-03-29T12:23:59.898Z</time></trkpt><trkpt lat="43.116093574941345" lon="12.223801603632008"><ele>393.0</ele><time>2026-03-29T12:24:00.898Z</time></trkpt><trkpt lat="43.1160457728141" lon="12.22388386262026"><ele>393.0</ele><time>2026-03-29T12:24:01.898Z</time></trkpt><trkpt lat="43.116022837896686" lon="12.22396644078156"><ele>393.0</ele><time>2026-03-29T12:24:02.898Z</time></trkpt><trkpt lat="43.1160420341643" lon="12.224053734952625"><ele>393.0</ele><time>2026-03-29T12:24:03.898Z</time></trkpt><trkpt lat="43.11611353954466" lon="12.224106191049943"><ele>393.00000000000006</ele><time>2026-03-29T12:24:04.898Z</time></trkpt><trkpt lat="43.11615831030111" lon="12.224178628699862"><ele>393.0</ele><time>2026-03-29T12:24:05.898Z</time></trkpt><trkpt lat="43.11618389598153" lon="12.22428139040097"><ele>395.8333333333333</ele><time>2026-03-29T12:24:07.898Z</time></trkpt><trkpt lat="43.116119595715865" lon="12.22438087532103"><ele>398.66666666666663</ele><time>2026-03-29T12:24:11.898Z</time></trkpt><trkpt lat="43.11602124120122" lon="12.224440930651088"><ele>401.5</ele><time>2026-03-29T12:24:13.898Z</time></trkpt><trkpt lat="43.11595431145163" lon="12.22445795241675"><ele>404.3333333333333</ele><time>2026-03-29T12:24:14.898Z</time></trkpt><trkpt lat="43.115882781776726" lon="12.224468967819114"><ele>407.16666666666663</ele><time>2026-03-29T12:24:15.898Z</time></trkpt><trkpt lat="43.11581940733497" lon="12.22450293484089"><ele>410.0</ele><time>2026-03-29T12:24:16.898Z</time></trkpt><trkpt lat="43.11575616060097" lon="12.224529455244607"><ele>411.49999999999994</ele><time>2026-03-29T12:24:17.898Z</time></trkpt><trkpt lat="43.1156808869129" lon="12.22455128603136"><ele>413.0</ele><time>2026-03-29T12:24:18.898Z</time></trkpt><trkpt lat="43.1156078991535" lon="12.22457262015821"><ele>414.5</ele><time>2026-03-29T12:24:19.898Z</time></trkpt><trkpt lat="43.115529743435324" lon="12.224594011364562"><ele>416.0</ele><time>2026-03-29T12:24:20.898Z</time></trkpt><trkpt lat="43.11545364762035" lon="12.224596906802773"><ele>417.49999999999994</ele><time>2026-03-29T12:24:21.898Z</time></trkpt><trkpt lat="43.11537482510032" lon="12.224587255687739"><ele>419.0</ele><time>2026-03-29T12:24:23.898Z</time></trkpt><trkpt lat="43.11530613916654" lon="12.224515343415016"><ele>418.99999999999994</ele><time>2026-03-29T12:24:25.898Z</time></trkpt><trkpt lat="43.115255388696006" lon="12.224573540862819"><ele>419.0</ele><time>2026-03-29T12:24:29.898Z</time></trkpt><trkpt lat="43.11520461925022" lon="12.224625000011914"><ele>419.0</ele><time>2026-03-29T12:24:31.9Z</time></trkpt><trkpt lat="43.11515193271" lon="12.224676153811098"><ele>419.0</ele><time>2026-03-29T12:24:33.9Z</time></trkpt><trkpt lat="43.11508118068555" lon="12.224747336605853"><ele>419.0</ele><time>2026-03-29T12:24:35.899Z</time></trkpt><trkpt lat="43.115022581167864" lon="12.224806778526148"><ele>418.99999999999994</ele><time>2026-03-29T12:24:37.899Z</time></trkpt><trkpt lat="43.11496708544567" lon="12.22485565119911"><ele>419.0</ele><time>2026-03-29T12:24:39.901Z</time></trkpt><trkpt lat="43.11491762986835" lon="12.224918673481975"><ele>422.16666666666663</ele><time>2026-03-29T12:24:42.901Z</time></trkpt><trkpt lat="43.114843000781356" lon="12.224973885122568"><ele>425.3333333333333</ele><time>2026-03-29T12:24:45.899Z</time></trkpt><trkpt lat="43.11477958216709" lon="12.22499354506854"><ele>428.5</ele><time>2026-03-29T12:24:47.899Z</time></trkpt><trkpt lat="43.11470701705999" lon="12.224988725066828"><ele>431.66666666666663</ele><time>2026-03-29T12:24:49.899Z</time></trkpt><trkpt lat="43.114636604214425" lon="12.224990827229723"><ele>434.8333333333333</ele><time>2026-03-29T12:24:51.899Z</time></trkpt><trkpt lat="43.114552654734545" lon="12.224973635020651"><ele>438.0</ele><time>2026-03-29T12:24:53.899Z</time></trkpt><trkpt lat="43.1144583255649" lon="12.224925202056742"><ele>438.0</ele><time>2026-03-29T12:24:55.899Z</time></trkpt><trkpt lat="43.114353062545455" lon="12.224902521007794"><ele>438.0</ele><time>2026-03-29T12:24:57.899Z</time></trkpt><trkpt lat="43.114233389496476" lon="12.22486651725313"><ele>438.0</ele><time>2026-03-29T12:24:59.899Z</time></trkpt><trkpt lat="43.11415243703641" lon="12.224779485966847"><ele>438.0</ele><time>2026-03-29T12:25:01.899Z</time></trkpt><trkpt lat="43.114029179784715" lon="12.224759022899663"><ele>440.0</ele><time>2026-03-29T12:25:03.899Z</time></trkpt><trkpt lat="43.113912778784155" lon="12.224729011500697"><ele>441.99999999999994</ele><time>2026-03-29T12:25:05.899Z</time></trkpt><trkpt lat="43.11380237452017" lon="12.224686276297954"><ele>443.99999999999994</ele><time>2026-03-29T12:25:06.899Z</time></trkpt><trkpt lat="43.1137073090287" lon="12.224643371254915"><ele>446.0</ele><time>2026-03-29T12:25:07.899Z</time></trkpt><trkpt lat="43.113638416338766" lon="12.224610984081533"><ele>448.0</ele><time>2026-03-29T12:25:08.899Z</time></trkpt><trkpt lat="43.11357091504743" lon="12.224572972513878"><ele>448.0</ele><time>2026-03-29T12:25:10.899Z</time></trkpt><trkpt lat="43.113504924959656" lon="12.224540670638774"><ele>448.0</ele><time>2026-03-29T12:25:12.899Z</time></trkpt><trkpt lat="43.11344395811529" lon="12.22450084710859"><ele>448.0</ele><time>2026-03-29T12:25:13.899Z</time></trkpt><trkpt lat="43.11338899930397" lon="12.224440008667484"><ele>448.0</ele><time>2026-03-29T12:25:15.899Z</time></trkpt><trkpt lat="43.11332726142964" lon="12.22438087190556"><ele>448.0</ele><time>2026-03-29T12:25:17.899Z</time></trkpt><trkpt lat="43.11326616632675" lon="12.2243020719065"><ele>448.0</ele><time>2026-03-29T12:25:19.899Z</time></trkpt><trkpt lat="43.11320931352138" lon="12.224236815739879"><ele>448.0</ele><time>2026-03-29T12:25:21.899Z</time></trkpt><trkpt lat="43.11316578350515" lon="12.224171623714366"><ele>449.79999999999995</ele><time>2026-03-29T12:25:23.899Z</time></trkpt><trkpt lat="43.11312961536609" lon="12.224049235183632"><ele>451.59999999999997</ele><time>2026-03-29T12:25:25.899Z</time></trkpt><trkpt lat="43.11306946275" lon="12.223909333138401"><ele>453.40000000000003</ele><time>2026-03-29T12:25:27.899Z</time></trkpt><trkpt lat="43.113022609105485" lon="12.223824337818737"><ele>455.20000000000005</ele><time>2026-03-29T12:25:28.899Z</time></trkpt><trkpt lat="43.11294406338269" lon="12.223709876921818"><ele>457.0</ele><time>2026-03-29T12:25:30.899Z</time></trkpt><trkpt lat="43.11289842122945" lon="12.223625621160261"><ele>457.0</ele><time>2026-03-29T12:25:31.899Z</time></trkpt><trkpt lat="43.11282867674041" lon="12.223532815725358"><ele>457.00000000000006</ele><time>2026-03-29T12:25:32.899Z</time></trkpt><trkpt lat="43.112785918842" lon="12.22344642080071"><ele>457.00000000000006</ele><time>2026-03-29T12:25:33.899Z</time></trkpt><trkpt lat="43.112745495418054" lon="12.22337190498512"><ele>457.0</ele><time>2026-03-29T12:25:35.899Z</time></trkpt><trkpt lat="43.112648977871956" lon="12.22348613368602"><ele>457.0</ele><time>2026-03-29T12:25:37.899Z</time></trkpt><trkpt lat="43.112585648844814" lon="12.223591230636035"><ele>457.00000000000006</ele><time>2026-03-29T12:25:38.899Z</time></trkpt><trkpt lat="43.11251935453867" lon="12.223660008643375"><ele>457.0</ele><time>2026-03-29T12:25:39.899Z</time></trkpt><trkpt lat="43.112455303913116" lon="12.223691827359648"><ele>457.0</ele><time>2026-03-29T12:25:40.899Z</time></trkpt><trkpt lat="43.11240370873529" lon="12.22375235247233"><ele>457.0</ele><time>2026-03-29T12:25:41.899Z</time></trkpt><trkpt lat="43.11235443667167" lon="12.223864679617465"><ele>457.00000000000006</ele><time>2026-03-29T12:25:43.899Z</time></trkpt><trkpt lat="43.11230264821392" lon="12.223918467035233"><ele>457.0</ele><time>2026-03-29T12:25:44.899Z</time></trkpt><trkpt lat="43.112225614059696" lon="12.223966665633839"><ele>461.1666666666667</ele><time>2026-03-29T12:25:46.899Z</time></trkpt><trkpt lat="43.11215873338232" lon="12.224020921212906"><ele>465.33333333333337</ele><time>2026-03-29T12:25:49.899Z</time></trkpt><trkpt lat="43.112096132599724" lon="12.224051682311899"><ele>469.5</ele><time>2026-03-29T12:25:52.899Z</time></trkpt><trkpt lat="43.11202369862675" lon="12.224093590556716"><ele>473.66666666666663</ele><time>2026-03-29T12:25:54.899Z</time></trkpt><trkpt lat="43.11192163090921" lon="12.224179360125433"><ele>477.8333333333333</ele><time>2026-03-29T12:25:56.899Z</time></trkpt><trkpt lat="43.11184690681498" lon="12.224259493951111"><ele>482.0</ele><time>2026-03-29T12:25:58.899Z</time></trkpt><trkpt lat="43.111731632096" lon="12.224378669931543"><ele>481.99999999999994</ele><time>2026-03-29T12:26:00.899Z</time></trkpt><trkpt lat="43.111667733069346" lon="12.224419464129019"><ele>482.0</ele><time>2026-03-29T12:26:01.899Z</time></trkpt><trkpt lat="43.111601653066856" lon="12.224456301548058"><ele>482.0</ele><time>2026-03-29T12:26:02.899Z</time></trkpt><trkpt lat="43.11152566746292" lon="12.224495302983877"><ele>482.0</ele><time>2026-03-29T12:26:03.899Z</time></trkpt><trkpt lat="43.11142885185628" lon="12.224553859456547"><ele>481.99999999999994</ele><time>2026-03-29T12:26:05.899Z</time></trkpt><trkpt lat="43.11132706070898" lon="12.224628996625384"><ele>482.0</ele><time>2026-03-29T12:26:07.899Z</time></trkpt><trkpt lat="43.111247170483345" lon="12.224646255927997"><ele>482.99999999999994</ele><time>2026-03-29T12:26:08.899Z</time></trkpt><trkpt lat="43.11115495780051" lon="12.224633609248414"><ele>484.0</ele><time>2026-03-29T12:26:09.899Z</time></trkpt><trkpt lat="43.111072228652425" lon="12.224590105572394"><ele>485.0</ele><time>2026-03-29T12:26:10.899Z</time></trkpt><trkpt lat="43.111004518178206" lon="12.224529807579264"><ele>486.0</ele><time>2026-03-29T12:26:11.899Z</time></trkpt><trkpt lat="43.11095181109975" lon="12.22447046689406"><ele>486.99999999999994</ele><time>2026-03-29T12:26:12.899Z</time></trkpt><trkpt lat="43.11089481255621" lon="12.224415345417931"><ele>488.0</ele><time>2026-03-29T12:26:13.899Z</time></trkpt><trkpt lat="43.11083246479913" lon="12.224303260531327"><ele>488.0</ele><time>2026-03-29T12:26:15.899Z</time></trkpt><trkpt lat="43.11076054798938" lon="12.224180368182983"><ele>487.99999999999994</ele><time>2026-03-29T12:26:17.899Z</time></trkpt><trkpt lat="43.110716080656005" lon="12.224052152801303"><ele>487.99999999999994</ele><time>2026-03-29T12:26:19.899Z</time></trkpt><trkpt lat="43.11067893412963" lon="12.223935849702196"><ele>488.0</ele><time>2026-03-29T12:26:24.899Z</time></trkpt><trkpt lat="43.11060149079808" lon="12.223842266843686"><ele>488.0</ele><time>2026-03-29T12:26:26.899Z</time></trkpt><trkpt lat="43.11054326652414" lon="12.223775618003613"><ele>486.0</ele><time>2026-03-29T12:26:27.899Z</time></trkpt><trkpt lat="43.11043694357808" lon="12.223673243623667"><ele>484.0</ele><time>2026-03-29T12:26:28.899Z</time></trkpt><trkpt lat="43.11034620339872" lon="12.223549264634755"><ele>482.0</ele><time>2026-03-29T12:26:29.899Z</time></trkpt><trkpt lat="43.11027020533015" lon="12.223441447087122"><ele>480.0</ele><time>2026-03-29T12:26:30.899Z</time></trkpt><trkpt lat="43.11020820645889" lon="12.223328356535086"><ele>480.0</ele><time>2026-03-29T12:26:31.899Z</time></trkpt><trkpt lat="43.11015026611358" lon="12.22325179423467"><ele>480.0</ele><time>2026-03-29T12:26:32.898Z</time></trkpt><trkpt lat="43.110073569883774" lon="12.223110793868594"><ele>480.0</ele><time>2026-03-29T12:26:34.898Z</time></trkpt><trkpt lat="43.11005456896161" lon="12.223011471195083"><ele>480.0</ele><time>2026-03-29T12:26:35.898Z</time></trkpt><trkpt lat="43.11002165473628" lon="12.22288960069485"><ele>480.0</ele><time>2026-03-29T12:26:36.901Z</time></trkpt><trkpt lat="43.10998873890185" lon="12.222783749231722"><ele>479.0</ele><time>2026-03-29T12:26:37.901Z</time></trkpt><trkpt lat="43.10994463061284" lon="12.22267135167089"><ele>478.0</ele><time>2026-03-29T12:26:38.901Z</time></trkpt><trkpt lat="43.1098900344733" lon="12.22257667762301"><ele>477.0</ele><time>2026-03-29T12:26:39.901Z</time></trkpt><trkpt lat="43.1098275149482" lon="12.222457190815593"><ele>476.0</ele><time>2026-03-29T12:26:40.901Z</time></trkpt><trkpt lat="43.1097760840644" lon="12.222351292287614"><ele>475.0</ele><time>2026-03-29T12:26:41.901Z</time></trkpt><trkpt lat="43.10972862550306" lon="12.222260437807842"><ele>473.33333333333337</ele><time>2026-03-29T12:26:42.901Z</time></trkpt><trkpt lat="43.10968399559491" lon="12.222179184336467"><ele>471.6666666666667</ele><time>2026-03-29T12:26:43.902Z</time></trkpt><trkpt lat="43.10963556745074" lon="12.222106635936136"><ele>470.0</ele><time>2026-03-29T12:26:44.902Z</time></trkpt><trkpt lat="43.10960281327186" lon="12.222018887204618"><ele>468.33333333333337</ele><time>2026-03-29T12:26:45.901Z</time></trkpt><trkpt lat="43.10958005748971" lon="12.221913101615153"><ele>466.6666666666667</ele><time>2026-03-29T12:26:46.901Z</time></trkpt><trkpt lat="43.10955793885735" lon="12.221807636738909"><ele>465.0</ele><time>2026-03-29T12:26:47.901Z</time></trkpt><trkpt lat="43.109544997648676" lon="12.22169987844413"><ele>465.0</ele><time>2026-03-29T12:26:48.901Z</time></trkpt><trkpt lat="43.10950114995337" lon="12.221568750514809"><ele>465.0</ele><time>2026-03-29T12:26:50.901Z</time></trkpt><trkpt lat="43.10942357172988" lon="12.221475862235762"><ele>465.0</ele><time>2026-03-29T12:26:52.901Z</time></trkpt><trkpt lat="43.109425220830104" lon="12.221382349342358"><ele>465.0</ele><time>2026-03-29T12:26:53.901Z</time></trkpt><trkpt lat="43.10937013779045" lon="12.221247363097566"><ele>465.0</ele><time>2026-03-29T12:26:55.901Z</time></trkpt><trkpt lat="43.109294103958966" lon="12.221224139509216"><ele>463.25</ele><time>2026-03-29T12:26:56.901Z</time></trkpt><trkpt lat="43.109186050548516" lon="12.221115932473293"><ele>461.5</ele><time>2026-03-29T12:26:58.901Z</time></trkpt><trkpt lat="43.10913391331055" lon="12.220989865367521"><ele>459.75</ele><time>2026-03-29T12:26:59.901Z</time></trkpt><trkpt lat="43.10909394588593" lon="12.220879659563154"><ele>458.0</ele><time>2026-03-29T12:27:00.901Z</time></trkpt><trkpt lat="43.10898255229801" lon="12.220791675986286"><ele>457.2</ele><time>2026-03-29T12:27:02.901Z</time></trkpt><trkpt lat="43.108889301393845" lon="12.22074895530534"><ele>456.4</ele><time>2026-03-29T12:27:03.901Z</time></trkpt><trkpt lat="43.10878553738535" lon="12.220680025797957"><ele>455.59999999999997</ele><time>2026-03-29T12:27:04.901Z</time></trkpt><trkpt lat="43.10869241752788" lon="12.220602935244875"><ele>454.79999999999995</ele><time>2026-03-29T12:27:05.901Z</time></trkpt><trkpt lat="43.10862271577888" lon="12.220524182022006"><ele>454.0</ele><time>2026-03-29T12:27:06.901Z</time></trkpt><trkpt lat="43.10856124340823" lon="12.220437187033172"><ele>454.00000000000006</ele><time>2026-03-29T12:27:07.901Z</time></trkpt><trkpt lat="43.10851826102667" lon="12.220336928044388"><ele>454.0</ele><time>2026-03-29T12:27:08.901Z</time></trkpt><trkpt lat="43.10847092253468" lon="12.220246880411269"><ele>454.0</ele><time>2026-03-29T12:27:09.901Z</time></trkpt><trkpt lat="43.10842394339334" lon="12.220165746717441"><ele>454.0</ele><time>2026-03-29T12:27:10.901Z</time></trkpt><trkpt lat="43.10837316157872" lon="12.220093388345473"><ele>454.00000000000006</ele><time>2026-03-29T12:27:11.901Z</time></trkpt><trkpt lat="43.10831842226813" lon="12.220018100382953"><ele>454.0</ele><time>2026-03-29T12:27:12.901Z</time></trkpt><trkpt lat="43.108276175547914" lon="12.219941116226705"><ele>452.50000000000006</ele><time>2026-03-29T12:27:13.901Z</time></trkpt><trkpt lat="43.108217098131284" lon="12.219864102479338"><ele>451.0</ele><time>2026-03-29T12:27:14.901Z</time></trkpt><trkpt lat="43.108155236128525" lon="12.21981544528431"><ele>449.5</ele><time>2026-03-29T12:27:15.901Z</time></trkpt><trkpt lat="43.10805576707599" lon="12.21974935521461"><ele>448.0</ele><time>2026-03-29T12:27:17.901Z</time></trkpt><trkpt lat="43.108001506106895" lon="12.219701025367963"><ele>446.50000000000006</ele><time>2026-03-29T12:27:19.901Z</time></trkpt><trkpt lat="43.10790702484786" lon="12.219734194651119"><ele>445.0</ele><time>2026-03-29T12:27:23.901Z</time></trkpt><trkpt lat="43.107808401978055" lon="12.21967473284213"><ele>449.2</ele><time>2026-03-29T12:27:25.901Z</time></trkpt><trkpt lat="43.107725866620896" lon="12.219650153476232"><ele>453.4</ele><time>2026-03-29T12:27:27.901Z</time></trkpt><trkpt lat="43.10761731296608" lon="12.219687146975131"><ele>457.6</ele><time>2026-03-29T12:27:29.901Z</time></trkpt><trkpt lat="43.10751144994952" lon="12.219656234862104"><ele>461.8</ele><time>2026-03-29T12:27:31.901Z</time></trkpt><trkpt lat="43.10745340308723" lon="12.219697663169748"><ele>466.0</ele><time>2026-03-29T12:27:34.901Z</time></trkpt><trkpt lat="43.10752618851773" lon="12.219771843496796"><ele>466.0</ele><time>2026-03-29T12:27:36.901Z</time></trkpt><trkpt lat="43.1076150929105" lon="12.219787626989604"><ele>466.0</ele><time>2026-03-29T12:27:38.901Z</time></trkpt><trkpt lat="43.107688608546404" lon="12.219850751496502"><ele>466.0</ele><time>2026-03-29T12:27:40.901Z</time></trkpt><trkpt lat="43.10775793853189" lon="12.219940316913394"><ele>466.0</ele><time>2026-03-29T12:27:42.901Z</time></trkpt><trkpt lat="43.10782591560647" lon="12.220021017215698"><ele>466.0</ele><time>2026-03-29T12:27:44.901Z</time></trkpt><trkpt lat="43.107860056981124" lon="12.220143331527169"><ele>461.8</ele><time>2026-03-29T12:27:46.901Z</time></trkpt><trkpt lat="43.10791547790437" lon="12.220249632897954"><ele>457.6</ele><time>2026-03-29T12:27:48.901Z</time></trkpt><trkpt lat="43.107950236515414" lon="12.220393201041286"><ele>453.4</ele><time>2026-03-29T12:27:50.901Z</time></trkpt><trkpt lat="43.10797333168083" lon="12.22052286880955"><ele>449.2</ele><time>2026-03-29T12:27:52.901Z</time></trkpt><trkpt lat="43.10802200633849" lon="12.22065555855596"><ele>445.0</ele><time>2026-03-29T12:27:54.901Z</time></trkpt><trkpt lat="43.108096673958855" lon="12.220769759923098"><ele>445.2</ele><time>2026-03-29T12:27:56.901Z</time></trkpt><trkpt lat="43.10813487760603" lon="12.220842051317568"><ele>445.4</ele><time>2026-03-29T12:27:57.901Z</time></trkpt><trkpt lat="43.108217375792414" lon="12.220951372039027"><ele>445.6</ele><time>2026-03-29T12:27:59.901Z</time></trkpt><trkpt lat="43.108267217898955" lon="12.221073391307602"><ele>445.8</ele><time>2026-03-29T12:28:01.901Z</time></trkpt><trkpt lat="43.10829229370974" lon="12.221221173192037"><ele>446.0</ele><time>2026-03-29T12:28:03.901Z</time></trkpt><trkpt lat="43.10830413004116" lon="12.221324896947552"><ele>445.99999999999994</ele><time>2026-03-29T12:28:04.901Z</time></trkpt><trkpt lat="43.108307481967486" lon="12.221439903231872"><ele>446.0</ele><time>2026-03-29T12:28:05.9Z</time></trkpt><trkpt lat="43.10830753292689" lon="12.221542973209557"><ele>446.0</ele><time>2026-03-29T12:28:06.9Z</time></trkpt><trkpt lat="43.108292645697915" lon="12.221655080505785"><ele>446.0</ele><time>2026-03-29T12:28:07.9Z</time></trkpt><trkpt lat="43.10827921981838" lon="12.221752613824036"><ele>445.99999999999994</ele><time>2026-03-29T12:28:08.9Z</time></trkpt><trkpt lat="43.10826075671017" lon="12.22184412722394"><ele>446.0</ele><time>2026-03-29T12:28:09.9Z</time></trkpt><trkpt lat="43.108258155230274" lon="12.222026726826412"><ele>444.49999999999994</ele><time>2026-03-29T12:28:11.9Z</time></trkpt><trkpt lat="43.10825612867579" lon="12.22212758232296"><ele>443.0</ele><time>2026-03-29T12:28:12.9Z</time></trkpt><trkpt lat="43.10825009684851" lon="12.22222122356375"><ele>441.5</ele><time>2026-03-29T12:28:13.9Z</time></trkpt><trkpt lat="43.10823001430628" lon="12.222335701937595"><ele>440.0</ele><time>2026-03-29T12:28:15.9Z</time></trkpt><trkpt lat="43.10822080797592" lon="12.222489863727704"><ele>438.49999999999994</ele><time>2026-03-29T12:28:17.9Z</time></trkpt><trkpt lat="43.10826096066999" lon="12.22257714452962"><ele>437.0</ele><time>2026-03-29T12:28:19.9Z</time></trkpt><trkpt lat="43.10830462520877" lon="12.222702979798681"><ele>435.20000000000005</ele><time>2026-03-29T12:28:21.9Z</time></trkpt><trkpt lat="43.10833234832887" lon="12.222869208868074"><ele>433.40000000000003</ele><time>2026-03-29T12:28:23.9Z</time></trkpt><trkpt lat="43.108342555976755" lon="12.222956012800504"><ele>431.59999999999997</ele><time>2026-03-29T12:28:24.9Z</time></trkpt><trkpt lat="43.10827974975696" lon="12.223025708984414"><ele>429.79999999999995</ele><time>2026-03-29T12:28:26.9Z</time></trkpt><trkpt lat="43.108241720986065" lon="12.22290267319307"><ele>428.0</ele><time>2026-03-29T12:28:29.9Z</time></trkpt><trkpt lat="43.108149809323464" lon="12.222866179753703"><ele>423.49999999999994</ele><time>2026-03-29T12:28:31.9Z</time></trkpt><trkpt lat="43.10807334139625" lon="12.222783422079525"><ele>419.0</ele><time>2026-03-29T12:28:33.9Z</time></trkpt><trkpt lat="43.10798098924491" lon="12.222705446082477"><ele>414.5</ele><time>2026-03-29T12:28:35.9Z</time></trkpt><trkpt lat="43.107911638809334" lon="12.222613600743442"><ele>410.0</ele><time>2026-03-29T12:28:37.9Z</time></trkpt><trkpt lat="43.10785409395624" lon="12.222564232049015"><ele>405.49999999999994</ele><time>2026-03-29T12:28:39.9Z</time></trkpt><trkpt lat="43.10782167084316" lon="12.222638880216417"><ele>401.0</ele><time>2026-03-29T12:28:43.902Z</time></trkpt><trkpt lat="43.10785333851909" lon="12.222804915766861"><ele>400.99999999999994</ele><time>2026-03-29T12:28:45.902Z</time></trkpt><trkpt lat="43.10788598659633" lon="12.222879953230889"><ele>401.0</ele><time>2026-03-29T12:28:46.902Z</time></trkpt><trkpt lat="43.107926599349874" lon="12.2229723903076"><ele>401.0</ele><time>2026-03-29T12:28:47.903Z</time></trkpt><trkpt lat="43.107973440370685" lon="12.223059242579637"><ele>401.0</ele><time>2026-03-29T12:28:48.902Z</time></trkpt><trkpt lat="43.10797723567334" lon="12.2231872043657"><ele>400.99999999999994</ele><time>2026-03-29T12:28:50.902Z</time></trkpt><trkpt lat="43.10794885169487" lon="12.223264999231986"><ele>401.0</ele><time>2026-03-29T12:28:51.903Z</time></trkpt><trkpt lat="43.107914343316494" lon="12.223377766392751"><ele>399.0</ele><time>2026-03-29T12:28:53.903Z</time></trkpt><trkpt lat="43.107912462731925" lon="12.223533786161164"><ele>397.0</ele><time>2026-03-29T12:28:55.902Z</time></trkpt><trkpt lat="43.10790408549621" lon="12.223638573852277"><ele>395.0</ele><time>2026-03-29T12:28:56.902Z</time></trkpt><trkpt lat="43.107868591070066" lon="12.223752623698324"><ele>393.0</ele><time>2026-03-29T12:28:57.902Z</time></trkpt><trkpt lat="43.107864835108735" lon="12.223865644020634"><ele>391.0</ele><time>2026-03-29T12:28:59.902Z</time></trkpt><trkpt lat="43.10791937980189" lon="12.224051449693585"><ele>390.6</ele><time>2026-03-29T12:29:01.902Z</time></trkpt><trkpt lat="43.10792562079102" lon="12.224189000405136"><ele>390.20000000000005</ele><time>2026-03-29T12:29:02.902Z</time></trkpt><trkpt lat="43.107944537610294" lon="12.22431112758475"><ele>389.79999999999995</ele><time>2026-03-29T12:29:03.902Z</time></trkpt><trkpt lat="43.10799726554526" lon="12.224416570677045"><ele>389.4</ele><time>2026-03-29T12:29:04.902Z</time></trkpt><trkpt lat="43.10805556336595" lon="12.224531993571329"><ele>389.0</ele><time>2026-03-29T12:29:05.902Z</time></trkpt><trkpt lat="43.10810172866019" lon="12.224617153722887"><ele>389.0</ele><time>2026-03-29T12:29:06.902Z</time></trkpt><trkpt lat="43.108134795514395" lon="12.2247018368856"><ele>389.0</ele><time>2026-03-29T12:29:07.902Z</time></trkpt><trkpt lat="43.108148791123874" lon="12.22483801423496"><ele>389.0</ele><time>2026-03-29T12:29:09.902Z</time></trkpt><trkpt lat="43.10797837756678" lon="12.224964068643514"><ele>389.0</ele><time>2026-03-29T12:29:14.902Z</time></trkpt><trkpt lat="43.107917726356" lon="12.225043925707547"><ele>389.0</ele><time>2026-03-29T12:29:15.902Z</time></trkpt><trkpt lat="43.107822263992816" lon="12.225122521063902"><ele>390.0</ele><time>2026-03-29T12:29:17.902Z</time></trkpt><trkpt lat="43.107804133830925" lon="12.22525181509228"><ele>391.0</ele><time>2026-03-29T12:29:19.902Z</time></trkpt><trkpt lat="43.10783526237055" lon="12.225409239214928"><ele>392.0</ele><time>2026-03-29T12:29:21.902Z</time></trkpt><trkpt lat="43.107961477134886" lon="12.225523669915281"><ele>393.0</ele><time>2026-03-29T12:29:23.902Z</time></trkpt><trkpt lat="43.10803303350743" lon="12.225583690270234"><ele>392.8333333333333</ele><time>2026-03-29T12:29:24.902Z</time></trkpt><trkpt lat="43.108096568478985" lon="12.225653616308255"><ele>392.66666666666663</ele><time>2026-03-29T12:29:25.902Z</time></trkpt><trkpt lat="43.108139110671004" lon="12.225723064394453"><ele>392.5</ele><time>2026-03-29T12:29:26.902Z</time></trkpt><trkpt lat="43.108179495963206" lon="12.22581883082758"><ele>392.3333333333333</ele><time>2026-03-29T12:29:27.902Z</time></trkpt><trkpt lat="43.10822865846957" lon="12.225918047601715"><ele>392.16666666666663</ele><time>2026-03-29T12:29:28.902Z</time></trkpt><trkpt lat="43.108267220147944" lon="12.226017228743752"><ele>392.0</ele><time>2026-03-29T12:29:29.902Z</time></trkpt><trkpt lat="43.10830229895923" lon="12.226120311857125"><ele>391.3333333333333</ele><time>2026-03-29T12:29:30.902Z</time></trkpt><trkpt lat="43.10832796250485" lon="12.226211502842286"><ele>390.66666666666663</ele><time>2026-03-29T12:29:31.902Z</time></trkpt><trkpt lat="43.108359293340314" lon="12.226307559094334"><ele>390.0</ele><time>2026-03-29T12:29:32.902Z</time></trkpt><trkpt lat="43.10838630406556" lon="12.226396138042045"><ele>389.33333333333337</ele><time>2026-03-29T12:29:33.902Z</time></trkpt><trkpt lat="43.10843577378443" lon="12.226550556654022"><ele>388.6666666666667</ele><time>2026-03-29T12:29:35.902Z</time></trkpt><trkpt lat="43.108458816556926" lon="12.226653390158289"><ele>388.0</ele><time>2026-03-29T12:29:36.902Z</time></trkpt><trkpt lat="43.1084778883388" lon="12.226744423125886"><ele>388.0</ele><time>2026-03-29T12:29:37.902Z</time></trkpt><trkpt lat="43.10850730202013" lon="12.226829838399293"><ele>388.0</ele><time>2026-03-29T12:29:38.902Z</time></trkpt><trkpt lat="43.10854450385725" lon="12.226908066137701"><ele>388.0</ele><time>2026-03-29T12:29:39.902Z</time></trkpt><trkpt lat="43.108579079782615" lon="12.226989996416625"><ele>388.0</ele><time>2026-03-29T12:29:40.902Z</time></trkpt><trkpt lat="43.10861950458133" lon="12.227076361914552"><ele>388.0</ele><time>2026-03-29T12:29:41.902Z</time></trkpt><trkpt lat="43.10866544950747" lon="12.227157971650843"><ele>388.0</ele><time>2026-03-29T12:29:42.902Z</time></trkpt><trkpt lat="43.108702417267224" lon="12.227230816943456"><ele>388.0</ele><time>2026-03-29T12:29:43.902Z</time></trkpt><trkpt lat="43.10873295564361" lon="12.227306514453543"><ele>388.0</ele><time>2026-03-29T12:29:44.902Z</time></trkpt><trkpt lat="43.10877668031909" lon="12.227382264750943"><ele>388.0</ele><time>2026-03-29T12:29:45.902Z</time></trkpt><trkpt lat="43.10882082545185" lon="12.227451649834984"><ele>388.0</ele><time>2026-03-29T12:29:46.902Z</time></trkpt><trkpt lat="43.1088757132755" lon="12.227504099317239"><ele>388.0</ele><time>2026-03-29T12:29:47.902Z</time></trkpt><trkpt lat="43.10894426179706" lon="12.227529480057656"><ele>388.0</ele><time>2026-03-29T12:29:48.902Z</time></trkpt><trkpt lat="43.1090087108252" lon="12.227551951395524"><ele>388.0</ele><time>2026-03-29T12:29:49.902Z</time></trkpt><trkpt lat="43.10907771695142" lon="12.227571313779857"><ele>388.0</ele><time>2026-03-29T12:29:50.902Z</time></trkpt><trkpt lat="43.109160440882356" lon="12.22766535994375"><ele>388.0</ele><time>2026-03-29T12:29:52.902Z</time></trkpt><trkpt lat="43.109202677378605" lon="12.227785908172565"><ele>388.0</ele><time>2026-03-29T12:29:54.902Z</time></trkpt><trkpt lat="43.10917367587066" lon="12.227999242526966"><ele>388.0</ele><time>2026-03-29T12:29:59.902Z</time></trkpt><trkpt lat="43.109139844340085" lon="12.228130147119586"><ele>388.0</ele><time>2026-03-29T12:30:00.902Z</time></trkpt><trkpt lat="43.10914964274757" lon="12.228323313589957"><ele>385.79999999999995</ele><time>2026-03-29T12:30:02.902Z</time></trkpt><trkpt lat="43.10915643497092" lon="12.228466973144686"><ele>383.6</ele><time>2026-03-29T12:30:03.902Z</time></trkpt><trkpt lat="43.10917376245174" lon="12.228590154213922"><ele>381.4</ele><time>2026-03-29T12:30:04.902Z</time></trkpt><trkpt lat="43.10920185704883" lon="12.228720151368742"><ele>379.20000000000005</ele><time>2026-03-29T12:30:05.902Z</time></trkpt><trkpt lat="43.10922971944799" lon="12.228849575458844"><ele>377.0</ele><time>2026-03-29T12:30:06.902Z</time></trkpt><trkpt lat="43.10922866799872" lon="12.228973022622858"><ele>376.1666666666667</ele><time>2026-03-29T12:30:07.902Z</time></trkpt><trkpt lat="43.10921630696246" lon="12.229084432380798"><ele>375.33333333333337</ele><time>2026-03-29T12:30:08.902Z</time></trkpt><trkpt lat="43.10919741822104" lon="12.229200478307012"><ele>374.5</ele><time>2026-03-29T12:30:09.902Z</time></trkpt><trkpt lat="43.10918832355302" lon="12.229309285243803"><ele>373.6666666666667</ele><time>2026-03-29T12:30:10.901Z</time></trkpt><trkpt lat="43.10916162142469" lon="12.229414435532272"><ele>372.8333333333333</ele><time>2026-03-29T12:30:11.901Z</time></trkpt><trkpt lat="43.109129735181554" lon="12.229523054670068"><ele>372.0</ele><time>2026-03-29T12:30:12.901Z</time></trkpt><trkpt lat="43.109109449437206" lon="12.22963663830074"><ele>372.0</ele><time>2026-03-29T12:30:13.901Z</time></trkpt><trkpt lat="43.10908311332107" lon="12.229761633442218"><ele>372.0</ele><time>2026-03-29T12:30:14.901Z</time></trkpt><trkpt lat="43.109024380674434" lon="12.22989629476558"><ele>372.0</ele><time>2026-03-29T12:30:15.901Z</time></trkpt><trkpt lat="43.108985303832505" lon="12.2299961001331"><ele>372.0</ele><time>2026-03-29T12:30:16.901Z</time></trkpt><trkpt lat="43.10895497486812" lon="12.230157933542175"><ele>372.0</ele><time>2026-03-29T12:30:18.901Z</time></trkpt><trkpt lat="43.10897007806731" lon="12.23025868765105"><ele>370.8333333333333</ele><time>2026-03-29T12:30:19.901Z</time></trkpt><trkpt lat="43.10897743516959" lon="12.23035911542632"><ele>369.6666666666667</ele><time>2026-03-29T12:30:20.901Z</time></trkpt><trkpt lat="43.108973766860814" lon="12.230481651030363"><ele>368.5</ele><time>2026-03-29T12:30:21.901Z</time></trkpt><trkpt lat="43.10896448268027" lon="12.230608814654884"><ele>367.33333333333337</ele><time>2026-03-29T12:30:22.901Z</time></trkpt><trkpt lat="43.10895587221239" lon="12.230715346202901"><ele>366.1666666666667</ele><time>2026-03-29T12:30:23.901Z</time></trkpt><trkpt lat="43.10892538528264" lon="12.230820548239809"><ele>365.0</ele><time>2026-03-29T12:30:24.901Z</time></trkpt><trkpt lat="43.108873535085024" lon="12.230942739123604"><ele>365.0</ele><time>2026-03-29T12:30:25.901Z</time></trkpt><trkpt lat="43.10881755325201" lon="12.231048887657863"><ele>365.0</ele><time>2026-03-29T12:30:26.901Z</time></trkpt><trkpt lat="43.10876499518991" lon="12.231151235689484"><ele>365.0</ele><time>2026-03-29T12:30:27.901Z</time></trkpt><trkpt lat="43.10873674744993" lon="12.231252668344275"><ele>365.0</ele><time>2026-03-29T12:30:28.901Z</time></trkpt><trkpt lat="43.1087096886293" lon="12.231354634546337"><ele>365.0</ele><time>2026-03-29T12:30:29.901Z</time></trkpt><trkpt lat="43.10868039627954" lon="12.231445600133702"><ele>365.0</ele><time>2026-03-29T12:30:30.901Z</time></trkpt><trkpt lat="43.108649844090586" lon="12.231557235700844"><ele>364.2</ele><time>2026-03-29T12:30:31.901Z</time></trkpt><trkpt lat="43.10861750062612" lon="12.231657824553634"><ele>363.4</ele><time>2026-03-29T12:30:32.901Z</time></trkpt><trkpt lat="43.10858561395124" lon="12.23173572135884"><ele>362.6</ele><time>2026-03-29T12:30:33.901Z</time></trkpt><trkpt lat="43.10854784212873" lon="12.231828680526824"><ele>361.8</ele><time>2026-03-29T12:30:34.901Z</time></trkpt><trkpt lat="43.10848788656434" lon="12.23194009549465"><ele>361.0</ele><time>2026-03-29T12:30:36.901Z</time></trkpt><trkpt lat="43.10836827553105" lon="12.23199188764069"><ele>361.0</ele><time>2026-03-29T12:30:38.901Z</time></trkpt><trkpt lat="43.108291017406486" lon="12.231990290826984"><ele>361.0</ele><time>2026-03-29T12:30:39.901Z</time></trkpt><trkpt lat="43.10821728126689" lon="12.232014901631986"><ele>361.0</ele><time>2026-03-29T12:30:40.901Z</time></trkpt><trkpt lat="43.108140778778214" lon="12.232037099752985"><ele>361.0</ele><time>2026-03-29T12:30:41.901Z</time></trkpt><trkpt lat="43.10806526019116" lon="12.232057567855"><ele>361.0</ele><time>2026-03-29T12:30:42.901Z</time></trkpt><trkpt lat="43.10798924718778" lon="12.232078632117977"><ele>361.0</ele><time>2026-03-29T12:30:43.901Z</time></trkpt><trkpt lat="43.10791910210335" lon="12.232122724715916"><ele>358.8333333333333</ele><time>2026-03-29T12:30:44.901Z</time></trkpt><trkpt lat="43.10785241673696" lon="12.232175896558589"><ele>356.66666666666663</ele><time>2026-03-29T12:30:45.901Z</time></trkpt><trkpt lat="43.10778467751561" lon="12.232214531056982"><ele>354.5</ele><time>2026-03-29T12:30:46.901Z</time></trkpt><trkpt lat="43.10770851681027" lon="12.232248215946447"><ele>352.3333333333333</ele><time>2026-03-29T12:30:48Z</time></trkpt><trkpt lat="43.10764261565393" lon="12.232287614822278"><ele>350.1666666666667</ele><time>2026-03-29T12:30:49Z</time></trkpt><trkpt lat="43.107582280122145" lon="12.232347191743612"><ele>348.0</ele><time>2026-03-29T12:30:50Z</time></trkpt><trkpt lat="43.10752340767026" lon="12.232410765721253"><ele>347.4</ele><time>2026-03-29T12:30:51Z</time></trkpt><trkpt lat="43.10747276065277" lon="12.232473200778239"><ele>346.79999999999995</ele><time>2026-03-29T12:30:52Z</time></trkpt><trkpt lat="43.10743966625587" lon="12.232622009826724"><ele>346.2</ele><time>2026-03-29T12:30:54Z</time></trkpt><trkpt lat="43.10741670551253" lon="12.232778445177136"><ele>345.6</ele><time>2026-03-29T12:30:56Z</time></trkpt><trkpt lat="43.107399857877525" lon="12.232879161511182"><ele>345.0</ele><time>2026-03-29T12:30:57Z</time></trkpt><trkpt lat="43.10736482356183" lon="12.232991970618434"><ele>344.6666666666667</ele><time>2026-03-29T12:30:58Z</time></trkpt><trkpt lat="43.10734159280762" lon="12.23310382042344"><ele>344.3333333333333</ele><time>2026-03-29T12:30:59Z</time></trkpt><trkpt lat="43.10732722991462" lon="12.23320971311583"><ele>344.0</ele><time>2026-03-29T12:31:00Z</time></trkpt><trkpt lat="43.10731288181052" lon="12.233322470463524"><ele>343.66666666666663</ele><time>2026-03-29T12:31:01.001Z</time></trkpt><trkpt lat="43.1072774481028" lon="12.233424415310415"><ele>343.3333333333333</ele><time>2026-03-29T12:31:02.001Z</time></trkpt><trkpt lat="43.10720892170032" lon="12.233500536904627"><ele>343.0</ele><time>2026-03-29T12:31:03.001Z</time></trkpt><trkpt lat="43.107096844672874" lon="12.233600025292734"><ele>342.75</ele><time>2026-03-29T12:31:05.001Z</time></trkpt><trkpt lat="43.107149809728384" lon="12.233656939647407"><ele>342.5</ele><time>2026-03-29T12:31:09.001Z</time></trkpt><trkpt lat="43.10729799922338" lon="12.233852938103027"><ele>342.25</ele><time>2026-03-29T12:31:19.001Z</time></trkpt><trkpt lat="43.10722540285112" lon="12.234005796388105"><ele>342.0</ele><time>2026-03-29T12:31:20.001Z</time></trkpt><trkpt lat="43.107151312008085" lon="12.234128949294332"><ele>338.20000000000005</ele><time>2026-03-29T12:31:21.001Z</time></trkpt><trkpt lat="43.10707595744441" lon="12.234224106244092"><ele>334.4</ele><time>2026-03-29T12:31:23.001Z</time></trkpt><trkpt lat="43.107007976862114" lon="12.234223804458777"><ele>330.6</ele><time>2026-03-29T12:31:24.001Z</time></trkpt><trkpt lat="43.10692172779307" lon="12.234228065921144"><ele>326.79999999999995</ele><time>2026-03-29T12:31:25.001Z</time></trkpt><trkpt lat="43.1068281652923" lon="12.23426216048376"><ele>323.0</ele><time>2026-03-29T12:31:26.001Z</time></trkpt><trkpt lat="43.10671354901369" lon="12.23430905780869"><ele>323.0</ele><time>2026-03-29T12:31:27.001Z</time></trkpt><trkpt lat="43.106648484953574" lon="12.234364308490724"><ele>323.0</ele><time>2026-03-29T12:31:28.001Z</time></trkpt><trkpt lat="43.10673367957279" lon="12.234510188374033"><ele>323.0</ele><time>2026-03-29T12:31:34.001Z</time></trkpt><trkpt lat="43.10685211986818" lon="12.23457399816359"><ele>323.0</ele><time>2026-03-29T12:31:35.001Z</time></trkpt><trkpt lat="43.10698370112028" lon="12.234651748882934"><ele>323.0</ele><time>2026-03-29T12:31:36.001Z</time></trkpt><trkpt lat="43.107100146734275" lon="12.234745574663723"><ele>323.0</ele><time>2026-03-29T12:31:37.001Z</time></trkpt><trkpt lat="43.10720368195799" lon="12.234843288797451"><ele>323.0</ele><time>2026-03-29T12:31:38.001Z</time></trkpt><trkpt lat="43.10727163601534" lon="12.234954067338416"><ele>323.0</ele><time>2026-03-29T12:31:39.001Z</time></trkpt><trkpt lat="43.10734501076046" lon="12.235063442224602"><ele>320.33333333333337</ele><time>2026-03-29T12:31:40.001Z</time></trkpt><trkpt lat="43.10741580784093" lon="12.235164135194177"><ele>317.6666666666667</ele><time>2026-03-29T12:31:41.001Z</time></trkpt><trkpt lat="43.1074815493732" lon="12.235241150767235"><ele>315.0</ele><time>2026-03-29T12:31:42.001Z</time></trkpt><trkpt lat="43.10754141494643" lon="12.235288871420378"><ele>312.3333333333333</ele><time>2026-03-29T12:31:43.001Z</time></trkpt><trkpt lat="43.10761271233642" lon="12.23534902914079"><ele>309.66666666666663</ele><time>2026-03-29T12:31:45.001Z</time></trkpt><trkpt lat="43.107699543269305" lon="12.2353110560304"><ele>307.0</ele><time>2026-03-29T12:31:48.001Z</time></trkpt><trkpt lat="43.10774689412244" lon="12.23522712171528"><ele>307.0</ele><time>2026-03-29T12:31:50.001Z</time></trkpt><trkpt lat="43.10778785011394" lon="12.235159680292423"><ele>307.0</ele><time>2026-03-29T12:31:51.001Z</time></trkpt><trkpt lat="43.10784711343291" lon="12.235005904493018"><ele>307.0</ele><time>2026-03-29T12:31:53.001Z</time></trkpt><trkpt lat="43.10787301517789" lon="12.234844516020287"><ele>307.0</ele><time>2026-03-29T12:31:54.001Z</time></trkpt><trkpt lat="43.10789736524031" lon="12.234662874788798"><ele>307.0</ele><time>2026-03-29T12:31:55.001Z</time></trkpt><trkpt lat="43.10791358907421" lon="12.234513325573925"><ele>307.4</ele><time>2026-03-29T12:31:56.001Z</time></trkpt><trkpt lat="43.10791870467771" lon="12.23442064803835"><ele>307.79999999999995</ele><time>2026-03-29T12:31:57.001Z</time></trkpt><trkpt lat="43.10804544687151" lon="12.234443037652037"><ele>308.2</ele><time>2026-03-29T12:32:01.001Z</time></trkpt><trkpt lat="43.10812937072064" lon="12.234423020083137"><ele>308.59999999999997</ele><time>2026-03-29T12:32:05.001Z</time></trkpt><trkpt lat="43.10826466700844" lon="12.234375839431259"><ele>309.0</ele><time>2026-03-29T12:32:09.001Z</time></trkpt><trkpt lat="43.10830769193378" lon="12.23429873520946"><ele>309.0</ele><time>2026-03-29T12:32:11.001Z</time></trkpt><trkpt lat="43.108375509978465" lon="12.234260344906145"><ele>309.0</ele><time>2026-03-29T12:32:13.001Z</time></trkpt><trkpt lat="43.108520302249445" lon="12.23430662098555"><ele>309.0</ele><time>2026-03-29T12:32:15.001Z</time></trkpt><trkpt lat="43.10858992500693" lon="12.234313574199444"><ele>309.0</ele><time>2026-03-29T12:32:16.001Z</time></trkpt><trkpt lat="43.1086622086434" lon="12.234349549047149"><ele>309.0</ele><time>2026-03-29T12:32:17.001Z</time></trkpt><trkpt lat="43.108792971002174" lon="12.234404472537978"><ele>309.0</ele><time>2026-03-29T12:32:19.001Z</time></trkpt><trkpt lat="43.10900787270357" lon="12.23440943610343"><ele>309.0</ele><time>2026-03-29T12:32:22.001Z</time></trkpt><trkpt lat="43.10912250715" lon="12.234421586157007"><ele>309.0</ele><time>2026-03-29T12:32:23.001Z</time></trkpt><trkpt lat="43.10921123941338" lon="12.234464758881217"><ele>309.0</ele><time>2026-03-29T12:32:24.001Z</time></trkpt><trkpt lat="43.10931546105989" lon="12.234519231552795"><ele>308.5</ele><time>2026-03-29T12:32:25.001Z</time></trkpt><trkpt lat="43.109379402188544" lon="12.234527352405705"><ele>308.0</ele><time>2026-03-29T12:32:26.001Z</time></trkpt><trkpt lat="43.10948550016113" lon="12.234528283425304"><ele>307.5</ele><time>2026-03-29T12:32:27.001Z</time></trkpt><trkpt lat="43.109571400826816" lon="12.23455143271779"><ele>307.0</ele><time>2026-03-29T12:32:28.001Z</time></trkpt><trkpt lat="43.10964477481076" lon="12.2345644317717"><ele>306.5</ele><time>2026-03-29T12:32:29.001Z</time></trkpt><trkpt lat="43.109730952556596" lon="12.234561125072236"><ele>306.0</ele><time>2026-03-29T12:32:30.001Z</time></trkpt><trkpt lat="43.109788353873455" lon="12.234497184711783"><ele>306.0</ele><time>2026-03-29T12:32:31.001Z</time></trkpt><trkpt lat="43.10986732314661" lon="12.234442397280139"><ele>306.0</ele><time>2026-03-29T12:32:32.001Z</time></trkpt><trkpt lat="43.109987096101655" lon="12.234305907097085"><ele>306.0</ele><time>2026-03-29T12:32:34.001Z</time></trkpt><trkpt lat="43.1100535124098" lon="12.234234636191124"><ele>306.0</ele><time>2026-03-29T12:32:35.001Z</time></trkpt><trkpt lat="43.110105064573276" lon="12.23415297062778"><ele>306.0</ele><time>2026-03-29T12:32:36.001Z</time></trkpt><trkpt lat="43.11014267076872" lon="12.234078461666934"><ele>304.5</ele><time>2026-03-29T12:32:37.001Z</time></trkpt><trkpt lat="43.11018242600578" lon="12.234011424540501"><ele>303.0</ele><time>2026-03-29T12:32:38.001Z</time></trkpt><trkpt lat="43.110263799749504" lon="12.233912622580691"><ele>301.5</ele><time>2026-03-29T12:32:40.002Z</time></trkpt><trkpt lat="43.1103436082545" lon="12.233942603808826"><ele>300.0</ele><time>2026-03-29T12:32:42.002Z</time></trkpt><trkpt lat="43.11037172634466" lon="12.234221370212444"><ele>296.25</ele><time>2026-03-29T12:32:49.002Z</time></trkpt><trkpt lat="43.11034552374001" lon="12.234402599842465"><ele>292.5</ele><time>2026-03-29T12:32:50.002Z</time></trkpt><trkpt lat="43.11031943206323" lon="12.234640897199256"><ele>288.75</ele><time>2026-03-29T12:32:51.002Z</time></trkpt><trkpt lat="43.110303036934525" lon="12.234815369849125"><ele>285.0</ele><time>2026-03-29T12:32:52.002Z</time></trkpt><trkpt lat="43.11026889385616" lon="12.234968176791387"><ele>282.8333333333333</ele><time>2026-03-29T12:32:53.002Z</time></trkpt><trkpt lat="43.11027468666506" lon="12.235091789782633"><ele>280.6666666666667</ele><time>2026-03-29T12:32:54.004Z</time></trkpt><trkpt lat="43.110288699759245" lon="12.23520508064911"><ele>278.5</ele><time>2026-03-29T12:32:55.004Z</time></trkpt><trkpt lat="43.11031081617336" lon="12.235326126260663"><ele>276.33333333333337</ele><time>2026-03-29T12:32:56.003Z</time></trkpt><trkpt lat="43.11032219261102" lon="12.235428891916692"><ele>274.1666666666667</ele><time>2026-03-29T12:32:57.004Z</time></trkpt><trkpt lat="43.110317657230766" lon="12.235518215201258"><ele>272.0</ele><time>2026-03-29T12:32:58.003Z</time></trkpt><trkpt lat="43.11029494744425" lon="12.235622078743917"><ele>271.0</ele><time>2026-03-29T12:32:59.003Z</time></trkpt><trkpt lat="43.110275847813256" lon="12.235739515268213"><ele>270.0</ele><time>2026-03-29T12:33:00.003Z</time></trkpt><trkpt lat="43.1102814050004" lon="12.235870826776496"><ele>269.0</ele><time>2026-03-29T12:33:01.003Z</time></trkpt><trkpt lat="43.11031405299377" lon="12.235996569251014"><ele>268.0</ele><time>2026-03-29T12:33:02.003Z</time></trkpt><trkpt lat="43.11035633333115" lon="12.23610085309506"><ele>267.0</ele><time>2026-03-29T12:33:03.003Z</time></trkpt><trkpt lat="43.11041703890661" lon="12.236199024042843"><ele>267.0</ele><time>2026-03-29T12:33:04.003Z</time></trkpt><trkpt lat="43.11046973767417" lon="12.236256868994381"><ele>267.0</ele><time>2026-03-29T12:33:05.003Z</time></trkpt><trkpt lat="43.11056346164148" lon="12.236344212913904"><ele>267.0</ele><time>2026-03-29T12:33:07.003Z</time></trkpt><trkpt lat="43.11063762793088" lon="12.236390691320375"><ele>267.0</ele><time>2026-03-29T12:33:08.002Z</time></trkpt><trkpt lat="43.11072878214151" lon="12.236433056121115"><ele>267.0</ele><time>2026-03-29T12:33:10.002Z</time></trkpt><trkpt lat="43.110799700500976" lon="12.236582784498658"><ele>262.8</ele><time>2026-03-29T12:33:13.002Z</time></trkpt><trkpt lat="43.11082935810052" lon="12.23669296634028"><ele>258.6</ele><time>2026-03-29T12:33:14.002Z</time></trkpt><trkpt lat="43.11083595032963" lon="12.236782937799635"><ele>254.40000000000003</ele><time>2026-03-29T12:33:15.002Z</time></trkpt><trkpt lat="43.11082583111151" lon="12.236879843897935"><ele>250.20000000000002</ele><time>2026-03-29T12:33:16.002Z</time></trkpt><trkpt lat="43.11078013566573" lon="12.237052542526879"><ele>246.0</ele><time>2026-03-29T12:33:18.002Z</time></trkpt><trkpt lat="43.11074374601317" lon="12.237188799484708"><ele>246.0</ele><time>2026-03-29T12:33:20.002Z</time></trkpt><trkpt lat="43.11080147452762" lon="12.237284737308755"><ele>246.00000000000003</ele><time>2026-03-29T12:33:22.002Z</time></trkpt><trkpt lat="43.11085132339842" lon="12.237363998696456"><ele>246.00000000000003</ele><time>2026-03-29T12:33:23.002Z</time></trkpt><trkpt lat="43.110892741124" lon="12.237495139798263"><ele>246.0</ele><time>2026-03-29T12:33:24.001Z</time></trkpt><trkpt lat="43.110935936490826" lon="12.237662863541104"><ele>246.0</ele><time>2026-03-29T12:33:25.001Z</time></trkpt><trkpt lat="43.110993710093354" lon="12.23785291010942"><ele>246.0</ele><time>2026-03-29T12:33:26.001Z</time></trkpt><trkpt lat="43.111050548054436" lon="12.238030485199184"><ele>246.00000000000003</ele><time>2026-03-29T12:33:27.001Z</time></trkpt><trkpt lat="43.11109003442302" lon="12.238157493531443"><ele>246.00000000000003</ele><time>2026-03-29T12:33:28.001Z</time></trkpt><trkpt lat="43.11111901907541" lon="12.238237795496405"><ele>246.0</ele><time>2026-03-29T12:33:29.001Z</time></trkpt><trkpt lat="43.11111126943263" lon="12.238324188558853"><ele>246.0</ele><time>2026-03-29T12:33:31.001Z</time></trkpt><trkpt lat="43.11104842702653" lon="12.2384277166856"><ele>246.20000000000002</ele><time>2026-03-29T12:33:34.001Z</time></trkpt><trkpt lat="43.110965965079195" lon="12.238549593302873"><ele>246.40000000000003</ele><time>2026-03-29T12:33:36.001Z</time></trkpt><trkpt lat="43.11093698536745" lon="12.238665178015868"><ele>246.6</ele><time>2026-03-29T12:33:37.001Z</time></trkpt><trkpt lat="43.110911990742856" lon="12.238804381886265"><ele>246.8</ele><time>2026-03-29T12:33:38.001Z</time></trkpt><trkpt lat="43.110894800894194" lon="12.238970041886082"><ele>247.0</ele><time>2026-03-29T12:33:39.001Z</time></trkpt><trkpt lat="43.11090120225086" lon="12.239131281136657"><ele>246.5</ele><time>2026-03-29T12:33:40.001Z</time></trkpt><trkpt lat="43.11093173231046" lon="12.23929439870336"><ele>246.0</ele><time>2026-03-29T12:33:41.001Z</time></trkpt><trkpt lat="43.11095265727758" lon="12.23945920653246"><ele>245.5</ele><time>2026-03-29T12:33:42.001Z</time></trkpt><trkpt lat="43.1109630274758" lon="12.239636686064351"><ele>245.0</ele><time>2026-03-29T12:33:43.001Z</time></trkpt><trkpt lat="43.11095067051494" lon="12.239827204095732"><ele>244.25</ele><time>2026-03-29T12:33:44.001Z</time></trkpt><trkpt lat="43.110924152282784" lon="12.24002470218696"><ele>243.5</ele><time>2026-03-29T12:33:45.001Z</time></trkpt><trkpt lat="43.110927792270175" lon="12.24020515454928"><ele>242.75</ele><time>2026-03-29T12:33:46.001Z</time></trkpt><trkpt lat="43.11094615273777" lon="12.24039442426473"><ele>242.0</ele><time>2026-03-29T12:33:47.001Z</time></trkpt><trkpt lat="43.11098352736325" lon="12.240573369152617"><ele>241.0</ele><time>2026-03-29T12:33:48.001Z</time></trkpt><trkpt lat="43.111014341047316" lon="12.240747633983865"><ele>240.0</ele><time>2026-03-29T12:33:49.001Z</time></trkpt><trkpt lat="43.111041510294854" lon="12.240942655236312"><ele>239.0</ele><time>2026-03-29T12:33:50.001Z</time></trkpt><trkpt lat="43.111069151320734" lon="12.241136843169734"><ele>238.0</ele><time>2026-03-29T12:33:51.001Z</time></trkpt><trkpt lat="43.1110931672996" lon="12.241335791013537"><ele>237.5</ele><time>2026-03-29T12:33:52.001Z</time></trkpt><trkpt lat="43.11110863431154" lon="12.24153425368688"><ele>237.0</ele><time>2026-03-29T12:33:53.001Z</time></trkpt><trkpt lat="43.1111141346846" lon="12.241717224022945"><ele>236.5</ele><time>2026-03-29T12:33:54.001Z</time></trkpt><trkpt lat="43.11111665496396" lon="12.241888615589707"><ele>236.0</ele><time>2026-03-29T12:33:55.001Z</time></trkpt><trkpt lat="43.1111177106148" lon="12.242026166909069"><ele>236.00000000000003</ele><time>2026-03-29T12:33:56.001Z</time></trkpt><trkpt lat="43.11112835329568" lon="12.242125505743992"><ele>236.0</ele><time>2026-03-29T12:33:57.001Z</time></trkpt><trkpt lat="43.111147323928456" lon="12.242210094409526"><ele>236.0</ele><time>2026-03-29T12:33:59.001Z</time></trkpt><trkpt lat="43.111238046265356" lon="12.242211730094576"><ele>236.0</ele><time>2026-03-29T12:34:02.001Z</time></trkpt><trkpt lat="43.111310873059765" lon="12.242174395117662"><ele>236.00000000000003</ele><time>2026-03-29T12:34:03.001Z</time></trkpt><trkpt lat="43.11140645873546" lon="12.242118849669634"><ele>236.0</ele><time>2026-03-29T12:34:04.001Z</time></trkpt><trkpt lat="43.11153155048651" lon="12.242033412829855"><ele>233.0</ele><time>2026-03-29T12:34:05.001Z</time></trkpt><trkpt lat="43.111669916937906" lon="12.241939080891777"><ele>230.0</ele><time>2026-03-29T12:34:06.001Z</time></trkpt><trkpt lat="43.11184496686749" lon="12.241818118565657"><ele>227.0</ele><time>2026-03-29T12:34:07.001Z</time></trkpt><trkpt lat="43.11202329665201" lon="12.24169758122943"><ele>227.0</ele><time>2026-03-29T12:34:08.001Z</time></trkpt><trkpt lat="43.11221406599618" lon="12.241562816697824"><ele>227.0</ele><time>2026-03-29T12:34:09.001Z</time></trkpt><trkpt lat="43.11241586829802" lon="12.241423741063286"><ele>227.0</ele><time>2026-03-29T12:34:10.001Z</time></trkpt><trkpt lat="43.11263375811768" lon="12.24126485065283"><ele>229.0</ele><time>2026-03-29T12:34:11.001Z</time></trkpt><trkpt lat="43.11286269603447" lon="12.241103023084532"><ele>231.0</ele><time>2026-03-29T12:34:12.001Z</time></trkpt><trkpt lat="43.11310309984769" lon="12.24092415733705"><ele>230.0</ele><time>2026-03-29T12:34:13.001Z</time></trkpt><trkpt lat="43.113346326689445" lon="12.24074082710952"><ele>229.0</ele><time>2026-03-29T12:34:14.001Z</time></trkpt><trkpt lat="43.11359874503343" lon="12.240546355305574"><ele>228.5</ele><time>2026-03-29T12:34:15.001Z</time></trkpt><trkpt lat="43.11384197592721" lon="12.24035194645398"><ele>228.0</ele><time>2026-03-29T12:34:16.001Z</time></trkpt><trkpt lat="43.114059357274684" lon="12.240182204065627"><ele>228.66666666666669</ele><time>2026-03-29T12:34:17.001Z</time></trkpt><trkpt lat="43.114255808816786" lon="12.240027111592736"><ele>229.33333333333334</ele><time>2026-03-29T12:34:18.001Z</time></trkpt><trkpt lat="43.11443652064359" lon="12.239887684703806"><ele>230.0</ele><time>2026-03-29T12:34:19.001Z</time></trkpt><trkpt lat="43.11460379479922" lon="12.239761505419867"><ele>233.0</ele><time>2026-03-29T12:34:20.001Z</time></trkpt><trkpt lat="43.11475591247221" lon="12.239645801492713"><ele>236.0</ele><time>2026-03-29T12:34:21.001Z</time></trkpt><trkpt lat="43.11490635407757" lon="12.239565415285282"><ele>239.0</ele><time>2026-03-29T12:34:22.001Z</time></trkpt><trkpt lat="43.11504841282291" lon="12.239546389310345"><ele>240.66666666666669</ele><time>2026-03-29T12:34:23.001Z</time></trkpt><trkpt lat="43.115188255487695" lon="12.239562971145427"><ele>242.33333333333331</ele><time>2026-03-29T12:34:24.001Z</time></trkpt><trkpt lat="43.11533351273154" lon="12.239602790835322"><ele>244.0</ele><time>2026-03-29T12:34:25.001Z</time></trkpt><trkpt lat="43.115495150281326" lon="12.239643482830324"><ele>244.0</ele><time>2026-03-29T12:34:26.001Z</time></trkpt><trkpt lat="43.11563912959634" lon="12.239676848433081"><ele>244.0</ele><time>2026-03-29T12:34:27.001Z</time></trkpt><trkpt lat="43.115765246297116" lon="12.239704763185827"><ele>244.0</ele><time>2026-03-29T12:34:28.001Z</time></trkpt><trkpt lat="43.11586721718294" lon="12.239740495628265"><ele>244.0</ele><time>2026-03-29T12:34:29.001Z</time></trkpt><trkpt lat="43.11595784653064" lon="12.239778647729723"><ele>241.79999999999998</ele><time>2026-03-29T12:34:30.001Z</time></trkpt><trkpt lat="43.116049794534156" lon="12.239830256011423"><ele>239.59999999999997</ele><time>2026-03-29T12:34:31.001Z</time></trkpt><trkpt lat="43.116146734254535" lon="12.2398869083376"><ele>237.4</ele><time>2026-03-29T12:34:32.001Z</time></trkpt><trkpt lat="43.116246051610545" lon="12.239956485496098"><ele>235.2</ele><time>2026-03-29T12:34:33.001Z</time></trkpt><trkpt lat="43.11633467516631" lon="12.240033776413823"><ele>233.0</ele><time>2026-03-29T12:34:34.001Z</time></trkpt><trkpt lat="43.116417757894354" lon="12.24010405277413"><ele>233.0</ele><time>2026-03-29T12:34:35.001Z</time></trkpt><trkpt lat="43.116480210705724" lon="12.240173720573699"><ele>233.0</ele><time>2026-03-29T12:34:36.001Z</time></trkpt><trkpt lat="43.116531782740374" lon="12.240268926590137"><ele>233.0</ele><time>2026-03-29T12:34:37.001Z</time></trkpt><trkpt lat="43.116574965061815" lon="12.240362932403702"><ele>233.0</ele><time>2026-03-29T12:34:38.001Z</time></trkpt><trkpt lat="43.116639467975425" lon="12.240478867187445"><ele>233.0</ele><time>2026-03-29T12:34:39.001Z</time></trkpt><trkpt lat="43.1167241832957" lon="12.240577303545695"><ele>232.0</ele><time>2026-03-29T12:34:40.001Z</time></trkpt><trkpt lat="43.11679268258703" lon="12.240652112657779"><ele>231.0</ele><time>2026-03-29T12:34:41.001Z</time></trkpt><trkpt lat="43.116842876196614" lon="12.240756785227546"><ele>230.0</ele><time>2026-03-29T12:34:42.001Z</time></trkpt><trkpt lat="43.116882495249655" lon="12.2408771309467"><ele>229.0</ele><time>2026-03-29T12:34:43.001Z</time></trkpt><trkpt lat="43.116924647917514" lon="12.241012532311625"><ele>228.0</ele><time>2026-03-29T12:34:44.001Z</time></trkpt><trkpt lat="43.11696225666197" lon="12.241140879784753"><ele>228.0</ele><time>2026-03-29T12:34:45.001Z</time></trkpt><trkpt lat="43.11698011773054" lon="12.241247605609459"><ele>228.0</ele><time>2026-03-29T12:34:46.001Z</time></trkpt><trkpt lat="43.11698650076086" lon="12.241342397702518"><ele>228.0</ele><time>2026-03-29T12:34:47.001Z</time></trkpt><trkpt lat="43.116967916730616" lon="12.241473296961063"><ele>228.0</ele><time>2026-03-29T12:34:49.001Z</time></trkpt><trkpt lat="43.1169442791583" lon="12.241567151212031"><ele>228.0</ele><time>2026-03-29T12:34:50.001Z</time></trkpt><trkpt lat="43.116920703205736" lon="12.241670841813102"><ele>228.0</ele><time>2026-03-29T12:34:51.001Z</time></trkpt><trkpt lat="43.11690715754905" lon="12.241757431382892"><ele>228.0</ele><time>2026-03-29T12:34:52.001Z</time></trkpt><trkpt lat="43.11690177829144" lon="12.241900370828992"><ele>228.0</ele><time>2026-03-29T12:34:53.001Z</time></trkpt><trkpt lat="43.11692439268832" lon="12.24203403214366"><ele>228.0</ele><time>2026-03-29T12:34:54.001Z</time></trkpt><trkpt lat="43.116961138983676" lon="12.242152578556354"><ele>228.0</ele><time>2026-03-29T12:34:55.001Z</time></trkpt><trkpt lat="43.11699956972076" lon="12.242273101840516"><ele>228.0</ele><time>2026-03-29T12:34:56.001Z</time></trkpt><trkpt lat="43.11704473751141" lon="12.242405534415203"><ele>228.16666666666666</ele><time>2026-03-29T12:34:57.001Z</time></trkpt><trkpt lat="43.11707977870791" lon="12.242534018066424"><ele>228.33333333333331</ele><time>2026-03-29T12:34:58.001Z</time></trkpt><trkpt lat="43.117109561854235" lon="12.242670480845371"><ele>228.5</ele><time>2026-03-29T12:34:59.001Z</time></trkpt><trkpt lat="43.11713187688996" lon="12.242767532861311"><ele>228.66666666666666</ele><time>2026-03-29T12:35:00.003Z</time></trkpt><trkpt lat="43.11720992017347" lon="12.242835560707702"><ele>228.83333333333331</ele><time>2026-03-29T12:35:02.003Z</time></trkpt><trkpt lat="43.117284670551804" lon="12.24284184200092"><ele>229.0</ele><time>2026-03-29T12:35:06.003Z</time></trkpt><trkpt lat="43.11734144208319" lon="12.24290221484055"><ele>229.33333333333331</ele><time>2026-03-29T12:35:07.002Z</time></trkpt><trkpt lat="43.11740469586373" lon="12.242949191061204"><ele>229.66666666666666</ele><time>2026-03-29T12:35:08.002Z</time></trkpt><trkpt lat="43.11748507580672" lon="12.242983270808839"><ele>230.0</ele><time>2026-03-29T12:35:09.003Z</time></trkpt><trkpt lat="43.11755651402664" lon="12.243016457671127"><ele>230.33333333333331</ele><time>2026-03-29T12:35:10.002Z</time></trkpt><trkpt lat="43.11763320004903" lon="12.243102635513102"><ele>230.66666666666666</ele><time>2026-03-29T12:35:12.002Z</time></trkpt><trkpt lat="43.11770238076572" lon="12.243227473754063"><ele>231.0</ele><time>2026-03-29T12:35:13.002Z</time></trkpt><trkpt lat="43.11778895910712" lon="12.243361352987296"><ele>231.16666666666666</ele><time>2026-03-29T12:35:14.002Z</time></trkpt><trkpt lat="43.11784592082858" lon="12.243473044105897"><ele>231.33333333333331</ele><time>2026-03-29T12:35:15.002Z</time></trkpt><trkpt lat="43.11788894286322" lon="12.243562779329187"><ele>231.5</ele><time>2026-03-29T12:35:16.002Z</time></trkpt><trkpt lat="43.11790945063096" lon="12.243649287792735"><ele>231.66666666666666</ele><time>2026-03-29T12:35:17.002Z</time></trkpt><trkpt lat="43.11789657821442" lon="12.243793974635263"><ele>231.83333333333331</ele><time>2026-03-29T12:35:19.002Z</time></trkpt><trkpt lat="43.11790787132215" lon="12.243893471498177"><ele>232.0</ele><time>2026-03-29T12:35:20.001Z</time></trkpt><trkpt lat="43.117925005870816" lon="12.243999492860027"><ele>231.6</ele><time>2026-03-29T12:35:21.001Z</time></trkpt><trkpt lat="43.11794325292963" lon="12.244130764127767"><ele>231.2</ele><time>2026-03-29T12:35:22.001Z</time></trkpt><trkpt lat="43.117962341378686" lon="12.244251315335518"><ele>230.8</ele><time>2026-03-29T12:35:23.001Z</time></trkpt><trkpt lat="43.117982763208346" lon="12.244380176698076"><ele>230.4</ele><time>2026-03-29T12:35:24.001Z</time></trkpt><trkpt lat="43.1180005423364" lon="12.244486523655771"><ele>230.0</ele><time>2026-03-29T12:35:25.001Z</time></trkpt><trkpt lat="43.11802547467649" lon="12.244601215493926"><ele>230.00000000000003</ele><time>2026-03-29T12:35:26.001Z</time></trkpt><trkpt lat="43.1180437677719" lon="12.244698261151958"><ele>230.0</ele><time>2026-03-29T12:35:27.001Z</time></trkpt><trkpt lat="43.11806350310776" lon="12.244793314525513"><ele>230.0</ele><time>2026-03-29T12:35:28.001Z</time></trkpt><trkpt lat="43.118082923742094" lon="12.244878997943397"><ele>230.0</ele><time>2026-03-29T12:35:29.001Z</time></trkpt><trkpt lat="43.11810725331546" lon="12.244999411125633"><ele>230.00000000000003</ele><time>2026-03-29T12:35:30.001Z</time></trkpt><trkpt lat="43.11812015351972" lon="12.245119863522124"><ele>230.0</ele><time>2026-03-29T12:35:31.001Z</time></trkpt><trkpt lat="43.11814580645534" lon="12.2452252604751"><ele>229.8</ele><time>2026-03-29T12:35:32.001Z</time></trkpt><trkpt lat="43.11815615480399" lon="12.245330060202106"><ele>229.6</ele><time>2026-03-29T12:35:33.001Z</time></trkpt><trkpt lat="43.118167735148006" lon="12.245440974498903"><ele>229.39999999999998</ele><time>2026-03-29T12:35:34.001Z</time></trkpt><trkpt lat="43.11818605297877" lon="12.245572431642703"><ele>229.2</ele><time>2026-03-29T12:35:35.001Z</time></trkpt><trkpt lat="43.118210669268564" lon="12.245707732469379"><ele>229.0</ele><time>2026-03-29T12:35:36.001Z</time></trkpt><trkpt lat="43.11824035141143" lon="12.245835100441276"><ele>229.16666666666666</ele><time>2026-03-29T12:35:37.001Z</time></trkpt><trkpt lat="43.11825320963113" lon="12.245936079504887"><ele>229.33333333333331</ele><time>2026-03-29T12:35:38.001Z</time></trkpt><trkpt lat="43.11827219721942" lon="12.246051776947683"><ele>229.5</ele><time>2026-03-29T12:35:39.001Z</time></trkpt><trkpt lat="43.11829504708601" lon="12.246174601478671"><ele>229.66666666666669</ele><time>2026-03-29T12:35:40.001Z</time></trkpt><trkpt lat="43.11831477733885" lon="12.246293021467753"><ele>229.83333333333334</ele><time>2026-03-29T12:35:41.001Z</time></trkpt><trkpt lat="43.11834004504807" lon="12.246409149521297"><ele>230.0</ele><time>2026-03-29T12:35:42.001Z</time></trkpt><trkpt lat="43.11836350797174" lon="12.24652661601006"><ele>230.0</ele><time>2026-03-29T12:35:43.001Z</time></trkpt><trkpt lat="43.118381123215315" lon="12.246640825486768"><ele>230.0</ele><time>2026-03-29T12:35:44.001Z</time></trkpt><trkpt lat="43.11840297959224" lon="12.246755905938949"><ele>230.0</ele><time>2026-03-29T12:35:45.001Z</time></trkpt><trkpt lat="43.11843054879147" lon="12.246891120424516"><ele>230.0</ele><time>2026-03-29T12:35:46.001Z</time></trkpt><trkpt lat="43.118455771793506" lon="12.247038649763429"><ele>230.0</ele><time>2026-03-29T12:35:47.001Z</time></trkpt><trkpt lat="43.11847881242846" lon="12.247185219235819"><ele>230.75</ele><time>2026-03-29T12:35:48.001Z</time></trkpt><trkpt lat="43.11847351778553" lon="12.247318212094422"><ele>231.5</ele><time>2026-03-29T12:35:49Z</time></trkpt><trkpt lat="43.11845817194395" lon="12.24745337988849"><ele>232.25</ele><time>2026-03-29T12:35:50Z</time></trkpt><trkpt lat="43.11843060660073" lon="12.247615667255529"><ele>233.0</ele><time>2026-03-29T12:35:51Z</time></trkpt><trkpt lat="43.11840695078447" lon="12.247854762027812"><ele>233.0</ele><time>2026-03-29T12:35:52Z</time></trkpt><trkpt lat="43.11838352116672" lon="12.248053696675736"><ele>233.0</ele><time>2026-03-29T12:35:53Z</time></trkpt><trkpt lat="43.1183599422447" lon="12.248197627761103"><ele>233.0</ele><time>2026-03-29T12:35:54Z</time></trkpt><trkpt lat="43.11834316619452" lon="12.248307981130308"><ele>233.0</ele><time>2026-03-29T12:35:55Z</time></trkpt><trkpt lat="43.11833190509748" lon="12.248471260448405"><ele>233.4</ele><time>2026-03-29T12:35:57Z</time></trkpt><trkpt lat="43.11838013483447" lon="12.248588187059418"><ele>233.8</ele><time>2026-03-29T12:35:59Z</time></trkpt><trkpt lat="43.11844098981075" lon="12.248627804574049"><ele>234.2</ele><time>2026-03-29T12:36:00Z</time></trkpt><trkpt lat="43.11851947961641" lon="12.248649842402125"><ele>234.6</ele><time>2026-03-29T12:36:01Z</time></trkpt><trkpt lat="43.118621530692025" lon="12.248690549028247"><ele>235.0</ele><time>2026-03-29T12:36:02Z</time></trkpt><trkpt lat="43.11874229503438" lon="12.248729701906589"><ele>235.0</ele><time>2026-03-29T12:36:03Z</time></trkpt><trkpt lat="43.11885927783016" lon="12.24876174873277"><ele>235.0</ele><time>2026-03-29T12:36:04Z</time></trkpt><trkpt lat="43.118952730184404" lon="12.248792248682589"><ele>235.0</ele><time>2026-03-29T12:36:05Z</time></trkpt><trkpt lat="43.11903365865913" lon="12.248823566177332"><ele>235.0</ele><time>2026-03-29T12:36:06Z</time></trkpt><trkpt lat="43.11911368693374" lon="12.248836269514545"><ele>235.0</ele><time>2026-03-29T12:36:07Z</time></trkpt><trkpt lat="43.11919126504015" lon="12.24888742556855"><ele>234.6</ele><time>2026-03-29T12:36:08Z</time></trkpt><trkpt lat="43.119252360733626" lon="12.24893912710094"><ele>234.2</ele><time>2026-03-29T12:36:09Z</time></trkpt><trkpt lat="43.11932460143185" lon="12.249005247810517"><ele>233.8</ele><time>2026-03-29T12:36:12Z</time></trkpt><trkpt lat="43.119320265830574" lon="12.24917012411771"><ele>233.4</ele><time>2026-03-29T12:36:14Z</time></trkpt><trkpt lat="43.119318063318296" lon="12.249287967206829"><ele>233.0</ele><time>2026-03-29T12:36:15Z</time></trkpt><trkpt lat="43.11932596851625" lon="12.249429463688077"><ele>234.25</ele><time>2026-03-29T12:36:16Z</time></trkpt><trkpt lat="43.11934429408685" lon="12.249578142465532"><ele>235.5</ele><time>2026-03-29T12:36:17Z</time></trkpt><trkpt lat="43.11934587556119" lon="12.249746397534789"><ele>236.75</ele><time>2026-03-29T12:36:18Z</time></trkpt><trkpt lat="43.11934008896148" lon="12.249921572636321"><ele>238.0</ele><time>2026-03-29T12:36:19Z</time></trkpt><trkpt lat="43.11933501354805" lon="12.250090787305174"><ele>239.60000000000002</ele><time>2026-03-29T12:36:20Z</time></trkpt><trkpt lat="43.11933215849961" lon="12.250240269828694"><ele>241.20000000000002</ele><time>2026-03-29T12:36:21Z</time></trkpt><trkpt lat="43.11932430178351" lon="12.250389047666888"><ele>242.8</ele><time>2026-03-29T12:36:22Z</time></trkpt><trkpt lat="43.119315290611716" lon="12.250533749877965"><ele>244.4</ele><time>2026-03-29T12:36:23Z</time></trkpt><trkpt lat="43.11932280394818" lon="12.250683076957504"><ele>246.0</ele><time>2026-03-29T12:36:24Z</time></trkpt><trkpt lat="43.119313246409334" lon="12.250791229766017"><ele>247.16666666666666</ele><time>2026-03-29T12:36:25Z</time></trkpt><trkpt lat="43.119300487302034" lon="12.250922479975912"><ele>248.33333333333331</ele><time>2026-03-29T12:36:28Z</time></trkpt><trkpt lat="43.11930232003783" lon="12.251030025504777"><ele>249.5</ele><time>2026-03-29T12:36:31Z</time></trkpt><trkpt lat="43.11929515366132" lon="12.25112850468172"><ele>250.66666666666666</ele><time>2026-03-29T12:36:34Z</time></trkpt><trkpt lat="43.11925310487287" lon="12.251201692174702"><ele>251.83333333333331</ele><time>2026-03-29T12:36:36Z</time></trkpt><trkpt lat="43.11924236113005" lon="12.25131386266573"><ele>253.0</ele><time>2026-03-29T12:36:39Z</time></trkpt><trkpt lat="43.11921224651694" lon="12.251454936025802"><ele>254.33333333333331</ele><time>2026-03-29T12:36:42Z</time></trkpt><trkpt lat="43.11919553077657" lon="12.25157686971754"><ele>255.66666666666666</ele><time>2026-03-29T12:36:44Z</time></trkpt><trkpt lat="43.119178636995194" lon="12.251696188751465"><ele>257.0</ele><time>2026-03-29T12:36:46Z</time></trkpt><trkpt lat="43.119169188055395" lon="12.251810296956451"><ele>258.3333333333333</ele><time>2026-03-29T12:36:48Z</time></trkpt><trkpt lat="43.11914470426567" lon="12.25190048356457"><ele>259.6666666666667</ele><time>2026-03-29T12:36:50Z</time></trkpt><trkpt lat="43.11910591636393" lon="12.25202743554548"><ele>261.0</ele><time>2026-03-29T12:36:52Z</time></trkpt><trkpt lat="43.11906984603252" lon="12.252177794564243"><ele>261.6</ele><time>2026-03-29T12:36:54Z</time></trkpt><trkpt lat="43.119037683560954" lon="12.252289707084696"><ele>262.20000000000005</ele><time>2026-03-29T12:36:56Z</time></trkpt><trkpt lat="43.11898077323523" lon="12.25246156305028"><ele>262.79999999999995</ele><time>2026-03-29T12:36:57.999Z</time></trkpt><trkpt lat="43.118963738630406" lon="12.252560942936602"><ele>263.4</ele><time>2026-03-29T12:36:59.999Z</time></trkpt><trkpt lat="43.11902412689639" lon="12.252685179719094"><ele>264.0</ele><time>2026-03-29T12:37:01.999Z</time></trkpt><trkpt lat="43.119081759506265" lon="12.25281600340915"><ele>265.0</ele><time>2026-03-29T12:37:03.999Z</time></trkpt><trkpt lat="43.11912787428498" lon="12.252910671975089"><ele>266.0</ele><time>2026-03-29T12:37:07.002Z</time></trkpt><trkpt lat="43.11915132418308" lon="12.253006942066225"><ele>267.0</ele><time>2026-03-29T12:37:09.002Z</time></trkpt><trkpt lat="43.11916846450463" lon="12.253118150955352"><ele>268.0</ele><time>2026-03-29T12:37:11.001Z</time></trkpt><trkpt lat="43.11916699066812" lon="12.253222641676489"><ele>269.0</ele><time>2026-03-29T12:37:12.002Z</time></trkpt><trkpt lat="43.119176146175526" lon="12.253329992675942"><ele>270.0</ele><time>2026-03-29T12:37:13.002Z</time></trkpt><trkpt lat="43.11918245602606" lon="12.25341849080284"><ele>272.0</ele><time>2026-03-29T12:37:14.002Z</time></trkpt><trkpt lat="43.11918465059454" lon="12.25350535958998"><ele>274.0</ele><time>2026-03-29T12:37:15.002Z</time></trkpt><trkpt lat="43.11918532253734" lon="12.253599718792476"><ele>276.0</ele><time>2026-03-29T12:37:16.001Z</time></trkpt><trkpt lat="43.119183940150364" lon="12.253708978109266"><ele>278.0</ele><time>2026-03-29T12:37:17.001Z</time></trkpt><trkpt lat="43.11919244935644" lon="12.253806312138988"><ele>280.0</ele><time>2026-03-29T12:37:18.001Z</time></trkpt><trkpt lat="43.11915239820715" lon="12.253907623235056"><ele>282.0</ele><time>2026-03-29T12:37:21.001Z</time></trkpt><trkpt lat="43.119071446045496" lon="12.25389848576476"><ele>284.0</ele><time>2026-03-29T12:37:24.001Z</time></trkpt><trkpt lat="43.119008540534324" lon="12.253974649821975"><ele>284.33333333333337</ele><time>2026-03-29T12:37:26.001Z</time></trkpt><trkpt lat="43.118979160777066" lon="12.254060989962047"><ele>284.6666666666667</ele><time>2026-03-29T12:37:28.001Z</time></trkpt><trkpt lat="43.11892784091687" lon="12.25417844596607"><ele>285.0</ele><time>2026-03-29T12:37:30.001Z</time></trkpt><trkpt lat="43.11891067106368" lon="12.254319775197434"><ele>285.3333333333333</ele><time>2026-03-29T12:37:31.001Z</time></trkpt><trkpt lat="43.1188839709521" lon="12.254427630874073"><ele>285.66666666666663</ele><time>2026-03-29T12:37:32.001Z</time></trkpt><trkpt lat="43.11887832660528" lon="12.254550995099393"><ele>286.0</ele><time>2026-03-29T12:37:34.001Z</time></trkpt><trkpt lat="43.1188386861857" lon="12.25465869877535"><ele>287.6</ele><time>2026-03-29T12:37:36.001Z</time></trkpt><trkpt lat="43.11882003116773" lon="12.254862101202095"><ele>289.20000000000005</ele><time>2026-03-29T12:37:38Z</time></trkpt><trkpt lat="43.11884946316565" lon="12.254975889044205"><ele>290.79999999999995</ele><time>2026-03-29T12:37:39Z</time></trkpt><trkpt lat="43.11891897849275" lon="12.255126998859593"><ele>292.4</ele><time>2026-03-29T12:37:40Z</time></trkpt><trkpt lat="43.118939187565815" lon="12.255227194158866"><ele>294.0</ele><time>2026-03-29T12:37:41Z</time></trkpt><trkpt lat="43.11899265155699" lon="12.255321652327549"><ele>294.0</ele><time>2026-03-29T12:37:43Z</time></trkpt><trkpt lat="43.11906252700361" lon="12.255356424213995"><ele>294.0</ele><time>2026-03-29T12:37:45Z</time></trkpt><trkpt lat="43.119138912325276" lon="12.255358281685401"><ele>294.0</ele><time>2026-03-29T12:37:46Z</time></trkpt><trkpt lat="43.1191832490927" lon="12.255285947764747"><ele>294.0</ele><time>2026-03-29T12:37:48Z</time></trkpt><trkpt lat="43.11933970474426" lon="12.255342602020434"><ele>294.0</ele><time>2026-03-29T12:37:50Z</time></trkpt><trkpt lat="43.119447455869775" lon="12.255378022246175"><ele>296.3333333333333</ele><time>2026-03-29T12:37:51Z</time></trkpt><trkpt lat="43.11954572920057" lon="12.255415466839555"><ele>298.6666666666667</ele><time>2026-03-29T12:37:52Z</time></trkpt><trkpt lat="43.11962434228656" lon="12.255429924658173"><ele>301.0</ele><time>2026-03-29T12:37:53Z</time></trkpt><trkpt lat="43.11970520061761" lon="12.255488994630163"><ele>303.33333333333337</ele><time>2026-03-29T12:37:54Z</time></trkpt><trkpt lat="43.1197834820019" lon="12.255526593417024"><ele>305.6666666666667</ele><time>2026-03-29T12:37:55Z</time></trkpt><trkpt lat="43.11986485537144" lon="12.255548790215883"><ele>308.0</ele><time>2026-03-29T12:37:56Z</time></trkpt><trkpt lat="43.1199377361679" lon="12.255551451413767"><ele>308.0</ele><time>2026-03-29T12:37:57Z</time></trkpt><trkpt lat="43.12002658499469" lon="12.2555567401306"><ele>308.0</ele><time>2026-03-29T12:37:58Z</time></trkpt><trkpt lat="43.120140382319796" lon="12.25563021804007"><ele>308.0</ele><time>2026-03-29T12:38:00Z</time></trkpt><trkpt lat="43.12021726224002" lon="12.255695856928428"><ele>308.0</ele><time>2026-03-29T12:38:01Z</time></trkpt><trkpt lat="43.1203066232504" lon="12.255762499778537"><ele>308.0</ele><time>2026-03-29T12:38:02Z</time></trkpt><trkpt lat="43.12039266975682" lon="12.255798033827004"><ele>312.4</ele><time>2026-03-29T12:38:03Z</time></trkpt><trkpt lat="43.12053160184536" lon="12.25576506026807"><ele>316.8</ele><time>2026-03-29T12:38:05Z</time></trkpt><trkpt lat="43.12063709904055" lon="12.25579051021944"><ele>321.2</ele><time>2026-03-29T12:38:07Z</time></trkpt><trkpt lat="43.12072808463644" lon="12.255871494910716"><ele>325.6</ele><time>2026-03-29T12:38:09Z</time></trkpt><trkpt lat="43.120716132701155" lon="12.255983542653185"><ele>330.0</ele><time>2026-03-29T12:38:13Z</time></trkpt><trkpt lat="43.12066369621323" lon="12.256067139114606"><ele>330.0</ele><time>2026-03-29T12:38:16Z</time></trkpt><trkpt lat="43.120582766912314" lon="12.256189146496164"><ele>330.0</ele><time>2026-03-29T12:38:18Z</time></trkpt><trkpt lat="43.12053125245091" lon="12.256316797757181"><ele>330.0</ele><time>2026-03-29T12:38:19Z</time></trkpt><trkpt lat="43.12048911201935" lon="12.256388177351296"><ele>330.0</ele><time>2026-03-29T12:38:20Z</time></trkpt><trkpt lat="43.12042091714656" lon="12.256473281600876"><ele>330.0</ele><time>2026-03-29T12:38:22Z</time></trkpt><trkpt lat="43.120316872916824" lon="12.256552891096627"><ele>333.8</ele><time>2026-03-29T12:38:24Z</time></trkpt><trkpt lat="43.120265385102385" lon="12.256623668642677"><ele>337.6</ele><time>2026-03-29T12:38:25Z</time></trkpt><trkpt lat="43.120200687725884" lon="12.256690027244005"><ele>341.4</ele><time>2026-03-29T12:38:26Z</time></trkpt><trkpt lat="43.120120032012174" lon="12.256764279770966"><ele>345.2</ele><time>2026-03-29T12:38:27Z</time></trkpt><trkpt lat="43.120019033230726" lon="12.256836339356472"><ele>349.0</ele><time>2026-03-29T12:38:29Z</time></trkpt><trkpt lat="43.11997741113912" lon="12.256946902598225"><ele>349.0</ele><time>2026-03-29T12:38:30.999Z</time></trkpt><trkpt lat="43.11990874265395" lon="12.25708953209217"><ele>349.0</ele><time>2026-03-29T12:38:32.999Z</time></trkpt><trkpt lat="43.119862099821454" lon="12.257208632895349"><ele>349.0</ele><time>2026-03-29T12:38:33.999Z</time></trkpt><trkpt lat="43.11978423994563" lon="12.25741006719416"><ele>349.0</ele><time>2026-03-29T12:38:34.999Z</time></trkpt><trkpt lat="43.11971627924253" lon="12.257609174028062"><ele>348.79999999999995</ele><time>2026-03-29T12:38:35.999Z</time></trkpt><trkpt lat="43.11966818174371" lon="12.257748260617165"><ele>348.59999999999997</ele><time>2026-03-29T12:38:36.999Z</time></trkpt><trkpt lat="43.119629870434835" lon="12.25787471144792"><ele>348.4</ele><time>2026-03-29T12:38:37.999Z</time></trkpt><trkpt lat="43.11959044827005" lon="12.257983392185341"><ele>348.2</ele><time>2026-03-29T12:38:38.999Z</time></trkpt><trkpt lat="43.11953349823779" lon="12.258094418894647"><ele>348.0</ele><time>2026-03-29T12:38:39.999Z</time></trkpt><trkpt lat="43.119458595650684" lon="12.258232297271208"><ele>352.0</ele><time>2026-03-29T12:38:40.999Z</time></trkpt><trkpt lat="43.119402268743286" lon="12.258367855869018"><ele>356.0</ele><time>2026-03-29T12:38:41.999Z</time></trkpt><trkpt lat="43.119354476394086" lon="12.258524608053538"><ele>360.0</ele><time>2026-03-29T12:38:42.999Z</time></trkpt><trkpt lat="43.119310160414656" lon="12.258653959569562"><ele>364.0</ele><time>2026-03-29T12:38:43.999Z</time></trkpt><trkpt lat="43.11925674178552" lon="12.258811838975388"><ele>364.0</ele><time>2026-03-29T12:38:44.999Z</time></trkpt><trkpt lat="43.11922694746706" lon="12.258917485691574"><ele>364.0</ele><time>2026-03-29T12:38:45.999Z</time></trkpt><trkpt lat="43.11919150939303" lon="12.259047533465656"><ele>364.0</ele><time>2026-03-29T12:38:46.999Z</time></trkpt><trkpt lat="43.11913864620996" lon="12.2591335168223"><ele>364.0</ele><time>2026-03-29T12:38:47.999Z</time></trkpt><trkpt lat="43.11903098010403" lon="12.259241537689565"><ele>364.0</ele><time>2026-03-29T12:38:48.999Z</time></trkpt><trkpt lat="43.11894009511016" lon="12.259409667796017"><ele>364.2</ele><time>2026-03-29T12:38:49.999Z</time></trkpt><trkpt lat="43.118893283002805" lon="12.25955134071821"><ele>364.4</ele><time>2026-03-29T12:38:50.999Z</time></trkpt><trkpt lat="43.11887689439153" lon="12.259651517622311"><ele>364.6</ele><time>2026-03-29T12:38:51.999Z</time></trkpt><trkpt lat="43.118803035331496" lon="12.259783605680763"><ele>364.8</ele><time>2026-03-29T12:38:53.999Z</time></trkpt><trkpt lat="43.118746095745806" lon="12.25983814053907"><ele>365.0</ele><time>2026-03-29T12:38:54.999Z</time></trkpt><trkpt lat="43.11867580836238" lon="12.259968872488063"><ele>366.83333333333337</ele><time>2026-03-29T12:38:55.999Z</time></trkpt><trkpt lat="43.118646471296465" lon="12.260105694843832"><ele>368.6666666666667</ele><time>2026-03-29T12:38:56.999Z</time></trkpt><trkpt lat="43.118608268752524" lon="12.260197184204275"><ele>370.5</ele><time>2026-03-29T12:38:57.999Z</time></trkpt><trkpt lat="43.11853226386575" lon="12.260276868793943"><ele>372.3333333333333</ele><time>2026-03-29T12:38:58.999Z</time></trkpt><trkpt lat="43.11846869726329" lon="12.260367817821466"><ele>374.16666666666663</ele><time>2026-03-29T12:38:59.999Z</time></trkpt><trkpt lat="43.118420010575704" lon="12.260449229956198"><ele>376.0</ele><time>2026-03-29T12:39:00.999Z</time></trkpt><trkpt lat="43.11834596450072" lon="12.260525314692906"><ele>376.0</ele><time>2026-03-29T12:39:01.999Z</time></trkpt><trkpt lat="43.118244249849894" lon="12.260570251120823"><ele>376.0</ele><time>2026-03-29T12:39:02.999Z</time></trkpt><trkpt lat="43.1181683053743" lon="12.26062253739064"><ele>376.0</ele><time>2026-03-29T12:39:03.999Z</time></trkpt><trkpt lat="43.118103349839" lon="12.260695200186788"><ele>376.0</ele><time>2026-03-29T12:39:04.999Z</time></trkpt><trkpt lat="43.11807227073759" lon="12.260773517439109"><ele>376.0</ele><time>2026-03-29T12:39:06.999Z</time></trkpt><trkpt lat="43.118038616232035" lon="12.260851389348396"><ele>376.0</ele><time>2026-03-29T12:39:12.001Z</time></trkpt><trkpt lat="43.118195631444564" lon="12.260915868928386"><ele>377.16666666666663</ele><time>2026-03-29T12:39:17.001Z</time></trkpt><trkpt lat="43.11829909480755" lon="12.260921075198958"><ele>378.3333333333333</ele><time>2026-03-29T12:39:23.001Z</time></trkpt><trkpt lat="43.11838455245857" lon="12.26089383323961"><ele>379.5</ele><time>2026-03-29T12:39:26.001Z</time></trkpt><trkpt lat="43.118445000542486" lon="12.260833013126714"><ele>380.6666666666667</ele><time>2026-03-29T12:39:31.001Z</time></trkpt><trkpt lat="43.118512891589525" lon="12.260796546042325"><ele>381.83333333333337</ele><time>2026-03-29T12:39:34.001Z</time></trkpt><trkpt lat="43.11858605414067" lon="12.260790718586597"><ele>383.0</ele><time>2026-03-29T12:39:37.001Z</time></trkpt><trkpt lat="43.11870048944091" lon="12.260786253955011"><ele>383.0</ele><time>2026-03-29T12:39:42.001Z</time></trkpt><trkpt lat="43.11884478503223" lon="12.260794788681315"><ele>383.0</ele><time>2026-03-29T12:39:47Z</time></trkpt><trkpt lat="43.11892271510297" lon="12.260830203916152"><ele>383.0</ele><time>2026-03-29T12:39:49Z</time></trkpt><trkpt lat="43.11898914999422" lon="12.260875422140355"><ele>383.0</ele><time>2026-03-29T12:39:51Z</time></trkpt><trkpt lat="43.119045360060746" lon="12.26093615553767"><ele>383.0</ele><time>2026-03-29T12:39:54Z</time></trkpt><trkpt lat="43.119125197290266" lon="12.260967367284005"><ele>384.59999999999997</ele><time>2026-03-29T12:39:56Z</time></trkpt><trkpt lat="43.119227732759875" lon="12.26104117481511"><ele>386.2</ele><time>2026-03-29T12:40:00Z</time></trkpt><trkpt lat="43.11931944741565" lon="12.261119848912227"><ele>387.8</ele><time>2026-03-29T12:40:02Z</time></trkpt><trkpt lat="43.11939577545291" lon="12.261174609142788"><ele>389.4</ele><time>2026-03-29T12:40:04Z</time></trkpt><trkpt lat="43.119414532599365" lon="12.261263654348097"><ele>391.0</ele><time>2026-03-29T12:40:06Z</time></trkpt><trkpt lat="43.11959315480348" lon="12.261364235004045"><ele>389.20000000000005</ele><time>2026-03-29T12:40:07Z</time></trkpt><trkpt lat="43.11969675768901" lon="12.261468736114729"><ele>387.40000000000003</ele><time>2026-03-29T12:40:08Z</time></trkpt><trkpt lat="43.11975521677954" lon="12.261529793416644"><ele>385.6</ele><time>2026-03-29T12:40:09Z</time></trkpt><trkpt lat="43.11983922088461" lon="12.261641871238389"><ele>383.8</ele><time>2026-03-29T12:40:11Z</time></trkpt><trkpt lat="43.11989701935585" lon="12.261715272835698"><ele>382.0</ele><time>2026-03-29T12:40:12Z</time></trkpt><trkpt lat="43.11994360000138" lon="12.261777563232656"><ele>380.8</ele><time>2026-03-29T12:40:13Z</time></trkpt><trkpt lat="43.11999400169146" lon="12.26188018220904"><ele>379.6</ele><time>2026-03-29T12:40:15Z</time></trkpt><trkpt lat="43.12001686660115" lon="12.262031595550685"><ele>378.40000000000003</ele><time>2026-03-29T12:40:17Z</time></trkpt><trkpt lat="43.12009907193378" lon="12.262179852005445"><ele>377.20000000000005</ele><time>2026-03-29T12:40:19Z</time></trkpt><trkpt lat="43.12014361207081" lon="12.262243892996414"><ele>376.0</ele><time>2026-03-29T12:40:20Z</time></trkpt><trkpt lat="43.12016692634519" lon="12.262356975334573"><ele>374.0</ele><time>2026-03-29T12:40:22Z</time></trkpt><trkpt lat="43.120201963021735" lon="12.26251085511214"><ele>372.0</ele><time>2026-03-29T12:40:24Z</time></trkpt><trkpt lat="43.12024441036895" lon="12.262581317227832"><ele>370.0</ele><time>2026-03-29T12:40:25Z</time></trkpt><trkpt lat="43.12029606353917" lon="12.262658606950474"><ele>368.0</ele><time>2026-03-29T12:40:27Z</time></trkpt><trkpt lat="43.12031452409063" lon="12.262759003828466"><ele>366.0</ele><time>2026-03-29T12:40:30Z</time></trkpt><trkpt lat="43.1203551159211" lon="12.262837968497823"><ele>364.0</ele><time>2026-03-29T12:40:32Z</time></trkpt><trkpt lat="43.120414310366016" lon="12.262921779087048"><ele>364.0</ele><time>2026-03-29T12:40:35Z</time></trkpt><trkpt lat="43.120437202451825" lon="12.263011666857158"><ele>364.0</ele><time>2026-03-29T12:40:38.999Z</time></trkpt><trkpt lat="43.12047872663044" lon="12.263078162482193"><ele>364.0</ele><time>2026-03-29T12:40:40.999Z</time></trkpt><trkpt lat="43.120517578772166" lon="12.263211537898624"><ele>364.0</ele><time>2026-03-29T12:41:43Z</time></trkpt><trkpt lat="43.1205320379119" lon="12.263299108113758"><ele>364.0</ele><time>2026-03-29T12:42:00Z</time></trkpt><trkpt lat="43.120570990937026" lon="12.263400971892505"><ele>364.0</ele><time>2026-03-29T12:42:03Z</time></trkpt><trkpt lat="43.12058104467049" lon="12.263497668792743"><ele>362.0</ele><time>2026-03-29T12:42:11Z</time></trkpt><trkpt lat="43.12054555217582" lon="12.26358226944901"><ele>360.0</ele><time>2026-03-29T12:42:15Z</time></trkpt><trkpt lat="43.120511216343836" lon="12.263671425755529"><ele>358.0</ele><time>2026-03-29T12:42:19Z</time></trkpt><trkpt lat="43.12056648020394" lon="12.26371391749544"><ele>356.0</ele><time>2026-03-29T12:42:38.999Z</time></trkpt><trkpt lat="43.1206082107703" lon="12.263638278537124"><ele>354.0</ele><time>2026-03-29T12:42:40.999Z</time></trkpt><trkpt lat="43.120670269677056" lon="12.263548481180749"><ele>352.0</ele><time>2026-03-29T12:42:41.999Z</time></trkpt><trkpt lat="43.12078849010174" lon="12.263572500205216"><ele>350.6</ele><time>2026-03-29T12:42:43.999Z</time></trkpt><trkpt lat="43.12088821608413" lon="12.26356855438216"><ele>349.20000000000005</ele><time>2026-03-29T12:42:45.999Z</time></trkpt><trkpt lat="43.1209779177038" lon="12.263578739868693"><ele>347.8</ele><time>2026-03-29T12:42:46.999Z</time></trkpt><trkpt lat="43.12104883044471" lon="12.263585419880974"><ele>346.4</ele><time>2026-03-29T12:42:47.999Z</time></trkpt><trkpt lat="43.12113455142361" lon="12.263583382266287"><ele>345.0</ele><time>2026-03-29T12:42:48.999Z</time></trkpt><trkpt lat="43.12126773852223" lon="12.263605717638612"><ele>345.0</ele><time>2026-03-29T12:42:50.999Z</time></trkpt><trkpt lat="43.12135789757586" lon="12.263600195634957"><ele>345.0</ele><time>2026-03-29T12:42:51.999Z</time></trkpt><trkpt lat="43.121426060980255" lon="12.263591675044934"><ele>345.0</ele><time>2026-03-29T12:42:52.999Z</time></trkpt><trkpt lat="43.12150645504649" lon="12.26360788547759"><ele>345.0</ele><time>2026-03-29T12:42:53.999Z</time></trkpt><trkpt lat="43.12158229486003" lon="12.263637667795328"><ele>345.0</ele><time>2026-03-29T12:42:54.999Z</time></trkpt><trkpt lat="43.12164655383174" lon="12.26363542185501"><ele>345.0</ele><time>2026-03-29T12:42:55.999Z</time></trkpt><trkpt lat="43.12176191689161" lon="12.263640675667054"><ele>342.6666666666667</ele><time>2026-03-29T12:42:57.999Z</time></trkpt><trkpt lat="43.12182552197663" lon="12.263668001834805"><ele>340.3333333333333</ele><time>2026-03-29T12:42:58.999Z</time></trkpt><trkpt lat="43.12189034645368" lon="12.263665361461545"><ele>338.0</ele><time>2026-03-29T12:42:59.999Z</time></trkpt><trkpt lat="43.121998366685865" lon="12.263675243924089"><ele>335.66666666666663</ele><time>2026-03-29T12:43:01.999Z</time></trkpt><trkpt lat="43.12206408327694" lon="12.263673354562894"><ele>333.3333333333333</ele><time>2026-03-29T12:43:02.999Z</time></trkpt><trkpt lat="43.12218164634177" lon="12.26365375729301"><ele>331.0</ele><time>2026-03-29T12:43:04.999Z</time></trkpt><trkpt lat="43.12225280071251" lon="12.263646060296606"><ele>331.0</ele><time>2026-03-29T12:43:05.999Z</time></trkpt><trkpt lat="43.12236851965843" lon="12.263610971917096"><ele>331.0</ele><time>2026-03-29T12:43:07.999Z</time></trkpt><trkpt lat="43.12243265081027" lon="12.263616222296971"><ele>331.0</ele><time>2026-03-29T12:43:08.999Z</time></trkpt><trkpt lat="43.122509014657595" lon="12.263610832097745"><ele>331.0</ele><time>2026-03-29T12:43:09.999Z</time></trkpt><trkpt lat="43.12259047085912" lon="12.263621806223698"><ele>331.0</ele><time>2026-03-29T12:43:10.999Z</time></trkpt><trkpt lat="43.12267431127231" lon="12.263657702570404"><ele>331.0</ele><time>2026-03-29T12:43:11.999Z</time></trkpt><trkpt lat="43.122747175493686" lon="12.263695930019985"><ele>332.75</ele><time>2026-03-29T12:43:12.999Z</time></trkpt><trkpt lat="43.122825957211745" lon="12.263787483702652"><ele>334.5</ele><time>2026-03-29T12:43:14.999Z</time></trkpt><trkpt lat="43.12287224818921" lon="12.263897628171435"><ele>336.25</ele><time>2026-03-29T12:43:16.999Z</time></trkpt><trkpt lat="43.123038826780025" lon="12.2639919853355"><ele>338.0</ele><time>2026-03-29T12:43:20.999Z</time></trkpt><trkpt lat="43.12312519612671" lon="12.264057126551794"><ele>338.0</ele><time>2026-03-29T12:43:21.999Z</time></trkpt><trkpt lat="43.12321049100212" lon="12.26413314981756"><ele>338.0</ele><time>2026-03-29T12:43:22.999Z</time></trkpt><trkpt lat="43.123309142868365" lon="12.264212347281731"><ele>338.0</ele><time>2026-03-29T12:43:24.001Z</time></trkpt><trkpt lat="43.123390613173534" lon="12.264292479039325"><ele>338.0</ele><time>2026-03-29T12:43:25Z</time></trkpt><trkpt lat="43.12347231797013" lon="12.264357590969249"><ele>338.0</ele><time>2026-03-29T12:43:26Z</time></trkpt><trkpt lat="43.123537558444035" lon="12.2644168041435"><ele>334.2</ele><time>2026-03-29T12:43:28.001Z</time></trkpt><trkpt lat="43.12355014139513" lon="12.26453598838591"><ele>330.4</ele><time>2026-03-29T12:43:31.001Z</time></trkpt><trkpt lat="43.123540344733605" lon="12.26463534023089"><ele>326.59999999999997</ele><time>2026-03-29T12:43:33.001Z</time></trkpt><trkpt lat="43.12358020743133" lon="12.264724337410831"><ele>322.79999999999995</ele><time>2026-03-29T12:43:35Z</time></trkpt><trkpt lat="43.12375068747169" lon="12.264724566867931"><ele>319.0</ele><time>2026-03-29T12:43:37.001Z</time></trkpt><trkpt lat="43.12388686259275" lon="12.264693005300341"><ele>319.0</ele><time>2026-03-29T12:43:38.001Z</time></trkpt><trkpt lat="43.12401377047416" lon="12.264670653070342"><ele>319.0</ele><time>2026-03-29T12:43:39.001Z</time></trkpt><trkpt lat="43.12412071731414" lon="12.264672235370154"><ele>319.0</ele><time>2026-03-29T12:43:40.001Z</time></trkpt><trkpt lat="43.12421938981433" lon="12.264664192908842"><ele>319.0</ele><time>2026-03-29T12:43:41.001Z</time></trkpt><trkpt lat="43.12431694399216" lon="12.264701138696102"><ele>319.0</ele><time>2026-03-29T12:43:42Z</time></trkpt><trkpt lat="43.124412646672575" lon="12.264761874670016"><ele>313.66666666666663</ele><time>2026-03-29T12:43:43Z</time></trkpt><trkpt lat="43.12452744063511" lon="12.264826960251503"><ele>308.3333333333333</ele><time>2026-03-29T12:43:44Z</time></trkpt><trkpt lat="43.12468543363642" lon="12.264918425224774"><ele>303.0</ele><time>2026-03-29T12:43:45Z</time></trkpt><trkpt lat="43.124865399768424" lon="12.265041642689317"><ele>302.3333333333333</ele><time>2026-03-29T12:43:46Z</time></trkpt><trkpt lat="43.12505076108799" lon="12.265129087723947"><ele>301.66666666666663</ele><time>2026-03-29T12:43:47Z</time></trkpt><trkpt lat="43.1252479214496" lon="12.26521521229108"><ele>301.0</ele><time>2026-03-29T12:43:48Z</time></trkpt><trkpt lat="43.1254867157666" lon="12.265306151041845"><ele>300.0</ele><time>2026-03-29T12:43:49Z</time></trkpt><trkpt lat="43.125755245174574" lon="12.265376882294316"><ele>299.0</ele><time>2026-03-29T12:43:50Z</time></trkpt><trkpt lat="43.126022216578775" lon="12.265443539547348"><ele>299.0</ele><time>2026-03-29T12:43:51Z</time></trkpt><trkpt lat="43.1262570327197" lon="12.26552179093264"><ele>299.0</ele><time>2026-03-29T12:43:52Z</time></trkpt><trkpt lat="43.126462114226285" lon="12.26558517583717"><ele>295.33333333333337</ele><time>2026-03-29T12:43:53Z</time></trkpt><trkpt lat="43.12664488602096" lon="12.26562712419374"><ele>291.6666666666667</ele><time>2026-03-29T12:43:54Z</time></trkpt><trkpt lat="43.12678973954717" lon="12.265664382936022"><ele>288.0</ele><time>2026-03-29T12:43:55Z</time></trkpt><trkpt lat="43.12690130240539" lon="12.265714514460594"><ele>288.0</ele><time>2026-03-29T12:43:56Z</time></trkpt><trkpt lat="43.12702431419929" lon="12.265758111894268"><ele>288.0</ele><time>2026-03-29T12:43:57Z</time></trkpt><trkpt lat="43.12715626775643" lon="12.26580095593207"><ele>288.0</ele><time>2026-03-29T12:43:58Z</time></trkpt><trkpt lat="43.12727731990822" lon="12.265835322663408"><ele>288.0</ele><time>2026-03-29T12:43:59Z</time></trkpt><trkpt lat="43.12741750211454" lon="12.265883799433801"><ele>287.5</ele><time>2026-03-29T12:44:00Z</time></trkpt><trkpt lat="43.127552716937934" lon="12.265921554706908"><ele>287.0</ele><time>2026-03-29T12:44:01Z</time></trkpt><trkpt lat="43.12767967415202" lon="12.265942839657152"><ele>286.5</ele><time>2026-03-29T12:44:02Z</time></trkpt><trkpt lat="43.12781841085365" lon="12.265938594234417"><ele>286.0</ele><time>2026-03-29T12:44:03Z</time></trkpt><trkpt lat="43.12795494910343" lon="12.265934505017984"><ele>286.0</ele><time>2026-03-29T12:44:04Z</time></trkpt><trkpt lat="43.128095250726915" lon="12.265903378372707"><ele>286.0</ele><time>2026-03-29T12:44:05Z</time></trkpt><trkpt lat="43.12822133265044" lon="12.265875078159638"><ele>286.0</ele><time>2026-03-29T12:44:06Z</time></trkpt><trkpt lat="43.12833215052648" lon="12.265846370169747"><ele>286.0</ele><time>2026-03-29T12:44:07Z</time></trkpt><trkpt lat="43.128428457779656" lon="12.265818064021701"><ele>284.5</ele><time>2026-03-29T12:44:08Z</time></trkpt><trkpt lat="43.12853270170404" lon="12.26579088385865"><ele>283.0</ele><time>2026-03-29T12:44:09Z</time></trkpt><trkpt lat="43.12865619630164" lon="12.265737630709747"><ele>281.5</ele><time>2026-03-29T12:44:10Z</time></trkpt><trkpt lat="43.12880552749176" lon="12.265677437578988"><ele>280.0</ele><time>2026-03-29T12:44:11Z</time></trkpt><trkpt lat="43.12897305419412" lon="12.26558881491944"><ele>278.0</ele><time>2026-03-29T12:44:12Z</time></trkpt><trkpt lat="43.12913082425065" lon="12.265513432904859"><ele>276.0</ele><time>2026-03-29T12:44:13Z</time></trkpt><trkpt lat="43.12927744019154" lon="12.265457483780692"><ele>274.0</ele><time>2026-03-29T12:44:14Z</time></trkpt><trkpt lat="43.129411086956445" lon="12.265379515687902"><ele>274.0</ele><time>2026-03-29T12:44:15Z</time></trkpt><trkpt lat="43.12952741608729" lon="12.265285645031303"><ele>274.0</ele><time>2026-03-29T12:44:16Z</time></trkpt><trkpt lat="43.129619216557884" lon="12.265184762538386"><ele>274.0</ele><time>2026-03-29T12:44:17Z</time></trkpt><trkpt lat="43.12969449901841" lon="12.265080182862203"><ele>274.0</ele><time>2026-03-29T12:44:18Z</time></trkpt><trkpt lat="43.12974084026476" lon="12.264974161404234"><ele>274.0</ele><time>2026-03-29T12:44:19Z</time></trkpt><trkpt lat="43.12977102887349" lon="12.264844857317385"><ele>274.0</ele><time>2026-03-29T12:44:20Z</time></trkpt><trkpt lat="43.12979067648317" lon="12.264695540347011"><ele>274.0</ele><time>2026-03-29T12:44:21Z</time></trkpt><trkpt lat="43.12981102709146" lon="12.264514540634801"><ele>274.0</ele><time>2026-03-29T12:44:22Z</time></trkpt><trkpt lat="43.129833304496074" lon="12.264355496690323"><ele>273.59999999999997</ele><time>2026-03-29T12:44:23Z</time></trkpt><trkpt lat="43.12984211524676" lon="12.264205845372608"><ele>273.2</ele><time>2026-03-29T12:44:24Z</time></trkpt><trkpt lat="43.12983745684226" lon="12.264062516125767"><ele>272.79999999999995</ele><time>2026-03-29T12:44:25Z</time></trkpt><trkpt lat="43.12982452289548" lon="12.26395006944093"><ele>272.4</ele><time>2026-03-29T12:44:26Z</time></trkpt><trkpt lat="43.12981715386598" lon="12.263857646304498"><ele>272.0</ele><time>2026-03-29T12:44:27Z</time></trkpt><trkpt lat="43.12988658253996" lon="12.26376397838347"><ele>270.2</ele><time>2026-03-29T12:44:28.999Z</time></trkpt><trkpt lat="43.12996104548058" lon="12.263772278432375"><ele>268.4</ele><time>2026-03-29T12:44:29.999Z</time></trkpt><trkpt lat="43.13005022135734" lon="12.26380734676868"><ele>266.6</ele><time>2026-03-29T12:44:30.999Z</time></trkpt><trkpt lat="43.130153654204385" lon="12.263857747723655"><ele>264.8</ele><time>2026-03-29T12:44:31.999Z</time></trkpt><trkpt lat="43.130242059140265" lon="12.263904610973443"><ele>263.0</ele><time>2026-03-29T12:44:32.999Z</time></trkpt><trkpt lat="43.13031936702495" lon="12.263957807776041"><ele>263.0</ele><time>2026-03-29T12:44:33.999Z</time></trkpt><trkpt lat="43.13041164281015" lon="12.26403249273731"><ele>263.0</ele><time>2026-03-29T12:44:34.999Z</time></trkpt><trkpt lat="43.13048008329948" lon="12.264114777125974"><ele>263.0</ele><time>2026-03-29T12:44:35.999Z</time></trkpt><trkpt lat="43.13059450183609" lon="12.264058642072152"><ele>263.0</ele><time>2026-03-29T12:44:38.999Z</time></trkpt><trkpt lat="43.13071510004309" lon="12.264029500186897"><ele>263.0</ele><time>2026-03-29T12:44:39.999Z</time></trkpt><trkpt lat="43.13083837473427" lon="12.26400414411384"><ele>260.0</ele><time>2026-03-29T12:44:40.999Z</time></trkpt><trkpt lat="43.1309601127164" lon="12.26397578153883"><ele>257.0</ele><time>2026-03-29T12:44:41.999Z</time></trkpt><trkpt lat="43.13106540515755" lon="12.263952501513852"><ele>254.0</ele><time>2026-03-29T12:44:42.999Z</time></trkpt><trkpt lat="43.13116847172515" lon="12.263918608259036"><ele>251.0</ele><time>2026-03-29T12:44:43.999Z</time></trkpt><trkpt lat="43.131289332850685" lon="12.263876053908222"><ele>250.0</ele><time>2026-03-29T12:44:44.999Z</time></trkpt><trkpt lat="43.13139623602588" lon="12.263824777119952"><ele>249.00000000000003</ele><time>2026-03-29T12:44:45.999Z</time></trkpt><trkpt lat="43.13147955442947" lon="12.26379503451046"><ele>248.00000000000003</ele><time>2026-03-29T12:44:46.999Z</time></trkpt><trkpt lat="43.13158448763663" lon="12.263767091574186"><ele>247.0</ele><time>2026-03-29T12:44:48.999Z</time></trkpt><trkpt lat="43.1316730722491" lon="12.263786806489692"><ele>246.0</ele><time>2026-03-29T12:44:50.999Z</time></trkpt><trkpt lat="43.13174546651055" lon="12.26375797700417"><ele>244.0</ele><time>2026-03-29T12:44:53.999Z</time></trkpt><trkpt lat="43.13183211597217" lon="12.263661613676177"><ele>242.0</ele><time>2026-03-29T12:44:55.999Z</time></trkpt><trkpt lat="43.131900567223774" lon="12.263523047143622"><ele>240.0</ele><time>2026-03-29T12:44:56.999Z</time></trkpt><trkpt lat="43.131960391840366" lon="12.263356585171087"><ele>238.0</ele><time>2026-03-29T12:44:57.999Z</time></trkpt><trkpt lat="43.13202253040208" lon="12.263197083071685"><ele>237.5</ele><time>2026-03-29T12:44:58.999Z</time></trkpt><trkpt lat="43.13208108183559" lon="12.26303661828824"><ele>237.0</ele><time>2026-03-29T12:44:59.999Z</time></trkpt><trkpt lat="43.13212678143923" lon="12.262877775229851"><ele>236.5</ele><time>2026-03-29T12:45:00.999Z</time></trkpt><trkpt lat="43.13216398369532" lon="12.262732343682254"><ele>236.0</ele><time>2026-03-29T12:45:01.999Z</time></trkpt><trkpt lat="43.132197723637056" lon="12.262601594737676"><ele>236.00000000000003</ele><time>2026-03-29T12:45:02.999Z</time></trkpt><trkpt lat="43.13222898952327" lon="12.26249695924213"><ele>236.0</ele><time>2026-03-29T12:45:03.999Z</time></trkpt><trkpt lat="43.1322549218349" lon="12.262396352607691"><ele>236.0</ele><time>2026-03-29T12:45:04.999Z</time></trkpt><trkpt lat="43.13229884200379" lon="12.26230354491603"><ele>236.0</ele><time>2026-03-29T12:45:05.999Z</time></trkpt><trkpt lat="43.13236285501015" lon="12.262221356098848"><ele>236.00000000000003</ele><time>2026-03-29T12:45:06.999Z</time></trkpt><trkpt lat="43.13244420274833" lon="12.262147872760874"><ele>236.0</ele><time>2026-03-29T12:45:07.999Z</time></trkpt><trkpt lat="43.1325324962953" lon="12.262084291587438"><ele>236.0</ele><time>2026-03-29T12:45:08.999Z</time></trkpt><trkpt lat="43.13262507860495" lon="12.262061012790568"><ele>236.00000000000003</ele><time>2026-03-29T12:45:09.999Z</time></trkpt><trkpt lat="43.132718680530814" lon="12.262073577738489"><ele>236.00000000000003</ele><time>2026-03-29T12:45:10.999Z</time></trkpt><trkpt lat="43.13281036371824" lon="12.262121434962673"><ele>236.0</ele><time>2026-03-29T12:45:11.999Z</time></trkpt><trkpt lat="43.1329048430297" lon="12.262199369093793"><ele>236.0</ele><time>2026-03-29T12:45:12.999Z</time></trkpt><trkpt lat="43.13299914667739" lon="12.262296964654"><ele>236.0</ele><time>2026-03-29T12:45:13.999Z</time></trkpt><trkpt lat="43.13309813045029" lon="12.262394159318069"><ele>236.0</ele><time>2026-03-29T12:45:14.999Z</time></trkpt><trkpt lat="43.13321739875516" lon="12.262511591234956"><ele>236.0</ele><time>2026-03-29T12:45:15.999Z</time></trkpt><trkpt lat="43.13337069515494" lon="12.262685904990754"><ele>236.0</ele><time>2026-03-29T12:45:16.999Z</time></trkpt><trkpt lat="43.133504055567144" lon="12.26282731765191"><ele>236.0</ele><time>2026-03-29T12:45:17.999Z</time></trkpt><trkpt lat="43.13363424383311" lon="12.262949820870425"><ele>236.0</ele><time>2026-03-29T12:45:18.999Z</time></trkpt><trkpt lat="43.13376943805335" lon="12.263064163720438"><ele>235.66666666666669</ele><time>2026-03-29T12:45:19.999Z</time></trkpt><trkpt lat="43.133906564744656" lon="12.26316184753586"><ele>235.33333333333331</ele><time>2026-03-29T12:45:20.999Z</time></trkpt><trkpt lat="43.1340442317056" lon="12.263251428948012"><ele>235.0</ele><time>2026-03-29T12:45:21.999Z</time></trkpt><trkpt lat="43.134177381117304" lon="12.263328215178975"><ele>235.0</ele><time>2026-03-29T12:45:22.998Z</time></trkpt><trkpt lat="43.134305891702446" lon="12.263398424919286"><ele>235.0</ele><time>2026-03-29T12:45:23.998Z</time></trkpt><trkpt lat="43.13442800170619" lon="12.263451828411796"><ele>235.0</ele><time>2026-03-29T12:45:24.998Z</time></trkpt><trkpt lat="43.13455117368715" lon="12.263498059046668"><ele>235.0</ele><time>2026-03-29T12:45:25.998Z</time></trkpt><trkpt lat="43.13467763066798" lon="12.263521231075753"><ele>235.0</ele><time>2026-03-29T12:45:26.998Z</time></trkpt><trkpt lat="43.13480976060296" lon="12.263526276329188"><ele>235.0</ele><time>2026-03-29T12:45:27.998Z</time></trkpt><trkpt lat="43.134932091216285" lon="12.263532740010715"><ele>235.0</ele><time>2026-03-29T12:45:28.998Z</time></trkpt><trkpt lat="43.13504743115091" lon="12.263540236109396"><ele>235.0</ele><time>2026-03-29T12:45:30Z</time></trkpt><trkpt lat="43.13515141360436" lon="12.263561151360696"><ele>234.8</ele><time>2026-03-29T12:45:31Z</time></trkpt><trkpt lat="43.13525770660089" lon="12.263592201468303"><ele>234.6</ele><time>2026-03-29T12:45:32Z</time></trkpt><trkpt lat="43.135368253505185" lon="12.263626340591793"><ele>234.39999999999998</ele><time>2026-03-29T12:45:33Z</time></trkpt><trkpt lat="43.1354685308796" lon="12.26364104661603"><ele>234.2</ele><time>2026-03-29T12:45:34Z</time></trkpt><trkpt lat="43.13556221748699" lon="12.263668031107079"><ele>234.0</ele><time>2026-03-29T12:45:35Z</time></trkpt><trkpt lat="43.13563691659657" lon="12.263785553094412"><ele>234.0</ele><time>2026-03-29T12:45:36Z</time></trkpt><trkpt lat="43.135694906530915" lon="12.26388985643159"><ele>233.99999999999997</ele><time>2026-03-29T12:45:37Z</time></trkpt><trkpt lat="43.135748755062565" lon="12.263998947941962"><ele>233.99999999999997</ele><time>2026-03-29T12:45:38Z</time></trkpt><trkpt lat="43.13581442543309" lon="12.264117887257788"><ele>234.0</ele><time>2026-03-29T12:45:39Z</time></trkpt><trkpt lat="43.135897834872615" lon="12.264258494332289"><ele>234.0</ele><time>2026-03-29T12:45:40Z</time></trkpt><trkpt lat="43.13598959161422" lon="12.264429155000673"><ele>233.66666666666669</ele><time>2026-03-29T12:45:41Z</time></trkpt><trkpt lat="43.13608398283064" lon="12.26461163723465"><ele>233.33333333333334</ele><time>2026-03-29T12:45:42Z</time></trkpt><trkpt lat="43.13618860454447" lon="12.264801635755525"><ele>233.0</ele><time>2026-03-29T12:45:43Z</time></trkpt><trkpt lat="43.136282027711076" lon="12.265014261177267"><ele>233.33333333333334</ele><time>2026-03-29T12:45:44Z</time></trkpt><trkpt lat="43.13638242557252" lon="12.265194213655633"><ele>233.66666666666669</ele><time>2026-03-29T12:45:45Z</time></trkpt><trkpt lat="43.1364727087853" lon="12.265373149100299"><ele>234.0</ele><time>2026-03-29T12:45:46Z</time></trkpt><trkpt lat="43.13655743584845" lon="12.265530823394403"><ele>234.0</ele><time>2026-03-29T12:45:47Z</time></trkpt><trkpt lat="43.136627080230156" lon="12.265662693718069"><ele>234.0</ele><time>2026-03-29T12:45:48Z</time></trkpt><trkpt lat="43.136693906322414" lon="12.265788408276773"><ele>234.0</ele><time>2026-03-29T12:45:49Z</time></trkpt><trkpt lat="43.13677081803877" lon="12.265930413284833"><ele>234.0</ele><time>2026-03-29T12:45:50Z</time></trkpt><trkpt lat="43.13685221385233" lon="12.266084321408059"><ele>234.0</ele><time>2026-03-29T12:45:51Z</time></trkpt><trkpt lat="43.13693289842996" lon="12.26624519819375"><ele>234.0</ele><time>2026-03-29T12:45:52Z</time></trkpt><trkpt lat="43.13701657778659" lon="12.266411236068656"><ele>234.0</ele><time>2026-03-29T12:45:53Z</time></trkpt><trkpt lat="43.13711243584239" lon="12.266596973195222"><ele>234.0</ele><time>2026-03-29T12:45:54Z</time></trkpt><trkpt lat="43.13722376882773" lon="12.266807913691972"><ele>234.0</ele><time>2026-03-29T12:45:55Z</time></trkpt><trkpt lat="43.13734700608533" lon="12.267045627233355"><ele>234.0</ele><time>2026-03-29T12:45:56Z</time></trkpt><trkpt lat="43.13746733466059" lon="12.267281902026475"><ele>235.0</ele><time>2026-03-29T12:45:57Z</time></trkpt><trkpt lat="43.13757486097084" lon="12.267493375695507"><ele>236.0</ele><time>2026-03-29T12:45:58Z</time></trkpt><trkpt lat="43.137682953166696" lon="12.267700288254881"><ele>237.0</ele><time>2026-03-29T12:45:59Z</time></trkpt><trkpt lat="43.13778029633936" lon="12.267886312846207"><ele>237.0</ele><time>2026-03-29T12:46:00Z</time></trkpt><trkpt lat="43.137874673290106" lon="12.268066905325986"><ele>237.0</ele><time>2026-03-29T12:46:01Z</time></trkpt><trkpt lat="43.137964842079796" lon="12.268234661431773"><ele>237.0</ele><time>2026-03-29T12:46:02Z</time></trkpt><trkpt lat="43.13804984698911" lon="12.268388796084926"><ele>236.75</ele><time>2026-03-29T12:46:03Z</time></trkpt><trkpt lat="43.13813512791483" lon="12.268531479620702"><ele>236.5</ele><time>2026-03-29T12:46:04Z</time></trkpt><trkpt lat="43.13821499373888" lon="12.268652815529594"><ele>236.25</ele><time>2026-03-29T12:46:05Z</time></trkpt><trkpt lat="43.13829433125215" lon="12.26876066162866"><ele>236.0</ele><time>2026-03-29T12:46:06Z</time></trkpt><trkpt lat="43.13837157742528" lon="12.268866949646494"><ele>236.0</ele><time>2026-03-29T12:46:07Z</time></trkpt><trkpt lat="43.138452388758076" lon="12.268974406863064"><ele>236.0</ele><time>2026-03-29T12:46:08Z</time></trkpt><trkpt lat="43.13853428282214" lon="12.269076681907444"><ele>236.0</ele><time>2026-03-29T12:46:09Z</time></trkpt><trkpt lat="43.13862639055566" lon="12.26918777340495"><ele>236.0</ele><time>2026-03-29T12:46:10Z</time></trkpt><trkpt lat="43.13871785717776" lon="12.269291461516058"><ele>236.0</ele><time>2026-03-29T12:46:11Z</time></trkpt><trkpt lat="43.13881133972501" lon="12.269403073886265"><ele>236.00000000000003</ele><time>2026-03-29T12:46:12Z</time></trkpt><trkpt lat="43.138900864788226" lon="12.269500774563916"><ele>236.00000000000003</ele><time>2026-03-29T12:46:13Z</time></trkpt><trkpt lat="43.13898356529609" lon="12.269581807609047"><ele>236.0</ele><time>2026-03-29T12:46:14Z</time></trkpt><trkpt lat="43.139061639586046" lon="12.269658209449743"><ele>236.0</ele><time>2026-03-29T12:46:15Z</time></trkpt><trkpt lat="43.13913144226432" lon="12.269731528074445"><ele>236.20000000000002</ele><time>2026-03-29T12:46:16Z</time></trkpt><trkpt lat="43.13918820075948" lon="12.269794594008053"><ele>236.40000000000003</ele><time>2026-03-29T12:46:17Z</time></trkpt><trkpt lat="43.1392469293801" lon="12.26987173604366"><ele>236.6</ele><time>2026-03-29T12:46:19Z</time></trkpt><trkpt lat="43.13930673736349" lon="12.269956673461412"><ele>236.8</ele><time>2026-03-29T12:46:23Z</time></trkpt><trkpt lat="43.13945135038477" lon="12.27000590432334"><ele>237.0</ele><time>2026-03-29T12:46:25Z</time></trkpt><trkpt lat="43.13953841530326" lon="12.270101929596258"><ele>237.0</ele><time>2026-03-29T12:46:26Z</time></trkpt><trkpt lat="43.13962229936163" lon="12.270185946267029"><ele>237.0</ele><time>2026-03-29T12:46:27Z</time></trkpt><trkpt lat="43.13970604280081" lon="12.270243320548857"><ele>237.0</ele><time>2026-03-29T12:46:28Z</time></trkpt><trkpt lat="43.139761523777516" lon="12.270308932087"><ele>237.0</ele><time>2026-03-29T12:46:29Z</time></trkpt><trkpt lat="43.13985097901247" lon="12.270381643331719"><ele>237.0</ele><time>2026-03-29T12:46:31Z</time></trkpt><trkpt lat="43.13993282679177" lon="12.270404054695874"><ele>237.66666666666669</ele><time>2026-03-29T12:46:33Z</time></trkpt><trkpt lat="43.14006170465084" lon="12.270141988844305"><ele>238.33333333333334</ele><time>2026-03-29T12:46:34Z</time></trkpt><trkpt lat="43.14012043567075" lon="12.26998904807434"><ele>239.0</ele><time>2026-03-29T12:46:34.999Z</time></trkpt><trkpt lat="43.14017182624441" lon="12.26980976841727"><ele>238.66666666666669</ele><time>2026-03-29T12:46:35.999Z</time></trkpt><trkpt lat="43.14025594304375" lon="12.26963410065047"><ele>238.33333333333331</ele><time>2026-03-29T12:46:36.999Z</time></trkpt><trkpt lat="43.14036332112399" lon="12.26948778100829"><ele>238.0</ele><time>2026-03-29T12:46:37.999Z</time></trkpt><trkpt lat="43.140464045334625" lon="12.269322007791354"><ele>238.0</ele><time>2026-03-29T12:46:38.999Z</time></trkpt><trkpt lat="43.14054762834402" lon="12.269134117228504"><ele>238.0</ele><time>2026-03-29T12:46:39.999Z</time></trkpt><trkpt lat="43.14061562726912" lon="12.268933699290368"><ele>238.0</ele><time>2026-03-29T12:46:40.999Z</time></trkpt><trkpt lat="43.140707210438265" lon="12.268758823366948"><ele>238.0</ele><time>2026-03-29T12:46:41.999Z</time></trkpt><trkpt lat="43.14081357231664" lon="12.268597154392092"><ele>238.0</ele><time>2026-03-29T12:46:42.999Z</time></trkpt><trkpt lat="43.14092034173875" lon="12.268459264595828"><ele>238.0</ele><time>2026-03-29T12:46:43.999Z</time></trkpt><trkpt lat="43.141020934454566" lon="12.268340519652433"><ele>238.0</ele><time>2026-03-29T12:46:44.999Z</time></trkpt><trkpt lat="43.1411067380622" lon="12.268233810009088"><ele>238.0</ele><time>2026-03-29T12:46:45.999Z</time></trkpt><trkpt lat="43.14119411930171" lon="12.268120811426629"><ele>238.0</ele><time>2026-03-29T12:46:46.999Z</time></trkpt><trkpt lat="43.141281034704" lon="12.26800467622487"><ele>238.0</ele><time>2026-03-29T12:46:47.999Z</time></trkpt><trkpt lat="43.14138598543736" lon="12.267866483589573"><ele>238.0</ele><time>2026-03-29T12:46:48.999Z</time></trkpt><trkpt lat="43.14150049586494" lon="12.26772286636072"><ele>238.0</ele><time>2026-03-29T12:46:49.999Z</time></trkpt><trkpt lat="43.14161195657553" lon="12.267573253447582"><ele>238.0</ele><time>2026-03-29T12:46:50.999Z</time></trkpt><trkpt lat="43.141719677829876" lon="12.26743119227732"><ele>238.0</ele><time>2026-03-29T12:46:51.999Z</time></trkpt><trkpt lat="43.14181881724043" lon="12.26730048113992"><ele>238.0</ele><time>2026-03-29T12:46:52.999Z</time></trkpt><trkpt lat="43.14191105072639" lon="12.267182614721738"><ele>237.99999999999997</ele><time>2026-03-29T12:46:53.999Z</time></trkpt><trkpt lat="43.141991656156875" lon="12.267075542585511"><ele>238.0</ele><time>2026-03-29T12:46:54.999Z</time></trkpt><trkpt lat="43.142058685176465" lon="12.266984073022762"><ele>238.0</ele><time>2026-03-29T12:46:55.999Z</time></trkpt><trkpt lat="43.14211668983403" lon="12.266915879797107"><ele>238.0</ele><time>2026-03-29T12:46:56.999Z</time></trkpt><trkpt lat="43.1421772768898" lon="12.266874021776102"><ele>237.99999999999997</ele><time>2026-03-29T12:46:57.999Z</time></trkpt><trkpt lat="43.14224815531272" lon="12.266862539720734"><ele>238.0</ele><time>2026-03-29T12:46:58.999Z</time></trkpt><trkpt lat="43.14236270696181" lon="12.266876947328676"><ele>238.75</ele><time>2026-03-29T12:46:59.999Z</time></trkpt><trkpt lat="43.142493297314005" lon="12.266923732532765"><ele>239.5</ele><time>2026-03-29T12:47:00.999Z</time></trkpt><trkpt lat="43.14262463206171" lon="12.266957937346328"><ele>240.25</ele><time>2026-03-29T12:47:01.999Z</time></trkpt><trkpt lat="43.14275430160157" lon="12.266982804486188"><ele>241.0</ele><time>2026-03-29T12:47:02.999Z</time></trkpt><trkpt lat="43.14287269086543" lon="12.267005512937487"><ele>241.0</ele><time>2026-03-29T12:47:03.999Z</time></trkpt><trkpt lat="43.14298808957275" lon="12.267014741603719"><ele>241.00000000000003</ele><time>2026-03-29T12:47:04.999Z</time></trkpt><trkpt lat="43.14309195206915" lon="12.267012922893349"><ele>241.00000000000003</ele><time>2026-03-29T12:47:05.999Z</time></trkpt><trkpt lat="43.14319133341197" lon="12.267008623160475"><ele>241.0</ele><time>2026-03-29T12:47:06.999Z</time></trkpt><trkpt lat="43.14328342748559" lon="12.267002551316581"><ele>241.0</ele><time>2026-03-29T12:47:07.999Z</time></trkpt><trkpt lat="43.1433763608829" lon="12.267006726246807"><ele>241.25</ele><time>2026-03-29T12:47:08.999Z</time></trkpt><trkpt lat="43.14348525461905" lon="12.267049394905118"><ele>241.5</ele><time>2026-03-29T12:47:09.999Z</time></trkpt><trkpt lat="43.14359258300237" lon="12.267157535117052"><ele>241.75</ele><time>2026-03-29T12:47:10.999Z</time></trkpt><trkpt lat="43.143694379416466" lon="12.267294411355596"><ele>242.0</ele><time>2026-03-29T12:47:11.999Z</time></trkpt><trkpt lat="43.14378878139533" lon="12.26746154876434"><ele>241.33333333333334</ele><time>2026-03-29T12:47:12.999Z</time></trkpt><trkpt lat="43.14391266186578" lon="12.267619149836326"><ele>240.66666666666669</ele><time>2026-03-29T12:47:13.999Z</time></trkpt><trkpt lat="43.14402386404071" lon="12.267776499316708"><ele>240.0</ele><time>2026-03-29T12:47:14.999Z</time></trkpt><trkpt lat="43.14412412864357" lon="12.267923567814838"><ele>239.75</ele><time>2026-03-29T12:47:15.999Z</time></trkpt><trkpt lat="43.144230204573084" lon="12.268050509312502"><ele>239.5</ele><time>2026-03-29T12:47:16.999Z</time></trkpt><trkpt lat="43.14435089973182" lon="12.268153536607663"><ele>239.25</ele><time>2026-03-29T12:47:17.999Z</time></trkpt><trkpt lat="43.14448260145523" lon="12.268241582262169"><ele>239.0</ele><time>2026-03-29T12:47:18.999Z</time></trkpt><trkpt lat="43.14462108446837" lon="12.268328730208083"><ele>239.0</ele><time>2026-03-29T12:47:19.999Z</time></trkpt><trkpt lat="43.1447500153734" lon="12.268439040484784"><ele>239.0</ele><time>2026-03-29T12:47:20.999Z</time></trkpt><trkpt lat="43.14487509929774" lon="12.268577096044096"><ele>239.0</ele><time>2026-03-29T12:47:21.999Z</time></trkpt><trkpt lat="43.144998576951174" lon="12.268715646512183"><ele>239.5</ele><time>2026-03-29T12:47:22.999Z</time></trkpt><trkpt lat="43.14510853685448" lon="12.268847492563324"><ele>240.0</ele><time>2026-03-29T12:47:23.999Z</time></trkpt><trkpt lat="43.14519961598246" lon="12.268972085973573"><ele>240.5</ele><time>2026-03-29T12:47:24.999Z</time></trkpt><trkpt lat="43.145270633054174" lon="12.269114941281726"><ele>241.0</ele><time>2026-03-29T12:47:25.999Z</time></trkpt><trkpt lat="43.145326031175" lon="12.269268049382765"><ele>241.25</ele><time>2026-03-29T12:47:26.999Z</time></trkpt><trkpt lat="43.14535760233121" lon="12.269430441414459"><ele>241.5</ele><time>2026-03-29T12:47:27.998Z</time></trkpt><trkpt lat="43.14534229409694" lon="12.269596081966947"><ele>241.75</ele><time>2026-03-29T12:47:28.998Z</time></trkpt><trkpt lat="43.14533005676762" lon="12.269782254213725"><ele>242.0</ele><time>2026-03-29T12:47:29.998Z</time></trkpt><trkpt lat="43.145316770959894" lon="12.269985237372335"><ele>242.5</ele><time>2026-03-29T12:47:30.998Z</time></trkpt><trkpt lat="43.145304682398724" lon="12.270189984363876"><ele>243.0</ele><time>2026-03-29T12:47:31.998Z</time></trkpt><trkpt lat="43.14529506418708" lon="12.2703784692006"><ele>243.5</ele><time>2026-03-29T12:47:32.998Z</time></trkpt><trkpt lat="43.14529875593185" lon="12.270549781719303"><ele>244.0</ele><time>2026-03-29T12:47:33.998Z</time></trkpt><trkpt lat="43.14528424888936" lon="12.270689681530742"><ele>244.75</ele><time>2026-03-29T12:47:34.998Z</time></trkpt><trkpt lat="43.14525833159867" lon="12.270820321767284"><ele>245.5</ele><time>2026-03-29T12:47:36Z</time></trkpt><trkpt lat="43.145205526180995" lon="12.270963384160982"><ele>246.25</ele><time>2026-03-29T12:47:37Z</time></trkpt><trkpt lat="43.145140680030885" lon="12.27111507524747"><ele>247.0</ele><time>2026-03-29T12:47:38Z</time></trkpt><trkpt lat="43.145074502136254" lon="12.2712724713002"><ele>247.0</ele><time>2026-03-29T12:47:39Z</time></trkpt><trkpt lat="43.14501489528761" lon="12.271428506919754"><ele>247.0</ele><time>2026-03-29T12:47:40Z</time></trkpt><trkpt lat="43.14496567923092" lon="12.27156422246219"><ele>247.0</ele><time>2026-03-29T12:47:41Z</time></trkpt><trkpt lat="43.14493415814475" lon="12.271684746170909"><ele>247.0</ele><time>2026-03-29T12:47:42Z</time></trkpt><trkpt lat="43.14492217333969" lon="12.271808968873898"><ele>247.0</ele><time>2026-03-29T12:47:43Z</time></trkpt><trkpt lat="43.14492693257175" lon="12.27194217617018"><ele>247.6</ele><time>2026-03-29T12:47:44Z</time></trkpt><trkpt lat="43.14493442794683" lon="12.272075038271067"><ele>248.2</ele><time>2026-03-29T12:47:45Z</time></trkpt><trkpt lat="43.1449379709526" lon="12.272201476030785"><ele>248.8</ele><time>2026-03-29T12:47:46Z</time></trkpt><trkpt lat="43.14494283905763" lon="12.272322234688975"><ele>249.4</ele><time>2026-03-29T12:47:47Z</time></trkpt><trkpt lat="43.14494878521136" lon="12.272457009073692"><ele>250.0</ele><time>2026-03-29T12:47:48Z</time></trkpt><trkpt lat="43.144956729165756" lon="12.272583866184535"><ele>250.2</ele><time>2026-03-29T12:47:49Z</time></trkpt><trkpt lat="43.14496651561252" lon="12.272717675996669"><ele>250.4</ele><time>2026-03-29T12:47:50Z</time></trkpt><trkpt lat="43.14497297708602" lon="12.272865471555948"><ele>250.60000000000002</ele><time>2026-03-29T12:47:51Z</time></trkpt><trkpt lat="43.144992056160525" lon="12.273019120640091"><ele>250.8</ele><time>2026-03-29T12:47:52Z</time></trkpt><trkpt lat="43.1450075042724" lon="12.273186529731221"><ele>251.0</ele><time>2026-03-29T12:47:53Z</time></trkpt><trkpt lat="43.145024286156605" lon="12.273361091541009"><ele>250.4</ele><time>2026-03-29T12:47:54Z</time></trkpt><trkpt lat="43.145042530041906" lon="12.273531639619355"><ele>249.8</ele><time>2026-03-29T12:47:55Z</time></trkpt><trkpt lat="43.14505731107406" lon="12.27369421406634"><ele>249.20000000000002</ele><time>2026-03-29T12:47:56Z</time></trkpt><trkpt lat="43.1450694895337" lon="12.27384853653935"><ele>248.60000000000002</ele><time>2026-03-29T12:47:57Z</time></trkpt><trkpt lat="43.14507926896177" lon="12.273970298179329"><ele>248.0</ele><time>2026-03-29T12:47:58Z</time></trkpt><trkpt lat="43.145101249224254" lon="12.274081004837274"><ele>247.33333333333334</ele><time>2026-03-29T12:47:59Z</time></trkpt><trkpt lat="43.14513452634635" lon="12.274167308992428"><ele>246.66666666666669</ele><time>2026-03-29T12:48:00Z</time></trkpt><trkpt lat="43.14517101314567" lon="12.27424180095545"><ele>246.0</ele><time>2026-03-29T12:48:01Z</time></trkpt><trkpt lat="43.145215141606315" lon="12.274337370240106"><ele>245.33333333333331</ele><time>2026-03-29T12:48:03Z</time></trkpt><trkpt lat="43.14528225012634" lon="12.274442763472958"><ele>244.66666666666666</ele><time>2026-03-29T12:48:05Z</time></trkpt><trkpt lat="43.145330426467055" lon="12.27450378989899"><ele>244.0</ele><time>2026-03-29T12:48:06Z</time></trkpt><trkpt lat="43.14539763536153" lon="12.27458046688709"><ele>244.0</ele><time>2026-03-29T12:48:07Z</time></trkpt><trkpt lat="43.14546928006833" lon="12.274652856611274"><ele>243.99999999999997</ele><time>2026-03-29T12:48:08Z</time></trkpt><trkpt lat="43.14556309508916" lon="12.274734156857058"><ele>243.99999999999997</ele><time>2026-03-29T12:48:09Z</time></trkpt><trkpt lat="43.14565543082508" lon="12.274792413708912"><ele>244.0</ele><time>2026-03-29T12:48:10Z</time></trkpt><trkpt lat="43.145768894295564" lon="12.274834408074817"><ele>244.0</ele><time>2026-03-29T12:48:11Z</time></trkpt><trkpt lat="43.145889688860095" lon="12.274868051550499"><ele>243.79999999999998</ele><time>2026-03-29T12:48:12Z</time></trkpt><trkpt lat="43.14601986968817" lon="12.27489980658523"><ele>243.59999999999997</ele><time>2026-03-29T12:48:13Z</time></trkpt><trkpt lat="43.14613869489425" lon="12.274902462584844"><ele>243.4</ele><time>2026-03-29T12:48:14Z</time></trkpt><trkpt lat="43.14624596893319" lon="12.274927233104192"><ele>243.2</ele><time>2026-03-29T12:48:15Z</time></trkpt><trkpt lat="43.14633509543621" lon="12.274936463205377"><ele>243.0</ele><time>2026-03-29T12:48:16Z</time></trkpt><trkpt lat="43.14642584908707" lon="12.274962101506162"><ele>243.0</ele><time>2026-03-29T12:48:17Z</time></trkpt><trkpt lat="43.14651789964684" lon="12.274944131133475"><ele>243.0</ele><time>2026-03-29T12:48:18Z</time></trkpt><trkpt lat="43.14663208478629" lon="12.274937132247702"><ele>243.0</ele><time>2026-03-29T12:48:19Z</time></trkpt><trkpt lat="43.14674035491089" lon="12.274937432312125"><ele>243.0</ele><time>2026-03-29T12:48:20Z</time></trkpt><trkpt lat="43.14684361400264" lon="12.274917707088353"><ele>243.0</ele><time>2026-03-29T12:48:21Z</time></trkpt><trkpt lat="43.14693213077013" lon="12.274906402332704"><ele>243.5</ele><time>2026-03-29T12:48:22Z</time></trkpt><trkpt lat="43.14701687369315" lon="12.274923056425083"><ele>244.0</ele><time>2026-03-29T12:48:23Z</time></trkpt><trkpt lat="43.14707997422441" lon="12.274963466055246"><ele>244.5</ele><time>2026-03-29T12:48:24Z</time></trkpt><trkpt lat="43.14711731167781" lon="12.275044576171542"><ele>245.0</ele><time>2026-03-29T12:48:25Z</time></trkpt><trkpt lat="43.147149476645296" lon="12.275164163413738"><ele>245.5</ele><time>2026-03-29T12:48:26Z</time></trkpt><trkpt lat="43.147202410073355" lon="12.275276149680172"><ele>246.0</ele><time>2026-03-29T12:48:27Z</time></trkpt><trkpt lat="43.14723042665188" lon="12.27540690005989"><ele>246.0</ele><time>2026-03-29T12:48:27.999Z</time></trkpt><trkpt lat="43.147272311549294" lon="12.275516450745805"><ele>246.00000000000003</ele><time>2026-03-29T12:48:28.999Z</time></trkpt><trkpt lat="43.14731497859363" lon="12.275643816079283"><ele>246.00000000000003</ele><time>2026-03-29T12:48:29.999Z</time></trkpt><trkpt lat="43.14736093043836" lon="12.275784580180918"><ele>246.0</ele><time>2026-03-29T12:48:30.999Z</time></trkpt><trkpt lat="43.14740442101578" lon="12.275932270357568"><ele>246.0</ele><time>2026-03-29T12:48:31.999Z</time></trkpt><trkpt lat="43.14744757628041" lon="12.276075050676212"><ele>245.8</ele><time>2026-03-29T12:48:32.999Z</time></trkpt><trkpt lat="43.14749295845562" lon="12.276219241872557"><ele>245.60000000000002</ele><time>2026-03-29T12:48:33.999Z</time></trkpt><trkpt lat="43.1475379497777" lon="12.276364469828074"><ele>245.4</ele><time>2026-03-29T12:48:34.999Z</time></trkpt><trkpt lat="43.14758459381918" lon="12.276506687370723"><ele>245.2</ele><time>2026-03-29T12:48:35.999Z</time></trkpt><trkpt lat="43.14761598885039" lon="12.276622078940505"><ele>245.0</ele><time>2026-03-29T12:48:36.999Z</time></trkpt><trkpt lat="43.147678231809586" lon="12.276775485383626"><ele>245.00000000000003</ele><time>2026-03-29T12:48:38.999Z</time></trkpt><trkpt lat="43.147736588739676" lon="12.276843587358522"><ele>245.0</ele><time>2026-03-29T12:48:39.999Z</time></trkpt><trkpt lat="43.147803278766496" lon="12.276885563380276"><ele>245.0</ele><time>2026-03-29T12:48:40.999Z</time></trkpt><trkpt lat="43.14789270499879" lon="12.276927144308212"><ele>245.0</ele><time>2026-03-29T12:48:41.999Z</time></trkpt><trkpt lat="43.14796898214128" lon="12.276961562907145"><ele>245.00000000000003</ele><time>2026-03-29T12:48:42.999Z</time></trkpt><trkpt lat="43.148071821774124" lon="12.27697265565676"><ele>245.0</ele><time>2026-03-29T12:48:44.999Z</time></trkpt><trkpt lat="43.14817766067399" lon="12.276984297149511"><ele>245.2</ele><time>2026-03-29T12:48:46.999Z</time></trkpt><trkpt lat="43.14829561114176" lon="12.277037412833163"><ele>245.4</ele><time>2026-03-29T12:48:48.999Z</time></trkpt><trkpt lat="43.14836311651351" lon="12.277111509235077"><ele>245.60000000000002</ele><time>2026-03-29T12:48:49.999Z</time></trkpt><trkpt lat="43.14843789867776" lon="12.277197594216332"><ele>245.8</ele><time>2026-03-29T12:48:50.999Z</time></trkpt><trkpt lat="43.1485114960685" lon="12.277265884495623"><ele>246.0</ele><time>2026-03-29T12:48:51.999Z</time></trkpt><trkpt lat="43.14858626410669" lon="12.277284074878427"><ele>246.4</ele><time>2026-03-29T12:48:52.999Z</time></trkpt><trkpt lat="43.14866473224547" lon="12.277261136327693"><ele>246.8</ele><time>2026-03-29T12:48:53.999Z</time></trkpt><trkpt lat="43.14876380202687" lon="12.277213594054967"><ele>247.20000000000002</ele><time>2026-03-29T12:48:54.999Z</time></trkpt><trkpt lat="43.148867159136636" lon="12.277156631937908"><ele>247.60000000000002</ele><time>2026-03-29T12:48:55.999Z</time></trkpt><trkpt lat="43.14897582923027" lon="12.277099396248902"><ele>248.0</ele><time>2026-03-29T12:48:56.999Z</time></trkpt><trkpt lat="43.149088394085645" lon="12.277045679876242"><ele>248.0</ele><time>2026-03-29T12:48:57.999Z</time></trkpt><trkpt lat="43.14920894133396" lon="12.277001481388579"><ele>248.0</ele><time>2026-03-29T12:48:58.999Z</time></trkpt><trkpt lat="43.14932175511735" lon="12.27695131275794"><ele>248.0</ele><time>2026-03-29T12:48:59.999Z</time></trkpt><trkpt lat="43.149438489769665" lon="12.276886012690866"><ele>248.0</ele><time>2026-03-29T12:49:00.999Z</time></trkpt><trkpt lat="43.14954972852884" lon="12.27683061392435"><ele>248.0</ele><time>2026-03-29T12:49:01.999Z</time></trkpt><trkpt lat="43.14964482913593" lon="12.276785365117703"><ele>248.0</ele><time>2026-03-29T12:49:02.999Z</time></trkpt><trkpt lat="43.14973020703903" lon="12.276746583271143"><ele>248.0</ele><time>2026-03-29T12:49:03.999Z</time></trkpt><trkpt lat="43.149832533732926" lon="12.276704214711275"><ele>248.0</ele><time>2026-03-29T12:49:04.999Z</time></trkpt><trkpt lat="43.14993741747212" lon="12.27665361966498"><ele>248.0</ele><time>2026-03-29T12:49:05.999Z</time></trkpt><trkpt lat="43.15004317627038" lon="12.276586340643608"><ele>248.0</ele><time>2026-03-29T12:49:06.999Z</time></trkpt><trkpt lat="43.15014349751574" lon="12.276524847708579"><ele>248.0</ele><time>2026-03-29T12:49:07.999Z</time></trkpt><trkpt lat="43.15027142401615" lon="12.276472976458834"><ele>248.0</ele><time>2026-03-29T12:49:08.999Z</time></trkpt><trkpt lat="43.15037253440975" lon="12.27640982072905"><ele>248.0</ele><time>2026-03-29T12:49:09.999Z</time></trkpt><trkpt lat="43.150471073686745" lon="12.276359196412129"><ele>247.83333333333334</ele><time>2026-03-29T12:49:10.999Z</time></trkpt><trkpt lat="43.1505654027371" lon="12.276324155387341"><ele>247.66666666666669</ele><time>2026-03-29T12:49:11.999Z</time></trkpt><trkpt lat="43.15065200786872" lon="12.2763142220853"><ele>247.5</ele><time>2026-03-29T12:49:12.999Z</time></trkpt><trkpt lat="43.15072081580122" lon="12.276341974006073"><ele>247.33333333333331</ele><time>2026-03-29T12:49:13.999Z</time></trkpt><trkpt lat="43.150803101189474" lon="12.276399965180135"><ele>247.16666666666666</ele><time>2026-03-29T12:49:14.999Z</time></trkpt><trkpt lat="43.15088922772447" lon="12.2764584126284"><ele>247.0</ele><time>2026-03-29T12:49:15.999Z</time></trkpt><trkpt lat="43.15098572887754" lon="12.27650077378897"><ele>247.8</ele><time>2026-03-29T12:49:16.999Z</time></trkpt><trkpt lat="43.1510731964842" lon="12.276508775448631"><ele>248.6</ele><time>2026-03-29T12:49:18.999Z</time></trkpt><trkpt lat="43.15114873706023" lon="12.276433963867438"><ele>249.40000000000003</ele><time>2026-03-29T12:49:20.998Z</time></trkpt><trkpt lat="43.151214992419014" lon="12.27638858508023"><ele>250.20000000000002</ele><time>2026-03-29T12:49:21.998Z</time></trkpt><trkpt lat="43.15130441816542" lon="12.276344603387294"><ele>251.0</ele><time>2026-03-29T12:49:22.998Z</time></trkpt><trkpt lat="43.151411371003846" lon="12.27630769964397"><ele>251.20000000000002</ele><time>2026-03-29T12:49:23.998Z</time></trkpt><trkpt lat="43.151503173181354" lon="12.27626935809107"><ele>251.40000000000003</ele><time>2026-03-29T12:49:24.998Z</time></trkpt><trkpt lat="43.1516007769278" lon="12.27622965643204"><ele>251.6</ele><time>2026-03-29T12:49:25.998Z</time></trkpt><trkpt lat="43.15170784663709" lon="12.27619942156133"><ele>251.8</ele><time>2026-03-29T12:49:26.998Z</time></trkpt><trkpt lat="43.151827852923695" lon="12.276152617289902"><ele>252.0</ele><time>2026-03-29T12:49:27.998Z</time></trkpt><trkpt lat="43.15192710930486" lon="12.27610040838339"><ele>254.6</ele><time>2026-03-29T12:49:28.998Z</time></trkpt><trkpt lat="43.1520162527019" lon="12.276037866639445"><ele>257.2</ele><time>2026-03-29T12:49:29.998Z</time></trkpt><trkpt lat="43.15210056931585" lon="12.275969491971624"><ele>259.8</ele><time>2026-03-29T12:49:30.998Z</time></trkpt><trkpt lat="43.15217383499878" lon="12.27589838185122"><ele>262.4</ele><time>2026-03-29T12:49:31.998Z</time></trkpt><trkpt lat="43.152227227084545" lon="12.275806233962763"><ele>265.0</ele><time>2026-03-29T12:49:32.998Z</time></trkpt><trkpt lat="43.152274639216095" lon="12.275680290430758"><ele>265.6</ele><time>2026-03-29T12:49:33.998Z</time></trkpt><trkpt lat="43.15230558625252" lon="12.275564457988985"><ele>266.2</ele><time>2026-03-29T12:49:34.998Z</time></trkpt><trkpt lat="43.152351083276244" lon="12.275422805355444"><ele>266.8</ele><time>2026-03-29T12:49:35.998Z</time></trkpt><trkpt lat="43.15239158259216" lon="12.27530974932788"><ele>267.4</ele><time>2026-03-29T12:49:36.998Z</time></trkpt><trkpt lat="43.15246528560714" lon="12.27521898217786"><ele>268.0</ele><time>2026-03-29T12:49:38.998Z</time></trkpt><trkpt lat="43.152587587079516" lon="12.275180336714191"><ele>270.5</ele><time>2026-03-29T12:49:41Z</time></trkpt><trkpt lat="43.152661757537146" lon="12.275155563885582"><ele>273.0</ele><time>2026-03-29T12:49:42Z</time></trkpt><trkpt lat="43.15274679517427" lon="12.275173872681028"><ele>275.5</ele><time>2026-03-29T12:49:43Z</time></trkpt><trkpt lat="43.152808024868264" lon="12.275201233331359"><ele>278.0</ele><time>2026-03-29T12:49:44Z</time></trkpt><trkpt lat="43.15291074082387" lon="12.275161548157834"><ele>280.5</ele><time>2026-03-29T12:49:46Z</time></trkpt><trkpt lat="43.15299322666726" lon="12.275129591659779"><ele>283.0</ele><time>2026-03-29T12:49:47Z</time></trkpt><trkpt lat="43.15306842608759" lon="12.275115076725754"><ele>283.0</ele><time>2026-03-29T12:49:48Z</time></trkpt><trkpt lat="43.15314394886276" lon="12.275086629154773"><ele>283.0</ele><time>2026-03-29T12:49:49Z</time></trkpt><trkpt lat="43.15320983084203" lon="12.275077402646026"><ele>283.0</ele><time>2026-03-29T12:49:50Z</time></trkpt><trkpt lat="43.15331011820904" lon="12.275097548474008"><ele>283.0</ele><time>2026-03-29T12:49:52Z</time></trkpt><trkpt lat="43.15342340734798" lon="12.275080281922678"><ele>283.0</ele><time>2026-03-29T12:49:54Z</time></trkpt><trkpt lat="43.15348228882006" lon="12.275025550151357"><ele>283.0</ele><time>2026-03-29T12:49:55Z</time></trkpt><trkpt lat="43.15353826586952" lon="12.274943657472676"><ele>286.8</ele><time>2026-03-29T12:49:56Z</time></trkpt><trkpt lat="43.153622158372094" lon="12.274849651879714"><ele>290.6</ele><time>2026-03-29T12:49:58Z</time></trkpt><trkpt lat="43.15370593033494" lon="12.27481951215194"><ele>294.4</ele><time>2026-03-29T12:50:00Z</time></trkpt><trkpt lat="43.15382547834422" lon="12.274843783827146"><ele>298.2</ele><time>2026-03-29T12:50:02Z</time></trkpt><trkpt lat="43.153927396895604" lon="12.27483714425532"><ele>302.0</ele><time>2026-03-29T12:50:03Z</time></trkpt><trkpt lat="43.154009669496084" lon="12.274854789403781"><ele>305.25</ele><time>2026-03-29T12:50:04Z</time></trkpt><trkpt lat="43.15411873131087" lon="12.274919381870308"><ele>308.5</ele><time>2026-03-29T12:50:06Z</time></trkpt><trkpt lat="43.154249038434706" lon="12.274977443583145"><ele>311.75</ele><time>2026-03-29T12:50:08Z</time></trkpt><trkpt lat="43.15432737248676" lon="12.275050948076816"><ele>315.0</ele><time>2026-03-29T12:50:09Z</time></trkpt><trkpt lat="43.1544229805437" lon="12.275111449970375"><ele>315.0</ele><time>2026-03-29T12:50:10Z</time></trkpt><trkpt lat="43.15452682528005" lon="12.275159687716624"><ele>315.0</ele><time>2026-03-29T12:50:11Z</time></trkpt><trkpt lat="43.154640268048716" lon="12.275197678824435"><ele>315.0</ele><time>2026-03-29T12:50:12Z</time></trkpt><trkpt lat="43.15475675396925" lon="12.275225857901198"><ele>315.0</ele><time>2026-03-29T12:50:13Z</time></trkpt><trkpt lat="43.1548685219518" lon="12.275258044528211"><ele>316.6</ele><time>2026-03-29T12:50:14Z</time></trkpt><trkpt lat="43.15497665749406" lon="12.275281035390673"><ele>318.2</ele><time>2026-03-29T12:50:15Z</time></trkpt><trkpt lat="43.155077322136194" lon="12.275307485020392"><ele>319.79999999999995</ele><time>2026-03-29T12:50:16Z</time></trkpt><trkpt lat="43.15517518864431" lon="12.275338282163165"><ele>321.4</ele><time>2026-03-29T12:50:17Z</time></trkpt><trkpt lat="43.15526933987102" lon="12.275371925593111"><ele>323.0</ele><time>2026-03-29T12:50:18Z</time></trkpt><trkpt lat="43.155376984065285" lon="12.275406253996326"><ele>323.0</ele><time>2026-03-29T12:50:19Z</time></trkpt><trkpt lat="43.15549399313606" lon="12.27544060912171"><ele>323.0</ele><time>2026-03-29T12:50:20Z</time></trkpt><trkpt lat="43.15561718193307" lon="12.275473487113839"><ele>323.0</ele><time>2026-03-29T12:50:21Z</time></trkpt><trkpt lat="43.15574897606444" lon="12.275513696946973"><ele>323.0</ele><time>2026-03-29T12:50:22Z</time></trkpt><trkpt lat="43.155875843603084" lon="12.275554974409786"><ele>323.4</ele><time>2026-03-29T12:50:23Z</time></trkpt><trkpt lat="43.15598501804471" lon="12.275597133184322"><ele>323.79999999999995</ele><time>2026-03-29T12:50:24Z</time></trkpt><trkpt lat="43.15607792566903" lon="12.275645328994758"><ele>324.2</ele><time>2026-03-29T12:50:25Z</time></trkpt><trkpt lat="43.1561674656631" lon="12.27569809756481"><ele>324.6</ele><time>2026-03-29T12:50:26Z</time></trkpt><trkpt lat="43.15624834169438" lon="12.2757507439189"><ele>325.0</ele><time>2026-03-29T12:50:27Z</time></trkpt><trkpt lat="43.15632628985538" lon="12.275805069825466"><ele>325.0</ele><time>2026-03-29T12:50:28Z</time></trkpt><trkpt lat="43.15640282492095" lon="12.275854119948324"><ele>325.0</ele><time>2026-03-29T12:50:29Z</time></trkpt><trkpt lat="43.15648315966903" lon="12.275906670252233"><ele>325.0</ele><time>2026-03-29T12:50:30Z</time></trkpt><trkpt lat="43.15656242249819" lon="12.275947613387393"><ele>325.0</ele><time>2026-03-29T12:50:31Z</time></trkpt><trkpt lat="43.15663668583353" lon="12.275984593624727"><ele>325.0</ele><time>2026-03-29T12:50:32Z</time></trkpt><trkpt lat="43.156704883306936" lon="12.275995667082496"><ele>325.0</ele><time>2026-03-29T12:50:33Z</time></trkpt><trkpt lat="43.15677572351494" lon="12.275998567606049"><ele>325.0</ele><time>2026-03-29T12:50:34Z</time></trkpt><trkpt lat="43.15688653976762" lon="12.2759961580135"><ele>325.0</ele><time>2026-03-29T12:50:36Z</time></trkpt><trkpt lat="43.15696515211404" lon="12.276056340903725"><ele>325.0</ele><time>2026-03-29T12:50:38Z</time></trkpt><trkpt lat="43.15703087152698" lon="12.276196905979813"><ele>325.0</ele><time>2026-03-29T12:50:40Z</time></trkpt><trkpt lat="43.15706165545795" lon="12.27627341540451"><ele>325.0</ele><time>2026-03-29T12:50:41Z</time></trkpt><trkpt lat="43.15709971916121" lon="12.276389740762356"><ele>325.0</ele><time>2026-03-29T12:50:42.999Z</time></trkpt><trkpt lat="43.15713229987007" lon="12.276470718897352"><ele>325.0</ele><time>2026-03-29T12:50:44.999Z</time></trkpt><trkpt lat="43.157192737039374" lon="12.276425327129077"><ele>325.0</ele><time>2026-03-29T12:50:48.999Z</time></trkpt><trkpt lat="43.15721708286381" lon="12.276277938939286"><ele>325.0</ele><time>2026-03-29T12:50:50.999Z</time></trkpt><trkpt lat="43.1572161421256" lon="12.276183291548806"><ele>325.0</ele><time>2026-03-29T12:50:51.999Z</time></trkpt><trkpt lat="43.157214063908846" lon="12.276082317900654"><ele>325.0</ele><time>2026-03-29T12:50:52.999Z</time></trkpt><trkpt lat="43.157213471755796" lon="12.275949334089027"><ele>325.0</ele><time>2026-03-29T12:50:53.999Z</time></trkpt><trkpt lat="43.15719969776605" lon="12.275826397543264"><ele>325.0</ele><time>2026-03-29T12:50:54.999Z</time></trkpt><trkpt lat="43.15719353871883" lon="12.275685129615518"><ele>325.0</ele><time>2026-03-29T12:50:55.999Z</time></trkpt><trkpt lat="43.15719780876712" lon="12.275532684457389"><ele>325.0</ele><time>2026-03-29T12:50:56.999Z</time></trkpt><trkpt lat="43.15718818098475" lon="12.275399448213902"><ele>325.0</ele><time>2026-03-29T12:50:57.999Z</time></trkpt><trkpt lat="43.15718935431702" lon="12.275269697912035"><ele>324.8</ele><time>2026-03-29T12:50:58.999Z</time></trkpt><trkpt lat="43.157199312760675" lon="12.275135364215574"><ele>324.6</ele><time>2026-03-29T12:50:59.999Z</time></trkpt><trkpt lat="43.15721122171937" lon="12.274980907928102"><ele>324.4</ele><time>2026-03-29T12:51:00.999Z</time></trkpt><trkpt lat="43.15722018386209" lon="12.274840103882019"><ele>324.2</ele><time>2026-03-29T12:51:01.999Z</time></trkpt><trkpt lat="43.157238332146456" lon="12.274694107370372"><ele>324.0</ele><time>2026-03-29T12:51:02.999Z</time></trkpt><trkpt lat="43.15725646323524" lon="12.27455712544053"><ele>321.4</ele><time>2026-03-29T12:51:03.999Z</time></trkpt><trkpt lat="43.15728100565189" lon="12.274405401662117"><ele>318.79999999999995</ele><time>2026-03-29T12:51:04.999Z</time></trkpt><trkpt lat="43.157294494312936" lon="12.274263723129105"><ele>316.20000000000005</ele><time>2026-03-29T12:51:05.999Z</time></trkpt><trkpt lat="43.15730779831373" lon="12.27414109007508"><ele>313.6</ele><time>2026-03-29T12:51:06.999Z</time></trkpt><trkpt lat="43.15732824857515" lon="12.274041297792126"><ele>311.0</ele><time>2026-03-29T12:51:07.999Z</time></trkpt><trkpt lat="43.157381853896965" lon="12.273977334666338"><ele>310.6</ele><time>2026-03-29T12:51:09.999Z</time></trkpt><trkpt lat="43.15748382000047" lon="12.274031540106902"><ele>310.20000000000005</ele><time>2026-03-29T12:51:11.999Z</time></trkpt><trkpt lat="43.15755400027671" lon="12.27410932647169"><ele>309.79999999999995</ele><time>2026-03-29T12:51:12.999Z</time></trkpt><trkpt lat="43.15762268670705" lon="12.274203066055467"><ele>309.4</ele><time>2026-03-29T12:51:13.999Z</time></trkpt><trkpt lat="43.15771810026044" lon="12.274302869705698"><ele>309.0</ele><time>2026-03-29T12:51:14.999Z</time></trkpt><trkpt lat="43.15780479933784" lon="12.274403986738516"><ele>309.0</ele><time>2026-03-29T12:51:15.999Z</time></trkpt><trkpt lat="43.15789396709251" lon="12.274509414637274"><ele>309.0</ele><time>2026-03-29T12:51:16.999Z</time></trkpt><trkpt lat="43.157980678162" lon="12.274613570933388"><ele>309.0</ele><time>2026-03-29T12:51:17.999Z</time></trkpt><trkpt lat="43.15806033234303" lon="12.274708959167423"><ele>309.0</ele><time>2026-03-29T12:51:18.999Z</time></trkpt><trkpt lat="43.15812770395123" lon="12.274801038056774"><ele>309.0</ele><time>2026-03-29T12:51:19.999Z</time></trkpt><trkpt lat="43.15819349544075" lon="12.274916264403167"><ele>306.2</ele><time>2026-03-29T12:51:20.999Z</time></trkpt><trkpt lat="43.15823227231327" lon="12.275016607295674"><ele>303.4</ele><time>2026-03-29T12:51:21.999Z</time></trkpt><trkpt lat="43.15827165135404" lon="12.275116395678051"><ele>300.6</ele><time>2026-03-29T12:51:22.999Z</time></trkpt><trkpt lat="43.15833181388024" lon="12.27524570399959"><ele>297.8</ele><time>2026-03-29T12:51:23.999Z</time></trkpt><trkpt lat="43.15840358187755" lon="12.27537280025909"><ele>295.0</ele><time>2026-03-29T12:51:24.999Z</time></trkpt><trkpt lat="43.158480492178676" lon="12.27550902308283"><ele>293.0</ele><time>2026-03-29T12:51:25.999Z</time></trkpt><trkpt lat="43.15855569798295" lon="12.27562789700975"><ele>291.0</ele><time>2026-03-29T12:51:26.999Z</time></trkpt><trkpt lat="43.15861985662436" lon="12.275748492233406"><ele>289.0</ele><time>2026-03-29T12:51:27.999Z</time></trkpt><trkpt lat="43.15869236235368" lon="12.275864585041175"><ele>287.0</ele><time>2026-03-29T12:51:28.999Z</time></trkpt><trkpt lat="43.15877552399636" lon="12.27598409189546"><ele>287.0</ele><time>2026-03-29T12:51:29.999Z</time></trkpt><trkpt lat="43.158841121394616" lon="12.276081354456888"><ele>287.0</ele><time>2026-03-29T12:51:30.999Z</time></trkpt><trkpt lat="43.15890501379864" lon="12.276168412408348"><ele>287.0</ele><time>2026-03-29T12:51:31.999Z</time></trkpt><trkpt lat="43.15895680494986" lon="12.276249811210384"><ele>287.0</ele><time>2026-03-29T12:51:32.999Z</time></trkpt><trkpt lat="43.15900637636186" lon="12.276348299264203"><ele>287.0</ele><time>2026-03-29T12:51:33.998Z</time></trkpt><trkpt lat="43.159052453443216" lon="12.276453983102048"><ele>287.0</ele><time>2026-03-29T12:51:34.998Z</time></trkpt><trkpt lat="43.159116000888496" lon="12.276573494545229"><ele>286.0</ele><time>2026-03-29T12:51:35.998Z</time></trkpt><trkpt lat="43.15918754819229" lon="12.276675996637469"><ele>285.0</ele><time>2026-03-29T12:51:36.998Z</time></trkpt><trkpt lat="43.159263417293175" lon="12.276740587722848"><ele>284.0</ele><time>2026-03-29T12:51:37.998Z</time></trkpt><trkpt lat="43.159304021518224" lon="12.276817553142722"><ele>283.0</ele><time>2026-03-29T12:51:38.998Z</time></trkpt><trkpt lat="43.15935831712536" lon="12.276869498164816"><ele>282.0</ele><time>2026-03-29T12:51:39.998Z</time></trkpt><trkpt lat="43.159496248846196" lon="12.276900696420034"><ele>282.0</ele><time>2026-03-29T12:51:41.998Z</time></trkpt><trkpt lat="43.159565985051245" lon="12.276912007948656"><ele>282.0</ele><time>2026-03-29T12:51:42.998Z</time></trkpt><trkpt lat="43.15963082534003" lon="12.276911079515669"><ele>282.0</ele><time>2026-03-29T12:51:44.998Z</time></trkpt><trkpt lat="43.15971675033795" lon="12.276933196594584"><ele>282.0</ele><time>2026-03-29T12:51:47Z</time></trkpt><trkpt lat="43.1597913750378" lon="12.276941881398692"><ele>282.0</ele><time>2026-03-29T12:51:48Z</time></trkpt><trkpt lat="43.15989966485023" lon="12.276918594831136"><ele>282.0</ele><time>2026-03-29T12:51:49Z</time></trkpt><trkpt lat="43.16001313753234" lon="12.276875178370133"><ele>279.75</ele><time>2026-03-29T12:51:50Z</time></trkpt><trkpt lat="43.1601352182642" lon="12.27683228057285"><ele>277.5</ele><time>2026-03-29T12:51:51Z</time></trkpt><trkpt lat="43.16023946818358" lon="12.276772067855086"><ele>275.25</ele><time>2026-03-29T12:51:52Z</time></trkpt><trkpt lat="43.160357845805" lon="12.276722770175377"><ele>273.0</ele><time>2026-03-29T12:51:53Z</time></trkpt><trkpt lat="43.16047333798906" lon="12.27666363569523"><ele>273.0</ele><time>2026-03-29T12:51:54Z</time></trkpt><trkpt lat="43.160579380247725" lon="12.276612809226"><ele>273.0</ele><time>2026-03-29T12:51:55Z</time></trkpt><trkpt lat="43.16067919155716" lon="12.276565862289116"><ele>273.0</ele><time>2026-03-29T12:51:56Z</time></trkpt><trkpt lat="43.160776307574565" lon="12.27651706794369"><ele>273.0</ele><time>2026-03-29T12:51:57Z</time></trkpt><trkpt lat="43.16086030348795" lon="12.276461756829702"><ele>273.0</ele><time>2026-03-29T12:51:58Z</time></trkpt><trkpt lat="43.1609450581811" lon="12.276409323047323"><ele>273.0</ele><time>2026-03-29T12:51:59Z</time></trkpt><trkpt lat="43.16101299739276" lon="12.276344998962422"><ele>273.0</ele><time>2026-03-29T12:52:00Z</time></trkpt><trkpt lat="43.16108146766087" lon="12.276258851915177"><ele>273.0</ele><time>2026-03-29T12:52:01Z</time></trkpt><trkpt lat="43.161144327479576" lon="12.276185459569906"><ele>273.0</ele><time>2026-03-29T12:52:02Z</time></trkpt><trkpt lat="43.161206021857566" lon="12.276123973658992"><ele>273.0</ele><time>2026-03-29T12:52:04Z</time></trkpt><trkpt lat="43.16133593721459" lon="12.276084396654243"><ele>273.0</ele><time>2026-03-29T12:52:06Z</time></trkpt><trkpt lat="43.161437277914544" lon="12.276072106945621"><ele>273.0</ele><time>2026-03-29T12:52:07Z</time></trkpt><trkpt lat="43.16161728528383" lon="12.276114941329809"><ele>273.0</ele><time>2026-03-29T12:52:08Z</time></trkpt><trkpt lat="43.16177369691496" lon="12.276156725340671"><ele>273.0</ele><time>2026-03-29T12:52:09Z</time></trkpt><trkpt lat="43.16190324372478" lon="12.276189740216465"><ele>270.8333333333333</ele><time>2026-03-29T12:52:10Z</time></trkpt><trkpt lat="43.16200060223879" lon="12.276201701444252"><ele>268.6666666666667</ele><time>2026-03-29T12:52:11Z</time></trkpt><trkpt lat="43.162070283551216" lon="12.276206563197807"><ele>266.5</ele><time>2026-03-29T12:52:12Z</time></trkpt><trkpt lat="43.16213397051028" lon="12.27620510960556"><ele>264.33333333333337</ele><time>2026-03-29T12:52:13Z</time></trkpt><trkpt lat="43.16221659465494" lon="12.276191325143165"><ele>262.1666666666667</ele><time>2026-03-29T12:52:14Z</time></trkpt><trkpt lat="43.16230423179835" lon="12.276160092399751"><ele>260.0</ele><time>2026-03-29T12:52:15Z</time></trkpt><trkpt lat="43.162390862013496" lon="12.276115113725806"><ele>260.0</ele><time>2026-03-29T12:52:16Z</time></trkpt><trkpt lat="43.16249385729324" lon="12.276069809302284"><ele>260.0</ele><time>2026-03-29T12:52:17Z</time></trkpt><trkpt lat="43.16259726026256" lon="12.276019911002207"><ele>260.0</ele><time>2026-03-29T12:52:18Z</time></trkpt><trkpt lat="43.16270671492666" lon="12.275974288636165"><ele>260.0</ele><time>2026-03-29T12:52:19Z</time></trkpt><trkpt lat="43.16281679342917" lon="12.275942509428384"><ele>260.0</ele><time>2026-03-29T12:52:20Z</time></trkpt><trkpt lat="43.16292737102456" lon="12.275939484249037"><ele>260.0</ele><time>2026-03-29T12:52:21Z</time></trkpt><trkpt lat="43.16304969614138" lon="12.275985670849057"><ele>260.0</ele><time>2026-03-29T12:52:22Z</time></trkpt><trkpt lat="43.163161653172665" lon="12.276045679318528"><ele>260.0</ele><time>2026-03-29T12:52:23Z</time></trkpt><trkpt lat="43.163269784771366" lon="12.276113968929936"><ele>260.0</ele><time>2026-03-29T12:52:24Z</time></trkpt><trkpt lat="43.163383522522935" lon="12.276194121257106"><ele>259.8</ele><time>2026-03-29T12:52:25Z</time></trkpt><trkpt lat="43.16350199859695" lon="12.2762765075694"><ele>259.6</ele><time>2026-03-29T12:52:26Z</time></trkpt><trkpt lat="43.163597233307435" lon="12.276360877659613"><ele>259.4</ele><time>2026-03-29T12:52:27Z</time></trkpt><trkpt lat="43.163692388462636" lon="12.276439788303744"><ele>259.2</ele><time>2026-03-29T12:52:28Z</time></trkpt><trkpt lat="43.16375771786309" lon="12.276501879710771"><ele>259.0</ele><time>2026-03-29T12:52:29Z</time></trkpt><trkpt lat="43.163817989318716" lon="12.27656360711586"><ele>258.59999999999997</ele><time>2026-03-29T12:52:30.999Z</time></trkpt><trkpt lat="43.16388375871019" lon="12.27663662133918"><ele>258.2</ele><time>2026-03-29T12:52:32.999Z</time></trkpt><trkpt lat="43.16392626225414" lon="12.276805732891248"><ele>257.79999999999995</ele><time>2026-03-29T12:52:34.999Z</time></trkpt><trkpt lat="43.163919997969074" lon="12.276960538870554"><ele>257.4</ele><time>2026-03-29T12:52:35.999Z</time></trkpt><trkpt lat="43.16391010576557" lon="12.27710542637848"><ele>257.0</ele><time>2026-03-29T12:52:36.999Z</time></trkpt><trkpt lat="43.16391281205785" lon="12.277225695587731"><ele>257.0</ele><time>2026-03-29T12:52:37.999Z</time></trkpt><trkpt lat="43.16391988652425" lon="12.277334151247965"><ele>257.0</ele><time>2026-03-29T12:52:38.999Z</time></trkpt><trkpt lat="43.16392529619909" lon="12.277453684920877"><ele>257.0</ele><time>2026-03-29T12:52:39.999Z</time></trkpt><trkpt lat="43.1639248317868" lon="12.277564130172006"><ele>257.0</ele><time>2026-03-29T12:52:40.999Z</time></trkpt><trkpt lat="43.16392103512001" lon="12.277677688569044"><ele>257.0</ele><time>2026-03-29T12:52:41.999Z</time></trkpt><trkpt lat="43.163917456692374" lon="12.277796859260949"><ele>257.0</ele><time>2026-03-29T12:52:42.999Z</time></trkpt><trkpt lat="43.16392314201815" lon="12.27792341887955"><ele>257.0</ele><time>2026-03-29T12:52:43.999Z</time></trkpt><trkpt lat="43.16394186630935" lon="12.278040893203809"><ele>257.0</ele><time>2026-03-29T12:52:44.999Z</time></trkpt><trkpt lat="43.16396391595258" lon="12.27817113003834"><ele>257.0</ele><time>2026-03-29T12:52:45.999Z</time></trkpt><trkpt lat="43.16399415203953" lon="12.278313789658133"><ele>257.0</ele><time>2026-03-29T12:52:46.999Z</time></trkpt><trkpt lat="43.164009739476356" lon="12.27844589383546"><ele>257.0</ele><time>2026-03-29T12:52:47.999Z</time></trkpt><trkpt lat="43.1640373406178" lon="12.278584786131708"><ele>256.6</ele><time>2026-03-29T12:52:48.999Z</time></trkpt><trkpt lat="43.16406862704512" lon="12.278719925098464"><ele>256.2</ele><time>2026-03-29T12:52:49.999Z</time></trkpt><trkpt lat="43.164089043346536" lon="12.278857459258397"><ele>255.8</ele><time>2026-03-29T12:52:50.999Z</time></trkpt><trkpt lat="43.164098223773145" lon="12.278957392188325"><ele>255.4</ele><time>2026-03-29T12:52:51.999Z</time></trkpt><trkpt lat="43.164051596992515" lon="12.279082433849368"><ele>255.0</ele><time>2026-03-29T12:52:55.999Z</time></trkpt><trkpt lat="43.1639745595424" lon="12.279125483437989"><ele>254.25</ele><time>2026-03-29T12:52:56.999Z</time></trkpt><trkpt lat="43.163892356916705" lon="12.2791449366336"><ele>253.5</ele><time>2026-03-29T12:52:57.999Z</time></trkpt><trkpt lat="43.16378308754132" lon="12.27916849728787"><ele>252.75</ele><time>2026-03-29T12:52:58.999Z</time></trkpt><trkpt lat="43.16366447914223" lon="12.279263624958974"><ele>252.0</ele><time>2026-03-29T12:52:59.999Z</time></trkpt><trkpt lat="43.163547681440654" lon="12.27936255170809"><ele>252.0</ele><time>2026-03-29T12:53:00.999Z</time></trkpt><trkpt lat="43.163460479287636" lon="12.279464186051326"><ele>252.0</ele><time>2026-03-29T12:53:01.999Z</time></trkpt><trkpt lat="43.16336958439955" lon="12.27957405902899"><ele>252.0</ele><time>2026-03-29T12:53:02.999Z</time></trkpt><trkpt lat="43.16327384101278" lon="12.27973323868965"><ele>252.0</ele><time>2026-03-29T12:53:03.999Z</time></trkpt><trkpt lat="43.1631919448858" lon="12.279889242801685"><ele>251.75</ele><time>2026-03-29T12:53:04.999Z</time></trkpt><trkpt lat="43.16311384273669" lon="12.280049555847057"><ele>251.5</ele><time>2026-03-29T12:53:05.999Z</time></trkpt><trkpt lat="43.163029663513015" lon="12.280205304926456"><ele>251.25</ele><time>2026-03-29T12:53:06.999Z</time></trkpt><trkpt lat="43.16294994595164" lon="12.280349217992141"><ele>251.0</ele><time>2026-03-29T12:53:07.999Z</time></trkpt><trkpt lat="43.162876995093264" lon="12.280500067086647"><ele>250.75</ele><time>2026-03-29T12:53:08.999Z</time></trkpt><trkpt lat="43.1628075193428" lon="12.280635354364733"><ele>250.5</ele><time>2026-03-29T12:53:09.999Z</time></trkpt><trkpt lat="43.16274207028547" lon="12.2807632497639"><ele>250.25</ele><time>2026-03-29T12:53:10.999Z</time></trkpt><trkpt lat="43.16266690514517" lon="12.280904560856841"><ele>250.0</ele><time>2026-03-29T12:53:11.999Z</time></trkpt><trkpt lat="43.16259783967653" lon="12.281037648698632"><ele>250.0</ele><time>2026-03-29T12:53:12.999Z</time></trkpt><trkpt lat="43.162528412430156" lon="12.281183104843192"><ele>250.0</ele><time>2026-03-29T12:53:13.999Z</time></trkpt><trkpt lat="43.162465639536606" lon="12.28132336868074"><ele>250.0</ele><time>2026-03-29T12:53:14.999Z</time></trkpt><trkpt lat="43.162399379634394" lon="12.281454965002611"><ele>250.0</ele><time>2026-03-29T12:53:15.999Z</time></trkpt><trkpt lat="43.16232607603408" lon="12.281587754088957"><ele>250.0</ele><time>2026-03-29T12:53:16.999Z</time></trkpt><trkpt lat="43.16226142394101" lon="12.281713560585787"><ele>250.0</ele><time>2026-03-29T12:53:17.999Z</time></trkpt><trkpt lat="43.16219638416271" lon="12.281831720990477"><ele>250.0</ele><time>2026-03-29T12:53:18.999Z</time></trkpt><trkpt lat="43.16214205962015" lon="12.281952409820327"><ele>250.0</ele><time>2026-03-29T12:53:19.999Z</time></trkpt><trkpt lat="43.162064211336336" lon="12.282092257942224"><ele>250.0</ele><time>2026-03-29T12:53:20.999Z</time></trkpt><trkpt lat="43.16199691303606" lon="12.282225075596303"><ele>250.0</ele><time>2026-03-29T12:53:21.999Z</time></trkpt><trkpt lat="43.161934765399536" lon="12.28233612383507"><ele>250.0</ele><time>2026-03-29T12:53:22.999Z</time></trkpt><trkpt lat="43.16187431469499" lon="12.28245627745023"><ele>250.0</ele><time>2026-03-29T12:53:23.999Z</time></trkpt><trkpt lat="43.16180947249812" lon="12.282585886011015"><ele>250.0</ele><time>2026-03-29T12:53:24.998Z</time></trkpt><trkpt lat="43.16174312819285" lon="12.282715115371763"><ele>250.0</ele><time>2026-03-29T12:53:25.998Z</time></trkpt><trkpt lat="43.16168750432583" lon="12.28283635920252"><ele>250.0</ele><time>2026-03-29T12:53:26.998Z</time></trkpt><trkpt lat="43.16162632954557" lon="12.282944722040828"><ele>250.0</ele><time>2026-03-29T12:53:27.998Z</time></trkpt><trkpt lat="43.16157746123373" lon="12.283045951785551"><ele>250.0</ele><time>2026-03-29T12:53:28.998Z</time></trkpt><trkpt lat="43.16153032600522" lon="12.28314987409369"><ele>250.0</ele><time>2026-03-29T12:53:29.998Z</time></trkpt><trkpt lat="43.161490267200875" lon="12.28323261796407"><ele>249.99999999999997</ele><time>2026-03-29T12:53:30.998Z</time></trkpt><trkpt lat="43.16144916252294" lon="12.283308135423288"><ele>250.0</ele><time>2026-03-29T12:53:31.998Z</time></trkpt><trkpt lat="43.16140258759101" lon="12.283395154404221"><ele>250.0</ele><time>2026-03-29T12:53:32.998Z</time></trkpt><trkpt lat="43.16136189786662" lon="12.28348415529724"><ele>250.0</ele><time>2026-03-29T12:53:33.998Z</time></trkpt><trkpt lat="43.161317984446846" lon="12.283572662041289"><ele>249.99999999999997</ele><time>2026-03-29T12:53:34.998Z</time></trkpt><trkpt lat="43.16127760688455" lon="12.283646560537727"><ele>250.0</ele><time>2026-03-29T12:53:35.998Z</time></trkpt><trkpt lat="43.16120100019688" lon="12.28378003378376"><ele>249.99999999999997</ele><time>2026-03-29T12:53:37.998Z</time></trkpt><trkpt lat="43.16115033537422" lon="12.283861499158009"><ele>250.0</ele><time>2026-03-29T12:53:39.998Z</time></trkpt><trkpt lat="43.161093806198444" lon="12.283809446511974"><ele>250.0</ele><time>2026-03-29T12:53:41.998Z</time></trkpt><trkpt lat="43.16104998616381" lon="12.283732342727767"><ele>250.0</ele><time>2026-03-29T12:53:42.998Z</time></trkpt><trkpt lat="43.16099843369861" lon="12.283635540840638"><ele>249.99999999999997</ele><time>2026-03-29T12:53:43.998Z</time></trkpt><trkpt lat="43.16096862114029" lon="12.283536400030055"><ele>250.0</ele><time>2026-03-29T12:53:44.998Z</time></trkpt><trkpt lat="43.16096280238793" lon="12.283427273031084"><ele>250.0</ele><time>2026-03-29T12:53:45.998Z</time></trkpt><trkpt lat="43.1609605035395" lon="12.283308313268769"><ele>250.0</ele><time>2026-03-29T12:53:46.998Z</time></trkpt><trkpt lat="43.16096832398201" lon="12.283215337695415"><ele>250.0</ele><time>2026-03-29T12:53:48.998Z</time></trkpt><trkpt lat="43.16104040060419" lon="12.283223084548576"><ele>250.0</ele><time>2026-03-29T12:53:52Z</time></trkpt><trkpt lat="43.16109215151953" lon="12.283290646764701"><ele>250.0</ele><time>2026-03-29T13:12:52Z</time></trkpt><trkpt lat="43.161114053790456" lon="12.283200221413646"><ele>250.0</ele><time>2026-03-29T13:16:15.999Z</time></trkpt><trkpt lat="43.16109489057072" lon="12.283107537294894"><ele>250.0</ele><time>2026-03-29T13:16:21.999Z</time></trkpt><trkpt lat="43.161110408414686" lon="12.283023641610871"><ele>250.0</ele><time>2026-03-29T13:16:26.999Z</time></trkpt><trkpt lat="43.16109069238034" lon="12.283124780359422"><ele>250.0</ele><time>2026-03-29T13:16:34.999Z</time></trkpt><trkpt lat="43.16109251885069" lon="12.283218906844471"><ele>250.0</ele><time>2026-03-29T13:16:39.999Z</time></trkpt><trkpt lat="43.16109113539134" lon="12.283126366709727"><ele>250.0</ele><time>2026-03-29T13:16:55.998Z</time></trkpt><trkpt lat="43.16110862743135" lon="12.283039560111277"><ele>250.0</ele><time>2026-03-29T13:17:01Z</time></trkpt><trkpt lat="43.161180560450404" lon="12.283009711475119"><ele>250.0</ele><time>2026-03-29T13:17:06Z</time></trkpt><trkpt lat="43.16124424614718" lon="12.283001780980621"><ele>250.0</ele><time>2026-03-29T13:17:10Z</time></trkpt><trkpt lat="43.161265498429586" lon="12.282905502915737"><ele>250.0</ele><time>2026-03-29T13:17:16Z</time></trkpt><trkpt lat="43.161308302983535" lon="12.282826689744597"><ele>250.0</ele><time>2026-03-29T13:17:22Z</time></trkpt><trkpt lat="43.161369698789755" lon="12.282792985906031"><ele>250.0</ele><time>2026-03-29T13:17:27Z</time></trkpt><trkpt lat="43.16143555291554" lon="12.282785036740819"><ele>250.0</ele><time>2026-03-29T13:17:32Z</time></trkpt><trkpt lat="43.16150351382139" lon="12.282737374039353"><ele>250.0</ele><time>2026-03-29T13:17:40.999Z</time></trkpt><trkpt lat="43.16150351382139" lon="12.282737374039353"><ele>250.0</ele><time>2026-03-29T13:17:40.999Z</time></trkpt><trkpt lat="43.16150351382139" lon="12.282737374039353"><ele>250.0</ele><time>2026-03-29T13:17:40.999Z</time></trkpt><trkpt lat="43.16150351382139" lon="12.282737374039353"><ele>250.0</ele><time>2026-03-29T13:17:40.999Z</time></trkpt><trkpt lat="43.16150351382139" lon="12.282737374039353"><ele>250.0</ele><time>2026-03-29T13:17:40.999Z</time></trkpt></trkseg></trk></gpx>